<?xml version="1.0" encoding="UTF-8"?>
<gpx creator="StravaGPX Android" xmlns:xsi="http://www.w3.org/2001/XMLSchema-instance" xsi:schemaLocation="http://www.topografix.com/GPX/1/1 http://www.topografix.com/GPX/1/1/gpx.xsd" version="1.1" xmlns="http://www.topografix.com/GPX/1/1">
 <metadata>
  <time>2019-09-08T05:52:50Z</time>
 </metadata>
 <trk>
  <name>Rust Roest - rit 33 - Leveroy</name>
  <type>1</type>
  <trkseg>
   <trkpt lat="51.1469550" lon="5.7406430">
    <ele>31.1</ele>
    <time>2019-09-08T05:52:50Z</time>
   </trkpt>
   <trkpt lat="51.1469490" lon="5.7406950">
    <ele>31.1</ele>
    <time>2019-09-08T05:53:41Z</time>
   </trkpt>
   <trkpt lat="51.1469250" lon="5.7407680">
    <ele>31.2</ele>
    <time>2019-09-08T05:53:43Z</time>
   </trkpt>
   <trkpt lat="51.1468700" lon="5.7408090">
    <ele>31.2</ele>
    <time>2019-09-08T05:53:45Z</time>
   </trkpt>
   <trkpt lat="51.1468270" lon="5.7408120">
    <ele>31.3</ele>
    <time>2019-09-08T05:53:46Z</time>
   </trkpt>
   <trkpt lat="51.1467810" lon="5.7408050">
    <ele>31.3</ele>
    <time>2019-09-08T05:53:47Z</time>
   </trkpt>
   <trkpt lat="51.1467010" lon="5.7407720">
    <ele>31.4</ele>
    <time>2019-09-08T05:53:48Z</time>
   </trkpt>
   <trkpt lat="51.1466550" lon="5.7407590">
    <ele>31.5</ele>
    <time>2019-09-08T05:53:49Z</time>
   </trkpt>
   <trkpt lat="51.1466140" lon="5.7407370">
    <ele>31.5</ele>
    <time>2019-09-08T05:53:50Z</time>
   </trkpt>
   <trkpt lat="51.1465780" lon="5.7407040">
    <ele>31.5</ele>
    <time>2019-09-08T05:53:51Z</time>
   </trkpt>
   <trkpt lat="51.1465360" lon="5.7406570">
    <ele>31.6</ele>
    <time>2019-09-08T05:53:52Z</time>
   </trkpt>
   <trkpt lat="51.1464930" lon="5.7406000">
    <ele>31.6</ele>
    <time>2019-09-08T05:53:53Z</time>
   </trkpt>
   <trkpt lat="51.1464560" lon="5.7405440">
    <ele>31.6</ele>
    <time>2019-09-08T05:53:54Z</time>
   </trkpt>
   <trkpt lat="51.1464130" lon="5.7404920">
    <ele>31.7</ele>
    <time>2019-09-08T05:53:55Z</time>
   </trkpt>
   <trkpt lat="51.1463750" lon="5.7404430">
    <ele>31.7</ele>
    <time>2019-09-08T05:53:56Z</time>
   </trkpt>
   <trkpt lat="51.1463170" lon="5.7404130">
    <ele>31.7</ele>
    <time>2019-09-08T05:53:57Z</time>
   </trkpt>
   <trkpt lat="51.1462650" lon="5.7403610">
    <ele>31.8</ele>
    <time>2019-09-08T05:53:58Z</time>
   </trkpt>
   <trkpt lat="51.1462180" lon="5.7403050">
    <ele>31.8</ele>
    <time>2019-09-08T05:53:59Z</time>
   </trkpt>
   <trkpt lat="51.1461740" lon="5.7402500">
    <ele>31.9</ele>
    <time>2019-09-08T05:54:00Z</time>
   </trkpt>
   <trkpt lat="51.1461270" lon="5.7402000">
    <ele>31.9</ele>
    <time>2019-09-08T05:54:01Z</time>
   </trkpt>
   <trkpt lat="51.1460780" lon="5.7401400">
    <ele>31.9</ele>
    <time>2019-09-08T05:54:02Z</time>
   </trkpt>
   <trkpt lat="51.1460300" lon="5.7400840">
    <ele>32.0</ele>
    <time>2019-09-08T05:54:03Z</time>
   </trkpt>
   <trkpt lat="51.1459850" lon="5.7400410">
    <ele>32.0</ele>
    <time>2019-09-08T05:54:04Z</time>
   </trkpt>
   <trkpt lat="51.1459380" lon="5.7399930">
    <ele>32.0</ele>
    <time>2019-09-08T05:54:05Z</time>
   </trkpt>
   <trkpt lat="51.1458970" lon="5.7399340">
    <ele>32.1</ele>
    <time>2019-09-08T05:54:06Z</time>
   </trkpt>
   <trkpt lat="51.1458470" lon="5.7398880">
    <ele>32.1</ele>
    <time>2019-09-08T05:54:07Z</time>
   </trkpt>
   <trkpt lat="51.1458050" lon="5.7398420">
    <ele>32.1</ele>
    <time>2019-09-08T05:54:08Z</time>
   </trkpt>
   <trkpt lat="51.1457610" lon="5.7397820">
    <ele>32.1</ele>
    <time>2019-09-08T05:54:09Z</time>
   </trkpt>
   <trkpt lat="51.1457300" lon="5.7397460">
    <ele>32.2</ele>
    <time>2019-09-08T05:54:10Z</time>
   </trkpt>
   <trkpt lat="51.1457020" lon="5.7397140">
    <ele>32.2</ele>
    <time>2019-09-08T05:54:11Z</time>
   </trkpt>
   <trkpt lat="51.1456770" lon="5.7396980">
    <ele>32.2</ele>
    <time>2019-09-08T05:54:12Z</time>
   </trkpt>
   <trkpt lat="51.1456500" lon="5.7396840">
    <ele>32.2</ele>
    <time>2019-09-08T05:54:13Z</time>
   </trkpt>
   <trkpt lat="51.1456010" lon="5.7396910">
    <ele>32.2</ele>
    <time>2019-09-08T05:54:15Z</time>
   </trkpt>
   <trkpt lat="51.1455700" lon="5.7397030">
    <ele>32.2</ele>
    <time>2019-09-08T05:54:16Z</time>
   </trkpt>
   <trkpt lat="51.1455430" lon="5.7397380">
    <ele>32.2</ele>
    <time>2019-09-08T05:54:17Z</time>
   </trkpt>
   <trkpt lat="51.1455170" lon="5.7397740">
    <ele>32.2</ele>
    <time>2019-09-08T05:54:18Z</time>
   </trkpt>
   <trkpt lat="51.1454860" lon="5.7398210">
    <ele>32.2</ele>
    <time>2019-09-08T05:54:19Z</time>
   </trkpt>
   <trkpt lat="51.1454570" lon="5.7398700">
    <ele>32.2</ele>
    <time>2019-09-08T05:54:20Z</time>
   </trkpt>
   <trkpt lat="51.1454190" lon="5.7399190">
    <ele>32.2</ele>
    <time>2019-09-08T05:54:21Z</time>
   </trkpt>
   <trkpt lat="51.1453730" lon="5.7399640">
    <ele>32.2</ele>
    <time>2019-09-08T05:54:22Z</time>
   </trkpt>
   <trkpt lat="51.1453380" lon="5.7400160">
    <ele>32.2</ele>
    <time>2019-09-08T05:54:23Z</time>
   </trkpt>
   <trkpt lat="51.1452960" lon="5.7400700">
    <ele>32.2</ele>
    <time>2019-09-08T05:54:24Z</time>
   </trkpt>
   <trkpt lat="51.1452600" lon="5.7401380">
    <ele>32.2</ele>
    <time>2019-09-08T05:54:25Z</time>
   </trkpt>
   <trkpt lat="51.1452200" lon="5.7402020">
    <ele>32.2</ele>
    <time>2019-09-08T05:54:26Z</time>
   </trkpt>
   <trkpt lat="51.1451840" lon="5.7402580">
    <ele>32.2</ele>
    <time>2019-09-08T05:54:27Z</time>
   </trkpt>
   <trkpt lat="51.1451450" lon="5.7403130">
    <ele>32.1</ele>
    <time>2019-09-08T05:54:28Z</time>
   </trkpt>
   <trkpt lat="51.1451090" lon="5.7403710">
    <ele>32.1</ele>
    <time>2019-09-08T05:54:29Z</time>
   </trkpt>
   <trkpt lat="51.1450680" lon="5.7404250">
    <ele>32.1</ele>
    <time>2019-09-08T05:54:30Z</time>
   </trkpt>
   <trkpt lat="51.1450350" lon="5.7404860">
    <ele>32.2</ele>
    <time>2019-09-08T05:54:31Z</time>
   </trkpt>
   <trkpt lat="51.1450020" lon="5.7405460">
    <ele>32.2</ele>
    <time>2019-09-08T05:54:32Z</time>
   </trkpt>
   <trkpt lat="51.1449680" lon="5.7406080">
    <ele>32.2</ele>
    <time>2019-09-08T05:54:33Z</time>
   </trkpt>
   <trkpt lat="51.1449320" lon="5.7406680">
    <ele>32.2</ele>
    <time>2019-09-08T05:54:34Z</time>
   </trkpt>
   <trkpt lat="51.1448980" lon="5.7407280">
    <ele>32.2</ele>
    <time>2019-09-08T05:54:35Z</time>
   </trkpt>
   <trkpt lat="51.1448680" lon="5.7407910">
    <ele>32.3</ele>
    <time>2019-09-08T05:54:36Z</time>
   </trkpt>
   <trkpt lat="51.1448480" lon="5.7408510">
    <ele>32.3</ele>
    <time>2019-09-08T05:54:37Z</time>
   </trkpt>
   <trkpt lat="51.1448360" lon="5.7409170">
    <ele>32.3</ele>
    <time>2019-09-08T05:54:38Z</time>
   </trkpt>
   <trkpt lat="51.1448470" lon="5.7409780">
    <ele>32.4</ele>
    <time>2019-09-08T05:54:39Z</time>
   </trkpt>
   <trkpt lat="51.1448740" lon="5.7410320">
    <ele>32.4</ele>
    <time>2019-09-08T05:54:40Z</time>
   </trkpt>
   <trkpt lat="51.1449020" lon="5.7410660">
    <ele>32.4</ele>
    <time>2019-09-08T05:54:41Z</time>
   </trkpt>
   <trkpt lat="51.1449320" lon="5.7411530">
    <ele>32.5</ele>
    <time>2019-09-08T05:54:42Z</time>
   </trkpt>
   <trkpt lat="51.1449610" lon="5.7412070">
    <ele>32.5</ele>
    <time>2019-09-08T05:54:43Z</time>
   </trkpt>
   <trkpt lat="51.1449880" lon="5.7412700">
    <ele>32.5</ele>
    <time>2019-09-08T05:54:44Z</time>
   </trkpt>
   <trkpt lat="51.1450130" lon="5.7413360">
    <ele>32.6</ele>
    <time>2019-09-08T05:54:45Z</time>
   </trkpt>
   <trkpt lat="51.1450380" lon="5.7414020">
    <ele>32.6</ele>
    <time>2019-09-08T05:54:46Z</time>
   </trkpt>
   <trkpt lat="51.1450670" lon="5.7414590">
    <ele>32.6</ele>
    <time>2019-09-08T05:54:47Z</time>
   </trkpt>
   <trkpt lat="51.1450900" lon="5.7415210">
    <ele>32.6</ele>
    <time>2019-09-08T05:54:48Z</time>
   </trkpt>
   <trkpt lat="51.1451080" lon="5.7415740">
    <ele>32.7</ele>
    <time>2019-09-08T05:54:49Z</time>
   </trkpt>
   <trkpt lat="51.1451260" lon="5.7416170">
    <ele>32.7</ele>
    <time>2019-09-08T05:54:50Z</time>
   </trkpt>
   <trkpt lat="51.1451370" lon="5.7416630">
    <ele>32.7</ele>
    <time>2019-09-08T05:54:51Z</time>
   </trkpt>
   <trkpt lat="51.1451350" lon="5.7417420">
    <ele>32.7</ele>
    <time>2019-09-08T05:54:53Z</time>
   </trkpt>
   <trkpt lat="51.1451090" lon="5.7418350">
    <ele>32.6</ele>
    <time>2019-09-08T05:54:55Z</time>
   </trkpt>
   <trkpt lat="51.1450820" lon="5.7418730">
    <ele>32.6</ele>
    <time>2019-09-08T05:54:56Z</time>
   </trkpt>
   <trkpt lat="51.1450490" lon="5.7419010">
    <ele>32.5</ele>
    <time>2019-09-08T05:54:57Z</time>
   </trkpt>
   <trkpt lat="51.1450180" lon="5.7419290">
    <ele>32.5</ele>
    <time>2019-09-08T05:54:58Z</time>
   </trkpt>
   <trkpt lat="51.1449840" lon="5.7419560">
    <ele>32.5</ele>
    <time>2019-09-08T05:54:59Z</time>
   </trkpt>
   <trkpt lat="51.1449520" lon="5.7419840">
    <ele>32.4</ele>
    <time>2019-09-08T05:55:00Z</time>
   </trkpt>
   <trkpt lat="51.1449230" lon="5.7420150">
    <ele>32.4</ele>
    <time>2019-09-08T05:55:01Z</time>
   </trkpt>
   <trkpt lat="51.1449000" lon="5.7420410">
    <ele>32.4</ele>
    <time>2019-09-08T05:55:02Z</time>
   </trkpt>
   <trkpt lat="51.1448710" lon="5.7420810">
    <ele>32.4</ele>
    <time>2019-09-08T05:55:04Z</time>
   </trkpt>
   <trkpt lat="51.1451710" lon="5.7421560">
    <ele>32.4</ele>
    <time>2019-09-08T06:01:13Z</time>
   </trkpt>
   <trkpt lat="51.1451320" lon="5.7421570">
    <ele>32.4</ele>
    <time>2019-09-08T06:01:15Z</time>
   </trkpt>
   <trkpt lat="51.1450810" lon="5.7421740">
    <ele>32.4</ele>
    <time>2019-09-08T06:01:17Z</time>
   </trkpt>
   <trkpt lat="51.1450420" lon="5.7422100">
    <ele>32.4</ele>
    <time>2019-09-08T06:01:19Z</time>
   </trkpt>
   <trkpt lat="51.1450190" lon="5.7422690">
    <ele>32.4</ele>
    <time>2019-09-08T06:01:21Z</time>
   </trkpt>
   <trkpt lat="51.1450160" lon="5.7423480">
    <ele>32.4</ele>
    <time>2019-09-08T06:01:23Z</time>
   </trkpt>
   <trkpt lat="51.1450250" lon="5.7424220">
    <ele>32.5</ele>
    <time>2019-09-08T06:01:25Z</time>
   </trkpt>
   <trkpt lat="51.1450520" lon="5.7424830">
    <ele>32.5</ele>
    <time>2019-09-08T06:01:27Z</time>
   </trkpt>
   <trkpt lat="51.1451050" lon="5.7425030">
    <ele>32.5</ele>
    <time>2019-09-08T06:01:29Z</time>
   </trkpt>
   <trkpt lat="51.1451370" lon="5.7424910">
    <ele>32.5</ele>
    <time>2019-09-08T06:01:30Z</time>
   </trkpt>
   <trkpt lat="51.1451690" lon="5.7424660">
    <ele>32.5</ele>
    <time>2019-09-08T06:01:31Z</time>
   </trkpt>
   <trkpt lat="51.1452000" lon="5.7424300">
    <ele>32.5</ele>
    <time>2019-09-08T06:01:32Z</time>
   </trkpt>
   <trkpt lat="51.1452250" lon="5.7423510">
    <ele>32.6</ele>
    <time>2019-09-08T06:01:33Z</time>
   </trkpt>
   <trkpt lat="51.1452530" lon="5.7423070">
    <ele>32.6</ele>
    <time>2019-09-08T06:01:34Z</time>
   </trkpt>
   <trkpt lat="51.1452800" lon="5.7422640">
    <ele>32.6</ele>
    <time>2019-09-08T06:01:35Z</time>
   </trkpt>
   <trkpt lat="51.1453120" lon="5.7422330">
    <ele>32.7</ele>
    <time>2019-09-08T06:01:36Z</time>
   </trkpt>
   <trkpt lat="51.1453430" lon="5.7421810">
    <ele>32.7</ele>
    <time>2019-09-08T06:01:37Z</time>
   </trkpt>
   <trkpt lat="51.1453710" lon="5.7421410">
    <ele>32.8</ele>
    <time>2019-09-08T06:01:38Z</time>
   </trkpt>
   <trkpt lat="51.1453980" lon="5.7421020">
    <ele>32.8</ele>
    <time>2019-09-08T06:01:39Z</time>
   </trkpt>
   <trkpt lat="51.1454530" lon="5.7420730">
    <ele>32.9</ele>
    <time>2019-09-08T06:01:41Z</time>
   </trkpt>
   <trkpt lat="51.1454780" lon="5.7420910">
    <ele>32.9</ele>
    <time>2019-09-08T06:01:42Z</time>
   </trkpt>
   <trkpt lat="51.1455090" lon="5.7421380">
    <ele>33.0</ele>
    <time>2019-09-08T06:01:43Z</time>
   </trkpt>
   <trkpt lat="51.1455320" lon="5.7421930">
    <ele>33.0</ele>
    <time>2019-09-08T06:01:44Z</time>
   </trkpt>
   <trkpt lat="51.1455500" lon="5.7422660">
    <ele>33.0</ele>
    <time>2019-09-08T06:01:45Z</time>
   </trkpt>
   <trkpt lat="51.1455670" lon="5.7423510">
    <ele>33.0</ele>
    <time>2019-09-08T06:01:46Z</time>
   </trkpt>
   <trkpt lat="51.1455830" lon="5.7424310">
    <ele>33.0</ele>
    <time>2019-09-08T06:01:47Z</time>
   </trkpt>
   <trkpt lat="51.1456040" lon="5.7425220">
    <ele>33.0</ele>
    <time>2019-09-08T06:01:48Z</time>
   </trkpt>
   <trkpt lat="51.1456190" lon="5.7425980">
    <ele>33.0</ele>
    <time>2019-09-08T06:01:49Z</time>
   </trkpt>
   <trkpt lat="51.1456300" lon="5.7426860">
    <ele>33.0</ele>
    <time>2019-09-08T06:01:50Z</time>
   </trkpt>
   <trkpt lat="51.1456440" lon="5.7427940">
    <ele>33.0</ele>
    <time>2019-09-08T06:01:51Z</time>
   </trkpt>
   <trkpt lat="51.1456620" lon="5.7428940">
    <ele>33.0</ele>
    <time>2019-09-08T06:01:52Z</time>
   </trkpt>
   <trkpt lat="51.1456680" lon="5.7429830">
    <ele>33.0</ele>
    <time>2019-09-08T06:01:53Z</time>
   </trkpt>
   <trkpt lat="51.1456760" lon="5.7430850">
    <ele>32.9</ele>
    <time>2019-09-08T06:01:54Z</time>
   </trkpt>
   <trkpt lat="51.1456850" lon="5.7431780">
    <ele>32.9</ele>
    <time>2019-09-08T06:01:55Z</time>
   </trkpt>
   <trkpt lat="51.1456900" lon="5.7432720">
    <ele>32.9</ele>
    <time>2019-09-08T06:01:56Z</time>
   </trkpt>
   <trkpt lat="51.1456850" lon="5.7433500">
    <ele>32.9</ele>
    <time>2019-09-08T06:01:57Z</time>
   </trkpt>
   <trkpt lat="51.1457070" lon="5.7434370">
    <ele>32.9</ele>
    <time>2019-09-08T06:01:58Z</time>
   </trkpt>
   <trkpt lat="51.1456970" lon="5.7435300">
    <ele>33.0</ele>
    <time>2019-09-08T06:01:59Z</time>
   </trkpt>
   <trkpt lat="51.1456950" lon="5.7436200">
    <ele>33.0</ele>
    <time>2019-09-08T06:02:00Z</time>
   </trkpt>
   <trkpt lat="51.1456940" lon="5.7437160">
    <ele>33.0</ele>
    <time>2019-09-08T06:02:01Z</time>
   </trkpt>
   <trkpt lat="51.1456890" lon="5.7437910">
    <ele>32.9</ele>
    <time>2019-09-08T06:02:02Z</time>
   </trkpt>
   <trkpt lat="51.1456780" lon="5.7438940">
    <ele>32.9</ele>
    <time>2019-09-08T06:02:03Z</time>
   </trkpt>
   <trkpt lat="51.1456710" lon="5.7439850">
    <ele>32.8</ele>
    <time>2019-09-08T06:02:04Z</time>
   </trkpt>
   <trkpt lat="51.1456530" lon="5.7440710">
    <ele>32.7</ele>
    <time>2019-09-08T06:02:05Z</time>
   </trkpt>
   <trkpt lat="51.1456340" lon="5.7441850">
    <ele>32.6</ele>
    <time>2019-09-08T06:02:06Z</time>
   </trkpt>
   <trkpt lat="51.1456280" lon="5.7442700">
    <ele>32.6</ele>
    <time>2019-09-08T06:02:07Z</time>
   </trkpt>
   <trkpt lat="51.1456120" lon="5.7443570">
    <ele>32.6</ele>
    <time>2019-09-08T06:02:08Z</time>
   </trkpt>
   <trkpt lat="51.1456130" lon="5.7444700">
    <ele>32.6</ele>
    <time>2019-09-08T06:02:09Z</time>
   </trkpt>
   <trkpt lat="51.1456080" lon="5.7445610">
    <ele>32.6</ele>
    <time>2019-09-08T06:02:10Z</time>
   </trkpt>
   <trkpt lat="51.1455920" lon="5.7446720">
    <ele>32.6</ele>
    <time>2019-09-08T06:02:11Z</time>
   </trkpt>
   <trkpt lat="51.1455860" lon="5.7447860">
    <ele>32.6</ele>
    <time>2019-09-08T06:02:12Z</time>
   </trkpt>
   <trkpt lat="51.1455780" lon="5.7448730">
    <ele>32.5</ele>
    <time>2019-09-08T06:02:13Z</time>
   </trkpt>
   <trkpt lat="51.1455620" lon="5.7449670">
    <ele>32.4</ele>
    <time>2019-09-08T06:02:14Z</time>
   </trkpt>
   <trkpt lat="51.1455560" lon="5.7450700">
    <ele>32.4</ele>
    <time>2019-09-08T06:02:15Z</time>
   </trkpt>
   <trkpt lat="51.1455510" lon="5.7451480">
    <ele>32.3</ele>
    <time>2019-09-08T06:02:16Z</time>
   </trkpt>
   <trkpt lat="51.1455430" lon="5.7452340">
    <ele>32.3</ele>
    <time>2019-09-08T06:02:17Z</time>
   </trkpt>
   <trkpt lat="51.1455370" lon="5.7453270">
    <ele>32.2</ele>
    <time>2019-09-08T06:02:18Z</time>
   </trkpt>
   <trkpt lat="51.1455320" lon="5.7454270">
    <ele>32.2</ele>
    <time>2019-09-08T06:02:19Z</time>
   </trkpt>
   <trkpt lat="51.1455270" lon="5.7455190">
    <ele>32.2</ele>
    <time>2019-09-08T06:02:20Z</time>
   </trkpt>
   <trkpt lat="51.1455160" lon="5.7456030">
    <ele>32.2</ele>
    <time>2019-09-08T06:02:21Z</time>
   </trkpt>
   <trkpt lat="51.1455100" lon="5.7457010">
    <ele>32.1</ele>
    <time>2019-09-08T06:02:22Z</time>
   </trkpt>
   <trkpt lat="51.1454920" lon="5.7457910">
    <ele>32.1</ele>
    <time>2019-09-08T06:02:23Z</time>
   </trkpt>
   <trkpt lat="51.1454810" lon="5.7458760">
    <ele>32.1</ele>
    <time>2019-09-08T06:02:24Z</time>
   </trkpt>
   <trkpt lat="51.1454750" lon="5.7459690">
    <ele>32.1</ele>
    <time>2019-09-08T06:02:25Z</time>
   </trkpt>
   <trkpt lat="51.1454660" lon="5.7460700">
    <ele>32.1</ele>
    <time>2019-09-08T06:02:26Z</time>
   </trkpt>
   <trkpt lat="51.1454560" lon="5.7461660">
    <ele>32.0</ele>
    <time>2019-09-08T06:02:27Z</time>
   </trkpt>
   <trkpt lat="51.1454490" lon="5.7462600">
    <ele>32.0</ele>
    <time>2019-09-08T06:02:28Z</time>
   </trkpt>
   <trkpt lat="51.1454210" lon="5.7463800">
    <ele>32.0</ele>
    <time>2019-09-08T06:02:29Z</time>
   </trkpt>
   <trkpt lat="51.1454170" lon="5.7465070">
    <ele>32.1</ele>
    <time>2019-09-08T06:02:30Z</time>
   </trkpt>
   <trkpt lat="51.1454080" lon="5.7466010">
    <ele>32.1</ele>
    <time>2019-09-08T06:02:31Z</time>
   </trkpt>
   <trkpt lat="51.1454020" lon="5.7466950">
    <ele>32.2</ele>
    <time>2019-09-08T06:02:32Z</time>
   </trkpt>
   <trkpt lat="51.1453970" lon="5.7467880">
    <ele>32.2</ele>
    <time>2019-09-08T06:02:33Z</time>
   </trkpt>
   <trkpt lat="51.1453920" lon="5.7468860">
    <ele>32.3</ele>
    <time>2019-09-08T06:02:34Z</time>
   </trkpt>
   <trkpt lat="51.1453950" lon="5.7469930">
    <ele>32.3</ele>
    <time>2019-09-08T06:02:35Z</time>
   </trkpt>
   <trkpt lat="51.1453890" lon="5.7470820">
    <ele>32.4</ele>
    <time>2019-09-08T06:02:36Z</time>
   </trkpt>
   <trkpt lat="51.1453780" lon="5.7471880">
    <ele>32.4</ele>
    <time>2019-09-08T06:02:37Z</time>
   </trkpt>
   <trkpt lat="51.1453660" lon="5.7472880">
    <ele>32.5</ele>
    <time>2019-09-08T06:02:38Z</time>
   </trkpt>
   <trkpt lat="51.1453530" lon="5.7473780">
    <ele>32.4</ele>
    <time>2019-09-08T06:02:39Z</time>
   </trkpt>
   <trkpt lat="51.1453450" lon="5.7474810">
    <ele>32.4</ele>
    <time>2019-09-08T06:02:40Z</time>
   </trkpt>
   <trkpt lat="51.1453320" lon="5.7475700">
    <ele>32.3</ele>
    <time>2019-09-08T06:02:41Z</time>
   </trkpt>
   <trkpt lat="51.1453270" lon="5.7476620">
    <ele>32.3</ele>
    <time>2019-09-08T06:02:42Z</time>
   </trkpt>
   <trkpt lat="51.1453170" lon="5.7477560">
    <ele>32.2</ele>
    <time>2019-09-08T06:02:43Z</time>
   </trkpt>
   <trkpt lat="51.1453110" lon="5.7478490">
    <ele>32.1</ele>
    <time>2019-09-08T06:02:44Z</time>
   </trkpt>
   <trkpt lat="51.1453050" lon="5.7479390">
    <ele>32.1</ele>
    <time>2019-09-08T06:02:45Z</time>
   </trkpt>
   <trkpt lat="51.1453030" lon="5.7480380">
    <ele>32.1</ele>
    <time>2019-09-08T06:02:46Z</time>
   </trkpt>
   <trkpt lat="51.1452950" lon="5.7481310">
    <ele>32.0</ele>
    <time>2019-09-08T06:02:47Z</time>
   </trkpt>
   <trkpt lat="51.1452810" lon="5.7482300">
    <ele>32.0</ele>
    <time>2019-09-08T06:02:48Z</time>
   </trkpt>
   <trkpt lat="51.1452670" lon="5.7483120">
    <ele>31.9</ele>
    <time>2019-09-08T06:02:49Z</time>
   </trkpt>
   <trkpt lat="51.1452750" lon="5.7484150">
    <ele>31.9</ele>
    <time>2019-09-08T06:02:50Z</time>
   </trkpt>
   <trkpt lat="51.1452720" lon="5.7485200">
    <ele>31.9</ele>
    <time>2019-09-08T06:02:51Z</time>
   </trkpt>
   <trkpt lat="51.1452650" lon="5.7486170">
    <ele>31.9</ele>
    <time>2019-09-08T06:02:52Z</time>
   </trkpt>
   <trkpt lat="51.1452550" lon="5.7487100">
    <ele>31.9</ele>
    <time>2019-09-08T06:02:53Z</time>
   </trkpt>
   <trkpt lat="51.1452450" lon="5.7488090">
    <ele>31.9</ele>
    <time>2019-09-08T06:02:54Z</time>
   </trkpt>
   <trkpt lat="51.1452350" lon="5.7489070">
    <ele>31.9</ele>
    <time>2019-09-08T06:02:55Z</time>
   </trkpt>
   <trkpt lat="51.1452280" lon="5.7490140">
    <ele>31.8</ele>
    <time>2019-09-08T06:02:56Z</time>
   </trkpt>
   <trkpt lat="51.1452290" lon="5.7491160">
    <ele>31.8</ele>
    <time>2019-09-08T06:02:57Z</time>
   </trkpt>
   <trkpt lat="51.1452210" lon="5.7492170">
    <ele>31.8</ele>
    <time>2019-09-08T06:02:58Z</time>
   </trkpt>
   <trkpt lat="51.1452160" lon="5.7493260">
    <ele>31.7</ele>
    <time>2019-09-08T06:02:59Z</time>
   </trkpt>
   <trkpt lat="51.1452140" lon="5.7494280">
    <ele>31.7</ele>
    <time>2019-09-08T06:03:00Z</time>
   </trkpt>
   <trkpt lat="51.1452080" lon="5.7495270">
    <ele>31.7</ele>
    <time>2019-09-08T06:03:01Z</time>
   </trkpt>
   <trkpt lat="51.1451990" lon="5.7496310">
    <ele>31.6</ele>
    <time>2019-09-08T06:03:02Z</time>
   </trkpt>
   <trkpt lat="51.1451900" lon="5.7497370">
    <ele>31.6</ele>
    <time>2019-09-08T06:03:03Z</time>
   </trkpt>
   <trkpt lat="51.1451830" lon="5.7498340">
    <ele>31.5</ele>
    <time>2019-09-08T06:03:04Z</time>
   </trkpt>
   <trkpt lat="51.1451720" lon="5.7499280">
    <ele>31.5</ele>
    <time>2019-09-08T06:03:05Z</time>
   </trkpt>
   <trkpt lat="51.1451690" lon="5.7500340">
    <ele>31.5</ele>
    <time>2019-09-08T06:03:06Z</time>
   </trkpt>
   <trkpt lat="51.1451610" lon="5.7501280">
    <ele>31.5</ele>
    <time>2019-09-08T06:03:07Z</time>
   </trkpt>
   <trkpt lat="51.1451590" lon="5.7502350">
    <ele>31.5</ele>
    <time>2019-09-08T06:03:08Z</time>
   </trkpt>
   <trkpt lat="51.1451560" lon="5.7503330">
    <ele>31.5</ele>
    <time>2019-09-08T06:03:09Z</time>
   </trkpt>
   <trkpt lat="51.1451440" lon="5.7504420">
    <ele>31.5</ele>
    <time>2019-09-08T06:03:10Z</time>
   </trkpt>
   <trkpt lat="51.1451360" lon="5.7505340">
    <ele>31.5</ele>
    <time>2019-09-08T06:03:11Z</time>
   </trkpt>
   <trkpt lat="51.1451290" lon="5.7506380">
    <ele>31.4</ele>
    <time>2019-09-08T06:03:12Z</time>
   </trkpt>
   <trkpt lat="51.1451220" lon="5.7507270">
    <ele>31.4</ele>
    <time>2019-09-08T06:03:13Z</time>
   </trkpt>
   <trkpt lat="51.1451180" lon="5.7508220">
    <ele>31.4</ele>
    <time>2019-09-08T06:03:14Z</time>
   </trkpt>
   <trkpt lat="51.1451010" lon="5.7509100">
    <ele>31.5</ele>
    <time>2019-09-08T06:03:15Z</time>
   </trkpt>
   <trkpt lat="51.1450910" lon="5.7510010">
    <ele>31.5</ele>
    <time>2019-09-08T06:03:16Z</time>
   </trkpt>
   <trkpt lat="51.1450830" lon="5.7511070">
    <ele>31.5</ele>
    <time>2019-09-08T06:03:17Z</time>
   </trkpt>
   <trkpt lat="51.1450810" lon="5.7512110">
    <ele>31.4</ele>
    <time>2019-09-08T06:03:18Z</time>
   </trkpt>
   <trkpt lat="51.1450720" lon="5.7513170">
    <ele>31.3</ele>
    <time>2019-09-08T06:03:19Z</time>
   </trkpt>
   <trkpt lat="51.1450650" lon="5.7514240">
    <ele>31.2</ele>
    <time>2019-09-08T06:03:20Z</time>
   </trkpt>
   <trkpt lat="51.1450600" lon="5.7515240">
    <ele>31.1</ele>
    <time>2019-09-08T06:03:21Z</time>
   </trkpt>
   <trkpt lat="51.1450560" lon="5.7516240">
    <ele>30.9</ele>
    <time>2019-09-08T06:03:22Z</time>
   </trkpt>
   <trkpt lat="51.1450630" lon="5.7517330">
    <ele>30.8</ele>
    <time>2019-09-08T06:03:23Z</time>
   </trkpt>
   <trkpt lat="51.1450590" lon="5.7518320">
    <ele>30.7</ele>
    <time>2019-09-08T06:03:24Z</time>
   </trkpt>
   <trkpt lat="51.1450500" lon="5.7519320">
    <ele>30.7</ele>
    <time>2019-09-08T06:03:25Z</time>
   </trkpt>
   <trkpt lat="51.1450470" lon="5.7520380">
    <ele>30.6</ele>
    <time>2019-09-08T06:03:26Z</time>
   </trkpt>
   <trkpt lat="51.1450340" lon="5.7521320">
    <ele>30.6</ele>
    <time>2019-09-08T06:03:27Z</time>
   </trkpt>
   <trkpt lat="51.1450310" lon="5.7522270">
    <ele>30.7</ele>
    <time>2019-09-08T06:03:28Z</time>
   </trkpt>
   <trkpt lat="51.1450260" lon="5.7523170">
    <ele>30.7</ele>
    <time>2019-09-08T06:03:29Z</time>
   </trkpt>
   <trkpt lat="51.1450190" lon="5.7524020">
    <ele>30.7</ele>
    <time>2019-09-08T06:03:30Z</time>
   </trkpt>
   <trkpt lat="51.1450190" lon="5.7524940">
    <ele>30.8</ele>
    <time>2019-09-08T06:03:31Z</time>
   </trkpt>
   <trkpt lat="51.1450110" lon="5.7525800">
    <ele>30.8</ele>
    <time>2019-09-08T06:03:32Z</time>
   </trkpt>
   <trkpt lat="51.1450060" lon="5.7526530">
    <ele>30.8</ele>
    <time>2019-09-08T06:03:33Z</time>
   </trkpt>
   <trkpt lat="51.1450010" lon="5.7527320">
    <ele>30.8</ele>
    <time>2019-09-08T06:03:34Z</time>
   </trkpt>
   <trkpt lat="51.1450020" lon="5.7527960">
    <ele>30.8</ele>
    <time>2019-09-08T06:03:35Z</time>
   </trkpt>
   <trkpt lat="51.1450000" lon="5.7528570">
    <ele>30.8</ele>
    <time>2019-09-08T06:03:36Z</time>
   </trkpt>
   <trkpt lat="51.1449950" lon="5.7529000">
    <ele>30.8</ele>
    <time>2019-09-08T06:03:37Z</time>
   </trkpt>
   <trkpt lat="51.1449890" lon="5.7529770">
    <ele>30.7</ele>
    <time>2019-09-08T06:03:39Z</time>
   </trkpt>
   <trkpt lat="51.1449770" lon="5.7530240">
    <ele>30.6</ele>
    <time>2019-09-08T06:03:41Z</time>
   </trkpt>
   <trkpt lat="51.1449750" lon="5.7530760">
    <ele>30.5</ele>
    <time>2019-09-08T06:03:43Z</time>
   </trkpt>
   <trkpt lat="51.1450000" lon="5.7531020">
    <ele>30.6</ele>
    <time>2019-09-08T06:03:45Z</time>
   </trkpt>
   <trkpt lat="51.1450510" lon="5.7531560">
    <ele>30.7</ele>
    <time>2019-09-08T06:03:47Z</time>
   </trkpt>
   <trkpt lat="51.1450960" lon="5.7531790">
    <ele>30.7</ele>
    <time>2019-09-08T06:03:48Z</time>
   </trkpt>
   <trkpt lat="51.1451320" lon="5.7532140">
    <ele>30.6</ele>
    <time>2019-09-08T06:03:49Z</time>
   </trkpt>
   <trkpt lat="51.1451640" lon="5.7532910">
    <ele>30.6</ele>
    <time>2019-09-08T06:03:50Z</time>
   </trkpt>
   <trkpt lat="51.1451820" lon="5.7533820">
    <ele>30.5</ele>
    <time>2019-09-08T06:03:51Z</time>
   </trkpt>
   <trkpt lat="51.1451930" lon="5.7534800">
    <ele>30.4</ele>
    <time>2019-09-08T06:03:52Z</time>
   </trkpt>
   <trkpt lat="51.1452050" lon="5.7535840">
    <ele>30.3</ele>
    <time>2019-09-08T06:03:53Z</time>
   </trkpt>
   <trkpt lat="51.1452240" lon="5.7537040">
    <ele>30.2</ele>
    <time>2019-09-08T06:03:54Z</time>
   </trkpt>
   <trkpt lat="51.1452390" lon="5.7538120">
    <ele>30.1</ele>
    <time>2019-09-08T06:03:55Z</time>
   </trkpt>
   <trkpt lat="51.1452520" lon="5.7539240">
    <ele>30.0</ele>
    <time>2019-09-08T06:03:56Z</time>
   </trkpt>
   <trkpt lat="51.1452690" lon="5.7540320">
    <ele>29.9</ele>
    <time>2019-09-08T06:03:57Z</time>
   </trkpt>
   <trkpt lat="51.1452860" lon="5.7541370">
    <ele>29.8</ele>
    <time>2019-09-08T06:03:58Z</time>
   </trkpt>
   <trkpt lat="51.1453000" lon="5.7542440">
    <ele>29.8</ele>
    <time>2019-09-08T06:03:59Z</time>
   </trkpt>
   <trkpt lat="51.1453210" lon="5.7543700">
    <ele>29.7</ele>
    <time>2019-09-08T06:04:00Z</time>
   </trkpt>
   <trkpt lat="51.1453360" lon="5.7544770">
    <ele>29.6</ele>
    <time>2019-09-08T06:04:01Z</time>
   </trkpt>
   <trkpt lat="51.1453540" lon="5.7545900">
    <ele>29.5</ele>
    <time>2019-09-08T06:04:02Z</time>
   </trkpt>
   <trkpt lat="51.1453800" lon="5.7547190">
    <ele>29.3</ele>
    <time>2019-09-08T06:04:03Z</time>
   </trkpt>
   <trkpt lat="51.1453930" lon="5.7548220">
    <ele>29.2</ele>
    <time>2019-09-08T06:04:04Z</time>
   </trkpt>
   <trkpt lat="51.1454090" lon="5.7549340">
    <ele>29.1</ele>
    <time>2019-09-08T06:04:05Z</time>
   </trkpt>
   <trkpt lat="51.1454190" lon="5.7550350">
    <ele>28.8</ele>
    <time>2019-09-08T06:04:06Z</time>
   </trkpt>
   <trkpt lat="51.1454380" lon="5.7551570">
    <ele>28.5</ele>
    <time>2019-09-08T06:04:07Z</time>
   </trkpt>
   <trkpt lat="51.1454640" lon="5.7552610">
    <ele>28.2</ele>
    <time>2019-09-08T06:04:08Z</time>
   </trkpt>
   <trkpt lat="51.1454900" lon="5.7553730">
    <ele>28.0</ele>
    <time>2019-09-08T06:04:09Z</time>
   </trkpt>
   <trkpt lat="51.1455210" lon="5.7554740">
    <ele>27.8</ele>
    <time>2019-09-08T06:04:10Z</time>
   </trkpt>
   <trkpt lat="51.1455510" lon="5.7555670">
    <ele>27.7</ele>
    <time>2019-09-08T06:04:11Z</time>
   </trkpt>
   <trkpt lat="51.1455900" lon="5.7556650">
    <ele>27.7</ele>
    <time>2019-09-08T06:04:12Z</time>
   </trkpt>
   <trkpt lat="51.1456350" lon="5.7557590">
    <ele>27.8</ele>
    <time>2019-09-08T06:04:13Z</time>
   </trkpt>
   <trkpt lat="51.1456850" lon="5.7558370">
    <ele>27.8</ele>
    <time>2019-09-08T06:04:14Z</time>
   </trkpt>
   <trkpt lat="51.1457310" lon="5.7559080">
    <ele>27.9</ele>
    <time>2019-09-08T06:04:15Z</time>
   </trkpt>
   <trkpt lat="51.1457800" lon="5.7559930">
    <ele>28.1</ele>
    <time>2019-09-08T06:04:16Z</time>
   </trkpt>
   <trkpt lat="51.1458420" lon="5.7560880">
    <ele>28.3</ele>
    <time>2019-09-08T06:04:17Z</time>
   </trkpt>
   <trkpt lat="51.1458910" lon="5.7561710">
    <ele>28.6</ele>
    <time>2019-09-08T06:04:18Z</time>
   </trkpt>
   <trkpt lat="51.1459470" lon="5.7562540">
    <ele>28.9</ele>
    <time>2019-09-08T06:04:19Z</time>
   </trkpt>
   <trkpt lat="51.1459930" lon="5.7563340">
    <ele>29.3</ele>
    <time>2019-09-08T06:04:20Z</time>
   </trkpt>
   <trkpt lat="51.1460390" lon="5.7564180">
    <ele>29.7</ele>
    <time>2019-09-08T06:04:21Z</time>
   </trkpt>
   <trkpt lat="51.1460780" lon="5.7564930">
    <ele>29.9</ele>
    <time>2019-09-08T06:04:22Z</time>
   </trkpt>
   <trkpt lat="51.1461200" lon="5.7565710">
    <ele>30.0</ele>
    <time>2019-09-08T06:04:23Z</time>
   </trkpt>
   <trkpt lat="51.1461660" lon="5.7566630">
    <ele>30.1</ele>
    <time>2019-09-08T06:04:24Z</time>
   </trkpt>
   <trkpt lat="51.1462110" lon="5.7567400">
    <ele>30.1</ele>
    <time>2019-09-08T06:04:25Z</time>
   </trkpt>
   <trkpt lat="51.1462560" lon="5.7568250">
    <ele>30.0</ele>
    <time>2019-09-08T06:04:26Z</time>
   </trkpt>
   <trkpt lat="51.1463060" lon="5.7569150">
    <ele>30.0</ele>
    <time>2019-09-08T06:04:27Z</time>
   </trkpt>
   <trkpt lat="51.1463490" lon="5.7569970">
    <ele>30.0</ele>
    <time>2019-09-08T06:04:28Z</time>
   </trkpt>
   <trkpt lat="51.1463890" lon="5.7570780">
    <ele>29.9</ele>
    <time>2019-09-08T06:04:29Z</time>
   </trkpt>
   <trkpt lat="51.1464460" lon="5.7571830">
    <ele>29.8</ele>
    <time>2019-09-08T06:04:30Z</time>
   </trkpt>
   <trkpt lat="51.1464750" lon="5.7572480">
    <ele>29.7</ele>
    <time>2019-09-08T06:04:31Z</time>
   </trkpt>
   <trkpt lat="51.1465020" lon="5.7573060">
    <ele>29.6</ele>
    <time>2019-09-08T06:04:32Z</time>
   </trkpt>
   <trkpt lat="51.1465320" lon="5.7573470">
    <ele>29.6</ele>
    <time>2019-09-08T06:04:33Z</time>
   </trkpt>
   <trkpt lat="51.1465670" lon="5.7573870">
    <ele>29.5</ele>
    <time>2019-09-08T06:04:34Z</time>
   </trkpt>
   <trkpt lat="51.1466140" lon="5.7574170">
    <ele>29.5</ele>
    <time>2019-09-08T06:04:35Z</time>
   </trkpt>
   <trkpt lat="51.1466650" lon="5.7574020">
    <ele>29.5</ele>
    <time>2019-09-08T06:04:36Z</time>
   </trkpt>
   <trkpt lat="51.1467210" lon="5.7573720">
    <ele>29.5</ele>
    <time>2019-09-08T06:04:37Z</time>
   </trkpt>
   <trkpt lat="51.1467770" lon="5.7573300">
    <ele>29.5</ele>
    <time>2019-09-08T06:04:38Z</time>
   </trkpt>
   <trkpt lat="51.1468340" lon="5.7572930">
    <ele>29.5</ele>
    <time>2019-09-08T06:04:39Z</time>
   </trkpt>
   <trkpt lat="51.1468940" lon="5.7572550">
    <ele>29.5</ele>
    <time>2019-09-08T06:04:40Z</time>
   </trkpt>
   <trkpt lat="51.1469520" lon="5.7572040">
    <ele>29.5</ele>
    <time>2019-09-08T06:04:41Z</time>
   </trkpt>
   <trkpt lat="51.1470120" lon="5.7571590">
    <ele>29.5</ele>
    <time>2019-09-08T06:04:42Z</time>
   </trkpt>
   <trkpt lat="51.1470790" lon="5.7571290">
    <ele>29.5</ele>
    <time>2019-09-08T06:04:43Z</time>
   </trkpt>
   <trkpt lat="51.1471370" lon="5.7570910">
    <ele>29.5</ele>
    <time>2019-09-08T06:04:44Z</time>
   </trkpt>
   <trkpt lat="51.1472000" lon="5.7570660">
    <ele>29.5</ele>
    <time>2019-09-08T06:04:45Z</time>
   </trkpt>
   <trkpt lat="51.1472570" lon="5.7570470">
    <ele>29.5</ele>
    <time>2019-09-08T06:04:46Z</time>
   </trkpt>
   <trkpt lat="51.1473260" lon="5.7570400">
    <ele>29.5</ele>
    <time>2019-09-08T06:04:47Z</time>
   </trkpt>
   <trkpt lat="51.1473920" lon="5.7570390">
    <ele>29.5</ele>
    <time>2019-09-08T06:04:48Z</time>
   </trkpt>
   <trkpt lat="51.1474540" lon="5.7570510">
    <ele>29.5</ele>
    <time>2019-09-08T06:04:49Z</time>
   </trkpt>
   <trkpt lat="51.1475140" lon="5.7570750">
    <ele>29.5</ele>
    <time>2019-09-08T06:04:50Z</time>
   </trkpt>
   <trkpt lat="51.1475830" lon="5.7570910">
    <ele>29.6</ele>
    <time>2019-09-08T06:04:51Z</time>
   </trkpt>
   <trkpt lat="51.1476470" lon="5.7571100">
    <ele>29.6</ele>
    <time>2019-09-08T06:04:52Z</time>
   </trkpt>
   <trkpt lat="51.1477140" lon="5.7571350">
    <ele>29.6</ele>
    <time>2019-09-08T06:04:53Z</time>
   </trkpt>
   <trkpt lat="51.1477770" lon="5.7571570">
    <ele>29.6</ele>
    <time>2019-09-08T06:04:54Z</time>
   </trkpt>
   <trkpt lat="51.1478390" lon="5.7571860">
    <ele>29.6</ele>
    <time>2019-09-08T06:04:55Z</time>
   </trkpt>
   <trkpt lat="51.1478990" lon="5.7572190">
    <ele>29.6</ele>
    <time>2019-09-08T06:04:56Z</time>
   </trkpt>
   <trkpt lat="51.1479580" lon="5.7572470">
    <ele>29.6</ele>
    <time>2019-09-08T06:04:57Z</time>
   </trkpt>
   <trkpt lat="51.1480210" lon="5.7572970">
    <ele>29.6</ele>
    <time>2019-09-08T06:04:58Z</time>
   </trkpt>
   <trkpt lat="51.1480770" lon="5.7573420">
    <ele>29.6</ele>
    <time>2019-09-08T06:04:59Z</time>
   </trkpt>
   <trkpt lat="51.1481370" lon="5.7573960">
    <ele>29.6</ele>
    <time>2019-09-08T06:05:00Z</time>
   </trkpt>
   <trkpt lat="51.1481990" lon="5.7574570">
    <ele>29.6</ele>
    <time>2019-09-08T06:05:01Z</time>
   </trkpt>
   <trkpt lat="51.1482520" lon="5.7575190">
    <ele>29.6</ele>
    <time>2019-09-08T06:05:02Z</time>
   </trkpt>
   <trkpt lat="51.1483060" lon="5.7575610">
    <ele>29.6</ele>
    <time>2019-09-08T06:05:03Z</time>
   </trkpt>
   <trkpt lat="51.1483720" lon="5.7576110">
    <ele>29.6</ele>
    <time>2019-09-08T06:05:04Z</time>
   </trkpt>
   <trkpt lat="51.1484360" lon="5.7576460">
    <ele>29.6</ele>
    <time>2019-09-08T06:05:05Z</time>
   </trkpt>
   <trkpt lat="51.1485050" lon="5.7576690">
    <ele>29.6</ele>
    <time>2019-09-08T06:05:06Z</time>
   </trkpt>
   <trkpt lat="51.1485740" lon="5.7576970">
    <ele>29.6</ele>
    <time>2019-09-08T06:05:07Z</time>
   </trkpt>
   <trkpt lat="51.1486390" lon="5.7577100">
    <ele>29.6</ele>
    <time>2019-09-08T06:05:08Z</time>
   </trkpt>
   <trkpt lat="51.1486950" lon="5.7577230">
    <ele>29.6</ele>
    <time>2019-09-08T06:05:09Z</time>
   </trkpt>
   <trkpt lat="51.1487710" lon="5.7577200">
    <ele>29.6</ele>
    <time>2019-09-08T06:05:10Z</time>
   </trkpt>
   <trkpt lat="51.1488370" lon="5.7577350">
    <ele>29.6</ele>
    <time>2019-09-08T06:05:11Z</time>
   </trkpt>
   <trkpt lat="51.1489060" lon="5.7577420">
    <ele>29.7</ele>
    <time>2019-09-08T06:05:12Z</time>
   </trkpt>
   <trkpt lat="51.1489730" lon="5.7577550">
    <ele>29.7</ele>
    <time>2019-09-08T06:05:13Z</time>
   </trkpt>
   <trkpt lat="51.1490310" lon="5.7577550">
    <ele>29.7</ele>
    <time>2019-09-08T06:05:14Z</time>
   </trkpt>
   <trkpt lat="51.1490940" lon="5.7577490">
    <ele>29.8</ele>
    <time>2019-09-08T06:05:15Z</time>
   </trkpt>
   <trkpt lat="51.1491490" lon="5.7577600">
    <ele>29.8</ele>
    <time>2019-09-08T06:05:16Z</time>
   </trkpt>
   <trkpt lat="51.1492170" lon="5.7577760">
    <ele>29.8</ele>
    <time>2019-09-08T06:05:17Z</time>
   </trkpt>
   <trkpt lat="51.1492870" lon="5.7577920">
    <ele>29.8</ele>
    <time>2019-09-08T06:05:18Z</time>
   </trkpt>
   <trkpt lat="51.1493510" lon="5.7578130">
    <ele>29.8</ele>
    <time>2019-09-08T06:05:19Z</time>
   </trkpt>
   <trkpt lat="51.1494130" lon="5.7578550">
    <ele>29.9</ele>
    <time>2019-09-08T06:05:20Z</time>
   </trkpt>
   <trkpt lat="51.1494770" lon="5.7579050">
    <ele>29.9</ele>
    <time>2019-09-08T06:05:21Z</time>
   </trkpt>
   <trkpt lat="51.1495370" lon="5.7579530">
    <ele>29.8</ele>
    <time>2019-09-08T06:05:22Z</time>
   </trkpt>
   <trkpt lat="51.1495980" lon="5.7580020">
    <ele>29.8</ele>
    <time>2019-09-08T06:05:23Z</time>
   </trkpt>
   <trkpt lat="51.1496520" lon="5.7580410">
    <ele>29.8</ele>
    <time>2019-09-08T06:05:24Z</time>
   </trkpt>
   <trkpt lat="51.1497180" lon="5.7580950">
    <ele>29.8</ele>
    <time>2019-09-08T06:05:25Z</time>
   </trkpt>
   <trkpt lat="51.1497760" lon="5.7581420">
    <ele>29.8</ele>
    <time>2019-09-08T06:05:26Z</time>
   </trkpt>
   <trkpt lat="51.1498360" lon="5.7581930">
    <ele>29.8</ele>
    <time>2019-09-08T06:05:27Z</time>
   </trkpt>
   <trkpt lat="51.1498940" lon="5.7582380">
    <ele>29.8</ele>
    <time>2019-09-08T06:05:28Z</time>
   </trkpt>
   <trkpt lat="51.1499500" lon="5.7582840">
    <ele>29.7</ele>
    <time>2019-09-08T06:05:29Z</time>
   </trkpt>
   <trkpt lat="51.1500160" lon="5.7583360">
    <ele>29.7</ele>
    <time>2019-09-08T06:05:30Z</time>
   </trkpt>
   <trkpt lat="51.1500770" lon="5.7583910">
    <ele>29.7</ele>
    <time>2019-09-08T06:05:31Z</time>
   </trkpt>
   <trkpt lat="51.1501400" lon="5.7584450">
    <ele>29.6</ele>
    <time>2019-09-08T06:05:32Z</time>
   </trkpt>
   <trkpt lat="51.1501960" lon="5.7585040">
    <ele>29.6</ele>
    <time>2019-09-08T06:05:33Z</time>
   </trkpt>
   <trkpt lat="51.1502490" lon="5.7585780">
    <ele>29.6</ele>
    <time>2019-09-08T06:05:34Z</time>
   </trkpt>
   <trkpt lat="51.1503100" lon="5.7586420">
    <ele>29.5</ele>
    <time>2019-09-08T06:05:35Z</time>
   </trkpt>
   <trkpt lat="51.1503590" lon="5.7587320">
    <ele>29.5</ele>
    <time>2019-09-08T06:05:36Z</time>
   </trkpt>
   <trkpt lat="51.1504070" lon="5.7588060">
    <ele>29.5</ele>
    <time>2019-09-08T06:05:37Z</time>
   </trkpt>
   <trkpt lat="51.1504560" lon="5.7588850">
    <ele>29.5</ele>
    <time>2019-09-08T06:05:38Z</time>
   </trkpt>
   <trkpt lat="51.1504980" lon="5.7589670">
    <ele>29.5</ele>
    <time>2019-09-08T06:05:39Z</time>
   </trkpt>
   <trkpt lat="51.1505440" lon="5.7590560">
    <ele>29.5</ele>
    <time>2019-09-08T06:05:40Z</time>
   </trkpt>
   <trkpt lat="51.1505830" lon="5.7591510">
    <ele>29.5</ele>
    <time>2019-09-08T06:05:41Z</time>
   </trkpt>
   <trkpt lat="51.1506180" lon="5.7592340">
    <ele>29.5</ele>
    <time>2019-09-08T06:05:42Z</time>
   </trkpt>
   <trkpt lat="51.1506520" lon="5.7593290">
    <ele>29.5</ele>
    <time>2019-09-08T06:05:43Z</time>
   </trkpt>
   <trkpt lat="51.1507010" lon="5.7594310">
    <ele>29.5</ele>
    <time>2019-09-08T06:05:44Z</time>
   </trkpt>
   <trkpt lat="51.1507370" lon="5.7595170">
    <ele>29.5</ele>
    <time>2019-09-08T06:05:45Z</time>
   </trkpt>
   <trkpt lat="51.1507640" lon="5.7596170">
    <ele>29.5</ele>
    <time>2019-09-08T06:05:46Z</time>
   </trkpt>
   <trkpt lat="51.1507900" lon="5.7597170">
    <ele>29.5</ele>
    <time>2019-09-08T06:05:47Z</time>
   </trkpt>
   <trkpt lat="51.1508260" lon="5.7598150">
    <ele>29.5</ele>
    <time>2019-09-08T06:05:48Z</time>
   </trkpt>
   <trkpt lat="51.1508690" lon="5.7599110">
    <ele>29.5</ele>
    <time>2019-09-08T06:05:49Z</time>
   </trkpt>
   <trkpt lat="51.1509060" lon="5.7600150">
    <ele>29.5</ele>
    <time>2019-09-08T06:05:50Z</time>
   </trkpt>
   <trkpt lat="51.1509530" lon="5.7601180">
    <ele>29.5</ele>
    <time>2019-09-08T06:05:51Z</time>
   </trkpt>
   <trkpt lat="51.1509890" lon="5.7602090">
    <ele>29.5</ele>
    <time>2019-09-08T06:05:52Z</time>
   </trkpt>
   <trkpt lat="51.1510260" lon="5.7602990">
    <ele>29.5</ele>
    <time>2019-09-08T06:05:53Z</time>
   </trkpt>
   <trkpt lat="51.1510660" lon="5.7603960">
    <ele>29.5</ele>
    <time>2019-09-08T06:05:54Z</time>
   </trkpt>
   <trkpt lat="51.1511070" lon="5.7604760">
    <ele>29.6</ele>
    <time>2019-09-08T06:05:55Z</time>
   </trkpt>
   <trkpt lat="51.1511470" lon="5.7605580">
    <ele>29.6</ele>
    <time>2019-09-08T06:05:56Z</time>
   </trkpt>
   <trkpt lat="51.1511910" lon="5.7606400">
    <ele>29.6</ele>
    <time>2019-09-08T06:05:57Z</time>
   </trkpt>
   <trkpt lat="51.1512330" lon="5.7607280">
    <ele>29.6</ele>
    <time>2019-09-08T06:05:58Z</time>
   </trkpt>
   <trkpt lat="51.1512770" lon="5.7608250">
    <ele>29.6</ele>
    <time>2019-09-08T06:05:59Z</time>
   </trkpt>
   <trkpt lat="51.1513180" lon="5.7609050">
    <ele>29.7</ele>
    <time>2019-09-08T06:06:00Z</time>
   </trkpt>
   <trkpt lat="51.1513550" lon="5.7609910">
    <ele>29.8</ele>
    <time>2019-09-08T06:06:01Z</time>
   </trkpt>
   <trkpt lat="51.1513970" lon="5.7610980">
    <ele>29.9</ele>
    <time>2019-09-08T06:06:02Z</time>
   </trkpt>
   <trkpt lat="51.1514250" lon="5.7612000">
    <ele>30.0</ele>
    <time>2019-09-08T06:06:03Z</time>
   </trkpt>
   <trkpt lat="51.1514570" lon="5.7613030">
    <ele>30.1</ele>
    <time>2019-09-08T06:06:04Z</time>
   </trkpt>
   <trkpt lat="51.1514860" lon="5.7614090">
    <ele>30.2</ele>
    <time>2019-09-08T06:06:05Z</time>
   </trkpt>
   <trkpt lat="51.1515100" lon="5.7615140">
    <ele>30.4</ele>
    <time>2019-09-08T06:06:06Z</time>
   </trkpt>
   <trkpt lat="51.1515330" lon="5.7616220">
    <ele>30.5</ele>
    <time>2019-09-08T06:06:07Z</time>
   </trkpt>
   <trkpt lat="51.1515560" lon="5.7617300">
    <ele>30.5</ele>
    <time>2019-09-08T06:06:08Z</time>
   </trkpt>
   <trkpt lat="51.1515870" lon="5.7618410">
    <ele>30.6</ele>
    <time>2019-09-08T06:06:09Z</time>
   </trkpt>
   <trkpt lat="51.1516090" lon="5.7619590">
    <ele>30.7</ele>
    <time>2019-09-08T06:06:10Z</time>
   </trkpt>
   <trkpt lat="51.1516310" lon="5.7620700">
    <ele>30.8</ele>
    <time>2019-09-08T06:06:11Z</time>
   </trkpt>
   <trkpt lat="51.1516600" lon="5.7621800">
    <ele>30.9</ele>
    <time>2019-09-08T06:06:12Z</time>
   </trkpt>
   <trkpt lat="51.1516840" lon="5.7622800">
    <ele>31.0</ele>
    <time>2019-09-08T06:06:13Z</time>
   </trkpt>
   <trkpt lat="51.1517030" lon="5.7623850">
    <ele>31.1</ele>
    <time>2019-09-08T06:06:14Z</time>
   </trkpt>
   <trkpt lat="51.1517270" lon="5.7624940">
    <ele>31.1</ele>
    <time>2019-09-08T06:06:15Z</time>
   </trkpt>
   <trkpt lat="51.1517500" lon="5.7625950">
    <ele>31.2</ele>
    <time>2019-09-08T06:06:16Z</time>
   </trkpt>
   <trkpt lat="51.1517750" lon="5.7627040">
    <ele>31.3</ele>
    <time>2019-09-08T06:06:17Z</time>
   </trkpt>
   <trkpt lat="51.1517950" lon="5.7628200">
    <ele>31.3</ele>
    <time>2019-09-08T06:06:18Z</time>
   </trkpt>
   <trkpt lat="51.1518190" lon="5.7629290">
    <ele>31.3</ele>
    <time>2019-09-08T06:06:19Z</time>
   </trkpt>
   <trkpt lat="51.1518410" lon="5.7630320">
    <ele>31.3</ele>
    <time>2019-09-08T06:06:20Z</time>
   </trkpt>
   <trkpt lat="51.1518420" lon="5.7631420">
    <ele>31.3</ele>
    <time>2019-09-08T06:06:21Z</time>
   </trkpt>
   <trkpt lat="51.1518590" lon="5.7632330">
    <ele>31.3</ele>
    <time>2019-09-08T06:06:22Z</time>
   </trkpt>
   <trkpt lat="51.1518750" lon="5.7633250">
    <ele>31.3</ele>
    <time>2019-09-08T06:06:23Z</time>
   </trkpt>
   <trkpt lat="51.1518800" lon="5.7634750">
    <ele>31.3</ele>
    <time>2019-09-08T06:06:24Z</time>
   </trkpt>
   <trkpt lat="51.1518970" lon="5.7635930">
    <ele>31.3</ele>
    <time>2019-09-08T06:06:25Z</time>
   </trkpt>
   <trkpt lat="51.1519250" lon="5.7636790">
    <ele>31.3</ele>
    <time>2019-09-08T06:06:26Z</time>
   </trkpt>
   <trkpt lat="51.1519510" lon="5.7637190">
    <ele>31.3</ele>
    <time>2019-09-08T06:06:27Z</time>
   </trkpt>
   <trkpt lat="51.1519710" lon="5.7638040">
    <ele>31.3</ele>
    <time>2019-09-08T06:06:28Z</time>
   </trkpt>
   <trkpt lat="51.1519980" lon="5.7638990">
    <ele>31.3</ele>
    <time>2019-09-08T06:06:29Z</time>
   </trkpt>
   <trkpt lat="51.1520190" lon="5.7639970">
    <ele>31.3</ele>
    <time>2019-09-08T06:06:30Z</time>
   </trkpt>
   <trkpt lat="51.1520400" lon="5.7641020">
    <ele>31.3</ele>
    <time>2019-09-08T06:06:31Z</time>
   </trkpt>
   <trkpt lat="51.1520650" lon="5.7642200">
    <ele>31.3</ele>
    <time>2019-09-08T06:06:32Z</time>
   </trkpt>
   <trkpt lat="51.1520860" lon="5.7643070">
    <ele>31.3</ele>
    <time>2019-09-08T06:06:33Z</time>
   </trkpt>
   <trkpt lat="51.1521110" lon="5.7643860">
    <ele>31.3</ele>
    <time>2019-09-08T06:06:34Z</time>
   </trkpt>
   <trkpt lat="51.1521340" lon="5.7644770">
    <ele>31.3</ele>
    <time>2019-09-08T06:06:35Z</time>
   </trkpt>
   <trkpt lat="51.1521540" lon="5.7645930">
    <ele>31.2</ele>
    <time>2019-09-08T06:06:36Z</time>
   </trkpt>
   <trkpt lat="51.1521700" lon="5.7646850">
    <ele>31.2</ele>
    <time>2019-09-08T06:06:37Z</time>
   </trkpt>
   <trkpt lat="51.1521860" lon="5.7647790">
    <ele>31.2</ele>
    <time>2019-09-08T06:06:38Z</time>
   </trkpt>
   <trkpt lat="51.1522320" lon="5.7648450">
    <ele>31.2</ele>
    <time>2019-09-08T06:06:39Z</time>
   </trkpt>
   <trkpt lat="51.1522460" lon="5.7649430">
    <ele>31.2</ele>
    <time>2019-09-08T06:06:40Z</time>
   </trkpt>
   <trkpt lat="51.1522580" lon="5.7650520">
    <ele>31.2</ele>
    <time>2019-09-08T06:06:41Z</time>
   </trkpt>
   <trkpt lat="51.1522760" lon="5.7651510">
    <ele>31.2</ele>
    <time>2019-09-08T06:06:42Z</time>
   </trkpt>
   <trkpt lat="51.1522930" lon="5.7652860">
    <ele>31.2</ele>
    <time>2019-09-08T06:06:43Z</time>
   </trkpt>
   <trkpt lat="51.1523050" lon="5.7654120">
    <ele>31.2</ele>
    <time>2019-09-08T06:06:44Z</time>
   </trkpt>
   <trkpt lat="51.1523190" lon="5.7655210">
    <ele>31.3</ele>
    <time>2019-09-08T06:06:45Z</time>
   </trkpt>
   <trkpt lat="51.1523400" lon="5.7656270">
    <ele>31.3</ele>
    <time>2019-09-08T06:06:46Z</time>
   </trkpt>
   <trkpt lat="51.1523520" lon="5.7657410">
    <ele>31.3</ele>
    <time>2019-09-08T06:06:47Z</time>
   </trkpt>
   <trkpt lat="51.1523670" lon="5.7658480">
    <ele>31.3</ele>
    <time>2019-09-08T06:06:48Z</time>
   </trkpt>
   <trkpt lat="51.1523950" lon="5.7660130">
    <ele>31.3</ele>
    <time>2019-09-08T06:06:49Z</time>
   </trkpt>
   <trkpt lat="51.1524150" lon="5.7661230">
    <ele>31.3</ele>
    <time>2019-09-08T06:06:50Z</time>
   </trkpt>
   <trkpt lat="51.1524270" lon="5.7662350">
    <ele>31.3</ele>
    <time>2019-09-08T06:06:51Z</time>
   </trkpt>
   <trkpt lat="51.1524420" lon="5.7663290">
    <ele>31.3</ele>
    <time>2019-09-08T06:06:52Z</time>
   </trkpt>
   <trkpt lat="51.1524620" lon="5.7664450">
    <ele>31.3</ele>
    <time>2019-09-08T06:06:53Z</time>
   </trkpt>
   <trkpt lat="51.1524820" lon="5.7665360">
    <ele>31.3</ele>
    <time>2019-09-08T06:06:54Z</time>
   </trkpt>
   <trkpt lat="51.1525120" lon="5.7666380">
    <ele>31.3</ele>
    <time>2019-09-08T06:06:55Z</time>
   </trkpt>
   <trkpt lat="51.1525650" lon="5.7667630">
    <ele>31.3</ele>
    <time>2019-09-08T06:06:56Z</time>
   </trkpt>
   <trkpt lat="51.1526100" lon="5.7668760">
    <ele>31.3</ele>
    <time>2019-09-08T06:06:57Z</time>
   </trkpt>
   <trkpt lat="51.1526400" lon="5.7669680">
    <ele>31.3</ele>
    <time>2019-09-08T06:06:58Z</time>
   </trkpt>
   <trkpt lat="51.1526680" lon="5.7670520">
    <ele>31.3</ele>
    <time>2019-09-08T06:06:59Z</time>
   </trkpt>
   <trkpt lat="51.1527140" lon="5.7671490">
    <ele>31.3</ele>
    <time>2019-09-08T06:07:00Z</time>
   </trkpt>
   <trkpt lat="51.1527420" lon="5.7672400">
    <ele>31.3</ele>
    <time>2019-09-08T06:07:01Z</time>
   </trkpt>
   <trkpt lat="51.1527730" lon="5.7673320">
    <ele>31.3</ele>
    <time>2019-09-08T06:07:02Z</time>
   </trkpt>
   <trkpt lat="51.1528060" lon="5.7674210">
    <ele>31.3</ele>
    <time>2019-09-08T06:07:03Z</time>
   </trkpt>
   <trkpt lat="51.1528380" lon="5.7675150">
    <ele>31.3</ele>
    <time>2019-09-08T06:07:04Z</time>
   </trkpt>
   <trkpt lat="51.1528750" lon="5.7676050">
    <ele>31.3</ele>
    <time>2019-09-08T06:07:05Z</time>
   </trkpt>
   <trkpt lat="51.1529120" lon="5.7676830">
    <ele>31.3</ele>
    <time>2019-09-08T06:07:06Z</time>
   </trkpt>
   <trkpt lat="51.1529470" lon="5.7677740">
    <ele>31.3</ele>
    <time>2019-09-08T06:07:07Z</time>
   </trkpt>
   <trkpt lat="51.1529850" lon="5.7678590">
    <ele>31.3</ele>
    <time>2019-09-08T06:07:08Z</time>
   </trkpt>
   <trkpt lat="51.1530210" lon="5.7679520">
    <ele>31.3</ele>
    <time>2019-09-08T06:07:09Z</time>
   </trkpt>
   <trkpt lat="51.1530580" lon="5.7680500">
    <ele>31.3</ele>
    <time>2019-09-08T06:07:10Z</time>
   </trkpt>
   <trkpt lat="51.1530910" lon="5.7681440">
    <ele>31.3</ele>
    <time>2019-09-08T06:07:11Z</time>
   </trkpt>
   <trkpt lat="51.1531230" lon="5.7682410">
    <ele>31.3</ele>
    <time>2019-09-08T06:07:12Z</time>
   </trkpt>
   <trkpt lat="51.1531560" lon="5.7683400">
    <ele>31.3</ele>
    <time>2019-09-08T06:07:13Z</time>
   </trkpt>
   <trkpt lat="51.1531840" lon="5.7684410">
    <ele>31.3</ele>
    <time>2019-09-08T06:07:14Z</time>
   </trkpt>
   <trkpt lat="51.1532110" lon="5.7685420">
    <ele>31.3</ele>
    <time>2019-09-08T06:07:15Z</time>
   </trkpt>
   <trkpt lat="51.1532410" lon="5.7686510">
    <ele>31.3</ele>
    <time>2019-09-08T06:07:16Z</time>
   </trkpt>
   <trkpt lat="51.1532680" lon="5.7687510">
    <ele>31.3</ele>
    <time>2019-09-08T06:07:17Z</time>
   </trkpt>
   <trkpt lat="51.1532930" lon="5.7688530">
    <ele>31.3</ele>
    <time>2019-09-08T06:07:18Z</time>
   </trkpt>
   <trkpt lat="51.1533200" lon="5.7689590">
    <ele>31.3</ele>
    <time>2019-09-08T06:07:19Z</time>
   </trkpt>
   <trkpt lat="51.1533460" lon="5.7690650">
    <ele>31.3</ele>
    <time>2019-09-08T06:07:20Z</time>
   </trkpt>
   <trkpt lat="51.1533690" lon="5.7691680">
    <ele>31.3</ele>
    <time>2019-09-08T06:07:21Z</time>
   </trkpt>
   <trkpt lat="51.1533900" lon="5.7692640">
    <ele>31.3</ele>
    <time>2019-09-08T06:07:22Z</time>
   </trkpt>
   <trkpt lat="51.1534100" lon="5.7693520">
    <ele>31.3</ele>
    <time>2019-09-08T06:07:23Z</time>
   </trkpt>
   <trkpt lat="51.1534440" lon="5.7694470">
    <ele>31.3</ele>
    <time>2019-09-08T06:07:24Z</time>
   </trkpt>
   <trkpt lat="51.1534590" lon="5.7695550">
    <ele>31.3</ele>
    <time>2019-09-08T06:07:25Z</time>
   </trkpt>
   <trkpt lat="51.1534770" lon="5.7696610">
    <ele>31.3</ele>
    <time>2019-09-08T06:07:26Z</time>
   </trkpt>
   <trkpt lat="51.1535000" lon="5.7697610">
    <ele>31.3</ele>
    <time>2019-09-08T06:07:27Z</time>
   </trkpt>
   <trkpt lat="51.1535190" lon="5.7698650">
    <ele>31.3</ele>
    <time>2019-09-08T06:07:28Z</time>
   </trkpt>
   <trkpt lat="51.1535340" lon="5.7699700">
    <ele>31.3</ele>
    <time>2019-09-08T06:07:29Z</time>
   </trkpt>
   <trkpt lat="51.1535500" lon="5.7700790">
    <ele>31.3</ele>
    <time>2019-09-08T06:07:30Z</time>
   </trkpt>
   <trkpt lat="51.1535580" lon="5.7701800">
    <ele>31.3</ele>
    <time>2019-09-08T06:07:31Z</time>
   </trkpt>
   <trkpt lat="51.1535980" lon="5.7703000">
    <ele>31.3</ele>
    <time>2019-09-08T06:07:32Z</time>
   </trkpt>
   <trkpt lat="51.1535960" lon="5.7704190">
    <ele>31.3</ele>
    <time>2019-09-08T06:07:33Z</time>
   </trkpt>
   <trkpt lat="51.1535930" lon="5.7705550">
    <ele>31.2</ele>
    <time>2019-09-08T06:07:34Z</time>
   </trkpt>
   <trkpt lat="51.1536120" lon="5.7706690">
    <ele>31.2</ele>
    <time>2019-09-08T06:07:35Z</time>
   </trkpt>
   <trkpt lat="51.1536230" lon="5.7707860">
    <ele>31.1</ele>
    <time>2019-09-08T06:07:36Z</time>
   </trkpt>
   <trkpt lat="51.1536420" lon="5.7708850">
    <ele>31.1</ele>
    <time>2019-09-08T06:07:37Z</time>
   </trkpt>
   <trkpt lat="51.1536590" lon="5.7709960">
    <ele>31.0</ele>
    <time>2019-09-08T06:07:38Z</time>
   </trkpt>
   <trkpt lat="51.1536770" lon="5.7711010">
    <ele>30.9</ele>
    <time>2019-09-08T06:07:39Z</time>
   </trkpt>
   <trkpt lat="51.1536950" lon="5.7711910">
    <ele>30.8</ele>
    <time>2019-09-08T06:07:40Z</time>
   </trkpt>
   <trkpt lat="51.1537150" lon="5.7713030">
    <ele>30.7</ele>
    <time>2019-09-08T06:07:41Z</time>
   </trkpt>
   <trkpt lat="51.1537320" lon="5.7713990">
    <ele>30.6</ele>
    <time>2019-09-08T06:07:42Z</time>
   </trkpt>
   <trkpt lat="51.1537520" lon="5.7714960">
    <ele>30.5</ele>
    <time>2019-09-08T06:07:43Z</time>
   </trkpt>
   <trkpt lat="51.1537750" lon="5.7715970">
    <ele>30.5</ele>
    <time>2019-09-08T06:07:44Z</time>
   </trkpt>
   <trkpt lat="51.1537950" lon="5.7717020">
    <ele>30.4</ele>
    <time>2019-09-08T06:07:45Z</time>
   </trkpt>
   <trkpt lat="51.1538160" lon="5.7718020">
    <ele>30.4</ele>
    <time>2019-09-08T06:07:46Z</time>
   </trkpt>
   <trkpt lat="51.1538360" lon="5.7718880">
    <ele>30.4</ele>
    <time>2019-09-08T06:07:47Z</time>
   </trkpt>
   <trkpt lat="51.1538590" lon="5.7719930">
    <ele>30.3</ele>
    <time>2019-09-08T06:07:48Z</time>
   </trkpt>
   <trkpt lat="51.1538770" lon="5.7721050">
    <ele>30.3</ele>
    <time>2019-09-08T06:07:49Z</time>
   </trkpt>
   <trkpt lat="51.1539070" lon="5.7722060">
    <ele>30.3</ele>
    <time>2019-09-08T06:07:50Z</time>
   </trkpt>
   <trkpt lat="51.1539370" lon="5.7723140">
    <ele>30.3</ele>
    <time>2019-09-08T06:07:51Z</time>
   </trkpt>
   <trkpt lat="51.1539730" lon="5.7724400">
    <ele>30.3</ele>
    <time>2019-09-08T06:07:52Z</time>
   </trkpt>
   <trkpt lat="51.1540000" lon="5.7725380">
    <ele>30.3</ele>
    <time>2019-09-08T06:07:53Z</time>
   </trkpt>
   <trkpt lat="51.1540340" lon="5.7726340">
    <ele>30.3</ele>
    <time>2019-09-08T06:07:54Z</time>
   </trkpt>
   <trkpt lat="51.1540610" lon="5.7727310">
    <ele>30.3</ele>
    <time>2019-09-08T06:07:55Z</time>
   </trkpt>
   <trkpt lat="51.1540870" lon="5.7728300">
    <ele>30.3</ele>
    <time>2019-09-08T06:07:56Z</time>
   </trkpt>
   <trkpt lat="51.1541160" lon="5.7729240">
    <ele>30.3</ele>
    <time>2019-09-08T06:07:57Z</time>
   </trkpt>
   <trkpt lat="51.1541460" lon="5.7730160">
    <ele>30.3</ele>
    <time>2019-09-08T06:07:58Z</time>
   </trkpt>
   <trkpt lat="51.1541740" lon="5.7731140">
    <ele>30.3</ele>
    <time>2019-09-08T06:07:59Z</time>
   </trkpt>
   <trkpt lat="51.1542100" lon="5.7732080">
    <ele>30.3</ele>
    <time>2019-09-08T06:08:00Z</time>
   </trkpt>
   <trkpt lat="51.1542410" lon="5.7733020">
    <ele>30.3</ele>
    <time>2019-09-08T06:08:01Z</time>
   </trkpt>
   <trkpt lat="51.1542690" lon="5.7733940">
    <ele>30.3</ele>
    <time>2019-09-08T06:08:02Z</time>
   </trkpt>
   <trkpt lat="51.1542980" lon="5.7734770">
    <ele>30.3</ele>
    <time>2019-09-08T06:08:03Z</time>
   </trkpt>
   <trkpt lat="51.1543060" lon="5.7735600">
    <ele>30.3</ele>
    <time>2019-09-08T06:08:04Z</time>
   </trkpt>
   <trkpt lat="51.1543320" lon="5.7736350">
    <ele>30.3</ele>
    <time>2019-09-08T06:08:05Z</time>
   </trkpt>
   <trkpt lat="51.1543480" lon="5.7736990">
    <ele>30.3</ele>
    <time>2019-09-08T06:08:06Z</time>
   </trkpt>
   <trkpt lat="51.1543730" lon="5.7737660">
    <ele>30.3</ele>
    <time>2019-09-08T06:08:07Z</time>
   </trkpt>
   <trkpt lat="51.1543930" lon="5.7738470">
    <ele>30.3</ele>
    <time>2019-09-08T06:08:08Z</time>
   </trkpt>
   <trkpt lat="51.1544190" lon="5.7739000">
    <ele>30.3</ele>
    <time>2019-09-08T06:08:09Z</time>
   </trkpt>
   <trkpt lat="51.1544580" lon="5.7740250">
    <ele>30.2</ele>
    <time>2019-09-08T06:08:10Z</time>
   </trkpt>
   <trkpt lat="51.1544860" lon="5.7741110">
    <ele>30.1</ele>
    <time>2019-09-08T06:08:11Z</time>
   </trkpt>
   <trkpt lat="51.1545110" lon="5.7742160">
    <ele>30.0</ele>
    <time>2019-09-08T06:08:12Z</time>
   </trkpt>
   <trkpt lat="51.1545360" lon="5.7743050">
    <ele>29.9</ele>
    <time>2019-09-08T06:08:13Z</time>
   </trkpt>
   <trkpt lat="51.1545630" lon="5.7744020">
    <ele>29.9</ele>
    <time>2019-09-08T06:08:14Z</time>
   </trkpt>
   <trkpt lat="51.1545890" lon="5.7744990">
    <ele>29.9</ele>
    <time>2019-09-08T06:08:15Z</time>
   </trkpt>
   <trkpt lat="51.1546330" lon="5.7746360">
    <ele>29.9</ele>
    <time>2019-09-08T06:08:16Z</time>
   </trkpt>
   <trkpt lat="51.1546890" lon="5.7747310">
    <ele>29.9</ele>
    <time>2019-09-08T06:08:17Z</time>
   </trkpt>
   <trkpt lat="51.1547340" lon="5.7747980">
    <ele>29.9</ele>
    <time>2019-09-08T06:08:18Z</time>
   </trkpt>
   <trkpt lat="51.1547900" lon="5.7748630">
    <ele>29.9</ele>
    <time>2019-09-08T06:08:19Z</time>
   </trkpt>
   <trkpt lat="51.1548480" lon="5.7749200">
    <ele>29.9</ele>
    <time>2019-09-08T06:08:20Z</time>
   </trkpt>
   <trkpt lat="51.1549130" lon="5.7749810">
    <ele>29.8</ele>
    <time>2019-09-08T06:08:21Z</time>
   </trkpt>
   <trkpt lat="51.1549700" lon="5.7750370">
    <ele>29.8</ele>
    <time>2019-09-08T06:08:22Z</time>
   </trkpt>
   <trkpt lat="51.1550340" lon="5.7750950">
    <ele>29.7</ele>
    <time>2019-09-08T06:08:23Z</time>
   </trkpt>
   <trkpt lat="51.1550970" lon="5.7751560">
    <ele>29.5</ele>
    <time>2019-09-08T06:08:24Z</time>
   </trkpt>
   <trkpt lat="51.1551570" lon="5.7752170">
    <ele>29.4</ele>
    <time>2019-09-08T06:08:25Z</time>
   </trkpt>
   <trkpt lat="51.1552180" lon="5.7752800">
    <ele>29.2</ele>
    <time>2019-09-08T06:08:26Z</time>
   </trkpt>
   <trkpt lat="51.1552750" lon="5.7753400">
    <ele>29.0</ele>
    <time>2019-09-08T06:08:27Z</time>
   </trkpt>
   <trkpt lat="51.1553330" lon="5.7753960">
    <ele>28.9</ele>
    <time>2019-09-08T06:08:28Z</time>
   </trkpt>
   <trkpt lat="51.1553920" lon="5.7754550">
    <ele>28.8</ele>
    <time>2019-09-08T06:08:29Z</time>
   </trkpt>
   <trkpt lat="51.1554470" lon="5.7755110">
    <ele>28.7</ele>
    <time>2019-09-08T06:08:30Z</time>
   </trkpt>
   <trkpt lat="51.1555100" lon="5.7755730">
    <ele>28.6</ele>
    <time>2019-09-08T06:08:31Z</time>
   </trkpt>
   <trkpt lat="51.1555660" lon="5.7756240">
    <ele>28.6</ele>
    <time>2019-09-08T06:08:32Z</time>
   </trkpt>
   <trkpt lat="51.1556130" lon="5.7756690">
    <ele>28.6</ele>
    <time>2019-09-08T06:08:33Z</time>
   </trkpt>
   <trkpt lat="51.1556480" lon="5.7756640">
    <ele>28.6</ele>
    <time>2019-09-08T06:08:34Z</time>
   </trkpt>
   <trkpt lat="51.1556860" lon="5.7756640">
    <ele>28.6</ele>
    <time>2019-09-08T06:08:35Z</time>
   </trkpt>
   <trkpt lat="51.1557450" lon="5.7757350">
    <ele>28.6</ele>
    <time>2019-09-08T06:08:36Z</time>
   </trkpt>
   <trkpt lat="51.1557980" lon="5.7757920">
    <ele>28.6</ele>
    <time>2019-09-08T06:08:37Z</time>
   </trkpt>
   <trkpt lat="51.1558540" lon="5.7758470">
    <ele>28.7</ele>
    <time>2019-09-08T06:08:38Z</time>
   </trkpt>
   <trkpt lat="51.1559140" lon="5.7758960">
    <ele>28.8</ele>
    <time>2019-09-08T06:08:39Z</time>
   </trkpt>
   <trkpt lat="51.1559760" lon="5.7759510">
    <ele>29.0</ele>
    <time>2019-09-08T06:08:40Z</time>
   </trkpt>
   <trkpt lat="51.1560370" lon="5.7760080">
    <ele>29.1</ele>
    <time>2019-09-08T06:08:41Z</time>
   </trkpt>
   <trkpt lat="51.1560960" lon="5.7760510">
    <ele>29.2</ele>
    <time>2019-09-08T06:08:42Z</time>
   </trkpt>
   <trkpt lat="51.1561600" lon="5.7760950">
    <ele>29.3</ele>
    <time>2019-09-08T06:08:43Z</time>
   </trkpt>
   <trkpt lat="51.1562260" lon="5.7761520">
    <ele>29.4</ele>
    <time>2019-09-08T06:08:44Z</time>
   </trkpt>
   <trkpt lat="51.1562850" lon="5.7762010">
    <ele>29.4</ele>
    <time>2019-09-08T06:08:45Z</time>
   </trkpt>
   <trkpt lat="51.1563390" lon="5.7762450">
    <ele>29.4</ele>
    <time>2019-09-08T06:08:46Z</time>
   </trkpt>
   <trkpt lat="51.1564070" lon="5.7763000">
    <ele>29.4</ele>
    <time>2019-09-08T06:08:47Z</time>
   </trkpt>
   <trkpt lat="51.1564700" lon="5.7763510">
    <ele>29.4</ele>
    <time>2019-09-08T06:08:48Z</time>
   </trkpt>
   <trkpt lat="51.1565310" lon="5.7764090">
    <ele>29.5</ele>
    <time>2019-09-08T06:08:49Z</time>
   </trkpt>
   <trkpt lat="51.1565890" lon="5.7764640">
    <ele>29.5</ele>
    <time>2019-09-08T06:08:50Z</time>
   </trkpt>
   <trkpt lat="51.1566470" lon="5.7765340">
    <ele>29.5</ele>
    <time>2019-09-08T06:08:51Z</time>
   </trkpt>
   <trkpt lat="51.1567060" lon="5.7765800">
    <ele>29.6</ele>
    <time>2019-09-08T06:08:52Z</time>
   </trkpt>
   <trkpt lat="51.1567690" lon="5.7766320">
    <ele>29.6</ele>
    <time>2019-09-08T06:08:53Z</time>
   </trkpt>
   <trkpt lat="51.1568240" lon="5.7766830">
    <ele>29.6</ele>
    <time>2019-09-08T06:08:54Z</time>
   </trkpt>
   <trkpt lat="51.1568840" lon="5.7767450">
    <ele>29.7</ele>
    <time>2019-09-08T06:08:55Z</time>
   </trkpt>
   <trkpt lat="51.1569420" lon="5.7768010">
    <ele>29.7</ele>
    <time>2019-09-08T06:08:56Z</time>
   </trkpt>
   <trkpt lat="51.1570030" lon="5.7768590">
    <ele>29.7</ele>
    <time>2019-09-08T06:08:57Z</time>
   </trkpt>
   <trkpt lat="51.1570700" lon="5.7769190">
    <ele>29.8</ele>
    <time>2019-09-08T06:08:58Z</time>
   </trkpt>
   <trkpt lat="51.1571330" lon="5.7769590">
    <ele>29.8</ele>
    <time>2019-09-08T06:08:59Z</time>
   </trkpt>
   <trkpt lat="51.1571920" lon="5.7770090">
    <ele>29.8</ele>
    <time>2019-09-08T06:09:00Z</time>
   </trkpt>
   <trkpt lat="51.1572590" lon="5.7770630">
    <ele>29.8</ele>
    <time>2019-09-08T06:09:01Z</time>
   </trkpt>
   <trkpt lat="51.1573200" lon="5.7771130">
    <ele>29.8</ele>
    <time>2019-09-08T06:09:02Z</time>
   </trkpt>
   <trkpt lat="51.1573840" lon="5.7771640">
    <ele>29.8</ele>
    <time>2019-09-08T06:09:03Z</time>
   </trkpt>
   <trkpt lat="51.1574430" lon="5.7772100">
    <ele>29.8</ele>
    <time>2019-09-08T06:09:04Z</time>
   </trkpt>
   <trkpt lat="51.1575100" lon="5.7772570">
    <ele>29.8</ele>
    <time>2019-09-08T06:09:05Z</time>
   </trkpt>
   <trkpt lat="51.1575800" lon="5.7773000">
    <ele>29.8</ele>
    <time>2019-09-08T06:09:06Z</time>
   </trkpt>
   <trkpt lat="51.1576440" lon="5.7773460">
    <ele>29.8</ele>
    <time>2019-09-08T06:09:07Z</time>
   </trkpt>
   <trkpt lat="51.1577070" lon="5.7773880">
    <ele>29.9</ele>
    <time>2019-09-08T06:09:08Z</time>
   </trkpt>
   <trkpt lat="51.1577660" lon="5.7774280">
    <ele>29.9</ele>
    <time>2019-09-08T06:09:09Z</time>
   </trkpt>
   <trkpt lat="51.1578290" lon="5.7774720">
    <ele>29.9</ele>
    <time>2019-09-08T06:09:10Z</time>
   </trkpt>
   <trkpt lat="51.1578910" lon="5.7775130">
    <ele>30.0</ele>
    <time>2019-09-08T06:09:11Z</time>
   </trkpt>
   <trkpt lat="51.1579520" lon="5.7775550">
    <ele>30.0</ele>
    <time>2019-09-08T06:09:12Z</time>
   </trkpt>
   <trkpt lat="51.1580170" lon="5.7776000">
    <ele>30.0</ele>
    <time>2019-09-08T06:09:13Z</time>
   </trkpt>
   <trkpt lat="51.1580800" lon="5.7776450">
    <ele>30.1</ele>
    <time>2019-09-08T06:09:14Z</time>
   </trkpt>
   <trkpt lat="51.1581450" lon="5.7776770">
    <ele>30.1</ele>
    <time>2019-09-08T06:09:15Z</time>
   </trkpt>
   <trkpt lat="51.1582040" lon="5.7777230">
    <ele>30.1</ele>
    <time>2019-09-08T06:09:16Z</time>
   </trkpt>
   <trkpt lat="51.1582640" lon="5.7777650">
    <ele>30.2</ele>
    <time>2019-09-08T06:09:17Z</time>
   </trkpt>
   <trkpt lat="51.1583220" lon="5.7778020">
    <ele>30.2</ele>
    <time>2019-09-08T06:09:18Z</time>
   </trkpt>
   <trkpt lat="51.1583890" lon="5.7778400">
    <ele>30.3</ele>
    <time>2019-09-08T06:09:19Z</time>
   </trkpt>
   <trkpt lat="51.1584440" lon="5.7778870">
    <ele>30.3</ele>
    <time>2019-09-08T06:09:20Z</time>
   </trkpt>
   <trkpt lat="51.1584910" lon="5.7779410">
    <ele>30.3</ele>
    <time>2019-09-08T06:09:21Z</time>
   </trkpt>
   <trkpt lat="51.1585420" lon="5.7780180">
    <ele>30.3</ele>
    <time>2019-09-08T06:09:22Z</time>
   </trkpt>
   <trkpt lat="51.1585940" lon="5.7781030">
    <ele>30.3</ele>
    <time>2019-09-08T06:09:23Z</time>
   </trkpt>
   <trkpt lat="51.1586280" lon="5.7781800">
    <ele>30.3</ele>
    <time>2019-09-08T06:09:24Z</time>
   </trkpt>
   <trkpt lat="51.1586800" lon="5.7782690">
    <ele>30.4</ele>
    <time>2019-09-08T06:09:25Z</time>
   </trkpt>
   <trkpt lat="51.1587220" lon="5.7783630">
    <ele>30.4</ele>
    <time>2019-09-08T06:09:26Z</time>
   </trkpt>
   <trkpt lat="51.1587600" lon="5.7784440">
    <ele>30.5</ele>
    <time>2019-09-08T06:09:27Z</time>
   </trkpt>
   <trkpt lat="51.1588000" lon="5.7785170">
    <ele>30.6</ele>
    <time>2019-09-08T06:09:28Z</time>
   </trkpt>
   <trkpt lat="51.1588400" lon="5.7785880">
    <ele>30.6</ele>
    <time>2019-09-08T06:09:29Z</time>
   </trkpt>
   <trkpt lat="51.1588810" lon="5.7786670">
    <ele>30.7</ele>
    <time>2019-09-08T06:09:30Z</time>
   </trkpt>
   <trkpt lat="51.1589360" lon="5.7787460">
    <ele>30.8</ele>
    <time>2019-09-08T06:09:31Z</time>
   </trkpt>
   <trkpt lat="51.1589690" lon="5.7788080">
    <ele>30.9</ele>
    <time>2019-09-08T06:09:32Z</time>
   </trkpt>
   <trkpt lat="51.1590070" lon="5.7788610">
    <ele>31.0</ele>
    <time>2019-09-08T06:09:33Z</time>
   </trkpt>
   <trkpt lat="51.1590490" lon="5.7789000">
    <ele>31.2</ele>
    <time>2019-09-08T06:09:34Z</time>
   </trkpt>
   <trkpt lat="51.1590960" lon="5.7789150">
    <ele>31.3</ele>
    <time>2019-09-08T06:09:35Z</time>
   </trkpt>
   <trkpt lat="51.1591420" lon="5.7789150">
    <ele>31.3</ele>
    <time>2019-09-08T06:09:36Z</time>
   </trkpt>
   <trkpt lat="51.1591950" lon="5.7788910">
    <ele>31.2</ele>
    <time>2019-09-08T06:09:37Z</time>
   </trkpt>
   <trkpt lat="51.1592440" lon="5.7788370">
    <ele>31.2</ele>
    <time>2019-09-08T06:09:38Z</time>
   </trkpt>
   <trkpt lat="51.1592940" lon="5.7787880">
    <ele>31.2</ele>
    <time>2019-09-08T06:09:39Z</time>
   </trkpt>
   <trkpt lat="51.1593470" lon="5.7787350">
    <ele>31.2</ele>
    <time>2019-09-08T06:09:40Z</time>
   </trkpt>
   <trkpt lat="51.1594040" lon="5.7786660">
    <ele>31.2</ele>
    <time>2019-09-08T06:09:41Z</time>
   </trkpt>
   <trkpt lat="51.1594580" lon="5.7786080">
    <ele>31.2</ele>
    <time>2019-09-08T06:09:42Z</time>
   </trkpt>
   <trkpt lat="51.1595180" lon="5.7785490">
    <ele>31.2</ele>
    <time>2019-09-08T06:09:43Z</time>
   </trkpt>
   <trkpt lat="51.1595730" lon="5.7784810">
    <ele>31.2</ele>
    <time>2019-09-08T06:09:44Z</time>
   </trkpt>
   <trkpt lat="51.1596290" lon="5.7784190">
    <ele>31.2</ele>
    <time>2019-09-08T06:09:45Z</time>
   </trkpt>
   <trkpt lat="51.1596790" lon="5.7783580">
    <ele>31.2</ele>
    <time>2019-09-08T06:09:46Z</time>
   </trkpt>
   <trkpt lat="51.1597310" lon="5.7782750">
    <ele>31.2</ele>
    <time>2019-09-08T06:09:47Z</time>
   </trkpt>
   <trkpt lat="51.1597830" lon="5.7782020">
    <ele>31.2</ele>
    <time>2019-09-08T06:09:48Z</time>
   </trkpt>
   <trkpt lat="51.1598360" lon="5.7781280">
    <ele>31.2</ele>
    <time>2019-09-08T06:09:49Z</time>
   </trkpt>
   <trkpt lat="51.1598820" lon="5.7780450">
    <ele>31.3</ele>
    <time>2019-09-08T06:09:50Z</time>
   </trkpt>
   <trkpt lat="51.1599360" lon="5.7779730">
    <ele>31.3</ele>
    <time>2019-09-08T06:09:51Z</time>
   </trkpt>
   <trkpt lat="51.1599860" lon="5.7778880">
    <ele>31.3</ele>
    <time>2019-09-08T06:09:52Z</time>
   </trkpt>
   <trkpt lat="51.1600380" lon="5.7778090">
    <ele>31.3</ele>
    <time>2019-09-08T06:09:53Z</time>
   </trkpt>
   <trkpt lat="51.1600980" lon="5.7777260">
    <ele>31.3</ele>
    <time>2019-09-08T06:09:54Z</time>
   </trkpt>
   <trkpt lat="51.1601450" lon="5.7776550">
    <ele>31.3</ele>
    <time>2019-09-08T06:09:55Z</time>
   </trkpt>
   <trkpt lat="51.1601990" lon="5.7775640">
    <ele>31.3</ele>
    <time>2019-09-08T06:09:56Z</time>
   </trkpt>
   <trkpt lat="51.1602450" lon="5.7774950">
    <ele>31.3</ele>
    <time>2019-09-08T06:09:57Z</time>
   </trkpt>
   <trkpt lat="51.1602960" lon="5.7774260">
    <ele>31.3</ele>
    <time>2019-09-08T06:09:58Z</time>
   </trkpt>
   <trkpt lat="51.1603490" lon="5.7773630">
    <ele>31.3</ele>
    <time>2019-09-08T06:09:59Z</time>
   </trkpt>
   <trkpt lat="51.1604040" lon="5.7773100">
    <ele>31.3</ele>
    <time>2019-09-08T06:10:00Z</time>
   </trkpt>
   <trkpt lat="51.1604620" lon="5.7772680">
    <ele>31.3</ele>
    <time>2019-09-08T06:10:01Z</time>
   </trkpt>
   <trkpt lat="51.1605250" lon="5.7772250">
    <ele>31.3</ele>
    <time>2019-09-08T06:10:02Z</time>
   </trkpt>
   <trkpt lat="51.1605920" lon="5.7771920">
    <ele>31.3</ele>
    <time>2019-09-08T06:10:03Z</time>
   </trkpt>
   <trkpt lat="51.1606540" lon="5.7771620">
    <ele>31.3</ele>
    <time>2019-09-08T06:10:04Z</time>
   </trkpt>
   <trkpt lat="51.1607190" lon="5.7771640">
    <ele>31.3</ele>
    <time>2019-09-08T06:10:05Z</time>
   </trkpt>
   <trkpt lat="51.1607660" lon="5.7771570">
    <ele>31.3</ele>
    <time>2019-09-08T06:10:06Z</time>
   </trkpt>
   <trkpt lat="51.1608290" lon="5.7771500">
    <ele>31.3</ele>
    <time>2019-09-08T06:10:07Z</time>
   </trkpt>
   <trkpt lat="51.1608930" lon="5.7771310">
    <ele>31.3</ele>
    <time>2019-09-08T06:10:08Z</time>
   </trkpt>
   <trkpt lat="51.1609660" lon="5.7771220">
    <ele>31.3</ele>
    <time>2019-09-08T06:10:09Z</time>
   </trkpt>
   <trkpt lat="51.1610330" lon="5.7771030">
    <ele>31.2</ele>
    <time>2019-09-08T06:10:10Z</time>
   </trkpt>
   <trkpt lat="51.1610940" lon="5.7771000">
    <ele>31.2</ele>
    <time>2019-09-08T06:10:11Z</time>
   </trkpt>
   <trkpt lat="51.1611590" lon="5.7771070">
    <ele>31.2</ele>
    <time>2019-09-08T06:10:12Z</time>
   </trkpt>
   <trkpt lat="51.1612210" lon="5.7771180">
    <ele>31.2</ele>
    <time>2019-09-08T06:10:13Z</time>
   </trkpt>
   <trkpt lat="51.1612960" lon="5.7771270">
    <ele>31.2</ele>
    <time>2019-09-08T06:10:14Z</time>
   </trkpt>
   <trkpt lat="51.1613640" lon="5.7771390">
    <ele>31.2</ele>
    <time>2019-09-08T06:10:15Z</time>
   </trkpt>
   <trkpt lat="51.1614280" lon="5.7771600">
    <ele>31.2</ele>
    <time>2019-09-08T06:10:16Z</time>
   </trkpt>
   <trkpt lat="51.1615000" lon="5.7771790">
    <ele>31.2</ele>
    <time>2019-09-08T06:10:17Z</time>
   </trkpt>
   <trkpt lat="51.1615710" lon="5.7772040">
    <ele>31.2</ele>
    <time>2019-09-08T06:10:18Z</time>
   </trkpt>
   <trkpt lat="51.1616350" lon="5.7772230">
    <ele>31.2</ele>
    <time>2019-09-08T06:10:19Z</time>
   </trkpt>
   <trkpt lat="51.1616900" lon="5.7772360">
    <ele>31.1</ele>
    <time>2019-09-08T06:10:20Z</time>
   </trkpt>
   <trkpt lat="51.1617470" lon="5.7772580">
    <ele>31.1</ele>
    <time>2019-09-08T06:10:21Z</time>
   </trkpt>
   <trkpt lat="51.1618060" lon="5.7772850">
    <ele>31.1</ele>
    <time>2019-09-08T06:10:22Z</time>
   </trkpt>
   <trkpt lat="51.1618610" lon="5.7773130">
    <ele>31.1</ele>
    <time>2019-09-08T06:10:23Z</time>
   </trkpt>
   <trkpt lat="51.1619220" lon="5.7773460">
    <ele>31.1</ele>
    <time>2019-09-08T06:10:24Z</time>
   </trkpt>
   <trkpt lat="51.1619780" lon="5.7773910">
    <ele>31.1</ele>
    <time>2019-09-08T06:10:25Z</time>
   </trkpt>
   <trkpt lat="51.1620350" lon="5.7774280">
    <ele>31.1</ele>
    <time>2019-09-08T06:10:26Z</time>
   </trkpt>
   <trkpt lat="51.1620980" lon="5.7774690">
    <ele>31.1</ele>
    <time>2019-09-08T06:10:27Z</time>
   </trkpt>
   <trkpt lat="51.1621610" lon="5.7775190">
    <ele>31.1</ele>
    <time>2019-09-08T06:10:28Z</time>
   </trkpt>
   <trkpt lat="51.1622260" lon="5.7775670">
    <ele>31.1</ele>
    <time>2019-09-08T06:10:29Z</time>
   </trkpt>
   <trkpt lat="51.1622840" lon="5.7776060">
    <ele>31.1</ele>
    <time>2019-09-08T06:10:30Z</time>
   </trkpt>
   <trkpt lat="51.1623350" lon="5.7776350">
    <ele>31.1</ele>
    <time>2019-09-08T06:10:31Z</time>
   </trkpt>
   <trkpt lat="51.1623890" lon="5.7776470">
    <ele>31.0</ele>
    <time>2019-09-08T06:10:32Z</time>
   </trkpt>
   <trkpt lat="51.1624480" lon="5.7776460">
    <ele>31.0</ele>
    <time>2019-09-08T06:10:33Z</time>
   </trkpt>
   <trkpt lat="51.1625130" lon="5.7776330">
    <ele>31.0</ele>
    <time>2019-09-08T06:10:34Z</time>
   </trkpt>
   <trkpt lat="51.1625680" lon="5.7775890">
    <ele>31.0</ele>
    <time>2019-09-08T06:10:35Z</time>
   </trkpt>
   <trkpt lat="51.1626160" lon="5.7775220">
    <ele>31.0</ele>
    <time>2019-09-08T06:10:36Z</time>
   </trkpt>
   <trkpt lat="51.1626580" lon="5.7774440">
    <ele>31.0</ele>
    <time>2019-09-08T06:10:37Z</time>
   </trkpt>
   <trkpt lat="51.1626960" lon="5.7773580">
    <ele>31.0</ele>
    <time>2019-09-08T06:10:38Z</time>
   </trkpt>
   <trkpt lat="51.1627290" lon="5.7772630">
    <ele>31.0</ele>
    <time>2019-09-08T06:10:39Z</time>
   </trkpt>
   <trkpt lat="51.1627620" lon="5.7771680">
    <ele>31.0</ele>
    <time>2019-09-08T06:10:40Z</time>
   </trkpt>
   <trkpt lat="51.1627900" lon="5.7770660">
    <ele>31.0</ele>
    <time>2019-09-08T06:10:41Z</time>
   </trkpt>
   <trkpt lat="51.1628160" lon="5.7769700">
    <ele>30.9</ele>
    <time>2019-09-08T06:10:42Z</time>
   </trkpt>
   <trkpt lat="51.1628430" lon="5.7768620">
    <ele>30.9</ele>
    <time>2019-09-08T06:10:43Z</time>
   </trkpt>
   <trkpt lat="51.1628770" lon="5.7767500">
    <ele>30.9</ele>
    <time>2019-09-08T06:10:44Z</time>
   </trkpt>
   <trkpt lat="51.1628990" lon="5.7766580">
    <ele>30.9</ele>
    <time>2019-09-08T06:10:45Z</time>
   </trkpt>
   <trkpt lat="51.1629260" lon="5.7765650">
    <ele>30.9</ele>
    <time>2019-09-08T06:10:46Z</time>
   </trkpt>
   <trkpt lat="51.1629410" lon="5.7764780">
    <ele>30.8</ele>
    <time>2019-09-08T06:10:47Z</time>
   </trkpt>
   <trkpt lat="51.1629570" lon="5.7763900">
    <ele>30.8</ele>
    <time>2019-09-08T06:10:48Z</time>
   </trkpt>
   <trkpt lat="51.1629740" lon="5.7762920">
    <ele>30.8</ele>
    <time>2019-09-08T06:10:49Z</time>
   </trkpt>
   <trkpt lat="51.1629950" lon="5.7762120">
    <ele>30.8</ele>
    <time>2019-09-08T06:10:50Z</time>
   </trkpt>
   <trkpt lat="51.1630100" lon="5.7761370">
    <ele>30.8</ele>
    <time>2019-09-08T06:10:51Z</time>
   </trkpt>
   <trkpt lat="51.1630240" lon="5.7760540">
    <ele>30.7</ele>
    <time>2019-09-08T06:10:52Z</time>
   </trkpt>
   <trkpt lat="51.1630430" lon="5.7759980">
    <ele>30.7</ele>
    <time>2019-09-08T06:10:53Z</time>
   </trkpt>
   <trkpt lat="51.1630580" lon="5.7759480">
    <ele>30.7</ele>
    <time>2019-09-08T06:10:54Z</time>
   </trkpt>
   <trkpt lat="51.1630810" lon="5.7759040">
    <ele>30.7</ele>
    <time>2019-09-08T06:10:55Z</time>
   </trkpt>
   <trkpt lat="51.1631060" lon="5.7758760">
    <ele>30.7</ele>
    <time>2019-09-08T06:10:56Z</time>
   </trkpt>
   <trkpt lat="51.1631390" lon="5.7758720">
    <ele>30.6</ele>
    <time>2019-09-08T06:10:57Z</time>
   </trkpt>
   <trkpt lat="51.1631750" lon="5.7758930">
    <ele>30.5</ele>
    <time>2019-09-08T06:10:58Z</time>
   </trkpt>
   <trkpt lat="51.1632010" lon="5.7759460">
    <ele>30.5</ele>
    <time>2019-09-08T06:10:59Z</time>
   </trkpt>
   <trkpt lat="51.1632380" lon="5.7760180">
    <ele>30.5</ele>
    <time>2019-09-08T06:11:00Z</time>
   </trkpt>
   <trkpt lat="51.1632460" lon="5.7761060">
    <ele>30.5</ele>
    <time>2019-09-08T06:11:01Z</time>
   </trkpt>
   <trkpt lat="51.1632500" lon="5.7761990">
    <ele>30.5</ele>
    <time>2019-09-08T06:11:02Z</time>
   </trkpt>
   <trkpt lat="51.1632510" lon="5.7762930">
    <ele>30.5</ele>
    <time>2019-09-08T06:11:03Z</time>
   </trkpt>
   <trkpt lat="51.1632520" lon="5.7763910">
    <ele>30.4</ele>
    <time>2019-09-08T06:11:04Z</time>
   </trkpt>
   <trkpt lat="51.1632480" lon="5.7764940">
    <ele>30.4</ele>
    <time>2019-09-08T06:11:05Z</time>
   </trkpt>
   <trkpt lat="51.1632570" lon="5.7766060">
    <ele>30.3</ele>
    <time>2019-09-08T06:11:06Z</time>
   </trkpt>
   <trkpt lat="51.1632660" lon="5.7767100">
    <ele>30.2</ele>
    <time>2019-09-08T06:11:07Z</time>
   </trkpt>
   <trkpt lat="51.1632820" lon="5.7768090">
    <ele>30.1</ele>
    <time>2019-09-08T06:11:08Z</time>
   </trkpt>
   <trkpt lat="51.1633050" lon="5.7768860">
    <ele>30.0</ele>
    <time>2019-09-08T06:11:09Z</time>
   </trkpt>
   <trkpt lat="51.1633370" lon="5.7769790">
    <ele>29.9</ele>
    <time>2019-09-08T06:11:10Z</time>
   </trkpt>
   <trkpt lat="51.1633800" lon="5.7770610">
    <ele>29.8</ele>
    <time>2019-09-08T06:11:11Z</time>
   </trkpt>
   <trkpt lat="51.1634280" lon="5.7771370">
    <ele>29.6</ele>
    <time>2019-09-08T06:11:12Z</time>
   </trkpt>
   <trkpt lat="51.1634670" lon="5.7772360">
    <ele>29.5</ele>
    <time>2019-09-08T06:11:13Z</time>
   </trkpt>
   <trkpt lat="51.1635120" lon="5.7773220">
    <ele>29.4</ele>
    <time>2019-09-08T06:11:14Z</time>
   </trkpt>
   <trkpt lat="51.1635570" lon="5.7774060">
    <ele>29.4</ele>
    <time>2019-09-08T06:11:15Z</time>
   </trkpt>
   <trkpt lat="51.1635970" lon="5.7774940">
    <ele>29.4</ele>
    <time>2019-09-08T06:11:16Z</time>
   </trkpt>
   <trkpt lat="51.1636300" lon="5.7775790">
    <ele>29.3</ele>
    <time>2019-09-08T06:11:17Z</time>
   </trkpt>
   <trkpt lat="51.1636640" lon="5.7776690">
    <ele>29.3</ele>
    <time>2019-09-08T06:11:18Z</time>
   </trkpt>
   <trkpt lat="51.1637070" lon="5.7777510">
    <ele>29.3</ele>
    <time>2019-09-08T06:11:19Z</time>
   </trkpt>
   <trkpt lat="51.1637430" lon="5.7778440">
    <ele>29.3</ele>
    <time>2019-09-08T06:11:20Z</time>
   </trkpt>
   <trkpt lat="51.1637900" lon="5.7779250">
    <ele>29.3</ele>
    <time>2019-09-08T06:11:21Z</time>
   </trkpt>
   <trkpt lat="51.1638240" lon="5.7779990">
    <ele>29.3</ele>
    <time>2019-09-08T06:11:22Z</time>
   </trkpt>
   <trkpt lat="51.1638610" lon="5.7780920">
    <ele>29.3</ele>
    <time>2019-09-08T06:11:23Z</time>
   </trkpt>
   <trkpt lat="51.1639130" lon="5.7781780">
    <ele>29.4</ele>
    <time>2019-09-08T06:11:24Z</time>
   </trkpt>
   <trkpt lat="51.1639510" lon="5.7782580">
    <ele>29.4</ele>
    <time>2019-09-08T06:11:25Z</time>
   </trkpt>
   <trkpt lat="51.1639900" lon="5.7783400">
    <ele>29.4</ele>
    <time>2019-09-08T06:11:26Z</time>
   </trkpt>
   <trkpt lat="51.1640280" lon="5.7784230">
    <ele>29.5</ele>
    <time>2019-09-08T06:11:27Z</time>
   </trkpt>
   <trkpt lat="51.1640710" lon="5.7785070">
    <ele>29.6</ele>
    <time>2019-09-08T06:11:28Z</time>
   </trkpt>
   <trkpt lat="51.1641140" lon="5.7785970">
    <ele>29.7</ele>
    <time>2019-09-08T06:11:29Z</time>
   </trkpt>
   <trkpt lat="51.1641610" lon="5.7786740">
    <ele>29.7</ele>
    <time>2019-09-08T06:11:30Z</time>
   </trkpt>
   <trkpt lat="51.1642030" lon="5.7787520">
    <ele>29.8</ele>
    <time>2019-09-08T06:11:31Z</time>
   </trkpt>
   <trkpt lat="51.1642430" lon="5.7788310">
    <ele>29.9</ele>
    <time>2019-09-08T06:11:32Z</time>
   </trkpt>
   <trkpt lat="51.1642840" lon="5.7789190">
    <ele>30.0</ele>
    <time>2019-09-08T06:11:33Z</time>
   </trkpt>
   <trkpt lat="51.1643210" lon="5.7789990">
    <ele>30.0</ele>
    <time>2019-09-08T06:11:34Z</time>
   </trkpt>
   <trkpt lat="51.1643530" lon="5.7790760">
    <ele>30.1</ele>
    <time>2019-09-08T06:11:35Z</time>
   </trkpt>
   <trkpt lat="51.1643920" lon="5.7791540">
    <ele>30.1</ele>
    <time>2019-09-08T06:11:36Z</time>
   </trkpt>
   <trkpt lat="51.1644300" lon="5.7792260">
    <ele>30.2</ele>
    <time>2019-09-08T06:11:37Z</time>
   </trkpt>
   <trkpt lat="51.1644660" lon="5.7793150">
    <ele>30.2</ele>
    <time>2019-09-08T06:11:38Z</time>
   </trkpt>
   <trkpt lat="51.1645070" lon="5.7794100">
    <ele>30.4</ele>
    <time>2019-09-08T06:11:39Z</time>
   </trkpt>
   <trkpt lat="51.1645550" lon="5.7794840">
    <ele>30.5</ele>
    <time>2019-09-08T06:11:40Z</time>
   </trkpt>
   <trkpt lat="51.1645930" lon="5.7795620">
    <ele>30.7</ele>
    <time>2019-09-08T06:11:41Z</time>
   </trkpt>
   <trkpt lat="51.1646320" lon="5.7796410">
    <ele>30.8</ele>
    <time>2019-09-08T06:11:42Z</time>
   </trkpt>
   <trkpt lat="51.1646760" lon="5.7797220">
    <ele>31.0</ele>
    <time>2019-09-08T06:11:43Z</time>
   </trkpt>
   <trkpt lat="51.1647140" lon="5.7798030">
    <ele>31.2</ele>
    <time>2019-09-08T06:11:44Z</time>
   </trkpt>
   <trkpt lat="51.1647540" lon="5.7798860">
    <ele>31.4</ele>
    <time>2019-09-08T06:11:45Z</time>
   </trkpt>
   <trkpt lat="51.1647940" lon="5.7799670">
    <ele>31.6</ele>
    <time>2019-09-08T06:11:46Z</time>
   </trkpt>
   <trkpt lat="51.1648290" lon="5.7800190">
    <ele>31.7</ele>
    <time>2019-09-08T06:11:47Z</time>
   </trkpt>
   <trkpt lat="51.1648660" lon="5.7801090">
    <ele>31.8</ele>
    <time>2019-09-08T06:11:48Z</time>
   </trkpt>
   <trkpt lat="51.1649020" lon="5.7801780">
    <ele>31.8</ele>
    <time>2019-09-08T06:11:49Z</time>
   </trkpt>
   <trkpt lat="51.1649530" lon="5.7801980">
    <ele>31.8</ele>
    <time>2019-09-08T06:11:50Z</time>
   </trkpt>
   <trkpt lat="51.1650050" lon="5.7802390">
    <ele>31.9</ele>
    <time>2019-09-08T06:11:51Z</time>
   </trkpt>
   <trkpt lat="51.1650270" lon="5.7803010">
    <ele>31.9</ele>
    <time>2019-09-08T06:11:52Z</time>
   </trkpt>
   <trkpt lat="51.1650370" lon="5.7803780">
    <ele>31.9</ele>
    <time>2019-09-08T06:11:53Z</time>
   </trkpt>
   <trkpt lat="51.1650510" lon="5.7804820">
    <ele>31.9</ele>
    <time>2019-09-08T06:11:54Z</time>
   </trkpt>
   <trkpt lat="51.1650700" lon="5.7805710">
    <ele>32.0</ele>
    <time>2019-09-08T06:11:55Z</time>
   </trkpt>
   <trkpt lat="51.1650970" lon="5.7807520">
    <ele>32.0</ele>
    <time>2019-09-08T06:11:56Z</time>
   </trkpt>
   <trkpt lat="51.1650960" lon="5.7809010">
    <ele>32.0</ele>
    <time>2019-09-08T06:11:57Z</time>
   </trkpt>
   <trkpt lat="51.1650890" lon="5.7810050">
    <ele>32.0</ele>
    <time>2019-09-08T06:11:58Z</time>
   </trkpt>
   <trkpt lat="51.1650690" lon="5.7811140">
    <ele>32.0</ele>
    <time>2019-09-08T06:11:59Z</time>
   </trkpt>
   <trkpt lat="51.1650590" lon="5.7812230">
    <ele>32.0</ele>
    <time>2019-09-08T06:12:00Z</time>
   </trkpt>
   <trkpt lat="51.1650560" lon="5.7813370">
    <ele>32.0</ele>
    <time>2019-09-08T06:12:01Z</time>
   </trkpt>
   <trkpt lat="51.1650520" lon="5.7814280">
    <ele>32.1</ele>
    <time>2019-09-08T06:12:02Z</time>
   </trkpt>
   <trkpt lat="51.1650430" lon="5.7815570">
    <ele>32.1</ele>
    <time>2019-09-08T06:12:03Z</time>
   </trkpt>
   <trkpt lat="51.1650140" lon="5.7816930">
    <ele>32.2</ele>
    <time>2019-09-08T06:12:04Z</time>
   </trkpt>
   <trkpt lat="51.1650020" lon="5.7817930">
    <ele>32.2</ele>
    <time>2019-09-08T06:12:05Z</time>
   </trkpt>
   <trkpt lat="51.1650020" lon="5.7818880">
    <ele>32.2</ele>
    <time>2019-09-08T06:12:06Z</time>
   </trkpt>
   <trkpt lat="51.1649990" lon="5.7820270">
    <ele>32.3</ele>
    <time>2019-09-08T06:12:07Z</time>
   </trkpt>
   <trkpt lat="51.1650010" lon="5.7821220">
    <ele>32.3</ele>
    <time>2019-09-08T06:12:08Z</time>
   </trkpt>
   <trkpt lat="51.1650020" lon="5.7822180">
    <ele>32.4</ele>
    <time>2019-09-08T06:12:09Z</time>
   </trkpt>
   <trkpt lat="51.1649980" lon="5.7822770">
    <ele>32.4</ele>
    <time>2019-09-08T06:12:10Z</time>
   </trkpt>
   <trkpt lat="51.1649830" lon="5.7823840">
    <ele>32.5</ele>
    <time>2019-09-08T06:12:11Z</time>
   </trkpt>
   <trkpt lat="51.1649680" lon="5.7825000">
    <ele>32.5</ele>
    <time>2019-09-08T06:12:12Z</time>
   </trkpt>
   <trkpt lat="51.1649570" lon="5.7826210">
    <ele>32.5</ele>
    <time>2019-09-08T06:12:13Z</time>
   </trkpt>
   <trkpt lat="51.1649390" lon="5.7827270">
    <ele>32.5</ele>
    <time>2019-09-08T06:12:14Z</time>
   </trkpt>
   <trkpt lat="51.1649250" lon="5.7828350">
    <ele>32.5</ele>
    <time>2019-09-08T06:12:15Z</time>
   </trkpt>
   <trkpt lat="51.1649140" lon="5.7829380">
    <ele>32.6</ele>
    <time>2019-09-08T06:12:16Z</time>
   </trkpt>
   <trkpt lat="51.1649030" lon="5.7830600">
    <ele>32.7</ele>
    <time>2019-09-08T06:12:17Z</time>
   </trkpt>
   <trkpt lat="51.1648910" lon="5.7831530">
    <ele>32.8</ele>
    <time>2019-09-08T06:12:18Z</time>
   </trkpt>
   <trkpt lat="51.1648850" lon="5.7832560">
    <ele>32.9</ele>
    <time>2019-09-08T06:12:19Z</time>
   </trkpt>
   <trkpt lat="51.1648700" lon="5.7833480">
    <ele>33.5</ele>
    <time>2019-09-08T06:12:20Z</time>
   </trkpt>
   <trkpt lat="51.1648640" lon="5.7834450">
    <ele>34.0</ele>
    <time>2019-09-08T06:12:21Z</time>
   </trkpt>
   <trkpt lat="51.1648600" lon="5.7835360">
    <ele>34.3</ele>
    <time>2019-09-08T06:12:22Z</time>
   </trkpt>
   <trkpt lat="51.1648510" lon="5.7836180">
    <ele>34.6</ele>
    <time>2019-09-08T06:12:23Z</time>
   </trkpt>
   <trkpt lat="51.1648540" lon="5.7837210">
    <ele>34.8</ele>
    <time>2019-09-08T06:12:24Z</time>
   </trkpt>
   <trkpt lat="51.1648380" lon="5.7838990">
    <ele>35.0</ele>
    <time>2019-09-08T06:12:25Z</time>
   </trkpt>
   <trkpt lat="51.1648210" lon="5.7840250">
    <ele>35.0</ele>
    <time>2019-09-08T06:12:26Z</time>
   </trkpt>
   <trkpt lat="51.1648080" lon="5.7841240">
    <ele>35.0</ele>
    <time>2019-09-08T06:12:27Z</time>
   </trkpt>
   <trkpt lat="51.1647840" lon="5.7842640">
    <ele>35.0</ele>
    <time>2019-09-08T06:12:28Z</time>
   </trkpt>
   <trkpt lat="51.1647690" lon="5.7843850">
    <ele>35.0</ele>
    <time>2019-09-08T06:12:29Z</time>
   </trkpt>
   <trkpt lat="51.1647640" lon="5.7844840">
    <ele>35.0</ele>
    <time>2019-09-08T06:12:30Z</time>
   </trkpt>
   <trkpt lat="51.1647680" lon="5.7846440">
    <ele>35.0</ele>
    <time>2019-09-08T06:12:31Z</time>
   </trkpt>
   <trkpt lat="51.1647640" lon="5.7847810">
    <ele>35.0</ele>
    <time>2019-09-08T06:12:32Z</time>
   </trkpt>
   <trkpt lat="51.1647470" lon="5.7848790">
    <ele>35.1</ele>
    <time>2019-09-08T06:12:33Z</time>
   </trkpt>
   <trkpt lat="51.1647330" lon="5.7849940">
    <ele>35.2</ele>
    <time>2019-09-08T06:12:34Z</time>
   </trkpt>
   <trkpt lat="51.1647300" lon="5.7850800">
    <ele>35.2</ele>
    <time>2019-09-08T06:12:35Z</time>
   </trkpt>
   <trkpt lat="51.1647190" lon="5.7851950">
    <ele>35.2</ele>
    <time>2019-09-08T06:12:36Z</time>
   </trkpt>
   <trkpt lat="51.1647110" lon="5.7853190">
    <ele>35.2</ele>
    <time>2019-09-08T06:12:37Z</time>
   </trkpt>
   <trkpt lat="51.1646910" lon="5.7854250">
    <ele>35.2</ele>
    <time>2019-09-08T06:12:38Z</time>
   </trkpt>
   <trkpt lat="51.1646820" lon="5.7855220">
    <ele>35.2</ele>
    <time>2019-09-08T06:12:39Z</time>
   </trkpt>
   <trkpt lat="51.1646480" lon="5.7856010">
    <ele>35.2</ele>
    <time>2019-09-08T06:12:40Z</time>
   </trkpt>
   <trkpt lat="51.1646350" lon="5.7856890">
    <ele>35.1</ele>
    <time>2019-09-08T06:12:41Z</time>
   </trkpt>
   <trkpt lat="51.1646100" lon="5.7857810">
    <ele>35.1</ele>
    <time>2019-09-08T06:12:42Z</time>
   </trkpt>
   <trkpt lat="51.1645940" lon="5.7858580">
    <ele>35.1</ele>
    <time>2019-09-08T06:12:43Z</time>
   </trkpt>
   <trkpt lat="51.1645770" lon="5.7859530">
    <ele>35.1</ele>
    <time>2019-09-08T06:12:44Z</time>
   </trkpt>
   <trkpt lat="51.1645530" lon="5.7860460">
    <ele>35.0</ele>
    <time>2019-09-08T06:12:45Z</time>
   </trkpt>
   <trkpt lat="51.1645370" lon="5.7861200">
    <ele>35.0</ele>
    <time>2019-09-08T06:12:46Z</time>
   </trkpt>
   <trkpt lat="51.1645150" lon="5.7862090">
    <ele>34.9</ele>
    <time>2019-09-08T06:12:47Z</time>
   </trkpt>
   <trkpt lat="51.1644860" lon="5.7863430">
    <ele>35.0</ele>
    <time>2019-09-08T06:12:48Z</time>
   </trkpt>
   <trkpt lat="51.1644600" lon="5.7864100">
    <ele>35.1</ele>
    <time>2019-09-08T06:12:49Z</time>
   </trkpt>
   <trkpt lat="51.1644480" lon="5.7864820">
    <ele>35.1</ele>
    <time>2019-09-08T06:12:50Z</time>
   </trkpt>
   <trkpt lat="51.1644460" lon="5.7865540">
    <ele>35.1</ele>
    <time>2019-09-08T06:12:51Z</time>
   </trkpt>
   <trkpt lat="51.1644340" lon="5.7866570">
    <ele>35.2</ele>
    <time>2019-09-08T06:12:52Z</time>
   </trkpt>
   <trkpt lat="51.1644270" lon="5.7867350">
    <ele>35.2</ele>
    <time>2019-09-08T06:12:53Z</time>
   </trkpt>
   <trkpt lat="51.1644170" lon="5.7867950">
    <ele>35.2</ele>
    <time>2019-09-08T06:12:54Z</time>
   </trkpt>
   <trkpt lat="51.1644090" lon="5.7868890">
    <ele>35.2</ele>
    <time>2019-09-08T06:12:55Z</time>
   </trkpt>
   <trkpt lat="51.1643950" lon="5.7869750">
    <ele>35.1</ele>
    <time>2019-09-08T06:12:56Z</time>
   </trkpt>
   <trkpt lat="51.1643920" lon="5.7871010">
    <ele>35.0</ele>
    <time>2019-09-08T06:12:57Z</time>
   </trkpt>
   <trkpt lat="51.1643830" lon="5.7872280">
    <ele>34.8</ele>
    <time>2019-09-08T06:12:58Z</time>
   </trkpt>
   <trkpt lat="51.1643550" lon="5.7873040">
    <ele>34.6</ele>
    <time>2019-09-08T06:12:59Z</time>
   </trkpt>
   <trkpt lat="51.1643720" lon="5.7874780">
    <ele>34.3</ele>
    <time>2019-09-08T06:13:00Z</time>
   </trkpt>
   <trkpt lat="51.1643730" lon="5.7875280">
    <ele>34.3</ele>
    <time>2019-09-08T06:13:01Z</time>
   </trkpt>
   <trkpt lat="51.1643740" lon="5.7875740">
    <ele>34.2</ele>
    <time>2019-09-08T06:13:02Z</time>
   </trkpt>
   <trkpt lat="51.1644010" lon="5.7876400">
    <ele>34.2</ele>
    <time>2019-09-08T06:13:03Z</time>
   </trkpt>
   <trkpt lat="51.1644290" lon="5.7877160">
    <ele>34.1</ele>
    <time>2019-09-08T06:13:04Z</time>
   </trkpt>
   <trkpt lat="51.1644910" lon="5.7877590">
    <ele>34.0</ele>
    <time>2019-09-08T06:13:05Z</time>
   </trkpt>
   <trkpt lat="51.1645270" lon="5.7877580">
    <ele>34.0</ele>
    <time>2019-09-08T06:13:06Z</time>
   </trkpt>
   <trkpt lat="51.1645910" lon="5.7878880">
    <ele>34.0</ele>
    <time>2019-09-08T06:13:07Z</time>
   </trkpt>
   <trkpt lat="51.1646200" lon="5.7878980">
    <ele>34.0</ele>
    <time>2019-09-08T06:13:08Z</time>
   </trkpt>
   <trkpt lat="51.1646930" lon="5.7878930">
    <ele>34.0</ele>
    <time>2019-09-08T06:13:09Z</time>
   </trkpt>
   <trkpt lat="51.1647030" lon="5.7880340">
    <ele>34.1</ele>
    <time>2019-09-08T06:13:10Z</time>
   </trkpt>
   <trkpt lat="51.1647560" lon="5.7881700">
    <ele>34.2</ele>
    <time>2019-09-08T06:13:11Z</time>
   </trkpt>
   <trkpt lat="51.1648190" lon="5.7882290">
    <ele>34.2</ele>
    <time>2019-09-08T06:13:12Z</time>
   </trkpt>
   <trkpt lat="51.1648790" lon="5.7882370">
    <ele>34.3</ele>
    <time>2019-09-08T06:13:13Z</time>
   </trkpt>
   <trkpt lat="51.1648970" lon="5.7882800">
    <ele>34.3</ele>
    <time>2019-09-08T06:13:14Z</time>
   </trkpt>
   <trkpt lat="51.1649560" lon="5.7883520">
    <ele>34.4</ele>
    <time>2019-09-08T06:13:15Z</time>
   </trkpt>
   <trkpt lat="51.1650380" lon="5.7884620">
    <ele>34.4</ele>
    <time>2019-09-08T06:13:16Z</time>
   </trkpt>
   <trkpt lat="51.1650730" lon="5.7884910">
    <ele>34.5</ele>
    <time>2019-09-08T06:13:17Z</time>
   </trkpt>
   <trkpt lat="51.1651380" lon="5.7885290">
    <ele>34.5</ele>
    <time>2019-09-08T06:13:18Z</time>
   </trkpt>
   <trkpt lat="51.1651720" lon="5.7886010">
    <ele>34.5</ele>
    <time>2019-09-08T06:13:19Z</time>
   </trkpt>
   <trkpt lat="51.1652400" lon="5.7886460">
    <ele>34.6</ele>
    <time>2019-09-08T06:13:20Z</time>
   </trkpt>
   <trkpt lat="51.1653050" lon="5.7887600">
    <ele>34.6</ele>
    <time>2019-09-08T06:13:21Z</time>
   </trkpt>
   <trkpt lat="51.1653570" lon="5.7888470">
    <ele>34.6</ele>
    <time>2019-09-08T06:13:22Z</time>
   </trkpt>
   <trkpt lat="51.1654180" lon="5.7889250">
    <ele>34.6</ele>
    <time>2019-09-08T06:13:23Z</time>
   </trkpt>
   <trkpt lat="51.1654480" lon="5.7889210">
    <ele>34.6</ele>
    <time>2019-09-08T06:13:24Z</time>
   </trkpt>
   <trkpt lat="51.1655170" lon="5.7889740">
    <ele>34.6</ele>
    <time>2019-09-08T06:13:25Z</time>
   </trkpt>
   <trkpt lat="51.1655850" lon="5.7889820">
    <ele>34.6</ele>
    <time>2019-09-08T06:13:26Z</time>
   </trkpt>
   <trkpt lat="51.1656800" lon="5.7890220">
    <ele>34.6</ele>
    <time>2019-09-08T06:13:27Z</time>
   </trkpt>
   <trkpt lat="51.1657790" lon="5.7890600">
    <ele>34.6</ele>
    <time>2019-09-08T06:13:29Z</time>
   </trkpt>
   <trkpt lat="51.1658720" lon="5.7891270">
    <ele>34.6</ele>
    <time>2019-09-08T06:13:30Z</time>
   </trkpt>
   <trkpt lat="51.1659600" lon="5.7891490">
    <ele>34.5</ele>
    <time>2019-09-08T06:13:31Z</time>
   </trkpt>
   <trkpt lat="51.1660360" lon="5.7891610">
    <ele>34.5</ele>
    <time>2019-09-08T06:13:32Z</time>
   </trkpt>
   <trkpt lat="51.1661180" lon="5.7892020">
    <ele>34.5</ele>
    <time>2019-09-08T06:13:33Z</time>
   </trkpt>
   <trkpt lat="51.1661920" lon="5.7892210">
    <ele>34.5</ele>
    <time>2019-09-08T06:13:34Z</time>
   </trkpt>
   <trkpt lat="51.1662740" lon="5.7892480">
    <ele>34.4</ele>
    <time>2019-09-08T06:13:35Z</time>
   </trkpt>
   <trkpt lat="51.1663530" lon="5.7892950">
    <ele>34.4</ele>
    <time>2019-09-08T06:13:36Z</time>
   </trkpt>
   <trkpt lat="51.1664290" lon="5.7893130">
    <ele>34.4</ele>
    <time>2019-09-08T06:13:37Z</time>
   </trkpt>
   <trkpt lat="51.1664930" lon="5.7893620">
    <ele>34.4</ele>
    <time>2019-09-08T06:13:38Z</time>
   </trkpt>
   <trkpt lat="51.1665580" lon="5.7893960">
    <ele>34.3</ele>
    <time>2019-09-08T06:13:39Z</time>
   </trkpt>
   <trkpt lat="51.1666220" lon="5.7894190">
    <ele>34.3</ele>
    <time>2019-09-08T06:13:40Z</time>
   </trkpt>
   <trkpt lat="51.1666860" lon="5.7894520">
    <ele>34.3</ele>
    <time>2019-09-08T06:13:41Z</time>
   </trkpt>
   <trkpt lat="51.1667460" lon="5.7894960">
    <ele>34.3</ele>
    <time>2019-09-08T06:13:42Z</time>
   </trkpt>
   <trkpt lat="51.1668090" lon="5.7895540">
    <ele>34.2</ele>
    <time>2019-09-08T06:13:43Z</time>
   </trkpt>
   <trkpt lat="51.1668750" lon="5.7896260">
    <ele>34.2</ele>
    <time>2019-09-08T06:13:44Z</time>
   </trkpt>
   <trkpt lat="51.1669360" lon="5.7897040">
    <ele>34.1</ele>
    <time>2019-09-08T06:13:45Z</time>
   </trkpt>
   <trkpt lat="51.1670020" lon="5.7897830">
    <ele>34.0</ele>
    <time>2019-09-08T06:13:46Z</time>
   </trkpt>
   <trkpt lat="51.1670500" lon="5.7898560">
    <ele>33.9</ele>
    <time>2019-09-08T06:13:47Z</time>
   </trkpt>
   <trkpt lat="51.1671090" lon="5.7899260">
    <ele>33.8</ele>
    <time>2019-09-08T06:13:48Z</time>
   </trkpt>
   <trkpt lat="51.1671550" lon="5.7899940">
    <ele>33.6</ele>
    <time>2019-09-08T06:13:49Z</time>
   </trkpt>
   <trkpt lat="51.1672140" lon="5.7900600">
    <ele>33.5</ele>
    <time>2019-09-08T06:13:50Z</time>
   </trkpt>
   <trkpt lat="51.1672510" lon="5.7901260">
    <ele>33.3</ele>
    <time>2019-09-08T06:13:51Z</time>
   </trkpt>
   <trkpt lat="51.1673200" lon="5.7901700">
    <ele>33.1</ele>
    <time>2019-09-08T06:13:52Z</time>
   </trkpt>
   <trkpt lat="51.1673690" lon="5.7902300">
    <ele>33.0</ele>
    <time>2019-09-08T06:13:53Z</time>
   </trkpt>
   <trkpt lat="51.1674200" lon="5.7902810">
    <ele>32.8</ele>
    <time>2019-09-08T06:13:54Z</time>
   </trkpt>
   <trkpt lat="51.1674580" lon="5.7903330">
    <ele>32.7</ele>
    <time>2019-09-08T06:13:55Z</time>
   </trkpt>
   <trkpt lat="51.1675050" lon="5.7903950">
    <ele>32.5</ele>
    <time>2019-09-08T06:13:56Z</time>
   </trkpt>
   <trkpt lat="51.1675680" lon="5.7904530">
    <ele>32.2</ele>
    <time>2019-09-08T06:13:57Z</time>
   </trkpt>
   <trkpt lat="51.1676150" lon="5.7904990">
    <ele>32.1</ele>
    <time>2019-09-08T06:13:58Z</time>
   </trkpt>
   <trkpt lat="51.1676610" lon="5.7905550">
    <ele>31.9</ele>
    <time>2019-09-08T06:13:59Z</time>
   </trkpt>
   <trkpt lat="51.1677010" lon="5.7906080">
    <ele>31.7</ele>
    <time>2019-09-08T06:14:00Z</time>
   </trkpt>
   <trkpt lat="51.1677460" lon="5.7906560">
    <ele>31.6</ele>
    <time>2019-09-08T06:14:01Z</time>
   </trkpt>
   <trkpt lat="51.1677970" lon="5.7907050">
    <ele>31.4</ele>
    <time>2019-09-08T06:14:02Z</time>
   </trkpt>
   <trkpt lat="51.1678320" lon="5.7907540">
    <ele>31.3</ele>
    <time>2019-09-08T06:14:03Z</time>
   </trkpt>
   <trkpt lat="51.1678680" lon="5.7908030">
    <ele>31.2</ele>
    <time>2019-09-08T06:14:04Z</time>
   </trkpt>
   <trkpt lat="51.1679050" lon="5.7908500">
    <ele>31.2</ele>
    <time>2019-09-08T06:14:05Z</time>
   </trkpt>
   <trkpt lat="51.1679350" lon="5.7908980">
    <ele>31.1</ele>
    <time>2019-09-08T06:14:06Z</time>
   </trkpt>
   <trkpt lat="51.1679700" lon="5.7909450">
    <ele>30.9</ele>
    <time>2019-09-08T06:14:07Z</time>
   </trkpt>
   <trkpt lat="51.1679890" lon="5.7909990">
    <ele>30.7</ele>
    <time>2019-09-08T06:14:08Z</time>
   </trkpt>
   <trkpt lat="51.1680110" lon="5.7910510">
    <ele>30.5</ele>
    <time>2019-09-08T06:14:09Z</time>
   </trkpt>
   <trkpt lat="51.1680390" lon="5.7910950">
    <ele>30.4</ele>
    <time>2019-09-08T06:14:11Z</time>
   </trkpt>
   <trkpt lat="51.1680610" lon="5.7911210">
    <ele>30.3</ele>
    <time>2019-09-08T06:14:12Z</time>
   </trkpt>
   <trkpt lat="51.1680940" lon="5.7911290">
    <ele>30.2</ele>
    <time>2019-09-08T06:14:13Z</time>
   </trkpt>
   <trkpt lat="51.1681460" lon="5.7911130">
    <ele>30.1</ele>
    <time>2019-09-08T06:14:14Z</time>
   </trkpt>
   <trkpt lat="51.1681940" lon="5.7910810">
    <ele>30.1</ele>
    <time>2019-09-08T06:14:15Z</time>
   </trkpt>
   <trkpt lat="51.1682420" lon="5.7910440">
    <ele>30.1</ele>
    <time>2019-09-08T06:14:16Z</time>
   </trkpt>
   <trkpt lat="51.1683010" lon="5.7910100">
    <ele>30.1</ele>
    <time>2019-09-08T06:14:17Z</time>
   </trkpt>
   <trkpt lat="51.1683630" lon="5.7909940">
    <ele>30.1</ele>
    <time>2019-09-08T06:14:18Z</time>
   </trkpt>
   <trkpt lat="51.1684430" lon="5.7909820">
    <ele>30.1</ele>
    <time>2019-09-08T06:14:19Z</time>
   </trkpt>
   <trkpt lat="51.1685170" lon="5.7909580">
    <ele>30.1</ele>
    <time>2019-09-08T06:14:20Z</time>
   </trkpt>
   <trkpt lat="51.1685910" lon="5.7909540">
    <ele>30.1</ele>
    <time>2019-09-08T06:14:21Z</time>
   </trkpt>
   <trkpt lat="51.1686630" lon="5.7909540">
    <ele>30.0</ele>
    <time>2019-09-08T06:14:22Z</time>
   </trkpt>
   <trkpt lat="51.1687380" lon="5.7909620">
    <ele>30.0</ele>
    <time>2019-09-08T06:14:23Z</time>
   </trkpt>
   <trkpt lat="51.1688110" lon="5.7909670">
    <ele>29.9</ele>
    <time>2019-09-08T06:14:24Z</time>
   </trkpt>
   <trkpt lat="51.1688880" lon="5.7909600">
    <ele>29.8</ele>
    <time>2019-09-08T06:14:25Z</time>
   </trkpt>
   <trkpt lat="51.1689590" lon="5.7909650">
    <ele>29.6</ele>
    <time>2019-09-08T06:14:26Z</time>
   </trkpt>
   <trkpt lat="51.1690310" lon="5.7909650">
    <ele>29.4</ele>
    <time>2019-09-08T06:14:27Z</time>
   </trkpt>
   <trkpt lat="51.1691080" lon="5.7909540">
    <ele>29.2</ele>
    <time>2019-09-08T06:14:28Z</time>
   </trkpt>
   <trkpt lat="51.1691820" lon="5.7909630">
    <ele>29.0</ele>
    <time>2019-09-08T06:14:29Z</time>
   </trkpt>
   <trkpt lat="51.1692530" lon="5.7909610">
    <ele>28.7</ele>
    <time>2019-09-08T06:14:30Z</time>
   </trkpt>
   <trkpt lat="51.1693380" lon="5.7909640">
    <ele>28.4</ele>
    <time>2019-09-08T06:14:31Z</time>
   </trkpt>
   <trkpt lat="51.1694090" lon="5.7909660">
    <ele>28.4</ele>
    <time>2019-09-08T06:14:32Z</time>
   </trkpt>
   <trkpt lat="51.1694920" lon="5.7909710">
    <ele>28.5</ele>
    <time>2019-09-08T06:14:33Z</time>
   </trkpt>
   <trkpt lat="51.1695720" lon="5.7909770">
    <ele>28.6</ele>
    <time>2019-09-08T06:14:34Z</time>
   </trkpt>
   <trkpt lat="51.1696450" lon="5.7909880">
    <ele>28.6</ele>
    <time>2019-09-08T06:14:35Z</time>
   </trkpt>
   <trkpt lat="51.1697120" lon="5.7910000">
    <ele>28.6</ele>
    <time>2019-09-08T06:14:36Z</time>
   </trkpt>
   <trkpt lat="51.1697810" lon="5.7910090">
    <ele>28.7</ele>
    <time>2019-09-08T06:14:37Z</time>
   </trkpt>
   <trkpt lat="51.1698480" lon="5.7910220">
    <ele>28.7</ele>
    <time>2019-09-08T06:14:38Z</time>
   </trkpt>
   <trkpt lat="51.1699170" lon="5.7910270">
    <ele>28.7</ele>
    <time>2019-09-08T06:14:39Z</time>
   </trkpt>
   <trkpt lat="51.1699890" lon="5.7910350">
    <ele>28.7</ele>
    <time>2019-09-08T06:14:40Z</time>
   </trkpt>
   <trkpt lat="51.1700570" lon="5.7910430">
    <ele>28.8</ele>
    <time>2019-09-08T06:14:41Z</time>
   </trkpt>
   <trkpt lat="51.1701230" lon="5.7910460">
    <ele>28.8</ele>
    <time>2019-09-08T06:14:42Z</time>
   </trkpt>
   <trkpt lat="51.1701920" lon="5.7910470">
    <ele>28.9</ele>
    <time>2019-09-08T06:14:43Z</time>
   </trkpt>
   <trkpt lat="51.1702610" lon="5.7910380">
    <ele>28.9</ele>
    <time>2019-09-08T06:14:44Z</time>
   </trkpt>
   <trkpt lat="51.1703250" lon="5.7910380">
    <ele>29.0</ele>
    <time>2019-09-08T06:14:45Z</time>
   </trkpt>
   <trkpt lat="51.1703920" lon="5.7910400">
    <ele>29.1</ele>
    <time>2019-09-08T06:14:46Z</time>
   </trkpt>
   <trkpt lat="51.1704620" lon="5.7910390">
    <ele>29.2</ele>
    <time>2019-09-08T06:14:47Z</time>
   </trkpt>
   <trkpt lat="51.1705290" lon="5.7910380">
    <ele>29.3</ele>
    <time>2019-09-08T06:14:48Z</time>
   </trkpt>
   <trkpt lat="51.1706020" lon="5.7910460">
    <ele>29.4</ele>
    <time>2019-09-08T06:14:49Z</time>
   </trkpt>
   <trkpt lat="51.1706750" lon="5.7910570">
    <ele>29.4</ele>
    <time>2019-09-08T06:14:50Z</time>
   </trkpt>
   <trkpt lat="51.1707430" lon="5.7910600">
    <ele>29.5</ele>
    <time>2019-09-08T06:14:51Z</time>
   </trkpt>
   <trkpt lat="51.1708110" lon="5.7910750">
    <ele>29.6</ele>
    <time>2019-09-08T06:14:52Z</time>
   </trkpt>
   <trkpt lat="51.1708790" lon="5.7910790">
    <ele>29.6</ele>
    <time>2019-09-08T06:14:53Z</time>
   </trkpt>
   <trkpt lat="51.1709470" lon="5.7910830">
    <ele>29.7</ele>
    <time>2019-09-08T06:14:54Z</time>
   </trkpt>
   <trkpt lat="51.1710110" lon="5.7910850">
    <ele>29.7</ele>
    <time>2019-09-08T06:14:55Z</time>
   </trkpt>
   <trkpt lat="51.1710770" lon="5.7910920">
    <ele>29.7</ele>
    <time>2019-09-08T06:14:56Z</time>
   </trkpt>
   <trkpt lat="51.1711360" lon="5.7910900">
    <ele>29.7</ele>
    <time>2019-09-08T06:14:57Z</time>
   </trkpt>
   <trkpt lat="51.1712000" lon="5.7910790">
    <ele>29.8</ele>
    <time>2019-09-08T06:14:58Z</time>
   </trkpt>
   <trkpt lat="51.1712650" lon="5.7910830">
    <ele>29.8</ele>
    <time>2019-09-08T06:14:59Z</time>
   </trkpt>
   <trkpt lat="51.1713320" lon="5.7910850">
    <ele>29.8</ele>
    <time>2019-09-08T06:15:00Z</time>
   </trkpt>
   <trkpt lat="51.1713930" lon="5.7910780">
    <ele>29.8</ele>
    <time>2019-09-08T06:15:01Z</time>
   </trkpt>
   <trkpt lat="51.1714550" lon="5.7910820">
    <ele>29.8</ele>
    <time>2019-09-08T06:15:02Z</time>
   </trkpt>
   <trkpt lat="51.1715200" lon="5.7910830">
    <ele>29.7</ele>
    <time>2019-09-08T06:15:03Z</time>
   </trkpt>
   <trkpt lat="51.1715860" lon="5.7910830">
    <ele>29.7</ele>
    <time>2019-09-08T06:15:04Z</time>
   </trkpt>
   <trkpt lat="51.1716580" lon="5.7910800">
    <ele>29.7</ele>
    <time>2019-09-08T06:15:05Z</time>
   </trkpt>
   <trkpt lat="51.1717290" lon="5.7910710">
    <ele>29.7</ele>
    <time>2019-09-08T06:15:06Z</time>
   </trkpt>
   <trkpt lat="51.1717980" lon="5.7910640">
    <ele>29.7</ele>
    <time>2019-09-08T06:15:07Z</time>
   </trkpt>
   <trkpt lat="51.1718620" lon="5.7910580">
    <ele>29.6</ele>
    <time>2019-09-08T06:15:08Z</time>
   </trkpt>
   <trkpt lat="51.1719230" lon="5.7910450">
    <ele>29.6</ele>
    <time>2019-09-08T06:15:09Z</time>
   </trkpt>
   <trkpt lat="51.1719850" lon="5.7910430">
    <ele>29.6</ele>
    <time>2019-09-08T06:15:10Z</time>
   </trkpt>
   <trkpt lat="51.1720380" lon="5.7910310">
    <ele>29.6</ele>
    <time>2019-09-08T06:15:11Z</time>
   </trkpt>
   <trkpt lat="51.1720920" lon="5.7910270">
    <ele>29.5</ele>
    <time>2019-09-08T06:15:12Z</time>
   </trkpt>
   <trkpt lat="51.1721460" lon="5.7910190">
    <ele>29.5</ele>
    <time>2019-09-08T06:15:13Z</time>
   </trkpt>
   <trkpt lat="51.1721930" lon="5.7910120">
    <ele>29.5</ele>
    <time>2019-09-08T06:15:14Z</time>
   </trkpt>
   <trkpt lat="51.1722350" lon="5.7910000">
    <ele>29.4</ele>
    <time>2019-09-08T06:15:15Z</time>
   </trkpt>
   <trkpt lat="51.1722710" lon="5.7909840">
    <ele>29.4</ele>
    <time>2019-09-08T06:15:16Z</time>
   </trkpt>
   <trkpt lat="51.1723180" lon="5.7909760">
    <ele>29.4</ele>
    <time>2019-09-08T06:15:17Z</time>
   </trkpt>
   <trkpt lat="51.1723560" lon="5.7909700">
    <ele>29.4</ele>
    <time>2019-09-08T06:15:18Z</time>
   </trkpt>
   <trkpt lat="51.1723960" lon="5.7909680">
    <ele>29.4</ele>
    <time>2019-09-08T06:15:19Z</time>
   </trkpt>
   <trkpt lat="51.1724330" lon="5.7910010">
    <ele>29.3</ele>
    <time>2019-09-08T06:15:20Z</time>
   </trkpt>
   <trkpt lat="51.1724670" lon="5.7910600">
    <ele>29.3</ele>
    <time>2019-09-08T06:15:21Z</time>
   </trkpt>
   <trkpt lat="51.1725060" lon="5.7911330">
    <ele>29.3</ele>
    <time>2019-09-08T06:15:22Z</time>
   </trkpt>
   <trkpt lat="51.1725430" lon="5.7912090">
    <ele>29.2</ele>
    <time>2019-09-08T06:15:23Z</time>
   </trkpt>
   <trkpt lat="51.1725820" lon="5.7912930">
    <ele>29.2</ele>
    <time>2019-09-08T06:15:24Z</time>
   </trkpt>
   <trkpt lat="51.1726250" lon="5.7913840">
    <ele>29.1</ele>
    <time>2019-09-08T06:15:25Z</time>
   </trkpt>
   <trkpt lat="51.1726710" lon="5.7914790">
    <ele>29.0</ele>
    <time>2019-09-08T06:15:26Z</time>
   </trkpt>
   <trkpt lat="51.1727120" lon="5.7915640">
    <ele>29.0</ele>
    <time>2019-09-08T06:15:27Z</time>
   </trkpt>
   <trkpt lat="51.1727500" lon="5.7916460">
    <ele>28.9</ele>
    <time>2019-09-08T06:15:28Z</time>
   </trkpt>
   <trkpt lat="51.1727940" lon="5.7917280">
    <ele>28.9</ele>
    <time>2019-09-08T06:15:29Z</time>
   </trkpt>
   <trkpt lat="51.1728380" lon="5.7918150">
    <ele>28.8</ele>
    <time>2019-09-08T06:15:30Z</time>
   </trkpt>
   <trkpt lat="51.1728780" lon="5.7919050">
    <ele>28.8</ele>
    <time>2019-09-08T06:15:31Z</time>
   </trkpt>
   <trkpt lat="51.1729160" lon="5.7919960">
    <ele>28.7</ele>
    <time>2019-09-08T06:15:32Z</time>
   </trkpt>
   <trkpt lat="51.1729550" lon="5.7920810">
    <ele>28.7</ele>
    <time>2019-09-08T06:15:33Z</time>
   </trkpt>
   <trkpt lat="51.1729940" lon="5.7921670">
    <ele>28.6</ele>
    <time>2019-09-08T06:15:34Z</time>
   </trkpt>
   <trkpt lat="51.1730410" lon="5.7922530">
    <ele>28.6</ele>
    <time>2019-09-08T06:15:35Z</time>
   </trkpt>
   <trkpt lat="51.1730910" lon="5.7923350">
    <ele>28.5</ele>
    <time>2019-09-08T06:15:36Z</time>
   </trkpt>
   <trkpt lat="51.1731320" lon="5.7924170">
    <ele>28.5</ele>
    <time>2019-09-08T06:15:37Z</time>
   </trkpt>
   <trkpt lat="51.1731730" lon="5.7925080">
    <ele>28.5</ele>
    <time>2019-09-08T06:15:38Z</time>
   </trkpt>
   <trkpt lat="51.1732110" lon="5.7925900">
    <ele>28.5</ele>
    <time>2019-09-08T06:15:39Z</time>
   </trkpt>
   <trkpt lat="51.1732530" lon="5.7926760">
    <ele>28.4</ele>
    <time>2019-09-08T06:15:40Z</time>
   </trkpt>
   <trkpt lat="51.1732970" lon="5.7927670">
    <ele>28.4</ele>
    <time>2019-09-08T06:15:41Z</time>
   </trkpt>
   <trkpt lat="51.1733330" lon="5.7928630">
    <ele>28.4</ele>
    <time>2019-09-08T06:15:42Z</time>
   </trkpt>
   <trkpt lat="51.1733690" lon="5.7929560">
    <ele>28.4</ele>
    <time>2019-09-08T06:15:43Z</time>
   </trkpt>
   <trkpt lat="51.1734170" lon="5.7930510">
    <ele>28.4</ele>
    <time>2019-09-08T06:15:44Z</time>
   </trkpt>
   <trkpt lat="51.1734570" lon="5.7931350">
    <ele>28.4</ele>
    <time>2019-09-08T06:15:45Z</time>
   </trkpt>
   <trkpt lat="51.1735040" lon="5.7932320">
    <ele>28.4</ele>
    <time>2019-09-08T06:15:46Z</time>
   </trkpt>
   <trkpt lat="51.1735520" lon="5.7933090">
    <ele>28.4</ele>
    <time>2019-09-08T06:15:47Z</time>
   </trkpt>
   <trkpt lat="51.1736090" lon="5.7933970">
    <ele>28.5</ele>
    <time>2019-09-08T06:15:48Z</time>
   </trkpt>
   <trkpt lat="51.1736670" lon="5.7934610">
    <ele>28.5</ele>
    <time>2019-09-08T06:15:49Z</time>
   </trkpt>
   <trkpt lat="51.1737240" lon="5.7935250">
    <ele>28.5</ele>
    <time>2019-09-08T06:15:50Z</time>
   </trkpt>
   <trkpt lat="51.1737860" lon="5.7935850">
    <ele>28.6</ele>
    <time>2019-09-08T06:15:51Z</time>
   </trkpt>
   <trkpt lat="51.1738500" lon="5.7936480">
    <ele>28.6</ele>
    <time>2019-09-08T06:15:52Z</time>
   </trkpt>
   <trkpt lat="51.1739170" lon="5.7936930">
    <ele>28.6</ele>
    <time>2019-09-08T06:15:53Z</time>
   </trkpt>
   <trkpt lat="51.1739820" lon="5.7937430">
    <ele>28.6</ele>
    <time>2019-09-08T06:15:54Z</time>
   </trkpt>
   <trkpt lat="51.1740520" lon="5.7937970">
    <ele>28.7</ele>
    <time>2019-09-08T06:15:55Z</time>
   </trkpt>
   <trkpt lat="51.1741140" lon="5.7938340">
    <ele>28.7</ele>
    <time>2019-09-08T06:15:56Z</time>
   </trkpt>
   <trkpt lat="51.1741770" lon="5.7938800">
    <ele>28.7</ele>
    <time>2019-09-08T06:15:57Z</time>
   </trkpt>
   <trkpt lat="51.1742430" lon="5.7939210">
    <ele>28.8</ele>
    <time>2019-09-08T06:15:58Z</time>
   </trkpt>
   <trkpt lat="51.1743060" lon="5.7939610">
    <ele>28.8</ele>
    <time>2019-09-08T06:15:59Z</time>
   </trkpt>
   <trkpt lat="51.1743680" lon="5.7940000">
    <ele>28.8</ele>
    <time>2019-09-08T06:16:00Z</time>
   </trkpt>
   <trkpt lat="51.1744280" lon="5.7940460">
    <ele>28.8</ele>
    <time>2019-09-08T06:16:01Z</time>
   </trkpt>
   <trkpt lat="51.1744930" lon="5.7940840">
    <ele>28.8</ele>
    <time>2019-09-08T06:16:02Z</time>
   </trkpt>
   <trkpt lat="51.1745580" lon="5.7941300">
    <ele>28.9</ele>
    <time>2019-09-08T06:16:03Z</time>
   </trkpt>
   <trkpt lat="51.1746180" lon="5.7941700">
    <ele>28.9</ele>
    <time>2019-09-08T06:16:04Z</time>
   </trkpt>
   <trkpt lat="51.1746810" lon="5.7942090">
    <ele>28.9</ele>
    <time>2019-09-08T06:16:05Z</time>
   </trkpt>
   <trkpt lat="51.1747420" lon="5.7942480">
    <ele>29.0</ele>
    <time>2019-09-08T06:16:06Z</time>
   </trkpt>
   <trkpt lat="51.1748020" lon="5.7942800">
    <ele>29.0</ele>
    <time>2019-09-08T06:16:07Z</time>
   </trkpt>
   <trkpt lat="51.1748650" lon="5.7943190">
    <ele>29.0</ele>
    <time>2019-09-08T06:16:08Z</time>
   </trkpt>
   <trkpt lat="51.1749380" lon="5.7943480">
    <ele>29.0</ele>
    <time>2019-09-08T06:16:09Z</time>
   </trkpt>
   <trkpt lat="51.1750050" lon="5.7943820">
    <ele>28.9</ele>
    <time>2019-09-08T06:16:10Z</time>
   </trkpt>
   <trkpt lat="51.1750700" lon="5.7944220">
    <ele>28.8</ele>
    <time>2019-09-08T06:16:11Z</time>
   </trkpt>
   <trkpt lat="51.1751360" lon="5.7944610">
    <ele>28.8</ele>
    <time>2019-09-08T06:16:12Z</time>
   </trkpt>
   <trkpt lat="51.1752020" lon="5.7945040">
    <ele>28.8</ele>
    <time>2019-09-08T06:16:13Z</time>
   </trkpt>
   <trkpt lat="51.1752690" lon="5.7945490">
    <ele>28.8</ele>
    <time>2019-09-08T06:16:14Z</time>
   </trkpt>
   <trkpt lat="51.1753320" lon="5.7945920">
    <ele>28.8</ele>
    <time>2019-09-08T06:16:15Z</time>
   </trkpt>
   <trkpt lat="51.1753990" lon="5.7946390">
    <ele>28.8</ele>
    <time>2019-09-08T06:16:16Z</time>
   </trkpt>
   <trkpt lat="51.1754590" lon="5.7946770">
    <ele>28.8</ele>
    <time>2019-09-08T06:16:17Z</time>
   </trkpt>
   <trkpt lat="51.1755220" lon="5.7947210">
    <ele>28.7</ele>
    <time>2019-09-08T06:16:18Z</time>
   </trkpt>
   <trkpt lat="51.1755850" lon="5.7947590">
    <ele>28.7</ele>
    <time>2019-09-08T06:16:19Z</time>
   </trkpt>
   <trkpt lat="51.1756480" lon="5.7948040">
    <ele>28.7</ele>
    <time>2019-09-08T06:16:20Z</time>
   </trkpt>
   <trkpt lat="51.1757150" lon="5.7948450">
    <ele>28.7</ele>
    <time>2019-09-08T06:16:21Z</time>
   </trkpt>
   <trkpt lat="51.1757810" lon="5.7948880">
    <ele>28.7</ele>
    <time>2019-09-08T06:16:22Z</time>
   </trkpt>
   <trkpt lat="51.1758520" lon="5.7949390">
    <ele>28.7</ele>
    <time>2019-09-08T06:16:23Z</time>
   </trkpt>
   <trkpt lat="51.1759220" lon="5.7949770">
    <ele>28.6</ele>
    <time>2019-09-08T06:16:24Z</time>
   </trkpt>
   <trkpt lat="51.1759850" lon="5.7950100">
    <ele>28.6</ele>
    <time>2019-09-08T06:16:25Z</time>
   </trkpt>
   <trkpt lat="51.1760500" lon="5.7950570">
    <ele>28.6</ele>
    <time>2019-09-08T06:16:26Z</time>
   </trkpt>
   <trkpt lat="51.1761110" lon="5.7951020">
    <ele>28.6</ele>
    <time>2019-09-08T06:16:27Z</time>
   </trkpt>
   <trkpt lat="51.1761730" lon="5.7951480">
    <ele>28.6</ele>
    <time>2019-09-08T06:16:28Z</time>
   </trkpt>
   <trkpt lat="51.1762370" lon="5.7951940">
    <ele>28.6</ele>
    <time>2019-09-08T06:16:29Z</time>
   </trkpt>
   <trkpt lat="51.1763080" lon="5.7952340">
    <ele>28.6</ele>
    <time>2019-09-08T06:16:30Z</time>
   </trkpt>
   <trkpt lat="51.1763700" lon="5.7952810">
    <ele>28.6</ele>
    <time>2019-09-08T06:16:31Z</time>
   </trkpt>
   <trkpt lat="51.1764390" lon="5.7953270">
    <ele>28.6</ele>
    <time>2019-09-08T06:16:32Z</time>
   </trkpt>
   <trkpt lat="51.1764980" lon="5.7953690">
    <ele>28.6</ele>
    <time>2019-09-08T06:16:33Z</time>
   </trkpt>
   <trkpt lat="51.1765560" lon="5.7954260">
    <ele>28.6</ele>
    <time>2019-09-08T06:16:34Z</time>
   </trkpt>
   <trkpt lat="51.1766070" lon="5.7954900">
    <ele>28.6</ele>
    <time>2019-09-08T06:16:35Z</time>
   </trkpt>
   <trkpt lat="51.1766590" lon="5.7955570">
    <ele>28.6</ele>
    <time>2019-09-08T06:16:36Z</time>
   </trkpt>
   <trkpt lat="51.1767110" lon="5.7956320">
    <ele>28.6</ele>
    <time>2019-09-08T06:16:37Z</time>
   </trkpt>
   <trkpt lat="51.1767630" lon="5.7957040">
    <ele>28.5</ele>
    <time>2019-09-08T06:16:38Z</time>
   </trkpt>
   <trkpt lat="51.1768100" lon="5.7957860">
    <ele>28.5</ele>
    <time>2019-09-08T06:16:39Z</time>
   </trkpt>
   <trkpt lat="51.1768610" lon="5.7958660">
    <ele>28.5</ele>
    <time>2019-09-08T06:16:40Z</time>
   </trkpt>
   <trkpt lat="51.1769130" lon="5.7959340">
    <ele>28.5</ele>
    <time>2019-09-08T06:16:41Z</time>
   </trkpt>
   <trkpt lat="51.1769650" lon="5.7960100">
    <ele>28.5</ele>
    <time>2019-09-08T06:16:42Z</time>
   </trkpt>
   <trkpt lat="51.1770250" lon="5.7960930">
    <ele>28.4</ele>
    <time>2019-09-08T06:16:43Z</time>
   </trkpt>
   <trkpt lat="51.1771130" lon="5.7961930">
    <ele>28.4</ele>
    <time>2019-09-08T06:16:44Z</time>
   </trkpt>
   <trkpt lat="51.1771630" lon="5.7962580">
    <ele>28.4</ele>
    <time>2019-09-08T06:16:45Z</time>
   </trkpt>
   <trkpt lat="51.1772170" lon="5.7963300">
    <ele>28.4</ele>
    <time>2019-09-08T06:16:46Z</time>
   </trkpt>
   <trkpt lat="51.1772610" lon="5.7964010">
    <ele>28.4</ele>
    <time>2019-09-08T06:16:47Z</time>
   </trkpt>
   <trkpt lat="51.1773130" lon="5.7964750">
    <ele>28.4</ele>
    <time>2019-09-08T06:16:48Z</time>
   </trkpt>
   <trkpt lat="51.1773590" lon="5.7965350">
    <ele>28.4</ele>
    <time>2019-09-08T06:16:49Z</time>
   </trkpt>
   <trkpt lat="51.1774090" lon="5.7966060">
    <ele>28.4</ele>
    <time>2019-09-08T06:16:50Z</time>
   </trkpt>
   <trkpt lat="51.1775660" lon="5.7968290">
    <ele>28.3</ele>
    <time>2019-09-08T06:16:53Z</time>
   </trkpt>
   <trkpt lat="51.1776120" lon="5.7969050">
    <ele>28.3</ele>
    <time>2019-09-08T06:16:54Z</time>
   </trkpt>
   <trkpt lat="51.1776590" lon="5.7969810">
    <ele>28.3</ele>
    <time>2019-09-08T06:16:55Z</time>
   </trkpt>
   <trkpt lat="51.1777080" lon="5.7970530">
    <ele>28.3</ele>
    <time>2019-09-08T06:16:56Z</time>
   </trkpt>
   <trkpt lat="51.1777570" lon="5.7971200">
    <ele>28.3</ele>
    <time>2019-09-08T06:16:57Z</time>
   </trkpt>
   <trkpt lat="51.1778010" lon="5.7971980">
    <ele>28.3</ele>
    <time>2019-09-08T06:16:58Z</time>
   </trkpt>
   <trkpt lat="51.1778560" lon="5.7972660">
    <ele>28.3</ele>
    <time>2019-09-08T06:16:59Z</time>
   </trkpt>
   <trkpt lat="51.1779050" lon="5.7973350">
    <ele>28.3</ele>
    <time>2019-09-08T06:17:00Z</time>
   </trkpt>
   <trkpt lat="51.1779490" lon="5.7974140">
    <ele>28.3</ele>
    <time>2019-09-08T06:17:01Z</time>
   </trkpt>
   <trkpt lat="51.1779940" lon="5.7974940">
    <ele>28.3</ele>
    <time>2019-09-08T06:17:02Z</time>
   </trkpt>
   <trkpt lat="51.1780380" lon="5.7975780">
    <ele>28.3</ele>
    <time>2019-09-08T06:17:03Z</time>
   </trkpt>
   <trkpt lat="51.1780810" lon="5.7976600">
    <ele>28.3</ele>
    <time>2019-09-08T06:17:04Z</time>
   </trkpt>
   <trkpt lat="51.1781300" lon="5.7977420">
    <ele>28.3</ele>
    <time>2019-09-08T06:17:05Z</time>
   </trkpt>
   <trkpt lat="51.1781740" lon="5.7978300">
    <ele>28.3</ele>
    <time>2019-09-08T06:17:06Z</time>
   </trkpt>
   <trkpt lat="51.1782210" lon="5.7979190">
    <ele>28.3</ele>
    <time>2019-09-08T06:17:07Z</time>
   </trkpt>
   <trkpt lat="51.1782590" lon="5.7980020">
    <ele>28.3</ele>
    <time>2019-09-08T06:17:08Z</time>
   </trkpt>
   <trkpt lat="51.1783070" lon="5.7980810">
    <ele>28.3</ele>
    <time>2019-09-08T06:17:09Z</time>
   </trkpt>
   <trkpt lat="51.1783570" lon="5.7981600">
    <ele>28.3</ele>
    <time>2019-09-08T06:17:10Z</time>
   </trkpt>
   <trkpt lat="51.1784070" lon="5.7982300">
    <ele>28.3</ele>
    <time>2019-09-08T06:17:11Z</time>
   </trkpt>
   <trkpt lat="51.1784660" lon="5.7983010">
    <ele>28.3</ele>
    <time>2019-09-08T06:17:12Z</time>
   </trkpt>
   <trkpt lat="51.1785250" lon="5.7983670">
    <ele>28.2</ele>
    <time>2019-09-08T06:17:13Z</time>
   </trkpt>
   <trkpt lat="51.1785880" lon="5.7984380">
    <ele>28.2</ele>
    <time>2019-09-08T06:17:14Z</time>
   </trkpt>
   <trkpt lat="51.1786420" lon="5.7985000">
    <ele>28.2</ele>
    <time>2019-09-08T06:17:15Z</time>
   </trkpt>
   <trkpt lat="51.1787050" lon="5.7985670">
    <ele>28.1</ele>
    <time>2019-09-08T06:17:16Z</time>
   </trkpt>
   <trkpt lat="51.1787660" lon="5.7986310">
    <ele>28.1</ele>
    <time>2019-09-08T06:17:17Z</time>
   </trkpt>
   <trkpt lat="51.1788370" lon="5.7987050">
    <ele>28.0</ele>
    <time>2019-09-08T06:17:18Z</time>
   </trkpt>
   <trkpt lat="51.1788940" lon="5.7987700">
    <ele>28.0</ele>
    <time>2019-09-08T06:17:19Z</time>
   </trkpt>
   <trkpt lat="51.1789480" lon="5.7988420">
    <ele>27.8</ele>
    <time>2019-09-08T06:17:20Z</time>
   </trkpt>
   <trkpt lat="51.1790060" lon="5.7989070">
    <ele>27.7</ele>
    <time>2019-09-08T06:17:21Z</time>
   </trkpt>
   <trkpt lat="51.1790620" lon="5.7989760">
    <ele>27.5</ele>
    <time>2019-09-08T06:17:22Z</time>
   </trkpt>
   <trkpt lat="51.1791190" lon="5.7990460">
    <ele>27.5</ele>
    <time>2019-09-08T06:17:23Z</time>
   </trkpt>
   <trkpt lat="51.1791690" lon="5.7991120">
    <ele>27.5</ele>
    <time>2019-09-08T06:17:24Z</time>
   </trkpt>
   <trkpt lat="51.1792200" lon="5.7991840">
    <ele>27.5</ele>
    <time>2019-09-08T06:17:25Z</time>
   </trkpt>
   <trkpt lat="51.1792740" lon="5.7992540">
    <ele>27.5</ele>
    <time>2019-09-08T06:17:26Z</time>
   </trkpt>
   <trkpt lat="51.1793290" lon="5.7993250">
    <ele>27.5</ele>
    <time>2019-09-08T06:17:27Z</time>
   </trkpt>
   <trkpt lat="51.1793830" lon="5.7993960">
    <ele>27.5</ele>
    <time>2019-09-08T06:17:28Z</time>
   </trkpt>
   <trkpt lat="51.1794360" lon="5.7994700">
    <ele>27.5</ele>
    <time>2019-09-08T06:17:29Z</time>
   </trkpt>
   <trkpt lat="51.1794850" lon="5.7995370">
    <ele>27.5</ele>
    <time>2019-09-08T06:17:30Z</time>
   </trkpt>
   <trkpt lat="51.1795370" lon="5.7996060">
    <ele>27.5</ele>
    <time>2019-09-08T06:17:31Z</time>
   </trkpt>
   <trkpt lat="51.1796010" lon="5.7996850">
    <ele>27.5</ele>
    <time>2019-09-08T06:17:32Z</time>
   </trkpt>
   <trkpt lat="51.1796500" lon="5.7997560">
    <ele>27.5</ele>
    <time>2019-09-08T06:17:33Z</time>
   </trkpt>
   <trkpt lat="51.1797220" lon="5.7998340">
    <ele>27.5</ele>
    <time>2019-09-08T06:17:34Z</time>
   </trkpt>
   <trkpt lat="51.1797710" lon="5.7999110">
    <ele>27.5</ele>
    <time>2019-09-08T06:17:35Z</time>
   </trkpt>
   <trkpt lat="51.1798250" lon="5.7999860">
    <ele>27.5</ele>
    <time>2019-09-08T06:17:36Z</time>
   </trkpt>
   <trkpt lat="51.1798790" lon="5.8000640">
    <ele>27.5</ele>
    <time>2019-09-08T06:17:37Z</time>
   </trkpt>
   <trkpt lat="51.1799290" lon="5.8001350">
    <ele>27.5</ele>
    <time>2019-09-08T06:17:38Z</time>
   </trkpt>
   <trkpt lat="51.1799830" lon="5.8002110">
    <ele>27.5</ele>
    <time>2019-09-08T06:17:39Z</time>
   </trkpt>
   <trkpt lat="51.1800350" lon="5.8002930">
    <ele>27.5</ele>
    <time>2019-09-08T06:17:40Z</time>
   </trkpt>
   <trkpt lat="51.1800890" lon="5.8003730">
    <ele>27.5</ele>
    <time>2019-09-08T06:17:41Z</time>
   </trkpt>
   <trkpt lat="51.1801470" lon="5.8004500">
    <ele>27.5</ele>
    <time>2019-09-08T06:17:42Z</time>
   </trkpt>
   <trkpt lat="51.1801950" lon="5.8005280">
    <ele>27.5</ele>
    <time>2019-09-08T06:17:43Z</time>
   </trkpt>
   <trkpt lat="51.1802430" lon="5.8006020">
    <ele>27.5</ele>
    <time>2019-09-08T06:17:44Z</time>
   </trkpt>
   <trkpt lat="51.1802920" lon="5.8006790">
    <ele>27.5</ele>
    <time>2019-09-08T06:17:45Z</time>
   </trkpt>
   <trkpt lat="51.1803420" lon="5.8007600">
    <ele>27.5</ele>
    <time>2019-09-08T06:17:46Z</time>
   </trkpt>
   <trkpt lat="51.1803850" lon="5.8008410">
    <ele>27.5</ele>
    <time>2019-09-08T06:17:47Z</time>
   </trkpt>
   <trkpt lat="51.1804320" lon="5.8009220">
    <ele>27.5</ele>
    <time>2019-09-08T06:17:48Z</time>
   </trkpt>
   <trkpt lat="51.1804730" lon="5.8010060">
    <ele>27.5</ele>
    <time>2019-09-08T06:17:49Z</time>
   </trkpt>
   <trkpt lat="51.1805240" lon="5.8010920">
    <ele>27.5</ele>
    <time>2019-09-08T06:17:50Z</time>
   </trkpt>
   <trkpt lat="51.1805660" lon="5.8011800">
    <ele>27.5</ele>
    <time>2019-09-08T06:17:51Z</time>
   </trkpt>
   <trkpt lat="51.1806060" lon="5.8012750">
    <ele>27.5</ele>
    <time>2019-09-08T06:17:52Z</time>
   </trkpt>
   <trkpt lat="51.1806510" lon="5.8013610">
    <ele>27.5</ele>
    <time>2019-09-08T06:17:53Z</time>
   </trkpt>
   <trkpt lat="51.1806920" lon="5.8014550">
    <ele>27.5</ele>
    <time>2019-09-08T06:17:54Z</time>
   </trkpt>
   <trkpt lat="51.1807330" lon="5.8015540">
    <ele>27.5</ele>
    <time>2019-09-08T06:17:55Z</time>
   </trkpt>
   <trkpt lat="51.1807780" lon="5.8016510">
    <ele>27.5</ele>
    <time>2019-09-08T06:17:56Z</time>
   </trkpt>
   <trkpt lat="51.1808210" lon="5.8017380">
    <ele>27.6</ele>
    <time>2019-09-08T06:17:57Z</time>
   </trkpt>
   <trkpt lat="51.1808630" lon="5.8018240">
    <ele>27.6</ele>
    <time>2019-09-08T06:17:58Z</time>
   </trkpt>
   <trkpt lat="51.1809060" lon="5.8019100">
    <ele>27.6</ele>
    <time>2019-09-08T06:17:59Z</time>
   </trkpt>
   <trkpt lat="51.1809520" lon="5.8019960">
    <ele>27.6</ele>
    <time>2019-09-08T06:18:00Z</time>
   </trkpt>
   <trkpt lat="51.1810030" lon="5.8020690">
    <ele>27.6</ele>
    <time>2019-09-08T06:18:01Z</time>
   </trkpt>
   <trkpt lat="51.1810560" lon="5.8021600">
    <ele>27.6</ele>
    <time>2019-09-08T06:18:02Z</time>
   </trkpt>
   <trkpt lat="51.1811000" lon="5.8022330">
    <ele>27.6</ele>
    <time>2019-09-08T06:18:03Z</time>
   </trkpt>
   <trkpt lat="51.1811460" lon="5.8023100">
    <ele>27.6</ele>
    <time>2019-09-08T06:18:04Z</time>
   </trkpt>
   <trkpt lat="51.1811890" lon="5.8024010">
    <ele>27.6</ele>
    <time>2019-09-08T06:18:05Z</time>
   </trkpt>
   <trkpt lat="51.1812330" lon="5.8024800">
    <ele>27.6</ele>
    <time>2019-09-08T06:18:06Z</time>
   </trkpt>
   <trkpt lat="51.1812750" lon="5.8025640">
    <ele>27.6</ele>
    <time>2019-09-08T06:18:07Z</time>
   </trkpt>
   <trkpt lat="51.1813170" lon="5.8026470">
    <ele>27.6</ele>
    <time>2019-09-08T06:18:08Z</time>
   </trkpt>
   <trkpt lat="51.1813580" lon="5.8027180">
    <ele>27.6</ele>
    <time>2019-09-08T06:18:09Z</time>
   </trkpt>
   <trkpt lat="51.1814110" lon="5.8028080">
    <ele>27.6</ele>
    <time>2019-09-08T06:18:10Z</time>
   </trkpt>
   <trkpt lat="51.1814530" lon="5.8028950">
    <ele>27.6</ele>
    <time>2019-09-08T06:18:11Z</time>
   </trkpt>
   <trkpt lat="51.1814970" lon="5.8029790">
    <ele>27.6</ele>
    <time>2019-09-08T06:18:12Z</time>
   </trkpt>
   <trkpt lat="51.1815410" lon="5.8030750">
    <ele>27.6</ele>
    <time>2019-09-08T06:18:13Z</time>
   </trkpt>
   <trkpt lat="51.1815780" lon="5.8031680">
    <ele>27.6</ele>
    <time>2019-09-08T06:18:14Z</time>
   </trkpt>
   <trkpt lat="51.1816190" lon="5.8032580">
    <ele>27.6</ele>
    <time>2019-09-08T06:18:15Z</time>
   </trkpt>
   <trkpt lat="51.1816640" lon="5.8033520">
    <ele>27.6</ele>
    <time>2019-09-08T06:18:16Z</time>
   </trkpt>
   <trkpt lat="51.1817070" lon="5.8034330">
    <ele>27.6</ele>
    <time>2019-09-08T06:18:17Z</time>
   </trkpt>
   <trkpt lat="51.1817450" lon="5.8035280">
    <ele>27.6</ele>
    <time>2019-09-08T06:18:18Z</time>
   </trkpt>
   <trkpt lat="51.1817820" lon="5.8036110">
    <ele>27.6</ele>
    <time>2019-09-08T06:18:19Z</time>
   </trkpt>
   <trkpt lat="51.1818180" lon="5.8037020">
    <ele>27.6</ele>
    <time>2019-09-08T06:18:20Z</time>
   </trkpt>
   <trkpt lat="51.1818520" lon="5.8038020">
    <ele>27.6</ele>
    <time>2019-09-08T06:18:21Z</time>
   </trkpt>
   <trkpt lat="51.1818840" lon="5.8039040">
    <ele>27.6</ele>
    <time>2019-09-08T06:18:22Z</time>
   </trkpt>
   <trkpt lat="51.1819180" lon="5.8040000">
    <ele>27.6</ele>
    <time>2019-09-08T06:18:23Z</time>
   </trkpt>
   <trkpt lat="51.1819470" lon="5.8040910">
    <ele>27.6</ele>
    <time>2019-09-08T06:18:24Z</time>
   </trkpt>
   <trkpt lat="51.1819840" lon="5.8041890">
    <ele>27.6</ele>
    <time>2019-09-08T06:18:25Z</time>
   </trkpt>
   <trkpt lat="51.1820230" lon="5.8042920">
    <ele>27.6</ele>
    <time>2019-09-08T06:18:26Z</time>
   </trkpt>
   <trkpt lat="51.1820600" lon="5.8043840">
    <ele>27.6</ele>
    <time>2019-09-08T06:18:27Z</time>
   </trkpt>
   <trkpt lat="51.1820950" lon="5.8044720">
    <ele>27.6</ele>
    <time>2019-09-08T06:18:28Z</time>
   </trkpt>
   <trkpt lat="51.1821350" lon="5.8045580">
    <ele>27.6</ele>
    <time>2019-09-08T06:18:29Z</time>
   </trkpt>
   <trkpt lat="51.1821760" lon="5.8046540">
    <ele>27.6</ele>
    <time>2019-09-08T06:18:30Z</time>
   </trkpt>
   <trkpt lat="51.1822010" lon="5.8047570">
    <ele>27.7</ele>
    <time>2019-09-08T06:18:31Z</time>
   </trkpt>
   <trkpt lat="51.1822360" lon="5.8048450">
    <ele>27.7</ele>
    <time>2019-09-08T06:18:32Z</time>
   </trkpt>
   <trkpt lat="51.1822680" lon="5.8049340">
    <ele>27.7</ele>
    <time>2019-09-08T06:18:33Z</time>
   </trkpt>
   <trkpt lat="51.1823030" lon="5.8050250">
    <ele>27.7</ele>
    <time>2019-09-08T06:18:34Z</time>
   </trkpt>
   <trkpt lat="51.1823400" lon="5.8051200">
    <ele>27.7</ele>
    <time>2019-09-08T06:18:35Z</time>
   </trkpt>
   <trkpt lat="51.1823760" lon="5.8052110">
    <ele>27.7</ele>
    <time>2019-09-08T06:18:36Z</time>
   </trkpt>
   <trkpt lat="51.1824180" lon="5.8053060">
    <ele>27.7</ele>
    <time>2019-09-08T06:18:37Z</time>
   </trkpt>
   <trkpt lat="51.1824550" lon="5.8053920">
    <ele>27.7</ele>
    <time>2019-09-08T06:18:38Z</time>
   </trkpt>
   <trkpt lat="51.1824930" lon="5.8054830">
    <ele>27.7</ele>
    <time>2019-09-08T06:18:39Z</time>
   </trkpt>
   <trkpt lat="51.1825230" lon="5.8055740">
    <ele>27.7</ele>
    <time>2019-09-08T06:18:40Z</time>
   </trkpt>
   <trkpt lat="51.1825580" lon="5.8056690">
    <ele>27.7</ele>
    <time>2019-09-08T06:18:41Z</time>
   </trkpt>
   <trkpt lat="51.1825890" lon="5.8057610">
    <ele>27.7</ele>
    <time>2019-09-08T06:18:42Z</time>
   </trkpt>
   <trkpt lat="51.1826240" lon="5.8058620">
    <ele>27.7</ele>
    <time>2019-09-08T06:18:43Z</time>
   </trkpt>
   <trkpt lat="51.1826620" lon="5.8059520">
    <ele>27.7</ele>
    <time>2019-09-08T06:18:44Z</time>
   </trkpt>
   <trkpt lat="51.1826950" lon="5.8060440">
    <ele>27.7</ele>
    <time>2019-09-08T06:18:45Z</time>
   </trkpt>
   <trkpt lat="51.1827290" lon="5.8061430">
    <ele>27.7</ele>
    <time>2019-09-08T06:18:46Z</time>
   </trkpt>
   <trkpt lat="51.1827650" lon="5.8062490">
    <ele>27.7</ele>
    <time>2019-09-08T06:18:47Z</time>
   </trkpt>
   <trkpt lat="51.1827980" lon="5.8063410">
    <ele>27.7</ele>
    <time>2019-09-08T06:18:48Z</time>
   </trkpt>
   <trkpt lat="51.1828310" lon="5.8064340">
    <ele>27.7</ele>
    <time>2019-09-08T06:18:49Z</time>
   </trkpt>
   <trkpt lat="51.1828690" lon="5.8065310">
    <ele>27.7</ele>
    <time>2019-09-08T06:18:50Z</time>
   </trkpt>
   <trkpt lat="51.1829050" lon="5.8066310">
    <ele>27.7</ele>
    <time>2019-09-08T06:18:51Z</time>
   </trkpt>
   <trkpt lat="51.1829360" lon="5.8067210">
    <ele>27.7</ele>
    <time>2019-09-08T06:18:52Z</time>
   </trkpt>
   <trkpt lat="51.1829610" lon="5.8068300">
    <ele>27.7</ele>
    <time>2019-09-08T06:18:53Z</time>
   </trkpt>
   <trkpt lat="51.1829910" lon="5.8069500">
    <ele>27.7</ele>
    <time>2019-09-08T06:18:54Z</time>
   </trkpt>
   <trkpt lat="51.1830120" lon="5.8070560">
    <ele>27.7</ele>
    <time>2019-09-08T06:18:55Z</time>
   </trkpt>
   <trkpt lat="51.1830340" lon="5.8071580">
    <ele>27.7</ele>
    <time>2019-09-08T06:18:56Z</time>
   </trkpt>
   <trkpt lat="51.1830440" lon="5.8072730">
    <ele>27.7</ele>
    <time>2019-09-08T06:18:57Z</time>
   </trkpt>
   <trkpt lat="51.1830550" lon="5.8073840">
    <ele>27.7</ele>
    <time>2019-09-08T06:18:58Z</time>
   </trkpt>
   <trkpt lat="51.1830630" lon="5.8074980">
    <ele>27.7</ele>
    <time>2019-09-08T06:18:59Z</time>
   </trkpt>
   <trkpt lat="51.1830740" lon="5.8076060">
    <ele>27.7</ele>
    <time>2019-09-08T06:19:00Z</time>
   </trkpt>
   <trkpt lat="51.1830830" lon="5.8077180">
    <ele>27.7</ele>
    <time>2019-09-08T06:19:01Z</time>
   </trkpt>
   <trkpt lat="51.1830830" lon="5.8078310">
    <ele>27.7</ele>
    <time>2019-09-08T06:19:02Z</time>
   </trkpt>
   <trkpt lat="51.1830850" lon="5.8079600">
    <ele>27.7</ele>
    <time>2019-09-08T06:19:03Z</time>
   </trkpt>
   <trkpt lat="51.1830900" lon="5.8080600">
    <ele>27.7</ele>
    <time>2019-09-08T06:19:04Z</time>
   </trkpt>
   <trkpt lat="51.1830940" lon="5.8081710">
    <ele>27.7</ele>
    <time>2019-09-08T06:19:05Z</time>
   </trkpt>
   <trkpt lat="51.1831000" lon="5.8082720">
    <ele>27.8</ele>
    <time>2019-09-08T06:19:06Z</time>
   </trkpt>
   <trkpt lat="51.1831030" lon="5.8083800">
    <ele>27.8</ele>
    <time>2019-09-08T06:19:07Z</time>
   </trkpt>
   <trkpt lat="51.1831080" lon="5.8084850">
    <ele>27.8</ele>
    <time>2019-09-08T06:19:08Z</time>
   </trkpt>
   <trkpt lat="51.1831120" lon="5.8085880">
    <ele>27.8</ele>
    <time>2019-09-08T06:19:09Z</time>
   </trkpt>
   <trkpt lat="51.1831080" lon="5.8086960">
    <ele>27.8</ele>
    <time>2019-09-08T06:19:10Z</time>
   </trkpt>
   <trkpt lat="51.1830980" lon="5.8088030">
    <ele>27.8</ele>
    <time>2019-09-08T06:19:11Z</time>
   </trkpt>
   <trkpt lat="51.1830810" lon="5.8089180">
    <ele>27.8</ele>
    <time>2019-09-08T06:19:12Z</time>
   </trkpt>
   <trkpt lat="51.1830730" lon="5.8090270">
    <ele>27.8</ele>
    <time>2019-09-08T06:19:13Z</time>
   </trkpt>
   <trkpt lat="51.1830720" lon="5.8091410">
    <ele>27.8</ele>
    <time>2019-09-08T06:19:14Z</time>
   </trkpt>
   <trkpt lat="51.1830630" lon="5.8092560">
    <ele>27.8</ele>
    <time>2019-09-08T06:19:15Z</time>
   </trkpt>
   <trkpt lat="51.1830650" lon="5.8093590">
    <ele>27.8</ele>
    <time>2019-09-08T06:19:16Z</time>
   </trkpt>
   <trkpt lat="51.1830650" lon="5.8094740">
    <ele>27.8</ele>
    <time>2019-09-08T06:19:17Z</time>
   </trkpt>
   <trkpt lat="51.1830660" lon="5.8095840">
    <ele>27.8</ele>
    <time>2019-09-08T06:19:18Z</time>
   </trkpt>
   <trkpt lat="51.1830710" lon="5.8096780">
    <ele>27.8</ele>
    <time>2019-09-08T06:19:19Z</time>
   </trkpt>
   <trkpt lat="51.1830810" lon="5.8097790">
    <ele>27.8</ele>
    <time>2019-09-08T06:19:20Z</time>
   </trkpt>
   <trkpt lat="51.1830990" lon="5.8098850">
    <ele>27.8</ele>
    <time>2019-09-08T06:19:21Z</time>
   </trkpt>
   <trkpt lat="51.1831170" lon="5.8099800">
    <ele>27.8</ele>
    <time>2019-09-08T06:19:22Z</time>
   </trkpt>
   <trkpt lat="51.1831380" lon="5.8100840">
    <ele>27.8</ele>
    <time>2019-09-08T06:19:23Z</time>
   </trkpt>
   <trkpt lat="51.1831570" lon="5.8101840">
    <ele>27.8</ele>
    <time>2019-09-08T06:19:24Z</time>
   </trkpt>
   <trkpt lat="51.1831960" lon="5.8102980">
    <ele>27.8</ele>
    <time>2019-09-08T06:19:25Z</time>
   </trkpt>
   <trkpt lat="51.1832150" lon="5.8104390">
    <ele>27.8</ele>
    <time>2019-09-08T06:19:26Z</time>
   </trkpt>
   <trkpt lat="51.1832300" lon="5.8105480">
    <ele>27.8</ele>
    <time>2019-09-08T06:19:27Z</time>
   </trkpt>
   <trkpt lat="51.1832380" lon="5.8106530">
    <ele>27.8</ele>
    <time>2019-09-08T06:19:28Z</time>
   </trkpt>
   <trkpt lat="51.1832510" lon="5.8107530">
    <ele>27.8</ele>
    <time>2019-09-08T06:19:29Z</time>
   </trkpt>
   <trkpt lat="51.1832680" lon="5.8108500">
    <ele>27.8</ele>
    <time>2019-09-08T06:19:30Z</time>
   </trkpt>
   <trkpt lat="51.1832770" lon="5.8109650">
    <ele>27.8</ele>
    <time>2019-09-08T06:19:31Z</time>
   </trkpt>
   <trkpt lat="51.1833010" lon="5.8110810">
    <ele>27.8</ele>
    <time>2019-09-08T06:19:32Z</time>
   </trkpt>
   <trkpt lat="51.1833160" lon="5.8111870">
    <ele>27.8</ele>
    <time>2019-09-08T06:19:33Z</time>
   </trkpt>
   <trkpt lat="51.1833260" lon="5.8112930">
    <ele>27.8</ele>
    <time>2019-09-08T06:19:34Z</time>
   </trkpt>
   <trkpt lat="51.1833390" lon="5.8114020">
    <ele>27.9</ele>
    <time>2019-09-08T06:19:35Z</time>
   </trkpt>
   <trkpt lat="51.1833490" lon="5.8115310">
    <ele>27.9</ele>
    <time>2019-09-08T06:19:36Z</time>
   </trkpt>
   <trkpt lat="51.1833630" lon="5.8116340">
    <ele>27.9</ele>
    <time>2019-09-08T06:19:37Z</time>
   </trkpt>
   <trkpt lat="51.1833670" lon="5.8117480">
    <ele>28.0</ele>
    <time>2019-09-08T06:19:38Z</time>
   </trkpt>
   <trkpt lat="51.1833890" lon="5.8118590">
    <ele>28.0</ele>
    <time>2019-09-08T06:19:39Z</time>
   </trkpt>
   <trkpt lat="51.1833930" lon="5.8119830">
    <ele>28.1</ele>
    <time>2019-09-08T06:19:40Z</time>
   </trkpt>
   <trkpt lat="51.1834040" lon="5.8120930">
    <ele>28.3</ele>
    <time>2019-09-08T06:19:41Z</time>
   </trkpt>
   <trkpt lat="51.1834110" lon="5.8122200">
    <ele>28.4</ele>
    <time>2019-09-08T06:19:42Z</time>
   </trkpt>
   <trkpt lat="51.1834240" lon="5.8123330">
    <ele>28.5</ele>
    <time>2019-09-08T06:19:43Z</time>
   </trkpt>
   <trkpt lat="51.1834380" lon="5.8124290">
    <ele>28.5</ele>
    <time>2019-09-08T06:19:44Z</time>
   </trkpt>
   <trkpt lat="51.1834530" lon="5.8125340">
    <ele>28.6</ele>
    <time>2019-09-08T06:19:45Z</time>
   </trkpt>
   <trkpt lat="51.1834630" lon="5.8126460">
    <ele>28.7</ele>
    <time>2019-09-08T06:19:46Z</time>
   </trkpt>
   <trkpt lat="51.1834790" lon="5.8127410">
    <ele>28.8</ele>
    <time>2019-09-08T06:19:47Z</time>
   </trkpt>
   <trkpt lat="51.1834890" lon="5.8128400">
    <ele>28.8</ele>
    <time>2019-09-08T06:19:48Z</time>
   </trkpt>
   <trkpt lat="51.1834930" lon="5.8129340">
    <ele>28.8</ele>
    <time>2019-09-08T06:19:49Z</time>
   </trkpt>
   <trkpt lat="51.1835030" lon="5.8129990">
    <ele>28.8</ele>
    <time>2019-09-08T06:19:50Z</time>
   </trkpt>
   <trkpt lat="51.1835320" lon="5.8131100">
    <ele>28.9</ele>
    <time>2019-09-08T06:19:51Z</time>
   </trkpt>
   <trkpt lat="51.1835390" lon="5.8131900">
    <ele>28.9</ele>
    <time>2019-09-08T06:19:52Z</time>
   </trkpt>
   <trkpt lat="51.1835500" lon="5.8132780">
    <ele>28.9</ele>
    <time>2019-09-08T06:19:53Z</time>
   </trkpt>
   <trkpt lat="51.1835640" lon="5.8133640">
    <ele>28.9</ele>
    <time>2019-09-08T06:19:54Z</time>
   </trkpt>
   <trkpt lat="51.1835830" lon="5.8134370">
    <ele>28.9</ele>
    <time>2019-09-08T06:19:55Z</time>
   </trkpt>
   <trkpt lat="51.1835980" lon="5.8135180">
    <ele>28.9</ele>
    <time>2019-09-08T06:19:56Z</time>
   </trkpt>
   <trkpt lat="51.1836240" lon="5.8135710">
    <ele>28.9</ele>
    <time>2019-09-08T06:19:57Z</time>
   </trkpt>
   <trkpt lat="51.1836660" lon="5.8136230">
    <ele>28.9</ele>
    <time>2019-09-08T06:19:58Z</time>
   </trkpt>
   <trkpt lat="51.1837130" lon="5.8136180">
    <ele>28.8</ele>
    <time>2019-09-08T06:19:59Z</time>
   </trkpt>
   <trkpt lat="51.1837640" lon="5.8136100">
    <ele>28.8</ele>
    <time>2019-09-08T06:20:00Z</time>
   </trkpt>
   <trkpt lat="51.1838280" lon="5.8135970">
    <ele>28.7</ele>
    <time>2019-09-08T06:20:01Z</time>
   </trkpt>
   <trkpt lat="51.1838890" lon="5.8135520">
    <ele>28.7</ele>
    <time>2019-09-08T06:20:02Z</time>
   </trkpt>
   <trkpt lat="51.1839500" lon="5.8135140">
    <ele>28.6</ele>
    <time>2019-09-08T06:20:03Z</time>
   </trkpt>
   <trkpt lat="51.1840170" lon="5.8134690">
    <ele>28.6</ele>
    <time>2019-09-08T06:20:04Z</time>
   </trkpt>
   <trkpt lat="51.1840750" lon="5.8134360">
    <ele>28.5</ele>
    <time>2019-09-08T06:20:05Z</time>
   </trkpt>
   <trkpt lat="51.1841390" lon="5.8134000">
    <ele>28.5</ele>
    <time>2019-09-08T06:20:06Z</time>
   </trkpt>
   <trkpt lat="51.1842090" lon="5.8133710">
    <ele>28.5</ele>
    <time>2019-09-08T06:20:07Z</time>
   </trkpt>
   <trkpt lat="51.1842740" lon="5.8133610">
    <ele>28.5</ele>
    <time>2019-09-08T06:20:08Z</time>
   </trkpt>
   <trkpt lat="51.1843440" lon="5.8133550">
    <ele>28.5</ele>
    <time>2019-09-08T06:20:09Z</time>
   </trkpt>
   <trkpt lat="51.1844150" lon="5.8133460">
    <ele>28.5</ele>
    <time>2019-09-08T06:20:10Z</time>
   </trkpt>
   <trkpt lat="51.1844830" lon="5.8133400">
    <ele>28.5</ele>
    <time>2019-09-08T06:20:11Z</time>
   </trkpt>
   <trkpt lat="51.1845530" lon="5.8133320">
    <ele>28.5</ele>
    <time>2019-09-08T06:20:12Z</time>
   </trkpt>
   <trkpt lat="51.1846230" lon="5.8133210">
    <ele>28.5</ele>
    <time>2019-09-08T06:20:13Z</time>
   </trkpt>
   <trkpt lat="51.1846970" lon="5.8133090">
    <ele>28.6</ele>
    <time>2019-09-08T06:20:14Z</time>
   </trkpt>
   <trkpt lat="51.1847670" lon="5.8132990">
    <ele>28.6</ele>
    <time>2019-09-08T06:20:15Z</time>
   </trkpt>
   <trkpt lat="51.1848350" lon="5.8132910">
    <ele>28.6</ele>
    <time>2019-09-08T06:20:16Z</time>
   </trkpt>
   <trkpt lat="51.1849030" lon="5.8132800">
    <ele>28.6</ele>
    <time>2019-09-08T06:20:17Z</time>
   </trkpt>
   <trkpt lat="51.1849770" lon="5.8132700">
    <ele>28.6</ele>
    <time>2019-09-08T06:20:18Z</time>
   </trkpt>
   <trkpt lat="51.1850450" lon="5.8132570">
    <ele>28.6</ele>
    <time>2019-09-08T06:20:19Z</time>
   </trkpt>
   <trkpt lat="51.1851140" lon="5.8132450">
    <ele>28.6</ele>
    <time>2019-09-08T06:20:20Z</time>
   </trkpt>
   <trkpt lat="51.1851830" lon="5.8132350">
    <ele>28.6</ele>
    <time>2019-09-08T06:20:21Z</time>
   </trkpt>
   <trkpt lat="51.1852550" lon="5.8132160">
    <ele>28.6</ele>
    <time>2019-09-08T06:20:22Z</time>
   </trkpt>
   <trkpt lat="51.1853250" lon="5.8132120">
    <ele>28.6</ele>
    <time>2019-09-08T06:20:23Z</time>
   </trkpt>
   <trkpt lat="51.1853920" lon="5.8131950">
    <ele>28.7</ele>
    <time>2019-09-08T06:20:24Z</time>
   </trkpt>
   <trkpt lat="51.1854560" lon="5.8131880">
    <ele>28.7</ele>
    <time>2019-09-08T06:20:25Z</time>
   </trkpt>
   <trkpt lat="51.1855200" lon="5.8131800">
    <ele>28.7</ele>
    <time>2019-09-08T06:20:26Z</time>
   </trkpt>
   <trkpt lat="51.1855860" lon="5.8131680">
    <ele>28.7</ele>
    <time>2019-09-08T06:20:27Z</time>
   </trkpt>
   <trkpt lat="51.1856490" lon="5.8131570">
    <ele>28.7</ele>
    <time>2019-09-08T06:20:28Z</time>
   </trkpt>
   <trkpt lat="51.1857210" lon="5.8131380">
    <ele>28.7</ele>
    <time>2019-09-08T06:20:29Z</time>
   </trkpt>
   <trkpt lat="51.1857920" lon="5.8131210">
    <ele>28.7</ele>
    <time>2019-09-08T06:20:30Z</time>
   </trkpt>
   <trkpt lat="51.1858670" lon="5.8130960">
    <ele>28.7</ele>
    <time>2019-09-08T06:20:31Z</time>
   </trkpt>
   <trkpt lat="51.1859410" lon="5.8130880">
    <ele>28.7</ele>
    <time>2019-09-08T06:20:32Z</time>
   </trkpt>
   <trkpt lat="51.1860140" lon="5.8130710">
    <ele>28.7</ele>
    <time>2019-09-08T06:20:33Z</time>
   </trkpt>
   <trkpt lat="51.1860820" lon="5.8130590">
    <ele>28.7</ele>
    <time>2019-09-08T06:20:34Z</time>
   </trkpt>
   <trkpt lat="51.1861540" lon="5.8130420">
    <ele>28.7</ele>
    <time>2019-09-08T06:20:35Z</time>
   </trkpt>
   <trkpt lat="51.1862250" lon="5.8130320">
    <ele>28.7</ele>
    <time>2019-09-08T06:20:36Z</time>
   </trkpt>
   <trkpt lat="51.1862920" lon="5.8130250">
    <ele>28.7</ele>
    <time>2019-09-08T06:20:37Z</time>
   </trkpt>
   <trkpt lat="51.1863640" lon="5.8130190">
    <ele>28.7</ele>
    <time>2019-09-08T06:20:38Z</time>
   </trkpt>
   <trkpt lat="51.1864380" lon="5.8130140">
    <ele>28.7</ele>
    <time>2019-09-08T06:20:39Z</time>
   </trkpt>
   <trkpt lat="51.1865000" lon="5.8130020">
    <ele>28.7</ele>
    <time>2019-09-08T06:20:40Z</time>
   </trkpt>
   <trkpt lat="51.1865630" lon="5.8129940">
    <ele>28.7</ele>
    <time>2019-09-08T06:20:41Z</time>
   </trkpt>
   <trkpt lat="51.1866260" lon="5.8129770">
    <ele>28.7</ele>
    <time>2019-09-08T06:20:42Z</time>
   </trkpt>
   <trkpt lat="51.1866930" lon="5.8129650">
    <ele>28.7</ele>
    <time>2019-09-08T06:20:43Z</time>
   </trkpt>
   <trkpt lat="51.1867570" lon="5.8129420">
    <ele>28.7</ele>
    <time>2019-09-08T06:20:44Z</time>
   </trkpt>
   <trkpt lat="51.1868140" lon="5.8129010">
    <ele>28.7</ele>
    <time>2019-09-08T06:20:45Z</time>
   </trkpt>
   <trkpt lat="51.1868630" lon="5.8128380">
    <ele>28.7</ele>
    <time>2019-09-08T06:20:46Z</time>
   </trkpt>
   <trkpt lat="51.1869120" lon="5.8127670">
    <ele>28.8</ele>
    <time>2019-09-08T06:20:47Z</time>
   </trkpt>
   <trkpt lat="51.1869550" lon="5.8126880">
    <ele>29.0</ele>
    <time>2019-09-08T06:20:48Z</time>
   </trkpt>
   <trkpt lat="51.1870000" lon="5.8126030">
    <ele>29.1</ele>
    <time>2019-09-08T06:20:49Z</time>
   </trkpt>
   <trkpt lat="51.1870460" lon="5.8125190">
    <ele>29.3</ele>
    <time>2019-09-08T06:20:50Z</time>
   </trkpt>
   <trkpt lat="51.1870950" lon="5.8124400">
    <ele>29.5</ele>
    <time>2019-09-08T06:20:51Z</time>
   </trkpt>
   <trkpt lat="51.1871380" lon="5.8123600">
    <ele>29.6</ele>
    <time>2019-09-08T06:20:52Z</time>
   </trkpt>
   <trkpt lat="51.1871800" lon="5.8122830">
    <ele>29.7</ele>
    <time>2019-09-08T06:20:53Z</time>
   </trkpt>
   <trkpt lat="51.1872280" lon="5.8122080">
    <ele>29.9</ele>
    <time>2019-09-08T06:20:54Z</time>
   </trkpt>
   <trkpt lat="51.1872790" lon="5.8121500">
    <ele>30.0</ele>
    <time>2019-09-08T06:20:55Z</time>
   </trkpt>
   <trkpt lat="51.1873400" lon="5.8121120">
    <ele>30.1</ele>
    <time>2019-09-08T06:20:56Z</time>
   </trkpt>
   <trkpt lat="51.1874120" lon="5.8120780">
    <ele>30.2</ele>
    <time>2019-09-08T06:20:57Z</time>
   </trkpt>
   <trkpt lat="51.1874800" lon="5.8120600">
    <ele>30.2</ele>
    <time>2019-09-08T06:20:58Z</time>
   </trkpt>
   <trkpt lat="51.1875430" lon="5.8120560">
    <ele>30.3</ele>
    <time>2019-09-08T06:20:59Z</time>
   </trkpt>
   <trkpt lat="51.1876150" lon="5.8120500">
    <ele>30.3</ele>
    <time>2019-09-08T06:21:00Z</time>
   </trkpt>
   <trkpt lat="51.1876820" lon="5.8120410">
    <ele>30.3</ele>
    <time>2019-09-08T06:21:01Z</time>
   </trkpt>
   <trkpt lat="51.1877470" lon="5.8120370">
    <ele>30.3</ele>
    <time>2019-09-08T06:21:02Z</time>
   </trkpt>
   <trkpt lat="51.1878050" lon="5.8120330">
    <ele>30.3</ele>
    <time>2019-09-08T06:21:03Z</time>
   </trkpt>
   <trkpt lat="51.1878500" lon="5.8120390">
    <ele>30.3</ele>
    <time>2019-09-08T06:21:04Z</time>
   </trkpt>
   <trkpt lat="51.1879020" lon="5.8120320">
    <ele>30.3</ele>
    <time>2019-09-08T06:21:05Z</time>
   </trkpt>
   <trkpt lat="51.1879550" lon="5.8120340">
    <ele>30.3</ele>
    <time>2019-09-08T06:21:06Z</time>
   </trkpt>
   <trkpt lat="51.1880080" lon="5.8120460">
    <ele>30.3</ele>
    <time>2019-09-08T06:21:07Z</time>
   </trkpt>
   <trkpt lat="51.1880560" lon="5.8120590">
    <ele>30.2</ele>
    <time>2019-09-08T06:21:08Z</time>
   </trkpt>
   <trkpt lat="51.1881010" lon="5.8120710">
    <ele>30.2</ele>
    <time>2019-09-08T06:21:09Z</time>
   </trkpt>
   <trkpt lat="51.1881630" lon="5.8120660">
    <ele>30.2</ele>
    <time>2019-09-08T06:21:10Z</time>
   </trkpt>
   <trkpt lat="51.1882140" lon="5.8120280">
    <ele>30.2</ele>
    <time>2019-09-08T06:21:11Z</time>
   </trkpt>
   <trkpt lat="51.1882460" lon="5.8119710">
    <ele>30.1</ele>
    <time>2019-09-08T06:21:12Z</time>
   </trkpt>
   <trkpt lat="51.1882530" lon="5.8118850">
    <ele>30.1</ele>
    <time>2019-09-08T06:21:13Z</time>
   </trkpt>
   <trkpt lat="51.1882770" lon="5.8117970">
    <ele>30.0</ele>
    <time>2019-09-08T06:21:14Z</time>
   </trkpt>
   <trkpt lat="51.1883090" lon="5.8116750">
    <ele>29.9</ele>
    <time>2019-09-08T06:21:15Z</time>
   </trkpt>
   <trkpt lat="51.1883390" lon="5.8115660">
    <ele>29.8</ele>
    <time>2019-09-08T06:21:16Z</time>
   </trkpt>
   <trkpt lat="51.1883620" lon="5.8114710">
    <ele>29.8</ele>
    <time>2019-09-08T06:21:17Z</time>
   </trkpt>
   <trkpt lat="51.1884000" lon="5.8113700">
    <ele>29.7</ele>
    <time>2019-09-08T06:21:18Z</time>
   </trkpt>
   <trkpt lat="51.1884370" lon="5.8112810">
    <ele>29.6</ele>
    <time>2019-09-08T06:21:19Z</time>
   </trkpt>
   <trkpt lat="51.1884750" lon="5.8111820">
    <ele>29.5</ele>
    <time>2019-09-08T06:21:20Z</time>
   </trkpt>
   <trkpt lat="51.1885310" lon="5.8110510">
    <ele>29.4</ele>
    <time>2019-09-08T06:21:21Z</time>
   </trkpt>
   <trkpt lat="51.1885560" lon="5.8109550">
    <ele>29.4</ele>
    <time>2019-09-08T06:21:22Z</time>
   </trkpt>
   <trkpt lat="51.1885930" lon="5.8108560">
    <ele>29.3</ele>
    <time>2019-09-08T06:21:23Z</time>
   </trkpt>
   <trkpt lat="51.1886170" lon="5.8107660">
    <ele>29.3</ele>
    <time>2019-09-08T06:21:24Z</time>
   </trkpt>
   <trkpt lat="51.1886520" lon="5.8106680">
    <ele>29.2</ele>
    <time>2019-09-08T06:21:25Z</time>
   </trkpt>
   <trkpt lat="51.1886900" lon="5.8105680">
    <ele>29.1</ele>
    <time>2019-09-08T06:21:26Z</time>
   </trkpt>
   <trkpt lat="51.1887240" lon="5.8104700">
    <ele>29.2</ele>
    <time>2019-09-08T06:21:27Z</time>
   </trkpt>
   <trkpt lat="51.1887580" lon="5.8103770">
    <ele>29.3</ele>
    <time>2019-09-08T06:21:28Z</time>
   </trkpt>
   <trkpt lat="51.1887920" lon="5.8102740">
    <ele>29.4</ele>
    <time>2019-09-08T06:21:29Z</time>
   </trkpt>
   <trkpt lat="51.1888280" lon="5.8101840">
    <ele>29.5</ele>
    <time>2019-09-08T06:21:30Z</time>
   </trkpt>
   <trkpt lat="51.1888640" lon="5.8100960">
    <ele>29.5</ele>
    <time>2019-09-08T06:21:31Z</time>
   </trkpt>
   <trkpt lat="51.1889030" lon="5.8099960">
    <ele>29.6</ele>
    <time>2019-09-08T06:21:32Z</time>
   </trkpt>
   <trkpt lat="51.1889360" lon="5.8099120">
    <ele>29.7</ele>
    <time>2019-09-08T06:21:33Z</time>
   </trkpt>
   <trkpt lat="51.1889640" lon="5.8098290">
    <ele>29.8</ele>
    <time>2019-09-08T06:21:34Z</time>
   </trkpt>
   <trkpt lat="51.1889930" lon="5.8097520">
    <ele>29.8</ele>
    <time>2019-09-08T06:21:35Z</time>
   </trkpt>
   <trkpt lat="51.1890170" lon="5.8096790">
    <ele>29.9</ele>
    <time>2019-09-08T06:21:36Z</time>
   </trkpt>
   <trkpt lat="51.1890430" lon="5.8096050">
    <ele>30.0</ele>
    <time>2019-09-08T06:21:37Z</time>
   </trkpt>
   <trkpt lat="51.1890610" lon="5.8095340">
    <ele>30.1</ele>
    <time>2019-09-08T06:21:38Z</time>
   </trkpt>
   <trkpt lat="51.1890850" lon="5.8094700">
    <ele>30.2</ele>
    <time>2019-09-08T06:21:39Z</time>
   </trkpt>
   <trkpt lat="51.1891100" lon="5.8094130">
    <ele>30.3</ele>
    <time>2019-09-08T06:21:40Z</time>
   </trkpt>
   <trkpt lat="51.1891350" lon="5.8093490">
    <ele>30.4</ele>
    <time>2019-09-08T06:21:41Z</time>
   </trkpt>
   <trkpt lat="51.1891510" lon="5.8092810">
    <ele>30.5</ele>
    <time>2019-09-08T06:21:42Z</time>
   </trkpt>
   <trkpt lat="51.1891520" lon="5.8091990">
    <ele>30.6</ele>
    <time>2019-09-08T06:21:43Z</time>
   </trkpt>
   <trkpt lat="51.1891460" lon="5.8091090">
    <ele>30.5</ele>
    <time>2019-09-08T06:21:44Z</time>
   </trkpt>
   <trkpt lat="51.1891040" lon="5.8090470">
    <ele>30.4</ele>
    <time>2019-09-08T06:21:45Z</time>
   </trkpt>
   <trkpt lat="51.1890690" lon="5.8089690">
    <ele>30.4</ele>
    <time>2019-09-08T06:21:46Z</time>
   </trkpt>
   <trkpt lat="51.1890300" lon="5.8088900">
    <ele>30.4</ele>
    <time>2019-09-08T06:21:47Z</time>
   </trkpt>
   <trkpt lat="51.1889850" lon="5.8088100">
    <ele>30.3</ele>
    <time>2019-09-08T06:21:48Z</time>
   </trkpt>
   <trkpt lat="51.1889400" lon="5.8087250">
    <ele>30.3</ele>
    <time>2019-09-08T06:21:49Z</time>
   </trkpt>
   <trkpt lat="51.1888910" lon="5.8086440">
    <ele>30.2</ele>
    <time>2019-09-08T06:21:50Z</time>
   </trkpt>
   <trkpt lat="51.1888440" lon="5.8085660">
    <ele>30.0</ele>
    <time>2019-09-08T06:21:51Z</time>
   </trkpt>
   <trkpt lat="51.1887950" lon="5.8084820">
    <ele>29.8</ele>
    <time>2019-09-08T06:21:52Z</time>
   </trkpt>
   <trkpt lat="51.1887420" lon="5.8084140">
    <ele>29.7</ele>
    <time>2019-09-08T06:21:53Z</time>
   </trkpt>
   <trkpt lat="51.1886940" lon="5.8083410">
    <ele>29.6</ele>
    <time>2019-09-08T06:21:54Z</time>
   </trkpt>
   <trkpt lat="51.1886430" lon="5.8082660">
    <ele>29.6</ele>
    <time>2019-09-08T06:21:55Z</time>
   </trkpt>
   <trkpt lat="51.1885970" lon="5.8081810">
    <ele>29.6</ele>
    <time>2019-09-08T06:21:56Z</time>
   </trkpt>
   <trkpt lat="51.1885450" lon="5.8081060">
    <ele>29.6</ele>
    <time>2019-09-08T06:21:57Z</time>
   </trkpt>
   <trkpt lat="51.1884860" lon="5.8080260">
    <ele>29.7</ele>
    <time>2019-09-08T06:21:58Z</time>
   </trkpt>
   <trkpt lat="51.1884370" lon="5.8079540">
    <ele>29.7</ele>
    <time>2019-09-08T06:21:59Z</time>
   </trkpt>
   <trkpt lat="51.1883910" lon="5.8078810">
    <ele>29.6</ele>
    <time>2019-09-08T06:22:00Z</time>
   </trkpt>
   <trkpt lat="51.1883370" lon="5.8078020">
    <ele>29.5</ele>
    <time>2019-09-08T06:22:01Z</time>
   </trkpt>
   <trkpt lat="51.1882850" lon="5.8077370">
    <ele>29.3</ele>
    <time>2019-09-08T06:22:02Z</time>
   </trkpt>
   <trkpt lat="51.1882300" lon="5.8076610">
    <ele>29.1</ele>
    <time>2019-09-08T06:22:03Z</time>
   </trkpt>
   <trkpt lat="51.1881820" lon="5.8075830">
    <ele>28.9</ele>
    <time>2019-09-08T06:22:04Z</time>
   </trkpt>
   <trkpt lat="51.1881300" lon="5.8075050">
    <ele>28.8</ele>
    <time>2019-09-08T06:22:05Z</time>
   </trkpt>
   <trkpt lat="51.1880800" lon="5.8074180">
    <ele>28.7</ele>
    <time>2019-09-08T06:22:06Z</time>
   </trkpt>
   <trkpt lat="51.1880330" lon="5.8073430">
    <ele>28.6</ele>
    <time>2019-09-08T06:22:07Z</time>
   </trkpt>
   <trkpt lat="51.1879900" lon="5.8072600">
    <ele>28.6</ele>
    <time>2019-09-08T06:22:08Z</time>
   </trkpt>
   <trkpt lat="51.1879430" lon="5.8071820">
    <ele>28.5</ele>
    <time>2019-09-08T06:22:09Z</time>
   </trkpt>
   <trkpt lat="51.1878950" lon="5.8070980">
    <ele>28.5</ele>
    <time>2019-09-08T06:22:10Z</time>
   </trkpt>
   <trkpt lat="51.1878450" lon="5.8070030">
    <ele>28.4</ele>
    <time>2019-09-08T06:22:11Z</time>
   </trkpt>
   <trkpt lat="51.1877990" lon="5.8069190">
    <ele>28.4</ele>
    <time>2019-09-08T06:22:12Z</time>
   </trkpt>
   <trkpt lat="51.1877530" lon="5.8068270">
    <ele>28.3</ele>
    <time>2019-09-08T06:22:13Z</time>
   </trkpt>
   <trkpt lat="51.1877130" lon="5.8067390">
    <ele>28.3</ele>
    <time>2019-09-08T06:22:14Z</time>
   </trkpt>
   <trkpt lat="51.1876730" lon="5.8066550">
    <ele>28.2</ele>
    <time>2019-09-08T06:22:15Z</time>
   </trkpt>
   <trkpt lat="51.1876390" lon="5.8065430">
    <ele>28.1</ele>
    <time>2019-09-08T06:22:16Z</time>
   </trkpt>
   <trkpt lat="51.1876030" lon="5.8064600">
    <ele>28.0</ele>
    <time>2019-09-08T06:22:17Z</time>
   </trkpt>
   <trkpt lat="51.1875650" lon="5.8063650">
    <ele>28.0</ele>
    <time>2019-09-08T06:22:18Z</time>
   </trkpt>
   <trkpt lat="51.1875230" lon="5.8062620">
    <ele>27.9</ele>
    <time>2019-09-08T06:22:19Z</time>
   </trkpt>
   <trkpt lat="51.1874920" lon="5.8061750">
    <ele>27.9</ele>
    <time>2019-09-08T06:22:20Z</time>
   </trkpt>
   <trkpt lat="51.1874610" lon="5.8060870">
    <ele>27.9</ele>
    <time>2019-09-08T06:22:21Z</time>
   </trkpt>
   <trkpt lat="51.1874270" lon="5.8059870">
    <ele>27.9</ele>
    <time>2019-09-08T06:22:22Z</time>
   </trkpt>
   <trkpt lat="51.1873900" lon="5.8058950">
    <ele>27.9</ele>
    <time>2019-09-08T06:22:23Z</time>
   </trkpt>
   <trkpt lat="51.1873580" lon="5.8058060">
    <ele>27.9</ele>
    <time>2019-09-08T06:22:24Z</time>
   </trkpt>
   <trkpt lat="51.1873280" lon="5.8057120">
    <ele>27.9</ele>
    <time>2019-09-08T06:22:25Z</time>
   </trkpt>
   <trkpt lat="51.1872990" lon="5.8055920">
    <ele>28.0</ele>
    <time>2019-09-08T06:22:26Z</time>
   </trkpt>
   <trkpt lat="51.1872740" lon="5.8054940">
    <ele>28.1</ele>
    <time>2019-09-08T06:22:27Z</time>
   </trkpt>
   <trkpt lat="51.1872470" lon="5.8053930">
    <ele>28.1</ele>
    <time>2019-09-08T06:22:28Z</time>
   </trkpt>
   <trkpt lat="51.1872240" lon="5.8053070">
    <ele>28.1</ele>
    <time>2019-09-08T06:22:29Z</time>
   </trkpt>
   <trkpt lat="51.1872000" lon="5.8052140">
    <ele>28.1</ele>
    <time>2019-09-08T06:22:30Z</time>
   </trkpt>
   <trkpt lat="51.1871820" lon="5.8051210">
    <ele>28.1</ele>
    <time>2019-09-08T06:22:31Z</time>
   </trkpt>
   <trkpt lat="51.1871550" lon="5.8050230">
    <ele>28.1</ele>
    <time>2019-09-08T06:22:32Z</time>
   </trkpt>
   <trkpt lat="51.1871360" lon="5.8049150">
    <ele>28.5</ele>
    <time>2019-09-08T06:22:33Z</time>
   </trkpt>
   <trkpt lat="51.1871160" lon="5.8048070">
    <ele>28.6</ele>
    <time>2019-09-08T06:22:34Z</time>
   </trkpt>
   <trkpt lat="51.1870920" lon="5.8046970">
    <ele>28.7</ele>
    <time>2019-09-08T06:22:35Z</time>
   </trkpt>
   <trkpt lat="51.1870790" lon="5.8045880">
    <ele>28.8</ele>
    <time>2019-09-08T06:22:36Z</time>
   </trkpt>
   <trkpt lat="51.1870600" lon="5.8044780">
    <ele>28.9</ele>
    <time>2019-09-08T06:22:37Z</time>
   </trkpt>
   <trkpt lat="51.1870420" lon="5.8043690">
    <ele>29.1</ele>
    <time>2019-09-08T06:22:38Z</time>
   </trkpt>
   <trkpt lat="51.1870290" lon="5.8042590">
    <ele>29.1</ele>
    <time>2019-09-08T06:22:39Z</time>
   </trkpt>
   <trkpt lat="51.1870090" lon="5.8041600">
    <ele>29.1</ele>
    <time>2019-09-08T06:22:40Z</time>
   </trkpt>
   <trkpt lat="51.1869970" lon="5.8040520">
    <ele>29.1</ele>
    <time>2019-09-08T06:22:41Z</time>
   </trkpt>
   <trkpt lat="51.1869790" lon="5.8039500">
    <ele>29.1</ele>
    <time>2019-09-08T06:22:42Z</time>
   </trkpt>
   <trkpt lat="51.1869580" lon="5.8038470">
    <ele>29.1</ele>
    <time>2019-09-08T06:22:43Z</time>
   </trkpt>
   <trkpt lat="51.1869350" lon="5.8037500">
    <ele>29.1</ele>
    <time>2019-09-08T06:22:44Z</time>
   </trkpt>
   <trkpt lat="51.1869160" lon="5.8036460">
    <ele>29.1</ele>
    <time>2019-09-08T06:22:45Z</time>
   </trkpt>
   <trkpt lat="51.1868930" lon="5.8035410">
    <ele>29.1</ele>
    <time>2019-09-08T06:22:46Z</time>
   </trkpt>
   <trkpt lat="51.1868720" lon="5.8034530">
    <ele>29.1</ele>
    <time>2019-09-08T06:22:47Z</time>
   </trkpt>
   <trkpt lat="51.1868530" lon="5.8033550">
    <ele>29.1</ele>
    <time>2019-09-08T06:22:48Z</time>
   </trkpt>
   <trkpt lat="51.1868420" lon="5.8032400">
    <ele>29.1</ele>
    <time>2019-09-08T06:22:49Z</time>
   </trkpt>
   <trkpt lat="51.1868210" lon="5.8031320">
    <ele>29.1</ele>
    <time>2019-09-08T06:22:50Z</time>
   </trkpt>
   <trkpt lat="51.1867960" lon="5.8030350">
    <ele>29.1</ele>
    <time>2019-09-08T06:22:51Z</time>
   </trkpt>
   <trkpt lat="51.1867740" lon="5.8029360">
    <ele>29.0</ele>
    <time>2019-09-08T06:22:52Z</time>
   </trkpt>
   <trkpt lat="51.1867490" lon="5.8028360">
    <ele>29.0</ele>
    <time>2019-09-08T06:22:53Z</time>
   </trkpt>
   <trkpt lat="51.1867160" lon="5.8027350">
    <ele>29.0</ele>
    <time>2019-09-08T06:22:54Z</time>
   </trkpt>
   <trkpt lat="51.1866820" lon="5.8026450">
    <ele>29.0</ele>
    <time>2019-09-08T06:22:55Z</time>
   </trkpt>
   <trkpt lat="51.1866410" lon="5.8025530">
    <ele>29.0</ele>
    <time>2019-09-08T06:22:56Z</time>
   </trkpt>
   <trkpt lat="51.1866010" lon="5.8024590">
    <ele>29.0</ele>
    <time>2019-09-08T06:22:57Z</time>
   </trkpt>
   <trkpt lat="51.1865560" lon="5.8023760">
    <ele>29.0</ele>
    <time>2019-09-08T06:22:58Z</time>
   </trkpt>
   <trkpt lat="51.1865120" lon="5.8022990">
    <ele>28.9</ele>
    <time>2019-09-08T06:22:59Z</time>
   </trkpt>
   <trkpt lat="51.1864640" lon="5.8022190">
    <ele>28.9</ele>
    <time>2019-09-08T06:23:00Z</time>
   </trkpt>
   <trkpt lat="51.1864210" lon="5.8021330">
    <ele>28.9</ele>
    <time>2019-09-08T06:23:01Z</time>
   </trkpt>
   <trkpt lat="51.1863740" lon="5.8020500">
    <ele>28.9</ele>
    <time>2019-09-08T06:23:02Z</time>
   </trkpt>
   <trkpt lat="51.1863280" lon="5.8019610">
    <ele>28.9</ele>
    <time>2019-09-08T06:23:03Z</time>
   </trkpt>
   <trkpt lat="51.1862850" lon="5.8018750">
    <ele>28.9</ele>
    <time>2019-09-08T06:23:04Z</time>
   </trkpt>
   <trkpt lat="51.1862390" lon="5.8017960">
    <ele>28.9</ele>
    <time>2019-09-08T06:23:05Z</time>
   </trkpt>
   <trkpt lat="51.1861920" lon="5.8017140">
    <ele>28.9</ele>
    <time>2019-09-08T06:23:06Z</time>
   </trkpt>
   <trkpt lat="51.1861500" lon="5.8016290">
    <ele>28.9</ele>
    <time>2019-09-08T06:23:07Z</time>
   </trkpt>
   <trkpt lat="51.1861060" lon="5.8015600">
    <ele>28.9</ele>
    <time>2019-09-08T06:23:08Z</time>
   </trkpt>
   <trkpt lat="51.1860620" lon="5.8014910">
    <ele>28.9</ele>
    <time>2019-09-08T06:23:09Z</time>
   </trkpt>
   <trkpt lat="51.1860190" lon="5.8013900">
    <ele>28.9</ele>
    <time>2019-09-08T06:23:10Z</time>
   </trkpt>
   <trkpt lat="51.1859910" lon="5.8012930">
    <ele>28.9</ele>
    <time>2019-09-08T06:23:11Z</time>
   </trkpt>
   <trkpt lat="51.1859600" lon="5.8011940">
    <ele>28.9</ele>
    <time>2019-09-08T06:23:12Z</time>
   </trkpt>
   <trkpt lat="51.1859370" lon="5.8010970">
    <ele>28.9</ele>
    <time>2019-09-08T06:23:13Z</time>
   </trkpt>
   <trkpt lat="51.1859240" lon="5.8009800">
    <ele>28.9</ele>
    <time>2019-09-08T06:23:14Z</time>
   </trkpt>
   <trkpt lat="51.1859200" lon="5.8008750">
    <ele>28.9</ele>
    <time>2019-09-08T06:23:15Z</time>
   </trkpt>
   <trkpt lat="51.1859210" lon="5.8007560">
    <ele>28.9</ele>
    <time>2019-09-08T06:23:16Z</time>
   </trkpt>
   <trkpt lat="51.1859290" lon="5.8006410">
    <ele>28.9</ele>
    <time>2019-09-08T06:23:17Z</time>
   </trkpt>
   <trkpt lat="51.1859390" lon="5.8005350">
    <ele>28.9</ele>
    <time>2019-09-08T06:23:18Z</time>
   </trkpt>
   <trkpt lat="51.1859470" lon="5.8004200">
    <ele>28.9</ele>
    <time>2019-09-08T06:23:19Z</time>
   </trkpt>
   <trkpt lat="51.1859590" lon="5.8003150">
    <ele>28.9</ele>
    <time>2019-09-08T06:23:20Z</time>
   </trkpt>
   <trkpt lat="51.1859660" lon="5.8002070">
    <ele>28.9</ele>
    <time>2019-09-08T06:23:21Z</time>
   </trkpt>
   <trkpt lat="51.1859740" lon="5.8000890">
    <ele>28.9</ele>
    <time>2019-09-08T06:23:22Z</time>
   </trkpt>
   <trkpt lat="51.1859820" lon="5.7999880">
    <ele>28.9</ele>
    <time>2019-09-08T06:23:23Z</time>
   </trkpt>
   <trkpt lat="51.1859930" lon="5.7998760">
    <ele>28.9</ele>
    <time>2019-09-08T06:23:24Z</time>
   </trkpt>
   <trkpt lat="51.1859990" lon="5.7997670">
    <ele>28.9</ele>
    <time>2019-09-08T06:23:25Z</time>
   </trkpt>
   <trkpt lat="51.1860040" lon="5.7996640">
    <ele>28.9</ele>
    <time>2019-09-08T06:23:26Z</time>
   </trkpt>
   <trkpt lat="51.1860170" lon="5.7995460">
    <ele>28.9</ele>
    <time>2019-09-08T06:23:27Z</time>
   </trkpt>
   <trkpt lat="51.1860160" lon="5.7994400">
    <ele>28.9</ele>
    <time>2019-09-08T06:23:28Z</time>
   </trkpt>
   <trkpt lat="51.1860340" lon="5.7993440">
    <ele>28.9</ele>
    <time>2019-09-08T06:23:29Z</time>
   </trkpt>
   <trkpt lat="51.1860540" lon="5.7992510">
    <ele>28.9</ele>
    <time>2019-09-08T06:23:30Z</time>
   </trkpt>
   <trkpt lat="51.1860720" lon="5.7991510">
    <ele>29.0</ele>
    <time>2019-09-08T06:23:31Z</time>
   </trkpt>
   <trkpt lat="51.1861000" lon="5.7990470">
    <ele>29.0</ele>
    <time>2019-09-08T06:23:32Z</time>
   </trkpt>
   <trkpt lat="51.1861200" lon="5.7989450">
    <ele>29.0</ele>
    <time>2019-09-08T06:23:33Z</time>
   </trkpt>
   <trkpt lat="51.1861400" lon="5.7988320">
    <ele>29.0</ele>
    <time>2019-09-08T06:23:34Z</time>
   </trkpt>
   <trkpt lat="51.1861640" lon="5.7987250">
    <ele>29.0</ele>
    <time>2019-09-08T06:23:35Z</time>
   </trkpt>
   <trkpt lat="51.1861880" lon="5.7986290">
    <ele>29.0</ele>
    <time>2019-09-08T06:23:36Z</time>
   </trkpt>
   <trkpt lat="51.1862090" lon="5.7985230">
    <ele>29.1</ele>
    <time>2019-09-08T06:23:37Z</time>
   </trkpt>
   <trkpt lat="51.1862330" lon="5.7984110">
    <ele>29.1</ele>
    <time>2019-09-08T06:23:38Z</time>
   </trkpt>
   <trkpt lat="51.1862470" lon="5.7983070">
    <ele>29.2</ele>
    <time>2019-09-08T06:23:39Z</time>
   </trkpt>
   <trkpt lat="51.1862650" lon="5.7981870">
    <ele>29.2</ele>
    <time>2019-09-08T06:23:40Z</time>
   </trkpt>
   <trkpt lat="51.1862750" lon="5.7980840">
    <ele>29.2</ele>
    <time>2019-09-08T06:23:41Z</time>
   </trkpt>
   <trkpt lat="51.1862780" lon="5.7979960">
    <ele>29.2</ele>
    <time>2019-09-08T06:23:42Z</time>
   </trkpt>
   <trkpt lat="51.1862720" lon="5.7978980">
    <ele>29.2</ele>
    <time>2019-09-08T06:23:43Z</time>
   </trkpt>
   <trkpt lat="51.1862610" lon="5.7977790">
    <ele>29.2</ele>
    <time>2019-09-08T06:23:44Z</time>
   </trkpt>
   <trkpt lat="51.1862530" lon="5.7976820">
    <ele>29.1</ele>
    <time>2019-09-08T06:23:45Z</time>
   </trkpt>
   <trkpt lat="51.1862400" lon="5.7975850">
    <ele>29.1</ele>
    <time>2019-09-08T06:23:46Z</time>
   </trkpt>
   <trkpt lat="51.1862100" lon="5.7974830">
    <ele>29.0</ele>
    <time>2019-09-08T06:23:47Z</time>
   </trkpt>
   <trkpt lat="51.1861900" lon="5.7973760">
    <ele>29.0</ele>
    <time>2019-09-08T06:23:48Z</time>
   </trkpt>
   <trkpt lat="51.1861700" lon="5.7972690">
    <ele>29.0</ele>
    <time>2019-09-08T06:23:49Z</time>
   </trkpt>
   <trkpt lat="51.1861500" lon="5.7971560">
    <ele>29.0</ele>
    <time>2019-09-08T06:23:50Z</time>
   </trkpt>
   <trkpt lat="51.1861250" lon="5.7970520">
    <ele>29.0</ele>
    <time>2019-09-08T06:23:51Z</time>
   </trkpt>
   <trkpt lat="51.1861080" lon="5.7969380">
    <ele>29.0</ele>
    <time>2019-09-08T06:23:52Z</time>
   </trkpt>
   <trkpt lat="51.1860940" lon="5.7968400">
    <ele>29.0</ele>
    <time>2019-09-08T06:23:53Z</time>
   </trkpt>
   <trkpt lat="51.1860830" lon="5.7967290">
    <ele>29.0</ele>
    <time>2019-09-08T06:23:54Z</time>
   </trkpt>
   <trkpt lat="51.1860690" lon="5.7966190">
    <ele>28.9</ele>
    <time>2019-09-08T06:23:55Z</time>
   </trkpt>
   <trkpt lat="51.1860510" lon="5.7965200">
    <ele>28.9</ele>
    <time>2019-09-08T06:23:56Z</time>
   </trkpt>
   <trkpt lat="51.1860320" lon="5.7964160">
    <ele>28.9</ele>
    <time>2019-09-08T06:23:57Z</time>
   </trkpt>
   <trkpt lat="51.1860200" lon="5.7963160">
    <ele>28.9</ele>
    <time>2019-09-08T06:23:58Z</time>
   </trkpt>
   <trkpt lat="51.1860050" lon="5.7962220">
    <ele>28.9</ele>
    <time>2019-09-08T06:23:59Z</time>
   </trkpt>
   <trkpt lat="51.1859880" lon="5.7961160">
    <ele>28.9</ele>
    <time>2019-09-08T06:24:00Z</time>
   </trkpt>
   <trkpt lat="51.1859690" lon="5.7960230">
    <ele>29.0</ele>
    <time>2019-09-08T06:24:01Z</time>
   </trkpt>
   <trkpt lat="51.1859590" lon="5.7959130">
    <ele>29.0</ele>
    <time>2019-09-08T06:24:02Z</time>
   </trkpt>
   <trkpt lat="51.1859410" lon="5.7958160">
    <ele>29.0</ele>
    <time>2019-09-08T06:24:03Z</time>
   </trkpt>
   <trkpt lat="51.1859260" lon="5.7957160">
    <ele>29.0</ele>
    <time>2019-09-08T06:24:04Z</time>
   </trkpt>
   <trkpt lat="51.1859050" lon="5.7956160">
    <ele>29.0</ele>
    <time>2019-09-08T06:24:05Z</time>
   </trkpt>
   <trkpt lat="51.1858860" lon="5.7955080">
    <ele>29.0</ele>
    <time>2019-09-08T06:24:06Z</time>
   </trkpt>
   <trkpt lat="51.1858640" lon="5.7954100">
    <ele>29.0</ele>
    <time>2019-09-08T06:24:07Z</time>
   </trkpt>
   <trkpt lat="51.1858490" lon="5.7952970">
    <ele>29.0</ele>
    <time>2019-09-08T06:24:08Z</time>
   </trkpt>
   <trkpt lat="51.1858330" lon="5.7952000">
    <ele>29.0</ele>
    <time>2019-09-08T06:24:09Z</time>
   </trkpt>
   <trkpt lat="51.1858240" lon="5.7950920">
    <ele>29.0</ele>
    <time>2019-09-08T06:24:10Z</time>
   </trkpt>
   <trkpt lat="51.1858240" lon="5.7949670">
    <ele>29.0</ele>
    <time>2019-09-08T06:24:11Z</time>
   </trkpt>
   <trkpt lat="51.1858290" lon="5.7948590">
    <ele>29.0</ele>
    <time>2019-09-08T06:24:12Z</time>
   </trkpt>
   <trkpt lat="51.1858450" lon="5.7947510">
    <ele>29.0</ele>
    <time>2019-09-08T06:24:13Z</time>
   </trkpt>
   <trkpt lat="51.1858680" lon="5.7946410">
    <ele>29.0</ele>
    <time>2019-09-08T06:24:14Z</time>
   </trkpt>
   <trkpt lat="51.1858970" lon="5.7945430">
    <ele>29.0</ele>
    <time>2019-09-08T06:24:15Z</time>
   </trkpt>
   <trkpt lat="51.1859330" lon="5.7944370">
    <ele>29.0</ele>
    <time>2019-09-08T06:24:16Z</time>
   </trkpt>
   <trkpt lat="51.1859770" lon="5.7943470">
    <ele>29.1</ele>
    <time>2019-09-08T06:24:17Z</time>
   </trkpt>
   <trkpt lat="51.1860260" lon="5.7942700">
    <ele>29.1</ele>
    <time>2019-09-08T06:24:18Z</time>
   </trkpt>
   <trkpt lat="51.1860750" lon="5.7941920">
    <ele>29.1</ele>
    <time>2019-09-08T06:24:19Z</time>
   </trkpt>
   <trkpt lat="51.1861250" lon="5.7941170">
    <ele>29.1</ele>
    <time>2019-09-08T06:24:20Z</time>
   </trkpt>
   <trkpt lat="51.1861700" lon="5.7940480">
    <ele>29.1</ele>
    <time>2019-09-08T06:24:21Z</time>
   </trkpt>
   <trkpt lat="51.1862270" lon="5.7939780">
    <ele>29.2</ele>
    <time>2019-09-08T06:24:22Z</time>
   </trkpt>
   <trkpt lat="51.1862820" lon="5.7939140">
    <ele>29.2</ele>
    <time>2019-09-08T06:24:23Z</time>
   </trkpt>
   <trkpt lat="51.1863330" lon="5.7938590">
    <ele>29.2</ele>
    <time>2019-09-08T06:24:24Z</time>
   </trkpt>
   <trkpt lat="51.1863880" lon="5.7938080">
    <ele>29.2</ele>
    <time>2019-09-08T06:24:25Z</time>
   </trkpt>
   <trkpt lat="51.1864470" lon="5.7937500">
    <ele>29.2</ele>
    <time>2019-09-08T06:24:26Z</time>
   </trkpt>
   <trkpt lat="51.1865050" lon="5.7937060">
    <ele>29.2</ele>
    <time>2019-09-08T06:24:27Z</time>
   </trkpt>
   <trkpt lat="51.1865660" lon="5.7936570">
    <ele>29.2</ele>
    <time>2019-09-08T06:24:28Z</time>
   </trkpt>
   <trkpt lat="51.1866330" lon="5.7936130">
    <ele>29.2</ele>
    <time>2019-09-08T06:24:29Z</time>
   </trkpt>
   <trkpt lat="51.1866970" lon="5.7935700">
    <ele>29.2</ele>
    <time>2019-09-08T06:24:30Z</time>
   </trkpt>
   <trkpt lat="51.1867640" lon="5.7935270">
    <ele>29.2</ele>
    <time>2019-09-08T06:24:31Z</time>
   </trkpt>
   <trkpt lat="51.1868270" lon="5.7934830">
    <ele>29.2</ele>
    <time>2019-09-08T06:24:32Z</time>
   </trkpt>
   <trkpt lat="51.1868920" lon="5.7934380">
    <ele>29.2</ele>
    <time>2019-09-08T06:24:33Z</time>
   </trkpt>
   <trkpt lat="51.1869530" lon="5.7934010">
    <ele>29.2</ele>
    <time>2019-09-08T06:24:34Z</time>
   </trkpt>
   <trkpt lat="51.1870120" lon="5.7933570">
    <ele>29.2</ele>
    <time>2019-09-08T06:24:35Z</time>
   </trkpt>
   <trkpt lat="51.1870660" lon="5.7933160">
    <ele>29.2</ele>
    <time>2019-09-08T06:24:36Z</time>
   </trkpt>
   <trkpt lat="51.1871210" lon="5.7932700">
    <ele>29.2</ele>
    <time>2019-09-08T06:24:37Z</time>
   </trkpt>
   <trkpt lat="51.1871890" lon="5.7932250">
    <ele>29.2</ele>
    <time>2019-09-08T06:24:38Z</time>
   </trkpt>
   <trkpt lat="51.1872530" lon="5.7931950">
    <ele>29.2</ele>
    <time>2019-09-08T06:24:39Z</time>
   </trkpt>
   <trkpt lat="51.1873160" lon="5.7931490">
    <ele>29.2</ele>
    <time>2019-09-08T06:24:40Z</time>
   </trkpt>
   <trkpt lat="51.1873740" lon="5.7930990">
    <ele>29.2</ele>
    <time>2019-09-08T06:24:41Z</time>
   </trkpt>
   <trkpt lat="51.1874360" lon="5.7930560">
    <ele>29.2</ele>
    <time>2019-09-08T06:24:42Z</time>
   </trkpt>
   <trkpt lat="51.1874920" lon="5.7930220">
    <ele>29.2</ele>
    <time>2019-09-08T06:24:43Z</time>
   </trkpt>
   <trkpt lat="51.1875550" lon="5.7929860">
    <ele>29.2</ele>
    <time>2019-09-08T06:24:44Z</time>
   </trkpt>
   <trkpt lat="51.1876220" lon="5.7929490">
    <ele>29.1</ele>
    <time>2019-09-08T06:24:45Z</time>
   </trkpt>
   <trkpt lat="51.1876910" lon="5.7929150">
    <ele>29.1</ele>
    <time>2019-09-08T06:24:46Z</time>
   </trkpt>
   <trkpt lat="51.1877470" lon="5.7928700">
    <ele>29.1</ele>
    <time>2019-09-08T06:24:47Z</time>
   </trkpt>
   <trkpt lat="51.1878140" lon="5.7928340">
    <ele>29.0</ele>
    <time>2019-09-08T06:24:48Z</time>
   </trkpt>
   <trkpt lat="51.1878760" lon="5.7927960">
    <ele>29.0</ele>
    <time>2019-09-08T06:24:49Z</time>
   </trkpt>
   <trkpt lat="51.1879500" lon="5.7927650">
    <ele>28.9</ele>
    <time>2019-09-08T06:24:50Z</time>
   </trkpt>
   <trkpt lat="51.1880170" lon="5.7927280">
    <ele>28.9</ele>
    <time>2019-09-08T06:24:51Z</time>
   </trkpt>
   <trkpt lat="51.1880850" lon="5.7927030">
    <ele>28.9</ele>
    <time>2019-09-08T06:24:52Z</time>
   </trkpt>
   <trkpt lat="51.1881490" lon="5.7926720">
    <ele>28.8</ele>
    <time>2019-09-08T06:24:53Z</time>
   </trkpt>
   <trkpt lat="51.1882170" lon="5.7926410">
    <ele>28.8</ele>
    <time>2019-09-08T06:24:54Z</time>
   </trkpt>
   <trkpt lat="51.1882830" lon="5.7926130">
    <ele>28.8</ele>
    <time>2019-09-08T06:24:55Z</time>
   </trkpt>
   <trkpt lat="51.1883520" lon="5.7925710">
    <ele>28.7</ele>
    <time>2019-09-08T06:24:56Z</time>
   </trkpt>
   <trkpt lat="51.1884120" lon="5.7925480">
    <ele>28.7</ele>
    <time>2019-09-08T06:24:57Z</time>
   </trkpt>
   <trkpt lat="51.1884820" lon="5.7925240">
    <ele>28.7</ele>
    <time>2019-09-08T06:24:58Z</time>
   </trkpt>
   <trkpt lat="51.1885470" lon="5.7925010">
    <ele>28.7</ele>
    <time>2019-09-08T06:24:59Z</time>
   </trkpt>
   <trkpt lat="51.1886140" lon="5.7924730">
    <ele>28.7</ele>
    <time>2019-09-08T06:25:00Z</time>
   </trkpt>
   <trkpt lat="51.1886740" lon="5.7924410">
    <ele>28.6</ele>
    <time>2019-09-08T06:25:01Z</time>
   </trkpt>
   <trkpt lat="51.1887360" lon="5.7924210">
    <ele>28.6</ele>
    <time>2019-09-08T06:25:02Z</time>
   </trkpt>
   <trkpt lat="51.1888000" lon="5.7923990">
    <ele>28.6</ele>
    <time>2019-09-08T06:25:03Z</time>
   </trkpt>
   <trkpt lat="51.1888690" lon="5.7923650">
    <ele>28.6</ele>
    <time>2019-09-08T06:25:04Z</time>
   </trkpt>
   <trkpt lat="51.1889410" lon="5.7923270">
    <ele>28.6</ele>
    <time>2019-09-08T06:25:05Z</time>
   </trkpt>
   <trkpt lat="51.1890220" lon="5.7922970">
    <ele>28.6</ele>
    <time>2019-09-08T06:25:06Z</time>
   </trkpt>
   <trkpt lat="51.1890960" lon="5.7922700">
    <ele>28.6</ele>
    <time>2019-09-08T06:25:07Z</time>
   </trkpt>
   <trkpt lat="51.1891720" lon="5.7922540">
    <ele>28.6</ele>
    <time>2019-09-08T06:25:08Z</time>
   </trkpt>
   <trkpt lat="51.1892410" lon="5.7922270">
    <ele>28.6</ele>
    <time>2019-09-08T06:25:09Z</time>
   </trkpt>
   <trkpt lat="51.1893210" lon="5.7922040">
    <ele>28.6</ele>
    <time>2019-09-08T06:25:10Z</time>
   </trkpt>
   <trkpt lat="51.1893950" lon="5.7921630">
    <ele>28.6</ele>
    <time>2019-09-08T06:25:11Z</time>
   </trkpt>
   <trkpt lat="51.1894660" lon="5.7921190">
    <ele>28.5</ele>
    <time>2019-09-08T06:25:12Z</time>
   </trkpt>
   <trkpt lat="51.1895320" lon="5.7920820">
    <ele>28.5</ele>
    <time>2019-09-08T06:25:13Z</time>
   </trkpt>
   <trkpt lat="51.1895970" lon="5.7920570">
    <ele>28.4</ele>
    <time>2019-09-08T06:25:14Z</time>
   </trkpt>
   <trkpt lat="51.1896710" lon="5.7920270">
    <ele>28.4</ele>
    <time>2019-09-08T06:25:15Z</time>
   </trkpt>
   <trkpt lat="51.1897350" lon="5.7919890">
    <ele>28.4</ele>
    <time>2019-09-08T06:25:16Z</time>
   </trkpt>
   <trkpt lat="51.1898050" lon="5.7919450">
    <ele>28.3</ele>
    <time>2019-09-08T06:25:17Z</time>
   </trkpt>
   <trkpt lat="51.1898690" lon="5.7918980">
    <ele>28.3</ele>
    <time>2019-09-08T06:25:18Z</time>
   </trkpt>
   <trkpt lat="51.1899350" lon="5.7918480">
    <ele>28.3</ele>
    <time>2019-09-08T06:25:19Z</time>
   </trkpt>
   <trkpt lat="51.1899980" lon="5.7917950">
    <ele>28.3</ele>
    <time>2019-09-08T06:25:20Z</time>
   </trkpt>
   <trkpt lat="51.1900470" lon="5.7917470">
    <ele>28.4</ele>
    <time>2019-09-08T06:25:21Z</time>
   </trkpt>
   <trkpt lat="51.1901000" lon="5.7916930">
    <ele>28.5</ele>
    <time>2019-09-08T06:25:22Z</time>
   </trkpt>
   <trkpt lat="51.1901600" lon="5.7916170">
    <ele>28.5</ele>
    <time>2019-09-08T06:25:23Z</time>
   </trkpt>
   <trkpt lat="51.1902160" lon="5.7915450">
    <ele>28.6</ele>
    <time>2019-09-08T06:25:24Z</time>
   </trkpt>
   <trkpt lat="51.1902670" lon="5.7914770">
    <ele>28.7</ele>
    <time>2019-09-08T06:25:25Z</time>
   </trkpt>
   <trkpt lat="51.1903280" lon="5.7914260">
    <ele>28.9</ele>
    <time>2019-09-08T06:25:26Z</time>
   </trkpt>
   <trkpt lat="51.1903830" lon="5.7913760">
    <ele>29.0</ele>
    <time>2019-09-08T06:25:27Z</time>
   </trkpt>
   <trkpt lat="51.1904290" lon="5.7913230">
    <ele>29.1</ele>
    <time>2019-09-08T06:25:28Z</time>
   </trkpt>
   <trkpt lat="51.1904600" lon="5.7912730">
    <ele>29.1</ele>
    <time>2019-09-08T06:25:29Z</time>
   </trkpt>
   <trkpt lat="51.1905030" lon="5.7912100">
    <ele>29.1</ele>
    <time>2019-09-08T06:25:30Z</time>
   </trkpt>
   <trkpt lat="51.1905670" lon="5.7911290">
    <ele>29.1</ele>
    <time>2019-09-08T06:25:31Z</time>
   </trkpt>
   <trkpt lat="51.1906210" lon="5.7910600">
    <ele>29.0</ele>
    <time>2019-09-08T06:25:32Z</time>
   </trkpt>
   <trkpt lat="51.1906830" lon="5.7910040">
    <ele>28.9</ele>
    <time>2019-09-08T06:25:33Z</time>
   </trkpt>
   <trkpt lat="51.1907470" lon="5.7909520">
    <ele>28.8</ele>
    <time>2019-09-08T06:25:34Z</time>
   </trkpt>
   <trkpt lat="51.1908090" lon="5.7908950">
    <ele>29.0</ele>
    <time>2019-09-08T06:25:35Z</time>
   </trkpt>
   <trkpt lat="51.1908770" lon="5.7908370">
    <ele>29.1</ele>
    <time>2019-09-08T06:25:36Z</time>
   </trkpt>
   <trkpt lat="51.1909310" lon="5.7907930">
    <ele>29.0</ele>
    <time>2019-09-08T06:25:37Z</time>
   </trkpt>
   <trkpt lat="51.1909880" lon="5.7907360">
    <ele>29.0</ele>
    <time>2019-09-08T06:25:38Z</time>
   </trkpt>
   <trkpt lat="51.1910420" lon="5.7906820">
    <ele>29.0</ele>
    <time>2019-09-08T06:25:39Z</time>
   </trkpt>
   <trkpt lat="51.1910970" lon="5.7906270">
    <ele>29.1</ele>
    <time>2019-09-08T06:25:40Z</time>
   </trkpt>
   <trkpt lat="51.1911610" lon="5.7905540">
    <ele>29.3</ele>
    <time>2019-09-08T06:25:41Z</time>
   </trkpt>
   <trkpt lat="51.1912220" lon="5.7905000">
    <ele>29.6</ele>
    <time>2019-09-08T06:25:42Z</time>
   </trkpt>
   <trkpt lat="51.1912770" lon="5.7904390">
    <ele>30.0</ele>
    <time>2019-09-08T06:25:43Z</time>
   </trkpt>
   <trkpt lat="51.1913320" lon="5.7903770">
    <ele>31.1</ele>
    <time>2019-09-08T06:25:44Z</time>
   </trkpt>
   <trkpt lat="51.1913870" lon="5.7903170">
    <ele>31.0</ele>
    <time>2019-09-08T06:25:45Z</time>
   </trkpt>
   <trkpt lat="51.1914620" lon="5.7902390">
    <ele>30.9</ele>
    <time>2019-09-08T06:25:46Z</time>
   </trkpt>
   <trkpt lat="51.1915180" lon="5.7901960">
    <ele>30.8</ele>
    <time>2019-09-08T06:25:47Z</time>
   </trkpt>
   <trkpt lat="51.1915820" lon="5.7901360">
    <ele>30.8</ele>
    <time>2019-09-08T06:25:48Z</time>
   </trkpt>
   <trkpt lat="51.1916320" lon="5.7900790">
    <ele>30.8</ele>
    <time>2019-09-08T06:25:49Z</time>
   </trkpt>
   <trkpt lat="51.1916810" lon="5.7900340">
    <ele>30.9</ele>
    <time>2019-09-08T06:25:50Z</time>
   </trkpt>
   <trkpt lat="51.1917280" lon="5.7899890">
    <ele>30.9</ele>
    <time>2019-09-08T06:25:51Z</time>
   </trkpt>
   <trkpt lat="51.1917830" lon="5.7899480">
    <ele>31.0</ele>
    <time>2019-09-08T06:25:52Z</time>
   </trkpt>
   <trkpt lat="51.1918240" lon="5.7898900">
    <ele>31.2</ele>
    <time>2019-09-08T06:25:53Z</time>
   </trkpt>
   <trkpt lat="51.1918690" lon="5.7898350">
    <ele>31.3</ele>
    <time>2019-09-08T06:25:54Z</time>
   </trkpt>
   <trkpt lat="51.1919370" lon="5.7897730">
    <ele>31.5</ele>
    <time>2019-09-08T06:25:55Z</time>
   </trkpt>
   <trkpt lat="51.1919940" lon="5.7897180">
    <ele>31.8</ele>
    <time>2019-09-08T06:25:56Z</time>
   </trkpt>
   <trkpt lat="51.1920300" lon="5.7896840">
    <ele>31.8</ele>
    <time>2019-09-08T06:25:57Z</time>
   </trkpt>
   <trkpt lat="51.1920820" lon="5.7896120">
    <ele>31.8</ele>
    <time>2019-09-08T06:25:58Z</time>
   </trkpt>
   <trkpt lat="51.1921500" lon="5.7895420">
    <ele>31.8</ele>
    <time>2019-09-08T06:25:59Z</time>
   </trkpt>
   <trkpt lat="51.1922080" lon="5.7894700">
    <ele>31.8</ele>
    <time>2019-09-08T06:26:00Z</time>
   </trkpt>
   <trkpt lat="51.1922640" lon="5.7894100">
    <ele>31.8</ele>
    <time>2019-09-08T06:26:01Z</time>
   </trkpt>
   <trkpt lat="51.1923230" lon="5.7893260">
    <ele>31.8</ele>
    <time>2019-09-08T06:26:02Z</time>
   </trkpt>
   <trkpt lat="51.1923740" lon="5.7892500">
    <ele>31.8</ele>
    <time>2019-09-08T06:26:03Z</time>
   </trkpt>
   <trkpt lat="51.1924150" lon="5.7891730">
    <ele>31.8</ele>
    <time>2019-09-08T06:26:04Z</time>
   </trkpt>
   <trkpt lat="51.1924680" lon="5.7890880">
    <ele>31.8</ele>
    <time>2019-09-08T06:26:05Z</time>
   </trkpt>
   <trkpt lat="51.1925110" lon="5.7890130">
    <ele>31.7</ele>
    <time>2019-09-08T06:26:06Z</time>
   </trkpt>
   <trkpt lat="51.1925620" lon="5.7889260">
    <ele>31.7</ele>
    <time>2019-09-08T06:26:07Z</time>
   </trkpt>
   <trkpt lat="51.1926120" lon="5.7888530">
    <ele>31.7</ele>
    <time>2019-09-08T06:26:08Z</time>
   </trkpt>
   <trkpt lat="51.1926580" lon="5.7887620">
    <ele>31.6</ele>
    <time>2019-09-08T06:26:09Z</time>
   </trkpt>
   <trkpt lat="51.1927000" lon="5.7886820">
    <ele>31.6</ele>
    <time>2019-09-08T06:26:10Z</time>
   </trkpt>
   <trkpt lat="51.1927640" lon="5.7885980">
    <ele>31.5</ele>
    <time>2019-09-08T06:26:11Z</time>
   </trkpt>
   <trkpt lat="51.1928090" lon="5.7885250">
    <ele>31.5</ele>
    <time>2019-09-08T06:26:12Z</time>
   </trkpt>
   <trkpt lat="51.1928480" lon="5.7884430">
    <ele>31.5</ele>
    <time>2019-09-08T06:26:13Z</time>
   </trkpt>
   <trkpt lat="51.1928920" lon="5.7883540">
    <ele>31.4</ele>
    <time>2019-09-08T06:26:14Z</time>
   </trkpt>
   <trkpt lat="51.1929390" lon="5.7882780">
    <ele>31.4</ele>
    <time>2019-09-08T06:26:15Z</time>
   </trkpt>
   <trkpt lat="51.1929910" lon="5.7882040">
    <ele>31.4</ele>
    <time>2019-09-08T06:26:16Z</time>
   </trkpt>
   <trkpt lat="51.1930410" lon="5.7881250">
    <ele>31.4</ele>
    <time>2019-09-08T06:26:17Z</time>
   </trkpt>
   <trkpt lat="51.1931000" lon="5.7880450">
    <ele>31.4</ele>
    <time>2019-09-08T06:26:18Z</time>
   </trkpt>
   <trkpt lat="51.1931340" lon="5.7879730">
    <ele>31.4</ele>
    <time>2019-09-08T06:26:19Z</time>
   </trkpt>
   <trkpt lat="51.1931860" lon="5.7878850">
    <ele>31.4</ele>
    <time>2019-09-08T06:26:20Z</time>
   </trkpt>
   <trkpt lat="51.1932300" lon="5.7877990">
    <ele>31.4</ele>
    <time>2019-09-08T06:26:21Z</time>
   </trkpt>
   <trkpt lat="51.1932800" lon="5.7877150">
    <ele>31.4</ele>
    <time>2019-09-08T06:26:22Z</time>
   </trkpt>
   <trkpt lat="51.1933310" lon="5.7876320">
    <ele>31.3</ele>
    <time>2019-09-08T06:26:23Z</time>
   </trkpt>
   <trkpt lat="51.1933690" lon="5.7875410">
    <ele>31.3</ele>
    <time>2019-09-08T06:26:24Z</time>
   </trkpt>
   <trkpt lat="51.1934050" lon="5.7874580">
    <ele>31.3</ele>
    <time>2019-09-08T06:26:25Z</time>
   </trkpt>
   <trkpt lat="51.1934440" lon="5.7873760">
    <ele>31.2</ele>
    <time>2019-09-08T06:26:26Z</time>
   </trkpt>
   <trkpt lat="51.1934980" lon="5.7872950">
    <ele>31.2</ele>
    <time>2019-09-08T06:26:27Z</time>
   </trkpt>
   <trkpt lat="51.1935510" lon="5.7872160">
    <ele>31.1</ele>
    <time>2019-09-08T06:26:28Z</time>
   </trkpt>
   <trkpt lat="51.1935920" lon="5.7871440">
    <ele>31.1</ele>
    <time>2019-09-08T06:26:29Z</time>
   </trkpt>
   <trkpt lat="51.1936370" lon="5.7870750">
    <ele>31.1</ele>
    <time>2019-09-08T06:26:30Z</time>
   </trkpt>
   <trkpt lat="51.1936810" lon="5.7869990">
    <ele>31.0</ele>
    <time>2019-09-08T06:26:31Z</time>
   </trkpt>
   <trkpt lat="51.1937380" lon="5.7869260">
    <ele>31.0</ele>
    <time>2019-09-08T06:26:32Z</time>
   </trkpt>
   <trkpt lat="51.1937950" lon="5.7868480">
    <ele>30.9</ele>
    <time>2019-09-08T06:26:33Z</time>
   </trkpt>
   <trkpt lat="51.1938420" lon="5.7867620">
    <ele>30.9</ele>
    <time>2019-09-08T06:26:34Z</time>
   </trkpt>
   <trkpt lat="51.1939050" lon="5.7866940">
    <ele>30.8</ele>
    <time>2019-09-08T06:26:35Z</time>
   </trkpt>
   <trkpt lat="51.1939470" lon="5.7866120">
    <ele>30.8</ele>
    <time>2019-09-08T06:26:36Z</time>
   </trkpt>
   <trkpt lat="51.1939890" lon="5.7865300">
    <ele>30.8</ele>
    <time>2019-09-08T06:26:37Z</time>
   </trkpt>
   <trkpt lat="51.1940320" lon="5.7864470">
    <ele>30.7</ele>
    <time>2019-09-08T06:26:38Z</time>
   </trkpt>
   <trkpt lat="51.1940810" lon="5.7863630">
    <ele>30.7</ele>
    <time>2019-09-08T06:26:39Z</time>
   </trkpt>
   <trkpt lat="51.1941290" lon="5.7862820">
    <ele>30.7</ele>
    <time>2019-09-08T06:26:40Z</time>
   </trkpt>
   <trkpt lat="51.1941720" lon="5.7862040">
    <ele>30.7</ele>
    <time>2019-09-08T06:26:41Z</time>
   </trkpt>
   <trkpt lat="51.1942150" lon="5.7861280">
    <ele>30.6</ele>
    <time>2019-09-08T06:26:42Z</time>
   </trkpt>
   <trkpt lat="51.1942660" lon="5.7860630">
    <ele>30.6</ele>
    <time>2019-09-08T06:26:43Z</time>
   </trkpt>
   <trkpt lat="51.1943150" lon="5.7859960">
    <ele>30.6</ele>
    <time>2019-09-08T06:26:44Z</time>
   </trkpt>
   <trkpt lat="51.1943720" lon="5.7859350">
    <ele>30.6</ele>
    <time>2019-09-08T06:26:45Z</time>
   </trkpt>
   <trkpt lat="51.1944300" lon="5.7858780">
    <ele>30.6</ele>
    <time>2019-09-08T06:26:46Z</time>
   </trkpt>
   <trkpt lat="51.1944860" lon="5.7858390">
    <ele>30.6</ele>
    <time>2019-09-08T06:26:47Z</time>
   </trkpt>
   <trkpt lat="51.1945520" lon="5.7858090">
    <ele>30.6</ele>
    <time>2019-09-08T06:26:48Z</time>
   </trkpt>
   <trkpt lat="51.1946220" lon="5.7857790">
    <ele>30.6</ele>
    <time>2019-09-08T06:26:49Z</time>
   </trkpt>
   <trkpt lat="51.1946890" lon="5.7857470">
    <ele>30.6</ele>
    <time>2019-09-08T06:26:50Z</time>
   </trkpt>
   <trkpt lat="51.1947630" lon="5.7857070">
    <ele>30.6</ele>
    <time>2019-09-08T06:26:51Z</time>
   </trkpt>
   <trkpt lat="51.1948320" lon="5.7856830">
    <ele>30.6</ele>
    <time>2019-09-08T06:26:52Z</time>
   </trkpt>
   <trkpt lat="51.1948960" lon="5.7856530">
    <ele>30.6</ele>
    <time>2019-09-08T06:26:53Z</time>
   </trkpt>
   <trkpt lat="51.1949590" lon="5.7856220">
    <ele>30.6</ele>
    <time>2019-09-08T06:26:54Z</time>
   </trkpt>
   <trkpt lat="51.1950270" lon="5.7855920">
    <ele>30.6</ele>
    <time>2019-09-08T06:26:55Z</time>
   </trkpt>
   <trkpt lat="51.1950970" lon="5.7855610">
    <ele>30.6</ele>
    <time>2019-09-08T06:26:56Z</time>
   </trkpt>
   <trkpt lat="51.1951560" lon="5.7855360">
    <ele>30.6</ele>
    <time>2019-09-08T06:26:57Z</time>
   </trkpt>
   <trkpt lat="51.1952190" lon="5.7855050">
    <ele>30.6</ele>
    <time>2019-09-08T06:26:58Z</time>
   </trkpt>
   <trkpt lat="51.1952880" lon="5.7854810">
    <ele>30.6</ele>
    <time>2019-09-08T06:26:59Z</time>
   </trkpt>
   <trkpt lat="51.1953560" lon="5.7854470">
    <ele>30.6</ele>
    <time>2019-09-08T06:27:00Z</time>
   </trkpt>
   <trkpt lat="51.1954200" lon="5.7854220">
    <ele>30.6</ele>
    <time>2019-09-08T06:27:01Z</time>
   </trkpt>
   <trkpt lat="51.1954900" lon="5.7854000">
    <ele>30.6</ele>
    <time>2019-09-08T06:27:02Z</time>
   </trkpt>
   <trkpt lat="51.1955590" lon="5.7853750">
    <ele>30.6</ele>
    <time>2019-09-08T06:27:03Z</time>
   </trkpt>
   <trkpt lat="51.1956250" lon="5.7853470">
    <ele>30.6</ele>
    <time>2019-09-08T06:27:04Z</time>
   </trkpt>
   <trkpt lat="51.1956930" lon="5.7853250">
    <ele>30.6</ele>
    <time>2019-09-08T06:27:05Z</time>
   </trkpt>
   <trkpt lat="51.1957550" lon="5.7852900">
    <ele>30.7</ele>
    <time>2019-09-08T06:27:06Z</time>
   </trkpt>
   <trkpt lat="51.1958240" lon="5.7852650">
    <ele>30.7</ele>
    <time>2019-09-08T06:27:07Z</time>
   </trkpt>
   <trkpt lat="51.1958900" lon="5.7852420">
    <ele>30.7</ele>
    <time>2019-09-08T06:27:08Z</time>
   </trkpt>
   <trkpt lat="51.1959570" lon="5.7852190">
    <ele>30.7</ele>
    <time>2019-09-08T06:27:09Z</time>
   </trkpt>
   <trkpt lat="51.1960270" lon="5.7851970">
    <ele>30.7</ele>
    <time>2019-09-08T06:27:10Z</time>
   </trkpt>
   <trkpt lat="51.1960920" lon="5.7851660">
    <ele>30.7</ele>
    <time>2019-09-08T06:27:11Z</time>
   </trkpt>
   <trkpt lat="51.1961570" lon="5.7851310">
    <ele>30.7</ele>
    <time>2019-09-08T06:27:12Z</time>
   </trkpt>
   <trkpt lat="51.1962190" lon="5.7851070">
    <ele>30.7</ele>
    <time>2019-09-08T06:27:13Z</time>
   </trkpt>
   <trkpt lat="51.1962860" lon="5.7850830">
    <ele>30.6</ele>
    <time>2019-09-08T06:27:14Z</time>
   </trkpt>
   <trkpt lat="51.1963500" lon="5.7850570">
    <ele>30.6</ele>
    <time>2019-09-08T06:27:15Z</time>
   </trkpt>
   <trkpt lat="51.1964120" lon="5.7850330">
    <ele>30.5</ele>
    <time>2019-09-08T06:27:16Z</time>
   </trkpt>
   <trkpt lat="51.1964730" lon="5.7850020">
    <ele>30.5</ele>
    <time>2019-09-08T06:27:17Z</time>
   </trkpt>
   <trkpt lat="51.1965460" lon="5.7849630">
    <ele>30.4</ele>
    <time>2019-09-08T06:27:18Z</time>
   </trkpt>
   <trkpt lat="51.1966120" lon="5.7849360">
    <ele>30.4</ele>
    <time>2019-09-08T06:27:19Z</time>
   </trkpt>
   <trkpt lat="51.1966750" lon="5.7849080">
    <ele>30.3</ele>
    <time>2019-09-08T06:27:20Z</time>
   </trkpt>
   <trkpt lat="51.1967380" lon="5.7848800">
    <ele>30.3</ele>
    <time>2019-09-08T06:27:21Z</time>
   </trkpt>
   <trkpt lat="51.1968020" lon="5.7848580">
    <ele>30.3</ele>
    <time>2019-09-08T06:27:22Z</time>
   </trkpt>
   <trkpt lat="51.1968690" lon="5.7848380">
    <ele>30.3</ele>
    <time>2019-09-08T06:27:23Z</time>
   </trkpt>
   <trkpt lat="51.1969370" lon="5.7848100">
    <ele>30.3</ele>
    <time>2019-09-08T06:27:24Z</time>
   </trkpt>
   <trkpt lat="51.1970050" lon="5.7847780">
    <ele>30.2</ele>
    <time>2019-09-08T06:27:25Z</time>
   </trkpt>
   <trkpt lat="51.1970710" lon="5.7847510">
    <ele>30.2</ele>
    <time>2019-09-08T06:27:26Z</time>
   </trkpt>
   <trkpt lat="51.1971420" lon="5.7847040">
    <ele>30.2</ele>
    <time>2019-09-08T06:27:27Z</time>
   </trkpt>
   <trkpt lat="51.1972010" lon="5.7846780">
    <ele>30.2</ele>
    <time>2019-09-08T06:27:28Z</time>
   </trkpt>
   <trkpt lat="51.1972630" lon="5.7846460">
    <ele>30.2</ele>
    <time>2019-09-08T06:27:29Z</time>
   </trkpt>
   <trkpt lat="51.1973230" lon="5.7846190">
    <ele>30.2</ele>
    <time>2019-09-08T06:27:30Z</time>
   </trkpt>
   <trkpt lat="51.1973920" lon="5.7845980">
    <ele>30.2</ele>
    <time>2019-09-08T06:27:31Z</time>
   </trkpt>
   <trkpt lat="51.1974570" lon="5.7845760">
    <ele>30.2</ele>
    <time>2019-09-08T06:27:32Z</time>
   </trkpt>
   <trkpt lat="51.1975210" lon="5.7845560">
    <ele>30.1</ele>
    <time>2019-09-08T06:27:33Z</time>
   </trkpt>
   <trkpt lat="51.1975870" lon="5.7845300">
    <ele>30.1</ele>
    <time>2019-09-08T06:27:34Z</time>
   </trkpt>
   <trkpt lat="51.1976450" lon="5.7845000">
    <ele>30.1</ele>
    <time>2019-09-08T06:27:35Z</time>
   </trkpt>
   <trkpt lat="51.1977010" lon="5.7844790">
    <ele>30.0</ele>
    <time>2019-09-08T06:27:36Z</time>
   </trkpt>
   <trkpt lat="51.1977610" lon="5.7844400">
    <ele>30.0</ele>
    <time>2019-09-08T06:27:37Z</time>
   </trkpt>
   <trkpt lat="51.1978200" lon="5.7844110">
    <ele>29.9</ele>
    <time>2019-09-08T06:27:38Z</time>
   </trkpt>
   <trkpt lat="51.1978790" lon="5.7844000">
    <ele>29.9</ele>
    <time>2019-09-08T06:27:39Z</time>
   </trkpt>
   <trkpt lat="51.1979320" lon="5.7844120">
    <ele>29.8</ele>
    <time>2019-09-08T06:27:40Z</time>
   </trkpt>
   <trkpt lat="51.1979850" lon="5.7844490">
    <ele>29.8</ele>
    <time>2019-09-08T06:27:41Z</time>
   </trkpt>
   <trkpt lat="51.1980400" lon="5.7845130">
    <ele>29.9</ele>
    <time>2019-09-08T06:27:42Z</time>
   </trkpt>
   <trkpt lat="51.1980930" lon="5.7845920">
    <ele>30.0</ele>
    <time>2019-09-08T06:27:43Z</time>
   </trkpt>
   <trkpt lat="51.1981400" lon="5.7846850">
    <ele>30.0</ele>
    <time>2019-09-08T06:27:44Z</time>
   </trkpt>
   <trkpt lat="51.1981890" lon="5.7847770">
    <ele>30.0</ele>
    <time>2019-09-08T06:27:45Z</time>
   </trkpt>
   <trkpt lat="51.1982290" lon="5.7848850">
    <ele>30.0</ele>
    <time>2019-09-08T06:27:46Z</time>
   </trkpt>
   <trkpt lat="51.1982750" lon="5.7849870">
    <ele>30.0</ele>
    <time>2019-09-08T06:27:47Z</time>
   </trkpt>
   <trkpt lat="51.1983160" lon="5.7850780">
    <ele>29.9</ele>
    <time>2019-09-08T06:27:48Z</time>
   </trkpt>
   <trkpt lat="51.1983680" lon="5.7851890">
    <ele>29.9</ele>
    <time>2019-09-08T06:27:49Z</time>
   </trkpt>
   <trkpt lat="51.1984120" lon="5.7852790">
    <ele>29.8</ele>
    <time>2019-09-08T06:27:50Z</time>
   </trkpt>
   <trkpt lat="51.1984560" lon="5.7853750">
    <ele>29.8</ele>
    <time>2019-09-08T06:27:51Z</time>
   </trkpt>
   <trkpt lat="51.1984950" lon="5.7854820">
    <ele>29.8</ele>
    <time>2019-09-08T06:27:52Z</time>
   </trkpt>
   <trkpt lat="51.1985360" lon="5.7855750">
    <ele>29.9</ele>
    <time>2019-09-08T06:27:53Z</time>
   </trkpt>
   <trkpt lat="51.1985770" lon="5.7856690">
    <ele>29.9</ele>
    <time>2019-09-08T06:27:54Z</time>
   </trkpt>
   <trkpt lat="51.1986190" lon="5.7857570">
    <ele>29.9</ele>
    <time>2019-09-08T06:27:55Z</time>
   </trkpt>
   <trkpt lat="51.1986590" lon="5.7858430">
    <ele>29.9</ele>
    <time>2019-09-08T06:27:56Z</time>
   </trkpt>
   <trkpt lat="51.1987000" lon="5.7859180">
    <ele>30.0</ele>
    <time>2019-09-08T06:27:57Z</time>
   </trkpt>
   <trkpt lat="51.1987400" lon="5.7859990">
    <ele>30.0</ele>
    <time>2019-09-08T06:27:58Z</time>
   </trkpt>
   <trkpt lat="51.1987890" lon="5.7860880">
    <ele>30.1</ele>
    <time>2019-09-08T06:27:59Z</time>
   </trkpt>
   <trkpt lat="51.1988280" lon="5.7861840">
    <ele>30.3</ele>
    <time>2019-09-08T06:28:00Z</time>
   </trkpt>
   <trkpt lat="51.1988730" lon="5.7862670">
    <ele>30.2</ele>
    <time>2019-09-08T06:28:01Z</time>
   </trkpt>
   <trkpt lat="51.1989220" lon="5.7863480">
    <ele>30.2</ele>
    <time>2019-09-08T06:28:02Z</time>
   </trkpt>
   <trkpt lat="51.1989760" lon="5.7864260">
    <ele>30.2</ele>
    <time>2019-09-08T06:28:03Z</time>
   </trkpt>
   <trkpt lat="51.1990330" lon="5.7864910">
    <ele>30.2</ele>
    <time>2019-09-08T06:28:04Z</time>
   </trkpt>
   <trkpt lat="51.1990910" lon="5.7865530">
    <ele>30.1</ele>
    <time>2019-09-08T06:28:05Z</time>
   </trkpt>
   <trkpt lat="51.1991580" lon="5.7866100">
    <ele>30.1</ele>
    <time>2019-09-08T06:28:06Z</time>
   </trkpt>
   <trkpt lat="51.1992260" lon="5.7866580">
    <ele>30.0</ele>
    <time>2019-09-08T06:28:07Z</time>
   </trkpt>
   <trkpt lat="51.1992940" lon="5.7867070">
    <ele>30.0</ele>
    <time>2019-09-08T06:28:08Z</time>
   </trkpt>
   <trkpt lat="51.1993570" lon="5.7867570">
    <ele>29.9</ele>
    <time>2019-09-08T06:28:09Z</time>
   </trkpt>
   <trkpt lat="51.1994250" lon="5.7868050">
    <ele>29.9</ele>
    <time>2019-09-08T06:28:10Z</time>
   </trkpt>
   <trkpt lat="51.1994840" lon="5.7868550">
    <ele>29.9</ele>
    <time>2019-09-08T06:28:11Z</time>
   </trkpt>
   <trkpt lat="51.1995480" lon="5.7869020">
    <ele>29.9</ele>
    <time>2019-09-08T06:28:12Z</time>
   </trkpt>
   <trkpt lat="51.1996110" lon="5.7869430">
    <ele>29.9</ele>
    <time>2019-09-08T06:28:13Z</time>
   </trkpt>
   <trkpt lat="51.1996730" lon="5.7869880">
    <ele>30.0</ele>
    <time>2019-09-08T06:28:14Z</time>
   </trkpt>
   <trkpt lat="51.1997340" lon="5.7870400">
    <ele>30.0</ele>
    <time>2019-09-08T06:28:15Z</time>
   </trkpt>
   <trkpt lat="51.1998030" lon="5.7870800">
    <ele>29.9</ele>
    <time>2019-09-08T06:28:16Z</time>
   </trkpt>
   <trkpt lat="51.1998670" lon="5.7871240">
    <ele>29.9</ele>
    <time>2019-09-08T06:28:17Z</time>
   </trkpt>
   <trkpt lat="51.1999310" lon="5.7871770">
    <ele>29.9</ele>
    <time>2019-09-08T06:28:18Z</time>
   </trkpt>
   <trkpt lat="51.1999840" lon="5.7872240">
    <ele>29.8</ele>
    <time>2019-09-08T06:28:19Z</time>
   </trkpt>
   <trkpt lat="51.2000540" lon="5.7872690">
    <ele>29.8</ele>
    <time>2019-09-08T06:28:20Z</time>
   </trkpt>
   <trkpt lat="51.2001150" lon="5.7873090">
    <ele>29.7</ele>
    <time>2019-09-08T06:28:21Z</time>
   </trkpt>
   <trkpt lat="51.2001720" lon="5.7873550">
    <ele>29.7</ele>
    <time>2019-09-08T06:28:22Z</time>
   </trkpt>
   <trkpt lat="51.2002420" lon="5.7874030">
    <ele>29.7</ele>
    <time>2019-09-08T06:28:23Z</time>
   </trkpt>
   <trkpt lat="51.2003050" lon="5.7874450">
    <ele>29.7</ele>
    <time>2019-09-08T06:28:24Z</time>
   </trkpt>
   <trkpt lat="51.2003700" lon="5.7874800">
    <ele>29.7</ele>
    <time>2019-09-08T06:28:25Z</time>
   </trkpt>
   <trkpt lat="51.2004380" lon="5.7875200">
    <ele>29.8</ele>
    <time>2019-09-08T06:28:26Z</time>
   </trkpt>
   <trkpt lat="51.2004960" lon="5.7875650">
    <ele>29.8</ele>
    <time>2019-09-08T06:28:27Z</time>
   </trkpt>
   <trkpt lat="51.2005650" lon="5.7876090">
    <ele>29.8</ele>
    <time>2019-09-08T06:28:28Z</time>
   </trkpt>
   <trkpt lat="51.2006250" lon="5.7876600">
    <ele>29.9</ele>
    <time>2019-09-08T06:28:29Z</time>
   </trkpt>
   <trkpt lat="51.2006900" lon="5.7877010">
    <ele>29.9</ele>
    <time>2019-09-08T06:28:30Z</time>
   </trkpt>
   <trkpt lat="51.2007550" lon="5.7877320">
    <ele>29.9</ele>
    <time>2019-09-08T06:28:31Z</time>
   </trkpt>
   <trkpt lat="51.2008270" lon="5.7877750">
    <ele>29.8</ele>
    <time>2019-09-08T06:28:32Z</time>
   </trkpt>
   <trkpt lat="51.2008960" lon="5.7878230">
    <ele>29.8</ele>
    <time>2019-09-08T06:28:33Z</time>
   </trkpt>
   <trkpt lat="51.2009560" lon="5.7878720">
    <ele>29.9</ele>
    <time>2019-09-08T06:28:34Z</time>
   </trkpt>
   <trkpt lat="51.2010170" lon="5.7879210">
    <ele>29.9</ele>
    <time>2019-09-08T06:28:35Z</time>
   </trkpt>
   <trkpt lat="51.2010790" lon="5.7879690">
    <ele>29.9</ele>
    <time>2019-09-08T06:28:36Z</time>
   </trkpt>
   <trkpt lat="51.2011400" lon="5.7880200">
    <ele>30.0</ele>
    <time>2019-09-08T06:28:37Z</time>
   </trkpt>
   <trkpt lat="51.2012090" lon="5.7880680">
    <ele>30.0</ele>
    <time>2019-09-08T06:28:38Z</time>
   </trkpt>
   <trkpt lat="51.2012750" lon="5.7881090">
    <ele>30.1</ele>
    <time>2019-09-08T06:28:39Z</time>
   </trkpt>
   <trkpt lat="51.2013400" lon="5.7881390">
    <ele>30.1</ele>
    <time>2019-09-08T06:28:40Z</time>
   </trkpt>
   <trkpt lat="51.2014030" lon="5.7881570">
    <ele>30.2</ele>
    <time>2019-09-08T06:28:41Z</time>
   </trkpt>
   <trkpt lat="51.2014740" lon="5.7881730">
    <ele>30.1</ele>
    <time>2019-09-08T06:28:42Z</time>
   </trkpt>
   <trkpt lat="51.2015390" lon="5.7881730">
    <ele>30.1</ele>
    <time>2019-09-08T06:28:43Z</time>
   </trkpt>
   <trkpt lat="51.2016210" lon="5.7881750">
    <ele>30.1</ele>
    <time>2019-09-08T06:28:44Z</time>
   </trkpt>
   <trkpt lat="51.2016890" lon="5.7881760">
    <ele>30.1</ele>
    <time>2019-09-08T06:28:45Z</time>
   </trkpt>
   <trkpt lat="51.2017640" lon="5.7881750">
    <ele>30.0</ele>
    <time>2019-09-08T06:28:46Z</time>
   </trkpt>
   <trkpt lat="51.2018300" lon="5.7881720">
    <ele>30.0</ele>
    <time>2019-09-08T06:28:47Z</time>
   </trkpt>
   <trkpt lat="51.2018990" lon="5.7881700">
    <ele>30.0</ele>
    <time>2019-09-08T06:28:48Z</time>
   </trkpt>
   <trkpt lat="51.2019680" lon="5.7881620">
    <ele>30.0</ele>
    <time>2019-09-08T06:28:49Z</time>
   </trkpt>
   <trkpt lat="51.2020350" lon="5.7881670">
    <ele>30.0</ele>
    <time>2019-09-08T06:28:50Z</time>
   </trkpt>
   <trkpt lat="51.2021030" lon="5.7881620">
    <ele>30.0</ele>
    <time>2019-09-08T06:28:51Z</time>
   </trkpt>
   <trkpt lat="51.2021730" lon="5.7881540">
    <ele>30.0</ele>
    <time>2019-09-08T06:28:52Z</time>
   </trkpt>
   <trkpt lat="51.2022370" lon="5.7881490">
    <ele>30.0</ele>
    <time>2019-09-08T06:28:53Z</time>
   </trkpt>
   <trkpt lat="51.2023040" lon="5.7881450">
    <ele>30.1</ele>
    <time>2019-09-08T06:28:54Z</time>
   </trkpt>
   <trkpt lat="51.2023730" lon="5.7881340">
    <ele>30.1</ele>
    <time>2019-09-08T06:28:55Z</time>
   </trkpt>
   <trkpt lat="51.2024390" lon="5.7881270">
    <ele>30.2</ele>
    <time>2019-09-08T06:28:56Z</time>
   </trkpt>
   <trkpt lat="51.2025070" lon="5.7881210">
    <ele>30.2</ele>
    <time>2019-09-08T06:28:57Z</time>
   </trkpt>
   <trkpt lat="51.2025760" lon="5.7881170">
    <ele>30.3</ele>
    <time>2019-09-08T06:28:58Z</time>
   </trkpt>
   <trkpt lat="51.2026430" lon="5.7881130">
    <ele>30.4</ele>
    <time>2019-09-08T06:28:59Z</time>
   </trkpt>
   <trkpt lat="51.2027140" lon="5.7881140">
    <ele>30.4</ele>
    <time>2019-09-08T06:29:00Z</time>
   </trkpt>
   <trkpt lat="51.2027810" lon="5.7881120">
    <ele>30.5</ele>
    <time>2019-09-08T06:29:01Z</time>
   </trkpt>
   <trkpt lat="51.2028470" lon="5.7880930">
    <ele>30.5</ele>
    <time>2019-09-08T06:29:02Z</time>
   </trkpt>
   <trkpt lat="51.2029170" lon="5.7880810">
    <ele>30.5</ele>
    <time>2019-09-08T06:29:03Z</time>
   </trkpt>
   <trkpt lat="51.2029870" lon="5.7880730">
    <ele>30.6</ele>
    <time>2019-09-08T06:29:04Z</time>
   </trkpt>
   <trkpt lat="51.2030550" lon="5.7880680">
    <ele>30.6</ele>
    <time>2019-09-08T06:29:05Z</time>
   </trkpt>
   <trkpt lat="51.2031220" lon="5.7880620">
    <ele>30.6</ele>
    <time>2019-09-08T06:29:06Z</time>
   </trkpt>
   <trkpt lat="51.2031850" lon="5.7880580">
    <ele>30.6</ele>
    <time>2019-09-08T06:29:07Z</time>
   </trkpt>
   <trkpt lat="51.2032510" lon="5.7880530">
    <ele>30.5</ele>
    <time>2019-09-08T06:29:08Z</time>
   </trkpt>
   <trkpt lat="51.2033210" lon="5.7880450">
    <ele>30.5</ele>
    <time>2019-09-08T06:29:09Z</time>
   </trkpt>
   <trkpt lat="51.2033860" lon="5.7880420">
    <ele>30.5</ele>
    <time>2019-09-08T06:29:10Z</time>
   </trkpt>
   <trkpt lat="51.2034540" lon="5.7880360">
    <ele>30.4</ele>
    <time>2019-09-08T06:29:11Z</time>
   </trkpt>
   <trkpt lat="51.2035190" lon="5.7880380">
    <ele>30.4</ele>
    <time>2019-09-08T06:29:12Z</time>
   </trkpt>
   <trkpt lat="51.2035890" lon="5.7880300">
    <ele>30.4</ele>
    <time>2019-09-08T06:29:13Z</time>
   </trkpt>
   <trkpt lat="51.2036520" lon="5.7880300">
    <ele>30.4</ele>
    <time>2019-09-08T06:29:14Z</time>
   </trkpt>
   <trkpt lat="51.2037500" lon="5.7880160">
    <ele>30.3</ele>
    <time>2019-09-08T06:29:15Z</time>
   </trkpt>
   <trkpt lat="51.2038190" lon="5.7880120">
    <ele>30.3</ele>
    <time>2019-09-08T06:29:16Z</time>
   </trkpt>
   <trkpt lat="51.2038870" lon="5.7880220">
    <ele>30.3</ele>
    <time>2019-09-08T06:29:17Z</time>
   </trkpt>
   <trkpt lat="51.2039540" lon="5.7880250">
    <ele>30.3</ele>
    <time>2019-09-08T06:29:18Z</time>
   </trkpt>
   <trkpt lat="51.2040180" lon="5.7880140">
    <ele>30.2</ele>
    <time>2019-09-08T06:29:19Z</time>
   </trkpt>
   <trkpt lat="51.2040830" lon="5.7880090">
    <ele>30.2</ele>
    <time>2019-09-08T06:29:20Z</time>
   </trkpt>
   <trkpt lat="51.2041440" lon="5.7880100">
    <ele>30.2</ele>
    <time>2019-09-08T06:29:21Z</time>
   </trkpt>
   <trkpt lat="51.2042080" lon="5.7880060">
    <ele>30.2</ele>
    <time>2019-09-08T06:29:22Z</time>
   </trkpt>
   <trkpt lat="51.2042760" lon="5.7879950">
    <ele>30.2</ele>
    <time>2019-09-08T06:29:23Z</time>
   </trkpt>
   <trkpt lat="51.2043440" lon="5.7879870">
    <ele>30.2</ele>
    <time>2019-09-08T06:29:24Z</time>
   </trkpt>
   <trkpt lat="51.2044140" lon="5.7879800">
    <ele>30.2</ele>
    <time>2019-09-08T06:29:25Z</time>
   </trkpt>
   <trkpt lat="51.2044860" lon="5.7879730">
    <ele>30.2</ele>
    <time>2019-09-08T06:29:26Z</time>
   </trkpt>
   <trkpt lat="51.2045570" lon="5.7879740">
    <ele>30.2</ele>
    <time>2019-09-08T06:29:27Z</time>
   </trkpt>
   <trkpt lat="51.2046290" lon="5.7879700">
    <ele>30.2</ele>
    <time>2019-09-08T06:29:28Z</time>
   </trkpt>
   <trkpt lat="51.2046990" lon="5.7879550">
    <ele>30.2</ele>
    <time>2019-09-08T06:29:29Z</time>
   </trkpt>
   <trkpt lat="51.2047660" lon="5.7879440">
    <ele>30.2</ele>
    <time>2019-09-08T06:29:30Z</time>
   </trkpt>
   <trkpt lat="51.2048330" lon="5.7879410">
    <ele>30.1</ele>
    <time>2019-09-08T06:29:31Z</time>
   </trkpt>
   <trkpt lat="51.2049060" lon="5.7879420">
    <ele>30.1</ele>
    <time>2019-09-08T06:29:32Z</time>
   </trkpt>
   <trkpt lat="51.2049790" lon="5.7879400">
    <ele>30.1</ele>
    <time>2019-09-08T06:29:33Z</time>
   </trkpt>
   <trkpt lat="51.2050450" lon="5.7879390">
    <ele>30.1</ele>
    <time>2019-09-08T06:29:34Z</time>
   </trkpt>
   <trkpt lat="51.2051140" lon="5.7879330">
    <ele>30.1</ele>
    <time>2019-09-08T06:29:35Z</time>
   </trkpt>
   <trkpt lat="51.2051830" lon="5.7879250">
    <ele>30.0</ele>
    <time>2019-09-08T06:29:36Z</time>
   </trkpt>
   <trkpt lat="51.2052530" lon="5.7879310">
    <ele>30.0</ele>
    <time>2019-09-08T06:29:37Z</time>
   </trkpt>
   <trkpt lat="51.2053200" lon="5.7879280">
    <ele>30.0</ele>
    <time>2019-09-08T06:29:38Z</time>
   </trkpt>
   <trkpt lat="51.2053880" lon="5.7879230">
    <ele>30.0</ele>
    <time>2019-09-08T06:29:39Z</time>
   </trkpt>
   <trkpt lat="51.2054630" lon="5.7879220">
    <ele>30.0</ele>
    <time>2019-09-08T06:29:40Z</time>
   </trkpt>
   <trkpt lat="51.2055320" lon="5.7879230">
    <ele>29.9</ele>
    <time>2019-09-08T06:29:41Z</time>
   </trkpt>
   <trkpt lat="51.2056040" lon="5.7879200">
    <ele>29.9</ele>
    <time>2019-09-08T06:29:42Z</time>
   </trkpt>
   <trkpt lat="51.2056750" lon="5.7879100">
    <ele>29.9</ele>
    <time>2019-09-08T06:29:43Z</time>
   </trkpt>
   <trkpt lat="51.2057460" lon="5.7879070">
    <ele>29.8</ele>
    <time>2019-09-08T06:29:44Z</time>
   </trkpt>
   <trkpt lat="51.2058150" lon="5.7879020">
    <ele>29.8</ele>
    <time>2019-09-08T06:29:45Z</time>
   </trkpt>
   <trkpt lat="51.2058820" lon="5.7879000">
    <ele>29.8</ele>
    <time>2019-09-08T06:29:46Z</time>
   </trkpt>
   <trkpt lat="51.2059490" lon="5.7878960">
    <ele>29.8</ele>
    <time>2019-09-08T06:29:47Z</time>
   </trkpt>
   <trkpt lat="51.2060210" lon="5.7878920">
    <ele>29.8</ele>
    <time>2019-09-08T06:29:48Z</time>
   </trkpt>
   <trkpt lat="51.2060910" lon="5.7878910">
    <ele>29.8</ele>
    <time>2019-09-08T06:29:49Z</time>
   </trkpt>
   <trkpt lat="51.2061540" lon="5.7878820">
    <ele>29.9</ele>
    <time>2019-09-08T06:29:50Z</time>
   </trkpt>
   <trkpt lat="51.2062280" lon="5.7878750">
    <ele>29.9</ele>
    <time>2019-09-08T06:29:51Z</time>
   </trkpt>
   <trkpt lat="51.2062950" lon="5.7878770">
    <ele>30.0</ele>
    <time>2019-09-08T06:29:52Z</time>
   </trkpt>
   <trkpt lat="51.2063630" lon="5.7878730">
    <ele>30.2</ele>
    <time>2019-09-08T06:29:53Z</time>
   </trkpt>
   <trkpt lat="51.2064330" lon="5.7878730">
    <ele>30.3</ele>
    <time>2019-09-08T06:29:54Z</time>
   </trkpt>
   <trkpt lat="51.2064960" lon="5.7878680">
    <ele>30.5</ele>
    <time>2019-09-08T06:29:55Z</time>
   </trkpt>
   <trkpt lat="51.2065670" lon="5.7878570">
    <ele>30.6</ele>
    <time>2019-09-08T06:29:56Z</time>
   </trkpt>
   <trkpt lat="51.2066370" lon="5.7878530">
    <ele>30.8</ele>
    <time>2019-09-08T06:29:57Z</time>
   </trkpt>
   <trkpt lat="51.2067090" lon="5.7878440">
    <ele>30.9</ele>
    <time>2019-09-08T06:29:58Z</time>
   </trkpt>
   <trkpt lat="51.2067730" lon="5.7878360">
    <ele>31.0</ele>
    <time>2019-09-08T06:29:59Z</time>
   </trkpt>
   <trkpt lat="51.2068410" lon="5.7878360">
    <ele>31.2</ele>
    <time>2019-09-08T06:30:00Z</time>
   </trkpt>
   <trkpt lat="51.2069070" lon="5.7878300">
    <ele>31.3</ele>
    <time>2019-09-08T06:30:01Z</time>
   </trkpt>
   <trkpt lat="51.2069760" lon="5.7878210">
    <ele>31.4</ele>
    <time>2019-09-08T06:30:02Z</time>
   </trkpt>
   <trkpt lat="51.2070430" lon="5.7878100">
    <ele>31.6</ele>
    <time>2019-09-08T06:30:03Z</time>
   </trkpt>
   <trkpt lat="51.2071120" lon="5.7878010">
    <ele>31.6</ele>
    <time>2019-09-08T06:30:04Z</time>
   </trkpt>
   <trkpt lat="51.2071820" lon="5.7877940">
    <ele>31.7</ele>
    <time>2019-09-08T06:30:05Z</time>
   </trkpt>
   <trkpt lat="51.2072500" lon="5.7877920">
    <ele>31.7</ele>
    <time>2019-09-08T06:30:06Z</time>
   </trkpt>
   <trkpt lat="51.2073280" lon="5.7877910">
    <ele>31.7</ele>
    <time>2019-09-08T06:30:07Z</time>
   </trkpt>
   <trkpt lat="51.2073990" lon="5.7877930">
    <ele>31.7</ele>
    <time>2019-09-08T06:30:08Z</time>
   </trkpt>
   <trkpt lat="51.2074670" lon="5.7877880">
    <ele>31.7</ele>
    <time>2019-09-08T06:30:09Z</time>
   </trkpt>
   <trkpt lat="51.2075400" lon="5.7877800">
    <ele>31.6</ele>
    <time>2019-09-08T06:30:10Z</time>
   </trkpt>
   <trkpt lat="51.2076100" lon="5.7877810">
    <ele>31.5</ele>
    <time>2019-09-08T06:30:11Z</time>
   </trkpt>
   <trkpt lat="51.2076850" lon="5.7877790">
    <ele>31.4</ele>
    <time>2019-09-08T06:30:12Z</time>
   </trkpt>
   <trkpt lat="51.2077560" lon="5.7877730">
    <ele>31.4</ele>
    <time>2019-09-08T06:30:13Z</time>
   </trkpt>
   <trkpt lat="51.2078220" lon="5.7877690">
    <ele>31.3</ele>
    <time>2019-09-08T06:30:14Z</time>
   </trkpt>
   <trkpt lat="51.2078950" lon="5.7877650">
    <ele>31.2</ele>
    <time>2019-09-08T06:30:15Z</time>
   </trkpt>
   <trkpt lat="51.2079620" lon="5.7877620">
    <ele>31.2</ele>
    <time>2019-09-08T06:30:16Z</time>
   </trkpt>
   <trkpt lat="51.2080340" lon="5.7877560">
    <ele>31.1</ele>
    <time>2019-09-08T06:30:17Z</time>
   </trkpt>
   <trkpt lat="51.2081040" lon="5.7877480">
    <ele>31.0</ele>
    <time>2019-09-08T06:30:18Z</time>
   </trkpt>
   <trkpt lat="51.2081760" lon="5.7877440">
    <ele>31.0</ele>
    <time>2019-09-08T06:30:19Z</time>
   </trkpt>
   <trkpt lat="51.2082430" lon="5.7877380">
    <ele>31.0</ele>
    <time>2019-09-08T06:30:20Z</time>
   </trkpt>
   <trkpt lat="51.2083160" lon="5.7877360">
    <ele>30.9</ele>
    <time>2019-09-08T06:30:21Z</time>
   </trkpt>
   <trkpt lat="51.2083930" lon="5.7877380">
    <ele>30.9</ele>
    <time>2019-09-08T06:30:22Z</time>
   </trkpt>
   <trkpt lat="51.2084600" lon="5.7877350">
    <ele>30.8</ele>
    <time>2019-09-08T06:30:23Z</time>
   </trkpt>
   <trkpt lat="51.2085300" lon="5.7877290">
    <ele>30.8</ele>
    <time>2019-09-08T06:30:24Z</time>
   </trkpt>
   <trkpt lat="51.2085990" lon="5.7877290">
    <ele>30.7</ele>
    <time>2019-09-08T06:30:25Z</time>
   </trkpt>
   <trkpt lat="51.2086730" lon="5.7877320">
    <ele>30.7</ele>
    <time>2019-09-08T06:30:26Z</time>
   </trkpt>
   <trkpt lat="51.2087410" lon="5.7877200">
    <ele>30.7</ele>
    <time>2019-09-08T06:30:27Z</time>
   </trkpt>
   <trkpt lat="51.2088070" lon="5.7877110">
    <ele>30.7</ele>
    <time>2019-09-08T06:30:28Z</time>
   </trkpt>
   <trkpt lat="51.2088750" lon="5.7877100">
    <ele>30.7</ele>
    <time>2019-09-08T06:30:29Z</time>
   </trkpt>
   <trkpt lat="51.2089400" lon="5.7877140">
    <ele>30.7</ele>
    <time>2019-09-08T06:30:30Z</time>
   </trkpt>
   <trkpt lat="51.2090140" lon="5.7877170">
    <ele>30.7</ele>
    <time>2019-09-08T06:30:31Z</time>
   </trkpt>
   <trkpt lat="51.2090820" lon="5.7877060">
    <ele>30.7</ele>
    <time>2019-09-08T06:30:32Z</time>
   </trkpt>
   <trkpt lat="51.2091490" lon="5.7877070">
    <ele>30.7</ele>
    <time>2019-09-08T06:30:33Z</time>
   </trkpt>
   <trkpt lat="51.2092100" lon="5.7877140">
    <ele>30.7</ele>
    <time>2019-09-08T06:30:34Z</time>
   </trkpt>
   <trkpt lat="51.2092780" lon="5.7877150">
    <ele>30.7</ele>
    <time>2019-09-08T06:30:35Z</time>
   </trkpt>
   <trkpt lat="51.2093470" lon="5.7877170">
    <ele>30.7</ele>
    <time>2019-09-08T06:30:36Z</time>
   </trkpt>
   <trkpt lat="51.2094160" lon="5.7877160">
    <ele>30.6</ele>
    <time>2019-09-08T06:30:37Z</time>
   </trkpt>
   <trkpt lat="51.2094870" lon="5.7877170">
    <ele>30.6</ele>
    <time>2019-09-08T06:30:38Z</time>
   </trkpt>
   <trkpt lat="51.2095590" lon="5.7877200">
    <ele>30.5</ele>
    <time>2019-09-08T06:30:39Z</time>
   </trkpt>
   <trkpt lat="51.2096280" lon="5.7877250">
    <ele>30.5</ele>
    <time>2019-09-08T06:30:40Z</time>
   </trkpt>
   <trkpt lat="51.2096980" lon="5.7877280">
    <ele>30.5</ele>
    <time>2019-09-08T06:30:41Z</time>
   </trkpt>
   <trkpt lat="51.2097690" lon="5.7877250">
    <ele>30.4</ele>
    <time>2019-09-08T06:30:42Z</time>
   </trkpt>
   <trkpt lat="51.2098450" lon="5.7877270">
    <ele>30.4</ele>
    <time>2019-09-08T06:30:43Z</time>
   </trkpt>
   <trkpt lat="51.2099080" lon="5.7877260">
    <ele>30.4</ele>
    <time>2019-09-08T06:30:44Z</time>
   </trkpt>
   <trkpt lat="51.2099770" lon="5.7877370">
    <ele>30.3</ele>
    <time>2019-09-08T06:30:45Z</time>
   </trkpt>
   <trkpt lat="51.2100480" lon="5.7877370">
    <ele>30.3</ele>
    <time>2019-09-08T06:30:46Z</time>
   </trkpt>
   <trkpt lat="51.2101190" lon="5.7877380">
    <ele>30.3</ele>
    <time>2019-09-08T06:30:47Z</time>
   </trkpt>
   <trkpt lat="51.2101910" lon="5.7877390">
    <ele>30.3</ele>
    <time>2019-09-08T06:30:48Z</time>
   </trkpt>
   <trkpt lat="51.2102610" lon="5.7877360">
    <ele>30.3</ele>
    <time>2019-09-08T06:30:49Z</time>
   </trkpt>
   <trkpt lat="51.2103300" lon="5.7877390">
    <ele>30.3</ele>
    <time>2019-09-08T06:30:50Z</time>
   </trkpt>
   <trkpt lat="51.2104090" lon="5.7877460">
    <ele>30.3</ele>
    <time>2019-09-08T06:30:51Z</time>
   </trkpt>
   <trkpt lat="51.2104810" lon="5.7877490">
    <ele>30.3</ele>
    <time>2019-09-08T06:30:52Z</time>
   </trkpt>
   <trkpt lat="51.2105510" lon="5.7877520">
    <ele>30.3</ele>
    <time>2019-09-08T06:30:53Z</time>
   </trkpt>
   <trkpt lat="51.2106200" lon="5.7877540">
    <ele>30.3</ele>
    <time>2019-09-08T06:30:54Z</time>
   </trkpt>
   <trkpt lat="51.2106890" lon="5.7877610">
    <ele>30.3</ele>
    <time>2019-09-08T06:30:55Z</time>
   </trkpt>
   <trkpt lat="51.2107600" lon="5.7877710">
    <ele>30.2</ele>
    <time>2019-09-08T06:30:56Z</time>
   </trkpt>
   <trkpt lat="51.2108360" lon="5.7877840">
    <ele>30.2</ele>
    <time>2019-09-08T06:30:57Z</time>
   </trkpt>
   <trkpt lat="51.2109080" lon="5.7877920">
    <ele>30.2</ele>
    <time>2019-09-08T06:30:58Z</time>
   </trkpt>
   <trkpt lat="51.2109790" lon="5.7878010">
    <ele>30.2</ele>
    <time>2019-09-08T06:30:59Z</time>
   </trkpt>
   <trkpt lat="51.2110440" lon="5.7878110">
    <ele>30.2</ele>
    <time>2019-09-08T06:31:00Z</time>
   </trkpt>
   <trkpt lat="51.2111090" lon="5.7878220">
    <ele>30.3</ele>
    <time>2019-09-08T06:31:01Z</time>
   </trkpt>
   <trkpt lat="51.2111800" lon="5.7878290">
    <ele>30.3</ele>
    <time>2019-09-08T06:31:02Z</time>
   </trkpt>
   <trkpt lat="51.2112490" lon="5.7878370">
    <ele>30.4</ele>
    <time>2019-09-08T06:31:03Z</time>
   </trkpt>
   <trkpt lat="51.2113160" lon="5.7878390">
    <ele>30.5</ele>
    <time>2019-09-08T06:31:04Z</time>
   </trkpt>
   <trkpt lat="51.2113940" lon="5.7878610">
    <ele>30.5</ele>
    <time>2019-09-08T06:31:05Z</time>
   </trkpt>
   <trkpt lat="51.2114600" lon="5.7878620">
    <ele>30.6</ele>
    <time>2019-09-08T06:31:06Z</time>
   </trkpt>
   <trkpt lat="51.2115340" lon="5.7878760">
    <ele>30.7</ele>
    <time>2019-09-08T06:31:07Z</time>
   </trkpt>
   <trkpt lat="51.2116110" lon="5.7879060">
    <ele>30.7</ele>
    <time>2019-09-08T06:31:08Z</time>
   </trkpt>
   <trkpt lat="51.2116710" lon="5.7879290">
    <ele>30.7</ele>
    <time>2019-09-08T06:31:09Z</time>
   </trkpt>
   <trkpt lat="51.2117480" lon="5.7879620">
    <ele>30.8</ele>
    <time>2019-09-08T06:31:10Z</time>
   </trkpt>
   <trkpt lat="51.2118070" lon="5.7879680">
    <ele>30.8</ele>
    <time>2019-09-08T06:31:11Z</time>
   </trkpt>
   <trkpt lat="51.2118750" lon="5.7879730">
    <ele>30.8</ele>
    <time>2019-09-08T06:31:12Z</time>
   </trkpt>
   <trkpt lat="51.2119460" lon="5.7879860">
    <ele>30.8</ele>
    <time>2019-09-08T06:31:13Z</time>
   </trkpt>
   <trkpt lat="51.2120120" lon="5.7879990">
    <ele>30.8</ele>
    <time>2019-09-08T06:31:14Z</time>
   </trkpt>
   <trkpt lat="51.2120790" lon="5.7880170">
    <ele>30.7</ele>
    <time>2019-09-08T06:31:15Z</time>
   </trkpt>
   <trkpt lat="51.2121430" lon="5.7880280">
    <ele>30.7</ele>
    <time>2019-09-08T06:31:16Z</time>
   </trkpt>
   <trkpt lat="51.2122060" lon="5.7880440">
    <ele>30.6</ele>
    <time>2019-09-08T06:31:17Z</time>
   </trkpt>
   <trkpt lat="51.2122700" lon="5.7880520">
    <ele>30.6</ele>
    <time>2019-09-08T06:31:18Z</time>
   </trkpt>
   <trkpt lat="51.2123410" lon="5.7880730">
    <ele>30.5</ele>
    <time>2019-09-08T06:31:19Z</time>
   </trkpt>
   <trkpt lat="51.2124210" lon="5.7880920">
    <ele>30.4</ele>
    <time>2019-09-08T06:31:20Z</time>
   </trkpt>
   <trkpt lat="51.2124890" lon="5.7881170">
    <ele>30.3</ele>
    <time>2019-09-08T06:31:21Z</time>
   </trkpt>
   <trkpt lat="51.2125600" lon="5.7881410">
    <ele>30.3</ele>
    <time>2019-09-08T06:31:22Z</time>
   </trkpt>
   <trkpt lat="51.2126270" lon="5.7881740">
    <ele>30.2</ele>
    <time>2019-09-08T06:31:23Z</time>
   </trkpt>
   <trkpt lat="51.2126860" lon="5.7882190">
    <ele>30.2</ele>
    <time>2019-09-08T06:31:24Z</time>
   </trkpt>
   <trkpt lat="51.2127520" lon="5.7882600">
    <ele>30.2</ele>
    <time>2019-09-08T06:31:25Z</time>
   </trkpt>
   <trkpt lat="51.2128190" lon="5.7883130">
    <ele>30.2</ele>
    <time>2019-09-08T06:31:26Z</time>
   </trkpt>
   <trkpt lat="51.2128790" lon="5.7883660">
    <ele>30.1</ele>
    <time>2019-09-08T06:31:27Z</time>
   </trkpt>
   <trkpt lat="51.2129390" lon="5.7884160">
    <ele>30.1</ele>
    <time>2019-09-08T06:31:28Z</time>
   </trkpt>
   <trkpt lat="51.2130010" lon="5.7884600">
    <ele>30.1</ele>
    <time>2019-09-08T06:31:29Z</time>
   </trkpt>
   <trkpt lat="51.2130670" lon="5.7885030">
    <ele>30.1</ele>
    <time>2019-09-08T06:31:30Z</time>
   </trkpt>
   <trkpt lat="51.2131290" lon="5.7885560">
    <ele>30.1</ele>
    <time>2019-09-08T06:31:31Z</time>
   </trkpt>
   <trkpt lat="51.2131850" lon="5.7886160">
    <ele>30.1</ele>
    <time>2019-09-08T06:31:32Z</time>
   </trkpt>
   <trkpt lat="51.2132430" lon="5.7886660">
    <ele>30.1</ele>
    <time>2019-09-08T06:31:33Z</time>
   </trkpt>
   <trkpt lat="51.2133040" lon="5.7887210">
    <ele>30.1</ele>
    <time>2019-09-08T06:31:34Z</time>
   </trkpt>
   <trkpt lat="51.2133610" lon="5.7887710">
    <ele>30.1</ele>
    <time>2019-09-08T06:31:35Z</time>
   </trkpt>
   <trkpt lat="51.2134210" lon="5.7888150">
    <ele>30.1</ele>
    <time>2019-09-08T06:31:36Z</time>
   </trkpt>
   <trkpt lat="51.2134810" lon="5.7888690">
    <ele>30.0</ele>
    <time>2019-09-08T06:31:37Z</time>
   </trkpt>
   <trkpt lat="51.2135410" lon="5.7889190">
    <ele>30.0</ele>
    <time>2019-09-08T06:31:38Z</time>
   </trkpt>
   <trkpt lat="51.2136000" lon="5.7889690">
    <ele>29.9</ele>
    <time>2019-09-08T06:31:39Z</time>
   </trkpt>
   <trkpt lat="51.2136640" lon="5.7890210">
    <ele>29.8</ele>
    <time>2019-09-08T06:31:40Z</time>
   </trkpt>
   <trkpt lat="51.2137250" lon="5.7890730">
    <ele>29.7</ele>
    <time>2019-09-08T06:31:41Z</time>
   </trkpt>
   <trkpt lat="51.2137880" lon="5.7891250">
    <ele>29.7</ele>
    <time>2019-09-08T06:31:42Z</time>
   </trkpt>
   <trkpt lat="51.2138490" lon="5.7891710">
    <ele>29.6</ele>
    <time>2019-09-08T06:31:43Z</time>
   </trkpt>
   <trkpt lat="51.2139100" lon="5.7892230">
    <ele>29.5</ele>
    <time>2019-09-08T06:31:44Z</time>
   </trkpt>
   <trkpt lat="51.2139710" lon="5.7892850">
    <ele>29.5</ele>
    <time>2019-09-08T06:31:45Z</time>
   </trkpt>
   <trkpt lat="51.2140310" lon="5.7893490">
    <ele>29.5</ele>
    <time>2019-09-08T06:31:46Z</time>
   </trkpt>
   <trkpt lat="51.2140940" lon="5.7894170">
    <ele>29.5</ele>
    <time>2019-09-08T06:31:47Z</time>
   </trkpt>
   <trkpt lat="51.2141560" lon="5.7894830">
    <ele>29.4</ele>
    <time>2019-09-08T06:31:48Z</time>
   </trkpt>
   <trkpt lat="51.2142290" lon="5.7895470">
    <ele>29.5</ele>
    <time>2019-09-08T06:31:49Z</time>
   </trkpt>
   <trkpt lat="51.2142890" lon="5.7896090">
    <ele>29.5</ele>
    <time>2019-09-08T06:31:50Z</time>
   </trkpt>
   <trkpt lat="51.2143450" lon="5.7896630">
    <ele>29.5</ele>
    <time>2019-09-08T06:31:51Z</time>
   </trkpt>
   <trkpt lat="51.2144010" lon="5.7897200">
    <ele>29.5</ele>
    <time>2019-09-08T06:31:52Z</time>
   </trkpt>
   <trkpt lat="51.2144660" lon="5.7897590">
    <ele>29.5</ele>
    <time>2019-09-08T06:31:53Z</time>
   </trkpt>
   <trkpt lat="51.2145230" lon="5.7898240">
    <ele>29.5</ele>
    <time>2019-09-08T06:31:54Z</time>
   </trkpt>
   <trkpt lat="51.2145820" lon="5.7898750">
    <ele>29.5</ele>
    <time>2019-09-08T06:31:55Z</time>
   </trkpt>
   <trkpt lat="51.2146460" lon="5.7899460">
    <ele>29.5</ele>
    <time>2019-09-08T06:31:56Z</time>
   </trkpt>
   <trkpt lat="51.2147130" lon="5.7900150">
    <ele>29.5</ele>
    <time>2019-09-08T06:31:57Z</time>
   </trkpt>
   <trkpt lat="51.2147750" lon="5.7900710">
    <ele>29.5</ele>
    <time>2019-09-08T06:31:58Z</time>
   </trkpt>
   <trkpt lat="51.2148430" lon="5.7901360">
    <ele>29.5</ele>
    <time>2019-09-08T06:31:59Z</time>
   </trkpt>
   <trkpt lat="51.2149050" lon="5.7901880">
    <ele>29.5</ele>
    <time>2019-09-08T06:32:00Z</time>
   </trkpt>
   <trkpt lat="51.2149680" lon="5.7902490">
    <ele>29.5</ele>
    <time>2019-09-08T06:32:01Z</time>
   </trkpt>
   <trkpt lat="51.2150270" lon="5.7903010">
    <ele>29.5</ele>
    <time>2019-09-08T06:32:02Z</time>
   </trkpt>
   <trkpt lat="51.2150920" lon="5.7903500">
    <ele>29.5</ele>
    <time>2019-09-08T06:32:03Z</time>
   </trkpt>
   <trkpt lat="51.2151550" lon="5.7903880">
    <ele>29.5</ele>
    <time>2019-09-08T06:32:04Z</time>
   </trkpt>
   <trkpt lat="51.2152190" lon="5.7904200">
    <ele>29.4</ele>
    <time>2019-09-08T06:32:05Z</time>
   </trkpt>
   <trkpt lat="51.2152890" lon="5.7904470">
    <ele>29.4</ele>
    <time>2019-09-08T06:32:06Z</time>
   </trkpt>
   <trkpt lat="51.2153580" lon="5.7904820">
    <ele>29.4</ele>
    <time>2019-09-08T06:32:07Z</time>
   </trkpt>
   <trkpt lat="51.2154240" lon="5.7904990">
    <ele>29.4</ele>
    <time>2019-09-08T06:32:08Z</time>
   </trkpt>
   <trkpt lat="51.2154900" lon="5.7905140">
    <ele>29.4</ele>
    <time>2019-09-08T06:32:09Z</time>
   </trkpt>
   <trkpt lat="51.2155540" lon="5.7905400">
    <ele>29.4</ele>
    <time>2019-09-08T06:32:10Z</time>
   </trkpt>
   <trkpt lat="51.2156200" lon="5.7905670">
    <ele>29.4</ele>
    <time>2019-09-08T06:32:11Z</time>
   </trkpt>
   <trkpt lat="51.2156820" lon="5.7905830">
    <ele>29.4</ele>
    <time>2019-09-08T06:32:12Z</time>
   </trkpt>
   <trkpt lat="51.2157440" lon="5.7906060">
    <ele>29.4</ele>
    <time>2019-09-08T06:32:13Z</time>
   </trkpt>
   <trkpt lat="51.2158090" lon="5.7906260">
    <ele>29.4</ele>
    <time>2019-09-08T06:32:14Z</time>
   </trkpt>
   <trkpt lat="51.2158840" lon="5.7906550">
    <ele>29.4</ele>
    <time>2019-09-08T06:32:15Z</time>
   </trkpt>
   <trkpt lat="51.2159530" lon="5.7906900">
    <ele>29.5</ele>
    <time>2019-09-08T06:32:16Z</time>
   </trkpt>
   <trkpt lat="51.2160210" lon="5.7907140">
    <ele>29.5</ele>
    <time>2019-09-08T06:32:17Z</time>
   </trkpt>
   <trkpt lat="51.2160840" lon="5.7907370">
    <ele>29.5</ele>
    <time>2019-09-08T06:32:18Z</time>
   </trkpt>
   <trkpt lat="51.2161570" lon="5.7907690">
    <ele>29.5</ele>
    <time>2019-09-08T06:32:19Z</time>
   </trkpt>
   <trkpt lat="51.2162130" lon="5.7907940">
    <ele>29.5</ele>
    <time>2019-09-08T06:32:20Z</time>
   </trkpt>
   <trkpt lat="51.2162840" lon="5.7908260">
    <ele>29.6</ele>
    <time>2019-09-08T06:32:21Z</time>
   </trkpt>
   <trkpt lat="51.2163460" lon="5.7908790">
    <ele>29.6</ele>
    <time>2019-09-08T06:32:22Z</time>
   </trkpt>
   <trkpt lat="51.2164070" lon="5.7909150">
    <ele>29.6</ele>
    <time>2019-09-08T06:32:23Z</time>
   </trkpt>
   <trkpt lat="51.2164720" lon="5.7909640">
    <ele>29.6</ele>
    <time>2019-09-08T06:32:24Z</time>
   </trkpt>
   <trkpt lat="51.2165340" lon="5.7910100">
    <ele>29.6</ele>
    <time>2019-09-08T06:32:25Z</time>
   </trkpt>
   <trkpt lat="51.2165940" lon="5.7910610">
    <ele>29.6</ele>
    <time>2019-09-08T06:32:26Z</time>
   </trkpt>
   <trkpt lat="51.2166580" lon="5.7911220">
    <ele>29.6</ele>
    <time>2019-09-08T06:32:27Z</time>
   </trkpt>
   <trkpt lat="51.2167240" lon="5.7911800">
    <ele>29.7</ele>
    <time>2019-09-08T06:32:28Z</time>
   </trkpt>
   <trkpt lat="51.2167790" lon="5.7912290">
    <ele>29.7</ele>
    <time>2019-09-08T06:32:29Z</time>
   </trkpt>
   <trkpt lat="51.2168450" lon="5.7912860">
    <ele>29.7</ele>
    <time>2019-09-08T06:32:30Z</time>
   </trkpt>
   <trkpt lat="51.2169030" lon="5.7913500">
    <ele>29.7</ele>
    <time>2019-09-08T06:32:31Z</time>
   </trkpt>
   <trkpt lat="51.2169600" lon="5.7913980">
    <ele>29.7</ele>
    <time>2019-09-08T06:32:32Z</time>
   </trkpt>
   <trkpt lat="51.2170130" lon="5.7914450">
    <ele>29.7</ele>
    <time>2019-09-08T06:32:33Z</time>
   </trkpt>
   <trkpt lat="51.2170710" lon="5.7915010">
    <ele>29.8</ele>
    <time>2019-09-08T06:32:34Z</time>
   </trkpt>
   <trkpt lat="51.2171420" lon="5.7915630">
    <ele>29.8</ele>
    <time>2019-09-08T06:32:35Z</time>
   </trkpt>
   <trkpt lat="51.2171970" lon="5.7916240">
    <ele>29.8</ele>
    <time>2019-09-08T06:32:36Z</time>
   </trkpt>
   <trkpt lat="51.2172650" lon="5.7916930">
    <ele>29.8</ele>
    <time>2019-09-08T06:32:37Z</time>
   </trkpt>
   <trkpt lat="51.2173190" lon="5.7917480">
    <ele>29.8</ele>
    <time>2019-09-08T06:32:38Z</time>
   </trkpt>
   <trkpt lat="51.2173720" lon="5.7918080">
    <ele>29.8</ele>
    <time>2019-09-08T06:32:39Z</time>
   </trkpt>
   <trkpt lat="51.2174330" lon="5.7918630">
    <ele>29.8</ele>
    <time>2019-09-08T06:32:40Z</time>
   </trkpt>
   <trkpt lat="51.2174880" lon="5.7919070">
    <ele>29.8</ele>
    <time>2019-09-08T06:32:41Z</time>
   </trkpt>
   <trkpt lat="51.2175430" lon="5.7919660">
    <ele>29.8</ele>
    <time>2019-09-08T06:32:42Z</time>
   </trkpt>
   <trkpt lat="51.2175950" lon="5.7920370">
    <ele>29.9</ele>
    <time>2019-09-08T06:32:43Z</time>
   </trkpt>
   <trkpt lat="51.2176440" lon="5.7921080">
    <ele>29.9</ele>
    <time>2019-09-08T06:32:44Z</time>
   </trkpt>
   <trkpt lat="51.2176940" lon="5.7921760">
    <ele>30.0</ele>
    <time>2019-09-08T06:32:45Z</time>
   </trkpt>
   <trkpt lat="51.2177540" lon="5.7922410">
    <ele>30.0</ele>
    <time>2019-09-08T06:32:46Z</time>
   </trkpt>
   <trkpt lat="51.2178060" lon="5.7923200">
    <ele>30.1</ele>
    <time>2019-09-08T06:32:47Z</time>
   </trkpt>
   <trkpt lat="51.2178600" lon="5.7923990">
    <ele>30.2</ele>
    <time>2019-09-08T06:32:48Z</time>
   </trkpt>
   <trkpt lat="51.2179090" lon="5.7924770">
    <ele>30.3</ele>
    <time>2019-09-08T06:32:49Z</time>
   </trkpt>
   <trkpt lat="51.2179600" lon="5.7925480">
    <ele>30.2</ele>
    <time>2019-09-08T06:32:50Z</time>
   </trkpt>
   <trkpt lat="51.2180110" lon="5.7926200">
    <ele>30.1</ele>
    <time>2019-09-08T06:32:51Z</time>
   </trkpt>
   <trkpt lat="51.2180640" lon="5.7926900">
    <ele>30.1</ele>
    <time>2019-09-08T06:32:52Z</time>
   </trkpt>
   <trkpt lat="51.2181220" lon="5.7927550">
    <ele>30.0</ele>
    <time>2019-09-08T06:32:53Z</time>
   </trkpt>
   <trkpt lat="51.2181740" lon="5.7928390">
    <ele>30.0</ele>
    <time>2019-09-08T06:32:54Z</time>
   </trkpt>
   <trkpt lat="51.2182240" lon="5.7929160">
    <ele>30.0</ele>
    <time>2019-09-08T06:32:55Z</time>
   </trkpt>
   <trkpt lat="51.2182670" lon="5.7929950">
    <ele>30.0</ele>
    <time>2019-09-08T06:32:56Z</time>
   </trkpt>
   <trkpt lat="51.2183160" lon="5.7930720">
    <ele>30.0</ele>
    <time>2019-09-08T06:32:57Z</time>
   </trkpt>
   <trkpt lat="51.2183570" lon="5.7931570">
    <ele>30.0</ele>
    <time>2019-09-08T06:32:58Z</time>
   </trkpt>
   <trkpt lat="51.2184020" lon="5.7932390">
    <ele>30.0</ele>
    <time>2019-09-08T06:32:59Z</time>
   </trkpt>
   <trkpt lat="51.2184500" lon="5.7933190">
    <ele>30.0</ele>
    <time>2019-09-08T06:33:00Z</time>
   </trkpt>
   <trkpt lat="51.2185020" lon="5.7934070">
    <ele>30.1</ele>
    <time>2019-09-08T06:33:01Z</time>
   </trkpt>
   <trkpt lat="51.2185460" lon="5.7934890">
    <ele>30.1</ele>
    <time>2019-09-08T06:33:02Z</time>
   </trkpt>
   <trkpt lat="51.2185900" lon="5.7935800">
    <ele>30.0</ele>
    <time>2019-09-08T06:33:03Z</time>
   </trkpt>
   <trkpt lat="51.2186360" lon="5.7936660">
    <ele>30.0</ele>
    <time>2019-09-08T06:33:04Z</time>
   </trkpt>
   <trkpt lat="51.2186870" lon="5.7937520">
    <ele>30.0</ele>
    <time>2019-09-08T06:33:05Z</time>
   </trkpt>
   <trkpt lat="51.2187320" lon="5.7938300">
    <ele>29.9</ele>
    <time>2019-09-08T06:33:06Z</time>
   </trkpt>
   <trkpt lat="51.2187840" lon="5.7939020">
    <ele>29.9</ele>
    <time>2019-09-08T06:33:07Z</time>
   </trkpt>
   <trkpt lat="51.2188310" lon="5.7939790">
    <ele>29.9</ele>
    <time>2019-09-08T06:33:08Z</time>
   </trkpt>
   <trkpt lat="51.2188860" lon="5.7940680">
    <ele>29.8</ele>
    <time>2019-09-08T06:33:09Z</time>
   </trkpt>
   <trkpt lat="51.2189400" lon="5.7941410">
    <ele>29.8</ele>
    <time>2019-09-08T06:33:10Z</time>
   </trkpt>
   <trkpt lat="51.2190010" lon="5.7942030">
    <ele>29.8</ele>
    <time>2019-09-08T06:33:11Z</time>
   </trkpt>
   <trkpt lat="51.2190570" lon="5.7942690">
    <ele>29.9</ele>
    <time>2019-09-08T06:33:12Z</time>
   </trkpt>
   <trkpt lat="51.2191100" lon="5.7943340">
    <ele>29.9</ele>
    <time>2019-09-08T06:33:13Z</time>
   </trkpt>
   <trkpt lat="51.2191670" lon="5.7943900">
    <ele>29.9</ele>
    <time>2019-09-08T06:33:14Z</time>
   </trkpt>
   <trkpt lat="51.2192220" lon="5.7944320">
    <ele>29.9</ele>
    <time>2019-09-08T06:33:15Z</time>
   </trkpt>
   <trkpt lat="51.2192860" lon="5.7944900">
    <ele>30.0</ele>
    <time>2019-09-08T06:33:16Z</time>
   </trkpt>
   <trkpt lat="51.2193410" lon="5.7945400">
    <ele>30.0</ele>
    <time>2019-09-08T06:33:17Z</time>
   </trkpt>
   <trkpt lat="51.2193790" lon="5.7945830">
    <ele>30.1</ele>
    <time>2019-09-08T06:33:18Z</time>
   </trkpt>
   <trkpt lat="51.2194340" lon="5.7946370">
    <ele>30.1</ele>
    <time>2019-09-08T06:33:19Z</time>
   </trkpt>
   <trkpt lat="51.2194830" lon="5.7946740">
    <ele>30.1</ele>
    <time>2019-09-08T06:33:20Z</time>
   </trkpt>
   <trkpt lat="51.2195340" lon="5.7947280">
    <ele>30.2</ele>
    <time>2019-09-08T06:33:21Z</time>
   </trkpt>
   <trkpt lat="51.2195720" lon="5.7947760">
    <ele>30.2</ele>
    <time>2019-09-08T06:33:22Z</time>
   </trkpt>
   <trkpt lat="51.2196030" lon="5.7948230">
    <ele>30.2</ele>
    <time>2019-09-08T06:33:23Z</time>
   </trkpt>
   <trkpt lat="51.2196360" lon="5.7948670">
    <ele>30.3</ele>
    <time>2019-09-08T06:33:24Z</time>
   </trkpt>
   <trkpt lat="51.2196690" lon="5.7949150">
    <ele>30.4</ele>
    <time>2019-09-08T06:33:25Z</time>
   </trkpt>
   <trkpt lat="51.2196940" lon="5.7949550">
    <ele>30.5</ele>
    <time>2019-09-08T06:33:26Z</time>
   </trkpt>
   <trkpt lat="51.2197350" lon="5.7950330">
    <ele>30.7</ele>
    <time>2019-09-08T06:33:28Z</time>
   </trkpt>
   <trkpt lat="51.2197660" lon="5.7950760">
    <ele>30.9</ele>
    <time>2019-09-08T06:33:29Z</time>
   </trkpt>
   <trkpt lat="51.2197960" lon="5.7951280">
    <ele>31.1</ele>
    <time>2019-09-08T06:33:30Z</time>
   </trkpt>
   <trkpt lat="51.2198390" lon="5.7952120">
    <ele>31.1</ele>
    <time>2019-09-08T06:33:31Z</time>
   </trkpt>
   <trkpt lat="51.2198840" lon="5.7952870">
    <ele>31.1</ele>
    <time>2019-09-08T06:33:32Z</time>
   </trkpt>
   <trkpt lat="51.2199220" lon="5.7953610">
    <ele>31.1</ele>
    <time>2019-09-08T06:33:33Z</time>
   </trkpt>
   <trkpt lat="51.2199640" lon="5.7954430">
    <ele>31.0</ele>
    <time>2019-09-08T06:33:34Z</time>
   </trkpt>
   <trkpt lat="51.2200070" lon="5.7955400">
    <ele>30.9</ele>
    <time>2019-09-08T06:33:35Z</time>
   </trkpt>
   <trkpt lat="51.2200560" lon="5.7956310">
    <ele>30.8</ele>
    <time>2019-09-08T06:33:36Z</time>
   </trkpt>
   <trkpt lat="51.2201020" lon="5.7957140">
    <ele>30.7</ele>
    <time>2019-09-08T06:33:37Z</time>
   </trkpt>
   <trkpt lat="51.2201440" lon="5.7958050">
    <ele>30.6</ele>
    <time>2019-09-08T06:33:38Z</time>
   </trkpt>
   <trkpt lat="51.2201880" lon="5.7958960">
    <ele>30.5</ele>
    <time>2019-09-08T06:33:39Z</time>
   </trkpt>
   <trkpt lat="51.2202360" lon="5.7959910">
    <ele>30.4</ele>
    <time>2019-09-08T06:33:40Z</time>
   </trkpt>
   <trkpt lat="51.2202820" lon="5.7960770">
    <ele>30.4</ele>
    <time>2019-09-08T06:33:41Z</time>
   </trkpt>
   <trkpt lat="51.2203180" lon="5.7961710">
    <ele>30.4</ele>
    <time>2019-09-08T06:33:42Z</time>
   </trkpt>
   <trkpt lat="51.2203570" lon="5.7962720">
    <ele>30.5</ele>
    <time>2019-09-08T06:33:43Z</time>
   </trkpt>
   <trkpt lat="51.2203970" lon="5.7963730">
    <ele>30.5</ele>
    <time>2019-09-08T06:33:44Z</time>
   </trkpt>
   <trkpt lat="51.2204320" lon="5.7964690">
    <ele>30.4</ele>
    <time>2019-09-08T06:33:45Z</time>
   </trkpt>
   <trkpt lat="51.2204710" lon="5.7965690">
    <ele>30.4</ele>
    <time>2019-09-08T06:33:46Z</time>
   </trkpt>
   <trkpt lat="51.2204950" lon="5.7966580">
    <ele>30.3</ele>
    <time>2019-09-08T06:33:47Z</time>
   </trkpt>
   <trkpt lat="51.2205360" lon="5.7967590">
    <ele>30.2</ele>
    <time>2019-09-08T06:33:48Z</time>
   </trkpt>
   <trkpt lat="51.2205700" lon="5.7968530">
    <ele>30.1</ele>
    <time>2019-09-08T06:33:49Z</time>
   </trkpt>
   <trkpt lat="51.2206040" lon="5.7969450">
    <ele>30.1</ele>
    <time>2019-09-08T06:33:50Z</time>
   </trkpt>
   <trkpt lat="51.2206450" lon="5.7970360">
    <ele>30.0</ele>
    <time>2019-09-08T06:33:51Z</time>
   </trkpt>
   <trkpt lat="51.2206850" lon="5.7971300">
    <ele>30.0</ele>
    <time>2019-09-08T06:33:52Z</time>
   </trkpt>
   <trkpt lat="51.2207280" lon="5.7972300">
    <ele>30.0</ele>
    <time>2019-09-08T06:33:53Z</time>
   </trkpt>
   <trkpt lat="51.2207700" lon="5.7973280">
    <ele>30.0</ele>
    <time>2019-09-08T06:33:54Z</time>
   </trkpt>
   <trkpt lat="51.2208120" lon="5.7974230">
    <ele>29.9</ele>
    <time>2019-09-08T06:33:55Z</time>
   </trkpt>
   <trkpt lat="51.2208510" lon="5.7975080">
    <ele>29.9</ele>
    <time>2019-09-08T06:33:56Z</time>
   </trkpt>
   <trkpt lat="51.2208970" lon="5.7975890">
    <ele>29.9</ele>
    <time>2019-09-08T06:33:57Z</time>
   </trkpt>
   <trkpt lat="51.2209450" lon="5.7976610">
    <ele>29.9</ele>
    <time>2019-09-08T06:33:58Z</time>
   </trkpt>
   <trkpt lat="51.2209970" lon="5.7977380">
    <ele>29.8</ele>
    <time>2019-09-08T06:33:59Z</time>
   </trkpt>
   <trkpt lat="51.2210500" lon="5.7978190">
    <ele>29.8</ele>
    <time>2019-09-08T06:34:00Z</time>
   </trkpt>
   <trkpt lat="51.2211050" lon="5.7978930">
    <ele>29.8</ele>
    <time>2019-09-08T06:34:01Z</time>
   </trkpt>
   <trkpt lat="51.2211590" lon="5.7979610">
    <ele>29.7</ele>
    <time>2019-09-08T06:34:02Z</time>
   </trkpt>
   <trkpt lat="51.2212150" lon="5.7980220">
    <ele>29.7</ele>
    <time>2019-09-08T06:34:03Z</time>
   </trkpt>
   <trkpt lat="51.2212740" lon="5.7980900">
    <ele>29.7</ele>
    <time>2019-09-08T06:34:04Z</time>
   </trkpt>
   <trkpt lat="51.2213330" lon="5.7981440">
    <ele>29.6</ele>
    <time>2019-09-08T06:34:05Z</time>
   </trkpt>
   <trkpt lat="51.2213880" lon="5.7982110">
    <ele>29.6</ele>
    <time>2019-09-08T06:34:06Z</time>
   </trkpt>
   <trkpt lat="51.2214420" lon="5.7982720">
    <ele>29.6</ele>
    <time>2019-09-08T06:34:07Z</time>
   </trkpt>
   <trkpt lat="51.2214950" lon="5.7983090">
    <ele>29.6</ele>
    <time>2019-09-08T06:34:08Z</time>
   </trkpt>
   <trkpt lat="51.2215590" lon="5.7983630">
    <ele>29.6</ele>
    <time>2019-09-08T06:34:09Z</time>
   </trkpt>
   <trkpt lat="51.2216330" lon="5.7984060">
    <ele>29.6</ele>
    <time>2019-09-08T06:34:10Z</time>
   </trkpt>
   <trkpt lat="51.2216920" lon="5.7984580">
    <ele>29.6</ele>
    <time>2019-09-08T06:34:11Z</time>
   </trkpt>
   <trkpt lat="51.2217530" lon="5.7985090">
    <ele>29.6</ele>
    <time>2019-09-08T06:34:12Z</time>
   </trkpt>
   <trkpt lat="51.2218120" lon="5.7985650">
    <ele>29.6</ele>
    <time>2019-09-08T06:34:13Z</time>
   </trkpt>
   <trkpt lat="51.2218680" lon="5.7986290">
    <ele>29.6</ele>
    <time>2019-09-08T06:34:14Z</time>
   </trkpt>
   <trkpt lat="51.2219270" lon="5.7986790">
    <ele>29.6</ele>
    <time>2019-09-08T06:34:15Z</time>
   </trkpt>
   <trkpt lat="51.2219980" lon="5.7987310">
    <ele>29.7</ele>
    <time>2019-09-08T06:34:16Z</time>
   </trkpt>
   <trkpt lat="51.2220630" lon="5.7987920">
    <ele>29.7</ele>
    <time>2019-09-08T06:34:17Z</time>
   </trkpt>
   <trkpt lat="51.2221250" lon="5.7988510">
    <ele>29.8</ele>
    <time>2019-09-08T06:34:18Z</time>
   </trkpt>
   <trkpt lat="51.2221860" lon="5.7989130">
    <ele>29.9</ele>
    <time>2019-09-08T06:34:19Z</time>
   </trkpt>
   <trkpt lat="51.2222420" lon="5.7989680">
    <ele>29.9</ele>
    <time>2019-09-08T06:34:20Z</time>
   </trkpt>
   <trkpt lat="51.2222950" lon="5.7990310">
    <ele>30.0</ele>
    <time>2019-09-08T06:34:21Z</time>
   </trkpt>
   <trkpt lat="51.2223640" lon="5.7990970">
    <ele>30.1</ele>
    <time>2019-09-08T06:34:22Z</time>
   </trkpt>
   <trkpt lat="51.2224250" lon="5.7991500">
    <ele>30.2</ele>
    <time>2019-09-08T06:34:23Z</time>
   </trkpt>
   <trkpt lat="51.2224760" lon="5.7992140">
    <ele>30.2</ele>
    <time>2019-09-08T06:34:24Z</time>
   </trkpt>
   <trkpt lat="51.2225330" lon="5.7992750">
    <ele>30.2</ele>
    <time>2019-09-08T06:34:25Z</time>
   </trkpt>
   <trkpt lat="51.2225780" lon="5.7993260">
    <ele>30.2</ele>
    <time>2019-09-08T06:34:26Z</time>
   </trkpt>
   <trkpt lat="51.2226240" lon="5.7993960">
    <ele>30.2</ele>
    <time>2019-09-08T06:34:27Z</time>
   </trkpt>
   <trkpt lat="51.2226730" lon="5.7994690">
    <ele>30.2</ele>
    <time>2019-09-08T06:34:28Z</time>
   </trkpt>
   <trkpt lat="51.2227170" lon="5.7995350">
    <ele>30.2</ele>
    <time>2019-09-08T06:34:29Z</time>
   </trkpt>
   <trkpt lat="51.2227620" lon="5.7996130">
    <ele>30.2</ele>
    <time>2019-09-08T06:34:30Z</time>
   </trkpt>
   <trkpt lat="51.2228020" lon="5.7996990">
    <ele>30.2</ele>
    <time>2019-09-08T06:34:31Z</time>
   </trkpt>
   <trkpt lat="51.2228370" lon="5.7997960">
    <ele>30.1</ele>
    <time>2019-09-08T06:34:32Z</time>
   </trkpt>
   <trkpt lat="51.2228720" lon="5.7998930">
    <ele>30.1</ele>
    <time>2019-09-08T06:34:33Z</time>
   </trkpt>
   <trkpt lat="51.2229070" lon="5.7999940">
    <ele>30.1</ele>
    <time>2019-09-08T06:34:34Z</time>
   </trkpt>
   <trkpt lat="51.2229380" lon="5.8000940">
    <ele>30.1</ele>
    <time>2019-09-08T06:34:35Z</time>
   </trkpt>
   <trkpt lat="51.2229740" lon="5.8001920">
    <ele>30.2</ele>
    <time>2019-09-08T06:34:36Z</time>
   </trkpt>
   <trkpt lat="51.2230160" lon="5.8002840">
    <ele>30.2</ele>
    <time>2019-09-08T06:34:37Z</time>
   </trkpt>
   <trkpt lat="51.2230460" lon="5.8003900">
    <ele>30.3</ele>
    <time>2019-09-08T06:34:38Z</time>
   </trkpt>
   <trkpt lat="51.2230850" lon="5.8004850">
    <ele>30.3</ele>
    <time>2019-09-08T06:34:39Z</time>
   </trkpt>
   <trkpt lat="51.2231250" lon="5.8005740">
    <ele>30.3</ele>
    <time>2019-09-08T06:34:40Z</time>
   </trkpt>
   <trkpt lat="51.2231490" lon="5.8006510">
    <ele>30.3</ele>
    <time>2019-09-08T06:34:41Z</time>
   </trkpt>
   <trkpt lat="51.2231980" lon="5.8007690">
    <ele>30.3</ele>
    <time>2019-09-08T06:34:42Z</time>
   </trkpt>
   <trkpt lat="51.2232390" lon="5.8008790">
    <ele>30.3</ele>
    <time>2019-09-08T06:34:43Z</time>
   </trkpt>
   <trkpt lat="51.2232600" lon="5.8009890">
    <ele>30.3</ele>
    <time>2019-09-08T06:34:44Z</time>
   </trkpt>
   <trkpt lat="51.2232970" lon="5.8010800">
    <ele>30.3</ele>
    <time>2019-09-08T06:34:45Z</time>
   </trkpt>
   <trkpt lat="51.2233280" lon="5.8011820">
    <ele>30.2</ele>
    <time>2019-09-08T06:34:46Z</time>
   </trkpt>
   <trkpt lat="51.2233630" lon="5.8012820">
    <ele>30.2</ele>
    <time>2019-09-08T06:34:47Z</time>
   </trkpt>
   <trkpt lat="51.2233990" lon="5.8013930">
    <ele>30.1</ele>
    <time>2019-09-08T06:34:48Z</time>
   </trkpt>
   <trkpt lat="51.2234330" lon="5.8014850">
    <ele>30.1</ele>
    <time>2019-09-08T06:34:49Z</time>
   </trkpt>
   <trkpt lat="51.2234790" lon="5.8015470">
    <ele>30.0</ele>
    <time>2019-09-08T06:34:50Z</time>
   </trkpt>
   <trkpt lat="51.2235150" lon="5.8016440">
    <ele>30.0</ele>
    <time>2019-09-08T06:34:51Z</time>
   </trkpt>
   <trkpt lat="51.2235530" lon="5.8017380">
    <ele>29.9</ele>
    <time>2019-09-08T06:34:52Z</time>
   </trkpt>
   <trkpt lat="51.2235860" lon="5.8018380">
    <ele>29.9</ele>
    <time>2019-09-08T06:34:53Z</time>
   </trkpt>
   <trkpt lat="51.2236130" lon="5.8019410">
    <ele>29.8</ele>
    <time>2019-09-08T06:34:54Z</time>
   </trkpt>
   <trkpt lat="51.2236510" lon="5.8020220">
    <ele>29.8</ele>
    <time>2019-09-08T06:34:55Z</time>
   </trkpt>
   <trkpt lat="51.2236840" lon="5.8021170">
    <ele>29.7</ele>
    <time>2019-09-08T06:34:56Z</time>
   </trkpt>
   <trkpt lat="51.2237170" lon="5.8022220">
    <ele>29.7</ele>
    <time>2019-09-08T06:34:57Z</time>
   </trkpt>
   <trkpt lat="51.2237550" lon="5.8023160">
    <ele>29.7</ele>
    <time>2019-09-08T06:34:58Z</time>
   </trkpt>
   <trkpt lat="51.2237840" lon="5.8024240">
    <ele>29.6</ele>
    <time>2019-09-08T06:34:59Z</time>
   </trkpt>
   <trkpt lat="51.2238090" lon="5.8025370">
    <ele>29.6</ele>
    <time>2019-09-08T06:35:00Z</time>
   </trkpt>
   <trkpt lat="51.2238340" lon="5.8026480">
    <ele>29.6</ele>
    <time>2019-09-08T06:35:01Z</time>
   </trkpt>
   <trkpt lat="51.2238590" lon="5.8027480">
    <ele>29.7</ele>
    <time>2019-09-08T06:35:02Z</time>
   </trkpt>
   <trkpt lat="51.2238770" lon="5.8028610">
    <ele>29.7</ele>
    <time>2019-09-08T06:35:03Z</time>
   </trkpt>
   <trkpt lat="51.2238960" lon="5.8029640">
    <ele>29.8</ele>
    <time>2019-09-08T06:35:04Z</time>
   </trkpt>
   <trkpt lat="51.2239150" lon="5.8030780">
    <ele>29.8</ele>
    <time>2019-09-08T06:35:05Z</time>
   </trkpt>
   <trkpt lat="51.2239270" lon="5.8031920">
    <ele>29.9</ele>
    <time>2019-09-08T06:35:06Z</time>
   </trkpt>
   <trkpt lat="51.2239580" lon="5.8033080">
    <ele>30.0</ele>
    <time>2019-09-08T06:35:07Z</time>
   </trkpt>
   <trkpt lat="51.2239770" lon="5.8034170">
    <ele>30.0</ele>
    <time>2019-09-08T06:35:08Z</time>
   </trkpt>
   <trkpt lat="51.2239900" lon="5.8035120">
    <ele>30.0</ele>
    <time>2019-09-08T06:35:09Z</time>
   </trkpt>
   <trkpt lat="51.2240110" lon="5.8036180">
    <ele>30.0</ele>
    <time>2019-09-08T06:35:10Z</time>
   </trkpt>
   <trkpt lat="51.2240110" lon="5.8037400">
    <ele>30.0</ele>
    <time>2019-09-08T06:35:11Z</time>
   </trkpt>
   <trkpt lat="51.2240240" lon="5.8038490">
    <ele>30.0</ele>
    <time>2019-09-08T06:35:12Z</time>
   </trkpt>
   <trkpt lat="51.2240260" lon="5.8039520">
    <ele>30.0</ele>
    <time>2019-09-08T06:35:13Z</time>
   </trkpt>
   <trkpt lat="51.2240350" lon="5.8040630">
    <ele>30.0</ele>
    <time>2019-09-08T06:35:14Z</time>
   </trkpt>
   <trkpt lat="51.2240890" lon="5.8041820">
    <ele>30.0</ele>
    <time>2019-09-08T06:35:15Z</time>
   </trkpt>
   <trkpt lat="51.2241050" lon="5.8043020">
    <ele>30.1</ele>
    <time>2019-09-08T06:35:16Z</time>
   </trkpt>
   <trkpt lat="51.2241250" lon="5.8044130">
    <ele>30.1</ele>
    <time>2019-09-08T06:35:17Z</time>
   </trkpt>
   <trkpt lat="51.2241460" lon="5.8045320">
    <ele>30.1</ele>
    <time>2019-09-08T06:35:18Z</time>
   </trkpt>
   <trkpt lat="51.2241650" lon="5.8046430">
    <ele>30.1</ele>
    <time>2019-09-08T06:35:19Z</time>
   </trkpt>
   <trkpt lat="51.2241910" lon="5.8047360">
    <ele>30.1</ele>
    <time>2019-09-08T06:35:20Z</time>
   </trkpt>
   <trkpt lat="51.2242120" lon="5.8048400">
    <ele>30.1</ele>
    <time>2019-09-08T06:35:21Z</time>
   </trkpt>
   <trkpt lat="51.2242290" lon="5.8049390">
    <ele>30.1</ele>
    <time>2019-09-08T06:35:22Z</time>
   </trkpt>
   <trkpt lat="51.2242420" lon="5.8050410">
    <ele>30.1</ele>
    <time>2019-09-08T06:35:23Z</time>
   </trkpt>
   <trkpt lat="51.2242660" lon="5.8051460">
    <ele>30.1</ele>
    <time>2019-09-08T06:35:24Z</time>
   </trkpt>
   <trkpt lat="51.2242980" lon="5.8052430">
    <ele>30.1</ele>
    <time>2019-09-08T06:35:25Z</time>
   </trkpt>
   <trkpt lat="51.2243160" lon="5.8053400">
    <ele>30.1</ele>
    <time>2019-09-08T06:35:26Z</time>
   </trkpt>
   <trkpt lat="51.2243600" lon="5.8054630">
    <ele>30.1</ele>
    <time>2019-09-08T06:35:27Z</time>
   </trkpt>
   <trkpt lat="51.2243820" lon="5.8055460">
    <ele>30.0</ele>
    <time>2019-09-08T06:35:28Z</time>
   </trkpt>
   <trkpt lat="51.2244120" lon="5.8056360">
    <ele>30.0</ele>
    <time>2019-09-08T06:35:29Z</time>
   </trkpt>
   <trkpt lat="51.2244490" lon="5.8057200">
    <ele>29.9</ele>
    <time>2019-09-08T06:35:30Z</time>
   </trkpt>
   <trkpt lat="51.2244820" lon="5.8058210">
    <ele>29.9</ele>
    <time>2019-09-08T06:35:31Z</time>
   </trkpt>
   <trkpt lat="51.2245030" lon="5.8059010">
    <ele>29.9</ele>
    <time>2019-09-08T06:35:32Z</time>
   </trkpt>
   <trkpt lat="51.2245390" lon="5.8060100">
    <ele>29.8</ele>
    <time>2019-09-08T06:35:33Z</time>
   </trkpt>
   <trkpt lat="51.2245730" lon="5.8060930">
    <ele>29.8</ele>
    <time>2019-09-08T06:35:34Z</time>
   </trkpt>
   <trkpt lat="51.2246090" lon="5.8061710">
    <ele>29.9</ele>
    <time>2019-09-08T06:35:35Z</time>
   </trkpt>
   <trkpt lat="51.2246410" lon="5.8062560">
    <ele>30.1</ele>
    <time>2019-09-08T06:35:36Z</time>
   </trkpt>
   <trkpt lat="51.2246760" lon="5.8063420">
    <ele>30.2</ele>
    <time>2019-09-08T06:35:37Z</time>
   </trkpt>
   <trkpt lat="51.2247180" lon="5.8064530">
    <ele>30.3</ele>
    <time>2019-09-08T06:35:38Z</time>
   </trkpt>
   <trkpt lat="51.2247530" lon="5.8065400">
    <ele>30.5</ele>
    <time>2019-09-08T06:35:39Z</time>
   </trkpt>
   <trkpt lat="51.2247840" lon="5.8066240">
    <ele>30.6</ele>
    <time>2019-09-08T06:35:40Z</time>
   </trkpt>
   <trkpt lat="51.2248220" lon="5.8067240">
    <ele>30.8</ele>
    <time>2019-09-08T06:35:41Z</time>
   </trkpt>
   <trkpt lat="51.2248560" lon="5.8068020">
    <ele>30.9</ele>
    <time>2019-09-08T06:35:42Z</time>
   </trkpt>
   <trkpt lat="51.2248880" lon="5.8068750">
    <ele>30.9</ele>
    <time>2019-09-08T06:35:43Z</time>
   </trkpt>
   <trkpt lat="51.2249220" lon="5.8069480">
    <ele>31.0</ele>
    <time>2019-09-08T06:35:44Z</time>
   </trkpt>
   <trkpt lat="51.2249560" lon="5.8070300">
    <ele>31.1</ele>
    <time>2019-09-08T06:35:45Z</time>
   </trkpt>
   <trkpt lat="51.2249930" lon="5.8071250">
    <ele>31.2</ele>
    <time>2019-09-08T06:35:46Z</time>
   </trkpt>
   <trkpt lat="51.2250280" lon="5.8072110">
    <ele>31.2</ele>
    <time>2019-09-08T06:35:47Z</time>
   </trkpt>
   <trkpt lat="51.2250570" lon="5.8073080">
    <ele>31.3</ele>
    <time>2019-09-08T06:35:48Z</time>
   </trkpt>
   <trkpt lat="51.2250940" lon="5.8074000">
    <ele>31.2</ele>
    <time>2019-09-08T06:35:49Z</time>
   </trkpt>
   <trkpt lat="51.2251260" lon="5.8074920">
    <ele>31.2</ele>
    <time>2019-09-08T06:35:50Z</time>
   </trkpt>
   <trkpt lat="51.2251580" lon="5.8075880">
    <ele>31.0</ele>
    <time>2019-09-08T06:35:51Z</time>
   </trkpt>
   <trkpt lat="51.2251940" lon="5.8076810">
    <ele>30.6</ele>
    <time>2019-09-08T06:35:52Z</time>
   </trkpt>
   <trkpt lat="51.2252290" lon="5.8077830">
    <ele>30.1</ele>
    <time>2019-09-08T06:35:53Z</time>
   </trkpt>
   <trkpt lat="51.2252640" lon="5.8078810">
    <ele>29.7</ele>
    <time>2019-09-08T06:35:54Z</time>
   </trkpt>
   <trkpt lat="51.2252970" lon="5.8079630">
    <ele>29.4</ele>
    <time>2019-09-08T06:35:55Z</time>
   </trkpt>
   <trkpt lat="51.2253260" lon="5.8080500">
    <ele>29.2</ele>
    <time>2019-09-08T06:35:56Z</time>
   </trkpt>
   <trkpt lat="51.2253590" lon="5.8081370">
    <ele>29.1</ele>
    <time>2019-09-08T06:35:57Z</time>
   </trkpt>
   <trkpt lat="51.2253960" lon="5.8082300">
    <ele>29.0</ele>
    <time>2019-09-08T06:35:58Z</time>
   </trkpt>
   <trkpt lat="51.2254350" lon="5.8083200">
    <ele>29.0</ele>
    <time>2019-09-08T06:35:59Z</time>
   </trkpt>
   <trkpt lat="51.2254470" lon="5.8084310">
    <ele>28.9</ele>
    <time>2019-09-08T06:36:00Z</time>
   </trkpt>
   <trkpt lat="51.2254850" lon="5.8085230">
    <ele>28.8</ele>
    <time>2019-09-08T06:36:01Z</time>
   </trkpt>
   <trkpt lat="51.2255290" lon="5.8086130">
    <ele>28.7</ele>
    <time>2019-09-08T06:36:02Z</time>
   </trkpt>
   <trkpt lat="51.2255590" lon="5.8086960">
    <ele>28.6</ele>
    <time>2019-09-08T06:36:03Z</time>
   </trkpt>
   <trkpt lat="51.2256140" lon="5.8088260">
    <ele>28.2</ele>
    <time>2019-09-08T06:36:04Z</time>
   </trkpt>
   <trkpt lat="51.2256480" lon="5.8089430">
    <ele>27.9</ele>
    <time>2019-09-08T06:36:05Z</time>
   </trkpt>
   <trkpt lat="51.2257010" lon="5.8090830">
    <ele>27.5</ele>
    <time>2019-09-08T06:36:06Z</time>
   </trkpt>
   <trkpt lat="51.2257260" lon="5.8091730">
    <ele>27.3</ele>
    <time>2019-09-08T06:36:07Z</time>
   </trkpt>
   <trkpt lat="51.2257560" lon="5.8092750">
    <ele>27.1</ele>
    <time>2019-09-08T06:36:08Z</time>
   </trkpt>
   <trkpt lat="51.2257930" lon="5.8093890">
    <ele>27.0</ele>
    <time>2019-09-08T06:36:09Z</time>
   </trkpt>
   <trkpt lat="51.2258250" lon="5.8094970">
    <ele>27.0</ele>
    <time>2019-09-08T06:36:10Z</time>
   </trkpt>
   <trkpt lat="51.2258650" lon="5.8095940">
    <ele>26.9</ele>
    <time>2019-09-08T06:36:11Z</time>
   </trkpt>
   <trkpt lat="51.2259070" lon="5.8096880">
    <ele>26.9</ele>
    <time>2019-09-08T06:36:12Z</time>
   </trkpt>
   <trkpt lat="51.2259510" lon="5.8097900">
    <ele>26.9</ele>
    <time>2019-09-08T06:36:13Z</time>
   </trkpt>
   <trkpt lat="51.2259880" lon="5.8098900">
    <ele>26.9</ele>
    <time>2019-09-08T06:36:14Z</time>
   </trkpt>
   <trkpt lat="51.2260220" lon="5.8099840">
    <ele>26.9</ele>
    <time>2019-09-08T06:36:15Z</time>
   </trkpt>
   <trkpt lat="51.2260570" lon="5.8100890">
    <ele>27.0</ele>
    <time>2019-09-08T06:36:16Z</time>
   </trkpt>
   <trkpt lat="51.2260970" lon="5.8102010">
    <ele>27.0</ele>
    <time>2019-09-08T06:36:17Z</time>
   </trkpt>
   <trkpt lat="51.2261340" lon="5.8103050">
    <ele>27.1</ele>
    <time>2019-09-08T06:36:18Z</time>
   </trkpt>
   <trkpt lat="51.2261680" lon="5.8104170">
    <ele>27.2</ele>
    <time>2019-09-08T06:36:19Z</time>
   </trkpt>
   <trkpt lat="51.2261960" lon="5.8105230">
    <ele>27.2</ele>
    <time>2019-09-08T06:36:20Z</time>
   </trkpt>
   <trkpt lat="51.2262350" lon="5.8106230">
    <ele>27.3</ele>
    <time>2019-09-08T06:36:21Z</time>
   </trkpt>
   <trkpt lat="51.2262560" lon="5.8107410">
    <ele>27.3</ele>
    <time>2019-09-08T06:36:22Z</time>
   </trkpt>
   <trkpt lat="51.2262600" lon="5.8108550">
    <ele>27.4</ele>
    <time>2019-09-08T06:36:23Z</time>
   </trkpt>
   <trkpt lat="51.2262920" lon="5.8109630">
    <ele>27.5</ele>
    <time>2019-09-08T06:36:24Z</time>
   </trkpt>
   <trkpt lat="51.2263270" lon="5.8110640">
    <ele>27.5</ele>
    <time>2019-09-08T06:36:25Z</time>
   </trkpt>
   <trkpt lat="51.2263440" lon="5.8111740">
    <ele>27.6</ele>
    <time>2019-09-08T06:36:26Z</time>
   </trkpt>
   <trkpt lat="51.2263680" lon="5.8112830">
    <ele>27.6</ele>
    <time>2019-09-08T06:36:27Z</time>
   </trkpt>
   <trkpt lat="51.2263890" lon="5.8113870">
    <ele>27.7</ele>
    <time>2019-09-08T06:36:28Z</time>
   </trkpt>
   <trkpt lat="51.2264170" lon="5.8114910">
    <ele>27.8</ele>
    <time>2019-09-08T06:36:29Z</time>
   </trkpt>
   <trkpt lat="51.2264320" lon="5.8115930">
    <ele>27.8</ele>
    <time>2019-09-08T06:36:30Z</time>
   </trkpt>
   <trkpt lat="51.2264430" lon="5.8116940">
    <ele>27.9</ele>
    <time>2019-09-08T06:36:31Z</time>
   </trkpt>
   <trkpt lat="51.2264690" lon="5.8117890">
    <ele>28.0</ele>
    <time>2019-09-08T06:36:32Z</time>
   </trkpt>
   <trkpt lat="51.2264910" lon="5.8118800">
    <ele>28.0</ele>
    <time>2019-09-08T06:36:33Z</time>
   </trkpt>
   <trkpt lat="51.2265120" lon="5.8119610">
    <ele>28.1</ele>
    <time>2019-09-08T06:36:34Z</time>
   </trkpt>
   <trkpt lat="51.2265330" lon="5.8120440">
    <ele>28.1</ele>
    <time>2019-09-08T06:36:35Z</time>
   </trkpt>
   <trkpt lat="51.2265550" lon="5.8121180">
    <ele>28.2</ele>
    <time>2019-09-08T06:36:36Z</time>
   </trkpt>
   <trkpt lat="51.2265790" lon="5.8122020">
    <ele>28.3</ele>
    <time>2019-09-08T06:36:37Z</time>
   </trkpt>
   <trkpt lat="51.2265960" lon="5.8122810">
    <ele>28.3</ele>
    <time>2019-09-08T06:36:38Z</time>
   </trkpt>
   <trkpt lat="51.2266200" lon="5.8123570">
    <ele>28.4</ele>
    <time>2019-09-08T06:36:39Z</time>
   </trkpt>
   <trkpt lat="51.2266430" lon="5.8124220">
    <ele>28.4</ele>
    <time>2019-09-08T06:36:40Z</time>
   </trkpt>
   <trkpt lat="51.2266820" lon="5.8124720">
    <ele>28.6</ele>
    <time>2019-09-08T06:36:41Z</time>
   </trkpt>
   <trkpt lat="51.2267350" lon="5.8124850">
    <ele>28.7</ele>
    <time>2019-09-08T06:36:42Z</time>
   </trkpt>
   <trkpt lat="51.2267990" lon="5.8124790">
    <ele>28.8</ele>
    <time>2019-09-08T06:36:43Z</time>
   </trkpt>
   <trkpt lat="51.2268560" lon="5.8124410">
    <ele>28.8</ele>
    <time>2019-09-08T06:36:44Z</time>
   </trkpt>
   <trkpt lat="51.2269170" lon="5.8124030">
    <ele>28.9</ele>
    <time>2019-09-08T06:36:45Z</time>
   </trkpt>
   <trkpt lat="51.2269810" lon="5.8123630">
    <ele>29.0</ele>
    <time>2019-09-08T06:36:46Z</time>
   </trkpt>
   <trkpt lat="51.2270450" lon="5.8123120">
    <ele>29.0</ele>
    <time>2019-09-08T06:36:47Z</time>
   </trkpt>
   <trkpt lat="51.2271100" lon="5.8122630">
    <ele>29.1</ele>
    <time>2019-09-08T06:36:48Z</time>
   </trkpt>
   <trkpt lat="51.2271770" lon="5.8122180">
    <ele>29.1</ele>
    <time>2019-09-08T06:36:49Z</time>
   </trkpt>
   <trkpt lat="51.2272440" lon="5.8121730">
    <ele>29.2</ele>
    <time>2019-09-08T06:36:50Z</time>
   </trkpt>
   <trkpt lat="51.2273050" lon="5.8121250">
    <ele>29.2</ele>
    <time>2019-09-08T06:36:51Z</time>
   </trkpt>
   <trkpt lat="51.2273630" lon="5.8120760">
    <ele>29.3</ele>
    <time>2019-09-08T06:36:52Z</time>
   </trkpt>
   <trkpt lat="51.2274230" lon="5.8120250">
    <ele>29.3</ele>
    <time>2019-09-08T06:36:53Z</time>
   </trkpt>
   <trkpt lat="51.2274850" lon="5.8119750">
    <ele>29.4</ele>
    <time>2019-09-08T06:36:54Z</time>
   </trkpt>
   <trkpt lat="51.2275440" lon="5.8119290">
    <ele>29.4</ele>
    <time>2019-09-08T06:36:55Z</time>
   </trkpt>
   <trkpt lat="51.2276030" lon="5.8118810">
    <ele>29.5</ele>
    <time>2019-09-08T06:36:56Z</time>
   </trkpt>
   <trkpt lat="51.2276680" lon="5.8118280">
    <ele>29.5</ele>
    <time>2019-09-08T06:36:57Z</time>
   </trkpt>
   <trkpt lat="51.2277310" lon="5.8117880">
    <ele>29.6</ele>
    <time>2019-09-08T06:36:58Z</time>
   </trkpt>
   <trkpt lat="51.2277940" lon="5.8117410">
    <ele>29.6</ele>
    <time>2019-09-08T06:36:59Z</time>
   </trkpt>
   <trkpt lat="51.2278590" lon="5.8117000">
    <ele>29.7</ele>
    <time>2019-09-08T06:37:00Z</time>
   </trkpt>
   <trkpt lat="51.2279230" lon="5.8116590">
    <ele>29.7</ele>
    <time>2019-09-08T06:37:01Z</time>
   </trkpt>
   <trkpt lat="51.2279880" lon="5.8116190">
    <ele>29.8</ele>
    <time>2019-09-08T06:37:02Z</time>
   </trkpt>
   <trkpt lat="51.2280530" lon="5.8115800">
    <ele>29.8</ele>
    <time>2019-09-08T06:37:03Z</time>
   </trkpt>
   <trkpt lat="51.2281160" lon="5.8115370">
    <ele>29.9</ele>
    <time>2019-09-08T06:37:04Z</time>
   </trkpt>
   <trkpt lat="51.2281860" lon="5.8114940">
    <ele>29.9</ele>
    <time>2019-09-08T06:37:05Z</time>
   </trkpt>
   <trkpt lat="51.2282540" lon="5.8114490">
    <ele>30.0</ele>
    <time>2019-09-08T06:37:06Z</time>
   </trkpt>
   <trkpt lat="51.2283200" lon="5.8114060">
    <ele>30.0</ele>
    <time>2019-09-08T06:37:07Z</time>
   </trkpt>
   <trkpt lat="51.2283820" lon="5.8113630">
    <ele>30.1</ele>
    <time>2019-09-08T06:37:08Z</time>
   </trkpt>
   <trkpt lat="51.2284450" lon="5.8113170">
    <ele>30.1</ele>
    <time>2019-09-08T06:37:09Z</time>
   </trkpt>
   <trkpt lat="51.2285150" lon="5.8112720">
    <ele>30.2</ele>
    <time>2019-09-08T06:37:10Z</time>
   </trkpt>
   <trkpt lat="51.2285790" lon="5.8112220">
    <ele>30.2</ele>
    <time>2019-09-08T06:37:11Z</time>
   </trkpt>
   <trkpt lat="51.2286360" lon="5.8111620">
    <ele>30.3</ele>
    <time>2019-09-08T06:37:12Z</time>
   </trkpt>
   <trkpt lat="51.2286930" lon="5.8110910">
    <ele>30.3</ele>
    <time>2019-09-08T06:37:13Z</time>
   </trkpt>
   <trkpt lat="51.2287400" lon="5.8110150">
    <ele>30.3</ele>
    <time>2019-09-08T06:37:14Z</time>
   </trkpt>
   <trkpt lat="51.2287950" lon="5.8109370">
    <ele>30.4</ele>
    <time>2019-09-08T06:37:15Z</time>
   </trkpt>
   <trkpt lat="51.2288490" lon="5.8108510">
    <ele>30.5</ele>
    <time>2019-09-08T06:37:16Z</time>
   </trkpt>
   <trkpt lat="51.2288930" lon="5.8107630">
    <ele>30.5</ele>
    <time>2019-09-08T06:37:17Z</time>
   </trkpt>
   <trkpt lat="51.2289380" lon="5.8106760">
    <ele>31.1</ele>
    <time>2019-09-08T06:37:18Z</time>
   </trkpt>
   <trkpt lat="51.2289850" lon="5.8105930">
    <ele>31.4</ele>
    <time>2019-09-08T06:37:19Z</time>
   </trkpt>
   <trkpt lat="51.2290310" lon="5.8105080">
    <ele>31.6</ele>
    <time>2019-09-08T06:37:20Z</time>
   </trkpt>
   <trkpt lat="51.2290700" lon="5.8104270">
    <ele>31.7</ele>
    <time>2019-09-08T06:37:21Z</time>
   </trkpt>
   <trkpt lat="51.2291170" lon="5.8103380">
    <ele>31.9</ele>
    <time>2019-09-08T06:37:22Z</time>
   </trkpt>
   <trkpt lat="51.2291550" lon="5.8102480">
    <ele>32.0</ele>
    <time>2019-09-08T06:37:23Z</time>
   </trkpt>
   <trkpt lat="51.2291890" lon="5.8101600">
    <ele>32.1</ele>
    <time>2019-09-08T06:37:24Z</time>
   </trkpt>
   <trkpt lat="51.2292350" lon="5.8100830">
    <ele>32.2</ele>
    <time>2019-09-08T06:37:25Z</time>
   </trkpt>
   <trkpt lat="51.2292850" lon="5.8100090">
    <ele>32.3</ele>
    <time>2019-09-08T06:37:26Z</time>
   </trkpt>
   <trkpt lat="51.2293250" lon="5.8099270">
    <ele>32.4</ele>
    <time>2019-09-08T06:37:27Z</time>
   </trkpt>
   <trkpt lat="51.2293680" lon="5.8098410">
    <ele>32.4</ele>
    <time>2019-09-08T06:37:28Z</time>
   </trkpt>
   <trkpt lat="51.2294030" lon="5.8097540">
    <ele>32.3</ele>
    <time>2019-09-08T06:37:29Z</time>
   </trkpt>
   <trkpt lat="51.2294460" lon="5.8096760">
    <ele>32.3</ele>
    <time>2019-09-08T06:37:30Z</time>
   </trkpt>
   <trkpt lat="51.2294770" lon="5.8096110">
    <ele>32.3</ele>
    <time>2019-09-08T06:37:31Z</time>
   </trkpt>
   <trkpt lat="51.2295050" lon="5.8095410">
    <ele>32.3</ele>
    <time>2019-09-08T06:37:32Z</time>
   </trkpt>
   <trkpt lat="51.2295730" lon="5.8094650">
    <ele>32.3</ele>
    <time>2019-09-08T06:37:33Z</time>
   </trkpt>
   <trkpt lat="51.2296140" lon="5.8093860">
    <ele>32.3</ele>
    <time>2019-09-08T06:37:34Z</time>
   </trkpt>
   <trkpt lat="51.2296670" lon="5.8093110">
    <ele>32.2</ele>
    <time>2019-09-08T06:37:35Z</time>
   </trkpt>
   <trkpt lat="51.2297210" lon="5.8092410">
    <ele>32.2</ele>
    <time>2019-09-08T06:37:36Z</time>
   </trkpt>
   <trkpt lat="51.2297700" lon="5.8091480">
    <ele>32.2</ele>
    <time>2019-09-08T06:37:37Z</time>
   </trkpt>
   <trkpt lat="51.2298250" lon="5.8090690">
    <ele>32.1</ele>
    <time>2019-09-08T06:37:38Z</time>
   </trkpt>
   <trkpt lat="51.2298890" lon="5.8089850">
    <ele>32.1</ele>
    <time>2019-09-08T06:37:39Z</time>
   </trkpt>
   <trkpt lat="51.2299570" lon="5.8089070">
    <ele>32.0</ele>
    <time>2019-09-08T06:37:40Z</time>
   </trkpt>
   <trkpt lat="51.2300100" lon="5.8088520">
    <ele>31.9</ele>
    <time>2019-09-08T06:37:41Z</time>
   </trkpt>
   <trkpt lat="51.2300690" lon="5.8087970">
    <ele>31.8</ele>
    <time>2019-09-08T06:37:42Z</time>
   </trkpt>
   <trkpt lat="51.2301310" lon="5.8087580">
    <ele>31.7</ele>
    <time>2019-09-08T06:37:43Z</time>
   </trkpt>
   <trkpt lat="51.2301940" lon="5.8087210">
    <ele>31.6</ele>
    <time>2019-09-08T06:37:44Z</time>
   </trkpt>
   <trkpt lat="51.2302680" lon="5.8086890">
    <ele>31.4</ele>
    <time>2019-09-08T06:37:45Z</time>
   </trkpt>
   <trkpt lat="51.2303370" lon="5.8086620">
    <ele>31.1</ele>
    <time>2019-09-08T06:37:46Z</time>
   </trkpt>
   <trkpt lat="51.2304030" lon="5.8086410">
    <ele>30.9</ele>
    <time>2019-09-08T06:37:47Z</time>
   </trkpt>
   <trkpt lat="51.2304660" lon="5.8086260">
    <ele>30.6</ele>
    <time>2019-09-08T06:37:48Z</time>
   </trkpt>
   <trkpt lat="51.2305350" lon="5.8086150">
    <ele>30.5</ele>
    <time>2019-09-08T06:37:49Z</time>
   </trkpt>
   <trkpt lat="51.2306030" lon="5.8086000">
    <ele>30.4</ele>
    <time>2019-09-08T06:37:50Z</time>
   </trkpt>
   <trkpt lat="51.2306700" lon="5.8085790">
    <ele>30.4</ele>
    <time>2019-09-08T06:37:51Z</time>
   </trkpt>
   <trkpt lat="51.2307390" lon="5.8085630">
    <ele>30.3</ele>
    <time>2019-09-08T06:37:52Z</time>
   </trkpt>
   <trkpt lat="51.2308050" lon="5.8085530">
    <ele>30.3</ele>
    <time>2019-09-08T06:37:53Z</time>
   </trkpt>
   <trkpt lat="51.2308670" lon="5.8085600">
    <ele>30.2</ele>
    <time>2019-09-08T06:37:54Z</time>
   </trkpt>
   <trkpt lat="51.2309300" lon="5.8085720">
    <ele>30.2</ele>
    <time>2019-09-08T06:37:55Z</time>
   </trkpt>
   <trkpt lat="51.2309930" lon="5.8085720">
    <ele>30.2</ele>
    <time>2019-09-08T06:37:56Z</time>
   </trkpt>
   <trkpt lat="51.2310510" lon="5.8085770">
    <ele>30.2</ele>
    <time>2019-09-08T06:37:57Z</time>
   </trkpt>
   <trkpt lat="51.2311070" lon="5.8085630">
    <ele>30.2</ele>
    <time>2019-09-08T06:37:58Z</time>
   </trkpt>
   <trkpt lat="51.2311550" lon="5.8085400">
    <ele>30.2</ele>
    <time>2019-09-08T06:37:59Z</time>
   </trkpt>
   <trkpt lat="51.2312030" lon="5.8085170">
    <ele>30.2</ele>
    <time>2019-09-08T06:38:00Z</time>
   </trkpt>
   <trkpt lat="51.2312490" lon="5.8084880">
    <ele>30.2</ele>
    <time>2019-09-08T06:38:01Z</time>
   </trkpt>
   <trkpt lat="51.2312890" lon="5.8084460">
    <ele>30.2</ele>
    <time>2019-09-08T06:38:02Z</time>
   </trkpt>
   <trkpt lat="51.2313330" lon="5.8084020">
    <ele>30.2</ele>
    <time>2019-09-08T06:38:03Z</time>
   </trkpt>
   <trkpt lat="51.2313710" lon="5.8083660">
    <ele>30.1</ele>
    <time>2019-09-08T06:38:04Z</time>
   </trkpt>
   <trkpt lat="51.2314120" lon="5.8083470">
    <ele>30.1</ele>
    <time>2019-09-08T06:38:05Z</time>
   </trkpt>
   <trkpt lat="51.2314550" lon="5.8083550">
    <ele>30.2</ele>
    <time>2019-09-08T06:38:06Z</time>
   </trkpt>
   <trkpt lat="51.2315030" lon="5.8084040">
    <ele>30.2</ele>
    <time>2019-09-08T06:38:07Z</time>
   </trkpt>
   <trkpt lat="51.2315560" lon="5.8084590">
    <ele>30.2</ele>
    <time>2019-09-08T06:38:08Z</time>
   </trkpt>
   <trkpt lat="51.2316060" lon="5.8085230">
    <ele>30.2</ele>
    <time>2019-09-08T06:38:09Z</time>
   </trkpt>
   <trkpt lat="51.2316610" lon="5.8085930">
    <ele>30.3</ele>
    <time>2019-09-08T06:38:10Z</time>
   </trkpt>
   <trkpt lat="51.2317060" lon="5.8086590">
    <ele>30.3</ele>
    <time>2019-09-08T06:38:11Z</time>
   </trkpt>
   <trkpt lat="51.2317620" lon="5.8087200">
    <ele>30.3</ele>
    <time>2019-09-08T06:38:12Z</time>
   </trkpt>
   <trkpt lat="51.2318140" lon="5.8087860">
    <ele>30.3</ele>
    <time>2019-09-08T06:38:13Z</time>
   </trkpt>
   <trkpt lat="51.2318630" lon="5.8088490">
    <ele>30.3</ele>
    <time>2019-09-08T06:38:14Z</time>
   </trkpt>
   <trkpt lat="51.2319110" lon="5.8089210">
    <ele>30.3</ele>
    <time>2019-09-08T06:38:15Z</time>
   </trkpt>
   <trkpt lat="51.2319660" lon="5.8089960">
    <ele>30.3</ele>
    <time>2019-09-08T06:38:16Z</time>
   </trkpt>
   <trkpt lat="51.2320160" lon="5.8090630">
    <ele>30.4</ele>
    <time>2019-09-08T06:38:17Z</time>
   </trkpt>
   <trkpt lat="51.2320640" lon="5.8091300">
    <ele>30.4</ele>
    <time>2019-09-08T06:38:18Z</time>
   </trkpt>
   <trkpt lat="51.2321090" lon="5.8091920">
    <ele>30.4</ele>
    <time>2019-09-08T06:38:19Z</time>
   </trkpt>
   <trkpt lat="51.2321510" lon="5.8092550">
    <ele>30.4</ele>
    <time>2019-09-08T06:38:20Z</time>
   </trkpt>
   <trkpt lat="51.2321930" lon="5.8093180">
    <ele>30.4</ele>
    <time>2019-09-08T06:38:21Z</time>
   </trkpt>
   <trkpt lat="51.2322380" lon="5.8093710">
    <ele>30.4</ele>
    <time>2019-09-08T06:38:22Z</time>
   </trkpt>
   <trkpt lat="51.2322780" lon="5.8094170">
    <ele>30.4</ele>
    <time>2019-09-08T06:38:23Z</time>
   </trkpt>
   <trkpt lat="51.2323140" lon="5.8094570">
    <ele>30.3</ele>
    <time>2019-09-08T06:38:24Z</time>
   </trkpt>
   <trkpt lat="51.2323390" lon="5.8094950">
    <ele>30.3</ele>
    <time>2019-09-08T06:38:25Z</time>
   </trkpt>
   <trkpt lat="51.2323850" lon="5.8095580">
    <ele>30.3</ele>
    <time>2019-09-08T06:38:27Z</time>
   </trkpt>
   <trkpt lat="51.2324100" lon="5.8095850">
    <ele>30.3</ele>
    <time>2019-09-08T06:38:28Z</time>
   </trkpt>
   <trkpt lat="51.2324410" lon="5.8096120">
    <ele>30.2</ele>
    <time>2019-09-08T06:38:30Z</time>
   </trkpt>
   <trkpt lat="51.2324790" lon="5.8096300">
    <ele>30.2</ele>
    <time>2019-09-08T06:38:39Z</time>
   </trkpt>
   <trkpt lat="51.2325240" lon="5.8096440">
    <ele>30.2</ele>
    <time>2019-09-08T06:38:41Z</time>
   </trkpt>
   <trkpt lat="51.2325550" lon="5.8096530">
    <ele>30.2</ele>
    <time>2019-09-08T06:38:42Z</time>
   </trkpt>
   <trkpt lat="51.2325950" lon="5.8096660">
    <ele>30.2</ele>
    <time>2019-09-08T06:38:43Z</time>
   </trkpt>
   <trkpt lat="51.2326480" lon="5.8096810">
    <ele>30.2</ele>
    <time>2019-09-08T06:38:44Z</time>
   </trkpt>
   <trkpt lat="51.2327010" lon="5.8097090">
    <ele>30.2</ele>
    <time>2019-09-08T06:38:45Z</time>
   </trkpt>
   <trkpt lat="51.2327530" lon="5.8097400">
    <ele>30.3</ele>
    <time>2019-09-08T06:38:46Z</time>
   </trkpt>
   <trkpt lat="51.2328190" lon="5.8097830">
    <ele>30.3</ele>
    <time>2019-09-08T06:38:47Z</time>
   </trkpt>
   <trkpt lat="51.2328740" lon="5.8098270">
    <ele>30.3</ele>
    <time>2019-09-08T06:38:48Z</time>
   </trkpt>
   <trkpt lat="51.2329240" lon="5.8099040">
    <ele>30.2</ele>
    <time>2019-09-08T06:38:49Z</time>
   </trkpt>
   <trkpt lat="51.2329730" lon="5.8099670">
    <ele>30.1</ele>
    <time>2019-09-08T06:38:50Z</time>
   </trkpt>
   <trkpt lat="51.2330210" lon="5.8100540">
    <ele>29.9</ele>
    <time>2019-09-08T06:38:51Z</time>
   </trkpt>
   <trkpt lat="51.2330580" lon="5.8101330">
    <ele>29.8</ele>
    <time>2019-09-08T06:38:52Z</time>
   </trkpt>
   <trkpt lat="51.2330910" lon="5.8102160">
    <ele>29.7</ele>
    <time>2019-09-08T06:38:53Z</time>
   </trkpt>
   <trkpt lat="51.2331290" lon="5.8102900">
    <ele>29.6</ele>
    <time>2019-09-08T06:38:54Z</time>
   </trkpt>
   <trkpt lat="51.2331910" lon="5.8103420">
    <ele>29.5</ele>
    <time>2019-09-08T06:38:55Z</time>
   </trkpt>
   <trkpt lat="51.2332420" lon="5.8103920">
    <ele>29.5</ele>
    <time>2019-09-08T06:38:56Z</time>
   </trkpt>
   <trkpt lat="51.2332980" lon="5.8104450">
    <ele>29.4</ele>
    <time>2019-09-08T06:38:57Z</time>
   </trkpt>
   <trkpt lat="51.2333610" lon="5.8104920">
    <ele>29.4</ele>
    <time>2019-09-08T06:38:58Z</time>
   </trkpt>
   <trkpt lat="51.2334230" lon="5.8105380">
    <ele>29.3</ele>
    <time>2019-09-08T06:38:59Z</time>
   </trkpt>
   <trkpt lat="51.2334750" lon="5.8105860">
    <ele>29.3</ele>
    <time>2019-09-08T06:39:00Z</time>
   </trkpt>
   <trkpt lat="51.2335340" lon="5.8106200">
    <ele>29.3</ele>
    <time>2019-09-08T06:39:01Z</time>
   </trkpt>
   <trkpt lat="51.2335920" lon="5.8106560">
    <ele>29.3</ele>
    <time>2019-09-08T06:39:02Z</time>
   </trkpt>
   <trkpt lat="51.2336460" lon="5.8106880">
    <ele>29.3</ele>
    <time>2019-09-08T06:39:03Z</time>
   </trkpt>
   <trkpt lat="51.2337120" lon="5.8107230">
    <ele>29.3</ele>
    <time>2019-09-08T06:39:04Z</time>
   </trkpt>
   <trkpt lat="51.2337760" lon="5.8107500">
    <ele>29.3</ele>
    <time>2019-09-08T06:39:05Z</time>
   </trkpt>
   <trkpt lat="51.2338410" lon="5.8107760">
    <ele>29.4</ele>
    <time>2019-09-08T06:39:06Z</time>
   </trkpt>
   <trkpt lat="51.2339040" lon="5.8108050">
    <ele>29.4</ele>
    <time>2019-09-08T06:39:07Z</time>
   </trkpt>
   <trkpt lat="51.2339690" lon="5.8108240">
    <ele>29.4</ele>
    <time>2019-09-08T06:39:08Z</time>
   </trkpt>
   <trkpt lat="51.2340340" lon="5.8108480">
    <ele>29.5</ele>
    <time>2019-09-08T06:39:09Z</time>
   </trkpt>
   <trkpt lat="51.2340940" lon="5.8108680">
    <ele>29.5</ele>
    <time>2019-09-08T06:39:10Z</time>
   </trkpt>
   <trkpt lat="51.2341570" lon="5.8109100">
    <ele>29.6</ele>
    <time>2019-09-08T06:39:11Z</time>
   </trkpt>
   <trkpt lat="51.2342150" lon="5.8109290">
    <ele>29.7</ele>
    <time>2019-09-08T06:39:12Z</time>
   </trkpt>
   <trkpt lat="51.2342800" lon="5.8109630">
    <ele>29.8</ele>
    <time>2019-09-08T06:39:13Z</time>
   </trkpt>
   <trkpt lat="51.2343430" lon="5.8109900">
    <ele>29.9</ele>
    <time>2019-09-08T06:39:14Z</time>
   </trkpt>
   <trkpt lat="51.2344030" lon="5.8110260">
    <ele>30.0</ele>
    <time>2019-09-08T06:39:15Z</time>
   </trkpt>
   <trkpt lat="51.2344610" lon="5.8110640">
    <ele>30.1</ele>
    <time>2019-09-08T06:39:16Z</time>
   </trkpt>
   <trkpt lat="51.2345160" lon="5.8110970">
    <ele>30.2</ele>
    <time>2019-09-08T06:39:17Z</time>
   </trkpt>
   <trkpt lat="51.2345710" lon="5.8111310">
    <ele>30.3</ele>
    <time>2019-09-08T06:39:18Z</time>
   </trkpt>
   <trkpt lat="51.2346170" lon="5.8111700">
    <ele>30.4</ele>
    <time>2019-09-08T06:39:19Z</time>
   </trkpt>
   <trkpt lat="51.2346460" lon="5.8112140">
    <ele>30.5</ele>
    <time>2019-09-08T06:39:20Z</time>
   </trkpt>
   <trkpt lat="51.2346690" lon="5.8112920">
    <ele>30.5</ele>
    <time>2019-09-08T06:39:21Z</time>
   </trkpt>
   <trkpt lat="51.2346640" lon="5.8113720">
    <ele>30.5</ele>
    <time>2019-09-08T06:39:22Z</time>
   </trkpt>
   <trkpt lat="51.2346360" lon="5.8114550">
    <ele>30.4</ele>
    <time>2019-09-08T06:39:23Z</time>
   </trkpt>
   <trkpt lat="51.2346060" lon="5.8115320">
    <ele>30.3</ele>
    <time>2019-09-08T06:39:24Z</time>
   </trkpt>
   <trkpt lat="51.2345670" lon="5.8116090">
    <ele>30.4</ele>
    <time>2019-09-08T06:39:25Z</time>
   </trkpt>
   <trkpt lat="51.2345200" lon="5.8116910">
    <ele>30.3</ele>
    <time>2019-09-08T06:39:26Z</time>
   </trkpt>
   <trkpt lat="51.2344810" lon="5.8117750">
    <ele>30.3</ele>
    <time>2019-09-08T06:39:27Z</time>
   </trkpt>
   <trkpt lat="51.2344330" lon="5.8118560">
    <ele>30.2</ele>
    <time>2019-09-08T06:39:28Z</time>
   </trkpt>
   <trkpt lat="51.2343940" lon="5.8119460">
    <ele>30.1</ele>
    <time>2019-09-08T06:39:29Z</time>
   </trkpt>
   <trkpt lat="51.2343520" lon="5.8120400">
    <ele>30.0</ele>
    <time>2019-09-08T06:39:30Z</time>
   </trkpt>
   <trkpt lat="51.2343150" lon="5.8121240">
    <ele>30.0</ele>
    <time>2019-09-08T06:39:31Z</time>
   </trkpt>
   <trkpt lat="51.2342790" lon="5.8122140">
    <ele>29.9</ele>
    <time>2019-09-08T06:39:32Z</time>
   </trkpt>
   <trkpt lat="51.2342380" lon="5.8123100">
    <ele>29.9</ele>
    <time>2019-09-08T06:39:33Z</time>
   </trkpt>
   <trkpt lat="51.2341990" lon="5.8124030">
    <ele>29.9</ele>
    <time>2019-09-08T06:39:34Z</time>
   </trkpt>
   <trkpt lat="51.2341670" lon="5.8124980">
    <ele>29.9</ele>
    <time>2019-09-08T06:39:35Z</time>
   </trkpt>
   <trkpt lat="51.2341330" lon="5.8125910">
    <ele>29.8</ele>
    <time>2019-09-08T06:39:36Z</time>
   </trkpt>
   <trkpt lat="51.2340960" lon="5.8126860">
    <ele>29.7</ele>
    <time>2019-09-08T06:39:37Z</time>
   </trkpt>
   <trkpt lat="51.2340610" lon="5.8127850">
    <ele>29.6</ele>
    <time>2019-09-08T06:39:38Z</time>
   </trkpt>
   <trkpt lat="51.2340330" lon="5.8128810">
    <ele>29.5</ele>
    <time>2019-09-08T06:39:39Z</time>
   </trkpt>
   <trkpt lat="51.2339930" lon="5.8129840">
    <ele>29.4</ele>
    <time>2019-09-08T06:39:40Z</time>
   </trkpt>
   <trkpt lat="51.2339570" lon="5.8130790">
    <ele>29.3</ele>
    <time>2019-09-08T06:39:41Z</time>
   </trkpt>
   <trkpt lat="51.2339320" lon="5.8131720">
    <ele>29.2</ele>
    <time>2019-09-08T06:39:42Z</time>
   </trkpt>
   <trkpt lat="51.2338950" lon="5.8132700">
    <ele>29.2</ele>
    <time>2019-09-08T06:39:43Z</time>
   </trkpt>
   <trkpt lat="51.2338650" lon="5.8133640">
    <ele>29.3</ele>
    <time>2019-09-08T06:39:44Z</time>
   </trkpt>
   <trkpt lat="51.2338330" lon="5.8134560">
    <ele>29.3</ele>
    <time>2019-09-08T06:39:45Z</time>
   </trkpt>
   <trkpt lat="51.2338030" lon="5.8135680">
    <ele>29.3</ele>
    <time>2019-09-08T06:39:46Z</time>
   </trkpt>
   <trkpt lat="51.2337620" lon="5.8136500">
    <ele>29.4</ele>
    <time>2019-09-08T06:39:47Z</time>
   </trkpt>
   <trkpt lat="51.2337310" lon="5.8137480">
    <ele>29.5</ele>
    <time>2019-09-08T06:39:48Z</time>
   </trkpt>
   <trkpt lat="51.2337060" lon="5.8138430">
    <ele>29.5</ele>
    <time>2019-09-08T06:39:49Z</time>
   </trkpt>
   <trkpt lat="51.2336880" lon="5.8139490">
    <ele>29.4</ele>
    <time>2019-09-08T06:39:50Z</time>
   </trkpt>
   <trkpt lat="51.2336750" lon="5.8140630">
    <ele>29.4</ele>
    <time>2019-09-08T06:39:51Z</time>
   </trkpt>
   <trkpt lat="51.2336650" lon="5.8141780">
    <ele>29.4</ele>
    <time>2019-09-08T06:39:52Z</time>
   </trkpt>
   <trkpt lat="51.2336570" lon="5.8142970">
    <ele>29.5</ele>
    <time>2019-09-08T06:39:53Z</time>
   </trkpt>
   <trkpt lat="51.2336590" lon="5.8144180">
    <ele>29.5</ele>
    <time>2019-09-08T06:39:54Z</time>
   </trkpt>
   <trkpt lat="51.2336550" lon="5.8145370">
    <ele>29.6</ele>
    <time>2019-09-08T06:39:55Z</time>
   </trkpt>
   <trkpt lat="51.2336660" lon="5.8146520">
    <ele>29.7</ele>
    <time>2019-09-08T06:39:56Z</time>
   </trkpt>
   <trkpt lat="51.2336710" lon="5.8147650">
    <ele>29.8</ele>
    <time>2019-09-08T06:39:57Z</time>
   </trkpt>
   <trkpt lat="51.2336880" lon="5.8148800">
    <ele>29.9</ele>
    <time>2019-09-08T06:39:58Z</time>
   </trkpt>
   <trkpt lat="51.2337080" lon="5.8149990">
    <ele>30.0</ele>
    <time>2019-09-08T06:39:59Z</time>
   </trkpt>
   <trkpt lat="51.2337230" lon="5.8151050">
    <ele>30.1</ele>
    <time>2019-09-08T06:40:00Z</time>
   </trkpt>
   <trkpt lat="51.2337330" lon="5.8151990">
    <ele>30.2</ele>
    <time>2019-09-08T06:40:01Z</time>
   </trkpt>
   <trkpt lat="51.2337380" lon="5.8152810">
    <ele>30.3</ele>
    <time>2019-09-08T06:40:02Z</time>
   </trkpt>
   <trkpt lat="51.2337400" lon="5.8153700">
    <ele>30.4</ele>
    <time>2019-09-08T06:40:03Z</time>
   </trkpt>
   <trkpt lat="51.2337250" lon="5.8154520">
    <ele>30.6</ele>
    <time>2019-09-08T06:40:04Z</time>
   </trkpt>
   <trkpt lat="51.2337110" lon="5.8155130">
    <ele>30.7</ele>
    <time>2019-09-08T06:40:05Z</time>
   </trkpt>
   <trkpt lat="51.2336890" lon="5.8155630">
    <ele>30.8</ele>
    <time>2019-09-08T06:40:06Z</time>
   </trkpt>
   <trkpt lat="51.2336770" lon="5.8156190">
    <ele>30.9</ele>
    <time>2019-09-08T06:40:07Z</time>
   </trkpt>
   <trkpt lat="51.2336620" lon="5.8156730">
    <ele>31.0</ele>
    <time>2019-09-08T06:40:08Z</time>
   </trkpt>
   <trkpt lat="51.2336420" lon="5.8157320">
    <ele>31.2</ele>
    <time>2019-09-08T06:40:09Z</time>
   </trkpt>
   <trkpt lat="51.2336390" lon="5.8157970">
    <ele>31.3</ele>
    <time>2019-09-08T06:40:10Z</time>
   </trkpt>
   <trkpt lat="51.2336440" lon="5.8158660">
    <ele>31.3</ele>
    <time>2019-09-08T06:40:11Z</time>
   </trkpt>
   <trkpt lat="51.2336930" lon="5.8159270">
    <ele>31.3</ele>
    <time>2019-09-08T06:40:12Z</time>
   </trkpt>
   <trkpt lat="51.2337420" lon="5.8159860">
    <ele>31.3</ele>
    <time>2019-09-08T06:40:13Z</time>
   </trkpt>
   <trkpt lat="51.2337970" lon="5.8160340">
    <ele>31.2</ele>
    <time>2019-09-08T06:40:14Z</time>
   </trkpt>
   <trkpt lat="51.2338600" lon="5.8160840">
    <ele>31.2</ele>
    <time>2019-09-08T06:40:15Z</time>
   </trkpt>
   <trkpt lat="51.2339280" lon="5.8161390">
    <ele>31.2</ele>
    <time>2019-09-08T06:40:16Z</time>
   </trkpt>
   <trkpt lat="51.2339910" lon="5.8162080">
    <ele>31.2</ele>
    <time>2019-09-08T06:40:17Z</time>
   </trkpt>
   <trkpt lat="51.2340560" lon="5.8162690">
    <ele>31.2</ele>
    <time>2019-09-08T06:40:18Z</time>
   </trkpt>
   <trkpt lat="51.2341210" lon="5.8163380">
    <ele>31.2</ele>
    <time>2019-09-08T06:40:19Z</time>
   </trkpt>
   <trkpt lat="51.2341820" lon="5.8164130">
    <ele>31.1</ele>
    <time>2019-09-08T06:40:20Z</time>
   </trkpt>
   <trkpt lat="51.2342380" lon="5.8164830">
    <ele>31.1</ele>
    <time>2019-09-08T06:40:21Z</time>
   </trkpt>
   <trkpt lat="51.2342960" lon="5.8165630">
    <ele>31.1</ele>
    <time>2019-09-08T06:40:22Z</time>
   </trkpt>
   <trkpt lat="51.2343470" lon="5.8166390">
    <ele>31.1</ele>
    <time>2019-09-08T06:40:23Z</time>
   </trkpt>
   <trkpt lat="51.2343980" lon="5.8167220">
    <ele>31.1</ele>
    <time>2019-09-08T06:40:24Z</time>
   </trkpt>
   <trkpt lat="51.2344600" lon="5.8168180">
    <ele>31.0</ele>
    <time>2019-09-08T06:40:25Z</time>
   </trkpt>
   <trkpt lat="51.2345130" lon="5.8168970">
    <ele>31.0</ele>
    <time>2019-09-08T06:40:26Z</time>
   </trkpt>
   <trkpt lat="51.2345650" lon="5.8169880">
    <ele>30.9</ele>
    <time>2019-09-08T06:40:27Z</time>
   </trkpt>
   <trkpt lat="51.2346090" lon="5.8170770">
    <ele>30.8</ele>
    <time>2019-09-08T06:40:28Z</time>
   </trkpt>
   <trkpt lat="51.2346590" lon="5.8171710">
    <ele>30.7</ele>
    <time>2019-09-08T06:40:29Z</time>
   </trkpt>
   <trkpt lat="51.2347040" lon="5.8172600">
    <ele>30.6</ele>
    <time>2019-09-08T06:40:30Z</time>
   </trkpt>
   <trkpt lat="51.2347550" lon="5.8173510">
    <ele>30.6</ele>
    <time>2019-09-08T06:40:31Z</time>
   </trkpt>
   <trkpt lat="51.2347970" lon="5.8174350">
    <ele>30.5</ele>
    <time>2019-09-08T06:40:32Z</time>
   </trkpt>
   <trkpt lat="51.2348460" lon="5.8175340">
    <ele>30.5</ele>
    <time>2019-09-08T06:40:33Z</time>
   </trkpt>
   <trkpt lat="51.2348880" lon="5.8176290">
    <ele>30.4</ele>
    <time>2019-09-08T06:40:34Z</time>
   </trkpt>
   <trkpt lat="51.2349370" lon="5.8177140">
    <ele>30.4</ele>
    <time>2019-09-08T06:40:35Z</time>
   </trkpt>
   <trkpt lat="51.2349830" lon="5.8177940">
    <ele>30.4</ele>
    <time>2019-09-08T06:40:36Z</time>
   </trkpt>
   <trkpt lat="51.2350230" lon="5.8178850">
    <ele>30.4</ele>
    <time>2019-09-08T06:40:37Z</time>
   </trkpt>
   <trkpt lat="51.2350650" lon="5.8179700">
    <ele>30.5</ele>
    <time>2019-09-08T06:40:38Z</time>
   </trkpt>
   <trkpt lat="51.2351070" lon="5.8180620">
    <ele>30.5</ele>
    <time>2019-09-08T06:40:39Z</time>
   </trkpt>
   <trkpt lat="51.2351560" lon="5.8181440">
    <ele>30.6</ele>
    <time>2019-09-08T06:40:40Z</time>
   </trkpt>
   <trkpt lat="51.2352030" lon="5.8182170">
    <ele>30.6</ele>
    <time>2019-09-08T06:40:41Z</time>
   </trkpt>
   <trkpt lat="51.2352540" lon="5.8183080">
    <ele>30.7</ele>
    <time>2019-09-08T06:40:42Z</time>
   </trkpt>
   <trkpt lat="51.2353080" lon="5.8183860">
    <ele>30.8</ele>
    <time>2019-09-08T06:40:43Z</time>
   </trkpt>
   <trkpt lat="51.2353690" lon="5.8184570">
    <ele>30.9</ele>
    <time>2019-09-08T06:40:44Z</time>
   </trkpt>
   <trkpt lat="51.2354260" lon="5.8185170">
    <ele>31.0</ele>
    <time>2019-09-08T06:40:45Z</time>
   </trkpt>
   <trkpt lat="51.2354920" lon="5.8185680">
    <ele>31.0</ele>
    <time>2019-09-08T06:40:46Z</time>
   </trkpt>
   <trkpt lat="51.2355570" lon="5.8186090">
    <ele>31.0</ele>
    <time>2019-09-08T06:40:47Z</time>
   </trkpt>
   <trkpt lat="51.2356240" lon="5.8186430">
    <ele>31.0</ele>
    <time>2019-09-08T06:40:48Z</time>
   </trkpt>
   <trkpt lat="51.2356910" lon="5.8186770">
    <ele>31.0</ele>
    <time>2019-09-08T06:40:49Z</time>
   </trkpt>
   <trkpt lat="51.2357610" lon="5.8186890">
    <ele>31.0</ele>
    <time>2019-09-08T06:40:50Z</time>
   </trkpt>
   <trkpt lat="51.2358320" lon="5.8186980">
    <ele>30.9</ele>
    <time>2019-09-08T06:40:51Z</time>
   </trkpt>
   <trkpt lat="51.2359030" lon="5.8186990">
    <ele>30.9</ele>
    <time>2019-09-08T06:40:52Z</time>
   </trkpt>
   <trkpt lat="51.2359750" lon="5.8186760">
    <ele>30.8</ele>
    <time>2019-09-08T06:40:53Z</time>
   </trkpt>
   <trkpt lat="51.2360500" lon="5.8186670">
    <ele>30.7</ele>
    <time>2019-09-08T06:40:54Z</time>
   </trkpt>
   <trkpt lat="51.2361170" lon="5.8186510">
    <ele>30.7</ele>
    <time>2019-09-08T06:40:55Z</time>
   </trkpt>
   <trkpt lat="51.2361870" lon="5.8186440">
    <ele>30.6</ele>
    <time>2019-09-08T06:40:56Z</time>
   </trkpt>
   <trkpt lat="51.2362580" lon="5.8186310">
    <ele>30.5</ele>
    <time>2019-09-08T06:40:57Z</time>
   </trkpt>
   <trkpt lat="51.2363280" lon="5.8186100">
    <ele>30.5</ele>
    <time>2019-09-08T06:40:58Z</time>
   </trkpt>
   <trkpt lat="51.2363970" lon="5.8185930">
    <ele>30.4</ele>
    <time>2019-09-08T06:40:59Z</time>
   </trkpt>
   <trkpt lat="51.2364610" lon="5.8185820">
    <ele>30.4</ele>
    <time>2019-09-08T06:41:00Z</time>
   </trkpt>
   <trkpt lat="51.2365330" lon="5.8185690">
    <ele>30.4</ele>
    <time>2019-09-08T06:41:01Z</time>
   </trkpt>
   <trkpt lat="51.2366100" lon="5.8185640">
    <ele>30.4</ele>
    <time>2019-09-08T06:41:02Z</time>
   </trkpt>
   <trkpt lat="51.2366840" lon="5.8185540">
    <ele>30.4</ele>
    <time>2019-09-08T06:41:03Z</time>
   </trkpt>
   <trkpt lat="51.2367680" lon="5.8185400">
    <ele>30.4</ele>
    <time>2019-09-08T06:41:04Z</time>
   </trkpt>
   <trkpt lat="51.2368440" lon="5.8185350">
    <ele>30.4</ele>
    <time>2019-09-08T06:41:05Z</time>
   </trkpt>
   <trkpt lat="51.2369090" lon="5.8185230">
    <ele>30.4</ele>
    <time>2019-09-08T06:41:06Z</time>
   </trkpt>
   <trkpt lat="51.2369710" lon="5.8185040">
    <ele>30.4</ele>
    <time>2019-09-08T06:41:07Z</time>
   </trkpt>
   <trkpt lat="51.2370410" lon="5.8184900">
    <ele>30.4</ele>
    <time>2019-09-08T06:41:08Z</time>
   </trkpt>
   <trkpt lat="51.2371090" lon="5.8184850">
    <ele>30.4</ele>
    <time>2019-09-08T06:41:09Z</time>
   </trkpt>
   <trkpt lat="51.2371800" lon="5.8184730">
    <ele>30.4</ele>
    <time>2019-09-08T06:41:10Z</time>
   </trkpt>
   <trkpt lat="51.2372510" lon="5.8184720">
    <ele>30.4</ele>
    <time>2019-09-08T06:41:11Z</time>
   </trkpt>
   <trkpt lat="51.2373220" lon="5.8184740">
    <ele>30.4</ele>
    <time>2019-09-08T06:41:12Z</time>
   </trkpt>
   <trkpt lat="51.2373920" lon="5.8184740">
    <ele>30.4</ele>
    <time>2019-09-08T06:41:13Z</time>
   </trkpt>
   <trkpt lat="51.2374570" lon="5.8184840">
    <ele>30.4</ele>
    <time>2019-09-08T06:41:14Z</time>
   </trkpt>
   <trkpt lat="51.2375310" lon="5.8185040">
    <ele>30.4</ele>
    <time>2019-09-08T06:41:15Z</time>
   </trkpt>
   <trkpt lat="51.2376020" lon="5.8185190">
    <ele>30.4</ele>
    <time>2019-09-08T06:41:16Z</time>
   </trkpt>
   <trkpt lat="51.2376680" lon="5.8185390">
    <ele>30.4</ele>
    <time>2019-09-08T06:41:17Z</time>
   </trkpt>
   <trkpt lat="51.2377310" lon="5.8185600">
    <ele>30.4</ele>
    <time>2019-09-08T06:41:18Z</time>
   </trkpt>
   <trkpt lat="51.2377940" lon="5.8185800">
    <ele>30.4</ele>
    <time>2019-09-08T06:41:19Z</time>
   </trkpt>
   <trkpt lat="51.2378580" lon="5.8186040">
    <ele>30.4</ele>
    <time>2019-09-08T06:41:20Z</time>
   </trkpt>
   <trkpt lat="51.2379210" lon="5.8186310">
    <ele>30.5</ele>
    <time>2019-09-08T06:41:21Z</time>
   </trkpt>
   <trkpt lat="51.2379840" lon="5.8186580">
    <ele>30.6</ele>
    <time>2019-09-08T06:41:22Z</time>
   </trkpt>
   <trkpt lat="51.2380470" lon="5.8186890">
    <ele>30.7</ele>
    <time>2019-09-08T06:41:23Z</time>
   </trkpt>
   <trkpt lat="51.2381050" lon="5.8187220">
    <ele>30.7</ele>
    <time>2019-09-08T06:41:24Z</time>
   </trkpt>
   <trkpt lat="51.2381580" lon="5.8187530">
    <ele>30.7</ele>
    <time>2019-09-08T06:41:25Z</time>
   </trkpt>
   <trkpt lat="51.2382160" lon="5.8187720">
    <ele>30.6</ele>
    <time>2019-09-08T06:41:26Z</time>
   </trkpt>
   <trkpt lat="51.2382670" lon="5.8188130">
    <ele>30.6</ele>
    <time>2019-09-08T06:41:27Z</time>
   </trkpt>
   <trkpt lat="51.2383200" lon="5.8188510">
    <ele>30.5</ele>
    <time>2019-09-08T06:41:28Z</time>
   </trkpt>
   <trkpt lat="51.2383730" lon="5.8188840">
    <ele>30.4</ele>
    <time>2019-09-08T06:41:29Z</time>
   </trkpt>
   <trkpt lat="51.2384250" lon="5.8189140">
    <ele>30.4</ele>
    <time>2019-09-08T06:41:30Z</time>
   </trkpt>
   <trkpt lat="51.2384770" lon="5.8189420">
    <ele>30.3</ele>
    <time>2019-09-08T06:41:31Z</time>
   </trkpt>
   <trkpt lat="51.2385250" lon="5.8189690">
    <ele>30.3</ele>
    <time>2019-09-08T06:41:32Z</time>
   </trkpt>
   <trkpt lat="51.2385760" lon="5.8189960">
    <ele>30.3</ele>
    <time>2019-09-08T06:41:33Z</time>
   </trkpt>
   <trkpt lat="51.2386280" lon="5.8190180">
    <ele>30.3</ele>
    <time>2019-09-08T06:41:34Z</time>
   </trkpt>
   <trkpt lat="51.2386780" lon="5.8190510">
    <ele>30.3</ele>
    <time>2019-09-08T06:41:35Z</time>
   </trkpt>
   <trkpt lat="51.2387200" lon="5.8190800">
    <ele>30.2</ele>
    <time>2019-09-08T06:41:36Z</time>
   </trkpt>
   <trkpt lat="51.2387670" lon="5.8191120">
    <ele>30.2</ele>
    <time>2019-09-08T06:41:37Z</time>
   </trkpt>
   <trkpt lat="51.2388080" lon="5.8191400">
    <ele>30.2</ele>
    <time>2019-09-08T06:41:38Z</time>
   </trkpt>
   <trkpt lat="51.2388520" lon="5.8191710">
    <ele>30.2</ele>
    <time>2019-09-08T06:41:39Z</time>
   </trkpt>
   <trkpt lat="51.2388960" lon="5.8191980">
    <ele>30.2</ele>
    <time>2019-09-08T06:41:40Z</time>
   </trkpt>
   <trkpt lat="51.2389390" lon="5.8192170">
    <ele>30.2</ele>
    <time>2019-09-08T06:41:41Z</time>
   </trkpt>
   <trkpt lat="51.2389830" lon="5.8192480">
    <ele>30.2</ele>
    <time>2019-09-08T06:41:42Z</time>
   </trkpt>
   <trkpt lat="51.2390260" lon="5.8192700">
    <ele>30.2</ele>
    <time>2019-09-08T06:41:43Z</time>
   </trkpt>
   <trkpt lat="51.2390700" lon="5.8192880">
    <ele>30.2</ele>
    <time>2019-09-08T06:41:44Z</time>
   </trkpt>
   <trkpt lat="51.2391060" lon="5.8193030">
    <ele>30.2</ele>
    <time>2019-09-08T06:41:45Z</time>
   </trkpt>
   <trkpt lat="51.2391500" lon="5.8193160">
    <ele>30.2</ele>
    <time>2019-09-08T06:41:46Z</time>
   </trkpt>
   <trkpt lat="51.2391920" lon="5.8193320">
    <ele>30.2</ele>
    <time>2019-09-08T06:41:47Z</time>
   </trkpt>
   <trkpt lat="51.2392410" lon="5.8193500">
    <ele>30.2</ele>
    <time>2019-09-08T06:41:48Z</time>
   </trkpt>
   <trkpt lat="51.2392870" lon="5.8193680">
    <ele>30.2</ele>
    <time>2019-09-08T06:41:49Z</time>
   </trkpt>
   <trkpt lat="51.2393330" lon="5.8193880">
    <ele>30.2</ele>
    <time>2019-09-08T06:41:50Z</time>
   </trkpt>
   <trkpt lat="51.2393820" lon="5.8194150">
    <ele>30.2</ele>
    <time>2019-09-08T06:41:51Z</time>
   </trkpt>
   <trkpt lat="51.2394290" lon="5.8194230">
    <ele>30.2</ele>
    <time>2019-09-08T06:41:52Z</time>
   </trkpt>
   <trkpt lat="51.2394790" lon="5.8194250">
    <ele>30.2</ele>
    <time>2019-09-08T06:41:53Z</time>
   </trkpt>
   <trkpt lat="51.2395250" lon="5.8194320">
    <ele>30.2</ele>
    <time>2019-09-08T06:41:54Z</time>
   </trkpt>
   <trkpt lat="51.2395730" lon="5.8194350">
    <ele>30.2</ele>
    <time>2019-09-08T06:41:55Z</time>
   </trkpt>
   <trkpt lat="51.2396260" lon="5.8194420">
    <ele>30.2</ele>
    <time>2019-09-08T06:41:56Z</time>
   </trkpt>
   <trkpt lat="51.2396790" lon="5.8194570">
    <ele>30.2</ele>
    <time>2019-09-08T06:41:57Z</time>
   </trkpt>
   <trkpt lat="51.2397330" lon="5.8194630">
    <ele>30.2</ele>
    <time>2019-09-08T06:41:58Z</time>
   </trkpt>
   <trkpt lat="51.2397870" lon="5.8194710">
    <ele>30.1</ele>
    <time>2019-09-08T06:41:59Z</time>
   </trkpt>
   <trkpt lat="51.2398450" lon="5.8194740">
    <ele>30.1</ele>
    <time>2019-09-08T06:42:00Z</time>
   </trkpt>
   <trkpt lat="51.2399100" lon="5.8194830">
    <ele>30.1</ele>
    <time>2019-09-08T06:42:01Z</time>
   </trkpt>
   <trkpt lat="51.2399800" lon="5.8194860">
    <ele>30.1</ele>
    <time>2019-09-08T06:42:02Z</time>
   </trkpt>
   <trkpt lat="51.2400410" lon="5.8194930">
    <ele>30.1</ele>
    <time>2019-09-08T06:42:03Z</time>
   </trkpt>
   <trkpt lat="51.2401050" lon="5.8195000">
    <ele>30.1</ele>
    <time>2019-09-08T06:42:04Z</time>
   </trkpt>
   <trkpt lat="51.2401750" lon="5.8194970">
    <ele>29.9</ele>
    <time>2019-09-08T06:42:05Z</time>
   </trkpt>
   <trkpt lat="51.2402380" lon="5.8195060">
    <ele>29.7</ele>
    <time>2019-09-08T06:42:06Z</time>
   </trkpt>
   <trkpt lat="51.2403050" lon="5.8195130">
    <ele>29.4</ele>
    <time>2019-09-08T06:42:07Z</time>
   </trkpt>
   <trkpt lat="51.2403820" lon="5.8195300">
    <ele>29.2</ele>
    <time>2019-09-08T06:42:08Z</time>
   </trkpt>
   <trkpt lat="51.2404600" lon="5.8195380">
    <ele>29.0</ele>
    <time>2019-09-08T06:42:09Z</time>
   </trkpt>
   <trkpt lat="51.2405380" lon="5.8195410">
    <ele>28.9</ele>
    <time>2019-09-08T06:42:10Z</time>
   </trkpt>
   <trkpt lat="51.2406120" lon="5.8195470">
    <ele>28.8</ele>
    <time>2019-09-08T06:42:11Z</time>
   </trkpt>
   <trkpt lat="51.2406880" lon="5.8195470">
    <ele>28.8</ele>
    <time>2019-09-08T06:42:12Z</time>
   </trkpt>
   <trkpt lat="51.2407640" lon="5.8195580">
    <ele>28.7</ele>
    <time>2019-09-08T06:42:13Z</time>
   </trkpt>
   <trkpt lat="51.2408390" lon="5.8195570">
    <ele>28.7</ele>
    <time>2019-09-08T06:42:14Z</time>
   </trkpt>
   <trkpt lat="51.2409160" lon="5.8195650">
    <ele>28.7</ele>
    <time>2019-09-08T06:42:15Z</time>
   </trkpt>
   <trkpt lat="51.2409940" lon="5.8195560">
    <ele>28.7</ele>
    <time>2019-09-08T06:42:16Z</time>
   </trkpt>
   <trkpt lat="51.2410650" lon="5.8195870">
    <ele>28.6</ele>
    <time>2019-09-08T06:42:17Z</time>
   </trkpt>
   <trkpt lat="51.2411380" lon="5.8196000">
    <ele>28.5</ele>
    <time>2019-09-08T06:42:18Z</time>
   </trkpt>
   <trkpt lat="51.2412110" lon="5.8196050">
    <ele>28.4</ele>
    <time>2019-09-08T06:42:19Z</time>
   </trkpt>
   <trkpt lat="51.2412800" lon="5.8196120">
    <ele>28.4</ele>
    <time>2019-09-08T06:42:20Z</time>
   </trkpt>
   <trkpt lat="51.2413630" lon="5.8196220">
    <ele>28.2</ele>
    <time>2019-09-08T06:42:21Z</time>
   </trkpt>
   <trkpt lat="51.2414450" lon="5.8196230">
    <ele>28.1</ele>
    <time>2019-09-08T06:42:22Z</time>
   </trkpt>
   <trkpt lat="51.2415180" lon="5.8196320">
    <ele>28.0</ele>
    <time>2019-09-08T06:42:23Z</time>
   </trkpt>
   <trkpt lat="51.2415940" lon="5.8196410">
    <ele>28.0</ele>
    <time>2019-09-08T06:42:24Z</time>
   </trkpt>
   <trkpt lat="51.2416600" lon="5.8196430">
    <ele>28.0</ele>
    <time>2019-09-08T06:42:25Z</time>
   </trkpt>
   <trkpt lat="51.2417330" lon="5.8196450">
    <ele>28.1</ele>
    <time>2019-09-08T06:42:26Z</time>
   </trkpt>
   <trkpt lat="51.2417980" lon="5.8196460">
    <ele>28.1</ele>
    <time>2019-09-08T06:42:27Z</time>
   </trkpt>
   <trkpt lat="51.2418720" lon="5.8196360">
    <ele>28.2</ele>
    <time>2019-09-08T06:42:28Z</time>
   </trkpt>
   <trkpt lat="51.2419460" lon="5.8196170">
    <ele>28.3</ele>
    <time>2019-09-08T06:42:29Z</time>
   </trkpt>
   <trkpt lat="51.2420210" lon="5.8196000">
    <ele>28.4</ele>
    <time>2019-09-08T06:42:30Z</time>
   </trkpt>
   <trkpt lat="51.2420920" lon="5.8195870">
    <ele>28.5</ele>
    <time>2019-09-08T06:42:31Z</time>
   </trkpt>
   <trkpt lat="51.2421590" lon="5.8195630">
    <ele>28.6</ele>
    <time>2019-09-08T06:42:32Z</time>
   </trkpt>
   <trkpt lat="51.2422310" lon="5.8195380">
    <ele>28.7</ele>
    <time>2019-09-08T06:42:33Z</time>
   </trkpt>
   <trkpt lat="51.2423000" lon="5.8195190">
    <ele>28.8</ele>
    <time>2019-09-08T06:42:34Z</time>
   </trkpt>
   <trkpt lat="51.2423610" lon="5.8194880">
    <ele>28.9</ele>
    <time>2019-09-08T06:42:35Z</time>
   </trkpt>
   <trkpt lat="51.2424300" lon="5.8194690">
    <ele>29.0</ele>
    <time>2019-09-08T06:42:36Z</time>
   </trkpt>
   <trkpt lat="51.2424950" lon="5.8194360">
    <ele>29.1</ele>
    <time>2019-09-08T06:42:37Z</time>
   </trkpt>
   <trkpt lat="51.2425620" lon="5.8194040">
    <ele>29.2</ele>
    <time>2019-09-08T06:42:38Z</time>
   </trkpt>
   <trkpt lat="51.2426310" lon="5.8193810">
    <ele>29.3</ele>
    <time>2019-09-08T06:42:39Z</time>
   </trkpt>
   <trkpt lat="51.2426970" lon="5.8193430">
    <ele>29.4</ele>
    <time>2019-09-08T06:42:40Z</time>
   </trkpt>
   <trkpt lat="51.2427650" lon="5.8193140">
    <ele>29.6</ele>
    <time>2019-09-08T06:42:41Z</time>
   </trkpt>
   <trkpt lat="51.2428300" lon="5.8192850">
    <ele>29.7</ele>
    <time>2019-09-08T06:42:42Z</time>
   </trkpt>
   <trkpt lat="51.2428960" lon="5.8192550">
    <ele>29.8</ele>
    <time>2019-09-08T06:42:43Z</time>
   </trkpt>
   <trkpt lat="51.2429600" lon="5.8192270">
    <ele>29.8</ele>
    <time>2019-09-08T06:42:44Z</time>
   </trkpt>
   <trkpt lat="51.2430280" lon="5.8192040">
    <ele>29.9</ele>
    <time>2019-09-08T06:42:45Z</time>
   </trkpt>
   <trkpt lat="51.2430940" lon="5.8191660">
    <ele>30.0</ele>
    <time>2019-09-08T06:42:46Z</time>
   </trkpt>
   <trkpt lat="51.2431620" lon="5.8191430">
    <ele>30.2</ele>
    <time>2019-09-08T06:42:47Z</time>
   </trkpt>
   <trkpt lat="51.2432210" lon="5.8191140">
    <ele>30.3</ele>
    <time>2019-09-08T06:42:48Z</time>
   </trkpt>
   <trkpt lat="51.2432840" lon="5.8190830">
    <ele>30.4</ele>
    <time>2019-09-08T06:42:49Z</time>
   </trkpt>
   <trkpt lat="51.2433470" lon="5.8190550">
    <ele>30.5</ele>
    <time>2019-09-08T06:42:50Z</time>
   </trkpt>
   <trkpt lat="51.2434060" lon="5.8190290">
    <ele>30.6</ele>
    <time>2019-09-08T06:42:51Z</time>
   </trkpt>
   <trkpt lat="51.2434630" lon="5.8190010">
    <ele>30.7</ele>
    <time>2019-09-08T06:42:52Z</time>
   </trkpt>
   <trkpt lat="51.2435250" lon="5.8189740">
    <ele>30.9</ele>
    <time>2019-09-08T06:42:53Z</time>
   </trkpt>
   <trkpt lat="51.2435860" lon="5.8189410">
    <ele>31.0</ele>
    <time>2019-09-08T06:42:54Z</time>
   </trkpt>
   <trkpt lat="51.2436510" lon="5.8189070">
    <ele>31.1</ele>
    <time>2019-09-08T06:42:55Z</time>
   </trkpt>
   <trkpt lat="51.2437060" lon="5.8188820">
    <ele>31.2</ele>
    <time>2019-09-08T06:42:56Z</time>
   </trkpt>
   <trkpt lat="51.2437650" lon="5.8188530">
    <ele>31.3</ele>
    <time>2019-09-08T06:42:57Z</time>
   </trkpt>
   <trkpt lat="51.2438300" lon="5.8188380">
    <ele>31.4</ele>
    <time>2019-09-08T06:42:58Z</time>
   </trkpt>
   <trkpt lat="51.2438920" lon="5.8188140">
    <ele>31.5</ele>
    <time>2019-09-08T06:42:59Z</time>
   </trkpt>
   <trkpt lat="51.2439420" lon="5.8187850">
    <ele>31.6</ele>
    <time>2019-09-08T06:43:00Z</time>
   </trkpt>
   <trkpt lat="51.2439960" lon="5.8187610">
    <ele>31.7</ele>
    <time>2019-09-08T06:43:01Z</time>
   </trkpt>
   <trkpt lat="51.2440440" lon="5.8187450">
    <ele>31.8</ele>
    <time>2019-09-08T06:43:02Z</time>
   </trkpt>
   <trkpt lat="51.2440900" lon="5.8187390">
    <ele>31.9</ele>
    <time>2019-09-08T06:43:03Z</time>
   </trkpt>
   <trkpt lat="51.2441270" lon="5.8187330">
    <ele>31.9</ele>
    <time>2019-09-08T06:43:04Z</time>
   </trkpt>
   <trkpt lat="51.2441620" lon="5.8187220">
    <ele>32.0</ele>
    <time>2019-09-08T06:43:05Z</time>
   </trkpt>
   <trkpt lat="51.2441910" lon="5.8187160">
    <ele>32.0</ele>
    <time>2019-09-08T06:43:06Z</time>
   </trkpt>
   <trkpt lat="51.2442180" lon="5.8187010">
    <ele>32.0</ele>
    <time>2019-09-08T06:43:07Z</time>
   </trkpt>
   <trkpt lat="51.2442480" lon="5.8186970">
    <ele>32.1</ele>
    <time>2019-09-08T06:43:08Z</time>
   </trkpt>
   <trkpt lat="51.2442890" lon="5.8187010">
    <ele>32.1</ele>
    <time>2019-09-08T06:43:10Z</time>
   </trkpt>
   <trkpt lat="51.2443190" lon="5.8187060">
    <ele>32.2</ele>
    <time>2019-09-08T06:43:11Z</time>
   </trkpt>
   <trkpt lat="51.2443620" lon="5.8186890">
    <ele>32.2</ele>
    <time>2019-09-08T06:43:12Z</time>
   </trkpt>
   <trkpt lat="51.2443940" lon="5.8186880">
    <ele>32.3</ele>
    <time>2019-09-08T06:43:14Z</time>
   </trkpt>
   <trkpt lat="51.2444380" lon="5.8186800">
    <ele>32.4</ele>
    <time>2019-09-08T06:43:16Z</time>
   </trkpt>
   <trkpt lat="51.2444660" lon="5.8186630">
    <ele>32.3</ele>
    <time>2019-09-08T06:43:17Z</time>
   </trkpt>
   <trkpt lat="51.2444890" lon="5.8186240">
    <ele>32.3</ele>
    <time>2019-09-08T06:43:18Z</time>
   </trkpt>
   <trkpt lat="51.2445020" lon="5.8185630">
    <ele>32.3</ele>
    <time>2019-09-08T06:43:19Z</time>
   </trkpt>
   <trkpt lat="51.2444640" lon="5.8184680">
    <ele>32.4</ele>
    <time>2019-09-08T06:43:20Z</time>
   </trkpt>
   <trkpt lat="51.2444500" lon="5.8183970">
    <ele>32.5</ele>
    <time>2019-09-08T06:43:21Z</time>
   </trkpt>
   <trkpt lat="51.2444320" lon="5.8183190">
    <ele>32.6</ele>
    <time>2019-09-08T06:43:22Z</time>
   </trkpt>
   <trkpt lat="51.2444040" lon="5.8182450">
    <ele>32.7</ele>
    <time>2019-09-08T06:43:23Z</time>
   </trkpt>
   <trkpt lat="51.2443660" lon="5.8181720">
    <ele>32.8</ele>
    <time>2019-09-08T06:43:24Z</time>
   </trkpt>
   <trkpt lat="51.2443240" lon="5.8181020">
    <ele>32.9</ele>
    <time>2019-09-08T06:43:25Z</time>
   </trkpt>
   <trkpt lat="51.2442850" lon="5.8180400">
    <ele>33.0</ele>
    <time>2019-09-08T06:43:26Z</time>
   </trkpt>
   <trkpt lat="51.2442470" lon="5.8179570">
    <ele>33.1</ele>
    <time>2019-09-08T06:43:27Z</time>
   </trkpt>
   <trkpt lat="51.2442150" lon="5.8178700">
    <ele>33.2</ele>
    <time>2019-09-08T06:43:28Z</time>
   </trkpt>
   <trkpt lat="51.2441870" lon="5.8177870">
    <ele>33.2</ele>
    <time>2019-09-08T06:43:29Z</time>
   </trkpt>
   <trkpt lat="51.2441610" lon="5.8176910">
    <ele>33.3</ele>
    <time>2019-09-08T06:43:30Z</time>
   </trkpt>
   <trkpt lat="51.2441620" lon="5.8175680">
    <ele>33.4</ele>
    <time>2019-09-08T06:43:31Z</time>
   </trkpt>
   <trkpt lat="51.2441510" lon="5.8174560">
    <ele>33.5</ele>
    <time>2019-09-08T06:43:32Z</time>
   </trkpt>
   <trkpt lat="51.2441340" lon="5.8173380">
    <ele>33.6</ele>
    <time>2019-09-08T06:43:33Z</time>
   </trkpt>
   <trkpt lat="51.2441200" lon="5.8172210">
    <ele>33.6</ele>
    <time>2019-09-08T06:43:34Z</time>
   </trkpt>
   <trkpt lat="51.2441090" lon="5.8171090">
    <ele>33.7</ele>
    <time>2019-09-08T06:43:35Z</time>
   </trkpt>
   <trkpt lat="51.2440980" lon="5.8170050">
    <ele>33.7</ele>
    <time>2019-09-08T06:43:36Z</time>
   </trkpt>
   <trkpt lat="51.2440870" lon="5.8168920">
    <ele>33.8</ele>
    <time>2019-09-08T06:43:37Z</time>
   </trkpt>
   <trkpt lat="51.2440730" lon="5.8167920">
    <ele>33.8</ele>
    <time>2019-09-08T06:43:38Z</time>
   </trkpt>
   <trkpt lat="51.2440590" lon="5.8166860">
    <ele>33.9</ele>
    <time>2019-09-08T06:43:39Z</time>
   </trkpt>
   <trkpt lat="51.2440360" lon="5.8165840">
    <ele>33.9</ele>
    <time>2019-09-08T06:43:40Z</time>
   </trkpt>
   <trkpt lat="51.2440240" lon="5.8164760">
    <ele>34.0</ele>
    <time>2019-09-08T06:43:41Z</time>
   </trkpt>
   <trkpt lat="51.2440070" lon="5.8163710">
    <ele>34.0</ele>
    <time>2019-09-08T06:43:42Z</time>
   </trkpt>
   <trkpt lat="51.2440040" lon="5.8162550">
    <ele>34.1</ele>
    <time>2019-09-08T06:43:43Z</time>
   </trkpt>
   <trkpt lat="51.2439900" lon="5.8161580">
    <ele>34.2</ele>
    <time>2019-09-08T06:43:44Z</time>
   </trkpt>
   <trkpt lat="51.2439740" lon="5.8160460">
    <ele>34.3</ele>
    <time>2019-09-08T06:43:45Z</time>
   </trkpt>
   <trkpt lat="51.2439620" lon="5.8159390">
    <ele>34.3</ele>
    <time>2019-09-08T06:43:46Z</time>
   </trkpt>
   <trkpt lat="51.2439460" lon="5.8158380">
    <ele>34.4</ele>
    <time>2019-09-08T06:43:47Z</time>
   </trkpt>
   <trkpt lat="51.2439320" lon="5.8157140">
    <ele>34.5</ele>
    <time>2019-09-08T06:43:48Z</time>
   </trkpt>
   <trkpt lat="51.2439240" lon="5.8156100">
    <ele>34.5</ele>
    <time>2019-09-08T06:43:49Z</time>
   </trkpt>
   <trkpt lat="51.2439200" lon="5.8154790">
    <ele>34.6</ele>
    <time>2019-09-08T06:43:50Z</time>
   </trkpt>
   <trkpt lat="51.2439060" lon="5.8153730">
    <ele>34.7</ele>
    <time>2019-09-08T06:43:51Z</time>
   </trkpt>
   <trkpt lat="51.2438940" lon="5.8152610">
    <ele>34.7</ele>
    <time>2019-09-08T06:43:52Z</time>
   </trkpt>
   <trkpt lat="51.2438790" lon="5.8151580">
    <ele>34.8</ele>
    <time>2019-09-08T06:43:53Z</time>
   </trkpt>
   <trkpt lat="51.2438650" lon="5.8150480">
    <ele>34.8</ele>
    <time>2019-09-08T06:43:54Z</time>
   </trkpt>
   <trkpt lat="51.2438480" lon="5.8149380">
    <ele>34.8</ele>
    <time>2019-09-08T06:43:55Z</time>
   </trkpt>
   <trkpt lat="51.2438350" lon="5.8148350">
    <ele>34.9</ele>
    <time>2019-09-08T06:43:56Z</time>
   </trkpt>
   <trkpt lat="51.2438100" lon="5.8147230">
    <ele>34.9</ele>
    <time>2019-09-08T06:43:57Z</time>
   </trkpt>
   <trkpt lat="51.2437850" lon="5.8146190">
    <ele>35.0</ele>
    <time>2019-09-08T06:43:58Z</time>
   </trkpt>
   <trkpt lat="51.2437570" lon="5.8145120">
    <ele>35.0</ele>
    <time>2019-09-08T06:43:59Z</time>
   </trkpt>
   <trkpt lat="51.2437260" lon="5.8144070">
    <ele>35.1</ele>
    <time>2019-09-08T06:44:00Z</time>
   </trkpt>
   <trkpt lat="51.2436960" lon="5.8143090">
    <ele>35.1</ele>
    <time>2019-09-08T06:44:01Z</time>
   </trkpt>
   <trkpt lat="51.2436600" lon="5.8142070">
    <ele>35.2</ele>
    <time>2019-09-08T06:44:02Z</time>
   </trkpt>
   <trkpt lat="51.2436210" lon="5.8140990">
    <ele>35.3</ele>
    <time>2019-09-08T06:44:03Z</time>
   </trkpt>
   <trkpt lat="51.2435850" lon="5.8140110">
    <ele>35.3</ele>
    <time>2019-09-08T06:44:04Z</time>
   </trkpt>
   <trkpt lat="51.2435440" lon="5.8139190">
    <ele>35.3</ele>
    <time>2019-09-08T06:44:05Z</time>
   </trkpt>
   <trkpt lat="51.2435050" lon="5.8138250">
    <ele>35.4</ele>
    <time>2019-09-08T06:44:06Z</time>
   </trkpt>
   <trkpt lat="51.2434600" lon="5.8137230">
    <ele>35.3</ele>
    <time>2019-09-08T06:44:07Z</time>
   </trkpt>
   <trkpt lat="51.2434200" lon="5.8136300">
    <ele>35.3</ele>
    <time>2019-09-08T06:44:08Z</time>
   </trkpt>
   <trkpt lat="51.2433840" lon="5.8135420">
    <ele>35.2</ele>
    <time>2019-09-08T06:44:09Z</time>
   </trkpt>
   <trkpt lat="51.2433420" lon="5.8134460">
    <ele>35.1</ele>
    <time>2019-09-08T06:44:10Z</time>
   </trkpt>
   <trkpt lat="51.2433150" lon="5.8133320">
    <ele>35.0</ele>
    <time>2019-09-08T06:44:11Z</time>
   </trkpt>
   <trkpt lat="51.2432810" lon="5.8132250">
    <ele>34.8</ele>
    <time>2019-09-08T06:44:12Z</time>
   </trkpt>
   <trkpt lat="51.2432510" lon="5.8131200">
    <ele>34.6</ele>
    <time>2019-09-08T06:44:13Z</time>
   </trkpt>
   <trkpt lat="51.2432320" lon="5.8130180">
    <ele>34.5</ele>
    <time>2019-09-08T06:44:14Z</time>
   </trkpt>
   <trkpt lat="51.2432070" lon="5.8129100">
    <ele>34.4</ele>
    <time>2019-09-08T06:44:15Z</time>
   </trkpt>
   <trkpt lat="51.2431880" lon="5.8128000">
    <ele>34.2</ele>
    <time>2019-09-08T06:44:16Z</time>
   </trkpt>
   <trkpt lat="51.2431690" lon="5.8126930">
    <ele>34.1</ele>
    <time>2019-09-08T06:44:17Z</time>
   </trkpt>
   <trkpt lat="51.2431500" lon="5.8125860">
    <ele>34.0</ele>
    <time>2019-09-08T06:44:18Z</time>
   </trkpt>
   <trkpt lat="51.2431310" lon="5.8124770">
    <ele>33.9</ele>
    <time>2019-09-08T06:44:19Z</time>
   </trkpt>
   <trkpt lat="51.2431100" lon="5.8123640">
    <ele>33.8</ele>
    <time>2019-09-08T06:44:20Z</time>
   </trkpt>
   <trkpt lat="51.2430900" lon="5.8122580">
    <ele>33.7</ele>
    <time>2019-09-08T06:44:21Z</time>
   </trkpt>
   <trkpt lat="51.2430820" lon="5.8121600">
    <ele>33.6</ele>
    <time>2019-09-08T06:44:22Z</time>
   </trkpt>
   <trkpt lat="51.2430650" lon="5.8120440">
    <ele>33.5</ele>
    <time>2019-09-08T06:44:23Z</time>
   </trkpt>
   <trkpt lat="51.2430550" lon="5.8119310">
    <ele>33.4</ele>
    <time>2019-09-08T06:44:24Z</time>
   </trkpt>
   <trkpt lat="51.2430400" lon="5.8118180">
    <ele>33.3</ele>
    <time>2019-09-08T06:44:25Z</time>
   </trkpt>
   <trkpt lat="51.2430210" lon="5.8117080">
    <ele>33.3</ele>
    <time>2019-09-08T06:44:26Z</time>
   </trkpt>
   <trkpt lat="51.2430040" lon="5.8116060">
    <ele>33.2</ele>
    <time>2019-09-08T06:44:27Z</time>
   </trkpt>
   <trkpt lat="51.2429880" lon="5.8114960">
    <ele>33.2</ele>
    <time>2019-09-08T06:44:28Z</time>
   </trkpt>
   <trkpt lat="51.2429930" lon="5.8113870">
    <ele>33.1</ele>
    <time>2019-09-08T06:44:29Z</time>
   </trkpt>
   <trkpt lat="51.2429830" lon="5.8112910">
    <ele>33.1</ele>
    <time>2019-09-08T06:44:30Z</time>
   </trkpt>
   <trkpt lat="51.2429700" lon="5.8111830">
    <ele>33.1</ele>
    <time>2019-09-08T06:44:31Z</time>
   </trkpt>
   <trkpt lat="51.2429510" lon="5.8110690">
    <ele>33.1</ele>
    <time>2019-09-08T06:44:32Z</time>
   </trkpt>
   <trkpt lat="51.2429370" lon="5.8109420">
    <ele>33.1</ele>
    <time>2019-09-08T06:44:33Z</time>
   </trkpt>
   <trkpt lat="51.2429230" lon="5.8108460">
    <ele>33.1</ele>
    <time>2019-09-08T06:44:34Z</time>
   </trkpt>
   <trkpt lat="51.2429040" lon="5.8107360">
    <ele>33.1</ele>
    <time>2019-09-08T06:44:35Z</time>
   </trkpt>
   <trkpt lat="51.2428860" lon="5.8106190">
    <ele>33.1</ele>
    <time>2019-09-08T06:44:36Z</time>
   </trkpt>
   <trkpt lat="51.2428640" lon="5.8105120">
    <ele>33.2</ele>
    <time>2019-09-08T06:44:37Z</time>
   </trkpt>
   <trkpt lat="51.2428440" lon="5.8103860">
    <ele>33.2</ele>
    <time>2019-09-08T06:44:38Z</time>
   </trkpt>
   <trkpt lat="51.2428270" lon="5.8102920">
    <ele>33.2</ele>
    <time>2019-09-08T06:44:39Z</time>
   </trkpt>
   <trkpt lat="51.2428080" lon="5.8101820">
    <ele>33.2</ele>
    <time>2019-09-08T06:44:40Z</time>
   </trkpt>
   <trkpt lat="51.2427980" lon="5.8100730">
    <ele>33.3</ele>
    <time>2019-09-08T06:44:41Z</time>
   </trkpt>
   <trkpt lat="51.2427840" lon="5.8099560">
    <ele>33.3</ele>
    <time>2019-09-08T06:44:42Z</time>
   </trkpt>
   <trkpt lat="51.2427660" lon="5.8098610">
    <ele>33.3</ele>
    <time>2019-09-08T06:44:43Z</time>
   </trkpt>
   <trkpt lat="51.2427530" lon="5.8097660">
    <ele>33.4</ele>
    <time>2019-09-08T06:44:44Z</time>
   </trkpt>
   <trkpt lat="51.2427380" lon="5.8096780">
    <ele>33.4</ele>
    <time>2019-09-08T06:44:45Z</time>
   </trkpt>
   <trkpt lat="51.2427510" lon="5.8095720">
    <ele>33.4</ele>
    <time>2019-09-08T06:44:46Z</time>
   </trkpt>
   <trkpt lat="51.2427370" lon="5.8094910">
    <ele>33.5</ele>
    <time>2019-09-08T06:44:47Z</time>
   </trkpt>
   <trkpt lat="51.2427260" lon="5.8094070">
    <ele>33.5</ele>
    <time>2019-09-08T06:44:48Z</time>
   </trkpt>
   <trkpt lat="51.2427180" lon="5.8093170">
    <ele>33.5</ele>
    <time>2019-09-08T06:44:49Z</time>
   </trkpt>
   <trkpt lat="51.2427150" lon="5.8092160">
    <ele>33.5</ele>
    <time>2019-09-08T06:44:50Z</time>
   </trkpt>
   <trkpt lat="51.2427140" lon="5.8091180">
    <ele>33.6</ele>
    <time>2019-09-08T06:44:51Z</time>
   </trkpt>
   <trkpt lat="51.2427140" lon="5.8090310">
    <ele>33.6</ele>
    <time>2019-09-08T06:44:52Z</time>
   </trkpt>
   <trkpt lat="51.2427190" lon="5.8089380">
    <ele>33.6</ele>
    <time>2019-09-08T06:44:53Z</time>
   </trkpt>
   <trkpt lat="51.2427210" lon="5.8088370">
    <ele>33.7</ele>
    <time>2019-09-08T06:44:54Z</time>
   </trkpt>
   <trkpt lat="51.2427270" lon="5.8087410">
    <ele>33.7</ele>
    <time>2019-09-08T06:44:55Z</time>
   </trkpt>
   <trkpt lat="51.2427420" lon="5.8086320">
    <ele>33.8</ele>
    <time>2019-09-08T06:44:56Z</time>
   </trkpt>
   <trkpt lat="51.2427610" lon="5.8085190">
    <ele>33.8</ele>
    <time>2019-09-08T06:44:57Z</time>
   </trkpt>
   <trkpt lat="51.2427860" lon="5.8084200">
    <ele>33.9</ele>
    <time>2019-09-08T06:44:58Z</time>
   </trkpt>
   <trkpt lat="51.2428050" lon="5.8083120">
    <ele>33.9</ele>
    <time>2019-09-08T06:44:59Z</time>
   </trkpt>
   <trkpt lat="51.2428220" lon="5.8082030">
    <ele>33.9</ele>
    <time>2019-09-08T06:45:00Z</time>
   </trkpt>
   <trkpt lat="51.2428500" lon="5.8080980">
    <ele>34.0</ele>
    <time>2019-09-08T06:45:01Z</time>
   </trkpt>
   <trkpt lat="51.2428650" lon="5.8079950">
    <ele>34.0</ele>
    <time>2019-09-08T06:45:02Z</time>
   </trkpt>
   <trkpt lat="51.2428910" lon="5.8078870">
    <ele>34.0</ele>
    <time>2019-09-08T06:45:03Z</time>
   </trkpt>
   <trkpt lat="51.2429180" lon="5.8077700">
    <ele>34.0</ele>
    <time>2019-09-08T06:45:04Z</time>
   </trkpt>
   <trkpt lat="51.2429520" lon="5.8076540">
    <ele>33.9</ele>
    <time>2019-09-08T06:45:05Z</time>
   </trkpt>
   <trkpt lat="51.2429720" lon="5.8075440">
    <ele>33.8</ele>
    <time>2019-09-08T06:45:06Z</time>
   </trkpt>
   <trkpt lat="51.2429930" lon="5.8074430">
    <ele>33.8</ele>
    <time>2019-09-08T06:45:07Z</time>
   </trkpt>
   <trkpt lat="51.2430250" lon="5.8073490">
    <ele>33.7</ele>
    <time>2019-09-08T06:45:08Z</time>
   </trkpt>
   <trkpt lat="51.2430700" lon="5.8072330">
    <ele>33.6</ele>
    <time>2019-09-08T06:45:09Z</time>
   </trkpt>
   <trkpt lat="51.2431180" lon="5.8071230">
    <ele>33.5</ele>
    <time>2019-09-08T06:45:10Z</time>
   </trkpt>
   <trkpt lat="51.2431400" lon="5.8070370">
    <ele>33.5</ele>
    <time>2019-09-08T06:45:11Z</time>
   </trkpt>
   <trkpt lat="51.2431690" lon="5.8069460">
    <ele>33.5</ele>
    <time>2019-09-08T06:45:12Z</time>
   </trkpt>
   <trkpt lat="51.2432010" lon="5.8068520">
    <ele>33.5</ele>
    <time>2019-09-08T06:45:13Z</time>
   </trkpt>
   <trkpt lat="51.2432470" lon="5.8067600">
    <ele>33.5</ele>
    <time>2019-09-08T06:45:14Z</time>
   </trkpt>
   <trkpt lat="51.2432770" lon="5.8066300">
    <ele>33.6</ele>
    <time>2019-09-08T06:45:16Z</time>
   </trkpt>
   <trkpt lat="51.2433610" lon="5.8064550">
    <ele>33.8</ele>
    <time>2019-09-08T06:45:17Z</time>
   </trkpt>
   <trkpt lat="51.2433560" lon="5.8063710">
    <ele>33.9</ele>
    <time>2019-09-08T06:45:18Z</time>
   </trkpt>
   <trkpt lat="51.2433660" lon="5.8062780">
    <ele>34.0</ele>
    <time>2019-09-08T06:45:19Z</time>
   </trkpt>
   <trkpt lat="51.2434000" lon="5.8061310">
    <ele>34.1</ele>
    <time>2019-09-08T06:45:20Z</time>
   </trkpt>
   <trkpt lat="51.2434150" lon="5.8060260">
    <ele>34.2</ele>
    <time>2019-09-08T06:45:21Z</time>
   </trkpt>
   <trkpt lat="51.2434290" lon="5.8059180">
    <ele>34.4</ele>
    <time>2019-09-08T06:45:22Z</time>
   </trkpt>
   <trkpt lat="51.2434250" lon="5.8058020">
    <ele>34.6</ele>
    <time>2019-09-08T06:45:23Z</time>
   </trkpt>
   <trkpt lat="51.2434270" lon="5.8056750">
    <ele>34.7</ele>
    <time>2019-09-08T06:45:24Z</time>
   </trkpt>
   <trkpt lat="51.2434260" lon="5.8055600">
    <ele>34.9</ele>
    <time>2019-09-08T06:45:25Z</time>
   </trkpt>
   <trkpt lat="51.2433880" lon="5.8054620">
    <ele>35.1</ele>
    <time>2019-09-08T06:45:26Z</time>
   </trkpt>
   <trkpt lat="51.2433770" lon="5.8053510">
    <ele>35.3</ele>
    <time>2019-09-08T06:45:27Z</time>
   </trkpt>
   <trkpt lat="51.2433680" lon="5.8052380">
    <ele>35.6</ele>
    <time>2019-09-08T06:45:28Z</time>
   </trkpt>
   <trkpt lat="51.2433200" lon="5.8051180">
    <ele>36.0</ele>
    <time>2019-09-08T06:45:29Z</time>
   </trkpt>
   <trkpt lat="51.2433150" lon="5.8050220">
    <ele>36.2</ele>
    <time>2019-09-08T06:45:30Z</time>
   </trkpt>
   <trkpt lat="51.2432940" lon="5.8049210">
    <ele>36.5</ele>
    <time>2019-09-08T06:45:31Z</time>
   </trkpt>
   <trkpt lat="51.2432830" lon="5.8048010">
    <ele>36.8</ele>
    <time>2019-09-08T06:45:32Z</time>
   </trkpt>
   <trkpt lat="51.2432630" lon="5.8047110">
    <ele>37.0</ele>
    <time>2019-09-08T06:45:33Z</time>
   </trkpt>
   <trkpt lat="51.2432440" lon="5.8046150">
    <ele>37.1</ele>
    <time>2019-09-08T06:45:34Z</time>
   </trkpt>
   <trkpt lat="51.2432580" lon="5.8045350">
    <ele>37.1</ele>
    <time>2019-09-08T06:45:35Z</time>
   </trkpt>
   <trkpt lat="51.2432490" lon="5.8044440">
    <ele>37.1</ele>
    <time>2019-09-08T06:45:36Z</time>
   </trkpt>
   <trkpt lat="51.2432320" lon="5.8043670">
    <ele>37.1</ele>
    <time>2019-09-08T06:45:37Z</time>
   </trkpt>
   <trkpt lat="51.2432260" lon="5.8042920">
    <ele>37.1</ele>
    <time>2019-09-08T06:45:38Z</time>
   </trkpt>
   <trkpt lat="51.2432540" lon="5.8041980">
    <ele>37.0</ele>
    <time>2019-09-08T06:45:39Z</time>
   </trkpt>
   <trkpt lat="51.2432690" lon="5.8041280">
    <ele>37.0</ele>
    <time>2019-09-08T06:45:40Z</time>
   </trkpt>
   <trkpt lat="51.2432710" lon="5.8040600">
    <ele>36.9</ele>
    <time>2019-09-08T06:45:41Z</time>
   </trkpt>
   <trkpt lat="51.2433220" lon="5.8039970">
    <ele>36.9</ele>
    <time>2019-09-08T06:45:42Z</time>
   </trkpt>
   <trkpt lat="51.2433590" lon="5.8039460">
    <ele>36.9</ele>
    <time>2019-09-08T06:45:43Z</time>
   </trkpt>
   <trkpt lat="51.2434060" lon="5.8039600">
    <ele>36.8</ele>
    <time>2019-09-08T06:45:44Z</time>
   </trkpt>
   <trkpt lat="51.2434600" lon="5.8039140">
    <ele>36.8</ele>
    <time>2019-09-08T06:45:45Z</time>
   </trkpt>
   <trkpt lat="51.2435430" lon="5.8038820">
    <ele>36.7</ele>
    <time>2019-09-08T06:45:46Z</time>
   </trkpt>
   <trkpt lat="51.2436040" lon="5.8038470">
    <ele>36.7</ele>
    <time>2019-09-08T06:45:47Z</time>
   </trkpt>
   <trkpt lat="51.2436700" lon="5.8038140">
    <ele>36.6</ele>
    <time>2019-09-08T06:45:48Z</time>
   </trkpt>
   <trkpt lat="51.2437370" lon="5.8037750">
    <ele>36.6</ele>
    <time>2019-09-08T06:45:49Z</time>
   </trkpt>
   <trkpt lat="51.2437830" lon="5.8037300">
    <ele>36.5</ele>
    <time>2019-09-08T06:45:50Z</time>
   </trkpt>
   <trkpt lat="51.2438510" lon="5.8036960">
    <ele>36.4</ele>
    <time>2019-09-08T06:45:51Z</time>
   </trkpt>
   <trkpt lat="51.2439190" lon="5.8036640">
    <ele>36.3</ele>
    <time>2019-09-08T06:45:52Z</time>
   </trkpt>
   <trkpt lat="51.2439930" lon="5.8036490">
    <ele>36.0</ele>
    <time>2019-09-08T06:45:53Z</time>
   </trkpt>
   <trkpt lat="51.2440630" lon="5.8036240">
    <ele>35.8</ele>
    <time>2019-09-08T06:45:54Z</time>
   </trkpt>
   <trkpt lat="51.2441410" lon="5.8035730">
    <ele>35.5</ele>
    <time>2019-09-08T06:45:55Z</time>
   </trkpt>
   <trkpt lat="51.2442250" lon="5.8035470">
    <ele>35.4</ele>
    <time>2019-09-08T06:45:56Z</time>
   </trkpt>
   <trkpt lat="51.2442880" lon="5.8035070">
    <ele>35.3</ele>
    <time>2019-09-08T06:45:57Z</time>
   </trkpt>
   <trkpt lat="51.2443520" lon="5.8034670">
    <ele>35.2</ele>
    <time>2019-09-08T06:45:58Z</time>
   </trkpt>
   <trkpt lat="51.2444200" lon="5.8034350">
    <ele>35.1</ele>
    <time>2019-09-08T06:45:59Z</time>
   </trkpt>
   <trkpt lat="51.2444830" lon="5.8033870">
    <ele>35.0</ele>
    <time>2019-09-08T06:46:00Z</time>
   </trkpt>
   <trkpt lat="51.2445540" lon="5.8033510">
    <ele>34.8</ele>
    <time>2019-09-08T06:46:01Z</time>
   </trkpt>
   <trkpt lat="51.2446210" lon="5.8033170">
    <ele>34.5</ele>
    <time>2019-09-08T06:46:02Z</time>
   </trkpt>
   <trkpt lat="51.2447210" lon="5.8032990">
    <ele>33.9</ele>
    <time>2019-09-08T06:46:03Z</time>
   </trkpt>
   <trkpt lat="51.2447800" lon="5.8032430">
    <ele>33.5</ele>
    <time>2019-09-08T06:46:04Z</time>
   </trkpt>
   <trkpt lat="51.2448400" lon="5.8032010">
    <ele>33.2</ele>
    <time>2019-09-08T06:46:05Z</time>
   </trkpt>
   <trkpt lat="51.2448940" lon="5.8031590">
    <ele>33.0</ele>
    <time>2019-09-08T06:46:06Z</time>
   </trkpt>
   <trkpt lat="51.2449540" lon="5.8031240">
    <ele>32.8</ele>
    <time>2019-09-08T06:46:07Z</time>
   </trkpt>
   <trkpt lat="51.2450300" lon="5.8031020">
    <ele>32.8</ele>
    <time>2019-09-08T06:46:08Z</time>
   </trkpt>
   <trkpt lat="51.2451070" lon="5.8030690">
    <ele>32.7</ele>
    <time>2019-09-08T06:46:09Z</time>
   </trkpt>
   <trkpt lat="51.2451790" lon="5.8030480">
    <ele>32.6</ele>
    <time>2019-09-08T06:46:10Z</time>
   </trkpt>
   <trkpt lat="51.2452540" lon="5.8030240">
    <ele>32.6</ele>
    <time>2019-09-08T06:46:11Z</time>
   </trkpt>
   <trkpt lat="51.2453220" lon="5.8030020">
    <ele>32.5</ele>
    <time>2019-09-08T06:46:12Z</time>
   </trkpt>
   <trkpt lat="51.2453900" lon="5.8029600">
    <ele>32.5</ele>
    <time>2019-09-08T06:46:13Z</time>
   </trkpt>
   <trkpt lat="51.2454570" lon="5.8029300">
    <ele>32.5</ele>
    <time>2019-09-08T06:46:14Z</time>
   </trkpt>
   <trkpt lat="51.2455300" lon="5.8029160">
    <ele>32.6</ele>
    <time>2019-09-08T06:46:15Z</time>
   </trkpt>
   <trkpt lat="51.2455950" lon="5.8028850">
    <ele>32.7</ele>
    <time>2019-09-08T06:46:16Z</time>
   </trkpt>
   <trkpt lat="51.2456600" lon="5.8028580">
    <ele>32.7</ele>
    <time>2019-09-08T06:46:17Z</time>
   </trkpt>
   <trkpt lat="51.2457280" lon="5.8028280">
    <ele>32.8</ele>
    <time>2019-09-08T06:46:18Z</time>
   </trkpt>
   <trkpt lat="51.2457910" lon="5.8027970">
    <ele>32.8</ele>
    <time>2019-09-08T06:46:19Z</time>
   </trkpt>
   <trkpt lat="51.2458610" lon="5.8027680">
    <ele>32.7</ele>
    <time>2019-09-08T06:46:20Z</time>
   </trkpt>
   <trkpt lat="51.2459250" lon="5.8027430">
    <ele>32.5</ele>
    <time>2019-09-08T06:46:21Z</time>
   </trkpt>
   <trkpt lat="51.2459940" lon="5.8027250">
    <ele>32.4</ele>
    <time>2019-09-08T06:46:22Z</time>
   </trkpt>
   <trkpt lat="51.2460620" lon="5.8026950">
    <ele>32.2</ele>
    <time>2019-09-08T06:46:23Z</time>
   </trkpt>
   <trkpt lat="51.2461280" lon="5.8026710">
    <ele>32.1</ele>
    <time>2019-09-08T06:46:24Z</time>
   </trkpt>
   <trkpt lat="51.2461990" lon="5.8026590">
    <ele>32.0</ele>
    <time>2019-09-08T06:46:25Z</time>
   </trkpt>
   <trkpt lat="51.2462670" lon="5.8026500">
    <ele>32.0</ele>
    <time>2019-09-08T06:46:26Z</time>
   </trkpt>
   <trkpt lat="51.2463350" lon="5.8026470">
    <ele>32.0</ele>
    <time>2019-09-08T06:46:27Z</time>
   </trkpt>
   <trkpt lat="51.2464040" lon="5.8026490">
    <ele>32.0</ele>
    <time>2019-09-08T06:46:28Z</time>
   </trkpt>
   <trkpt lat="51.2464750" lon="5.8026500">
    <ele>32.0</ele>
    <time>2019-09-08T06:46:29Z</time>
   </trkpt>
   <trkpt lat="51.2465410" lon="5.8026510">
    <ele>32.0</ele>
    <time>2019-09-08T06:46:30Z</time>
   </trkpt>
   <trkpt lat="51.2466230" lon="5.8026710">
    <ele>32.0</ele>
    <time>2019-09-08T06:46:31Z</time>
   </trkpt>
   <trkpt lat="51.2466960" lon="5.8026870">
    <ele>32.0</ele>
    <time>2019-09-08T06:46:32Z</time>
   </trkpt>
   <trkpt lat="51.2467600" lon="5.8026940">
    <ele>32.0</ele>
    <time>2019-09-08T06:46:33Z</time>
   </trkpt>
   <trkpt lat="51.2468430" lon="5.8026930">
    <ele>32.0</ele>
    <time>2019-09-08T06:46:34Z</time>
   </trkpt>
   <trkpt lat="51.2469270" lon="5.8027030">
    <ele>32.0</ele>
    <time>2019-09-08T06:46:35Z</time>
   </trkpt>
   <trkpt lat="51.2469900" lon="5.8027050">
    <ele>32.0</ele>
    <time>2019-09-08T06:46:36Z</time>
   </trkpt>
   <trkpt lat="51.2470710" lon="5.8027200">
    <ele>31.9</ele>
    <time>2019-09-08T06:46:37Z</time>
   </trkpt>
   <trkpt lat="51.2471440" lon="5.8027320">
    <ele>31.9</ele>
    <time>2019-09-08T06:46:38Z</time>
   </trkpt>
   <trkpt lat="51.2472210" lon="5.8027390">
    <ele>31.9</ele>
    <time>2019-09-08T06:46:39Z</time>
   </trkpt>
   <trkpt lat="51.2472860" lon="5.8027480">
    <ele>31.9</ele>
    <time>2019-09-08T06:46:40Z</time>
   </trkpt>
   <trkpt lat="51.2473510" lon="5.8027550">
    <ele>31.9</ele>
    <time>2019-09-08T06:46:41Z</time>
   </trkpt>
   <trkpt lat="51.2474200" lon="5.8027660">
    <ele>31.9</ele>
    <time>2019-09-08T06:46:42Z</time>
   </trkpt>
   <trkpt lat="51.2474820" lon="5.8027720">
    <ele>31.9</ele>
    <time>2019-09-08T06:46:43Z</time>
   </trkpt>
   <trkpt lat="51.2475490" lon="5.8027800">
    <ele>31.8</ele>
    <time>2019-09-08T06:46:44Z</time>
   </trkpt>
   <trkpt lat="51.2476210" lon="5.8028000">
    <ele>31.8</ele>
    <time>2019-09-08T06:46:45Z</time>
   </trkpt>
   <trkpt lat="51.2476970" lon="5.8028060">
    <ele>31.8</ele>
    <time>2019-09-08T06:46:46Z</time>
   </trkpt>
   <trkpt lat="51.2477660" lon="5.8028140">
    <ele>31.8</ele>
    <time>2019-09-08T06:46:47Z</time>
   </trkpt>
   <trkpt lat="51.2478370" lon="5.8028230">
    <ele>31.8</ele>
    <time>2019-09-08T06:46:48Z</time>
   </trkpt>
   <trkpt lat="51.2479070" lon="5.8028330">
    <ele>31.7</ele>
    <time>2019-09-08T06:46:49Z</time>
   </trkpt>
   <trkpt lat="51.2479760" lon="5.8028400">
    <ele>31.7</ele>
    <time>2019-09-08T06:46:50Z</time>
   </trkpt>
   <trkpt lat="51.2480420" lon="5.8028520">
    <ele>31.7</ele>
    <time>2019-09-08T06:46:51Z</time>
   </trkpt>
   <trkpt lat="51.2481130" lon="5.8028570">
    <ele>31.7</ele>
    <time>2019-09-08T06:46:52Z</time>
   </trkpt>
   <trkpt lat="51.2481850" lon="5.8028650">
    <ele>31.7</ele>
    <time>2019-09-08T06:46:53Z</time>
   </trkpt>
   <trkpt lat="51.2482550" lon="5.8028770">
    <ele>31.6</ele>
    <time>2019-09-08T06:46:54Z</time>
   </trkpt>
   <trkpt lat="51.2483310" lon="5.8028870">
    <ele>31.6</ele>
    <time>2019-09-08T06:46:55Z</time>
   </trkpt>
   <trkpt lat="51.2483960" lon="5.8029010">
    <ele>31.6</ele>
    <time>2019-09-08T06:46:56Z</time>
   </trkpt>
   <trkpt lat="51.2484630" lon="5.8029070">
    <ele>31.6</ele>
    <time>2019-09-08T06:46:57Z</time>
   </trkpt>
   <trkpt lat="51.2485300" lon="5.8029150">
    <ele>31.6</ele>
    <time>2019-09-08T06:46:58Z</time>
   </trkpt>
   <trkpt lat="51.2485950" lon="5.8029210">
    <ele>31.6</ele>
    <time>2019-09-08T06:46:59Z</time>
   </trkpt>
   <trkpt lat="51.2486620" lon="5.8029380">
    <ele>31.6</ele>
    <time>2019-09-08T06:47:00Z</time>
   </trkpt>
   <trkpt lat="51.2487330" lon="5.8029450">
    <ele>31.6</ele>
    <time>2019-09-08T06:47:01Z</time>
   </trkpt>
   <trkpt lat="51.2488050" lon="5.8029510">
    <ele>31.6</ele>
    <time>2019-09-08T06:47:02Z</time>
   </trkpt>
   <trkpt lat="51.2488700" lon="5.8029610">
    <ele>31.6</ele>
    <time>2019-09-08T06:47:03Z</time>
   </trkpt>
   <trkpt lat="51.2489390" lon="5.8029730">
    <ele>31.5</ele>
    <time>2019-09-08T06:47:04Z</time>
   </trkpt>
   <trkpt lat="51.2490090" lon="5.8029820">
    <ele>31.5</ele>
    <time>2019-09-08T06:47:05Z</time>
   </trkpt>
   <trkpt lat="51.2490780" lon="5.8029900">
    <ele>31.5</ele>
    <time>2019-09-08T06:47:06Z</time>
   </trkpt>
   <trkpt lat="51.2491480" lon="5.8029970">
    <ele>31.5</ele>
    <time>2019-09-08T06:47:07Z</time>
   </trkpt>
   <trkpt lat="51.2492190" lon="5.8030060">
    <ele>31.5</ele>
    <time>2019-09-08T06:47:08Z</time>
   </trkpt>
   <trkpt lat="51.2492850" lon="5.8030140">
    <ele>31.4</ele>
    <time>2019-09-08T06:47:09Z</time>
   </trkpt>
   <trkpt lat="51.2493550" lon="5.8030190">
    <ele>31.4</ele>
    <time>2019-09-08T06:47:10Z</time>
   </trkpt>
   <trkpt lat="51.2494240" lon="5.8030290">
    <ele>31.4</ele>
    <time>2019-09-08T06:47:11Z</time>
   </trkpt>
   <trkpt lat="51.2494890" lon="5.8030370">
    <ele>31.4</ele>
    <time>2019-09-08T06:47:12Z</time>
   </trkpt>
   <trkpt lat="51.2495630" lon="5.8030500">
    <ele>31.4</ele>
    <time>2019-09-08T06:47:13Z</time>
   </trkpt>
   <trkpt lat="51.2496280" lon="5.8030570">
    <ele>31.3</ele>
    <time>2019-09-08T06:47:14Z</time>
   </trkpt>
   <trkpt lat="51.2496980" lon="5.8030640">
    <ele>31.3</ele>
    <time>2019-09-08T06:47:15Z</time>
   </trkpt>
   <trkpt lat="51.2497630" lon="5.8030700">
    <ele>31.3</ele>
    <time>2019-09-08T06:47:16Z</time>
   </trkpt>
   <trkpt lat="51.2498320" lon="5.8030770">
    <ele>31.3</ele>
    <time>2019-09-08T06:47:17Z</time>
   </trkpt>
   <trkpt lat="51.2499010" lon="5.8030880">
    <ele>31.3</ele>
    <time>2019-09-08T06:47:18Z</time>
   </trkpt>
   <trkpt lat="51.2499670" lon="5.8030960">
    <ele>31.2</ele>
    <time>2019-09-08T06:47:19Z</time>
   </trkpt>
   <trkpt lat="51.2500350" lon="5.8031030">
    <ele>31.2</ele>
    <time>2019-09-08T06:47:20Z</time>
   </trkpt>
   <trkpt lat="51.2501030" lon="5.8031100">
    <ele>31.2</ele>
    <time>2019-09-08T06:47:21Z</time>
   </trkpt>
   <trkpt lat="51.2501720" lon="5.8031200">
    <ele>31.2</ele>
    <time>2019-09-08T06:47:22Z</time>
   </trkpt>
   <trkpt lat="51.2502420" lon="5.8031290">
    <ele>31.2</ele>
    <time>2019-09-08T06:47:23Z</time>
   </trkpt>
   <trkpt lat="51.2503070" lon="5.8031340">
    <ele>31.1</ele>
    <time>2019-09-08T06:47:24Z</time>
   </trkpt>
   <trkpt lat="51.2503770" lon="5.8031420">
    <ele>31.1</ele>
    <time>2019-09-08T06:47:25Z</time>
   </trkpt>
   <trkpt lat="51.2504450" lon="5.8031480">
    <ele>31.1</ele>
    <time>2019-09-08T06:47:26Z</time>
   </trkpt>
   <trkpt lat="51.2505130" lon="5.8031560">
    <ele>31.1</ele>
    <time>2019-09-08T06:47:27Z</time>
   </trkpt>
   <trkpt lat="51.2505810" lon="5.8031650">
    <ele>31.1</ele>
    <time>2019-09-08T06:47:28Z</time>
   </trkpt>
   <trkpt lat="51.2506470" lon="5.8031740">
    <ele>31.0</ele>
    <time>2019-09-08T06:47:29Z</time>
   </trkpt>
   <trkpt lat="51.2507140" lon="5.8031800">
    <ele>31.0</ele>
    <time>2019-09-08T06:47:30Z</time>
   </trkpt>
   <trkpt lat="51.2507880" lon="5.8031870">
    <ele>31.0</ele>
    <time>2019-09-08T06:47:31Z</time>
   </trkpt>
   <trkpt lat="51.2508610" lon="5.8031970">
    <ele>31.0</ele>
    <time>2019-09-08T06:47:32Z</time>
   </trkpt>
   <trkpt lat="51.2509260" lon="5.8032050">
    <ele>31.0</ele>
    <time>2019-09-08T06:47:33Z</time>
   </trkpt>
   <trkpt lat="51.2509920" lon="5.8032140">
    <ele>31.0</ele>
    <time>2019-09-08T06:47:34Z</time>
   </trkpt>
   <trkpt lat="51.2510650" lon="5.8032230">
    <ele>31.0</ele>
    <time>2019-09-08T06:47:35Z</time>
   </trkpt>
   <trkpt lat="51.2511330" lon="5.8032300">
    <ele>30.9</ele>
    <time>2019-09-08T06:47:36Z</time>
   </trkpt>
   <trkpt lat="51.2512010" lon="5.8032340">
    <ele>30.9</ele>
    <time>2019-09-08T06:47:37Z</time>
   </trkpt>
   <trkpt lat="51.2512650" lon="5.8032440">
    <ele>30.9</ele>
    <time>2019-09-08T06:47:38Z</time>
   </trkpt>
   <trkpt lat="51.2513330" lon="5.8032480">
    <ele>30.9</ele>
    <time>2019-09-08T06:47:39Z</time>
   </trkpt>
   <trkpt lat="51.2514020" lon="5.8032550">
    <ele>30.9</ele>
    <time>2019-09-08T06:47:40Z</time>
   </trkpt>
   <trkpt lat="51.2514660" lon="5.8032660">
    <ele>30.9</ele>
    <time>2019-09-08T06:47:41Z</time>
   </trkpt>
   <trkpt lat="51.2515280" lon="5.8032750">
    <ele>30.9</ele>
    <time>2019-09-08T06:47:42Z</time>
   </trkpt>
   <trkpt lat="51.2515950" lon="5.8032800">
    <ele>30.8</ele>
    <time>2019-09-08T06:47:43Z</time>
   </trkpt>
   <trkpt lat="51.2516620" lon="5.8032830">
    <ele>30.8</ele>
    <time>2019-09-08T06:47:44Z</time>
   </trkpt>
   <trkpt lat="51.2517200" lon="5.8032990">
    <ele>30.8</ele>
    <time>2019-09-08T06:47:45Z</time>
   </trkpt>
   <trkpt lat="51.2517900" lon="5.8033040">
    <ele>30.8</ele>
    <time>2019-09-08T06:47:46Z</time>
   </trkpt>
   <trkpt lat="51.2518550" lon="5.8033070">
    <ele>30.8</ele>
    <time>2019-09-08T06:47:47Z</time>
   </trkpt>
   <trkpt lat="51.2519180" lon="5.8033180">
    <ele>30.8</ele>
    <time>2019-09-08T06:47:48Z</time>
   </trkpt>
   <trkpt lat="51.2519840" lon="5.8033230">
    <ele>30.8</ele>
    <time>2019-09-08T06:47:49Z</time>
   </trkpt>
   <trkpt lat="51.2520560" lon="5.8033220">
    <ele>30.8</ele>
    <time>2019-09-08T06:47:50Z</time>
   </trkpt>
   <trkpt lat="51.2521270" lon="5.8033310">
    <ele>30.8</ele>
    <time>2019-09-08T06:47:51Z</time>
   </trkpt>
   <trkpt lat="51.2521860" lon="5.8033350">
    <ele>30.8</ele>
    <time>2019-09-08T06:47:52Z</time>
   </trkpt>
   <trkpt lat="51.2522510" lon="5.8033380">
    <ele>30.8</ele>
    <time>2019-09-08T06:47:53Z</time>
   </trkpt>
   <trkpt lat="51.2523080" lon="5.8033490">
    <ele>30.8</ele>
    <time>2019-09-08T06:47:54Z</time>
   </trkpt>
   <trkpt lat="51.2523730" lon="5.8033670">
    <ele>30.8</ele>
    <time>2019-09-08T06:47:55Z</time>
   </trkpt>
   <trkpt lat="51.2524290" lon="5.8033740">
    <ele>30.8</ele>
    <time>2019-09-08T06:47:56Z</time>
   </trkpt>
   <trkpt lat="51.2524860" lon="5.8033790">
    <ele>30.8</ele>
    <time>2019-09-08T06:47:57Z</time>
   </trkpt>
   <trkpt lat="51.2525410" lon="5.8033810">
    <ele>30.8</ele>
    <time>2019-09-08T06:47:58Z</time>
   </trkpt>
   <trkpt lat="51.2526060" lon="5.8034000">
    <ele>30.8</ele>
    <time>2019-09-08T06:47:59Z</time>
   </trkpt>
   <trkpt lat="51.2526410" lon="5.8034190">
    <ele>30.7</ele>
    <time>2019-09-08T06:48:00Z</time>
   </trkpt>
   <trkpt lat="51.2526800" lon="5.8034420">
    <ele>30.7</ele>
    <time>2019-09-08T06:48:01Z</time>
   </trkpt>
   <trkpt lat="51.2527160" lon="5.8034670">
    <ele>30.7</ele>
    <time>2019-09-08T06:48:02Z</time>
   </trkpt>
   <trkpt lat="51.2527630" lon="5.8034830">
    <ele>30.7</ele>
    <time>2019-09-08T06:48:03Z</time>
   </trkpt>
   <trkpt lat="51.2527970" lon="5.8034960">
    <ele>30.7</ele>
    <time>2019-09-08T06:48:04Z</time>
   </trkpt>
   <trkpt lat="51.2528210" lon="5.8035230">
    <ele>30.7</ele>
    <time>2019-09-08T06:48:05Z</time>
   </trkpt>
   <trkpt lat="51.2528450" lon="5.8035490">
    <ele>30.7</ele>
    <time>2019-09-08T06:48:06Z</time>
   </trkpt>
   <trkpt lat="51.2528770" lon="5.8035480">
    <ele>30.7</ele>
    <time>2019-09-08T06:48:07Z</time>
   </trkpt>
   <trkpt lat="51.2529140" lon="5.8035180">
    <ele>30.7</ele>
    <time>2019-09-08T06:48:08Z</time>
   </trkpt>
   <trkpt lat="51.2529580" lon="5.8034710">
    <ele>30.7</ele>
    <time>2019-09-08T06:48:09Z</time>
   </trkpt>
   <trkpt lat="51.2529940" lon="5.8034300">
    <ele>30.7</ele>
    <time>2019-09-08T06:48:10Z</time>
   </trkpt>
   <trkpt lat="51.2530410" lon="5.8033790">
    <ele>30.8</ele>
    <time>2019-09-08T06:48:11Z</time>
   </trkpt>
   <trkpt lat="51.2530750" lon="5.8033070">
    <ele>30.8</ele>
    <time>2019-09-08T06:48:12Z</time>
   </trkpt>
   <trkpt lat="51.2531300" lon="5.8032410">
    <ele>30.9</ele>
    <time>2019-09-08T06:48:13Z</time>
   </trkpt>
   <trkpt lat="51.2531790" lon="5.8031700">
    <ele>30.9</ele>
    <time>2019-09-08T06:48:14Z</time>
   </trkpt>
   <trkpt lat="51.2532200" lon="5.8031000">
    <ele>31.0</ele>
    <time>2019-09-08T06:48:15Z</time>
   </trkpt>
   <trkpt lat="51.2532700" lon="5.8030270">
    <ele>31.0</ele>
    <time>2019-09-08T06:48:16Z</time>
   </trkpt>
   <trkpt lat="51.2533140" lon="5.8029540">
    <ele>31.1</ele>
    <time>2019-09-08T06:48:17Z</time>
   </trkpt>
   <trkpt lat="51.2533530" lon="5.8028700">
    <ele>31.1</ele>
    <time>2019-09-08T06:48:18Z</time>
   </trkpt>
   <trkpt lat="51.2533950" lon="5.8027960">
    <ele>31.2</ele>
    <time>2019-09-08T06:48:19Z</time>
   </trkpt>
   <trkpt lat="51.2534400" lon="5.8027280">
    <ele>31.2</ele>
    <time>2019-09-08T06:48:20Z</time>
   </trkpt>
   <trkpt lat="51.2534880" lon="5.8026360">
    <ele>31.3</ele>
    <time>2019-09-08T06:48:21Z</time>
   </trkpt>
   <trkpt lat="51.2535320" lon="5.8025750">
    <ele>31.5</ele>
    <time>2019-09-08T06:48:22Z</time>
   </trkpt>
   <trkpt lat="51.2535670" lon="5.8025010">
    <ele>31.7</ele>
    <time>2019-09-08T06:48:23Z</time>
   </trkpt>
   <trkpt lat="51.2536150" lon="5.8024320">
    <ele>32.0</ele>
    <time>2019-09-08T06:48:24Z</time>
   </trkpt>
   <trkpt lat="51.2536620" lon="5.8023640">
    <ele>32.3</ele>
    <time>2019-09-08T06:48:25Z</time>
   </trkpt>
   <trkpt lat="51.2537100" lon="5.8022900">
    <ele>32.6</ele>
    <time>2019-09-08T06:48:26Z</time>
   </trkpt>
   <trkpt lat="51.2537480" lon="5.8022090">
    <ele>32.8</ele>
    <time>2019-09-08T06:48:27Z</time>
   </trkpt>
   <trkpt lat="51.2537910" lon="5.8021280">
    <ele>33.0</ele>
    <time>2019-09-08T06:48:28Z</time>
   </trkpt>
   <trkpt lat="51.2538380" lon="5.8020470">
    <ele>33.1</ele>
    <time>2019-09-08T06:48:29Z</time>
   </trkpt>
   <trkpt lat="51.2538860" lon="5.8019680">
    <ele>33.2</ele>
    <time>2019-09-08T06:48:30Z</time>
   </trkpt>
   <trkpt lat="51.2539320" lon="5.8018870">
    <ele>33.3</ele>
    <time>2019-09-08T06:48:31Z</time>
   </trkpt>
   <trkpt lat="51.2539780" lon="5.8018170">
    <ele>33.3</ele>
    <time>2019-09-08T06:48:32Z</time>
   </trkpt>
   <trkpt lat="51.2540230" lon="5.8017450">
    <ele>33.3</ele>
    <time>2019-09-08T06:48:33Z</time>
   </trkpt>
   <trkpt lat="51.2540540" lon="5.8016720">
    <ele>33.2</ele>
    <time>2019-09-08T06:48:34Z</time>
   </trkpt>
   <trkpt lat="51.2540920" lon="5.8016050">
    <ele>33.2</ele>
    <time>2019-09-08T06:48:35Z</time>
   </trkpt>
   <trkpt lat="51.2541280" lon="5.8015470">
    <ele>33.2</ele>
    <time>2019-09-08T06:48:36Z</time>
   </trkpt>
   <trkpt lat="51.2541680" lon="5.8014940">
    <ele>33.2</ele>
    <time>2019-09-08T06:48:37Z</time>
   </trkpt>
   <trkpt lat="51.2542040" lon="5.8014340">
    <ele>33.2</ele>
    <time>2019-09-08T06:48:38Z</time>
   </trkpt>
   <trkpt lat="51.2542430" lon="5.8013730">
    <ele>33.3</ele>
    <time>2019-09-08T06:48:39Z</time>
   </trkpt>
   <trkpt lat="51.2542740" lon="5.8013230">
    <ele>33.4</ele>
    <time>2019-09-08T06:48:40Z</time>
   </trkpt>
   <trkpt lat="51.2542980" lon="5.8012760">
    <ele>33.4</ele>
    <time>2019-09-08T06:48:41Z</time>
   </trkpt>
   <trkpt lat="51.2543150" lon="5.8012350">
    <ele>33.5</ele>
    <time>2019-09-08T06:48:42Z</time>
   </trkpt>
   <trkpt lat="51.2543360" lon="5.8011990">
    <ele>33.5</ele>
    <time>2019-09-08T06:48:43Z</time>
   </trkpt>
   <trkpt lat="51.2543600" lon="5.8011700">
    <ele>33.6</ele>
    <time>2019-09-08T06:48:44Z</time>
   </trkpt>
   <trkpt lat="51.2543900" lon="5.8011420">
    <ele>33.6</ele>
    <time>2019-09-08T06:48:45Z</time>
   </trkpt>
   <trkpt lat="51.2544070" lon="5.8010870">
    <ele>33.6</ele>
    <time>2019-09-08T06:48:47Z</time>
   </trkpt>
   <trkpt lat="51.2544330" lon="5.8010480">
    <ele>33.7</ele>
    <time>2019-09-08T06:48:49Z</time>
   </trkpt>
   <trkpt lat="51.2544700" lon="5.8010270">
    <ele>33.6</ele>
    <time>2019-09-08T06:48:59Z</time>
   </trkpt>
   <trkpt lat="51.2545210" lon="5.8010690">
    <ele>33.6</ele>
    <time>2019-09-08T06:49:01Z</time>
   </trkpt>
   <trkpt lat="51.2545530" lon="5.8011150">
    <ele>33.6</ele>
    <time>2019-09-08T06:49:02Z</time>
   </trkpt>
   <trkpt lat="51.2546010" lon="5.8011860">
    <ele>33.6</ele>
    <time>2019-09-08T06:49:03Z</time>
   </trkpt>
   <trkpt lat="51.2546440" lon="5.8012480">
    <ele>33.6</ele>
    <time>2019-09-08T06:49:04Z</time>
   </trkpt>
   <trkpt lat="51.2546800" lon="5.8013170">
    <ele>33.7</ele>
    <time>2019-09-08T06:49:05Z</time>
   </trkpt>
   <trkpt lat="51.2547210" lon="5.8014040">
    <ele>33.7</ele>
    <time>2019-09-08T06:49:06Z</time>
   </trkpt>
   <trkpt lat="51.2547620" lon="5.8014930">
    <ele>33.7</ele>
    <time>2019-09-08T06:49:07Z</time>
   </trkpt>
   <trkpt lat="51.2548060" lon="5.8015760">
    <ele>33.7</ele>
    <time>2019-09-08T06:49:08Z</time>
   </trkpt>
   <trkpt lat="51.2548580" lon="5.8016640">
    <ele>33.7</ele>
    <time>2019-09-08T06:49:09Z</time>
   </trkpt>
   <trkpt lat="51.2549150" lon="5.8017420">
    <ele>33.7</ele>
    <time>2019-09-08T06:49:10Z</time>
   </trkpt>
   <trkpt lat="51.2549730" lon="5.8018110">
    <ele>33.7</ele>
    <time>2019-09-08T06:49:11Z</time>
   </trkpt>
   <trkpt lat="51.2550270" lon="5.8018790">
    <ele>33.8</ele>
    <time>2019-09-08T06:49:12Z</time>
   </trkpt>
   <trkpt lat="51.2550840" lon="5.8019480">
    <ele>33.8</ele>
    <time>2019-09-08T06:49:13Z</time>
   </trkpt>
   <trkpt lat="51.2551440" lon="5.8020160">
    <ele>33.8</ele>
    <time>2019-09-08T06:49:14Z</time>
   </trkpt>
   <trkpt lat="51.2552030" lon="5.8020860">
    <ele>33.8</ele>
    <time>2019-09-08T06:49:15Z</time>
   </trkpt>
   <trkpt lat="51.2552550" lon="5.8021520">
    <ele>33.8</ele>
    <time>2019-09-08T06:49:16Z</time>
   </trkpt>
   <trkpt lat="51.2553040" lon="5.8022200">
    <ele>33.8</ele>
    <time>2019-09-08T06:49:17Z</time>
   </trkpt>
   <trkpt lat="51.2553540" lon="5.8022790">
    <ele>33.8</ele>
    <time>2019-09-08T06:49:18Z</time>
   </trkpt>
   <trkpt lat="51.2554040" lon="5.8023430">
    <ele>33.8</ele>
    <time>2019-09-08T06:49:19Z</time>
   </trkpt>
   <trkpt lat="51.2554450" lon="5.8024060">
    <ele>33.9</ele>
    <time>2019-09-08T06:49:20Z</time>
   </trkpt>
   <trkpt lat="51.2554960" lon="5.8024650">
    <ele>33.9</ele>
    <time>2019-09-08T06:49:21Z</time>
   </trkpt>
   <trkpt lat="51.2555380" lon="5.8025390">
    <ele>33.9</ele>
    <time>2019-09-08T06:49:22Z</time>
   </trkpt>
   <trkpt lat="51.2555890" lon="5.8026050">
    <ele>33.9</ele>
    <time>2019-09-08T06:49:23Z</time>
   </trkpt>
   <trkpt lat="51.2556600" lon="5.8026830">
    <ele>34.0</ele>
    <time>2019-09-08T06:49:24Z</time>
   </trkpt>
   <trkpt lat="51.2557150" lon="5.8027480">
    <ele>34.0</ele>
    <time>2019-09-08T06:49:25Z</time>
   </trkpt>
   <trkpt lat="51.2557650" lon="5.8028070">
    <ele>34.0</ele>
    <time>2019-09-08T06:49:26Z</time>
   </trkpt>
   <trkpt lat="51.2558140" lon="5.8028680">
    <ele>34.1</ele>
    <time>2019-09-08T06:49:27Z</time>
   </trkpt>
   <trkpt lat="51.2558660" lon="5.8029270">
    <ele>34.1</ele>
    <time>2019-09-08T06:49:28Z</time>
   </trkpt>
   <trkpt lat="51.2559200" lon="5.8029930">
    <ele>34.1</ele>
    <time>2019-09-08T06:49:29Z</time>
   </trkpt>
   <trkpt lat="51.2559750" lon="5.8030610">
    <ele>34.1</ele>
    <time>2019-09-08T06:49:30Z</time>
   </trkpt>
   <trkpt lat="51.2560320" lon="5.8031210">
    <ele>34.1</ele>
    <time>2019-09-08T06:49:31Z</time>
   </trkpt>
   <trkpt lat="51.2560860" lon="5.8031890">
    <ele>34.1</ele>
    <time>2019-09-08T06:49:32Z</time>
   </trkpt>
   <trkpt lat="51.2561360" lon="5.8032580">
    <ele>34.2</ele>
    <time>2019-09-08T06:49:33Z</time>
   </trkpt>
   <trkpt lat="51.2561940" lon="5.8033220">
    <ele>34.2</ele>
    <time>2019-09-08T06:49:34Z</time>
   </trkpt>
   <trkpt lat="51.2562440" lon="5.8033840">
    <ele>34.2</ele>
    <time>2019-09-08T06:49:35Z</time>
   </trkpt>
   <trkpt lat="51.2562990" lon="5.8034530">
    <ele>34.2</ele>
    <time>2019-09-08T06:49:36Z</time>
   </trkpt>
   <trkpt lat="51.2563430" lon="5.8035170">
    <ele>34.2</ele>
    <time>2019-09-08T06:49:37Z</time>
   </trkpt>
   <trkpt lat="51.2563890" lon="5.8035900">
    <ele>34.2</ele>
    <time>2019-09-08T06:49:38Z</time>
   </trkpt>
   <trkpt lat="51.2564400" lon="5.8036520">
    <ele>34.3</ele>
    <time>2019-09-08T06:49:39Z</time>
   </trkpt>
   <trkpt lat="51.2564870" lon="5.8036940">
    <ele>34.3</ele>
    <time>2019-09-08T06:49:40Z</time>
   </trkpt>
   <trkpt lat="51.2565490" lon="5.8037640">
    <ele>34.3</ele>
    <time>2019-09-08T06:49:41Z</time>
   </trkpt>
   <trkpt lat="51.2566130" lon="5.8038170">
    <ele>34.4</ele>
    <time>2019-09-08T06:49:42Z</time>
   </trkpt>
   <trkpt lat="51.2566820" lon="5.8038880">
    <ele>34.4</ele>
    <time>2019-09-08T06:49:43Z</time>
   </trkpt>
   <trkpt lat="51.2567480" lon="5.8039560">
    <ele>34.4</ele>
    <time>2019-09-08T06:49:44Z</time>
   </trkpt>
   <trkpt lat="51.2568040" lon="5.8040250">
    <ele>34.5</ele>
    <time>2019-09-08T06:49:45Z</time>
   </trkpt>
   <trkpt lat="51.2568610" lon="5.8040900">
    <ele>34.5</ele>
    <time>2019-09-08T06:49:46Z</time>
   </trkpt>
   <trkpt lat="51.2569190" lon="5.8041560">
    <ele>34.5</ele>
    <time>2019-09-08T06:49:47Z</time>
   </trkpt>
   <trkpt lat="51.2569780" lon="5.8042090">
    <ele>34.5</ele>
    <time>2019-09-08T06:49:48Z</time>
   </trkpt>
   <trkpt lat="51.2570400" lon="5.8042850">
    <ele>34.5</ele>
    <time>2019-09-08T06:49:49Z</time>
   </trkpt>
   <trkpt lat="51.2571090" lon="5.8043370">
    <ele>34.5</ele>
    <time>2019-09-08T06:49:50Z</time>
   </trkpt>
   <trkpt lat="51.2571580" lon="5.8044040">
    <ele>34.5</ele>
    <time>2019-09-08T06:49:51Z</time>
   </trkpt>
   <trkpt lat="51.2572220" lon="5.8044560">
    <ele>34.5</ele>
    <time>2019-09-08T06:49:52Z</time>
   </trkpt>
   <trkpt lat="51.2572830" lon="5.8045190">
    <ele>34.5</ele>
    <time>2019-09-08T06:49:53Z</time>
   </trkpt>
   <trkpt lat="51.2573480" lon="5.8045900">
    <ele>34.5</ele>
    <time>2019-09-08T06:49:54Z</time>
   </trkpt>
   <trkpt lat="51.2574030" lon="5.8046520">
    <ele>34.5</ele>
    <time>2019-09-08T06:49:55Z</time>
   </trkpt>
   <trkpt lat="51.2574580" lon="5.8047170">
    <ele>34.5</ele>
    <time>2019-09-08T06:49:56Z</time>
   </trkpt>
   <trkpt lat="51.2575210" lon="5.8047810">
    <ele>34.5</ele>
    <time>2019-09-08T06:49:57Z</time>
   </trkpt>
   <trkpt lat="51.2575740" lon="5.8048460">
    <ele>34.5</ele>
    <time>2019-09-08T06:49:58Z</time>
   </trkpt>
   <trkpt lat="51.2576330" lon="5.8049100">
    <ele>34.4</ele>
    <time>2019-09-08T06:49:59Z</time>
   </trkpt>
   <trkpt lat="51.2576910" lon="5.8049730">
    <ele>34.4</ele>
    <time>2019-09-08T06:50:00Z</time>
   </trkpt>
   <trkpt lat="51.2577420" lon="5.8050230">
    <ele>34.4</ele>
    <time>2019-09-08T06:50:01Z</time>
   </trkpt>
   <trkpt lat="51.2578020" lon="5.8050700">
    <ele>34.4</ele>
    <time>2019-09-08T06:50:02Z</time>
   </trkpt>
   <trkpt lat="51.2578560" lon="5.8051330">
    <ele>34.4</ele>
    <time>2019-09-08T06:50:03Z</time>
   </trkpt>
   <trkpt lat="51.2579100" lon="5.8051990">
    <ele>34.4</ele>
    <time>2019-09-08T06:50:04Z</time>
   </trkpt>
   <trkpt lat="51.2579880" lon="5.8052750">
    <ele>34.4</ele>
    <time>2019-09-08T06:50:05Z</time>
   </trkpt>
   <trkpt lat="51.2580540" lon="5.8053630">
    <ele>34.3</ele>
    <time>2019-09-08T06:50:06Z</time>
   </trkpt>
   <trkpt lat="51.2581020" lon="5.8054430">
    <ele>34.2</ele>
    <time>2019-09-08T06:50:07Z</time>
   </trkpt>
   <trkpt lat="51.2581540" lon="5.8055370">
    <ele>34.1</ele>
    <time>2019-09-08T06:50:08Z</time>
   </trkpt>
   <trkpt lat="51.2582080" lon="5.8056440">
    <ele>33.9</ele>
    <time>2019-09-08T06:50:09Z</time>
   </trkpt>
   <trkpt lat="51.2582510" lon="5.8057550">
    <ele>33.7</ele>
    <time>2019-09-08T06:50:10Z</time>
   </trkpt>
   <trkpt lat="51.2582880" lon="5.8058590">
    <ele>33.6</ele>
    <time>2019-09-08T06:50:11Z</time>
   </trkpt>
   <trkpt lat="51.2583170" lon="5.8059700">
    <ele>33.4</ele>
    <time>2019-09-08T06:50:12Z</time>
   </trkpt>
   <trkpt lat="51.2583370" lon="5.8060860">
    <ele>33.2</ele>
    <time>2019-09-08T06:50:13Z</time>
   </trkpt>
   <trkpt lat="51.2583580" lon="5.8061920">
    <ele>33.1</ele>
    <time>2019-09-08T06:50:14Z</time>
   </trkpt>
   <trkpt lat="51.2583750" lon="5.8063000">
    <ele>32.9</ele>
    <time>2019-09-08T06:50:15Z</time>
   </trkpt>
   <trkpt lat="51.2583990" lon="5.8064070">
    <ele>32.7</ele>
    <time>2019-09-08T06:50:16Z</time>
   </trkpt>
   <trkpt lat="51.2584150" lon="5.8065110">
    <ele>32.6</ele>
    <time>2019-09-08T06:50:17Z</time>
   </trkpt>
   <trkpt lat="51.2584350" lon="5.8066180">
    <ele>32.4</ele>
    <time>2019-09-08T06:50:18Z</time>
   </trkpt>
   <trkpt lat="51.2584470" lon="5.8067270">
    <ele>32.3</ele>
    <time>2019-09-08T06:50:19Z</time>
   </trkpt>
   <trkpt lat="51.2584600" lon="5.8068310">
    <ele>32.2</ele>
    <time>2019-09-08T06:50:20Z</time>
   </trkpt>
   <trkpt lat="51.2584770" lon="5.8069400">
    <ele>32.1</ele>
    <time>2019-09-08T06:50:21Z</time>
   </trkpt>
   <trkpt lat="51.2584940" lon="5.8070430">
    <ele>32.0</ele>
    <time>2019-09-08T06:50:22Z</time>
   </trkpt>
   <trkpt lat="51.2585180" lon="5.8071310">
    <ele>31.9</ele>
    <time>2019-09-08T06:50:23Z</time>
   </trkpt>
   <trkpt lat="51.2585450" lon="5.8072380">
    <ele>31.8</ele>
    <time>2019-09-08T06:50:24Z</time>
   </trkpt>
   <trkpt lat="51.2585640" lon="5.8073390">
    <ele>31.7</ele>
    <time>2019-09-08T06:50:25Z</time>
   </trkpt>
   <trkpt lat="51.2585830" lon="5.8074460">
    <ele>31.6</ele>
    <time>2019-09-08T06:50:26Z</time>
   </trkpt>
   <trkpt lat="51.2586010" lon="5.8075590">
    <ele>31.5</ele>
    <time>2019-09-08T06:50:27Z</time>
   </trkpt>
   <trkpt lat="51.2586230" lon="5.8076680">
    <ele>31.4</ele>
    <time>2019-09-08T06:50:28Z</time>
   </trkpt>
   <trkpt lat="51.2586360" lon="5.8077910">
    <ele>31.2</ele>
    <time>2019-09-08T06:50:29Z</time>
   </trkpt>
   <trkpt lat="51.2586590" lon="5.8078980">
    <ele>31.1</ele>
    <time>2019-09-08T06:50:30Z</time>
   </trkpt>
   <trkpt lat="51.2586780" lon="5.8080020">
    <ele>31.0</ele>
    <time>2019-09-08T06:50:31Z</time>
   </trkpt>
   <trkpt lat="51.2587010" lon="5.8081080">
    <ele>30.8</ele>
    <time>2019-09-08T06:50:32Z</time>
   </trkpt>
   <trkpt lat="51.2587260" lon="5.8082030">
    <ele>30.6</ele>
    <time>2019-09-08T06:50:33Z</time>
   </trkpt>
   <trkpt lat="51.2587410" lon="5.8083160">
    <ele>30.2</ele>
    <time>2019-09-08T06:50:34Z</time>
   </trkpt>
   <trkpt lat="51.2587580" lon="5.8084260">
    <ele>30.2</ele>
    <time>2019-09-08T06:50:35Z</time>
   </trkpt>
   <trkpt lat="51.2587720" lon="5.8085290">
    <ele>30.2</ele>
    <time>2019-09-08T06:50:36Z</time>
   </trkpt>
   <trkpt lat="51.2588000" lon="5.8086420">
    <ele>30.2</ele>
    <time>2019-09-08T06:50:37Z</time>
   </trkpt>
   <trkpt lat="51.2588200" lon="5.8087560">
    <ele>30.2</ele>
    <time>2019-09-08T06:50:38Z</time>
   </trkpt>
   <trkpt lat="51.2588430" lon="5.8088770">
    <ele>30.2</ele>
    <time>2019-09-08T06:50:39Z</time>
   </trkpt>
   <trkpt lat="51.2588630" lon="5.8089880">
    <ele>30.2</ele>
    <time>2019-09-08T06:50:40Z</time>
   </trkpt>
   <trkpt lat="51.2588850" lon="5.8090780">
    <ele>30.2</ele>
    <time>2019-09-08T06:50:41Z</time>
   </trkpt>
   <trkpt lat="51.2589020" lon="5.8091840">
    <ele>30.2</ele>
    <time>2019-09-08T06:50:42Z</time>
   </trkpt>
   <trkpt lat="51.2589160" lon="5.8093020">
    <ele>30.2</ele>
    <time>2019-09-08T06:50:43Z</time>
   </trkpt>
   <trkpt lat="51.2589320" lon="5.8094070">
    <ele>30.2</ele>
    <time>2019-09-08T06:50:44Z</time>
   </trkpt>
   <trkpt lat="51.2589520" lon="5.8095210">
    <ele>30.2</ele>
    <time>2019-09-08T06:50:45Z</time>
   </trkpt>
   <trkpt lat="51.2589780" lon="5.8096330">
    <ele>30.2</ele>
    <time>2019-09-08T06:50:46Z</time>
   </trkpt>
   <trkpt lat="51.2590020" lon="5.8097460">
    <ele>30.1</ele>
    <time>2019-09-08T06:50:47Z</time>
   </trkpt>
   <trkpt lat="51.2590210" lon="5.8098520">
    <ele>30.1</ele>
    <time>2019-09-08T06:50:48Z</time>
   </trkpt>
   <trkpt lat="51.2590480" lon="5.8099690">
    <ele>30.1</ele>
    <time>2019-09-08T06:50:49Z</time>
   </trkpt>
   <trkpt lat="51.2590620" lon="5.8100750">
    <ele>30.1</ele>
    <time>2019-09-08T06:50:50Z</time>
   </trkpt>
   <trkpt lat="51.2590840" lon="5.8101800">
    <ele>30.1</ele>
    <time>2019-09-08T06:50:51Z</time>
   </trkpt>
   <trkpt lat="51.2591100" lon="5.8102940">
    <ele>30.0</ele>
    <time>2019-09-08T06:50:52Z</time>
   </trkpt>
   <trkpt lat="51.2591300" lon="5.8104000">
    <ele>30.0</ele>
    <time>2019-09-08T06:50:53Z</time>
   </trkpt>
   <trkpt lat="51.2591460" lon="5.8105200">
    <ele>30.0</ele>
    <time>2019-09-08T06:50:54Z</time>
   </trkpt>
   <trkpt lat="51.2591590" lon="5.8106310">
    <ele>30.0</ele>
    <time>2019-09-08T06:50:55Z</time>
   </trkpt>
   <trkpt lat="51.2591830" lon="5.8107430">
    <ele>30.0</ele>
    <time>2019-09-08T06:50:56Z</time>
   </trkpt>
   <trkpt lat="51.2592010" lon="5.8108450">
    <ele>29.9</ele>
    <time>2019-09-08T06:50:57Z</time>
   </trkpt>
   <trkpt lat="51.2592240" lon="5.8109460">
    <ele>29.9</ele>
    <time>2019-09-08T06:50:58Z</time>
   </trkpt>
   <trkpt lat="51.2592420" lon="5.8110530">
    <ele>29.9</ele>
    <time>2019-09-08T06:50:59Z</time>
   </trkpt>
   <trkpt lat="51.2592670" lon="5.8111650">
    <ele>29.8</ele>
    <time>2019-09-08T06:51:00Z</time>
   </trkpt>
   <trkpt lat="51.2592850" lon="5.8112700">
    <ele>29.8</ele>
    <time>2019-09-08T06:51:01Z</time>
   </trkpt>
   <trkpt lat="51.2593120" lon="5.8113780">
    <ele>29.8</ele>
    <time>2019-09-08T06:51:02Z</time>
   </trkpt>
   <trkpt lat="51.2593280" lon="5.8114850">
    <ele>29.7</ele>
    <time>2019-09-08T06:51:03Z</time>
   </trkpt>
   <trkpt lat="51.2593520" lon="5.8116010">
    <ele>29.7</ele>
    <time>2019-09-08T06:51:04Z</time>
   </trkpt>
   <trkpt lat="51.2593750" lon="5.8117150">
    <ele>29.7</ele>
    <time>2019-09-08T06:51:05Z</time>
   </trkpt>
   <trkpt lat="51.2593920" lon="5.8118130">
    <ele>29.6</ele>
    <time>2019-09-08T06:51:06Z</time>
   </trkpt>
   <trkpt lat="51.2594140" lon="5.8119130">
    <ele>29.6</ele>
    <time>2019-09-08T06:51:07Z</time>
   </trkpt>
   <trkpt lat="51.2594310" lon="5.8120260">
    <ele>29.6</ele>
    <time>2019-09-08T06:51:08Z</time>
   </trkpt>
   <trkpt lat="51.2594530" lon="5.8121540">
    <ele>29.6</ele>
    <time>2019-09-08T06:51:09Z</time>
   </trkpt>
   <trkpt lat="51.2594760" lon="5.8122630">
    <ele>29.5</ele>
    <time>2019-09-08T06:51:10Z</time>
   </trkpt>
   <trkpt lat="51.2594870" lon="5.8123750">
    <ele>29.5</ele>
    <time>2019-09-08T06:51:11Z</time>
   </trkpt>
   <trkpt lat="51.2595040" lon="5.8124730">
    <ele>29.5</ele>
    <time>2019-09-08T06:51:12Z</time>
   </trkpt>
   <trkpt lat="51.2595160" lon="5.8125830">
    <ele>29.5</ele>
    <time>2019-09-08T06:51:13Z</time>
   </trkpt>
   <trkpt lat="51.2595350" lon="5.8126920">
    <ele>29.4</ele>
    <time>2019-09-08T06:51:14Z</time>
   </trkpt>
   <trkpt lat="51.2595470" lon="5.8128030">
    <ele>29.4</ele>
    <time>2019-09-08T06:51:15Z</time>
   </trkpt>
   <trkpt lat="51.2595700" lon="5.8129120">
    <ele>29.4</ele>
    <time>2019-09-08T06:51:16Z</time>
   </trkpt>
   <trkpt lat="51.2595880" lon="5.8130230">
    <ele>29.4</ele>
    <time>2019-09-08T06:51:17Z</time>
   </trkpt>
   <trkpt lat="51.2596070" lon="5.8131240">
    <ele>29.3</ele>
    <time>2019-09-08T06:51:18Z</time>
   </trkpt>
   <trkpt lat="51.2596250" lon="5.8132320">
    <ele>29.3</ele>
    <time>2019-09-08T06:51:19Z</time>
   </trkpt>
   <trkpt lat="51.2596440" lon="5.8133250">
    <ele>29.3</ele>
    <time>2019-09-08T06:51:20Z</time>
   </trkpt>
   <trkpt lat="51.2596590" lon="5.8134480">
    <ele>29.3</ele>
    <time>2019-09-08T06:51:21Z</time>
   </trkpt>
   <trkpt lat="51.2596810" lon="5.8135540">
    <ele>29.2</ele>
    <time>2019-09-08T06:51:22Z</time>
   </trkpt>
   <trkpt lat="51.2597040" lon="5.8136500">
    <ele>29.2</ele>
    <time>2019-09-08T06:51:23Z</time>
   </trkpt>
   <trkpt lat="51.2597220" lon="5.8137520">
    <ele>29.2</ele>
    <time>2019-09-08T06:51:24Z</time>
   </trkpt>
   <trkpt lat="51.2597440" lon="5.8138710">
    <ele>29.2</ele>
    <time>2019-09-08T06:51:25Z</time>
   </trkpt>
   <trkpt lat="51.2597610" lon="5.8139780">
    <ele>29.2</ele>
    <time>2019-09-08T06:51:26Z</time>
   </trkpt>
   <trkpt lat="51.2597820" lon="5.8140830">
    <ele>29.2</ele>
    <time>2019-09-08T06:51:27Z</time>
   </trkpt>
   <trkpt lat="51.2597990" lon="5.8141790">
    <ele>29.2</ele>
    <time>2019-09-08T06:51:28Z</time>
   </trkpt>
   <trkpt lat="51.2598180" lon="5.8142890">
    <ele>29.2</ele>
    <time>2019-09-08T06:51:29Z</time>
   </trkpt>
   <trkpt lat="51.2598390" lon="5.8143960">
    <ele>29.2</ele>
    <time>2019-09-08T06:51:30Z</time>
   </trkpt>
   <trkpt lat="51.2598670" lon="5.8145040">
    <ele>29.2</ele>
    <time>2019-09-08T06:51:31Z</time>
   </trkpt>
   <trkpt lat="51.2598860" lon="5.8146010">
    <ele>29.2</ele>
    <time>2019-09-08T06:51:32Z</time>
   </trkpt>
   <trkpt lat="51.2599030" lon="5.8147100">
    <ele>29.2</ele>
    <time>2019-09-08T06:51:33Z</time>
   </trkpt>
   <trkpt lat="51.2599170" lon="5.8148260">
    <ele>29.2</ele>
    <time>2019-09-08T06:51:34Z</time>
   </trkpt>
   <trkpt lat="51.2599320" lon="5.8149280">
    <ele>29.2</ele>
    <time>2019-09-08T06:51:35Z</time>
   </trkpt>
   <trkpt lat="51.2599500" lon="5.8150370">
    <ele>29.2</ele>
    <time>2019-09-08T06:51:36Z</time>
   </trkpt>
   <trkpt lat="51.2599600" lon="5.8151520">
    <ele>29.2</ele>
    <time>2019-09-08T06:51:37Z</time>
   </trkpt>
   <trkpt lat="51.2599870" lon="5.8152600">
    <ele>29.2</ele>
    <time>2019-09-08T06:51:38Z</time>
   </trkpt>
   <trkpt lat="51.2600020" lon="5.8153640">
    <ele>29.2</ele>
    <time>2019-09-08T06:51:39Z</time>
   </trkpt>
   <trkpt lat="51.2600210" lon="5.8154780">
    <ele>29.3</ele>
    <time>2019-09-08T06:51:40Z</time>
   </trkpt>
   <trkpt lat="51.2600390" lon="5.8155860">
    <ele>29.3</ele>
    <time>2019-09-08T06:51:41Z</time>
   </trkpt>
   <trkpt lat="51.2600660" lon="5.8156940">
    <ele>29.3</ele>
    <time>2019-09-08T06:51:42Z</time>
   </trkpt>
   <trkpt lat="51.2600810" lon="5.8158080">
    <ele>29.3</ele>
    <time>2019-09-08T06:51:43Z</time>
   </trkpt>
   <trkpt lat="51.2601030" lon="5.8159360">
    <ele>29.3</ele>
    <time>2019-09-08T06:51:44Z</time>
   </trkpt>
   <trkpt lat="51.2601260" lon="5.8160440">
    <ele>29.3</ele>
    <time>2019-09-08T06:51:45Z</time>
   </trkpt>
   <trkpt lat="51.2601360" lon="5.8161580">
    <ele>29.3</ele>
    <time>2019-09-08T06:51:46Z</time>
   </trkpt>
   <trkpt lat="51.2601460" lon="5.8162680">
    <ele>29.3</ele>
    <time>2019-09-08T06:51:47Z</time>
   </trkpt>
   <trkpt lat="51.2601620" lon="5.8163860">
    <ele>29.4</ele>
    <time>2019-09-08T06:51:48Z</time>
   </trkpt>
   <trkpt lat="51.2601840" lon="5.8164940">
    <ele>29.4</ele>
    <time>2019-09-08T06:51:49Z</time>
   </trkpt>
   <trkpt lat="51.2602080" lon="5.8165940">
    <ele>29.4</ele>
    <time>2019-09-08T06:51:50Z</time>
   </trkpt>
   <trkpt lat="51.2602150" lon="5.8167060">
    <ele>29.5</ele>
    <time>2019-09-08T06:51:51Z</time>
   </trkpt>
   <trkpt lat="51.2602520" lon="5.8168250">
    <ele>29.5</ele>
    <time>2019-09-08T06:51:52Z</time>
   </trkpt>
   <trkpt lat="51.2602710" lon="5.8169430">
    <ele>29.5</ele>
    <time>2019-09-08T06:51:53Z</time>
   </trkpt>
   <trkpt lat="51.2602950" lon="5.8170470">
    <ele>29.6</ele>
    <time>2019-09-08T06:51:54Z</time>
   </trkpt>
   <trkpt lat="51.2603170" lon="5.8171570">
    <ele>29.6</ele>
    <time>2019-09-08T06:51:55Z</time>
   </trkpt>
   <trkpt lat="51.2603410" lon="5.8172720">
    <ele>29.6</ele>
    <time>2019-09-08T06:51:56Z</time>
   </trkpt>
   <trkpt lat="51.2603660" lon="5.8173760">
    <ele>29.7</ele>
    <time>2019-09-08T06:51:57Z</time>
   </trkpt>
   <trkpt lat="51.2603810" lon="5.8174850">
    <ele>29.7</ele>
    <time>2019-09-08T06:51:58Z</time>
   </trkpt>
   <trkpt lat="51.2604050" lon="5.8175900">
    <ele>29.7</ele>
    <time>2019-09-08T06:51:59Z</time>
   </trkpt>
   <trkpt lat="51.2604250" lon="5.8177030">
    <ele>29.7</ele>
    <time>2019-09-08T06:52:00Z</time>
   </trkpt>
   <trkpt lat="51.2604440" lon="5.8178140">
    <ele>29.7</ele>
    <time>2019-09-08T06:52:01Z</time>
   </trkpt>
   <trkpt lat="51.2604620" lon="5.8179260">
    <ele>29.7</ele>
    <time>2019-09-08T06:52:02Z</time>
   </trkpt>
   <trkpt lat="51.2604890" lon="5.8180470">
    <ele>29.7</ele>
    <time>2019-09-08T06:52:03Z</time>
   </trkpt>
   <trkpt lat="51.2605110" lon="5.8181650">
    <ele>29.7</ele>
    <time>2019-09-08T06:52:04Z</time>
   </trkpt>
   <trkpt lat="51.2605310" lon="5.8182760">
    <ele>29.7</ele>
    <time>2019-09-08T06:52:05Z</time>
   </trkpt>
   <trkpt lat="51.2605510" lon="5.8183810">
    <ele>29.7</ele>
    <time>2019-09-08T06:52:06Z</time>
   </trkpt>
   <trkpt lat="51.2605860" lon="5.8184940">
    <ele>29.7</ele>
    <time>2019-09-08T06:52:07Z</time>
   </trkpt>
   <trkpt lat="51.2606020" lon="5.8186100">
    <ele>29.7</ele>
    <time>2019-09-08T06:52:08Z</time>
   </trkpt>
   <trkpt lat="51.2606230" lon="5.8187230">
    <ele>29.7</ele>
    <time>2019-09-08T06:52:09Z</time>
   </trkpt>
   <trkpt lat="51.2606380" lon="5.8188270">
    <ele>29.7</ele>
    <time>2019-09-08T06:52:10Z</time>
   </trkpt>
   <trkpt lat="51.2606560" lon="5.8189300">
    <ele>29.7</ele>
    <time>2019-09-08T06:52:11Z</time>
   </trkpt>
   <trkpt lat="51.2606720" lon="5.8190310">
    <ele>29.7</ele>
    <time>2019-09-08T06:52:12Z</time>
   </trkpt>
   <trkpt lat="51.2606900" lon="5.8191410">
    <ele>29.7</ele>
    <time>2019-09-08T06:52:13Z</time>
   </trkpt>
   <trkpt lat="51.2607080" lon="5.8192360">
    <ele>29.7</ele>
    <time>2019-09-08T06:52:14Z</time>
   </trkpt>
   <trkpt lat="51.2607300" lon="5.8193350">
    <ele>29.7</ele>
    <time>2019-09-08T06:52:15Z</time>
   </trkpt>
   <trkpt lat="51.2607510" lon="5.8194570">
    <ele>29.7</ele>
    <time>2019-09-08T06:52:16Z</time>
   </trkpt>
   <trkpt lat="51.2607680" lon="5.8195630">
    <ele>29.7</ele>
    <time>2019-09-08T06:52:17Z</time>
   </trkpt>
   <trkpt lat="51.2607900" lon="5.8196840">
    <ele>29.7</ele>
    <time>2019-09-08T06:52:18Z</time>
   </trkpt>
   <trkpt lat="51.2608100" lon="5.8197790">
    <ele>29.7</ele>
    <time>2019-09-08T06:52:19Z</time>
   </trkpt>
   <trkpt lat="51.2608310" lon="5.8198910">
    <ele>29.7</ele>
    <time>2019-09-08T06:52:20Z</time>
   </trkpt>
   <trkpt lat="51.2608510" lon="5.8199890">
    <ele>29.7</ele>
    <time>2019-09-08T06:52:21Z</time>
   </trkpt>
   <trkpt lat="51.2608710" lon="5.8201050">
    <ele>29.7</ele>
    <time>2019-09-08T06:52:22Z</time>
   </trkpt>
   <trkpt lat="51.2609040" lon="5.8202160">
    <ele>29.7</ele>
    <time>2019-09-08T06:52:23Z</time>
   </trkpt>
   <trkpt lat="51.2609280" lon="5.8203310">
    <ele>29.7</ele>
    <time>2019-09-08T06:52:24Z</time>
   </trkpt>
   <trkpt lat="51.2609440" lon="5.8204260">
    <ele>29.7</ele>
    <time>2019-09-08T06:52:25Z</time>
   </trkpt>
   <trkpt lat="51.2609600" lon="5.8205250">
    <ele>29.7</ele>
    <time>2019-09-08T06:52:26Z</time>
   </trkpt>
   <trkpt lat="51.2609760" lon="5.8206350">
    <ele>29.7</ele>
    <time>2019-09-08T06:52:27Z</time>
   </trkpt>
   <trkpt lat="51.2609880" lon="5.8207350">
    <ele>29.7</ele>
    <time>2019-09-08T06:52:28Z</time>
   </trkpt>
   <trkpt lat="51.2610090" lon="5.8208360">
    <ele>29.7</ele>
    <time>2019-09-08T06:52:29Z</time>
   </trkpt>
   <trkpt lat="51.2610230" lon="5.8209450">
    <ele>29.7</ele>
    <time>2019-09-08T06:52:30Z</time>
   </trkpt>
   <trkpt lat="51.2610410" lon="5.8210590">
    <ele>29.7</ele>
    <time>2019-09-08T06:52:31Z</time>
   </trkpt>
   <trkpt lat="51.2610600" lon="5.8211610">
    <ele>29.7</ele>
    <time>2019-09-08T06:52:32Z</time>
   </trkpt>
   <trkpt lat="51.2610800" lon="5.8212670">
    <ele>29.7</ele>
    <time>2019-09-08T06:52:33Z</time>
   </trkpt>
   <trkpt lat="51.2610980" lon="5.8213790">
    <ele>29.7</ele>
    <time>2019-09-08T06:52:34Z</time>
   </trkpt>
   <trkpt lat="51.2611130" lon="5.8214890">
    <ele>29.7</ele>
    <time>2019-09-08T06:52:35Z</time>
   </trkpt>
   <trkpt lat="51.2611320" lon="5.8216000">
    <ele>29.7</ele>
    <time>2019-09-08T06:52:36Z</time>
   </trkpt>
   <trkpt lat="51.2611520" lon="5.8216980">
    <ele>29.7</ele>
    <time>2019-09-08T06:52:37Z</time>
   </trkpt>
   <trkpt lat="51.2611650" lon="5.8218120">
    <ele>29.7</ele>
    <time>2019-09-08T06:52:38Z</time>
   </trkpt>
   <trkpt lat="51.2611770" lon="5.8219050">
    <ele>29.7</ele>
    <time>2019-09-08T06:52:39Z</time>
   </trkpt>
   <trkpt lat="51.2611950" lon="5.8220280">
    <ele>29.7</ele>
    <time>2019-09-08T06:52:40Z</time>
   </trkpt>
   <trkpt lat="51.2612170" lon="5.8221380">
    <ele>29.7</ele>
    <time>2019-09-08T06:52:41Z</time>
   </trkpt>
   <trkpt lat="51.2612350" lon="5.8222520">
    <ele>29.7</ele>
    <time>2019-09-08T06:52:42Z</time>
   </trkpt>
   <trkpt lat="51.2612430" lon="5.8223740">
    <ele>29.7</ele>
    <time>2019-09-08T06:52:43Z</time>
   </trkpt>
   <trkpt lat="51.2612580" lon="5.8224870">
    <ele>29.7</ele>
    <time>2019-09-08T06:52:44Z</time>
   </trkpt>
   <trkpt lat="51.2612870" lon="5.8226090">
    <ele>29.7</ele>
    <time>2019-09-08T06:52:45Z</time>
   </trkpt>
   <trkpt lat="51.2613090" lon="5.8227050">
    <ele>29.6</ele>
    <time>2019-09-08T06:52:46Z</time>
   </trkpt>
   <trkpt lat="51.2613330" lon="5.8228170">
    <ele>29.6</ele>
    <time>2019-09-08T06:52:47Z</time>
   </trkpt>
   <trkpt lat="51.2613650" lon="5.8229310">
    <ele>29.6</ele>
    <time>2019-09-08T06:52:48Z</time>
   </trkpt>
   <trkpt lat="51.2613820" lon="5.8230450">
    <ele>29.6</ele>
    <time>2019-09-08T06:52:49Z</time>
   </trkpt>
   <trkpt lat="51.2614100" lon="5.8231690">
    <ele>29.6</ele>
    <time>2019-09-08T06:52:50Z</time>
   </trkpt>
   <trkpt lat="51.2614320" lon="5.8232970">
    <ele>29.6</ele>
    <time>2019-09-08T06:52:51Z</time>
   </trkpt>
   <trkpt lat="51.2614230" lon="5.8234040">
    <ele>29.6</ele>
    <time>2019-09-08T06:52:52Z</time>
   </trkpt>
   <trkpt lat="51.2614550" lon="5.8235510">
    <ele>29.6</ele>
    <time>2019-09-08T06:52:53Z</time>
   </trkpt>
   <trkpt lat="51.2614740" lon="5.8236560">
    <ele>29.6</ele>
    <time>2019-09-08T06:52:54Z</time>
   </trkpt>
   <trkpt lat="51.2614940" lon="5.8237510">
    <ele>29.6</ele>
    <time>2019-09-08T06:52:55Z</time>
   </trkpt>
   <trkpt lat="51.2615130" lon="5.8238450">
    <ele>29.6</ele>
    <time>2019-09-08T06:52:56Z</time>
   </trkpt>
   <trkpt lat="51.2615340" lon="5.8239560">
    <ele>29.6</ele>
    <time>2019-09-08T06:52:57Z</time>
   </trkpt>
   <trkpt lat="51.2615530" lon="5.8240550">
    <ele>29.6</ele>
    <time>2019-09-08T06:52:58Z</time>
   </trkpt>
   <trkpt lat="51.2615700" lon="5.8241620">
    <ele>29.6</ele>
    <time>2019-09-08T06:52:59Z</time>
   </trkpt>
   <trkpt lat="51.2615830" lon="5.8242430">
    <ele>29.7</ele>
    <time>2019-09-08T06:53:00Z</time>
   </trkpt>
   <trkpt lat="51.2615980" lon="5.8243160">
    <ele>29.7</ele>
    <time>2019-09-08T06:53:01Z</time>
   </trkpt>
   <trkpt lat="51.2616060" lon="5.8244140">
    <ele>29.7</ele>
    <time>2019-09-08T06:53:02Z</time>
   </trkpt>
   <trkpt lat="51.2616310" lon="5.8244900">
    <ele>29.7</ele>
    <time>2019-09-08T06:53:03Z</time>
   </trkpt>
   <trkpt lat="51.2616510" lon="5.8245960">
    <ele>29.7</ele>
    <time>2019-09-08T06:53:04Z</time>
   </trkpt>
   <trkpt lat="51.2616800" lon="5.8247270">
    <ele>29.7</ele>
    <time>2019-09-08T06:53:05Z</time>
   </trkpt>
   <trkpt lat="51.2616990" lon="5.8248220">
    <ele>29.8</ele>
    <time>2019-09-08T06:53:06Z</time>
   </trkpt>
   <trkpt lat="51.2617160" lon="5.8248990">
    <ele>29.8</ele>
    <time>2019-09-08T06:53:07Z</time>
   </trkpt>
   <trkpt lat="51.2617380" lon="5.8249860">
    <ele>29.8</ele>
    <time>2019-09-08T06:53:08Z</time>
   </trkpt>
   <trkpt lat="51.2617630" lon="5.8250410">
    <ele>29.8</ele>
    <time>2019-09-08T06:53:09Z</time>
   </trkpt>
   <trkpt lat="51.2617920" lon="5.8250760">
    <ele>29.8</ele>
    <time>2019-09-08T06:53:10Z</time>
   </trkpt>
   <trkpt lat="51.2618400" lon="5.8251440">
    <ele>29.8</ele>
    <time>2019-09-08T06:53:11Z</time>
   </trkpt>
   <trkpt lat="51.2618860" lon="5.8251830">
    <ele>29.8</ele>
    <time>2019-09-08T06:53:12Z</time>
   </trkpt>
   <trkpt lat="51.2619430" lon="5.8252540">
    <ele>29.8</ele>
    <time>2019-09-08T06:53:13Z</time>
   </trkpt>
   <trkpt lat="51.2619980" lon="5.8252150">
    <ele>29.9</ele>
    <time>2019-09-08T06:53:14Z</time>
   </trkpt>
   <trkpt lat="51.2620420" lon="5.8251760">
    <ele>29.9</ele>
    <time>2019-09-08T06:53:15Z</time>
   </trkpt>
   <trkpt lat="51.2620880" lon="5.8251130">
    <ele>30.0</ele>
    <time>2019-09-08T06:53:16Z</time>
   </trkpt>
   <trkpt lat="51.2621330" lon="5.8250450">
    <ele>30.0</ele>
    <time>2019-09-08T06:53:17Z</time>
   </trkpt>
   <trkpt lat="51.2621780" lon="5.8249740">
    <ele>30.0</ele>
    <time>2019-09-08T06:53:18Z</time>
   </trkpt>
   <trkpt lat="51.2622190" lon="5.8248890">
    <ele>30.0</ele>
    <time>2019-09-08T06:53:19Z</time>
   </trkpt>
   <trkpt lat="51.2622710" lon="5.8247890">
    <ele>30.0</ele>
    <time>2019-09-08T06:53:20Z</time>
   </trkpt>
   <trkpt lat="51.2623150" lon="5.8246980">
    <ele>30.0</ele>
    <time>2019-09-08T06:53:21Z</time>
   </trkpt>
   <trkpt lat="51.2623560" lon="5.8246100">
    <ele>30.0</ele>
    <time>2019-09-08T06:53:22Z</time>
   </trkpt>
   <trkpt lat="51.2624040" lon="5.8245160">
    <ele>30.1</ele>
    <time>2019-09-08T06:53:23Z</time>
   </trkpt>
   <trkpt lat="51.2624510" lon="5.8244360">
    <ele>30.1</ele>
    <time>2019-09-08T06:53:24Z</time>
   </trkpt>
   <trkpt lat="51.2625010" lon="5.8243530">
    <ele>30.1</ele>
    <time>2019-09-08T06:53:25Z</time>
   </trkpt>
   <trkpt lat="51.2625580" lon="5.8242510">
    <ele>30.2</ele>
    <time>2019-09-08T06:53:26Z</time>
   </trkpt>
   <trkpt lat="51.2626050" lon="5.8241750">
    <ele>30.2</ele>
    <time>2019-09-08T06:53:27Z</time>
   </trkpt>
   <trkpt lat="51.2626460" lon="5.8240910">
    <ele>30.2</ele>
    <time>2019-09-08T06:53:28Z</time>
   </trkpt>
   <trkpt lat="51.2626940" lon="5.8240090">
    <ele>30.3</ele>
    <time>2019-09-08T06:53:29Z</time>
   </trkpt>
   <trkpt lat="51.2627350" lon="5.8239280">
    <ele>30.3</ele>
    <time>2019-09-08T06:53:30Z</time>
   </trkpt>
   <trkpt lat="51.2627800" lon="5.8238450">
    <ele>30.3</ele>
    <time>2019-09-08T06:53:31Z</time>
   </trkpt>
   <trkpt lat="51.2628260" lon="5.8237760">
    <ele>30.3</ele>
    <time>2019-09-08T06:53:32Z</time>
   </trkpt>
   <trkpt lat="51.2628710" lon="5.8236930">
    <ele>30.3</ele>
    <time>2019-09-08T06:53:33Z</time>
   </trkpt>
   <trkpt lat="51.2629190" lon="5.8236130">
    <ele>30.4</ele>
    <time>2019-09-08T06:53:34Z</time>
   </trkpt>
   <trkpt lat="51.2629690" lon="5.8235300">
    <ele>30.4</ele>
    <time>2019-09-08T06:53:35Z</time>
   </trkpt>
   <trkpt lat="51.2630090" lon="5.8234480">
    <ele>30.4</ele>
    <time>2019-09-08T06:53:36Z</time>
   </trkpt>
   <trkpt lat="51.2630520" lon="5.8233680">
    <ele>30.4</ele>
    <time>2019-09-08T06:53:37Z</time>
   </trkpt>
   <trkpt lat="51.2630970" lon="5.8232880">
    <ele>30.4</ele>
    <time>2019-09-08T06:53:38Z</time>
   </trkpt>
   <trkpt lat="51.2631400" lon="5.8232180">
    <ele>30.4</ele>
    <time>2019-09-08T06:53:39Z</time>
   </trkpt>
   <trkpt lat="51.2631830" lon="5.8231360">
    <ele>30.5</ele>
    <time>2019-09-08T06:53:40Z</time>
   </trkpt>
   <trkpt lat="51.2632260" lon="5.8230570">
    <ele>30.5</ele>
    <time>2019-09-08T06:53:41Z</time>
   </trkpt>
   <trkpt lat="51.2632620" lon="5.8229710">
    <ele>30.5</ele>
    <time>2019-09-08T06:53:42Z</time>
   </trkpt>
   <trkpt lat="51.2633020" lon="5.8229020">
    <ele>30.5</ele>
    <time>2019-09-08T06:53:43Z</time>
   </trkpt>
   <trkpt lat="51.2633470" lon="5.8228250">
    <ele>30.5</ele>
    <time>2019-09-08T06:53:44Z</time>
   </trkpt>
   <trkpt lat="51.2633990" lon="5.8227400">
    <ele>30.6</ele>
    <time>2019-09-08T06:53:45Z</time>
   </trkpt>
   <trkpt lat="51.2634370" lon="5.8226580">
    <ele>30.6</ele>
    <time>2019-09-08T06:53:46Z</time>
   </trkpt>
   <trkpt lat="51.2634800" lon="5.8225810">
    <ele>30.7</ele>
    <time>2019-09-08T06:53:47Z</time>
   </trkpt>
   <trkpt lat="51.2635220" lon="5.8225020">
    <ele>30.7</ele>
    <time>2019-09-08T06:53:48Z</time>
   </trkpt>
   <trkpt lat="51.2635650" lon="5.8224220">
    <ele>30.7</ele>
    <time>2019-09-08T06:53:49Z</time>
   </trkpt>
   <trkpt lat="51.2636110" lon="5.8223380">
    <ele>30.7</ele>
    <time>2019-09-08T06:53:50Z</time>
   </trkpt>
   <trkpt lat="51.2636570" lon="5.8222570">
    <ele>30.7</ele>
    <time>2019-09-08T06:53:51Z</time>
   </trkpt>
   <trkpt lat="51.2636970" lon="5.8221700">
    <ele>30.6</ele>
    <time>2019-09-08T06:53:52Z</time>
   </trkpt>
   <trkpt lat="51.2637410" lon="5.8220850">
    <ele>30.5</ele>
    <time>2019-09-08T06:53:53Z</time>
   </trkpt>
   <trkpt lat="51.2637800" lon="5.8220060">
    <ele>30.4</ele>
    <time>2019-09-08T06:53:54Z</time>
   </trkpt>
   <trkpt lat="51.2638120" lon="5.8219260">
    <ele>30.3</ele>
    <time>2019-09-08T06:53:55Z</time>
   </trkpt>
   <trkpt lat="51.2638590" lon="5.8218490">
    <ele>30.2</ele>
    <time>2019-09-08T06:53:56Z</time>
   </trkpt>
   <trkpt lat="51.2639040" lon="5.8217780">
    <ele>30.2</ele>
    <time>2019-09-08T06:53:57Z</time>
   </trkpt>
   <trkpt lat="51.2639510" lon="5.8217000">
    <ele>30.2</ele>
    <time>2019-09-08T06:53:58Z</time>
   </trkpt>
   <trkpt lat="51.2639990" lon="5.8216140">
    <ele>30.3</ele>
    <time>2019-09-08T06:53:59Z</time>
   </trkpt>
   <trkpt lat="51.2640480" lon="5.8215270">
    <ele>30.5</ele>
    <time>2019-09-08T06:54:00Z</time>
   </trkpt>
   <trkpt lat="51.2640990" lon="5.8214400">
    <ele>30.7</ele>
    <time>2019-09-08T06:54:01Z</time>
   </trkpt>
   <trkpt lat="51.2641470" lon="5.8213500">
    <ele>30.8</ele>
    <time>2019-09-08T06:54:02Z</time>
   </trkpt>
   <trkpt lat="51.2641920" lon="5.8212620">
    <ele>30.9</ele>
    <time>2019-09-08T06:54:03Z</time>
   </trkpt>
   <trkpt lat="51.2642500" lon="5.8211870">
    <ele>31.0</ele>
    <time>2019-09-08T06:54:04Z</time>
   </trkpt>
   <trkpt lat="51.2643030" lon="5.8210920">
    <ele>31.0</ele>
    <time>2019-09-08T06:54:05Z</time>
   </trkpt>
   <trkpt lat="51.2643490" lon="5.8210080">
    <ele>31.0</ele>
    <time>2019-09-08T06:54:06Z</time>
   </trkpt>
   <trkpt lat="51.2644000" lon="5.8209230">
    <ele>31.0</ele>
    <time>2019-09-08T06:54:07Z</time>
   </trkpt>
   <trkpt lat="51.2644510" lon="5.8208480">
    <ele>31.0</ele>
    <time>2019-09-08T06:54:08Z</time>
   </trkpt>
   <trkpt lat="51.2645040" lon="5.8207670">
    <ele>31.0</ele>
    <time>2019-09-08T06:54:09Z</time>
   </trkpt>
   <trkpt lat="51.2645540" lon="5.8206740">
    <ele>31.1</ele>
    <time>2019-09-08T06:54:10Z</time>
   </trkpt>
   <trkpt lat="51.2646090" lon="5.8206160">
    <ele>31.1</ele>
    <time>2019-09-08T06:54:11Z</time>
   </trkpt>
   <trkpt lat="51.2646330" lon="5.8205240">
    <ele>31.2</ele>
    <time>2019-09-08T06:54:12Z</time>
   </trkpt>
   <trkpt lat="51.2646840" lon="5.8204510">
    <ele>31.1</ele>
    <time>2019-09-08T06:54:13Z</time>
   </trkpt>
   <trkpt lat="51.2647410" lon="5.8203430">
    <ele>31.0</ele>
    <time>2019-09-08T06:54:14Z</time>
   </trkpt>
   <trkpt lat="51.2647810" lon="5.8202570">
    <ele>30.9</ele>
    <time>2019-09-08T06:54:15Z</time>
   </trkpt>
   <trkpt lat="51.2648230" lon="5.8201700">
    <ele>30.8</ele>
    <time>2019-09-08T06:54:16Z</time>
   </trkpt>
   <trkpt lat="51.2648670" lon="5.8200940">
    <ele>30.8</ele>
    <time>2019-09-08T06:54:17Z</time>
   </trkpt>
   <trkpt lat="51.2649070" lon="5.8200200">
    <ele>30.9</ele>
    <time>2019-09-08T06:54:18Z</time>
   </trkpt>
   <trkpt lat="51.2649620" lon="5.8199340">
    <ele>31.1</ele>
    <time>2019-09-08T06:54:19Z</time>
   </trkpt>
   <trkpt lat="51.2650090" lon="5.8198610">
    <ele>31.4</ele>
    <time>2019-09-08T06:54:20Z</time>
   </trkpt>
   <trkpt lat="51.2650590" lon="5.8197830">
    <ele>31.7</ele>
    <time>2019-09-08T06:54:21Z</time>
   </trkpt>
   <trkpt lat="51.2651070" lon="5.8197050">
    <ele>31.9</ele>
    <time>2019-09-08T06:54:22Z</time>
   </trkpt>
   <trkpt lat="51.2651510" lon="5.8196210">
    <ele>32.1</ele>
    <time>2019-09-08T06:54:23Z</time>
   </trkpt>
   <trkpt lat="51.2651990" lon="5.8195410">
    <ele>32.3</ele>
    <time>2019-09-08T06:54:24Z</time>
   </trkpt>
   <trkpt lat="51.2652490" lon="5.8194630">
    <ele>32.4</ele>
    <time>2019-09-08T06:54:25Z</time>
   </trkpt>
   <trkpt lat="51.2652980" lon="5.8193860">
    <ele>32.4</ele>
    <time>2019-09-08T06:54:26Z</time>
   </trkpt>
   <trkpt lat="51.2653470" lon="5.8192980">
    <ele>32.4</ele>
    <time>2019-09-08T06:54:27Z</time>
   </trkpt>
   <trkpt lat="51.2654000" lon="5.8192070">
    <ele>32.5</ele>
    <time>2019-09-08T06:54:28Z</time>
   </trkpt>
   <trkpt lat="51.2654460" lon="5.8191250">
    <ele>32.5</ele>
    <time>2019-09-08T06:54:29Z</time>
   </trkpt>
   <trkpt lat="51.2654870" lon="5.8190400">
    <ele>32.6</ele>
    <time>2019-09-08T06:54:30Z</time>
   </trkpt>
   <trkpt lat="51.2655370" lon="5.8189490">
    <ele>32.8</ele>
    <time>2019-09-08T06:54:31Z</time>
   </trkpt>
   <trkpt lat="51.2655800" lon="5.8188670">
    <ele>33.0</ele>
    <time>2019-09-08T06:54:32Z</time>
   </trkpt>
   <trkpt lat="51.2656320" lon="5.8187810">
    <ele>33.2</ele>
    <time>2019-09-08T06:54:33Z</time>
   </trkpt>
   <trkpt lat="51.2656860" lon="5.8187050">
    <ele>33.3</ele>
    <time>2019-09-08T06:54:34Z</time>
   </trkpt>
   <trkpt lat="51.2657380" lon="5.8186240">
    <ele>33.4</ele>
    <time>2019-09-08T06:54:35Z</time>
   </trkpt>
   <trkpt lat="51.2657870" lon="5.8185450">
    <ele>33.4</ele>
    <time>2019-09-08T06:54:36Z</time>
   </trkpt>
   <trkpt lat="51.2658400" lon="5.8184630">
    <ele>33.4</ele>
    <time>2019-09-08T06:54:37Z</time>
   </trkpt>
   <trkpt lat="51.2658870" lon="5.8183830">
    <ele>33.4</ele>
    <time>2019-09-08T06:54:38Z</time>
   </trkpt>
   <trkpt lat="51.2659380" lon="5.8183120">
    <ele>33.3</ele>
    <time>2019-09-08T06:54:39Z</time>
   </trkpt>
   <trkpt lat="51.2659860" lon="5.8182400">
    <ele>33.3</ele>
    <time>2019-09-08T06:54:40Z</time>
   </trkpt>
   <trkpt lat="51.2660390" lon="5.8181670">
    <ele>33.3</ele>
    <time>2019-09-08T06:54:41Z</time>
   </trkpt>
   <trkpt lat="51.2660930" lon="5.8180810">
    <ele>33.3</ele>
    <time>2019-09-08T06:54:42Z</time>
   </trkpt>
   <trkpt lat="51.2661420" lon="5.8180080">
    <ele>33.3</ele>
    <time>2019-09-08T06:54:43Z</time>
   </trkpt>
   <trkpt lat="51.2661920" lon="5.8179220">
    <ele>33.3</ele>
    <time>2019-09-08T06:54:44Z</time>
   </trkpt>
   <trkpt lat="51.2662370" lon="5.8178550">
    <ele>33.3</ele>
    <time>2019-09-08T06:54:45Z</time>
   </trkpt>
   <trkpt lat="51.2662930" lon="5.8177810">
    <ele>33.3</ele>
    <time>2019-09-08T06:54:46Z</time>
   </trkpt>
   <trkpt lat="51.2663460" lon="5.8177090">
    <ele>33.3</ele>
    <time>2019-09-08T06:54:47Z</time>
   </trkpt>
   <trkpt lat="51.2664030" lon="5.8176320">
    <ele>33.5</ele>
    <time>2019-09-08T06:54:48Z</time>
   </trkpt>
   <trkpt lat="51.2664590" lon="5.8175610">
    <ele>33.7</ele>
    <time>2019-09-08T06:54:49Z</time>
   </trkpt>
   <trkpt lat="51.2665040" lon="5.8174930">
    <ele>33.9</ele>
    <time>2019-09-08T06:54:50Z</time>
   </trkpt>
   <trkpt lat="51.2665590" lon="5.8174240">
    <ele>34.0</ele>
    <time>2019-09-08T06:54:51Z</time>
   </trkpt>
   <trkpt lat="51.2666120" lon="5.8173390">
    <ele>33.9</ele>
    <time>2019-09-08T06:54:52Z</time>
   </trkpt>
   <trkpt lat="51.2666680" lon="5.8172580">
    <ele>33.8</ele>
    <time>2019-09-08T06:54:53Z</time>
   </trkpt>
   <trkpt lat="51.2666920" lon="5.8171900">
    <ele>33.7</ele>
    <time>2019-09-08T06:54:54Z</time>
   </trkpt>
   <trkpt lat="51.2667420" lon="5.8171040">
    <ele>33.6</ele>
    <time>2019-09-08T06:54:55Z</time>
   </trkpt>
   <trkpt lat="51.2667930" lon="5.8170190">
    <ele>33.5</ele>
    <time>2019-09-08T06:54:56Z</time>
   </trkpt>
   <trkpt lat="51.2668270" lon="5.8169480">
    <ele>33.4</ele>
    <time>2019-09-08T06:54:57Z</time>
   </trkpt>
   <trkpt lat="51.2668600" lon="5.8168680">
    <ele>33.3</ele>
    <time>2019-09-08T06:54:58Z</time>
   </trkpt>
   <trkpt lat="51.2669160" lon="5.8168000">
    <ele>33.2</ele>
    <time>2019-09-08T06:54:59Z</time>
   </trkpt>
   <trkpt lat="51.2669760" lon="5.8167530">
    <ele>33.2</ele>
    <time>2019-09-08T06:55:00Z</time>
   </trkpt>
   <trkpt lat="51.2670360" lon="5.8166840">
    <ele>33.2</ele>
    <time>2019-09-08T06:55:01Z</time>
   </trkpt>
   <trkpt lat="51.2670880" lon="5.8166180">
    <ele>33.1</ele>
    <time>2019-09-08T06:55:02Z</time>
   </trkpt>
   <trkpt lat="51.2671480" lon="5.8165430">
    <ele>33.1</ele>
    <time>2019-09-08T06:55:03Z</time>
   </trkpt>
   <trkpt lat="51.2672010" lon="5.8164720">
    <ele>33.0</ele>
    <time>2019-09-08T06:55:04Z</time>
   </trkpt>
   <trkpt lat="51.2672420" lon="5.8164030">
    <ele>32.9</ele>
    <time>2019-09-08T06:55:05Z</time>
   </trkpt>
   <trkpt lat="51.2672970" lon="5.8163140">
    <ele>32.9</ele>
    <time>2019-09-08T06:55:06Z</time>
   </trkpt>
   <trkpt lat="51.2673570" lon="5.8162400">
    <ele>32.8</ele>
    <time>2019-09-08T06:55:07Z</time>
   </trkpt>
   <trkpt lat="51.2674080" lon="5.8161670">
    <ele>32.7</ele>
    <time>2019-09-08T06:55:08Z</time>
   </trkpt>
   <trkpt lat="51.2674530" lon="5.8160990">
    <ele>32.7</ele>
    <time>2019-09-08T06:55:09Z</time>
   </trkpt>
   <trkpt lat="51.2674950" lon="5.8160260">
    <ele>32.6</ele>
    <time>2019-09-08T06:55:10Z</time>
   </trkpt>
   <trkpt lat="51.2675460" lon="5.8159480">
    <ele>32.6</ele>
    <time>2019-09-08T06:55:11Z</time>
   </trkpt>
   <trkpt lat="51.2675830" lon="5.8158790">
    <ele>32.6</ele>
    <time>2019-09-08T06:55:12Z</time>
   </trkpt>
   <trkpt lat="51.2676310" lon="5.8158100">
    <ele>32.6</ele>
    <time>2019-09-08T06:55:13Z</time>
   </trkpt>
   <trkpt lat="51.2676660" lon="5.8157460">
    <ele>32.6</ele>
    <time>2019-09-08T06:55:14Z</time>
   </trkpt>
   <trkpt lat="51.2677120" lon="5.8156610">
    <ele>32.6</ele>
    <time>2019-09-08T06:55:15Z</time>
   </trkpt>
   <trkpt lat="51.2677530" lon="5.8155990">
    <ele>32.6</ele>
    <time>2019-09-08T06:55:16Z</time>
   </trkpt>
   <trkpt lat="51.2677990" lon="5.8155180">
    <ele>32.6</ele>
    <time>2019-09-08T06:55:17Z</time>
   </trkpt>
   <trkpt lat="51.2678470" lon="5.8154350">
    <ele>32.6</ele>
    <time>2019-09-08T06:55:18Z</time>
   </trkpt>
   <trkpt lat="51.2679010" lon="5.8153610">
    <ele>32.6</ele>
    <time>2019-09-08T06:55:19Z</time>
   </trkpt>
   <trkpt lat="51.2679490" lon="5.8152890">
    <ele>32.6</ele>
    <time>2019-09-08T06:55:20Z</time>
   </trkpt>
   <trkpt lat="51.2680080" lon="5.8152100">
    <ele>32.6</ele>
    <time>2019-09-08T06:55:21Z</time>
   </trkpt>
   <trkpt lat="51.2680650" lon="5.8151370">
    <ele>32.5</ele>
    <time>2019-09-08T06:55:22Z</time>
   </trkpt>
   <trkpt lat="51.2681210" lon="5.8150620">
    <ele>32.4</ele>
    <time>2019-09-08T06:55:23Z</time>
   </trkpt>
   <trkpt lat="51.2681710" lon="5.8149920">
    <ele>32.4</ele>
    <time>2019-09-08T06:55:24Z</time>
   </trkpt>
   <trkpt lat="51.2682240" lon="5.8149190">
    <ele>32.3</ele>
    <time>2019-09-08T06:55:25Z</time>
   </trkpt>
   <trkpt lat="51.2682710" lon="5.8148430">
    <ele>32.3</ele>
    <time>2019-09-08T06:55:26Z</time>
   </trkpt>
   <trkpt lat="51.2683250" lon="5.8147700">
    <ele>32.2</ele>
    <time>2019-09-08T06:55:27Z</time>
   </trkpt>
   <trkpt lat="51.2683780" lon="5.8146900">
    <ele>32.1</ele>
    <time>2019-09-08T06:55:28Z</time>
   </trkpt>
   <trkpt lat="51.2684310" lon="5.8146230">
    <ele>32.1</ele>
    <time>2019-09-08T06:55:29Z</time>
   </trkpt>
   <trkpt lat="51.2684850" lon="5.8145440">
    <ele>32.0</ele>
    <time>2019-09-08T06:55:30Z</time>
   </trkpt>
   <trkpt lat="51.2685400" lon="5.8144630">
    <ele>32.0</ele>
    <time>2019-09-08T06:55:31Z</time>
   </trkpt>
   <trkpt lat="51.2685960" lon="5.8143930">
    <ele>31.9</ele>
    <time>2019-09-08T06:55:32Z</time>
   </trkpt>
   <trkpt lat="51.2686470" lon="5.8143240">
    <ele>31.8</ele>
    <time>2019-09-08T06:55:33Z</time>
   </trkpt>
   <trkpt lat="51.2686940" lon="5.8142550">
    <ele>31.7</ele>
    <time>2019-09-08T06:55:34Z</time>
   </trkpt>
   <trkpt lat="51.2687440" lon="5.8141820">
    <ele>31.7</ele>
    <time>2019-09-08T06:55:35Z</time>
   </trkpt>
   <trkpt lat="51.2687950" lon="5.8141090">
    <ele>31.6</ele>
    <time>2019-09-08T06:55:36Z</time>
   </trkpt>
   <trkpt lat="51.2688440" lon="5.8140430">
    <ele>31.5</ele>
    <time>2019-09-08T06:55:37Z</time>
   </trkpt>
   <trkpt lat="51.2688870" lon="5.8139720">
    <ele>31.4</ele>
    <time>2019-09-08T06:55:38Z</time>
   </trkpt>
   <trkpt lat="51.2689400" lon="5.8138920">
    <ele>31.4</ele>
    <time>2019-09-08T06:55:39Z</time>
   </trkpt>
   <trkpt lat="51.2689900" lon="5.8138220">
    <ele>31.3</ele>
    <time>2019-09-08T06:55:40Z</time>
   </trkpt>
   <trkpt lat="51.2690420" lon="5.8137440">
    <ele>31.2</ele>
    <time>2019-09-08T06:55:41Z</time>
   </trkpt>
   <trkpt lat="51.2690940" lon="5.8136670">
    <ele>31.1</ele>
    <time>2019-09-08T06:55:42Z</time>
   </trkpt>
   <trkpt lat="51.2691480" lon="5.8135810">
    <ele>31.0</ele>
    <time>2019-09-08T06:55:43Z</time>
   </trkpt>
   <trkpt lat="51.2692050" lon="5.8135060">
    <ele>30.9</ele>
    <time>2019-09-08T06:55:44Z</time>
   </trkpt>
   <trkpt lat="51.2692540" lon="5.8134320">
    <ele>30.8</ele>
    <time>2019-09-08T06:55:45Z</time>
   </trkpt>
   <trkpt lat="51.2693110" lon="5.8133630">
    <ele>30.7</ele>
    <time>2019-09-08T06:55:46Z</time>
   </trkpt>
   <trkpt lat="51.2693620" lon="5.8132940">
    <ele>30.6</ele>
    <time>2019-09-08T06:55:47Z</time>
   </trkpt>
   <trkpt lat="51.2694190" lon="5.8132200">
    <ele>30.4</ele>
    <time>2019-09-08T06:55:48Z</time>
   </trkpt>
   <trkpt lat="51.2694740" lon="5.8131490">
    <ele>30.3</ele>
    <time>2019-09-08T06:55:49Z</time>
   </trkpt>
   <trkpt lat="51.2695350" lon="5.8130770">
    <ele>30.3</ele>
    <time>2019-09-08T06:55:50Z</time>
   </trkpt>
   <trkpt lat="51.2695910" lon="5.8130180">
    <ele>30.3</ele>
    <time>2019-09-08T06:55:51Z</time>
   </trkpt>
   <trkpt lat="51.2696550" lon="5.8129610">
    <ele>30.3</ele>
    <time>2019-09-08T06:55:52Z</time>
   </trkpt>
   <trkpt lat="51.2697120" lon="5.8129050">
    <ele>30.3</ele>
    <time>2019-09-08T06:55:53Z</time>
   </trkpt>
   <trkpt lat="51.2697740" lon="5.8128570">
    <ele>30.3</ele>
    <time>2019-09-08T06:55:54Z</time>
   </trkpt>
   <trkpt lat="51.2698440" lon="5.8128180">
    <ele>30.3</ele>
    <time>2019-09-08T06:55:55Z</time>
   </trkpt>
   <trkpt lat="51.2699080" lon="5.8127750">
    <ele>30.4</ele>
    <time>2019-09-08T06:55:56Z</time>
   </trkpt>
   <trkpt lat="51.2699750" lon="5.8127410">
    <ele>30.4</ele>
    <time>2019-09-08T06:55:57Z</time>
   </trkpt>
   <trkpt lat="51.2700420" lon="5.8126910">
    <ele>30.4</ele>
    <time>2019-09-08T06:55:58Z</time>
   </trkpt>
   <trkpt lat="51.2701010" lon="5.8126450">
    <ele>30.4</ele>
    <time>2019-09-08T06:55:59Z</time>
   </trkpt>
   <trkpt lat="51.2701600" lon="5.8125990">
    <ele>30.4</ele>
    <time>2019-09-08T06:56:00Z</time>
   </trkpt>
   <trkpt lat="51.2702210" lon="5.8125630">
    <ele>30.4</ele>
    <time>2019-09-08T06:56:01Z</time>
   </trkpt>
   <trkpt lat="51.2702750" lon="5.8125230">
    <ele>30.5</ele>
    <time>2019-09-08T06:56:02Z</time>
   </trkpt>
   <trkpt lat="51.2703370" lon="5.8124760">
    <ele>30.5</ele>
    <time>2019-09-08T06:56:03Z</time>
   </trkpt>
   <trkpt lat="51.2703950" lon="5.8124320">
    <ele>30.5</ele>
    <time>2019-09-08T06:56:04Z</time>
   </trkpt>
   <trkpt lat="51.2704600" lon="5.8123850">
    <ele>30.5</ele>
    <time>2019-09-08T06:56:05Z</time>
   </trkpt>
   <trkpt lat="51.2705220" lon="5.8123420">
    <ele>30.5</ele>
    <time>2019-09-08T06:56:06Z</time>
   </trkpt>
   <trkpt lat="51.2705880" lon="5.8122930">
    <ele>30.5</ele>
    <time>2019-09-08T06:56:07Z</time>
   </trkpt>
   <trkpt lat="51.2706540" lon="5.8122460">
    <ele>30.5</ele>
    <time>2019-09-08T06:56:08Z</time>
   </trkpt>
   <trkpt lat="51.2707140" lon="5.8122090">
    <ele>30.4</ele>
    <time>2019-09-08T06:56:09Z</time>
   </trkpt>
   <trkpt lat="51.2707800" lon="5.8121670">
    <ele>30.4</ele>
    <time>2019-09-08T06:56:10Z</time>
   </trkpt>
   <trkpt lat="51.2708410" lon="5.8121290">
    <ele>30.4</ele>
    <time>2019-09-08T06:56:11Z</time>
   </trkpt>
   <trkpt lat="51.2709050" lon="5.8120860">
    <ele>30.4</ele>
    <time>2019-09-08T06:56:12Z</time>
   </trkpt>
   <trkpt lat="51.2709650" lon="5.8120500">
    <ele>30.4</ele>
    <time>2019-09-08T06:56:13Z</time>
   </trkpt>
   <trkpt lat="51.2710300" lon="5.8120150">
    <ele>30.4</ele>
    <time>2019-09-08T06:56:14Z</time>
   </trkpt>
   <trkpt lat="51.2710950" lon="5.8119700">
    <ele>30.3</ele>
    <time>2019-09-08T06:56:15Z</time>
   </trkpt>
   <trkpt lat="51.2711560" lon="5.8119250">
    <ele>30.3</ele>
    <time>2019-09-08T06:56:16Z</time>
   </trkpt>
   <trkpt lat="51.2712180" lon="5.8118900">
    <ele>30.3</ele>
    <time>2019-09-08T06:56:17Z</time>
   </trkpt>
   <trkpt lat="51.2712750" lon="5.8118510">
    <ele>30.3</ele>
    <time>2019-09-08T06:56:18Z</time>
   </trkpt>
   <trkpt lat="51.2713340" lon="5.8118160">
    <ele>30.3</ele>
    <time>2019-09-08T06:56:19Z</time>
   </trkpt>
   <trkpt lat="51.2713940" lon="5.8117860">
    <ele>30.3</ele>
    <time>2019-09-08T06:56:20Z</time>
   </trkpt>
   <trkpt lat="51.2714490" lon="5.8117380">
    <ele>30.3</ele>
    <time>2019-09-08T06:56:21Z</time>
   </trkpt>
   <trkpt lat="51.2715050" lon="5.8116810">
    <ele>30.3</ele>
    <time>2019-09-08T06:56:22Z</time>
   </trkpt>
   <trkpt lat="51.2715600" lon="5.8116240">
    <ele>30.3</ele>
    <time>2019-09-08T06:56:23Z</time>
   </trkpt>
   <trkpt lat="51.2716140" lon="5.8115570">
    <ele>30.2</ele>
    <time>2019-09-08T06:56:24Z</time>
   </trkpt>
   <trkpt lat="51.2716630" lon="5.8114800">
    <ele>30.2</ele>
    <time>2019-09-08T06:56:25Z</time>
   </trkpt>
   <trkpt lat="51.2717110" lon="5.8114100">
    <ele>30.1</ele>
    <time>2019-09-08T06:56:26Z</time>
   </trkpt>
   <trkpt lat="51.2717550" lon="5.8113280">
    <ele>30.1</ele>
    <time>2019-09-08T06:56:27Z</time>
   </trkpt>
   <trkpt lat="51.2717910" lon="5.8112390">
    <ele>30.1</ele>
    <time>2019-09-08T06:56:28Z</time>
   </trkpt>
   <trkpt lat="51.2718300" lon="5.8111440">
    <ele>30.1</ele>
    <time>2019-09-08T06:56:29Z</time>
   </trkpt>
   <trkpt lat="51.2718700" lon="5.8110540">
    <ele>30.1</ele>
    <time>2019-09-08T06:56:30Z</time>
   </trkpt>
   <trkpt lat="51.2719020" lon="5.8109590">
    <ele>30.1</ele>
    <time>2019-09-08T06:56:31Z</time>
   </trkpt>
   <trkpt lat="51.2719440" lon="5.8108650">
    <ele>30.1</ele>
    <time>2019-09-08T06:56:32Z</time>
   </trkpt>
   <trkpt lat="51.2719800" lon="5.8107560">
    <ele>30.1</ele>
    <time>2019-09-08T06:56:33Z</time>
   </trkpt>
   <trkpt lat="51.2720140" lon="5.8106690">
    <ele>30.1</ele>
    <time>2019-09-08T06:56:34Z</time>
   </trkpt>
   <trkpt lat="51.2720490" lon="5.8105880">
    <ele>30.1</ele>
    <time>2019-09-08T06:56:35Z</time>
   </trkpt>
   <trkpt lat="51.2720840" lon="5.8105130">
    <ele>30.1</ele>
    <time>2019-09-08T06:56:36Z</time>
   </trkpt>
   <trkpt lat="51.2721210" lon="5.8104270">
    <ele>30.1</ele>
    <time>2019-09-08T06:56:37Z</time>
   </trkpt>
   <trkpt lat="51.2721680" lon="5.8103440">
    <ele>30.1</ele>
    <time>2019-09-08T06:56:38Z</time>
   </trkpt>
   <trkpt lat="51.2722070" lon="5.8102550">
    <ele>30.1</ele>
    <time>2019-09-08T06:56:39Z</time>
   </trkpt>
   <trkpt lat="51.2722430" lon="5.8101530">
    <ele>30.1</ele>
    <time>2019-09-08T06:56:40Z</time>
   </trkpt>
   <trkpt lat="51.2722820" lon="5.8100610">
    <ele>30.2</ele>
    <time>2019-09-08T06:56:41Z</time>
   </trkpt>
   <trkpt lat="51.2723170" lon="5.8099690">
    <ele>30.2</ele>
    <time>2019-09-08T06:56:42Z</time>
   </trkpt>
   <trkpt lat="51.2723540" lon="5.8098800">
    <ele>30.2</ele>
    <time>2019-09-08T06:56:43Z</time>
   </trkpt>
   <trkpt lat="51.2723960" lon="5.8097800">
    <ele>30.2</ele>
    <time>2019-09-08T06:56:44Z</time>
   </trkpt>
   <trkpt lat="51.2724370" lon="5.8096910">
    <ele>30.2</ele>
    <time>2019-09-08T06:56:45Z</time>
   </trkpt>
   <trkpt lat="51.2724740" lon="5.8095950">
    <ele>30.3</ele>
    <time>2019-09-08T06:56:46Z</time>
   </trkpt>
   <trkpt lat="51.2725090" lon="5.8095100">
    <ele>30.3</ele>
    <time>2019-09-08T06:56:47Z</time>
   </trkpt>
   <trkpt lat="51.2725440" lon="5.8094060">
    <ele>30.3</ele>
    <time>2019-09-08T06:56:48Z</time>
   </trkpt>
   <trkpt lat="51.2725760" lon="5.8093130">
    <ele>30.3</ele>
    <time>2019-09-08T06:56:49Z</time>
   </trkpt>
   <trkpt lat="51.2726200" lon="5.8092200">
    <ele>30.3</ele>
    <time>2019-09-08T06:56:50Z</time>
   </trkpt>
   <trkpt lat="51.2726520" lon="5.8091310">
    <ele>30.3</ele>
    <time>2019-09-08T06:56:51Z</time>
   </trkpt>
   <trkpt lat="51.2726930" lon="5.8090360">
    <ele>30.4</ele>
    <time>2019-09-08T06:56:52Z</time>
   </trkpt>
   <trkpt lat="51.2727280" lon="5.8089480">
    <ele>30.4</ele>
    <time>2019-09-08T06:56:53Z</time>
   </trkpt>
   <trkpt lat="51.2727660" lon="5.8088560">
    <ele>30.4</ele>
    <time>2019-09-08T06:56:54Z</time>
   </trkpt>
   <trkpt lat="51.2728040" lon="5.8087680">
    <ele>30.5</ele>
    <time>2019-09-08T06:56:55Z</time>
   </trkpt>
   <trkpt lat="51.2728380" lon="5.8086790">
    <ele>30.5</ele>
    <time>2019-09-08T06:56:56Z</time>
   </trkpt>
   <trkpt lat="51.2728740" lon="5.8085860">
    <ele>30.5</ele>
    <time>2019-09-08T06:56:57Z</time>
   </trkpt>
   <trkpt lat="51.2729180" lon="5.8085000">
    <ele>30.5</ele>
    <time>2019-09-08T06:56:58Z</time>
   </trkpt>
   <trkpt lat="51.2729550" lon="5.8084000">
    <ele>30.6</ele>
    <time>2019-09-08T06:56:59Z</time>
   </trkpt>
   <trkpt lat="51.2729940" lon="5.8083060">
    <ele>30.6</ele>
    <time>2019-09-08T06:57:00Z</time>
   </trkpt>
   <trkpt lat="51.2730290" lon="5.8082070">
    <ele>30.6</ele>
    <time>2019-09-08T06:57:01Z</time>
   </trkpt>
   <trkpt lat="51.2730660" lon="5.8081180">
    <ele>30.7</ele>
    <time>2019-09-08T06:57:02Z</time>
   </trkpt>
   <trkpt lat="51.2731050" lon="5.8080300">
    <ele>30.7</ele>
    <time>2019-09-08T06:57:03Z</time>
   </trkpt>
   <trkpt lat="51.2731390" lon="5.8079370">
    <ele>30.7</ele>
    <time>2019-09-08T06:57:04Z</time>
   </trkpt>
   <trkpt lat="51.2731740" lon="5.8078460">
    <ele>30.8</ele>
    <time>2019-09-08T06:57:05Z</time>
   </trkpt>
   <trkpt lat="51.2732090" lon="5.8077460">
    <ele>30.8</ele>
    <time>2019-09-08T06:57:06Z</time>
   </trkpt>
   <trkpt lat="51.2732450" lon="5.8076610">
    <ele>30.8</ele>
    <time>2019-09-08T06:57:07Z</time>
   </trkpt>
   <trkpt lat="51.2732800" lon="5.8075750">
    <ele>30.8</ele>
    <time>2019-09-08T06:57:08Z</time>
   </trkpt>
   <trkpt lat="51.2733200" lon="5.8074890">
    <ele>30.8</ele>
    <time>2019-09-08T06:57:09Z</time>
   </trkpt>
   <trkpt lat="51.2733600" lon="5.8074000">
    <ele>30.8</ele>
    <time>2019-09-08T06:57:10Z</time>
   </trkpt>
   <trkpt lat="51.2734020" lon="5.8072970">
    <ele>30.8</ele>
    <time>2019-09-08T06:57:11Z</time>
   </trkpt>
   <trkpt lat="51.2734400" lon="5.8072000">
    <ele>30.8</ele>
    <time>2019-09-08T06:57:12Z</time>
   </trkpt>
   <trkpt lat="51.2734770" lon="5.8071060">
    <ele>30.8</ele>
    <time>2019-09-08T06:57:13Z</time>
   </trkpt>
   <trkpt lat="51.2735150" lon="5.8070120">
    <ele>30.8</ele>
    <time>2019-09-08T06:57:14Z</time>
   </trkpt>
   <trkpt lat="51.2735520" lon="5.8069170">
    <ele>30.8</ele>
    <time>2019-09-08T06:57:15Z</time>
   </trkpt>
   <trkpt lat="51.2735930" lon="5.8068280">
    <ele>30.8</ele>
    <time>2019-09-08T06:57:16Z</time>
   </trkpt>
   <trkpt lat="51.2736320" lon="5.8067400">
    <ele>30.8</ele>
    <time>2019-09-08T06:57:17Z</time>
   </trkpt>
   <trkpt lat="51.2736690" lon="5.8066500">
    <ele>30.8</ele>
    <time>2019-09-08T06:57:18Z</time>
   </trkpt>
   <trkpt lat="51.2737090" lon="5.8065600">
    <ele>30.8</ele>
    <time>2019-09-08T06:57:19Z</time>
   </trkpt>
   <trkpt lat="51.2737440" lon="5.8064600">
    <ele>30.8</ele>
    <time>2019-09-08T06:57:20Z</time>
   </trkpt>
   <trkpt lat="51.2737800" lon="5.8063560">
    <ele>30.8</ele>
    <time>2019-09-08T06:57:21Z</time>
   </trkpt>
   <trkpt lat="51.2738050" lon="5.8062700">
    <ele>30.8</ele>
    <time>2019-09-08T06:57:22Z</time>
   </trkpt>
   <trkpt lat="51.2738440" lon="5.8061820">
    <ele>30.8</ele>
    <time>2019-09-08T06:57:23Z</time>
   </trkpt>
   <trkpt lat="51.2738830" lon="5.8060910">
    <ele>30.8</ele>
    <time>2019-09-08T06:57:24Z</time>
   </trkpt>
   <trkpt lat="51.2739150" lon="5.8059950">
    <ele>30.8</ele>
    <time>2019-09-08T06:57:25Z</time>
   </trkpt>
   <trkpt lat="51.2739500" lon="5.8059000">
    <ele>30.8</ele>
    <time>2019-09-08T06:57:26Z</time>
   </trkpt>
   <trkpt lat="51.2739900" lon="5.8058150">
    <ele>30.8</ele>
    <time>2019-09-08T06:57:27Z</time>
   </trkpt>
   <trkpt lat="51.2740230" lon="5.8057350">
    <ele>30.8</ele>
    <time>2019-09-08T06:57:28Z</time>
   </trkpt>
   <trkpt lat="51.2740580" lon="5.8056330">
    <ele>30.8</ele>
    <time>2019-09-08T06:57:29Z</time>
   </trkpt>
   <trkpt lat="51.2740980" lon="5.8055400">
    <ele>30.8</ele>
    <time>2019-09-08T06:57:30Z</time>
   </trkpt>
   <trkpt lat="51.2741340" lon="5.8054470">
    <ele>30.8</ele>
    <time>2019-09-08T06:57:31Z</time>
   </trkpt>
   <trkpt lat="51.2741660" lon="5.8053600">
    <ele>30.8</ele>
    <time>2019-09-08T06:57:32Z</time>
   </trkpt>
   <trkpt lat="51.2742080" lon="5.8052640">
    <ele>30.8</ele>
    <time>2019-09-08T06:57:33Z</time>
   </trkpt>
   <trkpt lat="51.2742460" lon="5.8051790">
    <ele>30.8</ele>
    <time>2019-09-08T06:57:34Z</time>
   </trkpt>
   <trkpt lat="51.2743020" lon="5.8051020">
    <ele>30.9</ele>
    <time>2019-09-08T06:57:35Z</time>
   </trkpt>
   <trkpt lat="51.2743540" lon="5.8050180">
    <ele>30.9</ele>
    <time>2019-09-08T06:57:36Z</time>
   </trkpt>
   <trkpt lat="51.2744080" lon="5.8049400">
    <ele>30.9</ele>
    <time>2019-09-08T06:57:37Z</time>
   </trkpt>
   <trkpt lat="51.2744600" lon="5.8048740">
    <ele>30.9</ele>
    <time>2019-09-08T06:57:38Z</time>
   </trkpt>
   <trkpt lat="51.2745070" lon="5.8047970">
    <ele>30.9</ele>
    <time>2019-09-08T06:57:39Z</time>
   </trkpt>
   <trkpt lat="51.2745590" lon="5.8047200">
    <ele>30.9</ele>
    <time>2019-09-08T06:57:40Z</time>
   </trkpt>
   <trkpt lat="51.2746110" lon="5.8046450">
    <ele>30.9</ele>
    <time>2019-09-08T06:57:41Z</time>
   </trkpt>
   <trkpt lat="51.2746550" lon="5.8045640">
    <ele>31.0</ele>
    <time>2019-09-08T06:57:42Z</time>
   </trkpt>
   <trkpt lat="51.2746990" lon="5.8044940">
    <ele>31.0</ele>
    <time>2019-09-08T06:57:43Z</time>
   </trkpt>
   <trkpt lat="51.2747520" lon="5.8044280">
    <ele>31.0</ele>
    <time>2019-09-08T06:57:44Z</time>
   </trkpt>
   <trkpt lat="51.2748020" lon="5.8043610">
    <ele>31.0</ele>
    <time>2019-09-08T06:57:45Z</time>
   </trkpt>
   <trkpt lat="51.2748620" lon="5.8042740">
    <ele>31.0</ele>
    <time>2019-09-08T06:57:46Z</time>
   </trkpt>
   <trkpt lat="51.2749100" lon="5.8042010">
    <ele>31.0</ele>
    <time>2019-09-08T06:57:47Z</time>
   </trkpt>
   <trkpt lat="51.2749600" lon="5.8041290">
    <ele>31.0</ele>
    <time>2019-09-08T06:57:48Z</time>
   </trkpt>
   <trkpt lat="51.2750100" lon="5.8040630">
    <ele>31.0</ele>
    <time>2019-09-08T06:57:49Z</time>
   </trkpt>
   <trkpt lat="51.2750610" lon="5.8040020">
    <ele>31.0</ele>
    <time>2019-09-08T06:57:50Z</time>
   </trkpt>
   <trkpt lat="51.2751110" lon="5.8039320">
    <ele>31.0</ele>
    <time>2019-09-08T06:57:51Z</time>
   </trkpt>
   <trkpt lat="51.2751640" lon="5.8038620">
    <ele>31.0</ele>
    <time>2019-09-08T06:57:52Z</time>
   </trkpt>
   <trkpt lat="51.2752160" lon="5.8037930">
    <ele>31.0</ele>
    <time>2019-09-08T06:57:53Z</time>
   </trkpt>
   <trkpt lat="51.2752730" lon="5.8037120">
    <ele>31.0</ele>
    <time>2019-09-08T06:57:54Z</time>
   </trkpt>
   <trkpt lat="51.2753240" lon="5.8036480">
    <ele>31.0</ele>
    <time>2019-09-08T06:57:55Z</time>
   </trkpt>
   <trkpt lat="51.2753740" lon="5.8035780">
    <ele>31.0</ele>
    <time>2019-09-08T06:57:56Z</time>
   </trkpt>
   <trkpt lat="51.2754260" lon="5.8035100">
    <ele>31.0</ele>
    <time>2019-09-08T06:57:57Z</time>
   </trkpt>
   <trkpt lat="51.2754710" lon="5.8034410">
    <ele>31.0</ele>
    <time>2019-09-08T06:57:58Z</time>
   </trkpt>
   <trkpt lat="51.2755210" lon="5.8033740">
    <ele>31.0</ele>
    <time>2019-09-08T06:57:59Z</time>
   </trkpt>
   <trkpt lat="51.2755630" lon="5.8032970">
    <ele>31.0</ele>
    <time>2019-09-08T06:58:00Z</time>
   </trkpt>
   <trkpt lat="51.2756150" lon="5.8032150">
    <ele>31.0</ele>
    <time>2019-09-08T06:58:01Z</time>
   </trkpt>
   <trkpt lat="51.2756660" lon="5.8031480">
    <ele>31.0</ele>
    <time>2019-09-08T06:58:02Z</time>
   </trkpt>
   <trkpt lat="51.2757260" lon="5.8030810">
    <ele>31.0</ele>
    <time>2019-09-08T06:58:03Z</time>
   </trkpt>
   <trkpt lat="51.2757930" lon="5.8030070">
    <ele>31.0</ele>
    <time>2019-09-08T06:58:04Z</time>
   </trkpt>
   <trkpt lat="51.2758430" lon="5.8029270">
    <ele>31.0</ele>
    <time>2019-09-08T06:58:05Z</time>
   </trkpt>
   <trkpt lat="51.2758930" lon="5.8028600">
    <ele>31.0</ele>
    <time>2019-09-08T06:58:06Z</time>
   </trkpt>
   <trkpt lat="51.2759500" lon="5.8027830">
    <ele>31.0</ele>
    <time>2019-09-08T06:58:07Z</time>
   </trkpt>
   <trkpt lat="51.2760030" lon="5.8027150">
    <ele>31.0</ele>
    <time>2019-09-08T06:58:08Z</time>
   </trkpt>
   <trkpt lat="51.2760540" lon="5.8026430">
    <ele>31.0</ele>
    <time>2019-09-08T06:58:09Z</time>
   </trkpt>
   <trkpt lat="51.2761070" lon="5.8025710">
    <ele>31.0</ele>
    <time>2019-09-08T06:58:10Z</time>
   </trkpt>
   <trkpt lat="51.2761590" lon="5.8025070">
    <ele>31.0</ele>
    <time>2019-09-08T06:58:11Z</time>
   </trkpt>
   <trkpt lat="51.2762130" lon="5.8024290">
    <ele>31.1</ele>
    <time>2019-09-08T06:58:12Z</time>
   </trkpt>
   <trkpt lat="51.2762610" lon="5.8023540">
    <ele>31.1</ele>
    <time>2019-09-08T06:58:13Z</time>
   </trkpt>
   <trkpt lat="51.2763090" lon="5.8022870">
    <ele>31.1</ele>
    <time>2019-09-08T06:58:14Z</time>
   </trkpt>
   <trkpt lat="51.2763580" lon="5.8022160">
    <ele>31.1</ele>
    <time>2019-09-08T06:58:15Z</time>
   </trkpt>
   <trkpt lat="51.2764050" lon="5.8021460">
    <ele>31.2</ele>
    <time>2019-09-08T06:58:16Z</time>
   </trkpt>
   <trkpt lat="51.2764560" lon="5.8020800">
    <ele>31.2</ele>
    <time>2019-09-08T06:58:17Z</time>
   </trkpt>
   <trkpt lat="51.2765050" lon="5.8020140">
    <ele>31.2</ele>
    <time>2019-09-08T06:58:18Z</time>
   </trkpt>
   <trkpt lat="51.2765560" lon="5.8019460">
    <ele>31.2</ele>
    <time>2019-09-08T06:58:19Z</time>
   </trkpt>
   <trkpt lat="51.2766090" lon="5.8018720">
    <ele>31.2</ele>
    <time>2019-09-08T06:58:20Z</time>
   </trkpt>
   <trkpt lat="51.2766600" lon="5.8017950">
    <ele>31.2</ele>
    <time>2019-09-08T06:58:21Z</time>
   </trkpt>
   <trkpt lat="51.2767180" lon="5.8017180">
    <ele>31.3</ele>
    <time>2019-09-08T06:58:22Z</time>
   </trkpt>
   <trkpt lat="51.2767690" lon="5.8016460">
    <ele>31.3</ele>
    <time>2019-09-08T06:58:23Z</time>
   </trkpt>
   <trkpt lat="51.2768240" lon="5.8015670">
    <ele>31.3</ele>
    <time>2019-09-08T06:58:24Z</time>
   </trkpt>
   <trkpt lat="51.2768730" lon="5.8014930">
    <ele>31.3</ele>
    <time>2019-09-08T06:58:25Z</time>
   </trkpt>
   <trkpt lat="51.2769220" lon="5.8014190">
    <ele>31.4</ele>
    <time>2019-09-08T06:58:26Z</time>
   </trkpt>
   <trkpt lat="51.2769760" lon="5.8013530">
    <ele>31.4</ele>
    <time>2019-09-08T06:58:27Z</time>
   </trkpt>
   <trkpt lat="51.2770230" lon="5.8012840">
    <ele>31.4</ele>
    <time>2019-09-08T06:58:28Z</time>
   </trkpt>
   <trkpt lat="51.2770770" lon="5.8012090">
    <ele>31.4</ele>
    <time>2019-09-08T06:58:29Z</time>
   </trkpt>
   <trkpt lat="51.2771320" lon="5.8011330">
    <ele>31.4</ele>
    <time>2019-09-08T06:58:30Z</time>
   </trkpt>
   <trkpt lat="51.2771800" lon="5.8010530">
    <ele>31.4</ele>
    <time>2019-09-08T06:58:31Z</time>
   </trkpt>
   <trkpt lat="51.2772250" lon="5.8009850">
    <ele>31.4</ele>
    <time>2019-09-08T06:58:32Z</time>
   </trkpt>
   <trkpt lat="51.2772770" lon="5.8009140">
    <ele>31.4</ele>
    <time>2019-09-08T06:58:33Z</time>
   </trkpt>
   <trkpt lat="51.2773230" lon="5.8008450">
    <ele>31.4</ele>
    <time>2019-09-08T06:58:34Z</time>
   </trkpt>
   <trkpt lat="51.2773800" lon="5.8007800">
    <ele>31.4</ele>
    <time>2019-09-08T06:58:35Z</time>
   </trkpt>
   <trkpt lat="51.2774290" lon="5.8007120">
    <ele>31.4</ele>
    <time>2019-09-08T06:58:36Z</time>
   </trkpt>
   <trkpt lat="51.2774870" lon="5.8006390">
    <ele>31.4</ele>
    <time>2019-09-08T06:58:37Z</time>
   </trkpt>
   <trkpt lat="51.2775360" lon="5.8005690">
    <ele>31.4</ele>
    <time>2019-09-08T06:58:38Z</time>
   </trkpt>
   <trkpt lat="51.2775880" lon="5.8004930">
    <ele>31.4</ele>
    <time>2019-09-08T06:58:39Z</time>
   </trkpt>
   <trkpt lat="51.2776420" lon="5.8004160">
    <ele>31.4</ele>
    <time>2019-09-08T06:58:40Z</time>
   </trkpt>
   <trkpt lat="51.2776960" lon="5.8003420">
    <ele>31.4</ele>
    <time>2019-09-08T06:58:41Z</time>
   </trkpt>
   <trkpt lat="51.2777490" lon="5.8002760">
    <ele>31.4</ele>
    <time>2019-09-08T06:58:42Z</time>
   </trkpt>
   <trkpt lat="51.2778010" lon="5.8002000">
    <ele>31.4</ele>
    <time>2019-09-08T06:58:43Z</time>
   </trkpt>
   <trkpt lat="51.2778530" lon="5.8001320">
    <ele>31.4</ele>
    <time>2019-09-08T06:58:44Z</time>
   </trkpt>
   <trkpt lat="51.2779060" lon="5.8000610">
    <ele>31.4</ele>
    <time>2019-09-08T06:58:45Z</time>
   </trkpt>
   <trkpt lat="51.2779590" lon="5.7999880">
    <ele>31.4</ele>
    <time>2019-09-08T06:58:46Z</time>
   </trkpt>
   <trkpt lat="51.2780060" lon="5.7999180">
    <ele>31.2</ele>
    <time>2019-09-08T06:58:47Z</time>
   </trkpt>
   <trkpt lat="51.2780560" lon="5.7998420">
    <ele>31.1</ele>
    <time>2019-09-08T06:58:48Z</time>
   </trkpt>
   <trkpt lat="51.2781040" lon="5.7997800">
    <ele>31.0</ele>
    <time>2019-09-08T06:58:49Z</time>
   </trkpt>
   <trkpt lat="51.2781510" lon="5.7997180">
    <ele>30.9</ele>
    <time>2019-09-08T06:58:50Z</time>
   </trkpt>
   <trkpt lat="51.2781910" lon="5.7996560">
    <ele>30.8</ele>
    <time>2019-09-08T06:58:51Z</time>
   </trkpt>
   <trkpt lat="51.2782370" lon="5.7996020">
    <ele>30.8</ele>
    <time>2019-09-08T06:58:52Z</time>
   </trkpt>
   <trkpt lat="51.2782760" lon="5.7995530">
    <ele>30.7</ele>
    <time>2019-09-08T06:58:53Z</time>
   </trkpt>
   <trkpt lat="51.2783190" lon="5.7995070">
    <ele>30.7</ele>
    <time>2019-09-08T06:58:54Z</time>
   </trkpt>
   <trkpt lat="51.2783700" lon="5.7994730">
    <ele>30.7</ele>
    <time>2019-09-08T06:58:55Z</time>
   </trkpt>
   <trkpt lat="51.2784180" lon="5.7994470">
    <ele>30.7</ele>
    <time>2019-09-08T06:58:56Z</time>
   </trkpt>
   <trkpt lat="51.2784830" lon="5.7994240">
    <ele>30.8</ele>
    <time>2019-09-08T06:58:57Z</time>
   </trkpt>
   <trkpt lat="51.2785500" lon="5.7993900">
    <ele>30.8</ele>
    <time>2019-09-08T06:58:58Z</time>
   </trkpt>
   <trkpt lat="51.2786150" lon="5.7993530">
    <ele>30.8</ele>
    <time>2019-09-08T06:58:59Z</time>
   </trkpt>
   <trkpt lat="51.2786750" lon="5.7993250">
    <ele>30.9</ele>
    <time>2019-09-08T06:59:00Z</time>
   </trkpt>
   <trkpt lat="51.2787450" lon="5.7992950">
    <ele>30.9</ele>
    <time>2019-09-08T06:59:01Z</time>
   </trkpt>
   <trkpt lat="51.2788090" lon="5.7992570">
    <ele>30.9</ele>
    <time>2019-09-08T06:59:02Z</time>
   </trkpt>
   <trkpt lat="51.2788700" lon="5.7992200">
    <ele>30.9</ele>
    <time>2019-09-08T06:59:03Z</time>
   </trkpt>
   <trkpt lat="51.2789340" lon="5.7991920">
    <ele>30.9</ele>
    <time>2019-09-08T06:59:04Z</time>
   </trkpt>
   <trkpt lat="51.2789950" lon="5.7991610">
    <ele>30.9</ele>
    <time>2019-09-08T06:59:05Z</time>
   </trkpt>
   <trkpt lat="51.2790600" lon="5.7991310">
    <ele>31.0</ele>
    <time>2019-09-08T06:59:06Z</time>
   </trkpt>
   <trkpt lat="51.2791230" lon="5.7990990">
    <ele>31.0</ele>
    <time>2019-09-08T06:59:07Z</time>
   </trkpt>
   <trkpt lat="51.2791890" lon="5.7990680">
    <ele>31.0</ele>
    <time>2019-09-08T06:59:08Z</time>
   </trkpt>
   <trkpt lat="51.2792540" lon="5.7990460">
    <ele>31.1</ele>
    <time>2019-09-08T06:59:09Z</time>
   </trkpt>
   <trkpt lat="51.2793140" lon="5.7990180">
    <ele>31.1</ele>
    <time>2019-09-08T06:59:10Z</time>
   </trkpt>
   <trkpt lat="51.2793760" lon="5.7989790">
    <ele>31.2</ele>
    <time>2019-09-08T06:59:11Z</time>
   </trkpt>
   <trkpt lat="51.2794360" lon="5.7989460">
    <ele>31.2</ele>
    <time>2019-09-08T06:59:12Z</time>
   </trkpt>
   <trkpt lat="51.2794900" lon="5.7989130">
    <ele>31.2</ele>
    <time>2019-09-08T06:59:13Z</time>
   </trkpt>
   <trkpt lat="51.2795560" lon="5.7988830">
    <ele>31.2</ele>
    <time>2019-09-08T06:59:14Z</time>
   </trkpt>
   <trkpt lat="51.2796160" lon="5.7988520">
    <ele>31.2</ele>
    <time>2019-09-08T06:59:15Z</time>
   </trkpt>
   <trkpt lat="51.2796770" lon="5.7988270">
    <ele>31.2</ele>
    <time>2019-09-08T06:59:16Z</time>
   </trkpt>
   <trkpt lat="51.2797380" lon="5.7987870">
    <ele>31.1</ele>
    <time>2019-09-08T06:59:17Z</time>
   </trkpt>
   <trkpt lat="51.2798080" lon="5.7987670">
    <ele>31.1</ele>
    <time>2019-09-08T06:59:18Z</time>
   </trkpt>
   <trkpt lat="51.2798680" lon="5.7987370">
    <ele>31.1</ele>
    <time>2019-09-08T06:59:19Z</time>
   </trkpt>
   <trkpt lat="51.2799270" lon="5.7987120">
    <ele>31.1</ele>
    <time>2019-09-08T06:59:20Z</time>
   </trkpt>
   <trkpt lat="51.2799820" lon="5.7986850">
    <ele>31.1</ele>
    <time>2019-09-08T06:59:21Z</time>
   </trkpt>
   <trkpt lat="51.2800480" lon="5.7986580">
    <ele>31.1</ele>
    <time>2019-09-08T06:59:22Z</time>
   </trkpt>
   <trkpt lat="51.2801180" lon="5.7986290">
    <ele>31.1</ele>
    <time>2019-09-08T06:59:23Z</time>
   </trkpt>
   <trkpt lat="51.2801800" lon="5.7985950">
    <ele>31.1</ele>
    <time>2019-09-08T06:59:24Z</time>
   </trkpt>
   <trkpt lat="51.2802460" lon="5.7985730">
    <ele>31.2</ele>
    <time>2019-09-08T06:59:25Z</time>
   </trkpt>
   <trkpt lat="51.2803030" lon="5.7985410">
    <ele>31.2</ele>
    <time>2019-09-08T06:59:26Z</time>
   </trkpt>
   <trkpt lat="51.2803710" lon="5.7985220">
    <ele>31.3</ele>
    <time>2019-09-08T06:59:27Z</time>
   </trkpt>
   <trkpt lat="51.2804370" lon="5.7984940">
    <ele>31.4</ele>
    <time>2019-09-08T06:59:28Z</time>
   </trkpt>
   <trkpt lat="51.2804960" lon="5.7984610">
    <ele>31.4</ele>
    <time>2019-09-08T06:59:29Z</time>
   </trkpt>
   <trkpt lat="51.2805580" lon="5.7984340">
    <ele>31.4</ele>
    <time>2019-09-08T06:59:30Z</time>
   </trkpt>
   <trkpt lat="51.2806190" lon="5.7984110">
    <ele>31.4</ele>
    <time>2019-09-08T06:59:31Z</time>
   </trkpt>
   <trkpt lat="51.2806810" lon="5.7983730">
    <ele>31.4</ele>
    <time>2019-09-08T06:59:32Z</time>
   </trkpt>
   <trkpt lat="51.2807450" lon="5.7983440">
    <ele>31.4</ele>
    <time>2019-09-08T06:59:33Z</time>
   </trkpt>
   <trkpt lat="51.2808180" lon="5.7983120">
    <ele>31.3</ele>
    <time>2019-09-08T06:59:34Z</time>
   </trkpt>
   <trkpt lat="51.2808820" lon="5.7982780">
    <ele>31.3</ele>
    <time>2019-09-08T06:59:35Z</time>
   </trkpt>
   <trkpt lat="51.2809510" lon="5.7982350">
    <ele>31.2</ele>
    <time>2019-09-08T06:59:36Z</time>
   </trkpt>
   <trkpt lat="51.2810150" lon="5.7982040">
    <ele>31.1</ele>
    <time>2019-09-08T06:59:37Z</time>
   </trkpt>
   <trkpt lat="51.2810770" lon="5.7981650">
    <ele>31.0</ele>
    <time>2019-09-08T06:59:38Z</time>
   </trkpt>
   <trkpt lat="51.2811440" lon="5.7981350">
    <ele>31.0</ele>
    <time>2019-09-08T06:59:39Z</time>
   </trkpt>
   <trkpt lat="51.2812040" lon="5.7981030">
    <ele>30.9</ele>
    <time>2019-09-08T06:59:40Z</time>
   </trkpt>
   <trkpt lat="51.2812640" lon="5.7980760">
    <ele>30.9</ele>
    <time>2019-09-08T06:59:41Z</time>
   </trkpt>
   <trkpt lat="51.2813270" lon="5.7980350">
    <ele>30.9</ele>
    <time>2019-09-08T06:59:42Z</time>
   </trkpt>
   <trkpt lat="51.2813970" lon="5.7980250">
    <ele>30.9</ele>
    <time>2019-09-08T06:59:43Z</time>
   </trkpt>
   <trkpt lat="51.2814570" lon="5.7979980">
    <ele>30.9</ele>
    <time>2019-09-08T06:59:44Z</time>
   </trkpt>
   <trkpt lat="51.2815220" lon="5.7979690">
    <ele>30.9</ele>
    <time>2019-09-08T06:59:45Z</time>
   </trkpt>
   <trkpt lat="51.2815990" lon="5.7979490">
    <ele>30.9</ele>
    <time>2019-09-08T06:59:46Z</time>
   </trkpt>
   <trkpt lat="51.2816640" lon="5.7979090">
    <ele>30.9</ele>
    <time>2019-09-08T06:59:47Z</time>
   </trkpt>
   <trkpt lat="51.2817260" lon="5.7978770">
    <ele>30.9</ele>
    <time>2019-09-08T06:59:48Z</time>
   </trkpt>
   <trkpt lat="51.2817960" lon="5.7978530">
    <ele>30.9</ele>
    <time>2019-09-08T06:59:49Z</time>
   </trkpt>
   <trkpt lat="51.2818640" lon="5.7978220">
    <ele>30.9</ele>
    <time>2019-09-08T06:59:50Z</time>
   </trkpt>
   <trkpt lat="51.2819240" lon="5.7977900">
    <ele>30.9</ele>
    <time>2019-09-08T06:59:51Z</time>
   </trkpt>
   <trkpt lat="51.2819850" lon="5.7977540">
    <ele>30.9</ele>
    <time>2019-09-08T06:59:52Z</time>
   </trkpt>
   <trkpt lat="51.2820490" lon="5.7977250">
    <ele>30.8</ele>
    <time>2019-09-08T06:59:53Z</time>
   </trkpt>
   <trkpt lat="51.2821130" lon="5.7976980">
    <ele>30.8</ele>
    <time>2019-09-08T06:59:54Z</time>
   </trkpt>
   <trkpt lat="51.2821780" lon="5.7976720">
    <ele>30.8</ele>
    <time>2019-09-08T06:59:55Z</time>
   </trkpt>
   <trkpt lat="51.2822410" lon="5.7976430">
    <ele>30.8</ele>
    <time>2019-09-08T06:59:56Z</time>
   </trkpt>
   <trkpt lat="51.2823130" lon="5.7976100">
    <ele>30.7</ele>
    <time>2019-09-08T06:59:57Z</time>
   </trkpt>
   <trkpt lat="51.2823840" lon="5.7975730">
    <ele>30.7</ele>
    <time>2019-09-08T06:59:58Z</time>
   </trkpt>
   <trkpt lat="51.2824480" lon="5.7975460">
    <ele>30.7</ele>
    <time>2019-09-08T06:59:59Z</time>
   </trkpt>
   <trkpt lat="51.2825130" lon="5.7975090">
    <ele>30.7</ele>
    <time>2019-09-08T07:00:00Z</time>
   </trkpt>
   <trkpt lat="51.2825740" lon="5.7974700">
    <ele>30.7</ele>
    <time>2019-09-08T07:00:01Z</time>
   </trkpt>
   <trkpt lat="51.2826330" lon="5.7974330">
    <ele>30.8</ele>
    <time>2019-09-08T07:00:02Z</time>
   </trkpt>
   <trkpt lat="51.2826970" lon="5.7974000">
    <ele>30.8</ele>
    <time>2019-09-08T07:00:03Z</time>
   </trkpt>
   <trkpt lat="51.2827600" lon="5.7973660">
    <ele>30.9</ele>
    <time>2019-09-08T07:00:04Z</time>
   </trkpt>
   <trkpt lat="51.2828270" lon="5.7973320">
    <ele>31.0</ele>
    <time>2019-09-08T07:00:05Z</time>
   </trkpt>
   <trkpt lat="51.2828890" lon="5.7973040">
    <ele>31.1</ele>
    <time>2019-09-08T07:00:06Z</time>
   </trkpt>
   <trkpt lat="51.2829490" lon="5.7972670">
    <ele>31.1</ele>
    <time>2019-09-08T07:00:07Z</time>
   </trkpt>
   <trkpt lat="51.2830090" lon="5.7972360">
    <ele>31.2</ele>
    <time>2019-09-08T07:00:08Z</time>
   </trkpt>
   <trkpt lat="51.2830700" lon="5.7972070">
    <ele>31.3</ele>
    <time>2019-09-08T07:00:09Z</time>
   </trkpt>
   <trkpt lat="51.2831310" lon="5.7971790">
    <ele>31.3</ele>
    <time>2019-09-08T07:00:10Z</time>
   </trkpt>
   <trkpt lat="51.2831900" lon="5.7971460">
    <ele>31.4</ele>
    <time>2019-09-08T07:00:11Z</time>
   </trkpt>
   <trkpt lat="51.2832530" lon="5.7971220">
    <ele>31.5</ele>
    <time>2019-09-08T07:00:12Z</time>
   </trkpt>
   <trkpt lat="51.2833170" lon="5.7970850">
    <ele>31.5</ele>
    <time>2019-09-08T07:00:13Z</time>
   </trkpt>
   <trkpt lat="51.2833790" lon="5.7970570">
    <ele>31.6</ele>
    <time>2019-09-08T07:00:14Z</time>
   </trkpt>
   <trkpt lat="51.2834410" lon="5.7970270">
    <ele>31.6</ele>
    <time>2019-09-08T07:00:15Z</time>
   </trkpt>
   <trkpt lat="51.2835040" lon="5.7969950">
    <ele>31.7</ele>
    <time>2019-09-08T07:00:16Z</time>
   </trkpt>
   <trkpt lat="51.2835710" lon="5.7969590">
    <ele>31.7</ele>
    <time>2019-09-08T07:00:17Z</time>
   </trkpt>
   <trkpt lat="51.2836400" lon="5.7969270">
    <ele>31.8</ele>
    <time>2019-09-08T07:00:18Z</time>
   </trkpt>
   <trkpt lat="51.2837040" lon="5.7969020">
    <ele>31.9</ele>
    <time>2019-09-08T07:00:19Z</time>
   </trkpt>
   <trkpt lat="51.2837700" lon="5.7968790">
    <ele>32.0</ele>
    <time>2019-09-08T07:00:20Z</time>
   </trkpt>
   <trkpt lat="51.2838310" lon="5.7968500">
    <ele>32.1</ele>
    <time>2019-09-08T07:00:21Z</time>
   </trkpt>
   <trkpt lat="51.2838930" lon="5.7968270">
    <ele>32.2</ele>
    <time>2019-09-08T07:00:22Z</time>
   </trkpt>
   <trkpt lat="51.2839620" lon="5.7968000">
    <ele>32.3</ele>
    <time>2019-09-08T07:00:23Z</time>
   </trkpt>
   <trkpt lat="51.2840250" lon="5.7967690">
    <ele>32.4</ele>
    <time>2019-09-08T07:00:24Z</time>
   </trkpt>
   <trkpt lat="51.2840780" lon="5.7967470">
    <ele>32.5</ele>
    <time>2019-09-08T07:00:25Z</time>
   </trkpt>
   <trkpt lat="51.2841350" lon="5.7967200">
    <ele>32.6</ele>
    <time>2019-09-08T07:00:26Z</time>
   </trkpt>
   <trkpt lat="51.2841880" lon="5.7966920">
    <ele>32.6</ele>
    <time>2019-09-08T07:00:27Z</time>
   </trkpt>
   <trkpt lat="51.2842390" lon="5.7966750">
    <ele>32.7</ele>
    <time>2019-09-08T07:00:28Z</time>
   </trkpt>
   <trkpt lat="51.2842950" lon="5.7966600">
    <ele>32.7</ele>
    <time>2019-09-08T07:00:29Z</time>
   </trkpt>
   <trkpt lat="51.2843330" lon="5.7966360">
    <ele>32.7</ele>
    <time>2019-09-08T07:00:30Z</time>
   </trkpt>
   <trkpt lat="51.2843730" lon="5.7965870">
    <ele>32.7</ele>
    <time>2019-09-08T07:00:31Z</time>
   </trkpt>
   <trkpt lat="51.2844150" lon="5.7965620">
    <ele>32.7</ele>
    <time>2019-09-08T07:00:32Z</time>
   </trkpt>
   <trkpt lat="51.2844590" lon="5.7965350">
    <ele>32.6</ele>
    <time>2019-09-08T07:00:33Z</time>
   </trkpt>
   <trkpt lat="51.2845130" lon="5.7965330">
    <ele>32.5</ele>
    <time>2019-09-08T07:00:34Z</time>
   </trkpt>
   <trkpt lat="51.2845750" lon="5.7965670">
    <ele>32.5</ele>
    <time>2019-09-08T07:00:35Z</time>
   </trkpt>
   <trkpt lat="51.2846270" lon="5.7966220">
    <ele>32.5</ele>
    <time>2019-09-08T07:00:36Z</time>
   </trkpt>
   <trkpt lat="51.2846760" lon="5.7966990">
    <ele>32.5</ele>
    <time>2019-09-08T07:00:37Z</time>
   </trkpt>
   <trkpt lat="51.2846940" lon="5.7967810">
    <ele>32.5</ele>
    <time>2019-09-08T07:00:38Z</time>
   </trkpt>
   <trkpt lat="51.2847280" lon="5.7968570">
    <ele>32.5</ele>
    <time>2019-09-08T07:00:39Z</time>
   </trkpt>
   <trkpt lat="51.2847760" lon="5.7969550">
    <ele>32.5</ele>
    <time>2019-09-08T07:00:40Z</time>
   </trkpt>
   <trkpt lat="51.2848270" lon="5.7970440">
    <ele>32.5</ele>
    <time>2019-09-08T07:00:41Z</time>
   </trkpt>
   <trkpt lat="51.2848550" lon="5.7971180">
    <ele>32.5</ele>
    <time>2019-09-08T07:00:42Z</time>
   </trkpt>
   <trkpt lat="51.2848890" lon="5.7972040">
    <ele>32.5</ele>
    <time>2019-09-08T07:00:43Z</time>
   </trkpt>
   <trkpt lat="51.2849250" lon="5.7972790">
    <ele>32.5</ele>
    <time>2019-09-08T07:00:44Z</time>
   </trkpt>
   <trkpt lat="51.2849630" lon="5.7973650">
    <ele>32.5</ele>
    <time>2019-09-08T07:00:45Z</time>
   </trkpt>
   <trkpt lat="51.2850000" lon="5.7974630">
    <ele>32.5</ele>
    <time>2019-09-08T07:00:46Z</time>
   </trkpt>
   <trkpt lat="51.2850470" lon="5.7975500">
    <ele>32.5</ele>
    <time>2019-09-08T07:00:47Z</time>
   </trkpt>
   <trkpt lat="51.2850950" lon="5.7976250">
    <ele>32.5</ele>
    <time>2019-09-08T07:00:48Z</time>
   </trkpt>
   <trkpt lat="51.2851450" lon="5.7977020">
    <ele>32.5</ele>
    <time>2019-09-08T07:00:49Z</time>
   </trkpt>
   <trkpt lat="51.2851860" lon="5.7977850">
    <ele>32.4</ele>
    <time>2019-09-08T07:00:50Z</time>
   </trkpt>
   <trkpt lat="51.2852300" lon="5.7978780">
    <ele>32.4</ele>
    <time>2019-09-08T07:00:51Z</time>
   </trkpt>
   <trkpt lat="51.2852520" lon="5.7979390">
    <ele>32.4</ele>
    <time>2019-09-08T07:00:52Z</time>
   </trkpt>
   <trkpt lat="51.2852910" lon="5.7980270">
    <ele>32.3</ele>
    <time>2019-09-08T07:00:53Z</time>
   </trkpt>
   <trkpt lat="51.2853400" lon="5.7981050">
    <ele>32.3</ele>
    <time>2019-09-08T07:00:54Z</time>
   </trkpt>
   <trkpt lat="51.2853810" lon="5.7981880">
    <ele>32.3</ele>
    <time>2019-09-08T07:00:55Z</time>
   </trkpt>
   <trkpt lat="51.2854180" lon="5.7982860">
    <ele>32.2</ele>
    <time>2019-09-08T07:00:56Z</time>
   </trkpt>
   <trkpt lat="51.2854620" lon="5.7983710">
    <ele>32.2</ele>
    <time>2019-09-08T07:00:57Z</time>
   </trkpt>
   <trkpt lat="51.2854960" lon="5.7984460">
    <ele>32.2</ele>
    <time>2019-09-08T07:00:58Z</time>
   </trkpt>
   <trkpt lat="51.2855300" lon="5.7985360">
    <ele>32.1</ele>
    <time>2019-09-08T07:00:59Z</time>
   </trkpt>
   <trkpt lat="51.2855590" lon="5.7986100">
    <ele>32.1</ele>
    <time>2019-09-08T07:01:00Z</time>
   </trkpt>
   <trkpt lat="51.2856060" lon="5.7986900">
    <ele>32.1</ele>
    <time>2019-09-08T07:01:01Z</time>
   </trkpt>
   <trkpt lat="51.2856460" lon="5.7987880">
    <ele>32.1</ele>
    <time>2019-09-08T07:01:02Z</time>
   </trkpt>
   <trkpt lat="51.2856790" lon="5.7988680">
    <ele>32.1</ele>
    <time>2019-09-08T07:01:03Z</time>
   </trkpt>
   <trkpt lat="51.2857200" lon="5.7989340">
    <ele>32.1</ele>
    <time>2019-09-08T07:01:04Z</time>
   </trkpt>
   <trkpt lat="51.2857550" lon="5.7990230">
    <ele>32.1</ele>
    <time>2019-09-08T07:01:05Z</time>
   </trkpt>
   <trkpt lat="51.2857920" lon="5.7991140">
    <ele>32.1</ele>
    <time>2019-09-08T07:01:06Z</time>
   </trkpt>
   <trkpt lat="51.2858330" lon="5.7991940">
    <ele>32.1</ele>
    <time>2019-09-08T07:01:07Z</time>
   </trkpt>
   <trkpt lat="51.2858790" lon="5.7992720">
    <ele>32.1</ele>
    <time>2019-09-08T07:01:08Z</time>
   </trkpt>
   <trkpt lat="51.2859210" lon="5.7993430">
    <ele>32.1</ele>
    <time>2019-09-08T07:01:09Z</time>
   </trkpt>
   <trkpt lat="51.2859610" lon="5.7994360">
    <ele>32.1</ele>
    <time>2019-09-08T07:01:10Z</time>
   </trkpt>
   <trkpt lat="51.2860080" lon="5.7995290">
    <ele>32.1</ele>
    <time>2019-09-08T07:01:11Z</time>
   </trkpt>
   <trkpt lat="51.2860470" lon="5.7996080">
    <ele>32.1</ele>
    <time>2019-09-08T07:01:12Z</time>
   </trkpt>
   <trkpt lat="51.2860810" lon="5.7996980">
    <ele>32.1</ele>
    <time>2019-09-08T07:01:13Z</time>
   </trkpt>
   <trkpt lat="51.2861180" lon="5.7997810">
    <ele>32.1</ele>
    <time>2019-09-08T07:01:14Z</time>
   </trkpt>
   <trkpt lat="51.2861520" lon="5.7998660">
    <ele>32.1</ele>
    <time>2019-09-08T07:01:15Z</time>
   </trkpt>
   <trkpt lat="51.2861890" lon="5.7999540">
    <ele>32.1</ele>
    <time>2019-09-08T07:01:16Z</time>
   </trkpt>
   <trkpt lat="51.2862270" lon="5.8000310">
    <ele>32.1</ele>
    <time>2019-09-08T07:01:17Z</time>
   </trkpt>
   <trkpt lat="51.2862580" lon="5.8001170">
    <ele>32.2</ele>
    <time>2019-09-08T07:01:18Z</time>
   </trkpt>
   <trkpt lat="51.2862890" lon="5.8001940">
    <ele>32.2</ele>
    <time>2019-09-08T07:01:19Z</time>
   </trkpt>
   <trkpt lat="51.2863290" lon="5.8002750">
    <ele>32.3</ele>
    <time>2019-09-08T07:01:20Z</time>
   </trkpt>
   <trkpt lat="51.2863670" lon="5.8003550">
    <ele>32.3</ele>
    <time>2019-09-08T07:01:21Z</time>
   </trkpt>
   <trkpt lat="51.2864010" lon="5.8004330">
    <ele>32.3</ele>
    <time>2019-09-08T07:01:22Z</time>
   </trkpt>
   <trkpt lat="51.2864360" lon="5.8005120">
    <ele>32.4</ele>
    <time>2019-09-08T07:01:23Z</time>
   </trkpt>
   <trkpt lat="51.2864670" lon="5.8005870">
    <ele>32.4</ele>
    <time>2019-09-08T07:01:24Z</time>
   </trkpt>
   <trkpt lat="51.2865020" lon="5.8006600">
    <ele>32.4</ele>
    <time>2019-09-08T07:01:25Z</time>
   </trkpt>
   <trkpt lat="51.2865430" lon="5.8007270">
    <ele>32.5</ele>
    <time>2019-09-08T07:01:26Z</time>
   </trkpt>
   <trkpt lat="51.2865880" lon="5.8007950">
    <ele>32.5</ele>
    <time>2019-09-08T07:01:27Z</time>
   </trkpt>
   <trkpt lat="51.2866280" lon="5.8008660">
    <ele>32.5</ele>
    <time>2019-09-08T07:01:28Z</time>
   </trkpt>
   <trkpt lat="51.2866690" lon="5.8009390">
    <ele>32.5</ele>
    <time>2019-09-08T07:01:29Z</time>
   </trkpt>
   <trkpt lat="51.2867140" lon="5.8010420">
    <ele>32.6</ele>
    <time>2019-09-08T07:01:30Z</time>
   </trkpt>
   <trkpt lat="51.2867490" lon="5.8011310">
    <ele>32.6</ele>
    <time>2019-09-08T07:01:31Z</time>
   </trkpt>
   <trkpt lat="51.2867890" lon="5.8012240">
    <ele>32.6</ele>
    <time>2019-09-08T07:01:32Z</time>
   </trkpt>
   <trkpt lat="51.2868270" lon="5.8013250">
    <ele>32.6</ele>
    <time>2019-09-08T07:01:33Z</time>
   </trkpt>
   <trkpt lat="51.2868620" lon="5.8014340">
    <ele>32.7</ele>
    <time>2019-09-08T07:01:34Z</time>
   </trkpt>
   <trkpt lat="51.2869090" lon="5.8015390">
    <ele>32.7</ele>
    <time>2019-09-08T07:01:35Z</time>
   </trkpt>
   <trkpt lat="51.2869510" lon="5.8016560">
    <ele>32.7</ele>
    <time>2019-09-08T07:01:36Z</time>
   </trkpt>
   <trkpt lat="51.2869850" lon="5.8017650">
    <ele>32.7</ele>
    <time>2019-09-08T07:01:37Z</time>
   </trkpt>
   <trkpt lat="51.2870290" lon="5.8018590">
    <ele>32.7</ele>
    <time>2019-09-08T07:01:38Z</time>
   </trkpt>
   <trkpt lat="51.2870640" lon="5.8019750">
    <ele>32.6</ele>
    <time>2019-09-08T07:01:39Z</time>
   </trkpt>
   <trkpt lat="51.2870970" lon="5.8020760">
    <ele>32.6</ele>
    <time>2019-09-08T07:01:40Z</time>
   </trkpt>
   <trkpt lat="51.2871260" lon="5.8021750">
    <ele>32.6</ele>
    <time>2019-09-08T07:01:41Z</time>
   </trkpt>
   <trkpt lat="51.2871570" lon="5.8022630">
    <ele>32.6</ele>
    <time>2019-09-08T07:01:42Z</time>
   </trkpt>
   <trkpt lat="51.2871910" lon="5.8023580">
    <ele>32.6</ele>
    <time>2019-09-08T07:01:43Z</time>
   </trkpt>
   <trkpt lat="51.2872260" lon="5.8024510">
    <ele>32.6</ele>
    <time>2019-09-08T07:01:44Z</time>
   </trkpt>
   <trkpt lat="51.2872690" lon="5.8025540">
    <ele>32.6</ele>
    <time>2019-09-08T07:01:45Z</time>
   </trkpt>
   <trkpt lat="51.2873000" lon="5.8026460">
    <ele>32.6</ele>
    <time>2019-09-08T07:01:46Z</time>
   </trkpt>
   <trkpt lat="51.2873340" lon="5.8027350">
    <ele>32.6</ele>
    <time>2019-09-08T07:01:47Z</time>
   </trkpt>
   <trkpt lat="51.2873710" lon="5.8028320">
    <ele>32.6</ele>
    <time>2019-09-08T07:01:48Z</time>
   </trkpt>
   <trkpt lat="51.2873980" lon="5.8029300">
    <ele>32.6</ele>
    <time>2019-09-08T07:01:49Z</time>
   </trkpt>
   <trkpt lat="51.2874290" lon="5.8030300">
    <ele>32.6</ele>
    <time>2019-09-08T07:01:50Z</time>
   </trkpt>
   <trkpt lat="51.2874500" lon="5.8031270">
    <ele>32.6</ele>
    <time>2019-09-08T07:01:51Z</time>
   </trkpt>
   <trkpt lat="51.2874870" lon="5.8032240">
    <ele>32.6</ele>
    <time>2019-09-08T07:01:52Z</time>
   </trkpt>
   <trkpt lat="51.2875120" lon="5.8033240">
    <ele>32.7</ele>
    <time>2019-09-08T07:01:53Z</time>
   </trkpt>
   <trkpt lat="51.2875470" lon="5.8034200">
    <ele>32.7</ele>
    <time>2019-09-08T07:01:54Z</time>
   </trkpt>
   <trkpt lat="51.2875800" lon="5.8035190">
    <ele>32.8</ele>
    <time>2019-09-08T07:01:55Z</time>
   </trkpt>
   <trkpt lat="51.2876140" lon="5.8036140">
    <ele>32.9</ele>
    <time>2019-09-08T07:01:56Z</time>
   </trkpt>
   <trkpt lat="51.2876510" lon="5.8037130">
    <ele>33.0</ele>
    <time>2019-09-08T07:01:57Z</time>
   </trkpt>
   <trkpt lat="51.2876850" lon="5.8038030">
    <ele>33.1</ele>
    <time>2019-09-08T07:01:58Z</time>
   </trkpt>
   <trkpt lat="51.2877210" lon="5.8039060">
    <ele>33.3</ele>
    <time>2019-09-08T07:01:59Z</time>
   </trkpt>
   <trkpt lat="51.2877530" lon="5.8040050">
    <ele>33.4</ele>
    <time>2019-09-08T07:02:00Z</time>
   </trkpt>
   <trkpt lat="51.2877800" lon="5.8041090">
    <ele>33.5</ele>
    <time>2019-09-08T07:02:01Z</time>
   </trkpt>
   <trkpt lat="51.2878150" lon="5.8042100">
    <ele>33.7</ele>
    <time>2019-09-08T07:02:02Z</time>
   </trkpt>
   <trkpt lat="51.2878480" lon="5.8043090">
    <ele>33.8</ele>
    <time>2019-09-08T07:02:03Z</time>
   </trkpt>
   <trkpt lat="51.2878840" lon="5.8044070">
    <ele>33.9</ele>
    <time>2019-09-08T07:02:04Z</time>
   </trkpt>
   <trkpt lat="51.2879170" lon="5.8045170">
    <ele>34.1</ele>
    <time>2019-09-08T07:02:05Z</time>
   </trkpt>
   <trkpt lat="51.2879460" lon="5.8046140">
    <ele>34.2</ele>
    <time>2019-09-08T07:02:06Z</time>
   </trkpt>
   <trkpt lat="51.2879780" lon="5.8047070">
    <ele>34.2</ele>
    <time>2019-09-08T07:02:07Z</time>
   </trkpt>
   <trkpt lat="51.2880110" lon="5.8048130">
    <ele>34.3</ele>
    <time>2019-09-08T07:02:08Z</time>
   </trkpt>
   <trkpt lat="51.2880400" lon="5.8049220">
    <ele>34.4</ele>
    <time>2019-09-08T07:02:09Z</time>
   </trkpt>
   <trkpt lat="51.2880730" lon="5.8050200">
    <ele>34.5</ele>
    <time>2019-09-08T07:02:10Z</time>
   </trkpt>
   <trkpt lat="51.2881160" lon="5.8051140">
    <ele>34.5</ele>
    <time>2019-09-08T07:02:11Z</time>
   </trkpt>
   <trkpt lat="51.2881540" lon="5.8052210">
    <ele>34.6</ele>
    <time>2019-09-08T07:02:12Z</time>
   </trkpt>
   <trkpt lat="51.2881890" lon="5.8053050">
    <ele>34.6</ele>
    <time>2019-09-08T07:02:13Z</time>
   </trkpt>
   <trkpt lat="51.2882290" lon="5.8053940">
    <ele>34.7</ele>
    <time>2019-09-08T07:02:14Z</time>
   </trkpt>
   <trkpt lat="51.2882750" lon="5.8054880">
    <ele>34.8</ele>
    <time>2019-09-08T07:02:15Z</time>
   </trkpt>
   <trkpt lat="51.2883030" lon="5.8055840">
    <ele>34.9</ele>
    <time>2019-09-08T07:02:16Z</time>
   </trkpt>
   <trkpt lat="51.2883330" lon="5.8056720">
    <ele>34.9</ele>
    <time>2019-09-08T07:02:17Z</time>
   </trkpt>
   <trkpt lat="51.2883660" lon="5.8057680">
    <ele>34.9</ele>
    <time>2019-09-08T07:02:18Z</time>
   </trkpt>
   <trkpt lat="51.2883940" lon="5.8058710">
    <ele>35.0</ele>
    <time>2019-09-08T07:02:19Z</time>
   </trkpt>
   <trkpt lat="51.2884210" lon="5.8059700">
    <ele>35.0</ele>
    <time>2019-09-08T07:02:20Z</time>
   </trkpt>
   <trkpt lat="51.2884570" lon="5.8060650">
    <ele>34.9</ele>
    <time>2019-09-08T07:02:21Z</time>
   </trkpt>
   <trkpt lat="51.2884850" lon="5.8061660">
    <ele>34.9</ele>
    <time>2019-09-08T07:02:22Z</time>
   </trkpt>
   <trkpt lat="51.2885210" lon="5.8062640">
    <ele>35.0</ele>
    <time>2019-09-08T07:02:23Z</time>
   </trkpt>
   <trkpt lat="51.2885460" lon="5.8063610">
    <ele>35.0</ele>
    <time>2019-09-08T07:02:24Z</time>
   </trkpt>
   <trkpt lat="51.2885830" lon="5.8064630">
    <ele>35.0</ele>
    <time>2019-09-08T07:02:25Z</time>
   </trkpt>
   <trkpt lat="51.2886100" lon="5.8065640">
    <ele>35.0</ele>
    <time>2019-09-08T07:02:26Z</time>
   </trkpt>
   <trkpt lat="51.2886440" lon="5.8066670">
    <ele>35.1</ele>
    <time>2019-09-08T07:02:27Z</time>
   </trkpt>
   <trkpt lat="51.2886840" lon="5.8067750">
    <ele>35.1</ele>
    <time>2019-09-08T07:02:28Z</time>
   </trkpt>
   <trkpt lat="51.2887260" lon="5.8068810">
    <ele>35.2</ele>
    <time>2019-09-08T07:02:29Z</time>
   </trkpt>
   <trkpt lat="51.2887550" lon="5.8069800">
    <ele>35.2</ele>
    <time>2019-09-08T07:02:30Z</time>
   </trkpt>
   <trkpt lat="51.2887880" lon="5.8070690">
    <ele>35.3</ele>
    <time>2019-09-08T07:02:31Z</time>
   </trkpt>
   <trkpt lat="51.2888140" lon="5.8071460">
    <ele>35.4</ele>
    <time>2019-09-08T07:02:32Z</time>
   </trkpt>
   <trkpt lat="51.2888470" lon="5.8072340">
    <ele>35.4</ele>
    <time>2019-09-08T07:02:33Z</time>
   </trkpt>
   <trkpt lat="51.2888870" lon="5.8073260">
    <ele>35.5</ele>
    <time>2019-09-08T07:02:34Z</time>
   </trkpt>
   <trkpt lat="51.2889210" lon="5.8074380">
    <ele>35.6</ele>
    <time>2019-09-08T07:02:35Z</time>
   </trkpt>
   <trkpt lat="51.2889520" lon="5.8075420">
    <ele>35.7</ele>
    <time>2019-09-08T07:02:36Z</time>
   </trkpt>
   <trkpt lat="51.2889790" lon="5.8076480">
    <ele>35.8</ele>
    <time>2019-09-08T07:02:37Z</time>
   </trkpt>
   <trkpt lat="51.2890050" lon="5.8077480">
    <ele>35.9</ele>
    <time>2019-09-08T07:02:38Z</time>
   </trkpt>
   <trkpt lat="51.2890380" lon="5.8078420">
    <ele>36.0</ele>
    <time>2019-09-08T07:02:39Z</time>
   </trkpt>
   <trkpt lat="51.2890660" lon="5.8079470">
    <ele>36.1</ele>
    <time>2019-09-08T07:02:40Z</time>
   </trkpt>
   <trkpt lat="51.2890980" lon="5.8080400">
    <ele>36.2</ele>
    <time>2019-09-08T07:02:41Z</time>
   </trkpt>
   <trkpt lat="51.2891390" lon="5.8081530">
    <ele>36.3</ele>
    <time>2019-09-08T07:02:42Z</time>
   </trkpt>
   <trkpt lat="51.2891730" lon="5.8082400">
    <ele>36.4</ele>
    <time>2019-09-08T07:02:43Z</time>
   </trkpt>
   <trkpt lat="51.2892060" lon="5.8083420">
    <ele>36.5</ele>
    <time>2019-09-08T07:02:44Z</time>
   </trkpt>
   <trkpt lat="51.2892380" lon="5.8084540">
    <ele>36.6</ele>
    <time>2019-09-08T07:02:45Z</time>
   </trkpt>
   <trkpt lat="51.2892720" lon="5.8085510">
    <ele>36.7</ele>
    <time>2019-09-08T07:02:46Z</time>
   </trkpt>
   <trkpt lat="51.2893060" lon="5.8086510">
    <ele>36.9</ele>
    <time>2019-09-08T07:02:47Z</time>
   </trkpt>
   <trkpt lat="51.2893430" lon="5.8087440">
    <ele>37.0</ele>
    <time>2019-09-08T07:02:48Z</time>
   </trkpt>
   <trkpt lat="51.2893790" lon="5.8088400">
    <ele>37.2</ele>
    <time>2019-09-08T07:02:49Z</time>
   </trkpt>
   <trkpt lat="51.2894080" lon="5.8089540">
    <ele>37.4</ele>
    <time>2019-09-08T07:02:50Z</time>
   </trkpt>
   <trkpt lat="51.2894440" lon="5.8090500">
    <ele>37.6</ele>
    <time>2019-09-08T07:02:51Z</time>
   </trkpt>
   <trkpt lat="51.2894660" lon="5.8091390">
    <ele>37.7</ele>
    <time>2019-09-08T07:02:52Z</time>
   </trkpt>
   <trkpt lat="51.2895080" lon="5.8092530">
    <ele>37.9</ele>
    <time>2019-09-08T07:02:53Z</time>
   </trkpt>
   <trkpt lat="51.2895440" lon="5.8093520">
    <ele>38.1</ele>
    <time>2019-09-08T07:02:54Z</time>
   </trkpt>
   <trkpt lat="51.2895830" lon="5.8094540">
    <ele>38.4</ele>
    <time>2019-09-08T07:02:55Z</time>
   </trkpt>
   <trkpt lat="51.2896130" lon="5.8095540">
    <ele>38.6</ele>
    <time>2019-09-08T07:02:56Z</time>
   </trkpt>
   <trkpt lat="51.2896510" lon="5.8096550">
    <ele>38.8</ele>
    <time>2019-09-08T07:02:57Z</time>
   </trkpt>
   <trkpt lat="51.2896820" lon="5.8097510">
    <ele>39.0</ele>
    <time>2019-09-08T07:02:58Z</time>
   </trkpt>
   <trkpt lat="51.2897090" lon="5.8098520">
    <ele>39.2</ele>
    <time>2019-09-08T07:02:59Z</time>
   </trkpt>
   <trkpt lat="51.2897430" lon="5.8099530">
    <ele>39.4</ele>
    <time>2019-09-08T07:03:00Z</time>
   </trkpt>
   <trkpt lat="51.2897810" lon="5.8100640">
    <ele>39.6</ele>
    <time>2019-09-08T07:03:01Z</time>
   </trkpt>
   <trkpt lat="51.2898160" lon="5.8101630">
    <ele>39.8</ele>
    <time>2019-09-08T07:03:02Z</time>
   </trkpt>
   <trkpt lat="51.2898490" lon="5.8102600">
    <ele>39.9</ele>
    <time>2019-09-08T07:03:03Z</time>
   </trkpt>
   <trkpt lat="51.2898810" lon="5.8103560">
    <ele>40.0</ele>
    <time>2019-09-08T07:03:04Z</time>
   </trkpt>
   <trkpt lat="51.2899150" lon="5.8104540">
    <ele>40.1</ele>
    <time>2019-09-08T07:03:05Z</time>
   </trkpt>
   <trkpt lat="51.2899470" lon="5.8105580">
    <ele>40.2</ele>
    <time>2019-09-08T07:03:06Z</time>
   </trkpt>
   <trkpt lat="51.2899800" lon="5.8106550">
    <ele>40.4</ele>
    <time>2019-09-08T07:03:07Z</time>
   </trkpt>
   <trkpt lat="51.2900030" lon="5.8107460">
    <ele>40.5</ele>
    <time>2019-09-08T07:03:08Z</time>
   </trkpt>
   <trkpt lat="51.2900330" lon="5.8108370">
    <ele>40.6</ele>
    <time>2019-09-08T07:03:09Z</time>
   </trkpt>
   <trkpt lat="51.2900690" lon="5.8109540">
    <ele>40.8</ele>
    <time>2019-09-08T07:03:10Z</time>
   </trkpt>
   <trkpt lat="51.2901120" lon="5.8110340">
    <ele>40.9</ele>
    <time>2019-09-08T07:03:11Z</time>
   </trkpt>
   <trkpt lat="51.2901440" lon="5.8111290">
    <ele>41.0</ele>
    <time>2019-09-08T07:03:12Z</time>
   </trkpt>
   <trkpt lat="51.2901910" lon="5.8111980">
    <ele>41.0</ele>
    <time>2019-09-08T07:03:13Z</time>
   </trkpt>
   <trkpt lat="51.2902290" lon="5.8113050">
    <ele>41.1</ele>
    <time>2019-09-08T07:03:14Z</time>
   </trkpt>
   <trkpt lat="51.2902630" lon="5.8114060">
    <ele>41.2</ele>
    <time>2019-09-08T07:03:15Z</time>
   </trkpt>
   <trkpt lat="51.2902840" lon="5.8115120">
    <ele>41.2</ele>
    <time>2019-09-08T07:03:16Z</time>
   </trkpt>
   <trkpt lat="51.2903220" lon="5.8116150">
    <ele>41.3</ele>
    <time>2019-09-08T07:03:17Z</time>
   </trkpt>
   <trkpt lat="51.2903550" lon="5.8117190">
    <ele>41.3</ele>
    <time>2019-09-08T07:03:18Z</time>
   </trkpt>
   <trkpt lat="51.2903990" lon="5.8118190">
    <ele>41.4</ele>
    <time>2019-09-08T07:03:19Z</time>
   </trkpt>
   <trkpt lat="51.2904360" lon="5.8119140">
    <ele>41.4</ele>
    <time>2019-09-08T07:03:20Z</time>
   </trkpt>
   <trkpt lat="51.2904690" lon="5.8120200">
    <ele>41.5</ele>
    <time>2019-09-08T07:03:21Z</time>
   </trkpt>
   <trkpt lat="51.2905050" lon="5.8121190">
    <ele>41.5</ele>
    <time>2019-09-08T07:03:22Z</time>
   </trkpt>
   <trkpt lat="51.2905420" lon="5.8121800">
    <ele>41.5</ele>
    <time>2019-09-08T07:03:23Z</time>
   </trkpt>
   <trkpt lat="51.2905660" lon="5.8122620">
    <ele>41.6</ele>
    <time>2019-09-08T07:03:24Z</time>
   </trkpt>
   <trkpt lat="51.2906000" lon="5.8123590">
    <ele>41.7</ele>
    <time>2019-09-08T07:03:25Z</time>
   </trkpt>
   <trkpt lat="51.2906650" lon="5.8125020">
    <ele>41.9</ele>
    <time>2019-09-08T07:03:26Z</time>
   </trkpt>
   <trkpt lat="51.2906960" lon="5.8125800">
    <ele>42.0</ele>
    <time>2019-09-08T07:03:27Z</time>
   </trkpt>
   <trkpt lat="51.2907360" lon="5.8126700">
    <ele>42.2</ele>
    <time>2019-09-08T07:03:28Z</time>
   </trkpt>
   <trkpt lat="51.2907750" lon="5.8127820">
    <ele>42.5</ele>
    <time>2019-09-08T07:03:30Z</time>
   </trkpt>
   <trkpt lat="51.2908200" lon="5.8129320">
    <ele>42.1</ele>
    <time>2019-09-08T07:03:31Z</time>
   </trkpt>
   <trkpt lat="51.2908560" lon="5.8130340">
    <ele>41.9</ele>
    <time>2019-09-08T07:03:32Z</time>
   </trkpt>
   <trkpt lat="51.2908820" lon="5.8131460">
    <ele>41.6</ele>
    <time>2019-09-08T07:03:33Z</time>
   </trkpt>
   <trkpt lat="51.2909380" lon="5.8132810">
    <ele>41.3</ele>
    <time>2019-09-08T07:03:34Z</time>
   </trkpt>
   <trkpt lat="51.2909650" lon="5.8134020">
    <ele>41.0</ele>
    <time>2019-09-08T07:03:35Z</time>
   </trkpt>
   <trkpt lat="51.2909910" lon="5.8135060">
    <ele>40.8</ele>
    <time>2019-09-08T07:03:36Z</time>
   </trkpt>
   <trkpt lat="51.2909760" lon="5.8136210">
    <ele>40.5</ele>
    <time>2019-09-08T07:03:37Z</time>
   </trkpt>
   <trkpt lat="51.2909910" lon="5.8137230">
    <ele>40.3</ele>
    <time>2019-09-08T07:03:38Z</time>
   </trkpt>
   <trkpt lat="51.2910110" lon="5.8138270">
    <ele>40.1</ele>
    <time>2019-09-08T07:03:39Z</time>
   </trkpt>
   <trkpt lat="51.2910260" lon="5.8139350">
    <ele>39.9</ele>
    <time>2019-09-08T07:03:40Z</time>
   </trkpt>
   <trkpt lat="51.2910270" lon="5.8140480">
    <ele>39.8</ele>
    <time>2019-09-08T07:03:41Z</time>
   </trkpt>
   <trkpt lat="51.2910350" lon="5.8141550">
    <ele>39.6</ele>
    <time>2019-09-08T07:03:42Z</time>
   </trkpt>
   <trkpt lat="51.2910410" lon="5.8142670">
    <ele>39.4</ele>
    <time>2019-09-08T07:03:43Z</time>
   </trkpt>
   <trkpt lat="51.2910530" lon="5.8143750">
    <ele>39.2</ele>
    <time>2019-09-08T07:03:44Z</time>
   </trkpt>
   <trkpt lat="51.2910580" lon="5.8144740">
    <ele>39.1</ele>
    <time>2019-09-08T07:03:45Z</time>
   </trkpt>
   <trkpt lat="51.2910550" lon="5.8145970">
    <ele>38.9</ele>
    <time>2019-09-08T07:03:46Z</time>
   </trkpt>
   <trkpt lat="51.2910830" lon="5.8147230">
    <ele>38.7</ele>
    <time>2019-09-08T07:03:47Z</time>
   </trkpt>
   <trkpt lat="51.2910930" lon="5.8148450">
    <ele>38.5</ele>
    <time>2019-09-08T07:03:48Z</time>
   </trkpt>
   <trkpt lat="51.2911130" lon="5.8149770">
    <ele>38.3</ele>
    <time>2019-09-08T07:03:49Z</time>
   </trkpt>
   <trkpt lat="51.2911230" lon="5.8150600">
    <ele>38.2</ele>
    <time>2019-09-08T07:03:50Z</time>
   </trkpt>
   <trkpt lat="51.2911580" lon="5.8151670">
    <ele>38.0</ele>
    <time>2019-09-08T07:03:51Z</time>
   </trkpt>
   <trkpt lat="51.2911860" lon="5.8152730">
    <ele>37.8</ele>
    <time>2019-09-08T07:03:52Z</time>
   </trkpt>
   <trkpt lat="51.2911950" lon="5.8153710">
    <ele>37.6</ele>
    <time>2019-09-08T07:03:53Z</time>
   </trkpt>
   <trkpt lat="51.2911950" lon="5.8154700">
    <ele>37.5</ele>
    <time>2019-09-08T07:03:54Z</time>
   </trkpt>
   <trkpt lat="51.2911910" lon="5.8155620">
    <ele>37.4</ele>
    <time>2019-09-08T07:03:55Z</time>
   </trkpt>
   <trkpt lat="51.2912150" lon="5.8156390">
    <ele>37.2</ele>
    <time>2019-09-08T07:03:56Z</time>
   </trkpt>
   <trkpt lat="51.2912300" lon="5.8157190">
    <ele>37.1</ele>
    <time>2019-09-08T07:03:57Z</time>
   </trkpt>
   <trkpt lat="51.2912560" lon="5.8158220">
    <ele>37.0</ele>
    <time>2019-09-08T07:03:58Z</time>
   </trkpt>
   <trkpt lat="51.2912720" lon="5.8159070">
    <ele>36.9</ele>
    <time>2019-09-08T07:03:59Z</time>
   </trkpt>
   <trkpt lat="51.2912980" lon="5.8160320">
    <ele>36.7</ele>
    <time>2019-09-08T07:04:00Z</time>
   </trkpt>
   <trkpt lat="51.2913100" lon="5.8161310">
    <ele>36.6</ele>
    <time>2019-09-08T07:04:01Z</time>
   </trkpt>
   <trkpt lat="51.2913400" lon="5.8162420">
    <ele>36.5</ele>
    <time>2019-09-08T07:04:02Z</time>
   </trkpt>
   <trkpt lat="51.2913650" lon="5.8163410">
    <ele>36.4</ele>
    <time>2019-09-08T07:04:03Z</time>
   </trkpt>
   <trkpt lat="51.2913850" lon="5.8164410">
    <ele>36.2</ele>
    <time>2019-09-08T07:04:04Z</time>
   </trkpt>
   <trkpt lat="51.2914220" lon="5.8165320">
    <ele>36.1</ele>
    <time>2019-09-08T07:04:05Z</time>
   </trkpt>
   <trkpt lat="51.2914540" lon="5.8166310">
    <ele>36.0</ele>
    <time>2019-09-08T07:04:06Z</time>
   </trkpt>
   <trkpt lat="51.2914900" lon="5.8167390">
    <ele>35.9</ele>
    <time>2019-09-08T07:04:07Z</time>
   </trkpt>
   <trkpt lat="51.2915370" lon="5.8168460">
    <ele>35.8</ele>
    <time>2019-09-08T07:04:08Z</time>
   </trkpt>
   <trkpt lat="51.2915780" lon="5.8169290">
    <ele>35.6</ele>
    <time>2019-09-08T07:04:09Z</time>
   </trkpt>
   <trkpt lat="51.2916010" lon="5.8170260">
    <ele>35.5</ele>
    <time>2019-09-08T07:04:10Z</time>
   </trkpt>
   <trkpt lat="51.2916330" lon="5.8171130">
    <ele>35.4</ele>
    <time>2019-09-08T07:04:11Z</time>
   </trkpt>
   <trkpt lat="51.2916730" lon="5.8171990">
    <ele>35.3</ele>
    <time>2019-09-08T07:04:12Z</time>
   </trkpt>
   <trkpt lat="51.2916890" lon="5.8172910">
    <ele>35.2</ele>
    <time>2019-09-08T07:04:13Z</time>
   </trkpt>
   <trkpt lat="51.2917160" lon="5.8173910">
    <ele>35.0</ele>
    <time>2019-09-08T07:04:14Z</time>
   </trkpt>
   <trkpt lat="51.2917400" lon="5.8174820">
    <ele>34.9</ele>
    <time>2019-09-08T07:04:15Z</time>
   </trkpt>
   <trkpt lat="51.2917640" lon="5.8175820">
    <ele>34.8</ele>
    <time>2019-09-08T07:04:16Z</time>
   </trkpt>
   <trkpt lat="51.2917970" lon="5.8176750">
    <ele>34.7</ele>
    <time>2019-09-08T07:04:17Z</time>
   </trkpt>
   <trkpt lat="51.2918230" lon="5.8177510">
    <ele>34.6</ele>
    <time>2019-09-08T07:04:18Z</time>
   </trkpt>
   <trkpt lat="51.2918630" lon="5.8178560">
    <ele>34.5</ele>
    <time>2019-09-08T07:04:19Z</time>
   </trkpt>
   <trkpt lat="51.2918910" lon="5.8179620">
    <ele>34.3</ele>
    <time>2019-09-08T07:04:20Z</time>
   </trkpt>
   <trkpt lat="51.2919460" lon="5.8180790">
    <ele>34.2</ele>
    <time>2019-09-08T07:04:21Z</time>
   </trkpt>
   <trkpt lat="51.2919910" lon="5.8181740">
    <ele>34.1</ele>
    <time>2019-09-08T07:04:22Z</time>
   </trkpt>
   <trkpt lat="51.2920320" lon="5.8182860">
    <ele>34.1</ele>
    <time>2019-09-08T07:04:23Z</time>
   </trkpt>
   <trkpt lat="51.2920690" lon="5.8183710">
    <ele>34.1</ele>
    <time>2019-09-08T07:04:24Z</time>
   </trkpt>
   <trkpt lat="51.2920980" lon="5.8184710">
    <ele>34.1</ele>
    <time>2019-09-08T07:04:25Z</time>
   </trkpt>
   <trkpt lat="51.2921120" lon="5.8186050">
    <ele>34.2</ele>
    <time>2019-09-08T07:04:26Z</time>
   </trkpt>
   <trkpt lat="51.2921460" lon="5.8187190">
    <ele>34.2</ele>
    <time>2019-09-08T07:04:27Z</time>
   </trkpt>
   <trkpt lat="51.2921760" lon="5.8188120">
    <ele>34.3</ele>
    <time>2019-09-08T07:04:28Z</time>
   </trkpt>
   <trkpt lat="51.2922040" lon="5.8189060">
    <ele>34.3</ele>
    <time>2019-09-08T07:04:29Z</time>
   </trkpt>
   <trkpt lat="51.2922430" lon="5.8189960">
    <ele>34.4</ele>
    <time>2019-09-08T07:04:30Z</time>
   </trkpt>
   <trkpt lat="51.2922830" lon="5.8191010">
    <ele>34.4</ele>
    <time>2019-09-08T07:04:31Z</time>
   </trkpt>
   <trkpt lat="51.2923040" lon="5.8192060">
    <ele>34.5</ele>
    <time>2019-09-08T07:04:32Z</time>
   </trkpt>
   <trkpt lat="51.2923360" lon="5.8192990">
    <ele>34.5</ele>
    <time>2019-09-08T07:04:33Z</time>
   </trkpt>
   <trkpt lat="51.2923800" lon="5.8193900">
    <ele>34.5</ele>
    <time>2019-09-08T07:04:34Z</time>
   </trkpt>
   <trkpt lat="51.2924270" lon="5.8194820">
    <ele>34.5</ele>
    <time>2019-09-08T07:04:35Z</time>
   </trkpt>
   <trkpt lat="51.2924750" lon="5.8195750">
    <ele>34.4</ele>
    <time>2019-09-08T07:04:36Z</time>
   </trkpt>
   <trkpt lat="51.2925340" lon="5.8196880">
    <ele>34.3</ele>
    <time>2019-09-08T07:04:37Z</time>
   </trkpt>
   <trkpt lat="51.2925720" lon="5.8197560">
    <ele>34.2</ele>
    <time>2019-09-08T07:04:38Z</time>
   </trkpt>
   <trkpt lat="51.2926060" lon="5.8198550">
    <ele>34.1</ele>
    <time>2019-09-08T07:04:39Z</time>
   </trkpt>
   <trkpt lat="51.2926510" lon="5.8199450">
    <ele>34.0</ele>
    <time>2019-09-08T07:04:40Z</time>
   </trkpt>
   <trkpt lat="51.2926520" lon="5.8200380">
    <ele>33.9</ele>
    <time>2019-09-08T07:04:41Z</time>
   </trkpt>
   <trkpt lat="51.2926960" lon="5.8201360">
    <ele>33.8</ele>
    <time>2019-09-08T07:04:42Z</time>
   </trkpt>
   <trkpt lat="51.2927270" lon="5.8202620">
    <ele>33.8</ele>
    <time>2019-09-08T07:04:43Z</time>
   </trkpt>
   <trkpt lat="51.2927490" lon="5.8203750">
    <ele>33.9</ele>
    <time>2019-09-08T07:04:44Z</time>
   </trkpt>
   <trkpt lat="51.2927870" lon="5.8204880">
    <ele>33.9</ele>
    <time>2019-09-08T07:04:45Z</time>
   </trkpt>
   <trkpt lat="51.2928310" lon="5.8205900">
    <ele>33.9</ele>
    <time>2019-09-08T07:04:46Z</time>
   </trkpt>
   <trkpt lat="51.2928840" lon="5.8206810">
    <ele>34.0</ele>
    <time>2019-09-08T07:04:47Z</time>
   </trkpt>
   <trkpt lat="51.2928990" lon="5.8207910">
    <ele>34.0</ele>
    <time>2019-09-08T07:04:48Z</time>
   </trkpt>
   <trkpt lat="51.2929350" lon="5.8208870">
    <ele>34.1</ele>
    <time>2019-09-08T07:04:49Z</time>
   </trkpt>
   <trkpt lat="51.2929610" lon="5.8209810">
    <ele>34.1</ele>
    <time>2019-09-08T07:04:50Z</time>
   </trkpt>
   <trkpt lat="51.2929850" lon="5.8210810">
    <ele>34.2</ele>
    <time>2019-09-08T07:04:51Z</time>
   </trkpt>
   <trkpt lat="51.2929850" lon="5.8211930">
    <ele>34.2</ele>
    <time>2019-09-08T07:04:52Z</time>
   </trkpt>
   <trkpt lat="51.2930210" lon="5.8212870">
    <ele>34.2</ele>
    <time>2019-09-08T07:04:53Z</time>
   </trkpt>
   <trkpt lat="51.2930690" lon="5.8213980">
    <ele>34.3</ele>
    <time>2019-09-08T07:04:54Z</time>
   </trkpt>
   <trkpt lat="51.2931130" lon="5.8214990">
    <ele>34.3</ele>
    <time>2019-09-08T07:04:55Z</time>
   </trkpt>
   <trkpt lat="51.2931510" lon="5.8215940">
    <ele>34.3</ele>
    <time>2019-09-08T07:04:56Z</time>
   </trkpt>
   <trkpt lat="51.2932050" lon="5.8217330">
    <ele>34.2</ele>
    <time>2019-09-08T07:04:57Z</time>
   </trkpt>
   <trkpt lat="51.2932490" lon="5.8218290">
    <ele>34.2</ele>
    <time>2019-09-08T07:04:58Z</time>
   </trkpt>
   <trkpt lat="51.2932840" lon="5.8219120">
    <ele>34.1</ele>
    <time>2019-09-08T07:04:59Z</time>
   </trkpt>
   <trkpt lat="51.2933180" lon="5.8219940">
    <ele>34.1</ele>
    <time>2019-09-08T07:05:00Z</time>
   </trkpt>
   <trkpt lat="51.2933510" lon="5.8220790">
    <ele>34.0</ele>
    <time>2019-09-08T07:05:01Z</time>
   </trkpt>
   <trkpt lat="51.2933740" lon="5.8221800">
    <ele>34.0</ele>
    <time>2019-09-08T07:05:02Z</time>
   </trkpt>
   <trkpt lat="51.2934100" lon="5.8222740">
    <ele>34.0</ele>
    <time>2019-09-08T07:05:03Z</time>
   </trkpt>
   <trkpt lat="51.2934530" lon="5.8224010">
    <ele>34.0</ele>
    <time>2019-09-08T07:05:04Z</time>
   </trkpt>
   <trkpt lat="51.2934840" lon="5.8225120">
    <ele>34.0</ele>
    <time>2019-09-08T07:05:05Z</time>
   </trkpt>
   <trkpt lat="51.2935230" lon="5.8226100">
    <ele>34.0</ele>
    <time>2019-09-08T07:05:06Z</time>
   </trkpt>
   <trkpt lat="51.2935600" lon="5.8227110">
    <ele>34.0</ele>
    <time>2019-09-08T07:05:07Z</time>
   </trkpt>
   <trkpt lat="51.2935970" lon="5.8228190">
    <ele>34.0</ele>
    <time>2019-09-08T07:05:08Z</time>
   </trkpt>
   <trkpt lat="51.2936280" lon="5.8229130">
    <ele>33.9</ele>
    <time>2019-09-08T07:05:09Z</time>
   </trkpt>
   <trkpt lat="51.2936570" lon="5.8230120">
    <ele>33.9</ele>
    <time>2019-09-08T07:05:10Z</time>
   </trkpt>
   <trkpt lat="51.2936870" lon="5.8231100">
    <ele>33.8</ele>
    <time>2019-09-08T07:05:11Z</time>
   </trkpt>
   <trkpt lat="51.2937220" lon="5.8231870">
    <ele>33.7</ele>
    <time>2019-09-08T07:05:12Z</time>
   </trkpt>
   <trkpt lat="51.2937540" lon="5.8232790">
    <ele>33.6</ele>
    <time>2019-09-08T07:05:13Z</time>
   </trkpt>
   <trkpt lat="51.2937920" lon="5.8233860">
    <ele>33.6</ele>
    <time>2019-09-08T07:05:14Z</time>
   </trkpt>
   <trkpt lat="51.2938260" lon="5.8234960">
    <ele>33.6</ele>
    <time>2019-09-08T07:05:15Z</time>
   </trkpt>
   <trkpt lat="51.2938720" lon="5.8235960">
    <ele>33.5</ele>
    <time>2019-09-08T07:05:16Z</time>
   </trkpt>
   <trkpt lat="51.2939110" lon="5.8236980">
    <ele>33.5</ele>
    <time>2019-09-08T07:05:17Z</time>
   </trkpt>
   <trkpt lat="51.2939360" lon="5.8237760">
    <ele>33.5</ele>
    <time>2019-09-08T07:05:18Z</time>
   </trkpt>
   <trkpt lat="51.2939720" lon="5.8238750">
    <ele>33.5</ele>
    <time>2019-09-08T07:05:19Z</time>
   </trkpt>
   <trkpt lat="51.2940040" lon="5.8239730">
    <ele>33.5</ele>
    <time>2019-09-08T07:05:20Z</time>
   </trkpt>
   <trkpt lat="51.2940410" lon="5.8240710">
    <ele>33.4</ele>
    <time>2019-09-08T07:05:21Z</time>
   </trkpt>
   <trkpt lat="51.2940740" lon="5.8241740">
    <ele>33.4</ele>
    <time>2019-09-08T07:05:22Z</time>
   </trkpt>
   <trkpt lat="51.2941020" lon="5.8242870">
    <ele>33.5</ele>
    <time>2019-09-08T07:05:23Z</time>
   </trkpt>
   <trkpt lat="51.2941380" lon="5.8244000">
    <ele>33.6</ele>
    <time>2019-09-08T07:05:24Z</time>
   </trkpt>
   <trkpt lat="51.2941700" lon="5.8244990">
    <ele>33.7</ele>
    <time>2019-09-08T07:05:25Z</time>
   </trkpt>
   <trkpt lat="51.2942070" lon="5.8246050">
    <ele>33.8</ele>
    <time>2019-09-08T07:05:26Z</time>
   </trkpt>
   <trkpt lat="51.2942360" lon="5.8246970">
    <ele>34.0</ele>
    <time>2019-09-08T07:05:27Z</time>
   </trkpt>
   <trkpt lat="51.2942740" lon="5.8247950">
    <ele>34.1</ele>
    <time>2019-09-08T07:05:28Z</time>
   </trkpt>
   <trkpt lat="51.2943090" lon="5.8248780">
    <ele>34.2</ele>
    <time>2019-09-08T07:05:29Z</time>
   </trkpt>
   <trkpt lat="51.2943500" lon="5.8249710">
    <ele>34.3</ele>
    <time>2019-09-08T07:05:30Z</time>
   </trkpt>
   <trkpt lat="51.2943790" lon="5.8250740">
    <ele>34.3</ele>
    <time>2019-09-08T07:05:31Z</time>
   </trkpt>
   <trkpt lat="51.2944140" lon="5.8251710">
    <ele>34.3</ele>
    <time>2019-09-08T07:05:32Z</time>
   </trkpt>
   <trkpt lat="51.2944460" lon="5.8252650">
    <ele>34.3</ele>
    <time>2019-09-08T07:05:33Z</time>
   </trkpt>
   <trkpt lat="51.2944830" lon="5.8253900">
    <ele>34.2</ele>
    <time>2019-09-08T07:05:34Z</time>
   </trkpt>
   <trkpt lat="51.2945160" lon="5.8254790">
    <ele>34.1</ele>
    <time>2019-09-08T07:05:35Z</time>
   </trkpt>
   <trkpt lat="51.2945630" lon="5.8255910">
    <ele>34.0</ele>
    <time>2019-09-08T07:05:36Z</time>
   </trkpt>
   <trkpt lat="51.2946030" lon="5.8256920">
    <ele>34.0</ele>
    <time>2019-09-08T07:05:37Z</time>
   </trkpt>
   <trkpt lat="51.2946440" lon="5.8257920">
    <ele>34.0</ele>
    <time>2019-09-08T07:05:38Z</time>
   </trkpt>
   <trkpt lat="51.2946720" lon="5.8258740">
    <ele>34.0</ele>
    <time>2019-09-08T07:05:39Z</time>
   </trkpt>
   <trkpt lat="51.2947150" lon="5.8259850">
    <ele>34.0</ele>
    <time>2019-09-08T07:05:40Z</time>
   </trkpt>
   <trkpt lat="51.2947470" lon="5.8260810">
    <ele>34.1</ele>
    <time>2019-09-08T07:05:41Z</time>
   </trkpt>
   <trkpt lat="51.2947790" lon="5.8261640">
    <ele>34.1</ele>
    <time>2019-09-08T07:05:42Z</time>
   </trkpt>
   <trkpt lat="51.2948170" lon="5.8262670">
    <ele>34.2</ele>
    <time>2019-09-08T07:05:43Z</time>
   </trkpt>
   <trkpt lat="51.2948490" lon="5.8263700">
    <ele>34.3</ele>
    <time>2019-09-08T07:05:44Z</time>
   </trkpt>
   <trkpt lat="51.2948820" lon="5.8264930">
    <ele>34.3</ele>
    <time>2019-09-08T07:05:45Z</time>
   </trkpt>
   <trkpt lat="51.2949120" lon="5.8265870">
    <ele>34.4</ele>
    <time>2019-09-08T07:05:46Z</time>
   </trkpt>
   <trkpt lat="51.2949490" lon="5.8267210">
    <ele>34.4</ele>
    <time>2019-09-08T07:05:47Z</time>
   </trkpt>
   <trkpt lat="51.2949900" lon="5.8268560">
    <ele>34.5</ele>
    <time>2019-09-08T07:05:48Z</time>
   </trkpt>
   <trkpt lat="51.2950350" lon="5.8269830">
    <ele>34.5</ele>
    <time>2019-09-08T07:05:49Z</time>
   </trkpt>
   <trkpt lat="51.2950800" lon="5.8270900">
    <ele>34.6</ele>
    <time>2019-09-08T07:05:50Z</time>
   </trkpt>
   <trkpt lat="51.2950960" lon="5.8271790">
    <ele>34.6</ele>
    <time>2019-09-08T07:05:51Z</time>
   </trkpt>
   <trkpt lat="51.2951250" lon="5.8272640">
    <ele>34.6</ele>
    <time>2019-09-08T07:05:52Z</time>
   </trkpt>
   <trkpt lat="51.2951670" lon="5.8273370">
    <ele>34.6</ele>
    <time>2019-09-08T07:05:53Z</time>
   </trkpt>
   <trkpt lat="51.2951960" lon="5.8274190">
    <ele>34.6</ele>
    <time>2019-09-08T07:05:54Z</time>
   </trkpt>
   <trkpt lat="51.2952370" lon="5.8275070">
    <ele>34.6</ele>
    <time>2019-09-08T07:05:55Z</time>
   </trkpt>
   <trkpt lat="51.2952630" lon="5.8275960">
    <ele>34.6</ele>
    <time>2019-09-08T07:05:56Z</time>
   </trkpt>
   <trkpt lat="51.2952970" lon="5.8276910">
    <ele>34.6</ele>
    <time>2019-09-08T07:05:57Z</time>
   </trkpt>
   <trkpt lat="51.2953290" lon="5.8277930">
    <ele>34.5</ele>
    <time>2019-09-08T07:05:58Z</time>
   </trkpt>
   <trkpt lat="51.2953600" lon="5.8278880">
    <ele>34.5</ele>
    <time>2019-09-08T07:05:59Z</time>
   </trkpt>
   <trkpt lat="51.2953960" lon="5.8279890">
    <ele>34.5</ele>
    <time>2019-09-08T07:06:00Z</time>
   </trkpt>
   <trkpt lat="51.2954290" lon="5.8280880">
    <ele>34.5</ele>
    <time>2019-09-08T07:06:01Z</time>
   </trkpt>
   <trkpt lat="51.2954620" lon="5.8281900">
    <ele>34.5</ele>
    <time>2019-09-08T07:06:02Z</time>
   </trkpt>
   <trkpt lat="51.2954780" lon="5.8282800">
    <ele>34.6</ele>
    <time>2019-09-08T07:06:03Z</time>
   </trkpt>
   <trkpt lat="51.2955050" lon="5.8283630">
    <ele>34.6</ele>
    <time>2019-09-08T07:06:04Z</time>
   </trkpt>
   <trkpt lat="51.2955400" lon="5.8284590">
    <ele>34.7</ele>
    <time>2019-09-08T07:06:05Z</time>
   </trkpt>
   <trkpt lat="51.2955770" lon="5.8285510">
    <ele>34.7</ele>
    <time>2019-09-08T07:06:06Z</time>
   </trkpt>
   <trkpt lat="51.2956060" lon="5.8286490">
    <ele>34.7</ele>
    <time>2019-09-08T07:06:07Z</time>
   </trkpt>
   <trkpt lat="51.2956360" lon="5.8287700">
    <ele>34.7</ele>
    <time>2019-09-08T07:06:08Z</time>
   </trkpt>
   <trkpt lat="51.2956740" lon="5.8288570">
    <ele>34.7</ele>
    <time>2019-09-08T07:06:09Z</time>
   </trkpt>
   <trkpt lat="51.2957160" lon="5.8289500">
    <ele>34.7</ele>
    <time>2019-09-08T07:06:10Z</time>
   </trkpt>
   <trkpt lat="51.2957500" lon="5.8290470">
    <ele>34.7</ele>
    <time>2019-09-08T07:06:11Z</time>
   </trkpt>
   <trkpt lat="51.2957980" lon="5.8291790">
    <ele>34.7</ele>
    <time>2019-09-08T07:06:12Z</time>
   </trkpt>
   <trkpt lat="51.2958220" lon="5.8292440">
    <ele>34.7</ele>
    <time>2019-09-08T07:06:13Z</time>
   </trkpt>
   <trkpt lat="51.2958570" lon="5.8293480">
    <ele>34.7</ele>
    <time>2019-09-08T07:06:14Z</time>
   </trkpt>
   <trkpt lat="51.2959030" lon="5.8294640">
    <ele>34.8</ele>
    <time>2019-09-08T07:06:15Z</time>
   </trkpt>
   <trkpt lat="51.2959400" lon="5.8295970">
    <ele>34.9</ele>
    <time>2019-09-08T07:06:16Z</time>
   </trkpt>
   <trkpt lat="51.2959780" lon="5.8296800">
    <ele>35.0</ele>
    <time>2019-09-08T07:06:17Z</time>
   </trkpt>
   <trkpt lat="51.2960200" lon="5.8297820">
    <ele>35.1</ele>
    <time>2019-09-08T07:06:18Z</time>
   </trkpt>
   <trkpt lat="51.2960540" lon="5.8298940">
    <ele>35.1</ele>
    <time>2019-09-08T07:06:19Z</time>
   </trkpt>
   <trkpt lat="51.2960830" lon="5.8299770">
    <ele>35.1</ele>
    <time>2019-09-08T07:06:20Z</time>
   </trkpt>
   <trkpt lat="51.2961200" lon="5.8300770">
    <ele>35.1</ele>
    <time>2019-09-08T07:06:21Z</time>
   </trkpt>
   <trkpt lat="51.2961560" lon="5.8301950">
    <ele>35.1</ele>
    <time>2019-09-08T07:06:22Z</time>
   </trkpt>
   <trkpt lat="51.2961960" lon="5.8302890">
    <ele>35.1</ele>
    <time>2019-09-08T07:06:23Z</time>
   </trkpt>
   <trkpt lat="51.2962380" lon="5.8303920">
    <ele>35.1</ele>
    <time>2019-09-08T07:06:24Z</time>
   </trkpt>
   <trkpt lat="51.2962800" lon="5.8304690">
    <ele>35.1</ele>
    <time>2019-09-08T07:06:25Z</time>
   </trkpt>
   <trkpt lat="51.2963090" lon="5.8305580">
    <ele>35.1</ele>
    <time>2019-09-08T07:06:26Z</time>
   </trkpt>
   <trkpt lat="51.2963570" lon="5.8306400">
    <ele>35.1</ele>
    <time>2019-09-08T07:06:27Z</time>
   </trkpt>
   <trkpt lat="51.2963950" lon="5.8307250">
    <ele>35.1</ele>
    <time>2019-09-08T07:06:28Z</time>
   </trkpt>
   <trkpt lat="51.2964280" lon="5.8308610">
    <ele>35.1</ele>
    <time>2019-09-08T07:06:29Z</time>
   </trkpt>
   <trkpt lat="51.2964650" lon="5.8309620">
    <ele>35.1</ele>
    <time>2019-09-08T07:06:30Z</time>
   </trkpt>
   <trkpt lat="51.2964430" lon="5.8309960">
    <ele>35.1</ele>
    <time>2019-09-08T07:06:31Z</time>
   </trkpt>
   <trkpt lat="51.2964850" lon="5.8310760">
    <ele>35.1</ele>
    <time>2019-09-08T07:06:32Z</time>
   </trkpt>
   <trkpt lat="51.2965620" lon="5.8311160">
    <ele>35.1</ele>
    <time>2019-09-08T07:06:33Z</time>
   </trkpt>
   <trkpt lat="51.2966270" lon="5.8311690">
    <ele>35.1</ele>
    <time>2019-09-08T07:06:34Z</time>
   </trkpt>
   <trkpt lat="51.2966990" lon="5.8311090">
    <ele>35.1</ele>
    <time>2019-09-08T07:06:35Z</time>
   </trkpt>
   <trkpt lat="51.2967710" lon="5.8310570">
    <ele>35.2</ele>
    <time>2019-09-08T07:06:36Z</time>
   </trkpt>
   <trkpt lat="51.2968350" lon="5.8310100">
    <ele>35.2</ele>
    <time>2019-09-08T07:06:37Z</time>
   </trkpt>
   <trkpt lat="51.2969010" lon="5.8309530">
    <ele>35.2</ele>
    <time>2019-09-08T07:06:38Z</time>
   </trkpt>
   <trkpt lat="51.2969710" lon="5.8308960">
    <ele>35.2</ele>
    <time>2019-09-08T07:06:39Z</time>
   </trkpt>
   <trkpt lat="51.2970310" lon="5.8308380">
    <ele>35.3</ele>
    <time>2019-09-08T07:06:40Z</time>
   </trkpt>
   <trkpt lat="51.2970990" lon="5.8307920">
    <ele>35.3</ele>
    <time>2019-09-08T07:06:41Z</time>
   </trkpt>
   <trkpt lat="51.2971690" lon="5.8307430">
    <ele>35.3</ele>
    <time>2019-09-08T07:06:42Z</time>
   </trkpt>
   <trkpt lat="51.2972370" lon="5.8306830">
    <ele>35.4</ele>
    <time>2019-09-08T07:06:43Z</time>
   </trkpt>
   <trkpt lat="51.2973100" lon="5.8306390">
    <ele>35.4</ele>
    <time>2019-09-08T07:06:44Z</time>
   </trkpt>
   <trkpt lat="51.2973700" lon="5.8305880">
    <ele>35.4</ele>
    <time>2019-09-08T07:06:45Z</time>
   </trkpt>
   <trkpt lat="51.2974300" lon="5.8305350">
    <ele>35.4</ele>
    <time>2019-09-08T07:06:46Z</time>
   </trkpt>
   <trkpt lat="51.2974930" lon="5.8304880">
    <ele>35.5</ele>
    <time>2019-09-08T07:06:47Z</time>
   </trkpt>
   <trkpt lat="51.2975530" lon="5.8304290">
    <ele>35.5</ele>
    <time>2019-09-08T07:06:48Z</time>
   </trkpt>
   <trkpt lat="51.2976150" lon="5.8303750">
    <ele>35.5</ele>
    <time>2019-09-08T07:06:49Z</time>
   </trkpt>
   <trkpt lat="51.2976840" lon="5.8303210">
    <ele>35.6</ele>
    <time>2019-09-08T07:06:50Z</time>
   </trkpt>
   <trkpt lat="51.2977470" lon="5.8302660">
    <ele>35.6</ele>
    <time>2019-09-08T07:06:51Z</time>
   </trkpt>
   <trkpt lat="51.2978070" lon="5.8302140">
    <ele>35.7</ele>
    <time>2019-09-08T07:06:52Z</time>
   </trkpt>
   <trkpt lat="51.2978780" lon="5.8301500">
    <ele>35.7</ele>
    <time>2019-09-08T07:06:53Z</time>
   </trkpt>
   <trkpt lat="51.2979430" lon="5.8300990">
    <ele>35.7</ele>
    <time>2019-09-08T07:06:54Z</time>
   </trkpt>
   <trkpt lat="51.2980030" lon="5.8300470">
    <ele>35.8</ele>
    <time>2019-09-08T07:06:55Z</time>
   </trkpt>
   <trkpt lat="51.2980750" lon="5.8299930">
    <ele>35.8</ele>
    <time>2019-09-08T07:06:56Z</time>
   </trkpt>
   <trkpt lat="51.2981400" lon="5.8299380">
    <ele>35.9</ele>
    <time>2019-09-08T07:06:57Z</time>
   </trkpt>
   <trkpt lat="51.2982060" lon="5.8298720">
    <ele>35.9</ele>
    <time>2019-09-08T07:06:58Z</time>
   </trkpt>
   <trkpt lat="51.2982910" lon="5.8298310">
    <ele>36.0</ele>
    <time>2019-09-08T07:06:59Z</time>
   </trkpt>
   <trkpt lat="51.2983520" lon="5.8297760">
    <ele>36.0</ele>
    <time>2019-09-08T07:07:00Z</time>
   </trkpt>
   <trkpt lat="51.2984130" lon="5.8297290">
    <ele>36.0</ele>
    <time>2019-09-08T07:07:01Z</time>
   </trkpt>
   <trkpt lat="51.2984680" lon="5.8296810">
    <ele>36.0</ele>
    <time>2019-09-08T07:07:02Z</time>
   </trkpt>
   <trkpt lat="51.2985280" lon="5.8296310">
    <ele>36.1</ele>
    <time>2019-09-08T07:07:03Z</time>
   </trkpt>
   <trkpt lat="51.2985740" lon="5.8295820">
    <ele>36.1</ele>
    <time>2019-09-08T07:07:04Z</time>
   </trkpt>
   <trkpt lat="51.2986170" lon="5.8295410">
    <ele>36.1</ele>
    <time>2019-09-08T07:07:05Z</time>
   </trkpt>
   <trkpt lat="51.2986570" lon="5.8295250">
    <ele>36.1</ele>
    <time>2019-09-08T07:07:07Z</time>
   </trkpt>
   <trkpt lat="51.2986930" lon="5.8295530">
    <ele>36.2</ele>
    <time>2019-09-08T07:07:09Z</time>
   </trkpt>
   <trkpt lat="51.2987250" lon="5.8296110">
    <ele>36.2</ele>
    <time>2019-09-08T07:07:11Z</time>
   </trkpt>
   <trkpt lat="51.2987410" lon="5.8296910">
    <ele>36.2</ele>
    <time>2019-09-08T07:07:12Z</time>
   </trkpt>
   <trkpt lat="51.2987510" lon="5.8297340">
    <ele>36.2</ele>
    <time>2019-09-08T07:07:13Z</time>
   </trkpt>
   <trkpt lat="51.2987630" lon="5.8297820">
    <ele>36.2</ele>
    <time>2019-09-08T07:07:16Z</time>
   </trkpt>
   <trkpt lat="51.2987370" lon="5.8298020">
    <ele>36.3</ele>
    <time>2019-09-08T07:07:22Z</time>
   </trkpt>
   <trkpt lat="51.2987040" lon="5.8297820">
    <ele>36.3</ele>
    <time>2019-09-08T07:07:32Z</time>
   </trkpt>
   <trkpt lat="51.2986640" lon="5.8297380">
    <ele>36.3</ele>
    <time>2019-09-08T07:07:34Z</time>
   </trkpt>
   <trkpt lat="51.2986370" lon="5.8297130">
    <ele>36.3</ele>
    <time>2019-09-08T07:07:35Z</time>
   </trkpt>
   <trkpt lat="51.2986190" lon="5.8296800">
    <ele>36.3</ele>
    <time>2019-09-08T07:07:36Z</time>
   </trkpt>
   <trkpt lat="51.2986140" lon="5.8296330">
    <ele>36.4</ele>
    <time>2019-09-08T07:07:37Z</time>
   </trkpt>
   <trkpt lat="51.2986240" lon="5.8295900">
    <ele>36.4</ele>
    <time>2019-09-08T07:07:38Z</time>
   </trkpt>
   <trkpt lat="51.2986420" lon="5.8295530">
    <ele>36.4</ele>
    <time>2019-09-08T07:07:39Z</time>
   </trkpt>
   <trkpt lat="51.2986720" lon="5.8295190">
    <ele>36.4</ele>
    <time>2019-09-08T07:07:40Z</time>
   </trkpt>
   <trkpt lat="51.2987060" lon="5.8294890">
    <ele>36.4</ele>
    <time>2019-09-08T07:07:41Z</time>
   </trkpt>
   <trkpt lat="51.2987450" lon="5.8294500">
    <ele>36.4</ele>
    <time>2019-09-08T07:07:42Z</time>
   </trkpt>
   <trkpt lat="51.2987910" lon="5.8294100">
    <ele>36.4</ele>
    <time>2019-09-08T07:07:43Z</time>
   </trkpt>
   <trkpt lat="51.2988370" lon="5.8293780">
    <ele>36.3</ele>
    <time>2019-09-08T07:07:44Z</time>
   </trkpt>
   <trkpt lat="51.2988890" lon="5.8293650">
    <ele>36.3</ele>
    <time>2019-09-08T07:07:45Z</time>
   </trkpt>
   <trkpt lat="51.2989420" lon="5.8293750">
    <ele>36.3</ele>
    <time>2019-09-08T07:07:46Z</time>
   </trkpt>
   <trkpt lat="51.2990600" lon="5.8294530">
    <ele>36.3</ele>
    <time>2019-09-08T07:07:47Z</time>
   </trkpt>
   <trkpt lat="51.2991050" lon="5.8295010">
    <ele>36.3</ele>
    <time>2019-09-08T07:07:48Z</time>
   </trkpt>
   <trkpt lat="51.2991120" lon="5.8295730">
    <ele>36.3</ele>
    <time>2019-09-08T07:07:49Z</time>
   </trkpt>
   <trkpt lat="51.2991500" lon="5.8296530">
    <ele>36.3</ele>
    <time>2019-09-08T07:07:50Z</time>
   </trkpt>
   <trkpt lat="51.2991750" lon="5.8297240">
    <ele>36.3</ele>
    <time>2019-09-08T07:07:51Z</time>
   </trkpt>
   <trkpt lat="51.2992200" lon="5.8298140">
    <ele>36.3</ele>
    <time>2019-09-08T07:07:52Z</time>
   </trkpt>
   <trkpt lat="51.2992390" lon="5.8298900">
    <ele>36.3</ele>
    <time>2019-09-08T07:07:53Z</time>
   </trkpt>
   <trkpt lat="51.2993030" lon="5.8299820">
    <ele>36.3</ele>
    <time>2019-09-08T07:07:54Z</time>
   </trkpt>
   <trkpt lat="51.2993450" lon="5.8300590">
    <ele>36.3</ele>
    <time>2019-09-08T07:07:55Z</time>
   </trkpt>
   <trkpt lat="51.2993770" lon="5.8301940">
    <ele>36.3</ele>
    <time>2019-09-08T07:07:56Z</time>
   </trkpt>
   <trkpt lat="51.2994100" lon="5.8302840">
    <ele>36.3</ele>
    <time>2019-09-08T07:07:57Z</time>
   </trkpt>
   <trkpt lat="51.2994430" lon="5.8303690">
    <ele>36.3</ele>
    <time>2019-09-08T07:07:58Z</time>
   </trkpt>
   <trkpt lat="51.2994750" lon="5.8304520">
    <ele>36.3</ele>
    <time>2019-09-08T07:07:59Z</time>
   </trkpt>
   <trkpt lat="51.2995120" lon="5.8305910">
    <ele>36.3</ele>
    <time>2019-09-08T07:08:00Z</time>
   </trkpt>
   <trkpt lat="51.2995580" lon="5.8306590">
    <ele>36.4</ele>
    <time>2019-09-08T07:08:01Z</time>
   </trkpt>
   <trkpt lat="51.2995940" lon="5.8307400">
    <ele>36.4</ele>
    <time>2019-09-08T07:08:02Z</time>
   </trkpt>
   <trkpt lat="51.2996310" lon="5.8308200">
    <ele>36.4</ele>
    <time>2019-09-08T07:08:03Z</time>
   </trkpt>
   <trkpt lat="51.2996030" lon="5.8308810">
    <ele>36.4</ele>
    <time>2019-09-08T07:08:04Z</time>
   </trkpt>
   <trkpt lat="51.2996340" lon="5.8309680">
    <ele>36.4</ele>
    <time>2019-09-08T07:08:05Z</time>
   </trkpt>
   <trkpt lat="51.2996660" lon="5.8310780">
    <ele>36.4</ele>
    <time>2019-09-08T07:08:06Z</time>
   </trkpt>
   <trkpt lat="51.2996940" lon="5.8311800">
    <ele>36.4</ele>
    <time>2019-09-08T07:08:07Z</time>
   </trkpt>
   <trkpt lat="51.2997500" lon="5.8313030">
    <ele>36.4</ele>
    <time>2019-09-08T07:08:08Z</time>
   </trkpt>
   <trkpt lat="51.2997940" lon="5.8313880">
    <ele>36.4</ele>
    <time>2019-09-08T07:08:09Z</time>
   </trkpt>
   <trkpt lat="51.2998410" lon="5.8315190">
    <ele>36.4</ele>
    <time>2019-09-08T07:08:10Z</time>
   </trkpt>
   <trkpt lat="51.2998790" lon="5.8316220">
    <ele>36.4</ele>
    <time>2019-09-08T07:08:11Z</time>
   </trkpt>
   <trkpt lat="51.2999130" lon="5.8317510">
    <ele>36.4</ele>
    <time>2019-09-08T07:08:12Z</time>
   </trkpt>
   <trkpt lat="51.2999320" lon="5.8318780">
    <ele>36.4</ele>
    <time>2019-09-08T07:08:13Z</time>
   </trkpt>
   <trkpt lat="51.2999600" lon="5.8319690">
    <ele>36.4</ele>
    <time>2019-09-08T07:08:14Z</time>
   </trkpt>
   <trkpt lat="51.3000160" lon="5.8320870">
    <ele>36.4</ele>
    <time>2019-09-08T07:08:15Z</time>
   </trkpt>
   <trkpt lat="51.3000430" lon="5.8321970">
    <ele>36.4</ele>
    <time>2019-09-08T07:08:16Z</time>
   </trkpt>
   <trkpt lat="51.3000720" lon="5.8323110">
    <ele>36.4</ele>
    <time>2019-09-08T07:08:17Z</time>
   </trkpt>
   <trkpt lat="51.3001010" lon="5.8324130">
    <ele>36.4</ele>
    <time>2019-09-08T07:08:18Z</time>
   </trkpt>
   <trkpt lat="51.3000920" lon="5.8324850">
    <ele>36.4</ele>
    <time>2019-09-08T07:08:19Z</time>
   </trkpt>
   <trkpt lat="51.3001150" lon="5.8325590">
    <ele>36.4</ele>
    <time>2019-09-08T07:08:20Z</time>
   </trkpt>
   <trkpt lat="51.3001340" lon="5.8326390">
    <ele>36.4</ele>
    <time>2019-09-08T07:08:21Z</time>
   </trkpt>
   <trkpt lat="51.3001870" lon="5.8326990">
    <ele>36.4</ele>
    <time>2019-09-08T07:08:22Z</time>
   </trkpt>
   <trkpt lat="51.3002430" lon="5.8328620">
    <ele>36.4</ele>
    <time>2019-09-08T07:08:24Z</time>
   </trkpt>
   <trkpt lat="51.3002770" lon="5.8329370">
    <ele>36.4</ele>
    <time>2019-09-08T07:08:25Z</time>
   </trkpt>
   <trkpt lat="51.3003100" lon="5.8330150">
    <ele>36.4</ele>
    <time>2019-09-08T07:08:26Z</time>
   </trkpt>
   <trkpt lat="51.3003530" lon="5.8331240">
    <ele>36.3</ele>
    <time>2019-09-08T07:08:27Z</time>
   </trkpt>
   <trkpt lat="51.3003570" lon="5.8331790">
    <ele>36.3</ele>
    <time>2019-09-08T07:08:28Z</time>
   </trkpt>
   <trkpt lat="51.3003750" lon="5.8332320">
    <ele>36.3</ele>
    <time>2019-09-08T07:08:29Z</time>
   </trkpt>
   <trkpt lat="51.3005110" lon="5.8335110">
    <ele>36.2</ele>
    <time>2019-09-08T07:08:31Z</time>
   </trkpt>
   <trkpt lat="51.3005170" lon="5.8336000">
    <ele>36.2</ele>
    <time>2019-09-08T07:08:32Z</time>
   </trkpt>
   <trkpt lat="51.3005620" lon="5.8337310">
    <ele>36.2</ele>
    <time>2019-09-08T07:08:33Z</time>
   </trkpt>
   <trkpt lat="51.3005630" lon="5.8338380">
    <ele>36.2</ele>
    <time>2019-09-08T07:08:34Z</time>
   </trkpt>
   <trkpt lat="51.3005980" lon="5.8339230">
    <ele>36.1</ele>
    <time>2019-09-08T07:08:35Z</time>
   </trkpt>
   <trkpt lat="51.3006370" lon="5.8340730">
    <ele>36.1</ele>
    <time>2019-09-08T07:08:36Z</time>
   </trkpt>
   <trkpt lat="51.3006730" lon="5.8341560">
    <ele>36.1</ele>
    <time>2019-09-08T07:08:37Z</time>
   </trkpt>
   <trkpt lat="51.3006960" lon="5.8342370">
    <ele>36.0</ele>
    <time>2019-09-08T07:08:38Z</time>
   </trkpt>
   <trkpt lat="51.3007560" lon="5.8343770">
    <ele>35.9</ele>
    <time>2019-09-08T07:08:39Z</time>
   </trkpt>
   <trkpt lat="51.3007920" lon="5.8345120">
    <ele>35.9</ele>
    <time>2019-09-08T07:08:40Z</time>
   </trkpt>
   <trkpt lat="51.3008300" lon="5.8346120">
    <ele>35.8</ele>
    <time>2019-09-08T07:08:41Z</time>
   </trkpt>
   <trkpt lat="51.3008500" lon="5.8347340">
    <ele>35.7</ele>
    <time>2019-09-08T07:08:42Z</time>
   </trkpt>
   <trkpt lat="51.3008980" lon="5.8348500">
    <ele>35.6</ele>
    <time>2019-09-08T07:08:43Z</time>
   </trkpt>
   <trkpt lat="51.3009340" lon="5.8349740">
    <ele>35.6</ele>
    <time>2019-09-08T07:08:44Z</time>
   </trkpt>
   <trkpt lat="51.3009680" lon="5.8350680">
    <ele>35.6</ele>
    <time>2019-09-08T07:08:45Z</time>
   </trkpt>
   <trkpt lat="51.3010170" lon="5.8351600">
    <ele>35.6</ele>
    <time>2019-09-08T07:08:46Z</time>
   </trkpt>
   <trkpt lat="51.3010540" lon="5.8352420">
    <ele>35.6</ele>
    <time>2019-09-08T07:08:47Z</time>
   </trkpt>
   <trkpt lat="51.3010810" lon="5.8353710">
    <ele>35.6</ele>
    <time>2019-09-08T07:08:48Z</time>
   </trkpt>
   <trkpt lat="51.3011120" lon="5.8354760">
    <ele>35.6</ele>
    <time>2019-09-08T07:08:49Z</time>
   </trkpt>
   <trkpt lat="51.3011330" lon="5.8355790">
    <ele>35.6</ele>
    <time>2019-09-08T07:08:50Z</time>
   </trkpt>
   <trkpt lat="51.3011590" lon="5.8356840">
    <ele>35.6</ele>
    <time>2019-09-08T07:08:51Z</time>
   </trkpt>
   <trkpt lat="51.3011940" lon="5.8357690">
    <ele>35.6</ele>
    <time>2019-09-08T07:08:52Z</time>
   </trkpt>
   <trkpt lat="51.3012410" lon="5.8359500">
    <ele>35.5</ele>
    <time>2019-09-08T07:08:53Z</time>
   </trkpt>
   <trkpt lat="51.3012770" lon="5.8360310">
    <ele>35.5</ele>
    <time>2019-09-08T07:08:54Z</time>
   </trkpt>
   <trkpt lat="51.3012900" lon="5.8361740">
    <ele>35.5</ele>
    <time>2019-09-08T07:08:55Z</time>
   </trkpt>
   <trkpt lat="51.3013380" lon="5.8363280">
    <ele>35.5</ele>
    <time>2019-09-08T07:08:56Z</time>
   </trkpt>
   <trkpt lat="51.3013790" lon="5.8364240">
    <ele>35.4</ele>
    <time>2019-09-08T07:08:57Z</time>
   </trkpt>
   <trkpt lat="51.3014220" lon="5.8364780">
    <ele>35.4</ele>
    <time>2019-09-08T07:08:58Z</time>
   </trkpt>
   <trkpt lat="51.3014640" lon="5.8365630">
    <ele>35.4</ele>
    <time>2019-09-08T07:08:59Z</time>
   </trkpt>
   <trkpt lat="51.3015080" lon="5.8366990">
    <ele>35.4</ele>
    <time>2019-09-08T07:09:00Z</time>
   </trkpt>
   <trkpt lat="51.3015450" lon="5.8367720">
    <ele>35.4</ele>
    <time>2019-09-08T07:09:01Z</time>
   </trkpt>
   <trkpt lat="51.3015810" lon="5.8368410">
    <ele>35.3</ele>
    <time>2019-09-08T07:09:02Z</time>
   </trkpt>
   <trkpt lat="51.3016150" lon="5.8369310">
    <ele>35.3</ele>
    <time>2019-09-08T07:09:03Z</time>
   </trkpt>
   <trkpt lat="51.3016490" lon="5.8370110">
    <ele>35.3</ele>
    <time>2019-09-08T07:09:04Z</time>
   </trkpt>
   <trkpt lat="51.3016850" lon="5.8370950">
    <ele>35.3</ele>
    <time>2019-09-08T07:09:05Z</time>
   </trkpt>
   <trkpt lat="51.3017050" lon="5.8372260">
    <ele>35.2</ele>
    <time>2019-09-08T07:09:06Z</time>
   </trkpt>
   <trkpt lat="51.3017550" lon="5.8373370">
    <ele>35.2</ele>
    <time>2019-09-08T07:09:07Z</time>
   </trkpt>
   <trkpt lat="51.3017980" lon="5.8374310">
    <ele>35.2</ele>
    <time>2019-09-08T07:09:08Z</time>
   </trkpt>
   <trkpt lat="51.3018390" lon="5.8375860">
    <ele>35.1</ele>
    <time>2019-09-08T07:09:09Z</time>
   </trkpt>
   <trkpt lat="51.3018620" lon="5.8377000">
    <ele>35.1</ele>
    <time>2019-09-08T07:09:10Z</time>
   </trkpt>
   <trkpt lat="51.3018790" lon="5.8377810">
    <ele>35.1</ele>
    <time>2019-09-08T07:09:11Z</time>
   </trkpt>
   <trkpt lat="51.3018890" lon="5.8378570">
    <ele>35.1</ele>
    <time>2019-09-08T07:09:12Z</time>
   </trkpt>
   <trkpt lat="51.3019420" lon="5.8379360">
    <ele>35.0</ele>
    <time>2019-09-08T07:09:13Z</time>
   </trkpt>
   <trkpt lat="51.3019760" lon="5.8380820">
    <ele>35.0</ele>
    <time>2019-09-08T07:09:14Z</time>
   </trkpt>
   <trkpt lat="51.3020010" lon="5.8381780">
    <ele>35.0</ele>
    <time>2019-09-08T07:09:15Z</time>
   </trkpt>
   <trkpt lat="51.3020350" lon="5.8383280">
    <ele>34.9</ele>
    <time>2019-09-08T07:09:16Z</time>
   </trkpt>
   <trkpt lat="51.3020590" lon="5.8384190">
    <ele>34.9</ele>
    <time>2019-09-08T07:09:17Z</time>
   </trkpt>
   <trkpt lat="51.3020890" lon="5.8385340">
    <ele>34.8</ele>
    <time>2019-09-08T07:09:18Z</time>
   </trkpt>
   <trkpt lat="51.3021340" lon="5.8386500">
    <ele>34.8</ele>
    <time>2019-09-08T07:09:19Z</time>
   </trkpt>
   <trkpt lat="51.3021760" lon="5.8387350">
    <ele>34.8</ele>
    <time>2019-09-08T07:09:20Z</time>
   </trkpt>
   <trkpt lat="51.3022320" lon="5.8388520">
    <ele>34.7</ele>
    <time>2019-09-08T07:09:21Z</time>
   </trkpt>
   <trkpt lat="51.3022550" lon="5.8389300">
    <ele>34.7</ele>
    <time>2019-09-08T07:09:22Z</time>
   </trkpt>
   <trkpt lat="51.3022750" lon="5.8390520">
    <ele>34.7</ele>
    <time>2019-09-08T07:09:23Z</time>
   </trkpt>
   <trkpt lat="51.3022870" lon="5.8391380">
    <ele>34.7</ele>
    <time>2019-09-08T07:09:24Z</time>
   </trkpt>
   <trkpt lat="51.3023570" lon="5.8392730">
    <ele>34.6</ele>
    <time>2019-09-08T07:09:25Z</time>
   </trkpt>
   <trkpt lat="51.3023850" lon="5.8393750">
    <ele>34.6</ele>
    <time>2019-09-08T07:09:26Z</time>
   </trkpt>
   <trkpt lat="51.3024160" lon="5.8394690">
    <ele>34.6</ele>
    <time>2019-09-08T07:09:27Z</time>
   </trkpt>
   <trkpt lat="51.3024370" lon="5.8395540">
    <ele>34.6</ele>
    <time>2019-09-08T07:09:28Z</time>
   </trkpt>
   <trkpt lat="51.3024980" lon="5.8396970">
    <ele>34.6</ele>
    <time>2019-09-08T07:09:29Z</time>
   </trkpt>
   <trkpt lat="51.3025310" lon="5.8398020">
    <ele>34.6</ele>
    <time>2019-09-08T07:09:30Z</time>
   </trkpt>
   <trkpt lat="51.3025630" lon="5.8399050">
    <ele>34.6</ele>
    <time>2019-09-08T07:09:31Z</time>
   </trkpt>
   <trkpt lat="51.3025820" lon="5.8400270">
    <ele>34.6</ele>
    <time>2019-09-08T07:09:32Z</time>
   </trkpt>
   <trkpt lat="51.3026150" lon="5.8401730">
    <ele>34.5</ele>
    <time>2019-09-08T07:09:33Z</time>
   </trkpt>
   <trkpt lat="51.3026640" lon="5.8403030">
    <ele>34.5</ele>
    <time>2019-09-08T07:09:34Z</time>
   </trkpt>
   <trkpt lat="51.3026940" lon="5.8404370">
    <ele>34.5</ele>
    <time>2019-09-08T07:09:35Z</time>
   </trkpt>
   <trkpt lat="51.3027200" lon="5.8405330">
    <ele>34.4</ele>
    <time>2019-09-08T07:09:36Z</time>
   </trkpt>
   <trkpt lat="51.3027480" lon="5.8406560">
    <ele>34.4</ele>
    <time>2019-09-08T07:09:37Z</time>
   </trkpt>
   <trkpt lat="51.3027830" lon="5.8407620">
    <ele>34.4</ele>
    <time>2019-09-08T07:09:38Z</time>
   </trkpt>
   <trkpt lat="51.3028110" lon="5.8408510">
    <ele>34.4</ele>
    <time>2019-09-08T07:09:39Z</time>
   </trkpt>
   <trkpt lat="51.3028410" lon="5.8409460">
    <ele>34.4</ele>
    <time>2019-09-08T07:09:40Z</time>
   </trkpt>
   <trkpt lat="51.3028650" lon="5.8410130">
    <ele>34.4</ele>
    <time>2019-09-08T07:09:41Z</time>
   </trkpt>
   <trkpt lat="51.3029040" lon="5.8411410">
    <ele>34.3</ele>
    <time>2019-09-08T07:09:42Z</time>
   </trkpt>
   <trkpt lat="51.3029390" lon="5.8412420">
    <ele>34.3</ele>
    <time>2019-09-08T07:09:43Z</time>
   </trkpt>
   <trkpt lat="51.3029690" lon="5.8413310">
    <ele>34.3</ele>
    <time>2019-09-08T07:09:44Z</time>
   </trkpt>
   <trkpt lat="51.3030160" lon="5.8414540">
    <ele>34.2</ele>
    <time>2019-09-08T07:09:45Z</time>
   </trkpt>
   <trkpt lat="51.3030400" lon="5.8415470">
    <ele>34.2</ele>
    <time>2019-09-08T07:09:46Z</time>
   </trkpt>
   <trkpt lat="51.3030730" lon="5.8416570">
    <ele>34.2</ele>
    <time>2019-09-08T07:09:47Z</time>
   </trkpt>
   <trkpt lat="51.3031140" lon="5.8417200">
    <ele>34.1</ele>
    <time>2019-09-08T07:09:48Z</time>
   </trkpt>
   <trkpt lat="51.3031460" lon="5.8418190">
    <ele>34.1</ele>
    <time>2019-09-08T07:09:49Z</time>
   </trkpt>
   <trkpt lat="51.3031860" lon="5.8419210">
    <ele>34.1</ele>
    <time>2019-09-08T07:09:50Z</time>
   </trkpt>
   <trkpt lat="51.3032200" lon="5.8420170">
    <ele>34.0</ele>
    <time>2019-09-08T07:09:51Z</time>
   </trkpt>
   <trkpt lat="51.3032510" lon="5.8421170">
    <ele>34.0</ele>
    <time>2019-09-08T07:09:52Z</time>
   </trkpt>
   <trkpt lat="51.3032810" lon="5.8422320">
    <ele>33.9</ele>
    <time>2019-09-08T07:09:53Z</time>
   </trkpt>
   <trkpt lat="51.3033120" lon="5.8423260">
    <ele>33.9</ele>
    <time>2019-09-08T07:09:54Z</time>
   </trkpt>
   <trkpt lat="51.3033590" lon="5.8424460">
    <ele>33.9</ele>
    <time>2019-09-08T07:09:55Z</time>
   </trkpt>
   <trkpt lat="51.3033870" lon="5.8425460">
    <ele>33.8</ele>
    <time>2019-09-08T07:09:56Z</time>
   </trkpt>
   <trkpt lat="51.3034210" lon="5.8426560">
    <ele>33.8</ele>
    <time>2019-09-08T07:09:57Z</time>
   </trkpt>
   <trkpt lat="51.3034550" lon="5.8427510">
    <ele>33.8</ele>
    <time>2019-09-08T07:09:58Z</time>
   </trkpt>
   <trkpt lat="51.3034690" lon="5.8428330">
    <ele>33.8</ele>
    <time>2019-09-08T07:09:59Z</time>
   </trkpt>
   <trkpt lat="51.3034940" lon="5.8429230">
    <ele>33.7</ele>
    <time>2019-09-08T07:10:00Z</time>
   </trkpt>
   <trkpt lat="51.3035630" lon="5.8430550">
    <ele>33.7</ele>
    <time>2019-09-08T07:10:01Z</time>
   </trkpt>
   <trkpt lat="51.3036000" lon="5.8431520">
    <ele>33.7</ele>
    <time>2019-09-08T07:10:02Z</time>
   </trkpt>
   <trkpt lat="51.3036220" lon="5.8432560">
    <ele>33.6</ele>
    <time>2019-09-08T07:10:03Z</time>
   </trkpt>
   <trkpt lat="51.3036530" lon="5.8433440">
    <ele>33.6</ele>
    <time>2019-09-08T07:10:04Z</time>
   </trkpt>
   <trkpt lat="51.3036930" lon="5.8434460">
    <ele>33.5</ele>
    <time>2019-09-08T07:10:05Z</time>
   </trkpt>
   <trkpt lat="51.3037280" lon="5.8435550">
    <ele>33.4</ele>
    <time>2019-09-08T07:10:06Z</time>
   </trkpt>
   <trkpt lat="51.3037620" lon="5.8436970">
    <ele>33.3</ele>
    <time>2019-09-08T07:10:07Z</time>
   </trkpt>
   <trkpt lat="51.3037860" lon="5.8437930">
    <ele>33.2</ele>
    <time>2019-09-08T07:10:08Z</time>
   </trkpt>
   <trkpt lat="51.3038010" lon="5.8439050">
    <ele>33.1</ele>
    <time>2019-09-08T07:10:09Z</time>
   </trkpt>
   <trkpt lat="51.3038420" lon="5.8440440">
    <ele>33.1</ele>
    <time>2019-09-08T07:10:10Z</time>
   </trkpt>
   <trkpt lat="51.3038710" lon="5.8441400">
    <ele>33.0</ele>
    <time>2019-09-08T07:10:11Z</time>
   </trkpt>
   <trkpt lat="51.3039160" lon="5.8442610">
    <ele>32.9</ele>
    <time>2019-09-08T07:10:12Z</time>
   </trkpt>
   <trkpt lat="51.3039680" lon="5.8443900">
    <ele>32.8</ele>
    <time>2019-09-08T07:10:13Z</time>
   </trkpt>
   <trkpt lat="51.3040060" lon="5.8444840">
    <ele>32.7</ele>
    <time>2019-09-08T07:10:14Z</time>
   </trkpt>
   <trkpt lat="51.3040510" lon="5.8445800">
    <ele>32.7</ele>
    <time>2019-09-08T07:10:15Z</time>
   </trkpt>
   <trkpt lat="51.3040810" lon="5.8446540">
    <ele>32.6</ele>
    <time>2019-09-08T07:10:16Z</time>
   </trkpt>
   <trkpt lat="51.3041070" lon="5.8447360">
    <ele>32.5</ele>
    <time>2019-09-08T07:10:17Z</time>
   </trkpt>
   <trkpt lat="51.3041470" lon="5.8448810">
    <ele>32.4</ele>
    <time>2019-09-08T07:10:18Z</time>
   </trkpt>
   <trkpt lat="51.3041870" lon="5.8450000">
    <ele>32.3</ele>
    <time>2019-09-08T07:10:19Z</time>
   </trkpt>
   <trkpt lat="51.3042270" lon="5.8451330">
    <ele>32.3</ele>
    <time>2019-09-08T07:10:20Z</time>
   </trkpt>
   <trkpt lat="51.3042600" lon="5.8451970">
    <ele>32.2</ele>
    <time>2019-09-08T07:10:21Z</time>
   </trkpt>
   <trkpt lat="51.3042800" lon="5.8452990">
    <ele>32.1</ele>
    <time>2019-09-08T07:10:22Z</time>
   </trkpt>
   <trkpt lat="51.3043060" lon="5.8453910">
    <ele>32.1</ele>
    <time>2019-09-08T07:10:23Z</time>
   </trkpt>
   <trkpt lat="51.3043300" lon="5.8454660">
    <ele>32.0</ele>
    <time>2019-09-08T07:10:24Z</time>
   </trkpt>
   <trkpt lat="51.3043580" lon="5.8455360">
    <ele>31.9</ele>
    <time>2019-09-08T07:10:25Z</time>
   </trkpt>
   <trkpt lat="51.3043770" lon="5.8456080">
    <ele>31.9</ele>
    <time>2019-09-08T07:10:26Z</time>
   </trkpt>
   <trkpt lat="51.3044100" lon="5.8456830">
    <ele>31.8</ele>
    <time>2019-09-08T07:10:27Z</time>
   </trkpt>
   <trkpt lat="51.3044290" lon="5.8457630">
    <ele>31.7</ele>
    <time>2019-09-08T07:10:28Z</time>
   </trkpt>
   <trkpt lat="51.3044420" lon="5.8458280">
    <ele>31.7</ele>
    <time>2019-09-08T07:10:29Z</time>
   </trkpt>
   <trkpt lat="51.3044160" lon="5.8458620">
    <ele>31.7</ele>
    <time>2019-09-08T07:10:30Z</time>
   </trkpt>
   <trkpt lat="51.3043900" lon="5.8459160">
    <ele>31.6</ele>
    <time>2019-09-08T07:10:31Z</time>
   </trkpt>
   <trkpt lat="51.3043350" lon="5.8459610">
    <ele>31.6</ele>
    <time>2019-09-08T07:10:32Z</time>
   </trkpt>
   <trkpt lat="51.3042820" lon="5.8460060">
    <ele>31.6</ele>
    <time>2019-09-08T07:10:33Z</time>
   </trkpt>
   <trkpt lat="51.3041980" lon="5.8460580">
    <ele>31.6</ele>
    <time>2019-09-08T07:10:34Z</time>
   </trkpt>
   <trkpt lat="51.3041280" lon="5.8461050">
    <ele>31.5</ele>
    <time>2019-09-08T07:10:35Z</time>
   </trkpt>
   <trkpt lat="51.3040650" lon="5.8461650">
    <ele>31.4</ele>
    <time>2019-09-08T07:10:36Z</time>
   </trkpt>
   <trkpt lat="51.3039960" lon="5.8462370">
    <ele>31.4</ele>
    <time>2019-09-08T07:10:37Z</time>
   </trkpt>
   <trkpt lat="51.3039340" lon="5.8462940">
    <ele>31.3</ele>
    <time>2019-09-08T07:10:38Z</time>
   </trkpt>
   <trkpt lat="51.3038660" lon="5.8463400">
    <ele>31.3</ele>
    <time>2019-09-08T07:10:39Z</time>
   </trkpt>
   <trkpt lat="51.3038050" lon="5.8463840">
    <ele>31.3</ele>
    <time>2019-09-08T07:10:40Z</time>
   </trkpt>
   <trkpt lat="51.3037430" lon="5.8464390">
    <ele>31.3</ele>
    <time>2019-09-08T07:10:41Z</time>
   </trkpt>
   <trkpt lat="51.3036890" lon="5.8464900">
    <ele>31.3</ele>
    <time>2019-09-08T07:10:42Z</time>
   </trkpt>
   <trkpt lat="51.3036280" lon="5.8465430">
    <ele>31.3</ele>
    <time>2019-09-08T07:10:43Z</time>
   </trkpt>
   <trkpt lat="51.3035640" lon="5.8466020">
    <ele>31.3</ele>
    <time>2019-09-08T07:10:44Z</time>
   </trkpt>
   <trkpt lat="51.3035010" lon="5.8466450">
    <ele>31.3</ele>
    <time>2019-09-08T07:10:45Z</time>
   </trkpt>
   <trkpt lat="51.3034420" lon="5.8467040">
    <ele>31.3</ele>
    <time>2019-09-08T07:10:46Z</time>
   </trkpt>
   <trkpt lat="51.3033810" lon="5.8467580">
    <ele>31.3</ele>
    <time>2019-09-08T07:10:47Z</time>
   </trkpt>
   <trkpt lat="51.3033230" lon="5.8468190">
    <ele>31.3</ele>
    <time>2019-09-08T07:10:48Z</time>
   </trkpt>
   <trkpt lat="51.3032580" lon="5.8468680">
    <ele>31.3</ele>
    <time>2019-09-08T07:10:49Z</time>
   </trkpt>
   <trkpt lat="51.3031870" lon="5.8469210">
    <ele>31.3</ele>
    <time>2019-09-08T07:10:50Z</time>
   </trkpt>
   <trkpt lat="51.3031250" lon="5.8469690">
    <ele>31.2</ele>
    <time>2019-09-08T07:10:51Z</time>
   </trkpt>
   <trkpt lat="51.3030630" lon="5.8470260">
    <ele>31.2</ele>
    <time>2019-09-08T07:10:52Z</time>
   </trkpt>
   <trkpt lat="51.3030020" lon="5.8470730">
    <ele>31.1</ele>
    <time>2019-09-08T07:10:53Z</time>
   </trkpt>
   <trkpt lat="51.3029440" lon="5.8471190">
    <ele>31.1</ele>
    <time>2019-09-08T07:10:54Z</time>
   </trkpt>
   <trkpt lat="51.3028890" lon="5.8471640">
    <ele>31.0</ele>
    <time>2019-09-08T07:10:55Z</time>
   </trkpt>
   <trkpt lat="51.3028330" lon="5.8472080">
    <ele>30.8</ele>
    <time>2019-09-08T07:10:56Z</time>
   </trkpt>
   <trkpt lat="51.3027840" lon="5.8472490">
    <ele>30.7</ele>
    <time>2019-09-08T07:10:57Z</time>
   </trkpt>
   <trkpt lat="51.3027510" lon="5.8473090">
    <ele>30.6</ele>
    <time>2019-09-08T07:10:58Z</time>
   </trkpt>
   <trkpt lat="51.3027320" lon="5.8473710">
    <ele>30.5</ele>
    <time>2019-09-08T07:10:59Z</time>
   </trkpt>
   <trkpt lat="51.3027310" lon="5.8474430">
    <ele>30.6</ele>
    <time>2019-09-08T07:11:00Z</time>
   </trkpt>
   <trkpt lat="51.3027780" lon="5.8475210">
    <ele>30.7</ele>
    <time>2019-09-08T07:11:01Z</time>
   </trkpt>
   <trkpt lat="51.3028070" lon="5.8476060">
    <ele>30.8</ele>
    <time>2019-09-08T07:11:02Z</time>
   </trkpt>
   <trkpt lat="51.3028500" lon="5.8477080">
    <ele>30.9</ele>
    <time>2019-09-08T07:11:03Z</time>
   </trkpt>
   <trkpt lat="51.3028770" lon="5.8478150">
    <ele>31.0</ele>
    <time>2019-09-08T07:11:04Z</time>
   </trkpt>
   <trkpt lat="51.3028980" lon="5.8479060">
    <ele>31.1</ele>
    <time>2019-09-08T07:11:05Z</time>
   </trkpt>
   <trkpt lat="51.3029270" lon="5.8480130">
    <ele>31.2</ele>
    <time>2019-09-08T07:11:06Z</time>
   </trkpt>
   <trkpt lat="51.3029590" lon="5.8481380">
    <ele>31.3</ele>
    <time>2019-09-08T07:11:07Z</time>
   </trkpt>
   <trkpt lat="51.3029840" lon="5.8482310">
    <ele>31.5</ele>
    <time>2019-09-08T07:11:08Z</time>
   </trkpt>
   <trkpt lat="51.3030150" lon="5.8483260">
    <ele>31.6</ele>
    <time>2019-09-08T07:11:09Z</time>
   </trkpt>
   <trkpt lat="51.3030470" lon="5.8484400">
    <ele>31.7</ele>
    <time>2019-09-08T07:11:10Z</time>
   </trkpt>
   <trkpt lat="51.3030810" lon="5.8485380">
    <ele>31.8</ele>
    <time>2019-09-08T07:11:11Z</time>
   </trkpt>
   <trkpt lat="51.3031120" lon="5.8486330">
    <ele>31.9</ele>
    <time>2019-09-08T07:11:12Z</time>
   </trkpt>
   <trkpt lat="51.3031280" lon="5.8487110">
    <ele>31.9</ele>
    <time>2019-09-08T07:11:13Z</time>
   </trkpt>
   <trkpt lat="51.3031670" lon="5.8488240">
    <ele>32.1</ele>
    <time>2019-09-08T07:11:14Z</time>
   </trkpt>
   <trkpt lat="51.3031630" lon="5.8489230">
    <ele>32.0</ele>
    <time>2019-09-08T07:11:15Z</time>
   </trkpt>
   <trkpt lat="51.3031360" lon="5.8490070">
    <ele>32.0</ele>
    <time>2019-09-08T07:11:16Z</time>
   </trkpt>
   <trkpt lat="51.3031070" lon="5.8491320">
    <ele>31.9</ele>
    <time>2019-09-08T07:11:17Z</time>
   </trkpt>
   <trkpt lat="51.3030730" lon="5.8492110">
    <ele>31.9</ele>
    <time>2019-09-08T07:11:18Z</time>
   </trkpt>
   <trkpt lat="51.3030530" lon="5.8492960">
    <ele>31.8</ele>
    <time>2019-09-08T07:11:19Z</time>
   </trkpt>
   <trkpt lat="51.3030320" lon="5.8493950">
    <ele>31.8</ele>
    <time>2019-09-08T07:11:20Z</time>
   </trkpt>
   <trkpt lat="51.3029880" lon="5.8495410">
    <ele>31.6</ele>
    <time>2019-09-08T07:11:21Z</time>
   </trkpt>
   <trkpt lat="51.3029520" lon="5.8496710">
    <ele>31.4</ele>
    <time>2019-09-08T07:11:22Z</time>
   </trkpt>
   <trkpt lat="51.3029100" lon="5.8497650">
    <ele>31.2</ele>
    <time>2019-09-08T07:11:23Z</time>
   </trkpt>
   <trkpt lat="51.3028840" lon="5.8498710">
    <ele>31.0</ele>
    <time>2019-09-08T07:11:24Z</time>
   </trkpt>
   <trkpt lat="51.3028560" lon="5.8499810">
    <ele>30.7</ele>
    <time>2019-09-08T07:11:25Z</time>
   </trkpt>
   <trkpt lat="51.3028300" lon="5.8500620">
    <ele>30.5</ele>
    <time>2019-09-08T07:11:26Z</time>
   </trkpt>
   <trkpt lat="51.3028120" lon="5.8501760">
    <ele>30.2</ele>
    <time>2019-09-08T07:11:27Z</time>
   </trkpt>
   <trkpt lat="51.3027910" lon="5.8503020">
    <ele>29.9</ele>
    <time>2019-09-08T07:11:28Z</time>
   </trkpt>
   <trkpt lat="51.3027820" lon="5.8504230">
    <ele>29.6</ele>
    <time>2019-09-08T07:11:29Z</time>
   </trkpt>
   <trkpt lat="51.3027660" lon="5.8505270">
    <ele>29.3</ele>
    <time>2019-09-08T07:11:30Z</time>
   </trkpt>
   <trkpt lat="51.3027450" lon="5.8506400">
    <ele>29.1</ele>
    <time>2019-09-08T07:11:31Z</time>
   </trkpt>
   <trkpt lat="51.3027320" lon="5.8507570">
    <ele>28.9</ele>
    <time>2019-09-08T07:11:32Z</time>
   </trkpt>
   <trkpt lat="51.3027100" lon="5.8508560">
    <ele>28.7</ele>
    <time>2019-09-08T07:11:33Z</time>
   </trkpt>
   <trkpt lat="51.3026880" lon="5.8509890">
    <ele>28.6</ele>
    <time>2019-09-08T07:11:34Z</time>
   </trkpt>
   <trkpt lat="51.3026690" lon="5.8510940">
    <ele>28.5</ele>
    <time>2019-09-08T07:11:35Z</time>
   </trkpt>
   <trkpt lat="51.3026440" lon="5.8511810">
    <ele>28.4</ele>
    <time>2019-09-08T07:11:36Z</time>
   </trkpt>
   <trkpt lat="51.3025980" lon="5.8513230">
    <ele>28.4</ele>
    <time>2019-09-08T07:11:37Z</time>
   </trkpt>
   <trkpt lat="51.3025810" lon="5.8514350">
    <ele>28.4</ele>
    <time>2019-09-08T07:11:38Z</time>
   </trkpt>
   <trkpt lat="51.3025640" lon="5.8515550">
    <ele>28.3</ele>
    <time>2019-09-08T07:11:39Z</time>
   </trkpt>
   <trkpt lat="51.3025500" lon="5.8516660">
    <ele>28.2</ele>
    <time>2019-09-08T07:11:40Z</time>
   </trkpt>
   <trkpt lat="51.3025300" lon="5.8517930">
    <ele>28.1</ele>
    <time>2019-09-08T07:11:41Z</time>
   </trkpt>
   <trkpt lat="51.3025250" lon="5.8518990">
    <ele>27.9</ele>
    <time>2019-09-08T07:11:42Z</time>
   </trkpt>
   <trkpt lat="51.3025070" lon="5.8520240">
    <ele>27.7</ele>
    <time>2019-09-08T07:11:43Z</time>
   </trkpt>
   <trkpt lat="51.3024860" lon="5.8521180">
    <ele>27.5</ele>
    <time>2019-09-08T07:11:44Z</time>
   </trkpt>
   <trkpt lat="51.3024820" lon="5.8522390">
    <ele>27.3</ele>
    <time>2019-09-08T07:11:45Z</time>
   </trkpt>
   <trkpt lat="51.3024610" lon="5.8523530">
    <ele>27.1</ele>
    <time>2019-09-08T07:11:46Z</time>
   </trkpt>
   <trkpt lat="51.3024430" lon="5.8524740">
    <ele>26.9</ele>
    <time>2019-09-08T07:11:47Z</time>
   </trkpt>
   <trkpt lat="51.3024250" lon="5.8525960">
    <ele>26.8</ele>
    <time>2019-09-08T07:11:48Z</time>
   </trkpt>
   <trkpt lat="51.3024080" lon="5.8527010">
    <ele>26.7</ele>
    <time>2019-09-08T07:11:49Z</time>
   </trkpt>
   <trkpt lat="51.3023840" lon="5.8528140">
    <ele>26.7</ele>
    <time>2019-09-08T07:11:50Z</time>
   </trkpt>
   <trkpt lat="51.3023670" lon="5.8529440">
    <ele>26.9</ele>
    <time>2019-09-08T07:11:51Z</time>
   </trkpt>
   <trkpt lat="51.3023480" lon="5.8530560">
    <ele>27.2</ele>
    <time>2019-09-08T07:11:52Z</time>
   </trkpt>
   <trkpt lat="51.3023290" lon="5.8531780">
    <ele>27.5</ele>
    <time>2019-09-08T07:11:53Z</time>
   </trkpt>
   <trkpt lat="51.3023080" lon="5.8532990">
    <ele>27.9</ele>
    <time>2019-09-08T07:11:54Z</time>
   </trkpt>
   <trkpt lat="51.3022880" lon="5.8534160">
    <ele>28.4</ele>
    <time>2019-09-08T07:11:55Z</time>
   </trkpt>
   <trkpt lat="51.3022700" lon="5.8535350">
    <ele>28.8</ele>
    <time>2019-09-08T07:11:56Z</time>
   </trkpt>
   <trkpt lat="51.3022600" lon="5.8536590">
    <ele>29.2</ele>
    <time>2019-09-08T07:11:57Z</time>
   </trkpt>
   <trkpt lat="51.3022460" lon="5.8537740">
    <ele>29.6</ele>
    <time>2019-09-08T07:11:58Z</time>
   </trkpt>
   <trkpt lat="51.3022250" lon="5.8539040">
    <ele>29.9</ele>
    <time>2019-09-08T07:11:59Z</time>
   </trkpt>
   <trkpt lat="51.3022080" lon="5.8540340">
    <ele>30.1</ele>
    <time>2019-09-08T07:12:00Z</time>
   </trkpt>
   <trkpt lat="51.3021940" lon="5.8541400">
    <ele>30.3</ele>
    <time>2019-09-08T07:12:01Z</time>
   </trkpt>
   <trkpt lat="51.3021760" lon="5.8542490">
    <ele>30.4</ele>
    <time>2019-09-08T07:12:02Z</time>
   </trkpt>
   <trkpt lat="51.3021580" lon="5.8543740">
    <ele>30.6</ele>
    <time>2019-09-08T07:12:03Z</time>
   </trkpt>
   <trkpt lat="51.3021450" lon="5.8544700">
    <ele>30.7</ele>
    <time>2019-09-08T07:12:04Z</time>
   </trkpt>
   <trkpt lat="51.3021380" lon="5.8545680">
    <ele>30.8</ele>
    <time>2019-09-08T07:12:05Z</time>
   </trkpt>
   <trkpt lat="51.3021280" lon="5.8546690">
    <ele>30.9</ele>
    <time>2019-09-08T07:12:06Z</time>
   </trkpt>
   <trkpt lat="51.3021110" lon="5.8547480">
    <ele>30.9</ele>
    <time>2019-09-08T07:12:07Z</time>
   </trkpt>
   <trkpt lat="51.3020830" lon="5.8549040">
    <ele>31.0</ele>
    <time>2019-09-08T07:12:08Z</time>
   </trkpt>
   <trkpt lat="51.3020590" lon="5.8549960">
    <ele>31.0</ele>
    <time>2019-09-08T07:12:09Z</time>
   </trkpt>
   <trkpt lat="51.3020370" lon="5.8551100">
    <ele>31.0</ele>
    <time>2019-09-08T07:12:10Z</time>
   </trkpt>
   <trkpt lat="51.3020330" lon="5.8552310">
    <ele>30.9</ele>
    <time>2019-09-08T07:12:11Z</time>
   </trkpt>
   <trkpt lat="51.3020200" lon="5.8553350">
    <ele>30.9</ele>
    <time>2019-09-08T07:12:12Z</time>
   </trkpt>
   <trkpt lat="51.3020040" lon="5.8554290">
    <ele>30.8</ele>
    <time>2019-09-08T07:12:13Z</time>
   </trkpt>
   <trkpt lat="51.3019860" lon="5.8555260">
    <ele>30.6</ele>
    <time>2019-09-08T07:12:14Z</time>
   </trkpt>
   <trkpt lat="51.3019730" lon="5.8556390">
    <ele>30.4</ele>
    <time>2019-09-08T07:12:15Z</time>
   </trkpt>
   <trkpt lat="51.3019480" lon="5.8557530">
    <ele>30.2</ele>
    <time>2019-09-08T07:12:16Z</time>
   </trkpt>
   <trkpt lat="51.3019300" lon="5.8558740">
    <ele>29.8</ele>
    <time>2019-09-08T07:12:17Z</time>
   </trkpt>
   <trkpt lat="51.3019060" lon="5.8559860">
    <ele>29.6</ele>
    <time>2019-09-08T07:12:18Z</time>
   </trkpt>
   <trkpt lat="51.3018700" lon="5.8560860">
    <ele>29.4</ele>
    <time>2019-09-08T07:12:19Z</time>
   </trkpt>
   <trkpt lat="51.3018440" lon="5.8561870">
    <ele>29.2</ele>
    <time>2019-09-08T07:12:20Z</time>
   </trkpt>
   <trkpt lat="51.3018090" lon="5.8563060">
    <ele>29.0</ele>
    <time>2019-09-08T07:12:21Z</time>
   </trkpt>
   <trkpt lat="51.3017850" lon="5.8564030">
    <ele>28.9</ele>
    <time>2019-09-08T07:12:22Z</time>
   </trkpt>
   <trkpt lat="51.3017610" lon="5.8565270">
    <ele>28.8</ele>
    <time>2019-09-08T07:12:23Z</time>
   </trkpt>
   <trkpt lat="51.3017210" lon="5.8566460">
    <ele>28.6</ele>
    <time>2019-09-08T07:12:24Z</time>
   </trkpt>
   <trkpt lat="51.3016930" lon="5.8567600">
    <ele>28.6</ele>
    <time>2019-09-08T07:12:25Z</time>
   </trkpt>
   <trkpt lat="51.3016590" lon="5.8568800">
    <ele>28.5</ele>
    <time>2019-09-08T07:12:26Z</time>
   </trkpt>
   <trkpt lat="51.3016260" lon="5.8570120">
    <ele>28.4</ele>
    <time>2019-09-08T07:12:27Z</time>
   </trkpt>
   <trkpt lat="51.3015990" lon="5.8571400">
    <ele>28.4</ele>
    <time>2019-09-08T07:12:28Z</time>
   </trkpt>
   <trkpt lat="51.3015700" lon="5.8572490">
    <ele>28.3</ele>
    <time>2019-09-08T07:12:29Z</time>
   </trkpt>
   <trkpt lat="51.3015390" lon="5.8573580">
    <ele>28.3</ele>
    <time>2019-09-08T07:12:30Z</time>
   </trkpt>
   <trkpt lat="51.3015140" lon="5.8574640">
    <ele>28.3</ele>
    <time>2019-09-08T07:12:31Z</time>
   </trkpt>
   <trkpt lat="51.3014820" lon="5.8575770">
    <ele>28.2</ele>
    <time>2019-09-08T07:12:32Z</time>
   </trkpt>
   <trkpt lat="51.3014540" lon="5.8576970">
    <ele>28.2</ele>
    <time>2019-09-08T07:12:33Z</time>
   </trkpt>
   <trkpt lat="51.3014250" lon="5.8578050">
    <ele>28.2</ele>
    <time>2019-09-08T07:12:34Z</time>
   </trkpt>
   <trkpt lat="51.3014030" lon="5.8579210">
    <ele>28.2</ele>
    <time>2019-09-08T07:12:35Z</time>
   </trkpt>
   <trkpt lat="51.3013670" lon="5.8580330">
    <ele>28.2</ele>
    <time>2019-09-08T07:12:36Z</time>
   </trkpt>
   <trkpt lat="51.3013310" lon="5.8581420">
    <ele>28.1</ele>
    <time>2019-09-08T07:12:37Z</time>
   </trkpt>
   <trkpt lat="51.3013050" lon="5.8582520">
    <ele>28.1</ele>
    <time>2019-09-08T07:12:38Z</time>
   </trkpt>
   <trkpt lat="51.3012830" lon="5.8583580">
    <ele>28.1</ele>
    <time>2019-09-08T07:12:39Z</time>
   </trkpt>
   <trkpt lat="51.3012600" lon="5.8584580">
    <ele>28.1</ele>
    <time>2019-09-08T07:12:40Z</time>
   </trkpt>
   <trkpt lat="51.3012370" lon="5.8585560">
    <ele>28.1</ele>
    <time>2019-09-08T07:12:41Z</time>
   </trkpt>
   <trkpt lat="51.3012070" lon="5.8586630">
    <ele>28.1</ele>
    <time>2019-09-08T07:12:42Z</time>
   </trkpt>
   <trkpt lat="51.3011750" lon="5.8587990">
    <ele>28.1</ele>
    <time>2019-09-08T07:12:43Z</time>
   </trkpt>
   <trkpt lat="51.3011490" lon="5.8589120">
    <ele>28.1</ele>
    <time>2019-09-08T07:12:44Z</time>
   </trkpt>
   <trkpt lat="51.3011170" lon="5.8590300">
    <ele>28.1</ele>
    <time>2019-09-08T07:12:45Z</time>
   </trkpt>
   <trkpt lat="51.3010900" lon="5.8591330">
    <ele>28.1</ele>
    <time>2019-09-08T07:12:46Z</time>
   </trkpt>
   <trkpt lat="51.3010700" lon="5.8592290">
    <ele>28.2</ele>
    <time>2019-09-08T07:12:47Z</time>
   </trkpt>
   <trkpt lat="51.3010460" lon="5.8593400">
    <ele>28.2</ele>
    <time>2019-09-08T07:12:48Z</time>
   </trkpt>
   <trkpt lat="51.3010070" lon="5.8594690">
    <ele>28.2</ele>
    <time>2019-09-08T07:12:49Z</time>
   </trkpt>
   <trkpt lat="51.3009830" lon="5.8595890">
    <ele>28.3</ele>
    <time>2019-09-08T07:12:50Z</time>
   </trkpt>
   <trkpt lat="51.3009370" lon="5.8596950">
    <ele>28.4</ele>
    <time>2019-09-08T07:12:51Z</time>
   </trkpt>
   <trkpt lat="51.3009120" lon="5.8598040">
    <ele>28.5</ele>
    <time>2019-09-08T07:12:52Z</time>
   </trkpt>
   <trkpt lat="51.3008790" lon="5.8599190">
    <ele>28.7</ele>
    <time>2019-09-08T07:12:53Z</time>
   </trkpt>
   <trkpt lat="51.3008410" lon="5.8600250">
    <ele>28.8</ele>
    <time>2019-09-08T07:12:54Z</time>
   </trkpt>
   <trkpt lat="51.3008120" lon="5.8601390">
    <ele>29.0</ele>
    <time>2019-09-08T07:12:55Z</time>
   </trkpt>
   <trkpt lat="51.3007830" lon="5.8602570">
    <ele>29.2</ele>
    <time>2019-09-08T07:12:56Z</time>
   </trkpt>
   <trkpt lat="51.3007450" lon="5.8603610">
    <ele>29.5</ele>
    <time>2019-09-08T07:12:57Z</time>
   </trkpt>
   <trkpt lat="51.3007220" lon="5.8604640">
    <ele>29.7</ele>
    <time>2019-09-08T07:12:58Z</time>
   </trkpt>
   <trkpt lat="51.3006970" lon="5.8605760">
    <ele>29.9</ele>
    <time>2019-09-08T07:12:59Z</time>
   </trkpt>
   <trkpt lat="51.3006690" lon="5.8606910">
    <ele>30.1</ele>
    <time>2019-09-08T07:13:00Z</time>
   </trkpt>
   <trkpt lat="51.3006390" lon="5.8608040">
    <ele>30.1</ele>
    <time>2019-09-08T07:13:01Z</time>
   </trkpt>
   <trkpt lat="51.3005950" lon="5.8609150">
    <ele>30.2</ele>
    <time>2019-09-08T07:13:02Z</time>
   </trkpt>
   <trkpt lat="51.3005630" lon="5.8610110">
    <ele>30.2</ele>
    <time>2019-09-08T07:13:03Z</time>
   </trkpt>
   <trkpt lat="51.3005430" lon="5.8611220">
    <ele>30.1</ele>
    <time>2019-09-08T07:13:04Z</time>
   </trkpt>
   <trkpt lat="51.3005170" lon="5.8612480">
    <ele>30.0</ele>
    <time>2019-09-08T07:13:05Z</time>
   </trkpt>
   <trkpt lat="51.3004860" lon="5.8613640">
    <ele>29.8</ele>
    <time>2019-09-08T07:13:06Z</time>
   </trkpt>
   <trkpt lat="51.3004570" lon="5.8614760">
    <ele>29.7</ele>
    <time>2019-09-08T07:13:07Z</time>
   </trkpt>
   <trkpt lat="51.3004300" lon="5.8615820">
    <ele>29.5</ele>
    <time>2019-09-08T07:13:08Z</time>
   </trkpt>
   <trkpt lat="51.3004090" lon="5.8616950">
    <ele>29.4</ele>
    <time>2019-09-08T07:13:09Z</time>
   </trkpt>
   <trkpt lat="51.3003730" lon="5.8618060">
    <ele>29.2</ele>
    <time>2019-09-08T07:13:10Z</time>
   </trkpt>
   <trkpt lat="51.3003400" lon="5.8619030">
    <ele>29.1</ele>
    <time>2019-09-08T07:13:11Z</time>
   </trkpt>
   <trkpt lat="51.3003200" lon="5.8620150">
    <ele>29.0</ele>
    <time>2019-09-08T07:13:12Z</time>
   </trkpt>
   <trkpt lat="51.3002960" lon="5.8621320">
    <ele>28.9</ele>
    <time>2019-09-08T07:13:13Z</time>
   </trkpt>
   <trkpt lat="51.3002620" lon="5.8622500">
    <ele>28.8</ele>
    <time>2019-09-08T07:13:14Z</time>
   </trkpt>
   <trkpt lat="51.3002360" lon="5.8623560">
    <ele>28.7</ele>
    <time>2019-09-08T07:13:15Z</time>
   </trkpt>
   <trkpt lat="51.3002060" lon="5.8624640">
    <ele>28.6</ele>
    <time>2019-09-08T07:13:16Z</time>
   </trkpt>
   <trkpt lat="51.3001810" lon="5.8625700">
    <ele>28.6</ele>
    <time>2019-09-08T07:13:17Z</time>
   </trkpt>
   <trkpt lat="51.3001540" lon="5.8626720">
    <ele>28.6</ele>
    <time>2019-09-08T07:13:18Z</time>
   </trkpt>
   <trkpt lat="51.3001370" lon="5.8627740">
    <ele>28.6</ele>
    <time>2019-09-08T07:13:19Z</time>
   </trkpt>
   <trkpt lat="51.3001110" lon="5.8628870">
    <ele>28.7</ele>
    <time>2019-09-08T07:13:20Z</time>
   </trkpt>
   <trkpt lat="51.3000760" lon="5.8629810">
    <ele>28.9</ele>
    <time>2019-09-08T07:13:21Z</time>
   </trkpt>
   <trkpt lat="51.3000480" lon="5.8630850">
    <ele>29.1</ele>
    <time>2019-09-08T07:13:22Z</time>
   </trkpt>
   <trkpt lat="51.3000280" lon="5.8632010">
    <ele>29.3</ele>
    <time>2019-09-08T07:13:23Z</time>
   </trkpt>
   <trkpt lat="51.3000030" lon="5.8633070">
    <ele>29.5</ele>
    <time>2019-09-08T07:13:24Z</time>
   </trkpt>
   <trkpt lat="51.2999800" lon="5.8634300">
    <ele>29.6</ele>
    <time>2019-09-08T07:13:25Z</time>
   </trkpt>
   <trkpt lat="51.2999510" lon="5.8635510">
    <ele>29.8</ele>
    <time>2019-09-08T07:13:26Z</time>
   </trkpt>
   <trkpt lat="51.2999230" lon="5.8636420">
    <ele>29.8</ele>
    <time>2019-09-08T07:13:27Z</time>
   </trkpt>
   <trkpt lat="51.2998880" lon="5.8637440">
    <ele>29.9</ele>
    <time>2019-09-08T07:13:28Z</time>
   </trkpt>
   <trkpt lat="51.2998580" lon="5.8638770">
    <ele>29.9</ele>
    <time>2019-09-08T07:13:29Z</time>
   </trkpt>
   <trkpt lat="51.2998310" lon="5.8639820">
    <ele>29.8</ele>
    <time>2019-09-08T07:13:30Z</time>
   </trkpt>
   <trkpt lat="51.2997980" lon="5.8640910">
    <ele>29.7</ele>
    <time>2019-09-08T07:13:31Z</time>
   </trkpt>
   <trkpt lat="51.2997660" lon="5.8641950">
    <ele>29.7</ele>
    <time>2019-09-08T07:13:32Z</time>
   </trkpt>
   <trkpt lat="51.2997120" lon="5.8643030">
    <ele>29.7</ele>
    <time>2019-09-08T07:13:33Z</time>
   </trkpt>
   <trkpt lat="51.2996990" lon="5.8644000">
    <ele>29.7</ele>
    <time>2019-09-08T07:13:34Z</time>
   </trkpt>
   <trkpt lat="51.2996730" lon="5.8645110">
    <ele>29.7</ele>
    <time>2019-09-08T07:13:35Z</time>
   </trkpt>
   <trkpt lat="51.2996530" lon="5.8646110">
    <ele>29.7</ele>
    <time>2019-09-08T07:13:36Z</time>
   </trkpt>
   <trkpt lat="51.2996270" lon="5.8647050">
    <ele>29.8</ele>
    <time>2019-09-08T07:13:37Z</time>
   </trkpt>
   <trkpt lat="51.2995920" lon="5.8648090">
    <ele>29.9</ele>
    <time>2019-09-08T07:13:38Z</time>
   </trkpt>
   <trkpt lat="51.2995440" lon="5.8649060">
    <ele>29.9</ele>
    <time>2019-09-08T07:13:39Z</time>
   </trkpt>
   <trkpt lat="51.2995150" lon="5.8650470">
    <ele>30.1</ele>
    <time>2019-09-08T07:13:40Z</time>
   </trkpt>
   <trkpt lat="51.2994850" lon="5.8651690">
    <ele>30.2</ele>
    <time>2019-09-08T07:13:41Z</time>
   </trkpt>
   <trkpt lat="51.2994610" lon="5.8652600">
    <ele>30.3</ele>
    <time>2019-09-08T07:13:42Z</time>
   </trkpt>
   <trkpt lat="51.2994350" lon="5.8653590">
    <ele>30.4</ele>
    <time>2019-09-08T07:13:43Z</time>
   </trkpt>
   <trkpt lat="51.2994160" lon="5.8654790">
    <ele>30.5</ele>
    <time>2019-09-08T07:13:44Z</time>
   </trkpt>
   <trkpt lat="51.2993950" lon="5.8655890">
    <ele>30.6</ele>
    <time>2019-09-08T07:13:45Z</time>
   </trkpt>
   <trkpt lat="51.2993750" lon="5.8656860">
    <ele>30.7</ele>
    <time>2019-09-08T07:13:46Z</time>
   </trkpt>
   <trkpt lat="51.2993360" lon="5.8658080">
    <ele>30.9</ele>
    <time>2019-09-08T07:13:47Z</time>
   </trkpt>
   <trkpt lat="51.2993280" lon="5.8659230">
    <ele>31.0</ele>
    <time>2019-09-08T07:13:48Z</time>
   </trkpt>
   <trkpt lat="51.2993310" lon="5.8659870">
    <ele>31.1</ele>
    <time>2019-09-08T07:13:49Z</time>
   </trkpt>
   <trkpt lat="51.2992950" lon="5.8661460">
    <ele>31.4</ele>
    <time>2019-09-08T07:13:50Z</time>
   </trkpt>
   <trkpt lat="51.2992720" lon="5.8662460">
    <ele>31.6</ele>
    <time>2019-09-08T07:13:51Z</time>
   </trkpt>
   <trkpt lat="51.2992560" lon="5.8663280">
    <ele>31.7</ele>
    <time>2019-09-08T07:13:52Z</time>
   </trkpt>
   <trkpt lat="51.2992160" lon="5.8664190">
    <ele>31.9</ele>
    <time>2019-09-08T07:13:53Z</time>
   </trkpt>
   <trkpt lat="51.2991890" lon="5.8665350">
    <ele>32.0</ele>
    <time>2019-09-08T07:13:54Z</time>
   </trkpt>
   <trkpt lat="51.2991560" lon="5.8666190">
    <ele>32.2</ele>
    <time>2019-09-08T07:13:55Z</time>
   </trkpt>
   <trkpt lat="51.2991400" lon="5.8666960">
    <ele>32.3</ele>
    <time>2019-09-08T07:13:56Z</time>
   </trkpt>
   <trkpt lat="51.2991290" lon="5.8667890">
    <ele>32.4</ele>
    <time>2019-09-08T07:13:57Z</time>
   </trkpt>
   <trkpt lat="51.2991200" lon="5.8668920">
    <ele>32.5</ele>
    <time>2019-09-08T07:13:58Z</time>
   </trkpt>
   <trkpt lat="51.2990860" lon="5.8669720">
    <ele>32.6</ele>
    <time>2019-09-08T07:13:59Z</time>
   </trkpt>
   <trkpt lat="51.2990720" lon="5.8670520">
    <ele>32.7</ele>
    <time>2019-09-08T07:14:00Z</time>
   </trkpt>
   <trkpt lat="51.2990800" lon="5.8671230">
    <ele>32.9</ele>
    <time>2019-09-08T07:14:01Z</time>
   </trkpt>
   <trkpt lat="51.2991160" lon="5.8671810">
    <ele>32.8</ele>
    <time>2019-09-08T07:14:02Z</time>
   </trkpt>
   <trkpt lat="51.2991860" lon="5.8672120">
    <ele>32.8</ele>
    <time>2019-09-08T07:14:03Z</time>
   </trkpt>
   <trkpt lat="51.2992390" lon="5.8672510">
    <ele>32.7</ele>
    <time>2019-09-08T07:14:04Z</time>
   </trkpt>
   <trkpt lat="51.2992930" lon="5.8672390">
    <ele>32.7</ele>
    <time>2019-09-08T07:14:05Z</time>
   </trkpt>
   <trkpt lat="51.2993560" lon="5.8672750">
    <ele>32.7</ele>
    <time>2019-09-08T07:14:06Z</time>
   </trkpt>
   <trkpt lat="51.2994170" lon="5.8673060">
    <ele>32.7</ele>
    <time>2019-09-08T07:14:07Z</time>
   </trkpt>
   <trkpt lat="51.2994840" lon="5.8673520">
    <ele>32.6</ele>
    <time>2019-09-08T07:14:08Z</time>
   </trkpt>
   <trkpt lat="51.2995560" lon="5.8673810">
    <ele>32.6</ele>
    <time>2019-09-08T07:14:09Z</time>
   </trkpt>
   <trkpt lat="51.2996260" lon="5.8674080">
    <ele>32.6</ele>
    <time>2019-09-08T07:14:10Z</time>
   </trkpt>
   <trkpt lat="51.2996910" lon="5.8674330">
    <ele>32.6</ele>
    <time>2019-09-08T07:14:11Z</time>
   </trkpt>
   <trkpt lat="51.2997470" lon="5.8674360">
    <ele>32.5</ele>
    <time>2019-09-08T07:14:12Z</time>
   </trkpt>
   <trkpt lat="51.2998180" lon="5.8674830">
    <ele>32.5</ele>
    <time>2019-09-08T07:14:13Z</time>
   </trkpt>
   <trkpt lat="51.2998770" lon="5.8675070">
    <ele>32.5</ele>
    <time>2019-09-08T07:14:14Z</time>
   </trkpt>
   <trkpt lat="51.2999490" lon="5.8675440">
    <ele>32.4</ele>
    <time>2019-09-08T07:14:15Z</time>
   </trkpt>
   <trkpt lat="51.3000190" lon="5.8675760">
    <ele>32.4</ele>
    <time>2019-09-08T07:14:16Z</time>
   </trkpt>
   <trkpt lat="51.3000850" lon="5.8676140">
    <ele>32.3</ele>
    <time>2019-09-08T07:14:17Z</time>
   </trkpt>
   <trkpt lat="51.3001520" lon="5.8676420">
    <ele>32.3</ele>
    <time>2019-09-08T07:14:18Z</time>
   </trkpt>
   <trkpt lat="51.3002230" lon="5.8676780">
    <ele>32.2</ele>
    <time>2019-09-08T07:14:19Z</time>
   </trkpt>
   <trkpt lat="51.3002890" lon="5.8677010">
    <ele>32.2</ele>
    <time>2019-09-08T07:14:20Z</time>
   </trkpt>
   <trkpt lat="51.3003580" lon="5.8677380">
    <ele>32.1</ele>
    <time>2019-09-08T07:14:21Z</time>
   </trkpt>
   <trkpt lat="51.3004220" lon="5.8677640">
    <ele>32.1</ele>
    <time>2019-09-08T07:14:22Z</time>
   </trkpt>
   <trkpt lat="51.3004920" lon="5.8678000">
    <ele>32.1</ele>
    <time>2019-09-08T07:14:23Z</time>
   </trkpt>
   <trkpt lat="51.3005690" lon="5.8678450">
    <ele>32.0</ele>
    <time>2019-09-08T07:14:24Z</time>
   </trkpt>
   <trkpt lat="51.3006360" lon="5.8678850">
    <ele>32.0</ele>
    <time>2019-09-08T07:14:25Z</time>
   </trkpt>
   <trkpt lat="51.3007160" lon="5.8679240">
    <ele>31.9</ele>
    <time>2019-09-08T07:14:26Z</time>
   </trkpt>
   <trkpt lat="51.3007850" lon="5.8679490">
    <ele>31.9</ele>
    <time>2019-09-08T07:14:27Z</time>
   </trkpt>
   <trkpt lat="51.3008590" lon="5.8679910">
    <ele>31.9</ele>
    <time>2019-09-08T07:14:28Z</time>
   </trkpt>
   <trkpt lat="51.3009250" lon="5.8680310">
    <ele>31.8</ele>
    <time>2019-09-08T07:14:29Z</time>
   </trkpt>
   <trkpt lat="51.3009880" lon="5.8680550">
    <ele>31.8</ele>
    <time>2019-09-08T07:14:30Z</time>
   </trkpt>
   <trkpt lat="51.3010540" lon="5.8680840">
    <ele>31.8</ele>
    <time>2019-09-08T07:14:31Z</time>
   </trkpt>
   <trkpt lat="51.3011250" lon="5.8681210">
    <ele>31.7</ele>
    <time>2019-09-08T07:14:32Z</time>
   </trkpt>
   <trkpt lat="51.3012030" lon="5.8681690">
    <ele>31.7</ele>
    <time>2019-09-08T07:14:33Z</time>
   </trkpt>
   <trkpt lat="51.3012700" lon="5.8682020">
    <ele>31.7</ele>
    <time>2019-09-08T07:14:34Z</time>
   </trkpt>
   <trkpt lat="51.3013270" lon="5.8682290">
    <ele>31.6</ele>
    <time>2019-09-08T07:14:35Z</time>
   </trkpt>
   <trkpt lat="51.3013940" lon="5.8682710">
    <ele>31.6</ele>
    <time>2019-09-08T07:14:36Z</time>
   </trkpt>
   <trkpt lat="51.3014530" lon="5.8683080">
    <ele>31.6</ele>
    <time>2019-09-08T07:14:37Z</time>
   </trkpt>
   <trkpt lat="51.3015360" lon="5.8683500">
    <ele>31.5</ele>
    <time>2019-09-08T07:14:38Z</time>
   </trkpt>
   <trkpt lat="51.3016120" lon="5.8683990">
    <ele>31.5</ele>
    <time>2019-09-08T07:14:39Z</time>
   </trkpt>
   <trkpt lat="51.3016790" lon="5.8684380">
    <ele>31.5</ele>
    <time>2019-09-08T07:14:40Z</time>
   </trkpt>
   <trkpt lat="51.3017560" lon="5.8684780">
    <ele>31.4</ele>
    <time>2019-09-08T07:14:41Z</time>
   </trkpt>
   <trkpt lat="51.3018220" lon="5.8685130">
    <ele>31.4</ele>
    <time>2019-09-08T07:14:42Z</time>
   </trkpt>
   <trkpt lat="51.3019020" lon="5.8685580">
    <ele>31.3</ele>
    <time>2019-09-08T07:14:43Z</time>
   </trkpt>
   <trkpt lat="51.3019850" lon="5.8686200">
    <ele>31.3</ele>
    <time>2019-09-08T07:14:44Z</time>
   </trkpt>
   <trkpt lat="51.3020560" lon="5.8686590">
    <ele>31.3</ele>
    <time>2019-09-08T07:14:45Z</time>
   </trkpt>
   <trkpt lat="51.3021160" lon="5.8686820">
    <ele>31.3</ele>
    <time>2019-09-08T07:14:46Z</time>
   </trkpt>
   <trkpt lat="51.3021940" lon="5.8687040">
    <ele>31.2</ele>
    <time>2019-09-08T07:14:47Z</time>
   </trkpt>
   <trkpt lat="51.3022730" lon="5.8687230">
    <ele>31.2</ele>
    <time>2019-09-08T07:14:48Z</time>
   </trkpt>
   <trkpt lat="51.3023340" lon="5.8687510">
    <ele>31.3</ele>
    <time>2019-09-08T07:14:49Z</time>
   </trkpt>
   <trkpt lat="51.3024130" lon="5.8687940">
    <ele>31.3</ele>
    <time>2019-09-08T07:14:50Z</time>
   </trkpt>
   <trkpt lat="51.3024920" lon="5.8688460">
    <ele>31.5</ele>
    <time>2019-09-08T07:14:51Z</time>
   </trkpt>
   <trkpt lat="51.3025600" lon="5.8688890">
    <ele>31.6</ele>
    <time>2019-09-08T07:14:52Z</time>
   </trkpt>
   <trkpt lat="51.3026310" lon="5.8689280">
    <ele>31.8</ele>
    <time>2019-09-08T07:14:53Z</time>
   </trkpt>
   <trkpt lat="51.3026930" lon="5.8689540">
    <ele>31.9</ele>
    <time>2019-09-08T07:14:54Z</time>
   </trkpt>
   <trkpt lat="51.3027540" lon="5.8689840">
    <ele>32.0</ele>
    <time>2019-09-08T07:14:55Z</time>
   </trkpt>
   <trkpt lat="51.3028200" lon="5.8690200">
    <ele>32.1</ele>
    <time>2019-09-08T07:14:56Z</time>
   </trkpt>
   <trkpt lat="51.3028880" lon="5.8690550">
    <ele>32.2</ele>
    <time>2019-09-08T07:14:57Z</time>
   </trkpt>
   <trkpt lat="51.3029570" lon="5.8690810">
    <ele>32.2</ele>
    <time>2019-09-08T07:14:58Z</time>
   </trkpt>
   <trkpt lat="51.3030310" lon="5.8691240">
    <ele>32.2</ele>
    <time>2019-09-08T07:14:59Z</time>
   </trkpt>
   <trkpt lat="51.3031010" lon="5.8691670">
    <ele>32.1</ele>
    <time>2019-09-08T07:15:00Z</time>
   </trkpt>
   <trkpt lat="51.3031710" lon="5.8692090">
    <ele>32.1</ele>
    <time>2019-09-08T07:15:01Z</time>
   </trkpt>
   <trkpt lat="51.3032470" lon="5.8692480">
    <ele>32.1</ele>
    <time>2019-09-08T07:15:02Z</time>
   </trkpt>
   <trkpt lat="51.3033160" lon="5.8692850">
    <ele>32.1</ele>
    <time>2019-09-08T07:15:03Z</time>
   </trkpt>
   <trkpt lat="51.3033820" lon="5.8693290">
    <ele>32.1</ele>
    <time>2019-09-08T07:15:04Z</time>
   </trkpt>
   <trkpt lat="51.3034510" lon="5.8693620">
    <ele>32.1</ele>
    <time>2019-09-08T07:15:05Z</time>
   </trkpt>
   <trkpt lat="51.3035250" lon="5.8693950">
    <ele>32.1</ele>
    <time>2019-09-08T07:15:06Z</time>
   </trkpt>
   <trkpt lat="51.3035870" lon="5.8694280">
    <ele>32.1</ele>
    <time>2019-09-08T07:15:07Z</time>
   </trkpt>
   <trkpt lat="51.3036520" lon="5.8694750">
    <ele>32.0</ele>
    <time>2019-09-08T07:15:08Z</time>
   </trkpt>
   <trkpt lat="51.3037230" lon="5.8695330">
    <ele>32.0</ele>
    <time>2019-09-08T07:15:09Z</time>
   </trkpt>
   <trkpt lat="51.3037890" lon="5.8696050">
    <ele>31.9</ele>
    <time>2019-09-08T07:15:10Z</time>
   </trkpt>
   <trkpt lat="51.3038390" lon="5.8696850">
    <ele>31.8</ele>
    <time>2019-09-08T07:15:11Z</time>
   </trkpt>
   <trkpt lat="51.3038890" lon="5.8697610">
    <ele>31.7</ele>
    <time>2019-09-08T07:15:12Z</time>
   </trkpt>
   <trkpt lat="51.3039440" lon="5.8698560">
    <ele>31.6</ele>
    <time>2019-09-08T07:15:13Z</time>
   </trkpt>
   <trkpt lat="51.3039850" lon="5.8699500">
    <ele>31.6</ele>
    <time>2019-09-08T07:15:14Z</time>
   </trkpt>
   <trkpt lat="51.3040230" lon="5.8700450">
    <ele>31.5</ele>
    <time>2019-09-08T07:15:15Z</time>
   </trkpt>
   <trkpt lat="51.3040640" lon="5.8701590">
    <ele>31.5</ele>
    <time>2019-09-08T07:15:16Z</time>
   </trkpt>
   <trkpt lat="51.3041050" lon="5.8702910">
    <ele>31.5</ele>
    <time>2019-09-08T07:15:17Z</time>
   </trkpt>
   <trkpt lat="51.3041340" lon="5.8704130">
    <ele>31.6</ele>
    <time>2019-09-08T07:15:18Z</time>
   </trkpt>
   <trkpt lat="51.3041680" lon="5.8705430">
    <ele>31.6</ele>
    <time>2019-09-08T07:15:19Z</time>
   </trkpt>
   <trkpt lat="51.3041970" lon="5.8706510">
    <ele>31.6</ele>
    <time>2019-09-08T07:15:20Z</time>
   </trkpt>
   <trkpt lat="51.3042220" lon="5.8707550">
    <ele>31.7</ele>
    <time>2019-09-08T07:15:21Z</time>
   </trkpt>
   <trkpt lat="51.3042480" lon="5.8708640">
    <ele>31.7</ele>
    <time>2019-09-08T07:15:22Z</time>
   </trkpt>
   <trkpt lat="51.3042800" lon="5.8709760">
    <ele>31.7</ele>
    <time>2019-09-08T07:15:23Z</time>
   </trkpt>
   <trkpt lat="51.3042960" lon="5.8710830">
    <ele>31.7</ele>
    <time>2019-09-08T07:15:24Z</time>
   </trkpt>
   <trkpt lat="51.3043190" lon="5.8711930">
    <ele>31.8</ele>
    <time>2019-09-08T07:15:25Z</time>
   </trkpt>
   <trkpt lat="51.3043400" lon="5.8713070">
    <ele>32.0</ele>
    <time>2019-09-08T07:15:26Z</time>
   </trkpt>
   <trkpt lat="51.3043720" lon="5.8714210">
    <ele>32.1</ele>
    <time>2019-09-08T07:15:27Z</time>
   </trkpt>
   <trkpt lat="51.3044010" lon="5.8715210">
    <ele>32.2</ele>
    <time>2019-09-08T07:15:28Z</time>
   </trkpt>
   <trkpt lat="51.3044250" lon="5.8716330">
    <ele>32.2</ele>
    <time>2019-09-08T07:15:29Z</time>
   </trkpt>
   <trkpt lat="51.3044530" lon="5.8717410">
    <ele>32.2</ele>
    <time>2019-09-08T07:15:30Z</time>
   </trkpt>
   <trkpt lat="51.3044820" lon="5.8718570">
    <ele>32.0</ele>
    <time>2019-09-08T07:15:31Z</time>
   </trkpt>
   <trkpt lat="51.3045060" lon="5.8719810">
    <ele>31.9</ele>
    <time>2019-09-08T07:15:32Z</time>
   </trkpt>
   <trkpt lat="51.3045360" lon="5.8720930">
    <ele>31.8</ele>
    <time>2019-09-08T07:15:33Z</time>
   </trkpt>
   <trkpt lat="51.3045620" lon="5.8721980">
    <ele>31.7</ele>
    <time>2019-09-08T07:15:34Z</time>
   </trkpt>
   <trkpt lat="51.3045880" lon="5.8722910">
    <ele>31.6</ele>
    <time>2019-09-08T07:15:35Z</time>
   </trkpt>
   <trkpt lat="51.3046060" lon="5.8723900">
    <ele>31.6</ele>
    <time>2019-09-08T07:15:36Z</time>
   </trkpt>
   <trkpt lat="51.3046260" lon="5.8725040">
    <ele>31.6</ele>
    <time>2019-09-08T07:15:37Z</time>
   </trkpt>
   <trkpt lat="51.3046520" lon="5.8726180">
    <ele>31.6</ele>
    <time>2019-09-08T07:15:38Z</time>
   </trkpt>
   <trkpt lat="51.3046830" lon="5.8727350">
    <ele>31.7</ele>
    <time>2019-09-08T07:15:39Z</time>
   </trkpt>
   <trkpt lat="51.3047110" lon="5.8728580">
    <ele>31.8</ele>
    <time>2019-09-08T07:15:40Z</time>
   </trkpt>
   <trkpt lat="51.3047450" lon="5.8729600">
    <ele>31.9</ele>
    <time>2019-09-08T07:15:41Z</time>
   </trkpt>
   <trkpt lat="51.3047710" lon="5.8730670">
    <ele>32.0</ele>
    <time>2019-09-08T07:15:42Z</time>
   </trkpt>
   <trkpt lat="51.3047930" lon="5.8731820">
    <ele>32.1</ele>
    <time>2019-09-08T07:15:43Z</time>
   </trkpt>
   <trkpt lat="51.3048250" lon="5.8732900">
    <ele>32.2</ele>
    <time>2019-09-08T07:15:44Z</time>
   </trkpt>
   <trkpt lat="51.3048510" lon="5.8733960">
    <ele>32.4</ele>
    <time>2019-09-08T07:15:45Z</time>
   </trkpt>
   <trkpt lat="51.3048790" lon="5.8734980">
    <ele>32.5</ele>
    <time>2019-09-08T07:15:46Z</time>
   </trkpt>
   <trkpt lat="51.3049080" lon="5.8735940">
    <ele>32.5</ele>
    <time>2019-09-08T07:15:47Z</time>
   </trkpt>
   <trkpt lat="51.3049380" lon="5.8736910">
    <ele>32.6</ele>
    <time>2019-09-08T07:15:48Z</time>
   </trkpt>
   <trkpt lat="51.3049590" lon="5.8738020">
    <ele>32.6</ele>
    <time>2019-09-08T07:15:49Z</time>
   </trkpt>
   <trkpt lat="51.3049830" lon="5.8739030">
    <ele>32.6</ele>
    <time>2019-09-08T07:15:50Z</time>
   </trkpt>
   <trkpt lat="51.3050170" lon="5.8740040">
    <ele>32.6</ele>
    <time>2019-09-08T07:15:51Z</time>
   </trkpt>
   <trkpt lat="51.3050420" lon="5.8741240">
    <ele>32.6</ele>
    <time>2019-09-08T07:15:52Z</time>
   </trkpt>
   <trkpt lat="51.3050730" lon="5.8742310">
    <ele>32.6</ele>
    <time>2019-09-08T07:15:53Z</time>
   </trkpt>
   <trkpt lat="51.3051010" lon="5.8743400">
    <ele>32.5</ele>
    <time>2019-09-08T07:15:54Z</time>
   </trkpt>
   <trkpt lat="51.3051120" lon="5.8744600">
    <ele>32.5</ele>
    <time>2019-09-08T07:15:55Z</time>
   </trkpt>
   <trkpt lat="51.3051500" lon="5.8745710">
    <ele>32.5</ele>
    <time>2019-09-08T07:15:56Z</time>
   </trkpt>
   <trkpt lat="51.3051820" lon="5.8746700">
    <ele>32.4</ele>
    <time>2019-09-08T07:15:57Z</time>
   </trkpt>
   <trkpt lat="51.3051800" lon="5.8747740">
    <ele>32.4</ele>
    <time>2019-09-08T07:15:58Z</time>
   </trkpt>
   <trkpt lat="51.3052080" lon="5.8748870">
    <ele>32.5</ele>
    <time>2019-09-08T07:15:59Z</time>
   </trkpt>
   <trkpt lat="51.3052350" lon="5.8750040">
    <ele>32.5</ele>
    <time>2019-09-08T07:16:00Z</time>
   </trkpt>
   <trkpt lat="51.3052660" lon="5.8751130">
    <ele>32.5</ele>
    <time>2019-09-08T07:16:01Z</time>
   </trkpt>
   <trkpt lat="51.3052880" lon="5.8752400">
    <ele>32.5</ele>
    <time>2019-09-08T07:16:02Z</time>
   </trkpt>
   <trkpt lat="51.3053180" lon="5.8753410">
    <ele>32.4</ele>
    <time>2019-09-08T07:16:03Z</time>
   </trkpt>
   <trkpt lat="51.3053500" lon="5.8754670">
    <ele>32.3</ele>
    <time>2019-09-08T07:16:04Z</time>
   </trkpt>
   <trkpt lat="51.3053890" lon="5.8755590">
    <ele>32.3</ele>
    <time>2019-09-08T07:16:05Z</time>
   </trkpt>
   <trkpt lat="51.3054160" lon="5.8756670">
    <ele>32.2</ele>
    <time>2019-09-08T07:16:06Z</time>
   </trkpt>
   <trkpt lat="51.3054420" lon="5.8757700">
    <ele>32.1</ele>
    <time>2019-09-08T07:16:07Z</time>
   </trkpt>
   <trkpt lat="51.3054610" lon="5.8758650">
    <ele>32.0</ele>
    <time>2019-09-08T07:16:08Z</time>
   </trkpt>
   <trkpt lat="51.3054810" lon="5.8759690">
    <ele>31.9</ele>
    <time>2019-09-08T07:16:09Z</time>
   </trkpt>
   <trkpt lat="51.3055070" lon="5.8760800">
    <ele>31.8</ele>
    <time>2019-09-08T07:16:10Z</time>
   </trkpt>
   <trkpt lat="51.3055330" lon="5.8761850">
    <ele>31.7</ele>
    <time>2019-09-08T07:16:11Z</time>
   </trkpt>
   <trkpt lat="51.3055600" lon="5.8762940">
    <ele>31.6</ele>
    <time>2019-09-08T07:16:12Z</time>
   </trkpt>
   <trkpt lat="51.3055750" lon="5.8764290">
    <ele>31.4</ele>
    <time>2019-09-08T07:16:13Z</time>
   </trkpt>
   <trkpt lat="51.3056060" lon="5.8765460">
    <ele>31.3</ele>
    <time>2019-09-08T07:16:14Z</time>
   </trkpt>
   <trkpt lat="51.3056170" lon="5.8766410">
    <ele>31.2</ele>
    <time>2019-09-08T07:16:15Z</time>
   </trkpt>
   <trkpt lat="51.3056330" lon="5.8767350">
    <ele>31.1</ele>
    <time>2019-09-08T07:16:16Z</time>
   </trkpt>
   <trkpt lat="51.3056590" lon="5.8768530">
    <ele>31.0</ele>
    <time>2019-09-08T07:16:17Z</time>
   </trkpt>
   <trkpt lat="51.3056760" lon="5.8769550">
    <ele>30.8</ele>
    <time>2019-09-08T07:16:18Z</time>
   </trkpt>
   <trkpt lat="51.3057100" lon="5.8770570">
    <ele>30.7</ele>
    <time>2019-09-08T07:16:19Z</time>
   </trkpt>
   <trkpt lat="51.3057320" lon="5.8771810">
    <ele>30.6</ele>
    <time>2019-09-08T07:16:20Z</time>
   </trkpt>
   <trkpt lat="51.3057530" lon="5.8772810">
    <ele>30.5</ele>
    <time>2019-09-08T07:16:21Z</time>
   </trkpt>
   <trkpt lat="51.3057770" lon="5.8773730">
    <ele>30.4</ele>
    <time>2019-09-08T07:16:22Z</time>
   </trkpt>
   <trkpt lat="51.3058020" lon="5.8774770">
    <ele>30.4</ele>
    <time>2019-09-08T07:16:23Z</time>
   </trkpt>
   <trkpt lat="51.3058340" lon="5.8776150">
    <ele>30.3</ele>
    <time>2019-09-08T07:16:24Z</time>
   </trkpt>
   <trkpt lat="51.3058690" lon="5.8777420">
    <ele>30.3</ele>
    <time>2019-09-08T07:16:25Z</time>
   </trkpt>
   <trkpt lat="51.3059060" lon="5.8778540">
    <ele>30.3</ele>
    <time>2019-09-08T07:16:26Z</time>
   </trkpt>
   <trkpt lat="51.3059290" lon="5.8779570">
    <ele>30.2</ele>
    <time>2019-09-08T07:16:27Z</time>
   </trkpt>
   <trkpt lat="51.3059460" lon="5.8780590">
    <ele>30.2</ele>
    <time>2019-09-08T07:16:28Z</time>
   </trkpt>
   <trkpt lat="51.3059790" lon="5.8781450">
    <ele>30.2</ele>
    <time>2019-09-08T07:16:29Z</time>
   </trkpt>
   <trkpt lat="51.3060070" lon="5.8782510">
    <ele>30.2</ele>
    <time>2019-09-08T07:16:30Z</time>
   </trkpt>
   <trkpt lat="51.3060430" lon="5.8783510">
    <ele>30.1</ele>
    <time>2019-09-08T07:16:31Z</time>
   </trkpt>
   <trkpt lat="51.3060760" lon="5.8784710">
    <ele>30.1</ele>
    <time>2019-09-08T07:16:32Z</time>
   </trkpt>
   <trkpt lat="51.3061000" lon="5.8785780">
    <ele>30.1</ele>
    <time>2019-09-08T07:16:33Z</time>
   </trkpt>
   <trkpt lat="51.3061330" lon="5.8786930">
    <ele>30.1</ele>
    <time>2019-09-08T07:16:34Z</time>
   </trkpt>
   <trkpt lat="51.3061600" lon="5.8788000">
    <ele>30.1</ele>
    <time>2019-09-08T07:16:35Z</time>
   </trkpt>
   <trkpt lat="51.3061770" lon="5.8788990">
    <ele>30.1</ele>
    <time>2019-09-08T07:16:36Z</time>
   </trkpt>
   <trkpt lat="51.3061990" lon="5.8789860">
    <ele>30.1</ele>
    <time>2019-09-08T07:16:37Z</time>
   </trkpt>
   <trkpt lat="51.3062120" lon="5.8791040">
    <ele>30.2</ele>
    <time>2019-09-08T07:16:38Z</time>
   </trkpt>
   <trkpt lat="51.3062410" lon="5.8792120">
    <ele>30.2</ele>
    <time>2019-09-08T07:16:39Z</time>
   </trkpt>
   <trkpt lat="51.3062730" lon="5.8793230">
    <ele>30.2</ele>
    <time>2019-09-08T07:16:40Z</time>
   </trkpt>
   <trkpt lat="51.3063050" lon="5.8794260">
    <ele>30.2</ele>
    <time>2019-09-08T07:16:41Z</time>
   </trkpt>
   <trkpt lat="51.3063320" lon="5.8795250">
    <ele>30.2</ele>
    <time>2019-09-08T07:16:42Z</time>
   </trkpt>
   <trkpt lat="51.3063590" lon="5.8796140">
    <ele>30.2</ele>
    <time>2019-09-08T07:16:43Z</time>
   </trkpt>
   <trkpt lat="51.3063830" lon="5.8797150">
    <ele>30.2</ele>
    <time>2019-09-08T07:16:44Z</time>
   </trkpt>
   <trkpt lat="51.3064030" lon="5.8798240">
    <ele>30.2</ele>
    <time>2019-09-08T07:16:45Z</time>
   </trkpt>
   <trkpt lat="51.3064300" lon="5.8799430">
    <ele>30.2</ele>
    <time>2019-09-08T07:16:46Z</time>
   </trkpt>
   <trkpt lat="51.3064460" lon="5.8800590">
    <ele>30.2</ele>
    <time>2019-09-08T07:16:47Z</time>
   </trkpt>
   <trkpt lat="51.3064470" lon="5.8801650">
    <ele>30.1</ele>
    <time>2019-09-08T07:16:48Z</time>
   </trkpt>
   <trkpt lat="51.3064260" lon="5.8802440">
    <ele>30.1</ele>
    <time>2019-09-08T07:16:49Z</time>
   </trkpt>
   <trkpt lat="51.3063880" lon="5.8802790">
    <ele>30.1</ele>
    <time>2019-09-08T07:16:50Z</time>
   </trkpt>
   <trkpt lat="51.3063320" lon="5.8802910">
    <ele>30.1</ele>
    <time>2019-09-08T07:16:51Z</time>
   </trkpt>
   <trkpt lat="51.3062670" lon="5.8802940">
    <ele>30.1</ele>
    <time>2019-09-08T07:16:52Z</time>
   </trkpt>
   <trkpt lat="51.3062000" lon="5.8803000">
    <ele>30.1</ele>
    <time>2019-09-08T07:16:53Z</time>
   </trkpt>
   <trkpt lat="51.3061390" lon="5.8802990">
    <ele>30.1</ele>
    <time>2019-09-08T07:16:54Z</time>
   </trkpt>
   <trkpt lat="51.3060680" lon="5.8803030">
    <ele>30.0</ele>
    <time>2019-09-08T07:16:55Z</time>
   </trkpt>
   <trkpt lat="51.3059930" lon="5.8803100">
    <ele>30.0</ele>
    <time>2019-09-08T07:16:56Z</time>
   </trkpt>
   <trkpt lat="51.3059240" lon="5.8803180">
    <ele>29.9</ele>
    <time>2019-09-08T07:16:57Z</time>
   </trkpt>
   <trkpt lat="51.3058580" lon="5.8803170">
    <ele>29.8</ele>
    <time>2019-09-08T07:16:58Z</time>
   </trkpt>
   <trkpt lat="51.3057840" lon="5.8803340">
    <ele>29.8</ele>
    <time>2019-09-08T07:16:59Z</time>
   </trkpt>
   <trkpt lat="51.3057140" lon="5.8803340">
    <ele>29.7</ele>
    <time>2019-09-08T07:17:00Z</time>
   </trkpt>
   <trkpt lat="51.3056500" lon="5.8803530">
    <ele>29.7</ele>
    <time>2019-09-08T07:17:01Z</time>
   </trkpt>
   <trkpt lat="51.3055810" lon="5.8803570">
    <ele>29.6</ele>
    <time>2019-09-08T07:17:02Z</time>
   </trkpt>
   <trkpt lat="51.3055150" lon="5.8803610">
    <ele>29.6</ele>
    <time>2019-09-08T07:17:03Z</time>
   </trkpt>
   <trkpt lat="51.3054480" lon="5.8803690">
    <ele>29.6</ele>
    <time>2019-09-08T07:17:04Z</time>
   </trkpt>
   <trkpt lat="51.3053840" lon="5.8803740">
    <ele>29.6</ele>
    <time>2019-09-08T07:17:05Z</time>
   </trkpt>
   <trkpt lat="51.3053350" lon="5.8803790">
    <ele>29.5</ele>
    <time>2019-09-08T07:17:06Z</time>
   </trkpt>
   <trkpt lat="51.3052890" lon="5.8803870">
    <ele>29.5</ele>
    <time>2019-09-08T07:17:07Z</time>
   </trkpt>
   <trkpt lat="51.3052490" lon="5.8803950">
    <ele>29.5</ele>
    <time>2019-09-08T07:17:08Z</time>
   </trkpt>
   <trkpt lat="51.3052140" lon="5.8804010">
    <ele>29.5</ele>
    <time>2019-09-08T07:17:09Z</time>
   </trkpt>
   <trkpt lat="51.3051820" lon="5.8803990">
    <ele>29.5</ele>
    <time>2019-09-08T07:17:10Z</time>
   </trkpt>
   <trkpt lat="51.3051360" lon="5.8804000">
    <ele>29.5</ele>
    <time>2019-09-08T07:17:12Z</time>
   </trkpt>
   <trkpt lat="51.3050860" lon="5.8803930">
    <ele>29.4</ele>
    <time>2019-09-08T07:17:15Z</time>
   </trkpt>
   <trkpt lat="51.3050700" lon="5.8804290">
    <ele>29.4</ele>
    <time>2019-09-08T07:17:20Z</time>
   </trkpt>
   <trkpt lat="51.3049960" lon="5.8804250">
    <ele>29.4</ele>
    <time>2019-09-08T07:24:23Z</time>
   </trkpt>
   <trkpt lat="51.3049490" lon="5.8804300">
    <ele>29.4</ele>
    <time>2019-09-08T07:24:25Z</time>
   </trkpt>
   <trkpt lat="51.3048980" lon="5.8804380">
    <ele>29.4</ele>
    <time>2019-09-08T07:24:27Z</time>
   </trkpt>
   <trkpt lat="51.3048690" lon="5.8804390">
    <ele>29.5</ele>
    <time>2019-09-08T07:24:28Z</time>
   </trkpt>
   <trkpt lat="51.3048360" lon="5.8804410">
    <ele>29.5</ele>
    <time>2019-09-08T07:24:29Z</time>
   </trkpt>
   <trkpt lat="51.3048010" lon="5.8804420">
    <ele>29.5</ele>
    <time>2019-09-08T07:24:30Z</time>
   </trkpt>
   <trkpt lat="51.3047620" lon="5.8804450">
    <ele>29.5</ele>
    <time>2019-09-08T07:24:31Z</time>
   </trkpt>
   <trkpt lat="51.3047190" lon="5.8804520">
    <ele>29.6</ele>
    <time>2019-09-08T07:24:32Z</time>
   </trkpt>
   <trkpt lat="51.3046650" lon="5.8804530">
    <ele>29.6</ele>
    <time>2019-09-08T07:24:33Z</time>
   </trkpt>
   <trkpt lat="51.3046070" lon="5.8804590">
    <ele>29.7</ele>
    <time>2019-09-08T07:24:34Z</time>
   </trkpt>
   <trkpt lat="51.3045620" lon="5.8804620">
    <ele>29.8</ele>
    <time>2019-09-08T07:24:35Z</time>
   </trkpt>
   <trkpt lat="51.3045120" lon="5.8804620">
    <ele>29.9</ele>
    <time>2019-09-08T07:24:36Z</time>
   </trkpt>
   <trkpt lat="51.3044610" lon="5.8804570">
    <ele>30.0</ele>
    <time>2019-09-08T07:24:37Z</time>
   </trkpt>
   <trkpt lat="51.3044120" lon="5.8804570">
    <ele>30.1</ele>
    <time>2019-09-08T07:24:38Z</time>
   </trkpt>
   <trkpt lat="51.3043560" lon="5.8804680">
    <ele>30.2</ele>
    <time>2019-09-08T07:24:39Z</time>
   </trkpt>
   <trkpt lat="51.3042770" lon="5.8804790">
    <ele>30.3</ele>
    <time>2019-09-08T07:24:40Z</time>
   </trkpt>
   <trkpt lat="51.3042300" lon="5.8804880">
    <ele>30.4</ele>
    <time>2019-09-08T07:24:41Z</time>
   </trkpt>
   <trkpt lat="51.3041630" lon="5.8805010">
    <ele>30.4</ele>
    <time>2019-09-08T07:24:42Z</time>
   </trkpt>
   <trkpt lat="51.3041100" lon="5.8805110">
    <ele>30.5</ele>
    <time>2019-09-08T07:24:43Z</time>
   </trkpt>
   <trkpt lat="51.3040470" lon="5.8805080">
    <ele>30.5</ele>
    <time>2019-09-08T07:24:44Z</time>
   </trkpt>
   <trkpt lat="51.3039820" lon="5.8805200">
    <ele>30.5</ele>
    <time>2019-09-08T07:24:45Z</time>
   </trkpt>
   <trkpt lat="51.3039110" lon="5.8805280">
    <ele>30.6</ele>
    <time>2019-09-08T07:24:46Z</time>
   </trkpt>
   <trkpt lat="51.3038410" lon="5.8805410">
    <ele>30.6</ele>
    <time>2019-09-08T07:24:47Z</time>
   </trkpt>
   <trkpt lat="51.3037800" lon="5.8805670">
    <ele>30.6</ele>
    <time>2019-09-08T07:24:48Z</time>
   </trkpt>
   <trkpt lat="51.3037050" lon="5.8805960">
    <ele>30.6</ele>
    <time>2019-09-08T07:24:49Z</time>
   </trkpt>
   <trkpt lat="51.3036300" lon="5.8806200">
    <ele>30.6</ele>
    <time>2019-09-08T07:24:50Z</time>
   </trkpt>
   <trkpt lat="51.3035610" lon="5.8806270">
    <ele>30.5</ele>
    <time>2019-09-08T07:24:51Z</time>
   </trkpt>
   <trkpt lat="51.3034960" lon="5.8806360">
    <ele>30.5</ele>
    <time>2019-09-08T07:24:52Z</time>
   </trkpt>
   <trkpt lat="51.3034280" lon="5.8806450">
    <ele>30.5</ele>
    <time>2019-09-08T07:24:53Z</time>
   </trkpt>
   <trkpt lat="51.3033590" lon="5.8806520">
    <ele>30.5</ele>
    <time>2019-09-08T07:24:54Z</time>
   </trkpt>
   <trkpt lat="51.3032960" lon="5.8806700">
    <ele>30.6</ele>
    <time>2019-09-08T07:24:55Z</time>
   </trkpt>
   <trkpt lat="51.3032320" lon="5.8806830">
    <ele>30.6</ele>
    <time>2019-09-08T07:24:56Z</time>
   </trkpt>
   <trkpt lat="51.3031540" lon="5.8806940">
    <ele>30.8</ele>
    <time>2019-09-08T07:24:57Z</time>
   </trkpt>
   <trkpt lat="51.3030780" lon="5.8806990">
    <ele>30.9</ele>
    <time>2019-09-08T07:24:58Z</time>
   </trkpt>
   <trkpt lat="51.3030100" lon="5.8807130">
    <ele>31.1</ele>
    <time>2019-09-08T07:24:59Z</time>
   </trkpt>
   <trkpt lat="51.3029380" lon="5.8807200">
    <ele>31.2</ele>
    <time>2019-09-08T07:25:00Z</time>
   </trkpt>
   <trkpt lat="51.3028570" lon="5.8807340">
    <ele>31.3</ele>
    <time>2019-09-08T07:25:01Z</time>
   </trkpt>
   <trkpt lat="51.3027840" lon="5.8807480">
    <ele>31.3</ele>
    <time>2019-09-08T07:25:02Z</time>
   </trkpt>
   <trkpt lat="51.3027110" lon="5.8807620">
    <ele>31.3</ele>
    <time>2019-09-08T07:25:03Z</time>
   </trkpt>
   <trkpt lat="51.3026330" lon="5.8807690">
    <ele>31.1</ele>
    <time>2019-09-08T07:25:04Z</time>
   </trkpt>
   <trkpt lat="51.3025500" lon="5.8807750">
    <ele>30.9</ele>
    <time>2019-09-08T07:25:05Z</time>
   </trkpt>
   <trkpt lat="51.3024750" lon="5.8807860">
    <ele>30.8</ele>
    <time>2019-09-08T07:25:06Z</time>
   </trkpt>
   <trkpt lat="51.3024000" lon="5.8808010">
    <ele>30.6</ele>
    <time>2019-09-08T07:25:07Z</time>
   </trkpt>
   <trkpt lat="51.3023300" lon="5.8808110">
    <ele>30.6</ele>
    <time>2019-09-08T07:25:08Z</time>
   </trkpt>
   <trkpt lat="51.3022530" lon="5.8808190">
    <ele>30.6</ele>
    <time>2019-09-08T07:25:09Z</time>
   </trkpt>
   <trkpt lat="51.3021750" lon="5.8808290">
    <ele>30.7</ele>
    <time>2019-09-08T07:25:10Z</time>
   </trkpt>
   <trkpt lat="51.3020990" lon="5.8808430">
    <ele>30.8</ele>
    <time>2019-09-08T07:25:11Z</time>
   </trkpt>
   <trkpt lat="51.3020270" lon="5.8808540">
    <ele>30.9</ele>
    <time>2019-09-08T07:25:12Z</time>
   </trkpt>
   <trkpt lat="51.3019510" lon="5.8808590">
    <ele>31.0</ele>
    <time>2019-09-08T07:25:13Z</time>
   </trkpt>
   <trkpt lat="51.3018830" lon="5.8808740">
    <ele>31.0</ele>
    <time>2019-09-08T07:25:14Z</time>
   </trkpt>
   <trkpt lat="51.3018170" lon="5.8808940">
    <ele>31.1</ele>
    <time>2019-09-08T07:25:15Z</time>
   </trkpt>
   <trkpt lat="51.3017400" lon="5.8809020">
    <ele>31.2</ele>
    <time>2019-09-08T07:25:16Z</time>
   </trkpt>
   <trkpt lat="51.3016650" lon="5.8809120">
    <ele>31.3</ele>
    <time>2019-09-08T07:25:17Z</time>
   </trkpt>
   <trkpt lat="51.3015820" lon="5.8809210">
    <ele>31.4</ele>
    <time>2019-09-08T07:25:18Z</time>
   </trkpt>
   <trkpt lat="51.3014900" lon="5.8809330">
    <ele>31.5</ele>
    <time>2019-09-08T07:25:19Z</time>
   </trkpt>
   <trkpt lat="51.3014150" lon="5.8809370">
    <ele>31.5</ele>
    <time>2019-09-08T07:25:20Z</time>
   </trkpt>
   <trkpt lat="51.3013350" lon="5.8809640">
    <ele>31.6</ele>
    <time>2019-09-08T07:25:21Z</time>
   </trkpt>
   <trkpt lat="51.3012640" lon="5.8809650">
    <ele>31.6</ele>
    <time>2019-09-08T07:25:22Z</time>
   </trkpt>
   <trkpt lat="51.3011910" lon="5.8809750">
    <ele>31.7</ele>
    <time>2019-09-08T07:25:23Z</time>
   </trkpt>
   <trkpt lat="51.3011210" lon="5.8809790">
    <ele>31.8</ele>
    <time>2019-09-08T07:25:24Z</time>
   </trkpt>
   <trkpt lat="51.3010540" lon="5.8809910">
    <ele>31.9</ele>
    <time>2019-09-08T07:25:25Z</time>
   </trkpt>
   <trkpt lat="51.3009950" lon="5.8810010">
    <ele>31.9</ele>
    <time>2019-09-08T07:25:26Z</time>
   </trkpt>
   <trkpt lat="51.3009300" lon="5.8810090">
    <ele>32.0</ele>
    <time>2019-09-08T07:25:27Z</time>
   </trkpt>
   <trkpt lat="51.3008700" lon="5.8810260">
    <ele>32.0</ele>
    <time>2019-09-08T07:25:28Z</time>
   </trkpt>
   <trkpt lat="51.3007850" lon="5.8810390">
    <ele>31.9</ele>
    <time>2019-09-08T07:25:29Z</time>
   </trkpt>
   <trkpt lat="51.3007180" lon="5.8810430">
    <ele>31.9</ele>
    <time>2019-09-08T07:25:30Z</time>
   </trkpt>
   <trkpt lat="51.3006600" lon="5.8810620">
    <ele>31.8</ele>
    <time>2019-09-08T07:25:31Z</time>
   </trkpt>
   <trkpt lat="51.3006100" lon="5.8811020">
    <ele>31.7</ele>
    <time>2019-09-08T07:25:32Z</time>
   </trkpt>
   <trkpt lat="51.3005370" lon="5.8811110">
    <ele>31.6</ele>
    <time>2019-09-08T07:25:33Z</time>
   </trkpt>
   <trkpt lat="51.3004560" lon="5.8811050">
    <ele>31.5</ele>
    <time>2019-09-08T07:25:34Z</time>
   </trkpt>
   <trkpt lat="51.3003880" lon="5.8811260">
    <ele>31.6</ele>
    <time>2019-09-08T07:25:35Z</time>
   </trkpt>
   <trkpt lat="51.3003200" lon="5.8811470">
    <ele>31.7</ele>
    <time>2019-09-08T07:25:36Z</time>
   </trkpt>
   <trkpt lat="51.3002490" lon="5.8811560">
    <ele>31.8</ele>
    <time>2019-09-08T07:25:37Z</time>
   </trkpt>
   <trkpt lat="51.3001730" lon="5.8811610">
    <ele>31.9</ele>
    <time>2019-09-08T07:25:38Z</time>
   </trkpt>
   <trkpt lat="51.3001050" lon="5.8811650">
    <ele>32.0</ele>
    <time>2019-09-08T07:25:39Z</time>
   </trkpt>
   <trkpt lat="51.3000410" lon="5.8811840">
    <ele>32.0</ele>
    <time>2019-09-08T07:25:40Z</time>
   </trkpt>
   <trkpt lat="51.2999680" lon="5.8812010">
    <ele>32.1</ele>
    <time>2019-09-08T07:25:41Z</time>
   </trkpt>
   <trkpt lat="51.2999050" lon="5.8812290">
    <ele>32.1</ele>
    <time>2019-09-08T07:25:42Z</time>
   </trkpt>
   <trkpt lat="51.2998300" lon="5.8812350">
    <ele>32.1</ele>
    <time>2019-09-08T07:25:43Z</time>
   </trkpt>
   <trkpt lat="51.2997540" lon="5.8812470">
    <ele>32.2</ele>
    <time>2019-09-08T07:25:44Z</time>
   </trkpt>
   <trkpt lat="51.2996840" lon="5.8812680">
    <ele>32.2</ele>
    <time>2019-09-08T07:25:45Z</time>
   </trkpt>
   <trkpt lat="51.2996080" lon="5.8812930">
    <ele>32.3</ele>
    <time>2019-09-08T07:25:46Z</time>
   </trkpt>
   <trkpt lat="51.2995380" lon="5.8813280">
    <ele>32.4</ele>
    <time>2019-09-08T07:25:47Z</time>
   </trkpt>
   <trkpt lat="51.2994830" lon="5.8813910">
    <ele>32.6</ele>
    <time>2019-09-08T07:25:48Z</time>
   </trkpt>
   <trkpt lat="51.2994280" lon="5.8814460">
    <ele>32.7</ele>
    <time>2019-09-08T07:25:49Z</time>
   </trkpt>
   <trkpt lat="51.2993810" lon="5.8815100">
    <ele>32.8</ele>
    <time>2019-09-08T07:25:50Z</time>
   </trkpt>
   <trkpt lat="51.2993330" lon="5.8815790">
    <ele>32.8</ele>
    <time>2019-09-08T07:25:51Z</time>
   </trkpt>
   <trkpt lat="51.2992850" lon="5.8816420">
    <ele>32.9</ele>
    <time>2019-09-08T07:25:52Z</time>
   </trkpt>
   <trkpt lat="51.2992270" lon="5.8816940">
    <ele>33.0</ele>
    <time>2019-09-08T07:25:53Z</time>
   </trkpt>
   <trkpt lat="51.2991760" lon="5.8817420">
    <ele>33.0</ele>
    <time>2019-09-08T07:25:54Z</time>
   </trkpt>
   <trkpt lat="51.2991330" lon="5.8817950">
    <ele>33.0</ele>
    <time>2019-09-08T07:25:55Z</time>
   </trkpt>
   <trkpt lat="51.2990530" lon="5.8818440">
    <ele>33.1</ele>
    <time>2019-09-08T07:25:56Z</time>
   </trkpt>
   <trkpt lat="51.2990120" lon="5.8818960">
    <ele>33.1</ele>
    <time>2019-09-08T07:25:57Z</time>
   </trkpt>
   <trkpt lat="51.2989630" lon="5.8819490">
    <ele>33.1</ele>
    <time>2019-09-08T07:25:58Z</time>
   </trkpt>
   <trkpt lat="51.2989330" lon="5.8819990">
    <ele>33.1</ele>
    <time>2019-09-08T07:25:59Z</time>
   </trkpt>
   <trkpt lat="51.2989260" lon="5.8820780">
    <ele>33.1</ele>
    <time>2019-09-08T07:26:00Z</time>
   </trkpt>
   <trkpt lat="51.2989210" lon="5.8821500">
    <ele>33.1</ele>
    <time>2019-09-08T07:26:01Z</time>
   </trkpt>
   <trkpt lat="51.2989240" lon="5.8822390">
    <ele>33.1</ele>
    <time>2019-09-08T07:26:02Z</time>
   </trkpt>
   <trkpt lat="51.2989530" lon="5.8823220">
    <ele>33.1</ele>
    <time>2019-09-08T07:26:03Z</time>
   </trkpt>
   <trkpt lat="51.2990010" lon="5.8824130">
    <ele>33.1</ele>
    <time>2019-09-08T07:26:04Z</time>
   </trkpt>
   <trkpt lat="51.2990460" lon="5.8824950">
    <ele>33.2</ele>
    <time>2019-09-08T07:26:05Z</time>
   </trkpt>
   <trkpt lat="51.2990870" lon="5.8825810">
    <ele>33.2</ele>
    <time>2019-09-08T07:26:06Z</time>
   </trkpt>
   <trkpt lat="51.2991340" lon="5.8826750">
    <ele>33.3</ele>
    <time>2019-09-08T07:26:07Z</time>
   </trkpt>
   <trkpt lat="51.2991690" lon="5.8827690">
    <ele>33.4</ele>
    <time>2019-09-08T07:26:08Z</time>
   </trkpt>
   <trkpt lat="51.2992150" lon="5.8828800">
    <ele>33.5</ele>
    <time>2019-09-08T07:26:09Z</time>
   </trkpt>
   <trkpt lat="51.2992520" lon="5.8829800">
    <ele>33.6</ele>
    <time>2019-09-08T07:26:10Z</time>
   </trkpt>
   <trkpt lat="51.2992910" lon="5.8830880">
    <ele>33.7</ele>
    <time>2019-09-08T07:26:11Z</time>
   </trkpt>
   <trkpt lat="51.2993320" lon="5.8832080">
    <ele>33.8</ele>
    <time>2019-09-08T07:26:12Z</time>
   </trkpt>
   <trkpt lat="51.2993500" lon="5.8832810">
    <ele>33.9</ele>
    <time>2019-09-08T07:26:13Z</time>
   </trkpt>
   <trkpt lat="51.2993810" lon="5.8833960">
    <ele>34.0</ele>
    <time>2019-09-08T07:26:14Z</time>
   </trkpt>
   <trkpt lat="51.2994110" lon="5.8835010">
    <ele>34.1</ele>
    <time>2019-09-08T07:26:15Z</time>
   </trkpt>
   <trkpt lat="51.2994500" lon="5.8836060">
    <ele>34.1</ele>
    <time>2019-09-08T07:26:16Z</time>
   </trkpt>
   <trkpt lat="51.2994910" lon="5.8837050">
    <ele>34.2</ele>
    <time>2019-09-08T07:26:17Z</time>
   </trkpt>
   <trkpt lat="51.2995110" lon="5.8837910">
    <ele>34.2</ele>
    <time>2019-09-08T07:26:18Z</time>
   </trkpt>
   <trkpt lat="51.2995440" lon="5.8839000">
    <ele>34.2</ele>
    <time>2019-09-08T07:26:19Z</time>
   </trkpt>
   <trkpt lat="51.2995810" lon="5.8840040">
    <ele>34.3</ele>
    <time>2019-09-08T07:26:20Z</time>
   </trkpt>
   <trkpt lat="51.2996160" lon="5.8841200">
    <ele>34.3</ele>
    <time>2019-09-08T07:26:21Z</time>
   </trkpt>
   <trkpt lat="51.2996380" lon="5.8842340">
    <ele>34.3</ele>
    <time>2019-09-08T07:26:22Z</time>
   </trkpt>
   <trkpt lat="51.2996630" lon="5.8843410">
    <ele>34.4</ele>
    <time>2019-09-08T07:26:23Z</time>
   </trkpt>
   <trkpt lat="51.2996790" lon="5.8844510">
    <ele>34.4</ele>
    <time>2019-09-08T07:26:24Z</time>
   </trkpt>
   <trkpt lat="51.2996860" lon="5.8845410">
    <ele>34.4</ele>
    <time>2019-09-08T07:26:25Z</time>
   </trkpt>
   <trkpt lat="51.2996980" lon="5.8846520">
    <ele>34.4</ele>
    <time>2019-09-08T07:26:26Z</time>
   </trkpt>
   <trkpt lat="51.2997130" lon="5.8847750">
    <ele>34.4</ele>
    <time>2019-09-08T07:26:27Z</time>
   </trkpt>
   <trkpt lat="51.2997250" lon="5.8848910">
    <ele>34.4</ele>
    <time>2019-09-08T07:26:28Z</time>
   </trkpt>
   <trkpt lat="51.2997220" lon="5.8850020">
    <ele>34.4</ele>
    <time>2019-09-08T07:26:29Z</time>
   </trkpt>
   <trkpt lat="51.2997460" lon="5.8850980">
    <ele>34.3</ele>
    <time>2019-09-08T07:26:30Z</time>
   </trkpt>
   <trkpt lat="51.2997690" lon="5.8852030">
    <ele>34.3</ele>
    <time>2019-09-08T07:26:31Z</time>
   </trkpt>
   <trkpt lat="51.2997840" lon="5.8853060">
    <ele>34.3</ele>
    <time>2019-09-08T07:26:32Z</time>
   </trkpt>
   <trkpt lat="51.2997960" lon="5.8854040">
    <ele>34.3</ele>
    <time>2019-09-08T07:26:33Z</time>
   </trkpt>
   <trkpt lat="51.2998140" lon="5.8855360">
    <ele>34.2</ele>
    <time>2019-09-08T07:26:34Z</time>
   </trkpt>
   <trkpt lat="51.2998260" lon="5.8856270">
    <ele>34.2</ele>
    <time>2019-09-08T07:26:35Z</time>
   </trkpt>
   <trkpt lat="51.2998350" lon="5.8857350">
    <ele>34.2</ele>
    <time>2019-09-08T07:26:36Z</time>
   </trkpt>
   <trkpt lat="51.2998410" lon="5.8858470">
    <ele>34.1</ele>
    <time>2019-09-08T07:26:37Z</time>
   </trkpt>
   <trkpt lat="51.2998470" lon="5.8859660">
    <ele>34.1</ele>
    <time>2019-09-08T07:26:38Z</time>
   </trkpt>
   <trkpt lat="51.2998610" lon="5.8860680">
    <ele>34.1</ele>
    <time>2019-09-08T07:26:39Z</time>
   </trkpt>
   <trkpt lat="51.2998800" lon="5.8861930">
    <ele>34.1</ele>
    <time>2019-09-08T07:26:40Z</time>
   </trkpt>
   <trkpt lat="51.2998890" lon="5.8862950">
    <ele>34.1</ele>
    <time>2019-09-08T07:26:41Z</time>
   </trkpt>
   <trkpt lat="51.2998960" lon="5.8864220">
    <ele>34.0</ele>
    <time>2019-09-08T07:26:42Z</time>
   </trkpt>
   <trkpt lat="51.2999130" lon="5.8866110">
    <ele>34.0</ele>
    <time>2019-09-08T07:26:43Z</time>
   </trkpt>
   <trkpt lat="51.2999290" lon="5.8867030">
    <ele>34.0</ele>
    <time>2019-09-08T07:26:44Z</time>
   </trkpt>
   <trkpt lat="51.2999390" lon="5.8868380">
    <ele>34.0</ele>
    <time>2019-09-08T07:26:45Z</time>
   </trkpt>
   <trkpt lat="51.2999320" lon="5.8869670">
    <ele>34.0</ele>
    <time>2019-09-08T07:26:46Z</time>
   </trkpt>
   <trkpt lat="51.2999480" lon="5.8870750">
    <ele>34.0</ele>
    <time>2019-09-08T07:26:47Z</time>
   </trkpt>
   <trkpt lat="51.2999620" lon="5.8871910">
    <ele>34.1</ele>
    <time>2019-09-08T07:26:48Z</time>
   </trkpt>
   <trkpt lat="51.2999710" lon="5.8873200">
    <ele>34.1</ele>
    <time>2019-09-08T07:26:49Z</time>
   </trkpt>
   <trkpt lat="51.2999720" lon="5.8874500">
    <ele>34.1</ele>
    <time>2019-09-08T07:26:50Z</time>
   </trkpt>
   <trkpt lat="51.2999910" lon="5.8875390">
    <ele>34.2</ele>
    <time>2019-09-08T07:26:51Z</time>
   </trkpt>
   <trkpt lat="51.2999830" lon="5.8876830">
    <ele>34.2</ele>
    <time>2019-09-08T07:26:52Z</time>
   </trkpt>
   <trkpt lat="51.2999740" lon="5.8878180">
    <ele>34.2</ele>
    <time>2019-09-08T07:26:53Z</time>
   </trkpt>
   <trkpt lat="51.2999810" lon="5.8879460">
    <ele>34.3</ele>
    <time>2019-09-08T07:26:54Z</time>
   </trkpt>
   <trkpt lat="51.2999780" lon="5.8880680">
    <ele>34.3</ele>
    <time>2019-09-08T07:26:55Z</time>
   </trkpt>
   <trkpt lat="51.2999890" lon="5.8881710">
    <ele>34.3</ele>
    <time>2019-09-08T07:26:56Z</time>
   </trkpt>
   <trkpt lat="51.2999890" lon="5.8882790">
    <ele>34.4</ele>
    <time>2019-09-08T07:26:57Z</time>
   </trkpt>
   <trkpt lat="51.3000060" lon="5.8883760">
    <ele>34.4</ele>
    <time>2019-09-08T07:26:58Z</time>
   </trkpt>
   <trkpt lat="51.3000260" lon="5.8884830">
    <ele>34.4</ele>
    <time>2019-09-08T07:26:59Z</time>
   </trkpt>
   <trkpt lat="51.3000360" lon="5.8885920">
    <ele>34.5</ele>
    <time>2019-09-08T07:27:00Z</time>
   </trkpt>
   <trkpt lat="51.3000450" lon="5.8887060">
    <ele>34.5</ele>
    <time>2019-09-08T07:27:01Z</time>
   </trkpt>
   <trkpt lat="51.3000530" lon="5.8888130">
    <ele>34.6</ele>
    <time>2019-09-08T07:27:02Z</time>
   </trkpt>
   <trkpt lat="51.3000630" lon="5.8889110">
    <ele>34.6</ele>
    <time>2019-09-08T07:27:03Z</time>
   </trkpt>
   <trkpt lat="51.3000750" lon="5.8890260">
    <ele>34.6</ele>
    <time>2019-09-08T07:27:04Z</time>
   </trkpt>
   <trkpt lat="51.3001020" lon="5.8891240">
    <ele>34.7</ele>
    <time>2019-09-08T07:27:05Z</time>
   </trkpt>
   <trkpt lat="51.3001120" lon="5.8892340">
    <ele>34.7</ele>
    <time>2019-09-08T07:27:06Z</time>
   </trkpt>
   <trkpt lat="51.3001270" lon="5.8893510">
    <ele>34.8</ele>
    <time>2019-09-08T07:27:07Z</time>
   </trkpt>
   <trkpt lat="51.3001480" lon="5.8894650">
    <ele>34.8</ele>
    <time>2019-09-08T07:27:08Z</time>
   </trkpt>
   <trkpt lat="51.3001650" lon="5.8895570">
    <ele>34.8</ele>
    <time>2019-09-08T07:27:09Z</time>
   </trkpt>
   <trkpt lat="51.3001660" lon="5.8896630">
    <ele>34.8</ele>
    <time>2019-09-08T07:27:10Z</time>
   </trkpt>
   <trkpt lat="51.3001660" lon="5.8897600">
    <ele>34.8</ele>
    <time>2019-09-08T07:27:11Z</time>
   </trkpt>
   <trkpt lat="51.3001620" lon="5.8898590">
    <ele>34.8</ele>
    <time>2019-09-08T07:27:12Z</time>
   </trkpt>
   <trkpt lat="51.3001610" lon="5.8900060">
    <ele>34.9</ele>
    <time>2019-09-08T07:27:13Z</time>
   </trkpt>
   <trkpt lat="51.3001700" lon="5.8901150">
    <ele>34.9</ele>
    <time>2019-09-08T07:27:14Z</time>
   </trkpt>
   <trkpt lat="51.3002090" lon="5.8901940">
    <ele>34.9</ele>
    <time>2019-09-08T07:27:15Z</time>
   </trkpt>
   <trkpt lat="51.3002280" lon="5.8903460">
    <ele>34.9</ele>
    <time>2019-09-08T07:27:16Z</time>
   </trkpt>
   <trkpt lat="51.3002440" lon="5.8905130">
    <ele>34.9</ele>
    <time>2019-09-08T07:27:17Z</time>
   </trkpt>
   <trkpt lat="51.3002640" lon="5.8906320">
    <ele>34.9</ele>
    <time>2019-09-08T07:27:18Z</time>
   </trkpt>
   <trkpt lat="51.3003070" lon="5.8907430">
    <ele>34.8</ele>
    <time>2019-09-08T07:27:19Z</time>
   </trkpt>
   <trkpt lat="51.3003300" lon="5.8908590">
    <ele>34.7</ele>
    <time>2019-09-08T07:27:20Z</time>
   </trkpt>
   <trkpt lat="51.3003520" lon="5.8909700">
    <ele>34.6</ele>
    <time>2019-09-08T07:27:21Z</time>
   </trkpt>
   <trkpt lat="51.3003600" lon="5.8911020">
    <ele>34.5</ele>
    <time>2019-09-08T07:27:22Z</time>
   </trkpt>
   <trkpt lat="51.3003470" lon="5.8912670">
    <ele>34.3</ele>
    <time>2019-09-08T07:27:23Z</time>
   </trkpt>
   <trkpt lat="51.3003880" lon="5.8913870">
    <ele>34.2</ele>
    <time>2019-09-08T07:27:24Z</time>
   </trkpt>
   <trkpt lat="51.3004060" lon="5.8915050">
    <ele>34.1</ele>
    <time>2019-09-08T07:27:25Z</time>
   </trkpt>
   <trkpt lat="51.3004020" lon="5.8916260">
    <ele>34.0</ele>
    <time>2019-09-08T07:27:26Z</time>
   </trkpt>
   <trkpt lat="51.3004110" lon="5.8917310">
    <ele>33.9</ele>
    <time>2019-09-08T07:27:27Z</time>
   </trkpt>
   <trkpt lat="51.3003870" lon="5.8918270">
    <ele>33.8</ele>
    <time>2019-09-08T07:27:28Z</time>
   </trkpt>
   <trkpt lat="51.3004360" lon="5.8919760">
    <ele>33.7</ele>
    <time>2019-09-08T07:27:29Z</time>
   </trkpt>
   <trkpt lat="51.3004630" lon="5.8921230">
    <ele>33.6</ele>
    <time>2019-09-08T07:27:30Z</time>
   </trkpt>
   <trkpt lat="51.3004790" lon="5.8922310">
    <ele>33.5</ele>
    <time>2019-09-08T07:27:31Z</time>
   </trkpt>
   <trkpt lat="51.3004550" lon="5.8923380">
    <ele>33.4</ele>
    <time>2019-09-08T07:27:32Z</time>
   </trkpt>
   <trkpt lat="51.3004610" lon="5.8924260">
    <ele>33.4</ele>
    <time>2019-09-08T07:27:33Z</time>
   </trkpt>
   <trkpt lat="51.3004620" lon="5.8924870">
    <ele>33.3</ele>
    <time>2019-09-08T07:27:34Z</time>
   </trkpt>
   <trkpt lat="51.3004830" lon="5.8925550">
    <ele>33.3</ele>
    <time>2019-09-08T07:27:35Z</time>
   </trkpt>
   <trkpt lat="51.3005030" lon="5.8926070">
    <ele>33.3</ele>
    <time>2019-09-08T07:27:36Z</time>
   </trkpt>
   <trkpt lat="51.3005230" lon="5.8926630">
    <ele>33.2</ele>
    <time>2019-09-08T07:27:37Z</time>
   </trkpt>
   <trkpt lat="51.3005130" lon="5.8927330">
    <ele>33.2</ele>
    <time>2019-09-08T07:27:38Z</time>
   </trkpt>
   <trkpt lat="51.3005190" lon="5.8927830">
    <ele>33.2</ele>
    <time>2019-09-08T07:27:39Z</time>
   </trkpt>
   <trkpt lat="51.3005260" lon="5.8928450">
    <ele>33.2</ele>
    <time>2019-09-08T07:27:40Z</time>
   </trkpt>
   <trkpt lat="51.3005370" lon="5.8929140">
    <ele>33.1</ele>
    <time>2019-09-08T07:27:41Z</time>
   </trkpt>
   <trkpt lat="51.3005610" lon="5.8929940">
    <ele>33.1</ele>
    <time>2019-09-08T07:27:42Z</time>
   </trkpt>
   <trkpt lat="51.3005820" lon="5.8930610">
    <ele>32.9</ele>
    <time>2019-09-08T07:27:43Z</time>
   </trkpt>
   <trkpt lat="51.3006070" lon="5.8931310">
    <ele>32.8</ele>
    <time>2019-09-08T07:27:44Z</time>
   </trkpt>
   <trkpt lat="51.3006210" lon="5.8931970">
    <ele>32.5</ele>
    <time>2019-09-08T07:27:45Z</time>
   </trkpt>
   <trkpt lat="51.3006350" lon="5.8932360">
    <ele>32.5</ele>
    <time>2019-09-08T07:27:46Z</time>
   </trkpt>
   <trkpt lat="51.3006630" lon="5.8932580">
    <ele>32.5</ele>
    <time>2019-09-08T07:27:47Z</time>
   </trkpt>
   <trkpt lat="51.3007010" lon="5.8933110">
    <ele>32.5</ele>
    <time>2019-09-08T07:27:49Z</time>
   </trkpt>
   <trkpt lat="51.3007070" lon="5.8933610">
    <ele>32.5</ele>
    <time>2019-09-08T07:27:50Z</time>
   </trkpt>
   <trkpt lat="51.3007080" lon="5.8934130">
    <ele>32.4</ele>
    <time>2019-09-08T07:27:51Z</time>
   </trkpt>
   <trkpt lat="51.3007090" lon="5.8934800">
    <ele>32.4</ele>
    <time>2019-09-08T07:27:52Z</time>
   </trkpt>
   <trkpt lat="51.3007020" lon="5.8935450">
    <ele>32.4</ele>
    <time>2019-09-08T07:27:53Z</time>
   </trkpt>
   <trkpt lat="51.3006860" lon="5.8935940">
    <ele>32.4</ele>
    <time>2019-09-08T07:27:54Z</time>
   </trkpt>
   <trkpt lat="51.3006660" lon="5.8936480">
    <ele>32.4</ele>
    <time>2019-09-08T07:27:55Z</time>
   </trkpt>
   <trkpt lat="51.3006480" lon="5.8937040">
    <ele>32.4</ele>
    <time>2019-09-08T07:27:56Z</time>
   </trkpt>
   <trkpt lat="51.3006300" lon="5.8937630">
    <ele>32.5</ele>
    <time>2019-09-08T07:27:57Z</time>
   </trkpt>
   <trkpt lat="51.3006140" lon="5.8938220">
    <ele>32.5</ele>
    <time>2019-09-08T07:27:58Z</time>
   </trkpt>
   <trkpt lat="51.3006020" lon="5.8938830">
    <ele>32.5</ele>
    <time>2019-09-08T07:27:59Z</time>
   </trkpt>
   <trkpt lat="51.3005890" lon="5.8939420">
    <ele>32.5</ele>
    <time>2019-09-08T07:28:00Z</time>
   </trkpt>
   <trkpt lat="51.3005780" lon="5.8939970">
    <ele>32.5</ele>
    <time>2019-09-08T07:28:01Z</time>
   </trkpt>
   <trkpt lat="51.3005680" lon="5.8940590">
    <ele>32.5</ele>
    <time>2019-09-08T07:28:02Z</time>
   </trkpt>
   <trkpt lat="51.3005690" lon="5.8941460">
    <ele>32.5</ele>
    <time>2019-09-08T07:28:03Z</time>
   </trkpt>
   <trkpt lat="51.3005650" lon="5.8942250">
    <ele>32.5</ele>
    <time>2019-09-08T07:28:04Z</time>
   </trkpt>
   <trkpt lat="51.3005850" lon="5.8942950">
    <ele>32.5</ele>
    <time>2019-09-08T07:28:05Z</time>
   </trkpt>
   <trkpt lat="51.3005790" lon="5.8943740">
    <ele>32.5</ele>
    <time>2019-09-08T07:28:06Z</time>
   </trkpt>
   <trkpt lat="51.3005930" lon="5.8944560">
    <ele>32.5</ele>
    <time>2019-09-08T07:28:07Z</time>
   </trkpt>
   <trkpt lat="51.3006040" lon="5.8945180">
    <ele>32.6</ele>
    <time>2019-09-08T07:28:08Z</time>
   </trkpt>
   <trkpt lat="51.3006100" lon="5.8945970">
    <ele>32.6</ele>
    <time>2019-09-08T07:28:09Z</time>
   </trkpt>
   <trkpt lat="51.3006230" lon="5.8946700">
    <ele>32.6</ele>
    <time>2019-09-08T07:28:10Z</time>
   </trkpt>
   <trkpt lat="51.3006330" lon="5.8947360">
    <ele>32.6</ele>
    <time>2019-09-08T07:28:11Z</time>
   </trkpt>
   <trkpt lat="51.3006520" lon="5.8947900">
    <ele>32.6</ele>
    <time>2019-09-08T07:28:12Z</time>
   </trkpt>
   <trkpt lat="51.3006760" lon="5.8948340">
    <ele>32.6</ele>
    <time>2019-09-08T07:28:13Z</time>
   </trkpt>
   <trkpt lat="51.3007150" lon="5.8948960">
    <ele>32.6</ele>
    <time>2019-09-08T07:28:14Z</time>
   </trkpt>
   <trkpt lat="51.3007450" lon="5.8949350">
    <ele>32.6</ele>
    <time>2019-09-08T07:28:15Z</time>
   </trkpt>
   <trkpt lat="51.3007810" lon="5.8949960">
    <ele>32.6</ele>
    <time>2019-09-08T07:28:16Z</time>
   </trkpt>
   <trkpt lat="51.3008130" lon="5.8950470">
    <ele>32.6</ele>
    <time>2019-09-08T07:28:17Z</time>
   </trkpt>
   <trkpt lat="51.3008420" lon="5.8950830">
    <ele>32.6</ele>
    <time>2019-09-08T07:28:18Z</time>
   </trkpt>
   <trkpt lat="51.3008800" lon="5.8951390">
    <ele>32.6</ele>
    <time>2019-09-08T07:28:19Z</time>
   </trkpt>
   <trkpt lat="51.3009140" lon="5.8951910">
    <ele>32.6</ele>
    <time>2019-09-08T07:28:20Z</time>
   </trkpt>
   <trkpt lat="51.3009490" lon="5.8952420">
    <ele>32.6</ele>
    <time>2019-09-08T07:28:21Z</time>
   </trkpt>
   <trkpt lat="51.3009890" lon="5.8953000">
    <ele>32.5</ele>
    <time>2019-09-08T07:28:22Z</time>
   </trkpt>
   <trkpt lat="51.3010290" lon="5.8953560">
    <ele>32.5</ele>
    <time>2019-09-08T07:28:23Z</time>
   </trkpt>
   <trkpt lat="51.3010610" lon="5.8954260">
    <ele>32.4</ele>
    <time>2019-09-08T07:28:24Z</time>
   </trkpt>
   <trkpt lat="51.3010940" lon="5.8954770">
    <ele>32.4</ele>
    <time>2019-09-08T07:28:25Z</time>
   </trkpt>
   <trkpt lat="51.3011320" lon="5.8955330">
    <ele>32.4</ele>
    <time>2019-09-08T07:28:26Z</time>
   </trkpt>
   <trkpt lat="51.3011560" lon="5.8955850">
    <ele>32.4</ele>
    <time>2019-09-08T07:28:27Z</time>
   </trkpt>
   <trkpt lat="51.3011950" lon="5.8956460">
    <ele>32.5</ele>
    <time>2019-09-08T07:28:28Z</time>
   </trkpt>
   <trkpt lat="51.3012230" lon="5.8956980">
    <ele>32.5</ele>
    <time>2019-09-08T07:28:29Z</time>
   </trkpt>
   <trkpt lat="51.3012470" lon="5.8957630">
    <ele>32.5</ele>
    <time>2019-09-08T07:28:30Z</time>
   </trkpt>
   <trkpt lat="51.3012540" lon="5.8958340">
    <ele>32.5</ele>
    <time>2019-09-08T07:28:31Z</time>
   </trkpt>
   <trkpt lat="51.3012840" lon="5.8958950">
    <ele>32.4</ele>
    <time>2019-09-08T07:28:32Z</time>
   </trkpt>
   <trkpt lat="51.3013090" lon="5.8959640">
    <ele>32.4</ele>
    <time>2019-09-08T07:28:33Z</time>
   </trkpt>
   <trkpt lat="51.3013380" lon="5.8960460">
    <ele>32.4</ele>
    <time>2019-09-08T07:28:34Z</time>
   </trkpt>
   <trkpt lat="51.3013620" lon="5.8961330">
    <ele>32.5</ele>
    <time>2019-09-08T07:28:35Z</time>
   </trkpt>
   <trkpt lat="51.3013810" lon="5.8962110">
    <ele>32.5</ele>
    <time>2019-09-08T07:28:36Z</time>
   </trkpt>
   <trkpt lat="51.3014000" lon="5.8963000">
    <ele>32.6</ele>
    <time>2019-09-08T07:28:37Z</time>
   </trkpt>
   <trkpt lat="51.3014100" lon="5.8963920">
    <ele>32.7</ele>
    <time>2019-09-08T07:28:38Z</time>
   </trkpt>
   <trkpt lat="51.3014180" lon="5.8964860">
    <ele>32.8</ele>
    <time>2019-09-08T07:28:39Z</time>
   </trkpt>
   <trkpt lat="51.3014140" lon="5.8965670">
    <ele>32.8</ele>
    <time>2019-09-08T07:28:40Z</time>
   </trkpt>
   <trkpt lat="51.3014170" lon="5.8966850">
    <ele>32.8</ele>
    <time>2019-09-08T07:28:41Z</time>
   </trkpt>
   <trkpt lat="51.3014110" lon="5.8967590">
    <ele>32.7</ele>
    <time>2019-09-08T07:28:42Z</time>
   </trkpt>
   <trkpt lat="51.3014020" lon="5.8968480">
    <ele>32.7</ele>
    <time>2019-09-08T07:28:43Z</time>
   </trkpt>
   <trkpt lat="51.3013830" lon="5.8969250">
    <ele>32.7</ele>
    <time>2019-09-08T07:28:44Z</time>
   </trkpt>
   <trkpt lat="51.3013740" lon="5.8970120">
    <ele>32.6</ele>
    <time>2019-09-08T07:28:45Z</time>
   </trkpt>
   <trkpt lat="51.3013570" lon="5.8970920">
    <ele>32.6</ele>
    <time>2019-09-08T07:28:46Z</time>
   </trkpt>
   <trkpt lat="51.3013490" lon="5.8971700">
    <ele>32.6</ele>
    <time>2019-09-08T07:28:47Z</time>
   </trkpt>
   <trkpt lat="51.3013370" lon="5.8972580">
    <ele>32.6</ele>
    <time>2019-09-08T07:28:48Z</time>
   </trkpt>
   <trkpt lat="51.3013220" lon="5.8973460">
    <ele>32.5</ele>
    <time>2019-09-08T07:28:49Z</time>
   </trkpt>
   <trkpt lat="51.3013070" lon="5.8974390">
    <ele>32.5</ele>
    <time>2019-09-08T07:28:50Z</time>
   </trkpt>
   <trkpt lat="51.3013010" lon="5.8975130">
    <ele>32.5</ele>
    <time>2019-09-08T07:28:51Z</time>
   </trkpt>
   <trkpt lat="51.3012900" lon="5.8976040">
    <ele>32.5</ele>
    <time>2019-09-08T07:28:52Z</time>
   </trkpt>
   <trkpt lat="51.3012820" lon="5.8976860">
    <ele>32.4</ele>
    <time>2019-09-08T07:28:53Z</time>
   </trkpt>
   <trkpt lat="51.3012650" lon="5.8977740">
    <ele>32.4</ele>
    <time>2019-09-08T07:28:54Z</time>
   </trkpt>
   <trkpt lat="51.3012500" lon="5.8978690">
    <ele>32.4</ele>
    <time>2019-09-08T07:28:55Z</time>
   </trkpt>
   <trkpt lat="51.3012400" lon="5.8979530">
    <ele>32.3</ele>
    <time>2019-09-08T07:28:56Z</time>
   </trkpt>
   <trkpt lat="51.3012220" lon="5.8980420">
    <ele>32.3</ele>
    <time>2019-09-08T07:28:57Z</time>
   </trkpt>
   <trkpt lat="51.3012170" lon="5.8981470">
    <ele>32.3</ele>
    <time>2019-09-08T07:28:58Z</time>
   </trkpt>
   <trkpt lat="51.3012040" lon="5.8982500">
    <ele>32.2</ele>
    <time>2019-09-08T07:28:59Z</time>
   </trkpt>
   <trkpt lat="51.3011850" lon="5.8983350">
    <ele>32.2</ele>
    <time>2019-09-08T07:29:00Z</time>
   </trkpt>
   <trkpt lat="51.3011650" lon="5.8984390">
    <ele>32.2</ele>
    <time>2019-09-08T07:29:01Z</time>
   </trkpt>
   <trkpt lat="51.3011470" lon="5.8985300">
    <ele>32.2</ele>
    <time>2019-09-08T07:29:02Z</time>
   </trkpt>
   <trkpt lat="51.3011320" lon="5.8986170">
    <ele>32.1</ele>
    <time>2019-09-08T07:29:03Z</time>
   </trkpt>
   <trkpt lat="51.3011180" lon="5.8987160">
    <ele>32.1</ele>
    <time>2019-09-08T07:29:04Z</time>
   </trkpt>
   <trkpt lat="51.3011340" lon="5.8988240">
    <ele>32.0</ele>
    <time>2019-09-08T07:29:05Z</time>
   </trkpt>
   <trkpt lat="51.3011170" lon="5.8989170">
    <ele>32.0</ele>
    <time>2019-09-08T07:29:06Z</time>
   </trkpt>
   <trkpt lat="51.3010710" lon="5.8990130">
    <ele>32.1</ele>
    <time>2019-09-08T07:29:07Z</time>
   </trkpt>
   <trkpt lat="51.3010500" lon="5.8991190">
    <ele>32.1</ele>
    <time>2019-09-08T07:29:08Z</time>
   </trkpt>
   <trkpt lat="51.3010340" lon="5.8992220">
    <ele>32.2</ele>
    <time>2019-09-08T07:29:09Z</time>
   </trkpt>
   <trkpt lat="51.3010030" lon="5.8993240">
    <ele>32.2</ele>
    <time>2019-09-08T07:29:10Z</time>
   </trkpt>
   <trkpt lat="51.3009810" lon="5.8994210">
    <ele>32.2</ele>
    <time>2019-09-08T07:29:11Z</time>
   </trkpt>
   <trkpt lat="51.3009650" lon="5.8995370">
    <ele>32.2</ele>
    <time>2019-09-08T07:29:12Z</time>
   </trkpt>
   <trkpt lat="51.3009370" lon="5.8996330">
    <ele>32.1</ele>
    <time>2019-09-08T07:29:13Z</time>
   </trkpt>
   <trkpt lat="51.3009170" lon="5.8997340">
    <ele>32.1</ele>
    <time>2019-09-08T07:29:14Z</time>
   </trkpt>
   <trkpt lat="51.3008970" lon="5.8998340">
    <ele>32.0</ele>
    <time>2019-09-08T07:29:15Z</time>
   </trkpt>
   <trkpt lat="51.3008740" lon="5.8999420">
    <ele>31.9</ele>
    <time>2019-09-08T07:29:16Z</time>
   </trkpt>
   <trkpt lat="51.3008540" lon="5.9000330">
    <ele>31.8</ele>
    <time>2019-09-08T07:29:17Z</time>
   </trkpt>
   <trkpt lat="51.3008390" lon="5.9001440">
    <ele>31.6</ele>
    <time>2019-09-08T07:29:18Z</time>
   </trkpt>
   <trkpt lat="51.3008230" lon="5.9002370">
    <ele>31.5</ele>
    <time>2019-09-08T07:29:19Z</time>
   </trkpt>
   <trkpt lat="51.3008110" lon="5.9003370">
    <ele>31.4</ele>
    <time>2019-09-08T07:29:20Z</time>
   </trkpt>
   <trkpt lat="51.3007980" lon="5.9004330">
    <ele>31.4</ele>
    <time>2019-09-08T07:29:21Z</time>
   </trkpt>
   <trkpt lat="51.3007870" lon="5.9005350">
    <ele>31.3</ele>
    <time>2019-09-08T07:29:22Z</time>
   </trkpt>
   <trkpt lat="51.3007790" lon="5.9006540">
    <ele>31.3</ele>
    <time>2019-09-08T07:29:23Z</time>
   </trkpt>
   <trkpt lat="51.3007550" lon="5.9007410">
    <ele>31.3</ele>
    <time>2019-09-08T07:29:24Z</time>
   </trkpt>
   <trkpt lat="51.3007300" lon="5.9008440">
    <ele>31.3</ele>
    <time>2019-09-08T07:29:25Z</time>
   </trkpt>
   <trkpt lat="51.3007080" lon="5.9009480">
    <ele>31.3</ele>
    <time>2019-09-08T07:29:26Z</time>
   </trkpt>
   <trkpt lat="51.3006940" lon="5.9010500">
    <ele>31.3</ele>
    <time>2019-09-08T07:29:27Z</time>
   </trkpt>
   <trkpt lat="51.3006880" lon="5.9011540">
    <ele>31.4</ele>
    <time>2019-09-08T07:29:28Z</time>
   </trkpt>
   <trkpt lat="51.3006720" lon="5.9012560">
    <ele>31.4</ele>
    <time>2019-09-08T07:29:29Z</time>
   </trkpt>
   <trkpt lat="51.3006520" lon="5.9013630">
    <ele>31.4</ele>
    <time>2019-09-08T07:29:30Z</time>
   </trkpt>
   <trkpt lat="51.3006380" lon="5.9014710">
    <ele>31.5</ele>
    <time>2019-09-08T07:29:31Z</time>
   </trkpt>
   <trkpt lat="51.3006190" lon="5.9015660">
    <ele>31.5</ele>
    <time>2019-09-08T07:29:32Z</time>
   </trkpt>
   <trkpt lat="51.3005940" lon="5.9016740">
    <ele>31.5</ele>
    <time>2019-09-08T07:29:33Z</time>
   </trkpt>
   <trkpt lat="51.3005650" lon="5.9017810">
    <ele>31.5</ele>
    <time>2019-09-08T07:29:34Z</time>
   </trkpt>
   <trkpt lat="51.3005390" lon="5.9018860">
    <ele>31.4</ele>
    <time>2019-09-08T07:29:35Z</time>
   </trkpt>
   <trkpt lat="51.3005230" lon="5.9019960">
    <ele>31.4</ele>
    <time>2019-09-08T07:29:36Z</time>
   </trkpt>
   <trkpt lat="51.3005120" lon="5.9021130">
    <ele>31.4</ele>
    <time>2019-09-08T07:29:37Z</time>
   </trkpt>
   <trkpt lat="51.3004880" lon="5.9022210">
    <ele>31.5</ele>
    <time>2019-09-08T07:29:38Z</time>
   </trkpt>
   <trkpt lat="51.3004690" lon="5.9023400">
    <ele>31.6</ele>
    <time>2019-09-08T07:29:39Z</time>
   </trkpt>
   <trkpt lat="51.3004510" lon="5.9024290">
    <ele>31.7</ele>
    <time>2019-09-08T07:29:40Z</time>
   </trkpt>
   <trkpt lat="51.3004320" lon="5.9025170">
    <ele>31.8</ele>
    <time>2019-09-08T07:29:41Z</time>
   </trkpt>
   <trkpt lat="51.3004210" lon="5.9026160">
    <ele>31.9</ele>
    <time>2019-09-08T07:29:42Z</time>
   </trkpt>
   <trkpt lat="51.3003900" lon="5.9027230">
    <ele>32.0</ele>
    <time>2019-09-08T07:29:43Z</time>
   </trkpt>
   <trkpt lat="51.3003710" lon="5.9028290">
    <ele>32.1</ele>
    <time>2019-09-08T07:29:44Z</time>
   </trkpt>
   <trkpt lat="51.3003610" lon="5.9029270">
    <ele>32.1</ele>
    <time>2019-09-08T07:29:45Z</time>
   </trkpt>
   <trkpt lat="51.3003490" lon="5.9030330">
    <ele>32.1</ele>
    <time>2019-09-08T07:29:46Z</time>
   </trkpt>
   <trkpt lat="51.3003280" lon="5.9031500">
    <ele>32.2</ele>
    <time>2019-09-08T07:29:47Z</time>
   </trkpt>
   <trkpt lat="51.3003060" lon="5.9032590">
    <ele>32.2</ele>
    <time>2019-09-08T07:29:48Z</time>
   </trkpt>
   <trkpt lat="51.3002850" lon="5.9033720">
    <ele>32.3</ele>
    <time>2019-09-08T07:29:49Z</time>
   </trkpt>
   <trkpt lat="51.3002630" lon="5.9034740">
    <ele>32.4</ele>
    <time>2019-09-08T07:29:50Z</time>
   </trkpt>
   <trkpt lat="51.3002530" lon="5.9036020">
    <ele>32.6</ele>
    <time>2019-09-08T07:29:51Z</time>
   </trkpt>
   <trkpt lat="51.3002370" lon="5.9037210">
    <ele>32.8</ele>
    <time>2019-09-08T07:29:52Z</time>
   </trkpt>
   <trkpt lat="51.3002080" lon="5.9038110">
    <ele>32.9</ele>
    <time>2019-09-08T07:29:53Z</time>
   </trkpt>
   <trkpt lat="51.3001800" lon="5.9039180">
    <ele>32.9</ele>
    <time>2019-09-08T07:29:54Z</time>
   </trkpt>
   <trkpt lat="51.3001710" lon="5.9040190">
    <ele>33.0</ele>
    <time>2019-09-08T07:29:55Z</time>
   </trkpt>
   <trkpt lat="51.3001500" lon="5.9041110">
    <ele>33.0</ele>
    <time>2019-09-08T07:29:56Z</time>
   </trkpt>
   <trkpt lat="51.3001310" lon="5.9042070">
    <ele>33.1</ele>
    <time>2019-09-08T07:29:57Z</time>
   </trkpt>
   <trkpt lat="51.3001160" lon="5.9043160">
    <ele>33.1</ele>
    <time>2019-09-08T07:29:58Z</time>
   </trkpt>
   <trkpt lat="51.3001060" lon="5.9044200">
    <ele>33.2</ele>
    <time>2019-09-08T07:29:59Z</time>
   </trkpt>
   <trkpt lat="51.3000990" lon="5.9045210">
    <ele>33.3</ele>
    <time>2019-09-08T07:30:00Z</time>
   </trkpt>
   <trkpt lat="51.3000850" lon="5.9046160">
    <ele>33.3</ele>
    <time>2019-09-08T07:30:01Z</time>
   </trkpt>
   <trkpt lat="51.3000650" lon="5.9047310">
    <ele>33.5</ele>
    <time>2019-09-08T07:30:02Z</time>
   </trkpt>
   <trkpt lat="51.3000500" lon="5.9048350">
    <ele>33.6</ele>
    <time>2019-09-08T07:30:03Z</time>
   </trkpt>
   <trkpt lat="51.3000420" lon="5.9049490">
    <ele>33.7</ele>
    <time>2019-09-08T07:30:04Z</time>
   </trkpt>
   <trkpt lat="51.3000370" lon="5.9050680">
    <ele>33.8</ele>
    <time>2019-09-08T07:30:05Z</time>
   </trkpt>
   <trkpt lat="51.3000430" lon="5.9051760">
    <ele>34.0</ele>
    <time>2019-09-08T07:30:06Z</time>
   </trkpt>
   <trkpt lat="51.3000500" lon="5.9052820">
    <ele>34.1</ele>
    <time>2019-09-08T07:30:07Z</time>
   </trkpt>
   <trkpt lat="51.3000640" lon="5.9053800">
    <ele>34.1</ele>
    <time>2019-09-08T07:30:08Z</time>
   </trkpt>
   <trkpt lat="51.3000770" lon="5.9054350">
    <ele>34.2</ele>
    <time>2019-09-08T07:30:09Z</time>
   </trkpt>
   <trkpt lat="51.3000920" lon="5.9054920">
    <ele>34.2</ele>
    <time>2019-09-08T07:30:10Z</time>
   </trkpt>
   <trkpt lat="51.3001110" lon="5.9056000">
    <ele>34.2</ele>
    <time>2019-09-08T07:30:11Z</time>
   </trkpt>
   <trkpt lat="51.3001260" lon="5.9056560">
    <ele>34.2</ele>
    <time>2019-09-08T07:30:12Z</time>
   </trkpt>
   <trkpt lat="51.3000960" lon="5.9057080">
    <ele>34.3</ele>
    <time>2019-09-08T07:30:13Z</time>
   </trkpt>
   <trkpt lat="51.3000690" lon="5.9057860">
    <ele>34.3</ele>
    <time>2019-09-08T07:30:14Z</time>
   </trkpt>
   <trkpt lat="51.3000400" lon="5.9058590">
    <ele>34.3</ele>
    <time>2019-09-08T07:30:15Z</time>
   </trkpt>
   <trkpt lat="51.2999990" lon="5.9059180">
    <ele>34.8</ele>
    <time>2019-09-08T07:30:16Z</time>
   </trkpt>
   <trkpt lat="51.2999450" lon="5.9059450">
    <ele>35.1</ele>
    <time>2019-09-08T07:30:17Z</time>
   </trkpt>
   <trkpt lat="51.2998880" lon="5.9059770">
    <ele>35.4</ele>
    <time>2019-09-08T07:30:18Z</time>
   </trkpt>
   <trkpt lat="51.2998250" lon="5.9060830">
    <ele>35.8</ele>
    <time>2019-09-08T07:30:19Z</time>
   </trkpt>
   <trkpt lat="51.2997570" lon="5.9060980">
    <ele>36.1</ele>
    <time>2019-09-08T07:30:20Z</time>
   </trkpt>
   <trkpt lat="51.2997000" lon="5.9061290">
    <ele>36.3</ele>
    <time>2019-09-08T07:30:21Z</time>
   </trkpt>
   <trkpt lat="51.2996470" lon="5.9061580">
    <ele>36.5</ele>
    <time>2019-09-08T07:30:22Z</time>
   </trkpt>
   <trkpt lat="51.2995610" lon="5.9062040">
    <ele>36.8</ele>
    <time>2019-09-08T07:30:23Z</time>
   </trkpt>
   <trkpt lat="51.2995050" lon="5.9062440">
    <ele>37.0</ele>
    <time>2019-09-08T07:30:24Z</time>
   </trkpt>
   <trkpt lat="51.2994260" lon="5.9063480">
    <ele>37.2</ele>
    <time>2019-09-08T07:30:25Z</time>
   </trkpt>
   <trkpt lat="51.2993740" lon="5.9063750">
    <ele>37.4</ele>
    <time>2019-09-08T07:30:26Z</time>
   </trkpt>
   <trkpt lat="51.2993300" lon="5.9064310">
    <ele>37.5</ele>
    <time>2019-09-08T07:30:27Z</time>
   </trkpt>
   <trkpt lat="51.2992580" lon="5.9064780">
    <ele>37.7</ele>
    <time>2019-09-08T07:30:28Z</time>
   </trkpt>
   <trkpt lat="51.2991970" lon="5.9065170">
    <ele>37.8</ele>
    <time>2019-09-08T07:30:29Z</time>
   </trkpt>
   <trkpt lat="51.2991440" lon="5.9065680">
    <ele>37.9</ele>
    <time>2019-09-08T07:30:30Z</time>
   </trkpt>
   <trkpt lat="51.2990940" lon="5.9066150">
    <ele>38.1</ele>
    <time>2019-09-08T07:30:31Z</time>
   </trkpt>
   <trkpt lat="51.2990370" lon="5.9066660">
    <ele>38.2</ele>
    <time>2019-09-08T07:30:32Z</time>
   </trkpt>
   <trkpt lat="51.2989820" lon="5.9067120">
    <ele>38.3</ele>
    <time>2019-09-08T07:30:33Z</time>
   </trkpt>
   <trkpt lat="51.2989080" lon="5.9067500">
    <ele>38.4</ele>
    <time>2019-09-08T07:30:34Z</time>
   </trkpt>
   <trkpt lat="51.2988440" lon="5.9067920">
    <ele>38.6</ele>
    <time>2019-09-08T07:30:35Z</time>
   </trkpt>
   <trkpt lat="51.2987760" lon="5.9068460">
    <ele>38.7</ele>
    <time>2019-09-08T07:30:36Z</time>
   </trkpt>
   <trkpt lat="51.2987050" lon="5.9068610">
    <ele>38.8</ele>
    <time>2019-09-08T07:30:37Z</time>
   </trkpt>
   <trkpt lat="51.2986610" lon="5.9068940">
    <ele>38.9</ele>
    <time>2019-09-08T07:30:38Z</time>
   </trkpt>
   <trkpt lat="51.2986090" lon="5.9069490">
    <ele>39.0</ele>
    <time>2019-09-08T07:30:39Z</time>
   </trkpt>
   <trkpt lat="51.2985480" lon="5.9069790">
    <ele>39.1</ele>
    <time>2019-09-08T07:30:40Z</time>
   </trkpt>
   <trkpt lat="51.2984810" lon="5.9070210">
    <ele>39.2</ele>
    <time>2019-09-08T07:30:41Z</time>
   </trkpt>
   <trkpt lat="51.2984090" lon="5.9070590">
    <ele>39.3</ele>
    <time>2019-09-08T07:30:42Z</time>
   </trkpt>
   <trkpt lat="51.2983510" lon="5.9071060">
    <ele>39.4</ele>
    <time>2019-09-08T07:30:43Z</time>
   </trkpt>
   <trkpt lat="51.2983060" lon="5.9071460">
    <ele>39.5</ele>
    <time>2019-09-08T07:30:44Z</time>
   </trkpt>
   <trkpt lat="51.2982440" lon="5.9071800">
    <ele>39.6</ele>
    <time>2019-09-08T07:30:45Z</time>
   </trkpt>
   <trkpt lat="51.2981990" lon="5.9072510">
    <ele>39.7</ele>
    <time>2019-09-08T07:30:46Z</time>
   </trkpt>
   <trkpt lat="51.2981300" lon="5.9073020">
    <ele>39.8</ele>
    <time>2019-09-08T07:30:47Z</time>
   </trkpt>
   <trkpt lat="51.2980700" lon="5.9073520">
    <ele>39.9</ele>
    <time>2019-09-08T07:30:48Z</time>
   </trkpt>
   <trkpt lat="51.2980080" lon="5.9073960">
    <ele>39.7</ele>
    <time>2019-09-08T07:30:49Z</time>
   </trkpt>
   <trkpt lat="51.2979420" lon="5.9074300">
    <ele>39.5</ele>
    <time>2019-09-08T07:30:50Z</time>
   </trkpt>
   <trkpt lat="51.2978610" lon="5.9074970">
    <ele>39.3</ele>
    <time>2019-09-08T07:30:51Z</time>
   </trkpt>
   <trkpt lat="51.2977690" lon="5.9075400">
    <ele>39.1</ele>
    <time>2019-09-08T07:30:52Z</time>
   </trkpt>
   <trkpt lat="51.2977090" lon="5.9075920">
    <ele>39.1</ele>
    <time>2019-09-08T07:30:53Z</time>
   </trkpt>
   <trkpt lat="51.2976490" lon="5.9076290">
    <ele>39.1</ele>
    <time>2019-09-08T07:30:54Z</time>
   </trkpt>
   <trkpt lat="51.2975950" lon="5.9076740">
    <ele>39.1</ele>
    <time>2019-09-08T07:30:55Z</time>
   </trkpt>
   <trkpt lat="51.2975020" lon="5.9076900">
    <ele>39.0</ele>
    <time>2019-09-08T07:30:56Z</time>
   </trkpt>
   <trkpt lat="51.2974310" lon="5.9077210">
    <ele>39.0</ele>
    <time>2019-09-08T07:30:57Z</time>
   </trkpt>
   <trkpt lat="51.2973570" lon="5.9077630">
    <ele>38.9</ele>
    <time>2019-09-08T07:30:58Z</time>
   </trkpt>
   <trkpt lat="51.2972860" lon="5.9078040">
    <ele>38.7</ele>
    <time>2019-09-08T07:30:59Z</time>
   </trkpt>
   <trkpt lat="51.2972180" lon="5.9078470">
    <ele>38.5</ele>
    <time>2019-09-08T07:31:00Z</time>
   </trkpt>
   <trkpt lat="51.2971600" lon="5.9078830">
    <ele>38.2</ele>
    <time>2019-09-08T07:31:01Z</time>
   </trkpt>
   <trkpt lat="51.2971070" lon="5.9079290">
    <ele>38.0</ele>
    <time>2019-09-08T07:31:02Z</time>
   </trkpt>
   <trkpt lat="51.2970350" lon="5.9079710">
    <ele>37.8</ele>
    <time>2019-09-08T07:31:03Z</time>
   </trkpt>
   <trkpt lat="51.2969680" lon="5.9080200">
    <ele>37.6</ele>
    <time>2019-09-08T07:31:04Z</time>
   </trkpt>
   <trkpt lat="51.2968910" lon="5.9080700">
    <ele>37.4</ele>
    <time>2019-09-08T07:31:05Z</time>
   </trkpt>
   <trkpt lat="51.2968180" lon="5.9081220">
    <ele>37.3</ele>
    <time>2019-09-08T07:31:06Z</time>
   </trkpt>
   <trkpt lat="51.2967510" lon="5.9081690">
    <ele>37.3</ele>
    <time>2019-09-08T07:31:07Z</time>
   </trkpt>
   <trkpt lat="51.2966700" lon="5.9082410">
    <ele>37.3</ele>
    <time>2019-09-08T07:31:08Z</time>
   </trkpt>
   <trkpt lat="51.2966120" lon="5.9082990">
    <ele>37.3</ele>
    <time>2019-09-08T07:31:09Z</time>
   </trkpt>
   <trkpt lat="51.2965360" lon="5.9083400">
    <ele>37.3</ele>
    <time>2019-09-08T07:31:10Z</time>
   </trkpt>
   <trkpt lat="51.2964670" lon="5.9083730">
    <ele>37.3</ele>
    <time>2019-09-08T07:31:11Z</time>
   </trkpt>
   <trkpt lat="51.2964050" lon="5.9084310">
    <ele>37.3</ele>
    <time>2019-09-08T07:31:12Z</time>
   </trkpt>
   <trkpt lat="51.2963390" lon="5.9084760">
    <ele>37.3</ele>
    <time>2019-09-08T07:31:13Z</time>
   </trkpt>
   <trkpt lat="51.2962790" lon="5.9085160">
    <ele>37.2</ele>
    <time>2019-09-08T07:31:14Z</time>
   </trkpt>
   <trkpt lat="51.2962250" lon="5.9085840">
    <ele>37.2</ele>
    <time>2019-09-08T07:31:15Z</time>
   </trkpt>
   <trkpt lat="51.2961540" lon="5.9086220">
    <ele>37.2</ele>
    <time>2019-09-08T07:31:16Z</time>
   </trkpt>
   <trkpt lat="51.2960850" lon="5.9086680">
    <ele>37.2</ele>
    <time>2019-09-08T07:31:17Z</time>
   </trkpt>
   <trkpt lat="51.2960110" lon="5.9087110">
    <ele>37.1</ele>
    <time>2019-09-08T07:31:18Z</time>
   </trkpt>
   <trkpt lat="51.2959440" lon="5.9087690">
    <ele>37.1</ele>
    <time>2019-09-08T07:31:19Z</time>
   </trkpt>
   <trkpt lat="51.2958810" lon="5.9088380">
    <ele>37.1</ele>
    <time>2019-09-08T07:31:20Z</time>
   </trkpt>
   <trkpt lat="51.2958100" lon="5.9088820">
    <ele>37.1</ele>
    <time>2019-09-08T07:31:21Z</time>
   </trkpt>
   <trkpt lat="51.2957450" lon="5.9089260">
    <ele>37.0</ele>
    <time>2019-09-08T07:31:22Z</time>
   </trkpt>
   <trkpt lat="51.2956780" lon="5.9089480">
    <ele>36.9</ele>
    <time>2019-09-08T07:31:23Z</time>
   </trkpt>
   <trkpt lat="51.2956150" lon="5.9090020">
    <ele>36.8</ele>
    <time>2019-09-08T07:31:24Z</time>
   </trkpt>
   <trkpt lat="51.2955590" lon="5.9090630">
    <ele>36.6</ele>
    <time>2019-09-08T07:31:25Z</time>
   </trkpt>
   <trkpt lat="51.2954940" lon="5.9090960">
    <ele>36.4</ele>
    <time>2019-09-08T07:31:26Z</time>
   </trkpt>
   <trkpt lat="51.2954310" lon="5.9091520">
    <ele>35.9</ele>
    <time>2019-09-08T07:31:27Z</time>
   </trkpt>
   <trkpt lat="51.2953900" lon="5.9092060">
    <ele>35.6</ele>
    <time>2019-09-08T07:31:28Z</time>
   </trkpt>
   <trkpt lat="51.2953200" lon="5.9092480">
    <ele>35.1</ele>
    <time>2019-09-08T07:31:29Z</time>
   </trkpt>
   <trkpt lat="51.2952630" lon="5.9093130">
    <ele>34.7</ele>
    <time>2019-09-08T07:31:30Z</time>
   </trkpt>
   <trkpt lat="51.2952130" lon="5.9093580">
    <ele>34.4</ele>
    <time>2019-09-08T07:31:31Z</time>
   </trkpt>
   <trkpt lat="51.2951350" lon="5.9094060">
    <ele>34.1</ele>
    <time>2019-09-08T07:31:32Z</time>
   </trkpt>
   <trkpt lat="51.2950480" lon="5.9094320">
    <ele>34.0</ele>
    <time>2019-09-08T07:31:33Z</time>
   </trkpt>
   <trkpt lat="51.2949820" lon="5.9094900">
    <ele>34.0</ele>
    <time>2019-09-08T07:31:34Z</time>
   </trkpt>
   <trkpt lat="51.2948940" lon="5.9095480">
    <ele>34.2</ele>
    <time>2019-09-08T07:31:35Z</time>
   </trkpt>
   <trkpt lat="51.2948410" lon="5.9095730">
    <ele>34.3</ele>
    <time>2019-09-08T07:31:36Z</time>
   </trkpt>
   <trkpt lat="51.2947800" lon="5.9096170">
    <ele>34.2</ele>
    <time>2019-09-08T07:31:37Z</time>
   </trkpt>
   <trkpt lat="51.2947150" lon="5.9096630">
    <ele>34.1</ele>
    <time>2019-09-08T07:31:38Z</time>
   </trkpt>
   <trkpt lat="51.2946450" lon="5.9097100">
    <ele>34.0</ele>
    <time>2019-09-08T07:31:39Z</time>
   </trkpt>
   <trkpt lat="51.2945820" lon="5.9097410">
    <ele>33.8</ele>
    <time>2019-09-08T07:31:40Z</time>
   </trkpt>
   <trkpt lat="51.2945140" lon="5.9097870">
    <ele>33.7</ele>
    <time>2019-09-08T07:31:41Z</time>
   </trkpt>
   <trkpt lat="51.2944490" lon="5.9098350">
    <ele>33.5</ele>
    <time>2019-09-08T07:31:42Z</time>
   </trkpt>
   <trkpt lat="51.2943740" lon="5.9098710">
    <ele>33.4</ele>
    <time>2019-09-08T07:31:43Z</time>
   </trkpt>
   <trkpt lat="51.2943040" lon="5.9098980">
    <ele>33.3</ele>
    <time>2019-09-08T07:31:44Z</time>
   </trkpt>
   <trkpt lat="51.2942280" lon="5.9099460">
    <ele>33.2</ele>
    <time>2019-09-08T07:31:45Z</time>
   </trkpt>
   <trkpt lat="51.2941620" lon="5.9099900">
    <ele>33.1</ele>
    <time>2019-09-08T07:31:46Z</time>
   </trkpt>
   <trkpt lat="51.2940920" lon="5.9100200">
    <ele>33.1</ele>
    <time>2019-09-08T07:31:47Z</time>
   </trkpt>
   <trkpt lat="51.2940280" lon="5.9100600">
    <ele>33.0</ele>
    <time>2019-09-08T07:31:48Z</time>
   </trkpt>
   <trkpt lat="51.2939690" lon="5.9101090">
    <ele>32.9</ele>
    <time>2019-09-08T07:31:49Z</time>
   </trkpt>
   <trkpt lat="51.2938940" lon="5.9101420">
    <ele>32.8</ele>
    <time>2019-09-08T07:31:50Z</time>
   </trkpt>
   <trkpt lat="51.2938300" lon="5.9101790">
    <ele>32.7</ele>
    <time>2019-09-08T07:31:51Z</time>
   </trkpt>
   <trkpt lat="51.2937620" lon="5.9102190">
    <ele>32.6</ele>
    <time>2019-09-08T07:31:52Z</time>
   </trkpt>
   <trkpt lat="51.2937000" lon="5.9102640">
    <ele>32.5</ele>
    <time>2019-09-08T07:31:53Z</time>
   </trkpt>
   <trkpt lat="51.2936360" lon="5.9103000">
    <ele>32.4</ele>
    <time>2019-09-08T07:31:54Z</time>
   </trkpt>
   <trkpt lat="51.2935680" lon="5.9103300">
    <ele>32.3</ele>
    <time>2019-09-08T07:31:55Z</time>
   </trkpt>
   <trkpt lat="51.2935000" lon="5.9103650">
    <ele>32.2</ele>
    <time>2019-09-08T07:31:56Z</time>
   </trkpt>
   <trkpt lat="51.2934330" lon="5.9103890">
    <ele>32.1</ele>
    <time>2019-09-08T07:31:57Z</time>
   </trkpt>
   <trkpt lat="51.2933640" lon="5.9104210">
    <ele>32.0</ele>
    <time>2019-09-08T07:31:58Z</time>
   </trkpt>
   <trkpt lat="51.2932870" lon="5.9104550">
    <ele>31.9</ele>
    <time>2019-09-08T07:31:59Z</time>
   </trkpt>
   <trkpt lat="51.2932200" lon="5.9104920">
    <ele>31.8</ele>
    <time>2019-09-08T07:32:00Z</time>
   </trkpt>
   <trkpt lat="51.2931440" lon="5.9105210">
    <ele>31.6</ele>
    <time>2019-09-08T07:32:01Z</time>
   </trkpt>
   <trkpt lat="51.2930710" lon="5.9105530">
    <ele>31.5</ele>
    <time>2019-09-08T07:32:02Z</time>
   </trkpt>
   <trkpt lat="51.2930020" lon="5.9105900">
    <ele>31.3</ele>
    <time>2019-09-08T07:32:03Z</time>
   </trkpt>
   <trkpt lat="51.2929260" lon="5.9106240">
    <ele>31.2</ele>
    <time>2019-09-08T07:32:04Z</time>
   </trkpt>
   <trkpt lat="51.2928620" lon="5.9106600">
    <ele>31.0</ele>
    <time>2019-09-08T07:32:05Z</time>
   </trkpt>
   <trkpt lat="51.2927930" lon="5.9106980">
    <ele>30.9</ele>
    <time>2019-09-08T07:32:06Z</time>
   </trkpt>
   <trkpt lat="51.2927310" lon="5.9107300">
    <ele>30.8</ele>
    <time>2019-09-08T07:32:07Z</time>
   </trkpt>
   <trkpt lat="51.2926650" lon="5.9107710">
    <ele>30.6</ele>
    <time>2019-09-08T07:32:08Z</time>
   </trkpt>
   <trkpt lat="51.2926000" lon="5.9107960">
    <ele>30.5</ele>
    <time>2019-09-08T07:32:09Z</time>
   </trkpt>
   <trkpt lat="51.2925410" lon="5.9108340">
    <ele>30.4</ele>
    <time>2019-09-08T07:32:10Z</time>
   </trkpt>
   <trkpt lat="51.2924720" lon="5.9108710">
    <ele>30.3</ele>
    <time>2019-09-08T07:32:11Z</time>
   </trkpt>
   <trkpt lat="51.2924000" lon="5.9109080">
    <ele>30.2</ele>
    <time>2019-09-08T07:32:12Z</time>
   </trkpt>
   <trkpt lat="51.2923320" lon="5.9109470">
    <ele>30.1</ele>
    <time>2019-09-08T07:32:13Z</time>
   </trkpt>
   <trkpt lat="51.2922580" lon="5.9109730">
    <ele>30.0</ele>
    <time>2019-09-08T07:32:14Z</time>
   </trkpt>
   <trkpt lat="51.2921910" lon="5.9110130">
    <ele>29.9</ele>
    <time>2019-09-08T07:32:15Z</time>
   </trkpt>
   <trkpt lat="51.2921360" lon="5.9110530">
    <ele>29.8</ele>
    <time>2019-09-08T07:32:16Z</time>
   </trkpt>
   <trkpt lat="51.2920630" lon="5.9110790">
    <ele>29.6</ele>
    <time>2019-09-08T07:32:17Z</time>
   </trkpt>
   <trkpt lat="51.2919880" lon="5.9111000">
    <ele>29.5</ele>
    <time>2019-09-08T07:32:18Z</time>
   </trkpt>
   <trkpt lat="51.2919180" lon="5.9111160">
    <ele>29.4</ele>
    <time>2019-09-08T07:32:19Z</time>
   </trkpt>
   <trkpt lat="51.2918410" lon="5.9111290">
    <ele>29.2</ele>
    <time>2019-09-08T07:32:20Z</time>
   </trkpt>
   <trkpt lat="51.2917680" lon="5.9111420">
    <ele>29.2</ele>
    <time>2019-09-08T07:32:21Z</time>
   </trkpt>
   <trkpt lat="51.2916900" lon="5.9111640">
    <ele>29.2</ele>
    <time>2019-09-08T07:32:22Z</time>
   </trkpt>
   <trkpt lat="51.2916190" lon="5.9111900">
    <ele>29.2</ele>
    <time>2019-09-08T07:32:23Z</time>
   </trkpt>
   <trkpt lat="51.2915430" lon="5.9112040">
    <ele>29.3</ele>
    <time>2019-09-08T07:32:24Z</time>
   </trkpt>
   <trkpt lat="51.2914670" lon="5.9112280">
    <ele>29.4</ele>
    <time>2019-09-08T07:32:25Z</time>
   </trkpt>
   <trkpt lat="51.2913970" lon="5.9112480">
    <ele>29.5</ele>
    <time>2019-09-08T07:32:26Z</time>
   </trkpt>
   <trkpt lat="51.2913220" lon="5.9112620">
    <ele>29.6</ele>
    <time>2019-09-08T07:32:27Z</time>
   </trkpt>
   <trkpt lat="51.2912520" lon="5.9112850">
    <ele>29.6</ele>
    <time>2019-09-08T07:32:28Z</time>
   </trkpt>
   <trkpt lat="51.2911840" lon="5.9113110">
    <ele>29.7</ele>
    <time>2019-09-08T07:32:29Z</time>
   </trkpt>
   <trkpt lat="51.2911160" lon="5.9113310">
    <ele>29.8</ele>
    <time>2019-09-08T07:32:30Z</time>
   </trkpt>
   <trkpt lat="51.2910360" lon="5.9113450">
    <ele>29.9</ele>
    <time>2019-09-08T07:32:31Z</time>
   </trkpt>
   <trkpt lat="51.2909630" lon="5.9113650">
    <ele>30.0</ele>
    <time>2019-09-08T07:32:32Z</time>
   </trkpt>
   <trkpt lat="51.2908920" lon="5.9113910">
    <ele>30.0</ele>
    <time>2019-09-08T07:32:33Z</time>
   </trkpt>
   <trkpt lat="51.2908220" lon="5.9114120">
    <ele>30.1</ele>
    <time>2019-09-08T07:32:34Z</time>
   </trkpt>
   <trkpt lat="51.2907530" lon="5.9114410">
    <ele>30.1</ele>
    <time>2019-09-08T07:32:35Z</time>
   </trkpt>
   <trkpt lat="51.2906770" lon="5.9114730">
    <ele>30.1</ele>
    <time>2019-09-08T07:32:36Z</time>
   </trkpt>
   <trkpt lat="51.2906040" lon="5.9114960">
    <ele>30.2</ele>
    <time>2019-09-08T07:32:37Z</time>
   </trkpt>
   <trkpt lat="51.2905340" lon="5.9115170">
    <ele>30.2</ele>
    <time>2019-09-08T07:32:38Z</time>
   </trkpt>
   <trkpt lat="51.2904700" lon="5.9115380">
    <ele>30.2</ele>
    <time>2019-09-08T07:32:39Z</time>
   </trkpt>
   <trkpt lat="51.2904020" lon="5.9115770">
    <ele>30.2</ele>
    <time>2019-09-08T07:32:40Z</time>
   </trkpt>
   <trkpt lat="51.2903260" lon="5.9116050">
    <ele>30.3</ele>
    <time>2019-09-08T07:32:41Z</time>
   </trkpt>
   <trkpt lat="51.2902550" lon="5.9116420">
    <ele>30.3</ele>
    <time>2019-09-08T07:32:42Z</time>
   </trkpt>
   <trkpt lat="51.2901740" lon="5.9116740">
    <ele>30.3</ele>
    <time>2019-09-08T07:32:43Z</time>
   </trkpt>
   <trkpt lat="51.2901210" lon="5.9117240">
    <ele>30.4</ele>
    <time>2019-09-08T07:32:44Z</time>
   </trkpt>
   <trkpt lat="51.2900530" lon="5.9117590">
    <ele>30.4</ele>
    <time>2019-09-08T07:32:45Z</time>
   </trkpt>
   <trkpt lat="51.2899880" lon="5.9117880">
    <ele>30.4</ele>
    <time>2019-09-08T07:32:46Z</time>
   </trkpt>
   <trkpt lat="51.2899120" lon="5.9118150">
    <ele>30.4</ele>
    <time>2019-09-08T07:32:47Z</time>
   </trkpt>
   <trkpt lat="51.2898370" lon="5.9118410">
    <ele>30.4</ele>
    <time>2019-09-08T07:32:48Z</time>
   </trkpt>
   <trkpt lat="51.2897630" lon="5.9118680">
    <ele>30.5</ele>
    <time>2019-09-08T07:32:49Z</time>
   </trkpt>
   <trkpt lat="51.2897010" lon="5.9119010">
    <ele>30.5</ele>
    <time>2019-09-08T07:32:50Z</time>
   </trkpt>
   <trkpt lat="51.2896280" lon="5.9119230">
    <ele>30.5</ele>
    <time>2019-09-08T07:32:51Z</time>
   </trkpt>
   <trkpt lat="51.2895550" lon="5.9119480">
    <ele>30.5</ele>
    <time>2019-09-08T07:32:52Z</time>
   </trkpt>
   <trkpt lat="51.2894890" lon="5.9119740">
    <ele>30.6</ele>
    <time>2019-09-08T07:32:53Z</time>
   </trkpt>
   <trkpt lat="51.2894160" lon="5.9120010">
    <ele>30.6</ele>
    <time>2019-09-08T07:32:54Z</time>
   </trkpt>
   <trkpt lat="51.2893440" lon="5.9120350">
    <ele>30.7</ele>
    <time>2019-09-08T07:32:55Z</time>
   </trkpt>
   <trkpt lat="51.2892890" lon="5.9120760">
    <ele>30.7</ele>
    <time>2019-09-08T07:32:56Z</time>
   </trkpt>
   <trkpt lat="51.2892190" lon="5.9121020">
    <ele>30.7</ele>
    <time>2019-09-08T07:32:57Z</time>
   </trkpt>
   <trkpt lat="51.2891580" lon="5.9121240">
    <ele>30.8</ele>
    <time>2019-09-08T07:32:58Z</time>
   </trkpt>
   <trkpt lat="51.2890820" lon="5.9121420">
    <ele>30.8</ele>
    <time>2019-09-08T07:32:59Z</time>
   </trkpt>
   <trkpt lat="51.2890100" lon="5.9121680">
    <ele>30.8</ele>
    <time>2019-09-08T07:33:00Z</time>
   </trkpt>
   <trkpt lat="51.2889450" lon="5.9122050">
    <ele>30.8</ele>
    <time>2019-09-08T07:33:01Z</time>
   </trkpt>
   <trkpt lat="51.2888790" lon="5.9122330">
    <ele>30.8</ele>
    <time>2019-09-08T07:33:02Z</time>
   </trkpt>
   <trkpt lat="51.2888070" lon="5.9122500">
    <ele>30.8</ele>
    <time>2019-09-08T07:33:03Z</time>
   </trkpt>
   <trkpt lat="51.2887340" lon="5.9122690">
    <ele>30.8</ele>
    <time>2019-09-08T07:33:04Z</time>
   </trkpt>
   <trkpt lat="51.2886560" lon="5.9123010">
    <ele>30.9</ele>
    <time>2019-09-08T07:33:05Z</time>
   </trkpt>
   <trkpt lat="51.2885890" lon="5.9123290">
    <ele>30.9</ele>
    <time>2019-09-08T07:33:06Z</time>
   </trkpt>
   <trkpt lat="51.2885200" lon="5.9123520">
    <ele>30.9</ele>
    <time>2019-09-08T07:33:07Z</time>
   </trkpt>
   <trkpt lat="51.2884480" lon="5.9123890">
    <ele>30.9</ele>
    <time>2019-09-08T07:33:08Z</time>
   </trkpt>
   <trkpt lat="51.2883840" lon="5.9124100">
    <ele>30.9</ele>
    <time>2019-09-08T07:33:09Z</time>
   </trkpt>
   <trkpt lat="51.2883150" lon="5.9124350">
    <ele>30.9</ele>
    <time>2019-09-08T07:33:10Z</time>
   </trkpt>
   <trkpt lat="51.2882570" lon="5.9124760">
    <ele>30.9</ele>
    <time>2019-09-08T07:33:11Z</time>
   </trkpt>
   <trkpt lat="51.2881920" lon="5.9125120">
    <ele>30.9</ele>
    <time>2019-09-08T07:33:12Z</time>
   </trkpt>
   <trkpt lat="51.2881350" lon="5.9125440">
    <ele>30.9</ele>
    <time>2019-09-08T07:33:13Z</time>
   </trkpt>
   <trkpt lat="51.2880770" lon="5.9125800">
    <ele>30.9</ele>
    <time>2019-09-08T07:33:14Z</time>
   </trkpt>
   <trkpt lat="51.2880130" lon="5.9126160">
    <ele>31.0</ele>
    <time>2019-09-08T07:33:15Z</time>
   </trkpt>
   <trkpt lat="51.2879540" lon="5.9126470">
    <ele>31.0</ele>
    <time>2019-09-08T07:33:16Z</time>
   </trkpt>
   <trkpt lat="51.2878910" lon="5.9126850">
    <ele>30.9</ele>
    <time>2019-09-08T07:33:17Z</time>
   </trkpt>
   <trkpt lat="51.2878270" lon="5.9127310">
    <ele>30.9</ele>
    <time>2019-09-08T07:33:18Z</time>
   </trkpt>
   <trkpt lat="51.2877620" lon="5.9127690">
    <ele>30.8</ele>
    <time>2019-09-08T07:33:19Z</time>
   </trkpt>
   <trkpt lat="51.2877000" lon="5.9128230">
    <ele>30.8</ele>
    <time>2019-09-08T07:33:20Z</time>
   </trkpt>
   <trkpt lat="51.2876350" lon="5.9128690">
    <ele>30.7</ele>
    <time>2019-09-08T07:33:21Z</time>
   </trkpt>
   <trkpt lat="51.2875660" lon="5.9129240">
    <ele>30.7</ele>
    <time>2019-09-08T07:33:22Z</time>
   </trkpt>
   <trkpt lat="51.2874950" lon="5.9129620">
    <ele>30.6</ele>
    <time>2019-09-08T07:33:23Z</time>
   </trkpt>
   <trkpt lat="51.2874260" lon="5.9130090">
    <ele>30.6</ele>
    <time>2019-09-08T07:33:24Z</time>
   </trkpt>
   <trkpt lat="51.2873530" lon="5.9130670">
    <ele>30.6</ele>
    <time>2019-09-08T07:33:25Z</time>
   </trkpt>
   <trkpt lat="51.2872780" lon="5.9131190">
    <ele>30.6</ele>
    <time>2019-09-08T07:33:26Z</time>
   </trkpt>
   <trkpt lat="51.2872100" lon="5.9131700">
    <ele>30.6</ele>
    <time>2019-09-08T07:33:27Z</time>
   </trkpt>
   <trkpt lat="51.2871430" lon="5.9132260">
    <ele>30.6</ele>
    <time>2019-09-08T07:33:28Z</time>
   </trkpt>
   <trkpt lat="51.2870740" lon="5.9132740">
    <ele>30.6</ele>
    <time>2019-09-08T07:33:29Z</time>
   </trkpt>
   <trkpt lat="51.2870060" lon="5.9133180">
    <ele>30.6</ele>
    <time>2019-09-08T07:33:30Z</time>
   </trkpt>
   <trkpt lat="51.2869440" lon="5.9133600">
    <ele>30.6</ele>
    <time>2019-09-08T07:33:31Z</time>
   </trkpt>
   <trkpt lat="51.2868840" lon="5.9134070">
    <ele>30.7</ele>
    <time>2019-09-08T07:33:32Z</time>
   </trkpt>
   <trkpt lat="51.2868210" lon="5.9134530">
    <ele>30.7</ele>
    <time>2019-09-08T07:33:33Z</time>
   </trkpt>
   <trkpt lat="51.2867720" lon="5.9134890">
    <ele>30.8</ele>
    <time>2019-09-08T07:33:34Z</time>
   </trkpt>
   <trkpt lat="51.2867240" lon="5.9135320">
    <ele>30.8</ele>
    <time>2019-09-08T07:33:35Z</time>
   </trkpt>
   <trkpt lat="51.2866790" lon="5.9135710">
    <ele>30.9</ele>
    <time>2019-09-08T07:33:36Z</time>
   </trkpt>
   <trkpt lat="51.2866640" lon="5.9136430">
    <ele>31.0</ele>
    <time>2019-09-08T07:33:37Z</time>
   </trkpt>
   <trkpt lat="51.2866760" lon="5.9137240">
    <ele>30.9</ele>
    <time>2019-09-08T07:33:38Z</time>
   </trkpt>
   <trkpt lat="51.2866910" lon="5.9138240">
    <ele>30.9</ele>
    <time>2019-09-08T07:33:39Z</time>
   </trkpt>
   <trkpt lat="51.2867150" lon="5.9139120">
    <ele>30.8</ele>
    <time>2019-09-08T07:33:40Z</time>
   </trkpt>
   <trkpt lat="51.2867330" lon="5.9140090">
    <ele>30.8</ele>
    <time>2019-09-08T07:33:41Z</time>
   </trkpt>
   <trkpt lat="51.2867560" lon="5.9141150">
    <ele>30.8</ele>
    <time>2019-09-08T07:33:42Z</time>
   </trkpt>
   <trkpt lat="51.2867560" lon="5.9142350">
    <ele>30.8</ele>
    <time>2019-09-08T07:33:43Z</time>
   </trkpt>
   <trkpt lat="51.2867800" lon="5.9143610">
    <ele>30.8</ele>
    <time>2019-09-08T07:33:44Z</time>
   </trkpt>
   <trkpt lat="51.2867840" lon="5.9144710">
    <ele>30.8</ele>
    <time>2019-09-08T07:33:45Z</time>
   </trkpt>
   <trkpt lat="51.2867760" lon="5.9145620">
    <ele>30.8</ele>
    <time>2019-09-08T07:33:46Z</time>
   </trkpt>
   <trkpt lat="51.2867730" lon="5.9146830">
    <ele>30.8</ele>
    <time>2019-09-08T07:33:47Z</time>
   </trkpt>
   <trkpt lat="51.2867790" lon="5.9148010">
    <ele>30.7</ele>
    <time>2019-09-08T07:33:48Z</time>
   </trkpt>
   <trkpt lat="51.2867790" lon="5.9149230">
    <ele>30.7</ele>
    <time>2019-09-08T07:33:49Z</time>
   </trkpt>
   <trkpt lat="51.2867790" lon="5.9150440">
    <ele>30.7</ele>
    <time>2019-09-08T07:33:50Z</time>
   </trkpt>
   <trkpt lat="51.2867820" lon="5.9151520">
    <ele>30.7</ele>
    <time>2019-09-08T07:33:51Z</time>
   </trkpt>
   <trkpt lat="51.2867830" lon="5.9152670">
    <ele>30.8</ele>
    <time>2019-09-08T07:33:52Z</time>
   </trkpt>
   <trkpt lat="51.2867840" lon="5.9153890">
    <ele>30.8</ele>
    <time>2019-09-08T07:33:53Z</time>
   </trkpt>
   <trkpt lat="51.2867840" lon="5.9154980">
    <ele>30.8</ele>
    <time>2019-09-08T07:33:54Z</time>
   </trkpt>
   <trkpt lat="51.2867860" lon="5.9156110">
    <ele>30.9</ele>
    <time>2019-09-08T07:33:55Z</time>
   </trkpt>
   <trkpt lat="51.2867970" lon="5.9157280">
    <ele>30.9</ele>
    <time>2019-09-08T07:33:56Z</time>
   </trkpt>
   <trkpt lat="51.2867980" lon="5.9158430">
    <ele>31.0</ele>
    <time>2019-09-08T07:33:57Z</time>
   </trkpt>
   <trkpt lat="51.2868030" lon="5.9159590">
    <ele>31.0</ele>
    <time>2019-09-08T07:33:58Z</time>
   </trkpt>
   <trkpt lat="51.2867950" lon="5.9160830">
    <ele>31.0</ele>
    <time>2019-09-08T07:33:59Z</time>
   </trkpt>
   <trkpt lat="51.2867970" lon="5.9162150">
    <ele>30.9</ele>
    <time>2019-09-08T07:34:00Z</time>
   </trkpt>
   <trkpt lat="51.2868060" lon="5.9163360">
    <ele>30.8</ele>
    <time>2019-09-08T07:34:01Z</time>
   </trkpt>
   <trkpt lat="51.2868090" lon="5.9164450">
    <ele>30.7</ele>
    <time>2019-09-08T07:34:02Z</time>
   </trkpt>
   <trkpt lat="51.2868200" lon="5.9165600">
    <ele>30.6</ele>
    <time>2019-09-08T07:34:03Z</time>
   </trkpt>
   <trkpt lat="51.2868440" lon="5.9166790">
    <ele>30.5</ele>
    <time>2019-09-08T07:34:04Z</time>
   </trkpt>
   <trkpt lat="51.2868580" lon="5.9167870">
    <ele>30.4</ele>
    <time>2019-09-08T07:34:05Z</time>
   </trkpt>
   <trkpt lat="51.2868810" lon="5.9169030">
    <ele>30.3</ele>
    <time>2019-09-08T07:34:06Z</time>
   </trkpt>
   <trkpt lat="51.2869000" lon="5.9169990">
    <ele>30.3</ele>
    <time>2019-09-08T07:34:07Z</time>
   </trkpt>
   <trkpt lat="51.2869290" lon="5.9171100">
    <ele>30.3</ele>
    <time>2019-09-08T07:34:08Z</time>
   </trkpt>
   <trkpt lat="51.2869520" lon="5.9172230">
    <ele>30.3</ele>
    <time>2019-09-08T07:34:09Z</time>
   </trkpt>
   <trkpt lat="51.2869790" lon="5.9173410">
    <ele>30.3</ele>
    <time>2019-09-08T07:34:10Z</time>
   </trkpt>
   <trkpt lat="51.2870070" lon="5.9174600">
    <ele>30.3</ele>
    <time>2019-09-08T07:34:11Z</time>
   </trkpt>
   <trkpt lat="51.2870300" lon="5.9175740">
    <ele>30.3</ele>
    <time>2019-09-08T07:34:12Z</time>
   </trkpt>
   <trkpt lat="51.2870510" lon="5.9176760">
    <ele>30.3</ele>
    <time>2019-09-08T07:34:13Z</time>
   </trkpt>
   <trkpt lat="51.2870730" lon="5.9177860">
    <ele>30.3</ele>
    <time>2019-09-08T07:34:14Z</time>
   </trkpt>
   <trkpt lat="51.2870890" lon="5.9178980">
    <ele>30.4</ele>
    <time>2019-09-08T07:34:15Z</time>
   </trkpt>
   <trkpt lat="51.2871090" lon="5.9180060">
    <ele>30.4</ele>
    <time>2019-09-08T07:34:16Z</time>
   </trkpt>
   <trkpt lat="51.2871330" lon="5.9181070">
    <ele>30.4</ele>
    <time>2019-09-08T07:34:17Z</time>
   </trkpt>
   <trkpt lat="51.2871560" lon="5.9182200">
    <ele>30.5</ele>
    <time>2019-09-08T07:34:18Z</time>
   </trkpt>
   <trkpt lat="51.2871820" lon="5.9183310">
    <ele>30.5</ele>
    <time>2019-09-08T07:34:19Z</time>
   </trkpt>
   <trkpt lat="51.2872080" lon="5.9184470">
    <ele>30.6</ele>
    <time>2019-09-08T07:34:20Z</time>
   </trkpt>
   <trkpt lat="51.2872280" lon="5.9185530">
    <ele>30.7</ele>
    <time>2019-09-08T07:34:21Z</time>
   </trkpt>
   <trkpt lat="51.2872430" lon="5.9186730">
    <ele>30.8</ele>
    <time>2019-09-08T07:34:22Z</time>
   </trkpt>
   <trkpt lat="51.2872640" lon="5.9187850">
    <ele>30.9</ele>
    <time>2019-09-08T07:34:23Z</time>
   </trkpt>
   <trkpt lat="51.2872840" lon="5.9188950">
    <ele>30.9</ele>
    <time>2019-09-08T07:34:24Z</time>
   </trkpt>
   <trkpt lat="51.2873040" lon="5.9189940">
    <ele>31.0</ele>
    <time>2019-09-08T07:34:25Z</time>
   </trkpt>
   <trkpt lat="51.2873240" lon="5.9190990">
    <ele>31.0</ele>
    <time>2019-09-08T07:34:26Z</time>
   </trkpt>
   <trkpt lat="51.2873490" lon="5.9192200">
    <ele>31.1</ele>
    <time>2019-09-08T07:34:27Z</time>
   </trkpt>
   <trkpt lat="51.2873700" lon="5.9193200">
    <ele>31.0</ele>
    <time>2019-09-08T07:34:28Z</time>
   </trkpt>
   <trkpt lat="51.2873930" lon="5.9194400">
    <ele>31.0</ele>
    <time>2019-09-08T07:34:29Z</time>
   </trkpt>
   <trkpt lat="51.2874190" lon="5.9195490">
    <ele>30.9</ele>
    <time>2019-09-08T07:34:30Z</time>
   </trkpt>
   <trkpt lat="51.2874430" lon="5.9196430">
    <ele>30.8</ele>
    <time>2019-09-08T07:34:31Z</time>
   </trkpt>
   <trkpt lat="51.2874610" lon="5.9197530">
    <ele>30.7</ele>
    <time>2019-09-08T07:34:32Z</time>
   </trkpt>
   <trkpt lat="51.2874690" lon="5.9198820">
    <ele>30.5</ele>
    <time>2019-09-08T07:34:33Z</time>
   </trkpt>
   <trkpt lat="51.2874840" lon="5.9199850">
    <ele>30.6</ele>
    <time>2019-09-08T07:34:34Z</time>
   </trkpt>
   <trkpt lat="51.2874970" lon="5.9200940">
    <ele>30.6</ele>
    <time>2019-09-08T07:34:35Z</time>
   </trkpt>
   <trkpt lat="51.2874990" lon="5.9202050">
    <ele>30.6</ele>
    <time>2019-09-08T07:34:36Z</time>
   </trkpt>
   <trkpt lat="51.2874820" lon="5.9203430">
    <ele>30.7</ele>
    <time>2019-09-08T07:34:37Z</time>
   </trkpt>
   <trkpt lat="51.2874580" lon="5.9204450">
    <ele>30.7</ele>
    <time>2019-09-08T07:34:38Z</time>
   </trkpt>
   <trkpt lat="51.2874210" lon="5.9205430">
    <ele>30.6</ele>
    <time>2019-09-08T07:34:39Z</time>
   </trkpt>
   <trkpt lat="51.2873800" lon="5.9206340">
    <ele>30.5</ele>
    <time>2019-09-08T07:34:40Z</time>
   </trkpt>
   <trkpt lat="51.2873310" lon="5.9207350">
    <ele>30.4</ele>
    <time>2019-09-08T07:34:41Z</time>
   </trkpt>
   <trkpt lat="51.2872830" lon="5.9208270">
    <ele>30.4</ele>
    <time>2019-09-08T07:34:42Z</time>
   </trkpt>
   <trkpt lat="51.2872450" lon="5.9209320">
    <ele>30.3</ele>
    <time>2019-09-08T07:34:43Z</time>
   </trkpt>
   <trkpt lat="51.2872040" lon="5.9210260">
    <ele>30.3</ele>
    <time>2019-09-08T07:34:44Z</time>
   </trkpt>
   <trkpt lat="51.2871650" lon="5.9211350">
    <ele>30.3</ele>
    <time>2019-09-08T07:34:45Z</time>
   </trkpt>
   <trkpt lat="51.2871260" lon="5.9212400">
    <ele>30.2</ele>
    <time>2019-09-08T07:34:46Z</time>
   </trkpt>
   <trkpt lat="51.2870860" lon="5.9213370">
    <ele>30.2</ele>
    <time>2019-09-08T07:34:47Z</time>
   </trkpt>
   <trkpt lat="51.2870390" lon="5.9214330">
    <ele>30.2</ele>
    <time>2019-09-08T07:34:48Z</time>
   </trkpt>
   <trkpt lat="51.2869970" lon="5.9215420">
    <ele>30.1</ele>
    <time>2019-09-08T07:34:49Z</time>
   </trkpt>
   <trkpt lat="51.2869540" lon="5.9216300">
    <ele>30.1</ele>
    <time>2019-09-08T07:34:50Z</time>
   </trkpt>
   <trkpt lat="51.2869080" lon="5.9217270">
    <ele>30.1</ele>
    <time>2019-09-08T07:34:51Z</time>
   </trkpt>
   <trkpt lat="51.2868660" lon="5.9218250">
    <ele>30.1</ele>
    <time>2019-09-08T07:34:52Z</time>
   </trkpt>
   <trkpt lat="51.2868100" lon="5.9219190">
    <ele>30.1</ele>
    <time>2019-09-08T07:34:53Z</time>
   </trkpt>
   <trkpt lat="51.2867710" lon="5.9220130">
    <ele>30.1</ele>
    <time>2019-09-08T07:34:54Z</time>
   </trkpt>
   <trkpt lat="51.2867340" lon="5.9221220">
    <ele>30.1</ele>
    <time>2019-09-08T07:34:55Z</time>
   </trkpt>
   <trkpt lat="51.2866860" lon="5.9222260">
    <ele>30.1</ele>
    <time>2019-09-08T07:34:56Z</time>
   </trkpt>
   <trkpt lat="51.2866420" lon="5.9223240">
    <ele>30.1</ele>
    <time>2019-09-08T07:34:57Z</time>
   </trkpt>
   <trkpt lat="51.2866060" lon="5.9224330">
    <ele>30.1</ele>
    <time>2019-09-08T07:34:58Z</time>
   </trkpt>
   <trkpt lat="51.2865700" lon="5.9225350">
    <ele>30.1</ele>
    <time>2019-09-08T07:34:59Z</time>
   </trkpt>
   <trkpt lat="51.2865330" lon="5.9226390">
    <ele>30.1</ele>
    <time>2019-09-08T07:35:00Z</time>
   </trkpt>
   <trkpt lat="51.2864940" lon="5.9227350">
    <ele>30.1</ele>
    <time>2019-09-08T07:35:01Z</time>
   </trkpt>
   <trkpt lat="51.2864400" lon="5.9228460">
    <ele>30.0</ele>
    <time>2019-09-08T07:35:02Z</time>
   </trkpt>
   <trkpt lat="51.2863980" lon="5.9229430">
    <ele>30.0</ele>
    <time>2019-09-08T07:35:03Z</time>
   </trkpt>
   <trkpt lat="51.2863490" lon="5.9230350">
    <ele>30.0</ele>
    <time>2019-09-08T07:35:04Z</time>
   </trkpt>
   <trkpt lat="51.2863070" lon="5.9231420">
    <ele>30.1</ele>
    <time>2019-09-08T07:35:05Z</time>
   </trkpt>
   <trkpt lat="51.2862720" lon="5.9232440">
    <ele>30.1</ele>
    <time>2019-09-08T07:35:06Z</time>
   </trkpt>
   <trkpt lat="51.2862330" lon="5.9233380">
    <ele>30.1</ele>
    <time>2019-09-08T07:35:07Z</time>
   </trkpt>
   <trkpt lat="51.2862020" lon="5.9234620">
    <ele>30.2</ele>
    <time>2019-09-08T07:35:08Z</time>
   </trkpt>
   <trkpt lat="51.2861640" lon="5.9235560">
    <ele>30.2</ele>
    <time>2019-09-08T07:35:09Z</time>
   </trkpt>
   <trkpt lat="51.2861290" lon="5.9236750">
    <ele>30.2</ele>
    <time>2019-09-08T07:35:10Z</time>
   </trkpt>
   <trkpt lat="51.2860860" lon="5.9237740">
    <ele>30.3</ele>
    <time>2019-09-08T07:35:11Z</time>
   </trkpt>
   <trkpt lat="51.2860550" lon="5.9238850">
    <ele>30.3</ele>
    <time>2019-09-08T07:35:12Z</time>
   </trkpt>
   <trkpt lat="51.2860260" lon="5.9239950">
    <ele>30.3</ele>
    <time>2019-09-08T07:35:13Z</time>
   </trkpt>
   <trkpt lat="51.2859980" lon="5.9241090">
    <ele>30.3</ele>
    <time>2019-09-08T07:35:14Z</time>
   </trkpt>
   <trkpt lat="51.2859750" lon="5.9242220">
    <ele>30.3</ele>
    <time>2019-09-08T07:35:15Z</time>
   </trkpt>
   <trkpt lat="51.2859500" lon="5.9243370">
    <ele>30.3</ele>
    <time>2019-09-08T07:35:16Z</time>
   </trkpt>
   <trkpt lat="51.2859240" lon="5.9244540">
    <ele>30.3</ele>
    <time>2019-09-08T07:35:17Z</time>
   </trkpt>
   <trkpt lat="51.2859000" lon="5.9245700">
    <ele>30.3</ele>
    <time>2019-09-08T07:35:18Z</time>
   </trkpt>
   <trkpt lat="51.2858730" lon="5.9246860">
    <ele>30.3</ele>
    <time>2019-09-08T07:35:19Z</time>
   </trkpt>
   <trkpt lat="51.2858520" lon="5.9248070">
    <ele>30.3</ele>
    <time>2019-09-08T07:35:20Z</time>
   </trkpt>
   <trkpt lat="51.2858280" lon="5.9249220">
    <ele>30.3</ele>
    <time>2019-09-08T07:35:21Z</time>
   </trkpt>
   <trkpt lat="51.2858000" lon="5.9250350">
    <ele>30.3</ele>
    <time>2019-09-08T07:35:22Z</time>
   </trkpt>
   <trkpt lat="51.2857820" lon="5.9251530">
    <ele>30.3</ele>
    <time>2019-09-08T07:35:23Z</time>
   </trkpt>
   <trkpt lat="51.2857560" lon="5.9252630">
    <ele>30.3</ele>
    <time>2019-09-08T07:35:24Z</time>
   </trkpt>
   <trkpt lat="51.2857380" lon="5.9253770">
    <ele>30.3</ele>
    <time>2019-09-08T07:35:25Z</time>
   </trkpt>
   <trkpt lat="51.2857150" lon="5.9254900">
    <ele>30.3</ele>
    <time>2019-09-08T07:35:26Z</time>
   </trkpt>
   <trkpt lat="51.2857060" lon="5.9256120">
    <ele>30.3</ele>
    <time>2019-09-08T07:35:27Z</time>
   </trkpt>
   <trkpt lat="51.2856910" lon="5.9257320">
    <ele>30.3</ele>
    <time>2019-09-08T07:35:28Z</time>
   </trkpt>
   <trkpt lat="51.2856800" lon="5.9258500">
    <ele>30.3</ele>
    <time>2019-09-08T07:35:29Z</time>
   </trkpt>
   <trkpt lat="51.2856660" lon="5.9259760">
    <ele>30.3</ele>
    <time>2019-09-08T07:35:30Z</time>
   </trkpt>
   <trkpt lat="51.2856500" lon="5.9260890">
    <ele>30.3</ele>
    <time>2019-09-08T07:35:31Z</time>
   </trkpt>
   <trkpt lat="51.2856240" lon="5.9261980">
    <ele>30.3</ele>
    <time>2019-09-08T07:35:32Z</time>
   </trkpt>
   <trkpt lat="51.2855920" lon="5.9263080">
    <ele>30.4</ele>
    <time>2019-09-08T07:35:33Z</time>
   </trkpt>
   <trkpt lat="51.2855570" lon="5.9264160">
    <ele>30.4</ele>
    <time>2019-09-08T07:35:34Z</time>
   </trkpt>
   <trkpt lat="51.2855200" lon="5.9265320">
    <ele>30.5</ele>
    <time>2019-09-08T07:35:35Z</time>
   </trkpt>
   <trkpt lat="51.2854790" lon="5.9266360">
    <ele>30.6</ele>
    <time>2019-09-08T07:35:36Z</time>
   </trkpt>
   <trkpt lat="51.2854270" lon="5.9267400">
    <ele>30.7</ele>
    <time>2019-09-08T07:35:37Z</time>
   </trkpt>
   <trkpt lat="51.2853830" lon="5.9268390">
    <ele>30.8</ele>
    <time>2019-09-08T07:35:38Z</time>
   </trkpt>
   <trkpt lat="51.2853330" lon="5.9269260">
    <ele>30.8</ele>
    <time>2019-09-08T07:35:39Z</time>
   </trkpt>
   <trkpt lat="51.2852860" lon="5.9270220">
    <ele>30.9</ele>
    <time>2019-09-08T07:35:40Z</time>
   </trkpt>
   <trkpt lat="51.2852400" lon="5.9271310">
    <ele>31.0</ele>
    <time>2019-09-08T07:35:41Z</time>
   </trkpt>
   <trkpt lat="51.2852010" lon="5.9272250">
    <ele>31.1</ele>
    <time>2019-09-08T07:35:42Z</time>
   </trkpt>
   <trkpt lat="51.2851710" lon="5.9273480">
    <ele>31.2</ele>
    <time>2019-09-08T07:35:43Z</time>
   </trkpt>
   <trkpt lat="51.2851250" lon="5.9274500">
    <ele>31.2</ele>
    <time>2019-09-08T07:35:44Z</time>
   </trkpt>
   <trkpt lat="51.2850720" lon="5.9275450">
    <ele>31.3</ele>
    <time>2019-09-08T07:35:45Z</time>
   </trkpt>
   <trkpt lat="51.2850260" lon="5.9276500">
    <ele>31.4</ele>
    <time>2019-09-08T07:35:46Z</time>
   </trkpt>
   <trkpt lat="51.2849820" lon="5.9277540">
    <ele>31.4</ele>
    <time>2019-09-08T07:35:47Z</time>
   </trkpt>
   <trkpt lat="51.2849360" lon="5.9278500">
    <ele>31.5</ele>
    <time>2019-09-08T07:35:48Z</time>
   </trkpt>
   <trkpt lat="51.2848990" lon="5.9279500">
    <ele>31.6</ele>
    <time>2019-09-08T07:35:49Z</time>
   </trkpt>
   <trkpt lat="51.2848620" lon="5.9280460">
    <ele>31.6</ele>
    <time>2019-09-08T07:35:50Z</time>
   </trkpt>
   <trkpt lat="51.2848140" lon="5.9281350">
    <ele>31.7</ele>
    <time>2019-09-08T07:35:51Z</time>
   </trkpt>
   <trkpt lat="51.2847730" lon="5.9282380">
    <ele>31.8</ele>
    <time>2019-09-08T07:35:52Z</time>
   </trkpt>
   <trkpt lat="51.2847330" lon="5.9283280">
    <ele>31.8</ele>
    <time>2019-09-08T07:35:53Z</time>
   </trkpt>
   <trkpt lat="51.2846710" lon="5.9284160">
    <ele>31.9</ele>
    <time>2019-09-08T07:35:54Z</time>
   </trkpt>
   <trkpt lat="51.2846080" lon="5.9284980">
    <ele>32.0</ele>
    <time>2019-09-08T07:35:55Z</time>
   </trkpt>
   <trkpt lat="51.2845510" lon="5.9285640">
    <ele>32.0</ele>
    <time>2019-09-08T07:35:56Z</time>
   </trkpt>
   <trkpt lat="51.2844760" lon="5.9286400">
    <ele>32.1</ele>
    <time>2019-09-08T07:35:57Z</time>
   </trkpt>
   <trkpt lat="51.2844130" lon="5.9286990">
    <ele>32.1</ele>
    <time>2019-09-08T07:35:58Z</time>
   </trkpt>
   <trkpt lat="51.2843440" lon="5.9287400">
    <ele>32.2</ele>
    <time>2019-09-08T07:35:59Z</time>
   </trkpt>
   <trkpt lat="51.2842760" lon="5.9287800">
    <ele>32.2</ele>
    <time>2019-09-08T07:36:00Z</time>
   </trkpt>
   <trkpt lat="51.2842090" lon="5.9288330">
    <ele>32.3</ele>
    <time>2019-09-08T07:36:01Z</time>
   </trkpt>
   <trkpt lat="51.2841360" lon="5.9288780">
    <ele>32.3</ele>
    <time>2019-09-08T07:36:02Z</time>
   </trkpt>
   <trkpt lat="51.2840650" lon="5.9289240">
    <ele>32.3</ele>
    <time>2019-09-08T07:36:03Z</time>
   </trkpt>
   <trkpt lat="51.2839980" lon="5.9289620">
    <ele>32.4</ele>
    <time>2019-09-08T07:36:04Z</time>
   </trkpt>
   <trkpt lat="51.2839280" lon="5.9290080">
    <ele>32.4</ele>
    <time>2019-09-08T07:36:05Z</time>
   </trkpt>
   <trkpt lat="51.2838540" lon="5.9290400">
    <ele>32.4</ele>
    <time>2019-09-08T07:36:06Z</time>
   </trkpt>
   <trkpt lat="51.2837840" lon="5.9290780">
    <ele>32.4</ele>
    <time>2019-09-08T07:36:07Z</time>
   </trkpt>
   <trkpt lat="51.2837150" lon="5.9291160">
    <ele>32.4</ele>
    <time>2019-09-08T07:36:08Z</time>
   </trkpt>
   <trkpt lat="51.2836440" lon="5.9291640">
    <ele>32.5</ele>
    <time>2019-09-08T07:36:09Z</time>
   </trkpt>
   <trkpt lat="51.2835750" lon="5.9292160">
    <ele>32.5</ele>
    <time>2019-09-08T07:36:10Z</time>
   </trkpt>
   <trkpt lat="51.2835110" lon="5.9292710">
    <ele>32.5</ele>
    <time>2019-09-08T07:36:11Z</time>
   </trkpt>
   <trkpt lat="51.2834420" lon="5.9293030">
    <ele>32.6</ele>
    <time>2019-09-08T07:36:12Z</time>
   </trkpt>
   <trkpt lat="51.2833780" lon="5.9293460">
    <ele>32.6</ele>
    <time>2019-09-08T07:36:13Z</time>
   </trkpt>
   <trkpt lat="51.2833030" lon="5.9293920">
    <ele>32.7</ele>
    <time>2019-09-08T07:36:14Z</time>
   </trkpt>
   <trkpt lat="51.2832360" lon="5.9294640">
    <ele>32.7</ele>
    <time>2019-09-08T07:36:15Z</time>
   </trkpt>
   <trkpt lat="51.2831710" lon="5.9295170">
    <ele>32.8</ele>
    <time>2019-09-08T07:36:16Z</time>
   </trkpt>
   <trkpt lat="51.2831090" lon="5.9295790">
    <ele>32.8</ele>
    <time>2019-09-08T07:36:17Z</time>
   </trkpt>
   <trkpt lat="51.2830420" lon="5.9296510">
    <ele>32.9</ele>
    <time>2019-09-08T07:36:18Z</time>
   </trkpt>
   <trkpt lat="51.2829780" lon="5.9297230">
    <ele>32.9</ele>
    <time>2019-09-08T07:36:19Z</time>
   </trkpt>
   <trkpt lat="51.2829160" lon="5.9297840">
    <ele>33.0</ele>
    <time>2019-09-08T07:36:20Z</time>
   </trkpt>
   <trkpt lat="51.2828540" lon="5.9298510">
    <ele>33.0</ele>
    <time>2019-09-08T07:36:21Z</time>
   </trkpt>
   <trkpt lat="51.2827870" lon="5.9299230">
    <ele>33.1</ele>
    <time>2019-09-08T07:36:22Z</time>
   </trkpt>
   <trkpt lat="51.2827240" lon="5.9299830">
    <ele>33.1</ele>
    <time>2019-09-08T07:36:23Z</time>
   </trkpt>
   <trkpt lat="51.2826600" lon="5.9300450">
    <ele>33.2</ele>
    <time>2019-09-08T07:36:24Z</time>
   </trkpt>
   <trkpt lat="51.2825890" lon="5.9301050">
    <ele>33.2</ele>
    <time>2019-09-08T07:36:25Z</time>
   </trkpt>
   <trkpt lat="51.2825240" lon="5.9301640">
    <ele>33.3</ele>
    <time>2019-09-08T07:36:26Z</time>
   </trkpt>
   <trkpt lat="51.2824630" lon="5.9302220">
    <ele>33.3</ele>
    <time>2019-09-08T07:36:27Z</time>
   </trkpt>
   <trkpt lat="51.2823880" lon="5.9303030">
    <ele>33.4</ele>
    <time>2019-09-08T07:36:28Z</time>
   </trkpt>
   <trkpt lat="51.2823300" lon="5.9303790">
    <ele>33.4</ele>
    <time>2019-09-08T07:36:29Z</time>
   </trkpt>
   <trkpt lat="51.2822750" lon="5.9304400">
    <ele>33.5</ele>
    <time>2019-09-08T07:36:30Z</time>
   </trkpt>
   <trkpt lat="51.2822170" lon="5.9305230">
    <ele>33.5</ele>
    <time>2019-09-08T07:36:31Z</time>
   </trkpt>
   <trkpt lat="51.2821550" lon="5.9305770">
    <ele>33.5</ele>
    <time>2019-09-08T07:36:32Z</time>
   </trkpt>
   <trkpt lat="51.2820860" lon="5.9306420">
    <ele>33.6</ele>
    <time>2019-09-08T07:36:33Z</time>
   </trkpt>
   <trkpt lat="51.2820260" lon="5.9307020">
    <ele>33.6</ele>
    <time>2019-09-08T07:36:34Z</time>
   </trkpt>
   <trkpt lat="51.2819580" lon="5.9307730">
    <ele>33.6</ele>
    <time>2019-09-08T07:36:35Z</time>
   </trkpt>
   <trkpt lat="51.2819130" lon="5.9308430">
    <ele>33.6</ele>
    <time>2019-09-08T07:36:36Z</time>
   </trkpt>
   <trkpt lat="51.2818510" lon="5.9309040">
    <ele>33.6</ele>
    <time>2019-09-08T07:36:37Z</time>
   </trkpt>
   <trkpt lat="51.2817850" lon="5.9309580">
    <ele>33.6</ele>
    <time>2019-09-08T07:36:38Z</time>
   </trkpt>
   <trkpt lat="51.2817240" lon="5.9310250">
    <ele>33.6</ele>
    <time>2019-09-08T07:36:39Z</time>
   </trkpt>
   <trkpt lat="51.2816600" lon="5.9310750">
    <ele>33.6</ele>
    <time>2019-09-08T07:36:40Z</time>
   </trkpt>
   <trkpt lat="51.2816030" lon="5.9311430">
    <ele>33.6</ele>
    <time>2019-09-08T07:36:41Z</time>
   </trkpt>
   <trkpt lat="51.2815280" lon="5.9312040">
    <ele>33.6</ele>
    <time>2019-09-08T07:36:42Z</time>
   </trkpt>
   <trkpt lat="51.2814790" lon="5.9312800">
    <ele>33.6</ele>
    <time>2019-09-08T07:36:43Z</time>
   </trkpt>
   <trkpt lat="51.2814290" lon="5.9313570">
    <ele>33.6</ele>
    <time>2019-09-08T07:36:44Z</time>
   </trkpt>
   <trkpt lat="51.2813550" lon="5.9314190">
    <ele>33.5</ele>
    <time>2019-09-08T07:36:45Z</time>
   </trkpt>
   <trkpt lat="51.2812930" lon="5.9314730">
    <ele>33.3</ele>
    <time>2019-09-08T07:36:46Z</time>
   </trkpt>
   <trkpt lat="51.2812180" lon="5.9315150">
    <ele>33.2</ele>
    <time>2019-09-08T07:36:47Z</time>
   </trkpt>
   <trkpt lat="51.2811550" lon="5.9315780">
    <ele>33.1</ele>
    <time>2019-09-08T07:36:48Z</time>
   </trkpt>
   <trkpt lat="51.2811130" lon="5.9316350">
    <ele>33.0</ele>
    <time>2019-09-08T07:36:49Z</time>
   </trkpt>
   <trkpt lat="51.2810500" lon="5.9316680">
    <ele>32.9</ele>
    <time>2019-09-08T07:36:50Z</time>
   </trkpt>
   <trkpt lat="51.2809890" lon="5.9317380">
    <ele>32.7</ele>
    <time>2019-09-08T07:36:51Z</time>
   </trkpt>
   <trkpt lat="51.2809480" lon="5.9318520">
    <ele>32.4</ele>
    <time>2019-09-08T07:36:52Z</time>
   </trkpt>
   <trkpt lat="51.2808890" lon="5.9319040">
    <ele>32.2</ele>
    <time>2019-09-08T07:36:53Z</time>
   </trkpt>
   <trkpt lat="51.2808300" lon="5.9319540">
    <ele>32.0</ele>
    <time>2019-09-08T07:36:54Z</time>
   </trkpt>
   <trkpt lat="51.2807760" lon="5.9320180">
    <ele>31.7</ele>
    <time>2019-09-08T07:36:55Z</time>
   </trkpt>
   <trkpt lat="51.2807380" lon="5.9320940">
    <ele>31.5</ele>
    <time>2019-09-08T07:36:56Z</time>
   </trkpt>
   <trkpt lat="51.2806790" lon="5.9321470">
    <ele>31.3</ele>
    <time>2019-09-08T07:36:57Z</time>
   </trkpt>
   <trkpt lat="51.2806320" lon="5.9321680">
    <ele>31.2</ele>
    <time>2019-09-08T07:36:58Z</time>
   </trkpt>
   <trkpt lat="51.2805800" lon="5.9321500">
    <ele>31.1</ele>
    <time>2019-09-08T07:36:59Z</time>
   </trkpt>
   <trkpt lat="51.2805240" lon="5.9320920">
    <ele>30.8</ele>
    <time>2019-09-08T07:37:00Z</time>
   </trkpt>
   <trkpt lat="51.2804940" lon="5.9320100">
    <ele>30.8</ele>
    <time>2019-09-08T07:37:01Z</time>
   </trkpt>
   <trkpt lat="51.2804580" lon="5.9319510">
    <ele>30.8</ele>
    <time>2019-09-08T07:37:02Z</time>
   </trkpt>
   <trkpt lat="51.2804380" lon="5.9318490">
    <ele>30.7</ele>
    <time>2019-09-08T07:37:03Z</time>
   </trkpt>
   <trkpt lat="51.2803950" lon="5.9317540">
    <ele>30.7</ele>
    <time>2019-09-08T07:37:04Z</time>
   </trkpt>
   <trkpt lat="51.2803620" lon="5.9316420">
    <ele>30.6</ele>
    <time>2019-09-08T07:37:05Z</time>
   </trkpt>
   <trkpt lat="51.2803320" lon="5.9315280">
    <ele>30.6</ele>
    <time>2019-09-08T07:37:06Z</time>
   </trkpt>
   <trkpt lat="51.2803040" lon="5.9314100">
    <ele>30.6</ele>
    <time>2019-09-08T07:37:07Z</time>
   </trkpt>
   <trkpt lat="51.2802700" lon="5.9313010">
    <ele>30.6</ele>
    <time>2019-09-08T07:37:08Z</time>
   </trkpt>
   <trkpt lat="51.2802370" lon="5.9311910">
    <ele>30.6</ele>
    <time>2019-09-08T07:37:09Z</time>
   </trkpt>
   <trkpt lat="51.2802250" lon="5.9310820">
    <ele>30.6</ele>
    <time>2019-09-08T07:37:10Z</time>
   </trkpt>
   <trkpt lat="51.2801980" lon="5.9309830">
    <ele>30.6</ele>
    <time>2019-09-08T07:37:11Z</time>
   </trkpt>
   <trkpt lat="51.2801760" lon="5.9308860">
    <ele>30.6</ele>
    <time>2019-09-08T07:37:12Z</time>
   </trkpt>
   <trkpt lat="51.2801440" lon="5.9307680">
    <ele>30.6</ele>
    <time>2019-09-08T07:37:13Z</time>
   </trkpt>
   <trkpt lat="51.2801190" lon="5.9306780">
    <ele>30.5</ele>
    <time>2019-09-08T07:37:14Z</time>
   </trkpt>
   <trkpt lat="51.2800960" lon="5.9305700">
    <ele>30.5</ele>
    <time>2019-09-08T07:37:15Z</time>
   </trkpt>
   <trkpt lat="51.2800630" lon="5.9304420">
    <ele>30.5</ele>
    <time>2019-09-08T07:37:16Z</time>
   </trkpt>
   <trkpt lat="51.2800460" lon="5.9303140">
    <ele>30.5</ele>
    <time>2019-09-08T07:37:17Z</time>
   </trkpt>
   <trkpt lat="51.2799970" lon="5.9302090">
    <ele>30.5</ele>
    <time>2019-09-08T07:37:18Z</time>
   </trkpt>
   <trkpt lat="51.2799710" lon="5.9301100">
    <ele>30.5</ele>
    <time>2019-09-08T07:37:19Z</time>
   </trkpt>
   <trkpt lat="51.2799430" lon="5.9300010">
    <ele>30.5</ele>
    <time>2019-09-08T07:37:20Z</time>
   </trkpt>
   <trkpt lat="51.2799210" lon="5.9299060">
    <ele>30.5</ele>
    <time>2019-09-08T07:37:21Z</time>
   </trkpt>
   <trkpt lat="51.2798970" lon="5.9298110">
    <ele>30.5</ele>
    <time>2019-09-08T07:37:22Z</time>
   </trkpt>
   <trkpt lat="51.2798920" lon="5.9296830">
    <ele>30.4</ele>
    <time>2019-09-08T07:37:23Z</time>
   </trkpt>
   <trkpt lat="51.2798630" lon="5.9295580">
    <ele>30.4</ele>
    <time>2019-09-08T07:37:24Z</time>
   </trkpt>
   <trkpt lat="51.2798320" lon="5.9294460">
    <ele>30.4</ele>
    <time>2019-09-08T07:37:25Z</time>
   </trkpt>
   <trkpt lat="51.2797950" lon="5.9293410">
    <ele>30.3</ele>
    <time>2019-09-08T07:37:26Z</time>
   </trkpt>
   <trkpt lat="51.2797680" lon="5.9292380">
    <ele>30.3</ele>
    <time>2019-09-08T07:37:27Z</time>
   </trkpt>
   <trkpt lat="51.2797440" lon="5.9291080">
    <ele>30.2</ele>
    <time>2019-09-08T07:37:28Z</time>
   </trkpt>
   <trkpt lat="51.2797200" lon="5.9290010">
    <ele>30.1</ele>
    <time>2019-09-08T07:37:29Z</time>
   </trkpt>
   <trkpt lat="51.2796820" lon="5.9289130">
    <ele>30.1</ele>
    <time>2019-09-08T07:37:30Z</time>
   </trkpt>
   <trkpt lat="51.2796540" lon="5.9288220">
    <ele>30.0</ele>
    <time>2019-09-08T07:37:31Z</time>
   </trkpt>
   <trkpt lat="51.2796290" lon="5.9287150">
    <ele>29.9</ele>
    <time>2019-09-08T07:37:32Z</time>
   </trkpt>
   <trkpt lat="51.2796060" lon="5.9286030">
    <ele>29.8</ele>
    <time>2019-09-08T07:37:33Z</time>
   </trkpt>
   <trkpt lat="51.2795990" lon="5.9284800">
    <ele>29.7</ele>
    <time>2019-09-08T07:37:34Z</time>
   </trkpt>
   <trkpt lat="51.2795940" lon="5.9283560">
    <ele>29.7</ele>
    <time>2019-09-08T07:37:35Z</time>
   </trkpt>
   <trkpt lat="51.2796030" lon="5.9282160">
    <ele>29.6</ele>
    <time>2019-09-08T07:37:36Z</time>
   </trkpt>
   <trkpt lat="51.2796110" lon="5.9280830">
    <ele>29.5</ele>
    <time>2019-09-08T07:37:37Z</time>
   </trkpt>
   <trkpt lat="51.2796120" lon="5.9279620">
    <ele>29.5</ele>
    <time>2019-09-08T07:37:38Z</time>
   </trkpt>
   <trkpt lat="51.2796160" lon="5.9278450">
    <ele>29.5</ele>
    <time>2019-09-08T07:37:39Z</time>
   </trkpt>
   <trkpt lat="51.2796360" lon="5.9276960">
    <ele>29.5</ele>
    <time>2019-09-08T07:37:40Z</time>
   </trkpt>
   <trkpt lat="51.2796410" lon="5.9275740">
    <ele>29.5</ele>
    <time>2019-09-08T07:37:41Z</time>
   </trkpt>
   <trkpt lat="51.2796420" lon="5.9274610">
    <ele>29.5</ele>
    <time>2019-09-08T07:37:42Z</time>
   </trkpt>
   <trkpt lat="51.2796420" lon="5.9273450">
    <ele>29.5</ele>
    <time>2019-09-08T07:37:43Z</time>
   </trkpt>
   <trkpt lat="51.2796340" lon="5.9272340">
    <ele>29.5</ele>
    <time>2019-09-08T07:37:44Z</time>
   </trkpt>
   <trkpt lat="51.2796400" lon="5.9270810">
    <ele>29.4</ele>
    <time>2019-09-08T07:37:45Z</time>
   </trkpt>
   <trkpt lat="51.2796430" lon="5.9269590">
    <ele>29.4</ele>
    <time>2019-09-08T07:37:46Z</time>
   </trkpt>
   <trkpt lat="51.2796410" lon="5.9268380">
    <ele>29.4</ele>
    <time>2019-09-08T07:37:47Z</time>
   </trkpt>
   <trkpt lat="51.2796420" lon="5.9267160">
    <ele>29.4</ele>
    <time>2019-09-08T07:37:48Z</time>
   </trkpt>
   <trkpt lat="51.2796410" lon="5.9265940">
    <ele>29.4</ele>
    <time>2019-09-08T07:37:49Z</time>
   </trkpt>
   <trkpt lat="51.2796430" lon="5.9264690">
    <ele>29.4</ele>
    <time>2019-09-08T07:37:50Z</time>
   </trkpt>
   <trkpt lat="51.2796440" lon="5.9263430">
    <ele>29.4</ele>
    <time>2019-09-08T07:37:51Z</time>
   </trkpt>
   <trkpt lat="51.2796480" lon="5.9262230">
    <ele>29.4</ele>
    <time>2019-09-08T07:37:52Z</time>
   </trkpt>
   <trkpt lat="51.2796510" lon="5.9261030">
    <ele>29.4</ele>
    <time>2019-09-08T07:37:53Z</time>
   </trkpt>
   <trkpt lat="51.2796530" lon="5.9259870">
    <ele>29.3</ele>
    <time>2019-09-08T07:37:54Z</time>
   </trkpt>
   <trkpt lat="51.2796590" lon="5.9258730">
    <ele>29.3</ele>
    <time>2019-09-08T07:37:55Z</time>
   </trkpt>
   <trkpt lat="51.2796730" lon="5.9257590">
    <ele>29.3</ele>
    <time>2019-09-08T07:37:56Z</time>
   </trkpt>
   <trkpt lat="51.2796780" lon="5.9256450">
    <ele>29.3</ele>
    <time>2019-09-08T07:37:57Z</time>
   </trkpt>
   <trkpt lat="51.2796860" lon="5.9255290">
    <ele>29.3</ele>
    <time>2019-09-08T07:37:58Z</time>
   </trkpt>
   <trkpt lat="51.2796810" lon="5.9254040">
    <ele>29.3</ele>
    <time>2019-09-08T07:37:59Z</time>
   </trkpt>
   <trkpt lat="51.2796800" lon="5.9252770">
    <ele>29.3</ele>
    <time>2019-09-08T07:38:00Z</time>
   </trkpt>
   <trkpt lat="51.2796840" lon="5.9251670">
    <ele>29.3</ele>
    <time>2019-09-08T07:38:01Z</time>
   </trkpt>
   <trkpt lat="51.2796880" lon="5.9250580">
    <ele>29.3</ele>
    <time>2019-09-08T07:38:02Z</time>
   </trkpt>
   <trkpt lat="51.2796910" lon="5.9249500">
    <ele>29.3</ele>
    <time>2019-09-08T07:38:03Z</time>
   </trkpt>
   <trkpt lat="51.2796910" lon="5.9248260">
    <ele>29.4</ele>
    <time>2019-09-08T07:38:04Z</time>
   </trkpt>
   <trkpt lat="51.2796900" lon="5.9247100">
    <ele>29.5</ele>
    <time>2019-09-08T07:38:05Z</time>
   </trkpt>
   <trkpt lat="51.2796950" lon="5.9246030">
    <ele>29.5</ele>
    <time>2019-09-08T07:38:06Z</time>
   </trkpt>
   <trkpt lat="51.2796960" lon="5.9244930">
    <ele>29.6</ele>
    <time>2019-09-08T07:38:07Z</time>
   </trkpt>
   <trkpt lat="51.2796960" lon="5.9243810">
    <ele>29.6</ele>
    <time>2019-09-08T07:38:08Z</time>
   </trkpt>
   <trkpt lat="51.2797020" lon="5.9242660">
    <ele>29.7</ele>
    <time>2019-09-08T07:38:09Z</time>
   </trkpt>
   <trkpt lat="51.2796930" lon="5.9241620">
    <ele>29.8</ele>
    <time>2019-09-08T07:38:10Z</time>
   </trkpt>
   <trkpt lat="51.2796900" lon="5.9240490">
    <ele>29.9</ele>
    <time>2019-09-08T07:38:11Z</time>
   </trkpt>
   <trkpt lat="51.2796940" lon="5.9239370">
    <ele>30.0</ele>
    <time>2019-09-08T07:38:12Z</time>
   </trkpt>
   <trkpt lat="51.2796910" lon="5.9238270">
    <ele>30.1</ele>
    <time>2019-09-08T07:38:13Z</time>
   </trkpt>
   <trkpt lat="51.2796900" lon="5.9237110">
    <ele>30.2</ele>
    <time>2019-09-08T07:38:14Z</time>
   </trkpt>
   <trkpt lat="51.2796840" lon="5.9236010">
    <ele>30.2</ele>
    <time>2019-09-08T07:38:15Z</time>
   </trkpt>
   <trkpt lat="51.2796720" lon="5.9234880">
    <ele>30.2</ele>
    <time>2019-09-08T07:38:16Z</time>
   </trkpt>
   <trkpt lat="51.2796940" lon="5.9233560">
    <ele>30.2</ele>
    <time>2019-09-08T07:38:17Z</time>
   </trkpt>
   <trkpt lat="51.2796850" lon="5.9232380">
    <ele>30.1</ele>
    <time>2019-09-08T07:38:18Z</time>
   </trkpt>
   <trkpt lat="51.2796560" lon="5.9231390">
    <ele>30.1</ele>
    <time>2019-09-08T07:38:19Z</time>
   </trkpt>
   <trkpt lat="51.2796270" lon="5.9230390">
    <ele>30.1</ele>
    <time>2019-09-08T07:38:20Z</time>
   </trkpt>
   <trkpt lat="51.2795920" lon="5.9229350">
    <ele>30.1</ele>
    <time>2019-09-08T07:38:21Z</time>
   </trkpt>
   <trkpt lat="51.2795550" lon="5.9228330">
    <ele>30.0</ele>
    <time>2019-09-08T07:38:22Z</time>
   </trkpt>
   <trkpt lat="51.2795240" lon="5.9227300">
    <ele>29.9</ele>
    <time>2019-09-08T07:38:23Z</time>
   </trkpt>
   <trkpt lat="51.2794980" lon="5.9226260">
    <ele>29.8</ele>
    <time>2019-09-08T07:38:24Z</time>
   </trkpt>
   <trkpt lat="51.2794710" lon="5.9225400">
    <ele>29.6</ele>
    <time>2019-09-08T07:38:25Z</time>
   </trkpt>
   <trkpt lat="51.2794520" lon="5.9224580">
    <ele>29.5</ele>
    <time>2019-09-08T07:38:26Z</time>
   </trkpt>
   <trkpt lat="51.2794380" lon="5.9223640">
    <ele>29.4</ele>
    <time>2019-09-08T07:38:27Z</time>
   </trkpt>
   <trkpt lat="51.2794160" lon="5.9222950">
    <ele>29.4</ele>
    <time>2019-09-08T07:38:28Z</time>
   </trkpt>
   <trkpt lat="51.2793950" lon="5.9222180">
    <ele>29.4</ele>
    <time>2019-09-08T07:38:29Z</time>
   </trkpt>
   <trkpt lat="51.2793680" lon="5.9221160">
    <ele>29.4</ele>
    <time>2019-09-08T07:38:30Z</time>
   </trkpt>
   <trkpt lat="51.2793430" lon="5.9220260">
    <ele>29.4</ele>
    <time>2019-09-08T07:38:31Z</time>
   </trkpt>
   <trkpt lat="51.2793200" lon="5.9219300">
    <ele>29.5</ele>
    <time>2019-09-08T07:38:32Z</time>
   </trkpt>
   <trkpt lat="51.2792990" lon="5.9218100">
    <ele>29.5</ele>
    <time>2019-09-08T07:38:33Z</time>
   </trkpt>
   <trkpt lat="51.2792740" lon="5.9217000">
    <ele>29.5</ele>
    <time>2019-09-08T07:38:34Z</time>
   </trkpt>
   <trkpt lat="51.2792510" lon="5.9216000">
    <ele>29.5</ele>
    <time>2019-09-08T07:38:35Z</time>
   </trkpt>
   <trkpt lat="51.2792510" lon="5.9214820">
    <ele>29.5</ele>
    <time>2019-09-08T07:38:36Z</time>
   </trkpt>
   <trkpt lat="51.2792300" lon="5.9213730">
    <ele>29.5</ele>
    <time>2019-09-08T07:38:37Z</time>
   </trkpt>
   <trkpt lat="51.2792110" lon="5.9212710">
    <ele>29.4</ele>
    <time>2019-09-08T07:38:38Z</time>
   </trkpt>
   <trkpt lat="51.2792060" lon="5.9211670">
    <ele>29.4</ele>
    <time>2019-09-08T07:38:39Z</time>
   </trkpt>
   <trkpt lat="51.2791860" lon="5.9210570">
    <ele>29.4</ele>
    <time>2019-09-08T07:38:40Z</time>
   </trkpt>
   <trkpt lat="51.2791780" lon="5.9209300">
    <ele>29.4</ele>
    <time>2019-09-08T07:38:41Z</time>
   </trkpt>
   <trkpt lat="51.2791590" lon="5.9208160">
    <ele>29.4</ele>
    <time>2019-09-08T07:38:42Z</time>
   </trkpt>
   <trkpt lat="51.2791440" lon="5.9207040">
    <ele>29.4</ele>
    <time>2019-09-08T07:38:43Z</time>
   </trkpt>
   <trkpt lat="51.2791300" lon="5.9205890">
    <ele>29.4</ele>
    <time>2019-09-08T07:38:44Z</time>
   </trkpt>
   <trkpt lat="51.2791130" lon="5.9204730">
    <ele>29.5</ele>
    <time>2019-09-08T07:38:45Z</time>
   </trkpt>
   <trkpt lat="51.2790950" lon="5.9203440">
    <ele>29.5</ele>
    <time>2019-09-08T07:38:46Z</time>
   </trkpt>
   <trkpt lat="51.2790800" lon="5.9202220">
    <ele>29.5</ele>
    <time>2019-09-08T07:38:47Z</time>
   </trkpt>
   <trkpt lat="51.2790700" lon="5.9201060">
    <ele>29.5</ele>
    <time>2019-09-08T07:38:48Z</time>
   </trkpt>
   <trkpt lat="51.2790630" lon="5.9199930">
    <ele>29.5</ele>
    <time>2019-09-08T07:38:49Z</time>
   </trkpt>
   <trkpt lat="51.2790550" lon="5.9198810">
    <ele>29.6</ele>
    <time>2019-09-08T07:38:50Z</time>
   </trkpt>
   <trkpt lat="51.2790450" lon="5.9197730">
    <ele>29.6</ele>
    <time>2019-09-08T07:38:51Z</time>
   </trkpt>
   <trkpt lat="51.2790280" lon="5.9196680">
    <ele>29.6</ele>
    <time>2019-09-08T07:38:52Z</time>
   </trkpt>
   <trkpt lat="51.2790090" lon="5.9195430">
    <ele>29.7</ele>
    <time>2019-09-08T07:38:53Z</time>
   </trkpt>
   <trkpt lat="51.2789910" lon="5.9194380">
    <ele>29.7</ele>
    <time>2019-09-08T07:38:54Z</time>
   </trkpt>
   <trkpt lat="51.2789690" lon="5.9193410">
    <ele>29.7</ele>
    <time>2019-09-08T07:38:55Z</time>
   </trkpt>
   <trkpt lat="51.2789550" lon="5.9192390">
    <ele>29.7</ele>
    <time>2019-09-08T07:38:56Z</time>
   </trkpt>
   <trkpt lat="51.2789200" lon="5.9191440">
    <ele>29.8</ele>
    <time>2019-09-08T07:38:57Z</time>
   </trkpt>
   <trkpt lat="51.2788930" lon="5.9190510">
    <ele>29.8</ele>
    <time>2019-09-08T07:38:58Z</time>
   </trkpt>
   <trkpt lat="51.2788670" lon="5.9189580">
    <ele>29.8</ele>
    <time>2019-09-08T07:38:59Z</time>
   </trkpt>
   <trkpt lat="51.2788620" lon="5.9188070">
    <ele>29.9</ele>
    <time>2019-09-08T07:39:00Z</time>
   </trkpt>
   <trkpt lat="51.2788430" lon="5.9187220">
    <ele>29.9</ele>
    <time>2019-09-08T07:39:01Z</time>
   </trkpt>
   <trkpt lat="51.2788060" lon="5.9186500">
    <ele>29.9</ele>
    <time>2019-09-08T07:39:02Z</time>
   </trkpt>
   <trkpt lat="51.2787920" lon="5.9185040">
    <ele>29.9</ele>
    <time>2019-09-08T07:39:03Z</time>
   </trkpt>
   <trkpt lat="51.2787310" lon="5.9183800">
    <ele>29.9</ele>
    <time>2019-09-08T07:39:04Z</time>
   </trkpt>
   <trkpt lat="51.2786890" lon="5.9182690">
    <ele>29.9</ele>
    <time>2019-09-08T07:39:05Z</time>
   </trkpt>
   <trkpt lat="51.2786630" lon="5.9181600">
    <ele>29.9</ele>
    <time>2019-09-08T07:39:06Z</time>
   </trkpt>
   <trkpt lat="51.2786400" lon="5.9180530">
    <ele>29.9</ele>
    <time>2019-09-08T07:39:07Z</time>
   </trkpt>
   <trkpt lat="51.2786090" lon="5.9179430">
    <ele>29.9</ele>
    <time>2019-09-08T07:39:08Z</time>
   </trkpt>
   <trkpt lat="51.2785850" lon="5.9178440">
    <ele>29.9</ele>
    <time>2019-09-08T07:39:09Z</time>
   </trkpt>
   <trkpt lat="51.2785610" lon="5.9177220">
    <ele>29.9</ele>
    <time>2019-09-08T07:39:10Z</time>
   </trkpt>
   <trkpt lat="51.2785290" lon="5.9176010">
    <ele>29.9</ele>
    <time>2019-09-08T07:39:11Z</time>
   </trkpt>
   <trkpt lat="51.2785060" lon="5.9174810">
    <ele>29.8</ele>
    <time>2019-09-08T07:39:12Z</time>
   </trkpt>
   <trkpt lat="51.2784800" lon="5.9173640">
    <ele>29.8</ele>
    <time>2019-09-08T07:39:13Z</time>
   </trkpt>
   <trkpt lat="51.2784610" lon="5.9172660">
    <ele>29.8</ele>
    <time>2019-09-08T07:39:14Z</time>
   </trkpt>
   <trkpt lat="51.2784430" lon="5.9171580">
    <ele>29.8</ele>
    <time>2019-09-08T07:39:15Z</time>
   </trkpt>
   <trkpt lat="51.2784180" lon="5.9170430">
    <ele>29.9</ele>
    <time>2019-09-08T07:39:16Z</time>
   </trkpt>
   <trkpt lat="51.2783960" lon="5.9169340">
    <ele>30.0</ele>
    <time>2019-09-08T07:39:17Z</time>
   </trkpt>
   <trkpt lat="51.2783740" lon="5.9168270">
    <ele>30.0</ele>
    <time>2019-09-08T07:39:18Z</time>
   </trkpt>
   <trkpt lat="51.2783520" lon="5.9167080">
    <ele>30.1</ele>
    <time>2019-09-08T07:39:19Z</time>
   </trkpt>
   <trkpt lat="51.2783340" lon="5.9165870">
    <ele>30.1</ele>
    <time>2019-09-08T07:39:20Z</time>
   </trkpt>
   <trkpt lat="51.2783200" lon="5.9164800">
    <ele>30.2</ele>
    <time>2019-09-08T07:39:21Z</time>
   </trkpt>
   <trkpt lat="51.2783030" lon="5.9163730">
    <ele>30.3</ele>
    <time>2019-09-08T07:39:22Z</time>
   </trkpt>
   <trkpt lat="51.2782860" lon="5.9162710">
    <ele>30.3</ele>
    <time>2019-09-08T07:39:23Z</time>
   </trkpt>
   <trkpt lat="51.2782640" lon="5.9161530">
    <ele>30.3</ele>
    <time>2019-09-08T07:39:24Z</time>
   </trkpt>
   <trkpt lat="51.2782400" lon="5.9160340">
    <ele>30.3</ele>
    <time>2019-09-08T07:39:25Z</time>
   </trkpt>
   <trkpt lat="51.2782260" lon="5.9159200">
    <ele>30.3</ele>
    <time>2019-09-08T07:39:26Z</time>
   </trkpt>
   <trkpt lat="51.2782110" lon="5.9158090">
    <ele>30.3</ele>
    <time>2019-09-08T07:39:27Z</time>
   </trkpt>
   <trkpt lat="51.2781830" lon="5.9156780">
    <ele>30.3</ele>
    <time>2019-09-08T07:39:28Z</time>
   </trkpt>
   <trkpt lat="51.2781710" lon="5.9155580">
    <ele>30.3</ele>
    <time>2019-09-08T07:39:29Z</time>
   </trkpt>
   <trkpt lat="51.2781570" lon="5.9154550">
    <ele>30.2</ele>
    <time>2019-09-08T07:39:30Z</time>
   </trkpt>
   <trkpt lat="51.2781450" lon="5.9153210">
    <ele>30.2</ele>
    <time>2019-09-08T07:39:31Z</time>
   </trkpt>
   <trkpt lat="51.2781320" lon="5.9151960">
    <ele>30.1</ele>
    <time>2019-09-08T07:39:32Z</time>
   </trkpt>
   <trkpt lat="51.2781140" lon="5.9150850">
    <ele>30.1</ele>
    <time>2019-09-08T07:39:33Z</time>
   </trkpt>
   <trkpt lat="51.2781040" lon="5.9149730">
    <ele>30.1</ele>
    <time>2019-09-08T07:39:34Z</time>
   </trkpt>
   <trkpt lat="51.2780830" lon="5.9148540">
    <ele>30.1</ele>
    <time>2019-09-08T07:39:35Z</time>
   </trkpt>
   <trkpt lat="51.2780680" lon="5.9147490">
    <ele>30.1</ele>
    <time>2019-09-08T07:39:36Z</time>
   </trkpt>
   <trkpt lat="51.2780600" lon="5.9146500">
    <ele>30.1</ele>
    <time>2019-09-08T07:39:37Z</time>
   </trkpt>
   <trkpt lat="51.2780470" lon="5.9145420">
    <ele>30.1</ele>
    <time>2019-09-08T07:39:38Z</time>
   </trkpt>
   <trkpt lat="51.2780310" lon="5.9144300">
    <ele>30.1</ele>
    <time>2019-09-08T07:39:39Z</time>
   </trkpt>
   <trkpt lat="51.2780160" lon="5.9143240">
    <ele>30.1</ele>
    <time>2019-09-08T07:39:40Z</time>
   </trkpt>
   <trkpt lat="51.2780000" lon="5.9141990">
    <ele>30.1</ele>
    <time>2019-09-08T07:39:41Z</time>
   </trkpt>
   <trkpt lat="51.2779820" lon="5.9140750">
    <ele>30.1</ele>
    <time>2019-09-08T07:39:42Z</time>
   </trkpt>
   <trkpt lat="51.2779770" lon="5.9139380">
    <ele>30.1</ele>
    <time>2019-09-08T07:39:43Z</time>
   </trkpt>
   <trkpt lat="51.2779670" lon="5.9138240">
    <ele>30.1</ele>
    <time>2019-09-08T07:39:44Z</time>
   </trkpt>
   <trkpt lat="51.2779610" lon="5.9137120">
    <ele>30.1</ele>
    <time>2019-09-08T07:39:45Z</time>
   </trkpt>
   <trkpt lat="51.2779530" lon="5.9136050">
    <ele>30.1</ele>
    <time>2019-09-08T07:39:46Z</time>
   </trkpt>
   <trkpt lat="51.2779470" lon="5.9134930">
    <ele>30.2</ele>
    <time>2019-09-08T07:39:47Z</time>
   </trkpt>
   <trkpt lat="51.2779420" lon="5.9133690">
    <ele>30.2</ele>
    <time>2019-09-08T07:39:48Z</time>
   </trkpt>
   <trkpt lat="51.2779340" lon="5.9132570">
    <ele>30.3</ele>
    <time>2019-09-08T07:39:49Z</time>
   </trkpt>
   <trkpt lat="51.2779330" lon="5.9131490">
    <ele>30.3</ele>
    <time>2019-09-08T07:39:50Z</time>
   </trkpt>
   <trkpt lat="51.2779280" lon="5.9130450">
    <ele>30.4</ele>
    <time>2019-09-08T07:39:51Z</time>
   </trkpt>
   <trkpt lat="51.2779280" lon="5.9129440">
    <ele>30.4</ele>
    <time>2019-09-08T07:39:52Z</time>
   </trkpt>
   <trkpt lat="51.2779240" lon="5.9128280">
    <ele>30.5</ele>
    <time>2019-09-08T07:39:53Z</time>
   </trkpt>
   <trkpt lat="51.2779160" lon="5.9127210">
    <ele>30.5</ele>
    <time>2019-09-08T07:39:54Z</time>
   </trkpt>
   <trkpt lat="51.2779060" lon="5.9126260">
    <ele>30.6</ele>
    <time>2019-09-08T07:39:55Z</time>
   </trkpt>
   <trkpt lat="51.2778990" lon="5.9125310">
    <ele>30.7</ele>
    <time>2019-09-08T07:39:56Z</time>
   </trkpt>
   <trkpt lat="51.2778960" lon="5.9124450">
    <ele>30.7</ele>
    <time>2019-09-08T07:39:57Z</time>
   </trkpt>
   <trkpt lat="51.2778940" lon="5.9123730">
    <ele>30.7</ele>
    <time>2019-09-08T07:39:58Z</time>
   </trkpt>
   <trkpt lat="51.2778990" lon="5.9123140">
    <ele>30.8</ele>
    <time>2019-09-08T07:39:59Z</time>
   </trkpt>
   <trkpt lat="51.2779010" lon="5.9122540">
    <ele>30.8</ele>
    <time>2019-09-08T07:40:01Z</time>
   </trkpt>
   <trkpt lat="51.2779190" lon="5.9122110">
    <ele>30.8</ele>
    <time>2019-09-08T07:40:09Z</time>
   </trkpt>
   <trkpt lat="51.2779300" lon="5.9121290">
    <ele>30.8</ele>
    <time>2019-09-08T07:40:13Z</time>
   </trkpt>
   <trkpt lat="51.2779290" lon="5.9120660">
    <ele>30.8</ele>
    <time>2019-09-08T07:40:15Z</time>
   </trkpt>
   <trkpt lat="51.2779720" lon="5.9120050">
    <ele>30.8</ele>
    <time>2019-09-08T07:40:17Z</time>
   </trkpt>
   <trkpt lat="51.2780130" lon="5.9120080">
    <ele>30.8</ele>
    <time>2019-09-08T07:40:18Z</time>
   </trkpt>
   <trkpt lat="51.2780670" lon="5.9119790">
    <ele>30.8</ele>
    <time>2019-09-08T07:40:19Z</time>
   </trkpt>
   <trkpt lat="51.2781300" lon="5.9119550">
    <ele>30.8</ele>
    <time>2019-09-08T07:40:20Z</time>
   </trkpt>
   <trkpt lat="51.2781900" lon="5.9119330">
    <ele>30.8</ele>
    <time>2019-09-08T07:40:21Z</time>
   </trkpt>
   <trkpt lat="51.2782540" lon="5.9119190">
    <ele>30.9</ele>
    <time>2019-09-08T07:40:22Z</time>
   </trkpt>
   <trkpt lat="51.2783140" lon="5.9118840">
    <ele>30.9</ele>
    <time>2019-09-08T07:40:23Z</time>
   </trkpt>
   <trkpt lat="51.2783720" lon="5.9118650">
    <ele>30.9</ele>
    <time>2019-09-08T07:40:24Z</time>
   </trkpt>
   <trkpt lat="51.2784330" lon="5.9118470">
    <ele>30.9</ele>
    <time>2019-09-08T07:40:25Z</time>
   </trkpt>
   <trkpt lat="51.2784950" lon="5.9118220">
    <ele>30.9</ele>
    <time>2019-09-08T07:40:26Z</time>
   </trkpt>
   <trkpt lat="51.2785550" lon="5.9117890">
    <ele>30.9</ele>
    <time>2019-09-08T07:40:27Z</time>
   </trkpt>
   <trkpt lat="51.2786190" lon="5.9117620">
    <ele>30.9</ele>
    <time>2019-09-08T07:40:28Z</time>
   </trkpt>
   <trkpt lat="51.2786800" lon="5.9117400">
    <ele>30.9</ele>
    <time>2019-09-08T07:40:29Z</time>
   </trkpt>
   <trkpt lat="51.2787420" lon="5.9117120">
    <ele>31.0</ele>
    <time>2019-09-08T07:40:30Z</time>
   </trkpt>
   <trkpt lat="51.2787980" lon="5.9116920">
    <ele>31.0</ele>
    <time>2019-09-08T07:40:31Z</time>
   </trkpt>
   <trkpt lat="51.2788560" lon="5.9116540">
    <ele>31.1</ele>
    <time>2019-09-08T07:40:32Z</time>
   </trkpt>
   <trkpt lat="51.2789200" lon="5.9116260">
    <ele>31.1</ele>
    <time>2019-09-08T07:40:33Z</time>
   </trkpt>
   <trkpt lat="51.2789790" lon="5.9115930">
    <ele>31.0</ele>
    <time>2019-09-08T07:40:34Z</time>
   </trkpt>
   <trkpt lat="51.2790440" lon="5.9115600">
    <ele>31.0</ele>
    <time>2019-09-08T07:40:35Z</time>
   </trkpt>
   <trkpt lat="51.2791070" lon="5.9115250">
    <ele>30.9</ele>
    <time>2019-09-08T07:40:36Z</time>
   </trkpt>
   <trkpt lat="51.2791750" lon="5.9114860">
    <ele>30.9</ele>
    <time>2019-09-08T07:40:37Z</time>
   </trkpt>
   <trkpt lat="51.2792520" lon="5.9114650">
    <ele>30.9</ele>
    <time>2019-09-08T07:40:38Z</time>
   </trkpt>
   <trkpt lat="51.2793240" lon="5.9114330">
    <ele>30.8</ele>
    <time>2019-09-08T07:40:39Z</time>
   </trkpt>
   <trkpt lat="51.2793940" lon="5.9113990">
    <ele>30.8</ele>
    <time>2019-09-08T07:40:40Z</time>
   </trkpt>
   <trkpt lat="51.2794630" lon="5.9113840">
    <ele>30.8</ele>
    <time>2019-09-08T07:40:41Z</time>
   </trkpt>
   <trkpt lat="51.2795290" lon="5.9113630">
    <ele>30.8</ele>
    <time>2019-09-08T07:40:42Z</time>
   </trkpt>
   <trkpt lat="51.2796020" lon="5.9113340">
    <ele>30.7</ele>
    <time>2019-09-08T07:40:43Z</time>
   </trkpt>
   <trkpt lat="51.2796630" lon="5.9113040">
    <ele>30.7</ele>
    <time>2019-09-08T07:40:44Z</time>
   </trkpt>
   <trkpt lat="51.2797440" lon="5.9112840">
    <ele>30.7</ele>
    <time>2019-09-08T07:40:45Z</time>
   </trkpt>
   <trkpt lat="51.2798140" lon="5.9112580">
    <ele>30.7</ele>
    <time>2019-09-08T07:40:46Z</time>
   </trkpt>
   <trkpt lat="51.2798810" lon="5.9112260">
    <ele>30.6</ele>
    <time>2019-09-08T07:40:47Z</time>
   </trkpt>
   <trkpt lat="51.2799530" lon="5.9112030">
    <ele>30.6</ele>
    <time>2019-09-08T07:40:48Z</time>
   </trkpt>
   <trkpt lat="51.2800230" lon="5.9111660">
    <ele>30.6</ele>
    <time>2019-09-08T07:40:49Z</time>
   </trkpt>
   <trkpt lat="51.2800890" lon="5.9111240">
    <ele>30.6</ele>
    <time>2019-09-08T07:40:50Z</time>
   </trkpt>
   <trkpt lat="51.2801580" lon="5.9110830">
    <ele>30.6</ele>
    <time>2019-09-08T07:40:51Z</time>
   </trkpt>
   <trkpt lat="51.2802230" lon="5.9110380">
    <ele>30.5</ele>
    <time>2019-09-08T07:40:52Z</time>
   </trkpt>
   <trkpt lat="51.2803000" lon="5.9109970">
    <ele>30.5</ele>
    <time>2019-09-08T07:40:53Z</time>
   </trkpt>
   <trkpt lat="51.2803740" lon="5.9109650">
    <ele>30.5</ele>
    <time>2019-09-08T07:40:54Z</time>
   </trkpt>
   <trkpt lat="51.2804450" lon="5.9109410">
    <ele>30.5</ele>
    <time>2019-09-08T07:40:55Z</time>
   </trkpt>
   <trkpt lat="51.2805130" lon="5.9109220">
    <ele>30.4</ele>
    <time>2019-09-08T07:40:56Z</time>
   </trkpt>
   <trkpt lat="51.2805860" lon="5.9108900">
    <ele>30.4</ele>
    <time>2019-09-08T07:40:57Z</time>
   </trkpt>
   <trkpt lat="51.2806580" lon="5.9108580">
    <ele>30.4</ele>
    <time>2019-09-08T07:40:58Z</time>
   </trkpt>
   <trkpt lat="51.2807290" lon="5.9108310">
    <ele>30.4</ele>
    <time>2019-09-08T07:40:59Z</time>
   </trkpt>
   <trkpt lat="51.2807990" lon="5.9108040">
    <ele>30.4</ele>
    <time>2019-09-08T07:41:00Z</time>
   </trkpt>
   <trkpt lat="51.2808750" lon="5.9107890">
    <ele>30.4</ele>
    <time>2019-09-08T07:41:01Z</time>
   </trkpt>
   <trkpt lat="51.2809470" lon="5.9107540">
    <ele>30.3</ele>
    <time>2019-09-08T07:41:02Z</time>
   </trkpt>
   <trkpt lat="51.2810200" lon="5.9107270">
    <ele>30.3</ele>
    <time>2019-09-08T07:41:03Z</time>
   </trkpt>
   <trkpt lat="51.2810890" lon="5.9107020">
    <ele>30.3</ele>
    <time>2019-09-08T07:41:04Z</time>
   </trkpt>
   <trkpt lat="51.2811500" lon="5.9106590">
    <ele>30.3</ele>
    <time>2019-09-08T07:41:05Z</time>
   </trkpt>
   <trkpt lat="51.2812120" lon="5.9106290">
    <ele>30.3</ele>
    <time>2019-09-08T07:41:06Z</time>
   </trkpt>
   <trkpt lat="51.2812790" lon="5.9105920">
    <ele>30.3</ele>
    <time>2019-09-08T07:41:07Z</time>
   </trkpt>
   <trkpt lat="51.2813510" lon="5.9105580">
    <ele>30.2</ele>
    <time>2019-09-08T07:41:08Z</time>
   </trkpt>
   <trkpt lat="51.2814130" lon="5.9105380">
    <ele>30.2</ele>
    <time>2019-09-08T07:41:09Z</time>
   </trkpt>
   <trkpt lat="51.2814760" lon="5.9105040">
    <ele>30.2</ele>
    <time>2019-09-08T07:41:10Z</time>
   </trkpt>
   <trkpt lat="51.2815490" lon="5.9104850">
    <ele>30.2</ele>
    <time>2019-09-08T07:41:11Z</time>
   </trkpt>
   <trkpt lat="51.2816210" lon="5.9104680">
    <ele>30.2</ele>
    <time>2019-09-08T07:41:12Z</time>
   </trkpt>
   <trkpt lat="51.2816900" lon="5.9104380">
    <ele>30.2</ele>
    <time>2019-09-08T07:41:13Z</time>
   </trkpt>
   <trkpt lat="51.2817690" lon="5.9104210">
    <ele>30.1</ele>
    <time>2019-09-08T07:41:14Z</time>
   </trkpt>
   <trkpt lat="51.2818390" lon="5.9103820">
    <ele>30.1</ele>
    <time>2019-09-08T07:41:15Z</time>
   </trkpt>
   <trkpt lat="51.2819060" lon="5.9103430">
    <ele>30.1</ele>
    <time>2019-09-08T07:41:16Z</time>
   </trkpt>
   <trkpt lat="51.2819790" lon="5.9103180">
    <ele>30.1</ele>
    <time>2019-09-08T07:41:17Z</time>
   </trkpt>
   <trkpt lat="51.2820510" lon="5.9102860">
    <ele>30.1</ele>
    <time>2019-09-08T07:41:18Z</time>
   </trkpt>
   <trkpt lat="51.2821170" lon="5.9102590">
    <ele>30.1</ele>
    <time>2019-09-08T07:41:19Z</time>
   </trkpt>
   <trkpt lat="51.2821900" lon="5.9102420">
    <ele>30.1</ele>
    <time>2019-09-08T07:41:20Z</time>
   </trkpt>
   <trkpt lat="51.2822630" lon="5.9102030">
    <ele>30.0</ele>
    <time>2019-09-08T07:41:21Z</time>
   </trkpt>
   <trkpt lat="51.2823330" lon="5.9101740">
    <ele>30.0</ele>
    <time>2019-09-08T07:41:22Z</time>
   </trkpt>
   <trkpt lat="51.2823970" lon="5.9101420">
    <ele>30.0</ele>
    <time>2019-09-08T07:41:23Z</time>
   </trkpt>
   <trkpt lat="51.2824670" lon="5.9101110">
    <ele>30.0</ele>
    <time>2019-09-08T07:41:24Z</time>
   </trkpt>
   <trkpt lat="51.2825400" lon="5.9100890">
    <ele>30.0</ele>
    <time>2019-09-08T07:41:25Z</time>
   </trkpt>
   <trkpt lat="51.2826130" lon="5.9100560">
    <ele>30.0</ele>
    <time>2019-09-08T07:41:26Z</time>
   </trkpt>
   <trkpt lat="51.2826830" lon="5.9100210">
    <ele>30.0</ele>
    <time>2019-09-08T07:41:27Z</time>
   </trkpt>
   <trkpt lat="51.2827490" lon="5.9099900">
    <ele>29.9</ele>
    <time>2019-09-08T07:41:28Z</time>
   </trkpt>
   <trkpt lat="51.2828150" lon="5.9099500">
    <ele>29.9</ele>
    <time>2019-09-08T07:41:29Z</time>
   </trkpt>
   <trkpt lat="51.2828890" lon="5.9099310">
    <ele>29.9</ele>
    <time>2019-09-08T07:41:30Z</time>
   </trkpt>
   <trkpt lat="51.2829580" lon="5.9099080">
    <ele>29.9</ele>
    <time>2019-09-08T07:41:31Z</time>
   </trkpt>
   <trkpt lat="51.2830330" lon="5.9098770">
    <ele>29.9</ele>
    <time>2019-09-08T07:41:32Z</time>
   </trkpt>
   <trkpt lat="51.2831040" lon="5.9098560">
    <ele>29.9</ele>
    <time>2019-09-08T07:41:33Z</time>
   </trkpt>
   <trkpt lat="51.2831730" lon="5.9098330">
    <ele>29.8</ele>
    <time>2019-09-08T07:41:34Z</time>
   </trkpt>
   <trkpt lat="51.2832430" lon="5.9098020">
    <ele>29.8</ele>
    <time>2019-09-08T07:41:35Z</time>
   </trkpt>
   <trkpt lat="51.2833170" lon="5.9097740">
    <ele>29.8</ele>
    <time>2019-09-08T07:41:36Z</time>
   </trkpt>
   <trkpt lat="51.2833900" lon="5.9097540">
    <ele>29.8</ele>
    <time>2019-09-08T07:41:37Z</time>
   </trkpt>
   <trkpt lat="51.2834620" lon="5.9097360">
    <ele>29.8</ele>
    <time>2019-09-08T07:41:38Z</time>
   </trkpt>
   <trkpt lat="51.2835320" lon="5.9097120">
    <ele>29.7</ele>
    <time>2019-09-08T07:41:39Z</time>
   </trkpt>
   <trkpt lat="51.2836060" lon="5.9096920">
    <ele>29.7</ele>
    <time>2019-09-08T07:41:40Z</time>
   </trkpt>
   <trkpt lat="51.2836750" lon="5.9096540">
    <ele>29.7</ele>
    <time>2019-09-08T07:41:41Z</time>
   </trkpt>
   <trkpt lat="51.2837480" lon="5.9096340">
    <ele>29.6</ele>
    <time>2019-09-08T07:41:42Z</time>
   </trkpt>
   <trkpt lat="51.2838180" lon="5.9096010">
    <ele>29.5</ele>
    <time>2019-09-08T07:41:43Z</time>
   </trkpt>
   <trkpt lat="51.2838920" lon="5.9095700">
    <ele>29.4</ele>
    <time>2019-09-08T07:41:44Z</time>
   </trkpt>
   <trkpt lat="51.2839640" lon="5.9095420">
    <ele>29.2</ele>
    <time>2019-09-08T07:41:45Z</time>
   </trkpt>
   <trkpt lat="51.2840290" lon="5.9095070">
    <ele>29.0</ele>
    <time>2019-09-08T07:41:46Z</time>
   </trkpt>
   <trkpt lat="51.2840960" lon="5.9094650">
    <ele>28.8</ele>
    <time>2019-09-08T07:41:47Z</time>
   </trkpt>
   <trkpt lat="51.2841690" lon="5.9094260">
    <ele>28.6</ele>
    <time>2019-09-08T07:41:48Z</time>
   </trkpt>
   <trkpt lat="51.2842360" lon="5.9093870">
    <ele>28.5</ele>
    <time>2019-09-08T07:41:49Z</time>
   </trkpt>
   <trkpt lat="51.2843030" lon="5.9093380">
    <ele>28.4</ele>
    <time>2019-09-08T07:41:50Z</time>
   </trkpt>
   <trkpt lat="51.2843630" lon="5.9092900">
    <ele>28.4</ele>
    <time>2019-09-08T07:41:51Z</time>
   </trkpt>
   <trkpt lat="51.2844230" lon="5.9092350">
    <ele>28.4</ele>
    <time>2019-09-08T07:41:52Z</time>
   </trkpt>
   <trkpt lat="51.2844800" lon="5.9091620">
    <ele>28.4</ele>
    <time>2019-09-08T07:41:53Z</time>
   </trkpt>
   <trkpt lat="51.2845440" lon="5.9091130">
    <ele>28.3</ele>
    <time>2019-09-08T07:41:54Z</time>
   </trkpt>
   <trkpt lat="51.2846120" lon="5.9090740">
    <ele>28.3</ele>
    <time>2019-09-08T07:41:55Z</time>
   </trkpt>
   <trkpt lat="51.2846790" lon="5.9090300">
    <ele>28.3</ele>
    <time>2019-09-08T07:41:56Z</time>
   </trkpt>
   <trkpt lat="51.2847500" lon="5.9089810">
    <ele>28.3</ele>
    <time>2019-09-08T07:41:57Z</time>
   </trkpt>
   <trkpt lat="51.2848100" lon="5.9089370">
    <ele>28.3</ele>
    <time>2019-09-08T07:41:58Z</time>
   </trkpt>
   <trkpt lat="51.2848780" lon="5.9088790">
    <ele>28.4</ele>
    <time>2019-09-08T07:41:59Z</time>
   </trkpt>
   <trkpt lat="51.2849420" lon="5.9088350">
    <ele>28.4</ele>
    <time>2019-09-08T07:42:00Z</time>
   </trkpt>
   <trkpt lat="51.2850090" lon="5.9087910">
    <ele>28.5</ele>
    <time>2019-09-08T07:42:01Z</time>
   </trkpt>
   <trkpt lat="51.2850730" lon="5.9087460">
    <ele>28.5</ele>
    <time>2019-09-08T07:42:02Z</time>
   </trkpt>
   <trkpt lat="51.2851350" lon="5.9086960">
    <ele>28.5</ele>
    <time>2019-09-08T07:42:03Z</time>
   </trkpt>
   <trkpt lat="51.2852070" lon="5.9086550">
    <ele>28.6</ele>
    <time>2019-09-08T07:42:04Z</time>
   </trkpt>
   <trkpt lat="51.2852730" lon="5.9086110">
    <ele>28.7</ele>
    <time>2019-09-08T07:42:05Z</time>
   </trkpt>
   <trkpt lat="51.2853420" lon="5.9085640">
    <ele>28.8</ele>
    <time>2019-09-08T07:42:06Z</time>
   </trkpt>
   <trkpt lat="51.2853960" lon="5.9084950">
    <ele>28.9</ele>
    <time>2019-09-08T07:42:07Z</time>
   </trkpt>
   <trkpt lat="51.2854560" lon="5.9084350">
    <ele>28.9</ele>
    <time>2019-09-08T07:42:08Z</time>
   </trkpt>
   <trkpt lat="51.2855170" lon="5.9083670">
    <ele>29.0</ele>
    <time>2019-09-08T07:42:09Z</time>
   </trkpt>
   <trkpt lat="51.2855800" lon="5.9083100">
    <ele>29.0</ele>
    <time>2019-09-08T07:42:10Z</time>
   </trkpt>
   <trkpt lat="51.2856390" lon="5.9082510">
    <ele>29.0</ele>
    <time>2019-09-08T07:42:11Z</time>
   </trkpt>
   <trkpt lat="51.2856960" lon="5.9081800">
    <ele>29.0</ele>
    <time>2019-09-08T07:42:12Z</time>
   </trkpt>
   <trkpt lat="51.2857560" lon="5.9081200">
    <ele>29.1</ele>
    <time>2019-09-08T07:42:13Z</time>
   </trkpt>
   <trkpt lat="51.2858110" lon="5.9080640">
    <ele>29.1</ele>
    <time>2019-09-08T07:42:14Z</time>
   </trkpt>
   <trkpt lat="51.2858670" lon="5.9079970">
    <ele>29.1</ele>
    <time>2019-09-08T07:42:15Z</time>
   </trkpt>
   <trkpt lat="51.2859220" lon="5.9079380">
    <ele>29.1</ele>
    <time>2019-09-08T07:42:16Z</time>
   </trkpt>
   <trkpt lat="51.2859840" lon="5.9078800">
    <ele>29.1</ele>
    <time>2019-09-08T07:42:17Z</time>
   </trkpt>
   <trkpt lat="51.2860460" lon="5.9078220">
    <ele>29.1</ele>
    <time>2019-09-08T07:42:18Z</time>
   </trkpt>
   <trkpt lat="51.2861020" lon="5.9077550">
    <ele>29.2</ele>
    <time>2019-09-08T07:42:19Z</time>
   </trkpt>
   <trkpt lat="51.2861610" lon="5.9076900">
    <ele>29.2</ele>
    <time>2019-09-08T07:42:20Z</time>
   </trkpt>
   <trkpt lat="51.2862250" lon="5.9076190">
    <ele>29.2</ele>
    <time>2019-09-08T07:42:21Z</time>
   </trkpt>
   <trkpt lat="51.2862860" lon="5.9075440">
    <ele>29.2</ele>
    <time>2019-09-08T07:42:22Z</time>
   </trkpt>
   <trkpt lat="51.2863460" lon="5.9074810">
    <ele>29.2</ele>
    <time>2019-09-08T07:42:23Z</time>
   </trkpt>
   <trkpt lat="51.2864020" lon="5.9074110">
    <ele>29.2</ele>
    <time>2019-09-08T07:42:24Z</time>
   </trkpt>
   <trkpt lat="51.2864600" lon="5.9073320">
    <ele>29.2</ele>
    <time>2019-09-08T07:42:25Z</time>
   </trkpt>
   <trkpt lat="51.2865220" lon="5.9072670">
    <ele>29.2</ele>
    <time>2019-09-08T07:42:26Z</time>
   </trkpt>
   <trkpt lat="51.2865790" lon="5.9072030">
    <ele>29.2</ele>
    <time>2019-09-08T07:42:27Z</time>
   </trkpt>
   <trkpt lat="51.2866370" lon="5.9071350">
    <ele>29.2</ele>
    <time>2019-09-08T07:42:28Z</time>
   </trkpt>
   <trkpt lat="51.2866970" lon="5.9070760">
    <ele>29.2</ele>
    <time>2019-09-08T07:42:29Z</time>
   </trkpt>
   <trkpt lat="51.2867510" lon="5.9070100">
    <ele>29.2</ele>
    <time>2019-09-08T07:42:30Z</time>
   </trkpt>
   <trkpt lat="51.2868070" lon="5.9069410">
    <ele>29.3</ele>
    <time>2019-09-08T07:42:31Z</time>
   </trkpt>
   <trkpt lat="51.2868640" lon="5.9068760">
    <ele>29.3</ele>
    <time>2019-09-08T07:42:32Z</time>
   </trkpt>
   <trkpt lat="51.2869180" lon="5.9068090">
    <ele>29.3</ele>
    <time>2019-09-08T07:42:33Z</time>
   </trkpt>
   <trkpt lat="51.2869780" lon="5.9067480">
    <ele>29.4</ele>
    <time>2019-09-08T07:42:34Z</time>
   </trkpt>
   <trkpt lat="51.2870340" lon="5.9066880">
    <ele>29.4</ele>
    <time>2019-09-08T07:42:35Z</time>
   </trkpt>
   <trkpt lat="51.2870860" lon="5.9066260">
    <ele>29.4</ele>
    <time>2019-09-08T07:42:36Z</time>
   </trkpt>
   <trkpt lat="51.2871460" lon="5.9065660">
    <ele>29.5</ele>
    <time>2019-09-08T07:42:37Z</time>
   </trkpt>
   <trkpt lat="51.2872050" lon="5.9065020">
    <ele>29.5</ele>
    <time>2019-09-08T07:42:38Z</time>
   </trkpt>
   <trkpt lat="51.2872680" lon="5.9064290">
    <ele>29.5</ele>
    <time>2019-09-08T07:42:39Z</time>
   </trkpt>
   <trkpt lat="51.2873290" lon="5.9063580">
    <ele>29.5</ele>
    <time>2019-09-08T07:42:40Z</time>
   </trkpt>
   <trkpt lat="51.2873890" lon="5.9062800">
    <ele>29.5</ele>
    <time>2019-09-08T07:42:41Z</time>
   </trkpt>
   <trkpt lat="51.2874450" lon="5.9062140">
    <ele>29.5</ele>
    <time>2019-09-08T07:42:42Z</time>
   </trkpt>
   <trkpt lat="51.2874990" lon="5.9061290">
    <ele>29.5</ele>
    <time>2019-09-08T07:42:43Z</time>
   </trkpt>
   <trkpt lat="51.2875520" lon="5.9060490">
    <ele>29.4</ele>
    <time>2019-09-08T07:42:44Z</time>
   </trkpt>
   <trkpt lat="51.2876010" lon="5.9059640">
    <ele>29.4</ele>
    <time>2019-09-08T07:42:45Z</time>
   </trkpt>
   <trkpt lat="51.2876490" lon="5.9058800">
    <ele>29.3</ele>
    <time>2019-09-08T07:42:46Z</time>
   </trkpt>
   <trkpt lat="51.2876930" lon="5.9057890">
    <ele>29.2</ele>
    <time>2019-09-08T07:42:47Z</time>
   </trkpt>
   <trkpt lat="51.2877500" lon="5.9056960">
    <ele>29.1</ele>
    <time>2019-09-08T07:42:48Z</time>
   </trkpt>
   <trkpt lat="51.2877940" lon="5.9056080">
    <ele>29.1</ele>
    <time>2019-09-08T07:42:49Z</time>
   </trkpt>
   <trkpt lat="51.2878410" lon="5.9055170">
    <ele>29.2</ele>
    <time>2019-09-08T07:42:50Z</time>
   </trkpt>
   <trkpt lat="51.2878860" lon="5.9054170">
    <ele>29.2</ele>
    <time>2019-09-08T07:42:51Z</time>
   </trkpt>
   <trkpt lat="51.2879360" lon="5.9053300">
    <ele>29.2</ele>
    <time>2019-09-08T07:42:52Z</time>
   </trkpt>
   <trkpt lat="51.2879810" lon="5.9052420">
    <ele>29.2</ele>
    <time>2019-09-08T07:42:53Z</time>
   </trkpt>
   <trkpt lat="51.2880250" lon="5.9051480">
    <ele>29.2</ele>
    <time>2019-09-08T07:42:54Z</time>
   </trkpt>
   <trkpt lat="51.2880670" lon="5.9050650">
    <ele>29.3</ele>
    <time>2019-09-08T07:42:55Z</time>
   </trkpt>
   <trkpt lat="51.2881070" lon="5.9049740">
    <ele>29.3</ele>
    <time>2019-09-08T07:42:56Z</time>
   </trkpt>
   <trkpt lat="51.2881500" lon="5.9048830">
    <ele>29.4</ele>
    <time>2019-09-08T07:42:57Z</time>
   </trkpt>
   <trkpt lat="51.2881900" lon="5.9047880">
    <ele>29.5</ele>
    <time>2019-09-08T07:42:58Z</time>
   </trkpt>
   <trkpt lat="51.2882390" lon="5.9047050">
    <ele>29.5</ele>
    <time>2019-09-08T07:42:59Z</time>
   </trkpt>
   <trkpt lat="51.2882930" lon="5.9046130">
    <ele>29.6</ele>
    <time>2019-09-08T07:43:00Z</time>
   </trkpt>
   <trkpt lat="51.2883390" lon="5.9045350">
    <ele>29.6</ele>
    <time>2019-09-08T07:43:01Z</time>
   </trkpt>
   <trkpt lat="51.2883850" lon="5.9044480">
    <ele>29.7</ele>
    <time>2019-09-08T07:43:02Z</time>
   </trkpt>
   <trkpt lat="51.2884300" lon="5.9043530">
    <ele>29.7</ele>
    <time>2019-09-08T07:43:03Z</time>
   </trkpt>
   <trkpt lat="51.2884780" lon="5.9042700">
    <ele>29.7</ele>
    <time>2019-09-08T07:43:04Z</time>
   </trkpt>
   <trkpt lat="51.2885210" lon="5.9041870">
    <ele>29.7</ele>
    <time>2019-09-08T07:43:05Z</time>
   </trkpt>
   <trkpt lat="51.2885640" lon="5.9040930">
    <ele>29.7</ele>
    <time>2019-09-08T07:43:06Z</time>
   </trkpt>
   <trkpt lat="51.2886100" lon="5.9040060">
    <ele>29.7</ele>
    <time>2019-09-08T07:43:07Z</time>
   </trkpt>
   <trkpt lat="51.2886580" lon="5.9039290">
    <ele>29.7</ele>
    <time>2019-09-08T07:43:08Z</time>
   </trkpt>
   <trkpt lat="51.2887000" lon="5.9038440">
    <ele>29.7</ele>
    <time>2019-09-08T07:43:09Z</time>
   </trkpt>
   <trkpt lat="51.2887440" lon="5.9037600">
    <ele>29.8</ele>
    <time>2019-09-08T07:43:10Z</time>
   </trkpt>
   <trkpt lat="51.2887890" lon="5.9036820">
    <ele>29.8</ele>
    <time>2019-09-08T07:43:11Z</time>
   </trkpt>
   <trkpt lat="51.2888320" lon="5.9036020">
    <ele>29.8</ele>
    <time>2019-09-08T07:43:12Z</time>
   </trkpt>
   <trkpt lat="51.2888780" lon="5.9035240">
    <ele>29.8</ele>
    <time>2019-09-08T07:43:13Z</time>
   </trkpt>
   <trkpt lat="51.2889210" lon="5.9034500">
    <ele>29.8</ele>
    <time>2019-09-08T07:43:14Z</time>
   </trkpt>
   <trkpt lat="51.2889780" lon="5.9033820">
    <ele>29.9</ele>
    <time>2019-09-08T07:43:15Z</time>
   </trkpt>
   <trkpt lat="51.2890250" lon="5.9033070">
    <ele>29.9</ele>
    <time>2019-09-08T07:43:16Z</time>
   </trkpt>
   <trkpt lat="51.2890710" lon="5.9032130">
    <ele>30.0</ele>
    <time>2019-09-08T07:43:17Z</time>
   </trkpt>
   <trkpt lat="51.2891110" lon="5.9031190">
    <ele>30.2</ele>
    <time>2019-09-08T07:43:18Z</time>
   </trkpt>
   <trkpt lat="51.2891450" lon="5.9030280">
    <ele>30.3</ele>
    <time>2019-09-08T07:43:19Z</time>
   </trkpt>
   <trkpt lat="51.2891780" lon="5.9029280">
    <ele>30.4</ele>
    <time>2019-09-08T07:43:20Z</time>
   </trkpt>
   <trkpt lat="51.2892230" lon="5.9028330">
    <ele>30.6</ele>
    <time>2019-09-08T07:43:21Z</time>
   </trkpt>
   <trkpt lat="51.2892730" lon="5.9027380">
    <ele>30.5</ele>
    <time>2019-09-08T07:43:22Z</time>
   </trkpt>
   <trkpt lat="51.2893240" lon="5.9026560">
    <ele>30.4</ele>
    <time>2019-09-08T07:43:23Z</time>
   </trkpt>
   <trkpt lat="51.2893750" lon="5.9025640">
    <ele>30.3</ele>
    <time>2019-09-08T07:43:24Z</time>
   </trkpt>
   <trkpt lat="51.2894240" lon="5.9024770">
    <ele>30.2</ele>
    <time>2019-09-08T07:43:25Z</time>
   </trkpt>
   <trkpt lat="51.2894740" lon="5.9023900">
    <ele>30.2</ele>
    <time>2019-09-08T07:43:26Z</time>
   </trkpt>
   <trkpt lat="51.2895260" lon="5.9023060">
    <ele>30.1</ele>
    <time>2019-09-08T07:43:27Z</time>
   </trkpt>
   <trkpt lat="51.2895650" lon="5.9022260">
    <ele>30.0</ele>
    <time>2019-09-08T07:43:28Z</time>
   </trkpt>
   <trkpt lat="51.2896200" lon="5.9021470">
    <ele>29.9</ele>
    <time>2019-09-08T07:43:29Z</time>
   </trkpt>
   <trkpt lat="51.2896720" lon="5.9020710">
    <ele>29.8</ele>
    <time>2019-09-08T07:43:30Z</time>
   </trkpt>
   <trkpt lat="51.2897200" lon="5.9019920">
    <ele>29.8</ele>
    <time>2019-09-08T07:43:31Z</time>
   </trkpt>
   <trkpt lat="51.2897730" lon="5.9019170">
    <ele>29.7</ele>
    <time>2019-09-08T07:43:32Z</time>
   </trkpt>
   <trkpt lat="51.2898230" lon="5.9018420">
    <ele>29.6</ele>
    <time>2019-09-08T07:43:33Z</time>
   </trkpt>
   <trkpt lat="51.2898680" lon="5.9017450">
    <ele>29.6</ele>
    <time>2019-09-08T07:43:34Z</time>
   </trkpt>
   <trkpt lat="51.2899130" lon="5.9016660">
    <ele>29.5</ele>
    <time>2019-09-08T07:43:35Z</time>
   </trkpt>
   <trkpt lat="51.2899640" lon="5.9015880">
    <ele>29.4</ele>
    <time>2019-09-08T07:43:36Z</time>
   </trkpt>
   <trkpt lat="51.2900160" lon="5.9015100">
    <ele>29.3</ele>
    <time>2019-09-08T07:43:37Z</time>
   </trkpt>
   <trkpt lat="51.2900700" lon="5.9014230">
    <ele>29.3</ele>
    <time>2019-09-08T07:43:38Z</time>
   </trkpt>
   <trkpt lat="51.2901080" lon="5.9013260">
    <ele>29.2</ele>
    <time>2019-09-08T07:43:39Z</time>
   </trkpt>
   <trkpt lat="51.2901710" lon="5.9012610">
    <ele>29.1</ele>
    <time>2019-09-08T07:43:40Z</time>
   </trkpt>
   <trkpt lat="51.2902210" lon="5.9011740">
    <ele>29.0</ele>
    <time>2019-09-08T07:43:41Z</time>
   </trkpt>
   <trkpt lat="51.2902750" lon="5.9010900">
    <ele>29.0</ele>
    <time>2019-09-08T07:43:42Z</time>
   </trkpt>
   <trkpt lat="51.2903230" lon="5.9010040">
    <ele>28.9</ele>
    <time>2019-09-08T07:43:43Z</time>
   </trkpt>
   <trkpt lat="51.2903700" lon="5.9009090">
    <ele>28.8</ele>
    <time>2019-09-08T07:43:44Z</time>
   </trkpt>
   <trkpt lat="51.2904130" lon="5.9008080">
    <ele>28.8</ele>
    <time>2019-09-08T07:43:45Z</time>
   </trkpt>
   <trkpt lat="51.2904710" lon="5.9007200">
    <ele>28.7</ele>
    <time>2019-09-08T07:43:46Z</time>
   </trkpt>
   <trkpt lat="51.2905230" lon="5.9006420">
    <ele>28.7</ele>
    <time>2019-09-08T07:43:47Z</time>
   </trkpt>
   <trkpt lat="51.2905790" lon="5.9005580">
    <ele>28.7</ele>
    <time>2019-09-08T07:43:48Z</time>
   </trkpt>
   <trkpt lat="51.2906290" lon="5.9004730">
    <ele>28.6</ele>
    <time>2019-09-08T07:43:49Z</time>
   </trkpt>
   <trkpt lat="51.2906850" lon="5.9003840">
    <ele>28.6</ele>
    <time>2019-09-08T07:43:50Z</time>
   </trkpt>
   <trkpt lat="51.2907310" lon="5.9003010">
    <ele>28.6</ele>
    <time>2019-09-08T07:43:51Z</time>
   </trkpt>
   <trkpt lat="51.2907770" lon="5.9002220">
    <ele>28.5</ele>
    <time>2019-09-08T07:43:52Z</time>
   </trkpt>
   <trkpt lat="51.2908350" lon="5.9001130">
    <ele>28.5</ele>
    <time>2019-09-08T07:43:53Z</time>
   </trkpt>
   <trkpt lat="51.2908880" lon="5.8999980">
    <ele>28.5</ele>
    <time>2019-09-08T07:43:54Z</time>
   </trkpt>
   <trkpt lat="51.2909360" lon="5.8999110">
    <ele>28.4</ele>
    <time>2019-09-08T07:43:55Z</time>
   </trkpt>
   <trkpt lat="51.2909860" lon="5.8998300">
    <ele>28.4</ele>
    <time>2019-09-08T07:43:56Z</time>
   </trkpt>
   <trkpt lat="51.2910260" lon="5.8997300">
    <ele>28.3</ele>
    <time>2019-09-08T07:43:57Z</time>
   </trkpt>
   <trkpt lat="51.2910770" lon="5.8996540">
    <ele>28.3</ele>
    <time>2019-09-08T07:43:58Z</time>
   </trkpt>
   <trkpt lat="51.2911120" lon="5.8995660">
    <ele>28.2</ele>
    <time>2019-09-08T07:43:59Z</time>
   </trkpt>
   <trkpt lat="51.2911500" lon="5.8994700">
    <ele>28.2</ele>
    <time>2019-09-08T07:44:00Z</time>
   </trkpt>
   <trkpt lat="51.2911900" lon="5.8994000">
    <ele>28.1</ele>
    <time>2019-09-08T07:44:01Z</time>
   </trkpt>
   <trkpt lat="51.2912470" lon="5.8993100">
    <ele>28.1</ele>
    <time>2019-09-08T07:44:02Z</time>
   </trkpt>
   <trkpt lat="51.2913030" lon="5.8992340">
    <ele>28.1</ele>
    <time>2019-09-08T07:44:03Z</time>
   </trkpt>
   <trkpt lat="51.2913550" lon="5.8991640">
    <ele>28.0</ele>
    <time>2019-09-08T07:44:04Z</time>
   </trkpt>
   <trkpt lat="51.2914050" lon="5.8990880">
    <ele>28.0</ele>
    <time>2019-09-08T07:44:05Z</time>
   </trkpt>
   <trkpt lat="51.2914550" lon="5.8990050">
    <ele>28.0</ele>
    <time>2019-09-08T07:44:06Z</time>
   </trkpt>
   <trkpt lat="51.2914990" lon="5.8989260">
    <ele>28.0</ele>
    <time>2019-09-08T07:44:07Z</time>
   </trkpt>
   <trkpt lat="51.2915490" lon="5.8988500">
    <ele>28.0</ele>
    <time>2019-09-08T07:44:08Z</time>
   </trkpt>
   <trkpt lat="51.2915930" lon="5.8987590">
    <ele>28.0</ele>
    <time>2019-09-08T07:44:09Z</time>
   </trkpt>
   <trkpt lat="51.2916420" lon="5.8986740">
    <ele>28.1</ele>
    <time>2019-09-08T07:44:10Z</time>
   </trkpt>
   <trkpt lat="51.2916900" lon="5.8985780">
    <ele>28.1</ele>
    <time>2019-09-08T07:44:11Z</time>
   </trkpt>
   <trkpt lat="51.2917500" lon="5.8985140">
    <ele>28.1</ele>
    <time>2019-09-08T07:44:12Z</time>
   </trkpt>
   <trkpt lat="51.2917960" lon="5.8984350">
    <ele>28.1</ele>
    <time>2019-09-08T07:44:13Z</time>
   </trkpt>
   <trkpt lat="51.2918410" lon="5.8983780">
    <ele>28.1</ele>
    <time>2019-09-08T07:44:14Z</time>
   </trkpt>
   <trkpt lat="51.2918920" lon="5.8983190">
    <ele>28.1</ele>
    <time>2019-09-08T07:44:15Z</time>
   </trkpt>
   <trkpt lat="51.2919430" lon="5.8982710">
    <ele>28.1</ele>
    <time>2019-09-08T07:44:16Z</time>
   </trkpt>
   <trkpt lat="51.2919930" lon="5.8982010">
    <ele>28.2</ele>
    <time>2019-09-08T07:44:17Z</time>
   </trkpt>
   <trkpt lat="51.2920620" lon="5.8981290">
    <ele>28.2</ele>
    <time>2019-09-08T07:44:18Z</time>
   </trkpt>
   <trkpt lat="51.2921150" lon="5.8980790">
    <ele>28.2</ele>
    <time>2019-09-08T07:44:19Z</time>
   </trkpt>
   <trkpt lat="51.2921670" lon="5.8980320">
    <ele>28.2</ele>
    <time>2019-09-08T07:44:20Z</time>
   </trkpt>
   <trkpt lat="51.2922180" lon="5.8979880">
    <ele>28.2</ele>
    <time>2019-09-08T07:44:21Z</time>
   </trkpt>
   <trkpt lat="51.2922690" lon="5.8979490">
    <ele>28.2</ele>
    <time>2019-09-08T07:44:22Z</time>
   </trkpt>
   <trkpt lat="51.2923140" lon="5.8979160">
    <ele>28.3</ele>
    <time>2019-09-08T07:44:23Z</time>
   </trkpt>
   <trkpt lat="51.2923550" lon="5.8978900">
    <ele>28.3</ele>
    <time>2019-09-08T07:44:24Z</time>
   </trkpt>
   <trkpt lat="51.2923960" lon="5.8978660">
    <ele>28.3</ele>
    <time>2019-09-08T07:44:25Z</time>
   </trkpt>
   <trkpt lat="51.2924350" lon="5.8978320">
    <ele>28.4</ele>
    <time>2019-09-08T07:44:26Z</time>
   </trkpt>
   <trkpt lat="51.2924610" lon="5.8977780">
    <ele>28.5</ele>
    <time>2019-09-08T07:44:27Z</time>
   </trkpt>
   <trkpt lat="51.2924620" lon="5.8977080">
    <ele>28.5</ele>
    <time>2019-09-08T07:44:28Z</time>
   </trkpt>
   <trkpt lat="51.2924430" lon="5.8976270">
    <ele>28.6</ele>
    <time>2019-09-08T07:44:29Z</time>
   </trkpt>
   <trkpt lat="51.2924150" lon="5.8975560">
    <ele>28.7</ele>
    <time>2019-09-08T07:44:30Z</time>
   </trkpt>
   <trkpt lat="51.2923780" lon="5.8974880">
    <ele>28.8</ele>
    <time>2019-09-08T07:44:31Z</time>
   </trkpt>
   <trkpt lat="51.2923430" lon="5.8974080">
    <ele>28.8</ele>
    <time>2019-09-08T07:44:32Z</time>
   </trkpt>
   <trkpt lat="51.2922960" lon="5.8973380">
    <ele>28.9</ele>
    <time>2019-09-08T07:44:33Z</time>
   </trkpt>
   <trkpt lat="51.2922530" lon="5.8972490">
    <ele>28.9</ele>
    <time>2019-09-08T07:44:34Z</time>
   </trkpt>
   <trkpt lat="51.2922090" lon="5.8971580">
    <ele>28.9</ele>
    <time>2019-09-08T07:44:35Z</time>
   </trkpt>
   <trkpt lat="51.2921660" lon="5.8970480">
    <ele>28.9</ele>
    <time>2019-09-08T07:44:36Z</time>
   </trkpt>
   <trkpt lat="51.2921370" lon="5.8969440">
    <ele>28.8</ele>
    <time>2019-09-08T07:44:37Z</time>
   </trkpt>
   <trkpt lat="51.2921060" lon="5.8968400">
    <ele>28.8</ele>
    <time>2019-09-08T07:44:38Z</time>
   </trkpt>
   <trkpt lat="51.2920720" lon="5.8967420">
    <ele>28.8</ele>
    <time>2019-09-08T07:44:39Z</time>
   </trkpt>
   <trkpt lat="51.2920410" lon="5.8966410">
    <ele>28.8</ele>
    <time>2019-09-08T07:44:40Z</time>
   </trkpt>
   <trkpt lat="51.2920050" lon="5.8965460">
    <ele>28.8</ele>
    <time>2019-09-08T07:44:41Z</time>
   </trkpt>
   <trkpt lat="51.2919710" lon="5.8964570">
    <ele>28.8</ele>
    <time>2019-09-08T07:44:42Z</time>
   </trkpt>
   <trkpt lat="51.2919470" lon="5.8963770">
    <ele>28.8</ele>
    <time>2019-09-08T07:44:43Z</time>
   </trkpt>
   <trkpt lat="51.2919180" lon="5.8962930">
    <ele>28.8</ele>
    <time>2019-09-08T07:44:44Z</time>
   </trkpt>
   <trkpt lat="51.2918980" lon="5.8962030">
    <ele>28.8</ele>
    <time>2019-09-08T07:44:45Z</time>
   </trkpt>
   <trkpt lat="51.2918620" lon="5.8961090">
    <ele>28.8</ele>
    <time>2019-09-08T07:44:46Z</time>
   </trkpt>
   <trkpt lat="51.2918390" lon="5.8960070">
    <ele>28.8</ele>
    <time>2019-09-08T07:44:47Z</time>
   </trkpt>
   <trkpt lat="51.2918020" lon="5.8958990">
    <ele>28.8</ele>
    <time>2019-09-08T07:44:48Z</time>
   </trkpt>
   <trkpt lat="51.2917680" lon="5.8957980">
    <ele>28.9</ele>
    <time>2019-09-08T07:44:49Z</time>
   </trkpt>
   <trkpt lat="51.2917460" lon="5.8957000">
    <ele>28.9</ele>
    <time>2019-09-08T07:44:50Z</time>
   </trkpt>
   <trkpt lat="51.2917110" lon="5.8956030">
    <ele>28.8</ele>
    <time>2019-09-08T07:44:51Z</time>
   </trkpt>
   <trkpt lat="51.2916730" lon="5.8955000">
    <ele>28.8</ele>
    <time>2019-09-08T07:44:52Z</time>
   </trkpt>
   <trkpt lat="51.2916440" lon="5.8953970">
    <ele>28.8</ele>
    <time>2019-09-08T07:44:53Z</time>
   </trkpt>
   <trkpt lat="51.2916130" lon="5.8953030">
    <ele>28.8</ele>
    <time>2019-09-08T07:44:54Z</time>
   </trkpt>
   <trkpt lat="51.2915770" lon="5.8951940">
    <ele>28.8</ele>
    <time>2019-09-08T07:44:55Z</time>
   </trkpt>
   <trkpt lat="51.2915400" lon="5.8950840">
    <ele>28.8</ele>
    <time>2019-09-08T07:44:56Z</time>
   </trkpt>
   <trkpt lat="51.2915020" lon="5.8949910">
    <ele>28.8</ele>
    <time>2019-09-08T07:44:57Z</time>
   </trkpt>
   <trkpt lat="51.2914680" lon="5.8948910">
    <ele>28.8</ele>
    <time>2019-09-08T07:44:58Z</time>
   </trkpt>
   <trkpt lat="51.2914370" lon="5.8947870">
    <ele>28.8</ele>
    <time>2019-09-08T07:44:59Z</time>
   </trkpt>
   <trkpt lat="51.2914030" lon="5.8946920">
    <ele>28.8</ele>
    <time>2019-09-08T07:45:00Z</time>
   </trkpt>
   <trkpt lat="51.2913710" lon="5.8945950">
    <ele>28.8</ele>
    <time>2019-09-08T07:45:01Z</time>
   </trkpt>
   <trkpt lat="51.2913430" lon="5.8944940">
    <ele>28.8</ele>
    <time>2019-09-08T07:45:02Z</time>
   </trkpt>
   <trkpt lat="51.2913100" lon="5.8944050">
    <ele>28.9</ele>
    <time>2019-09-08T07:45:03Z</time>
   </trkpt>
   <trkpt lat="51.2912830" lon="5.8943120">
    <ele>28.9</ele>
    <time>2019-09-08T07:45:04Z</time>
   </trkpt>
   <trkpt lat="51.2912640" lon="5.8942120">
    <ele>28.9</ele>
    <time>2019-09-08T07:45:05Z</time>
   </trkpt>
   <trkpt lat="51.2912330" lon="5.8941180">
    <ele>29.0</ele>
    <time>2019-09-08T07:45:06Z</time>
   </trkpt>
   <trkpt lat="51.2912060" lon="5.8940300">
    <ele>29.0</ele>
    <time>2019-09-08T07:45:07Z</time>
   </trkpt>
   <trkpt lat="51.2911780" lon="5.8939330">
    <ele>29.1</ele>
    <time>2019-09-08T07:45:08Z</time>
   </trkpt>
   <trkpt lat="51.2911550" lon="5.8938410">
    <ele>29.1</ele>
    <time>2019-09-08T07:45:09Z</time>
   </trkpt>
   <trkpt lat="51.2911400" lon="5.8937370">
    <ele>29.2</ele>
    <time>2019-09-08T07:45:10Z</time>
   </trkpt>
   <trkpt lat="51.2911000" lon="5.8936480">
    <ele>29.3</ele>
    <time>2019-09-08T07:45:11Z</time>
   </trkpt>
   <trkpt lat="51.2910630" lon="5.8935520">
    <ele>29.3</ele>
    <time>2019-09-08T07:45:12Z</time>
   </trkpt>
   <trkpt lat="51.2910360" lon="5.8934450">
    <ele>29.4</ele>
    <time>2019-09-08T07:45:13Z</time>
   </trkpt>
   <trkpt lat="51.2910050" lon="5.8933410">
    <ele>29.4</ele>
    <time>2019-09-08T07:45:14Z</time>
   </trkpt>
   <trkpt lat="51.2909740" lon="5.8932260">
    <ele>29.5</ele>
    <time>2019-09-08T07:45:15Z</time>
   </trkpt>
   <trkpt lat="51.2909420" lon="5.8931230">
    <ele>29.5</ele>
    <time>2019-09-08T07:45:16Z</time>
   </trkpt>
   <trkpt lat="51.2909100" lon="5.8930090">
    <ele>29.5</ele>
    <time>2019-09-08T07:45:17Z</time>
   </trkpt>
   <trkpt lat="51.2908720" lon="5.8929030">
    <ele>29.5</ele>
    <time>2019-09-08T07:45:18Z</time>
   </trkpt>
   <trkpt lat="51.2908340" lon="5.8928000">
    <ele>29.5</ele>
    <time>2019-09-08T07:45:19Z</time>
   </trkpt>
   <trkpt lat="51.2907930" lon="5.8926980">
    <ele>29.5</ele>
    <time>2019-09-08T07:45:20Z</time>
   </trkpt>
   <trkpt lat="51.2907600" lon="5.8925950">
    <ele>29.6</ele>
    <time>2019-09-08T07:45:21Z</time>
   </trkpt>
   <trkpt lat="51.2907250" lon="5.8924890">
    <ele>29.6</ele>
    <time>2019-09-08T07:45:22Z</time>
   </trkpt>
   <trkpt lat="51.2906830" lon="5.8923620">
    <ele>29.6</ele>
    <time>2019-09-08T07:45:23Z</time>
   </trkpt>
   <trkpt lat="51.2906400" lon="5.8922580">
    <ele>29.6</ele>
    <time>2019-09-08T07:45:24Z</time>
   </trkpt>
   <trkpt lat="51.2906080" lon="5.8921460">
    <ele>29.7</ele>
    <time>2019-09-08T07:45:25Z</time>
   </trkpt>
   <trkpt lat="51.2905780" lon="5.8920420">
    <ele>29.7</ele>
    <time>2019-09-08T07:45:26Z</time>
   </trkpt>
   <trkpt lat="51.2905460" lon="5.8919400">
    <ele>29.7</ele>
    <time>2019-09-08T07:45:27Z</time>
   </trkpt>
   <trkpt lat="51.2905070" lon="5.8918350">
    <ele>29.8</ele>
    <time>2019-09-08T07:45:28Z</time>
   </trkpt>
   <trkpt lat="51.2904740" lon="5.8917290">
    <ele>29.8</ele>
    <time>2019-09-08T07:45:29Z</time>
   </trkpt>
   <trkpt lat="51.2904420" lon="5.8916230">
    <ele>29.9</ele>
    <time>2019-09-08T07:45:30Z</time>
   </trkpt>
   <trkpt lat="51.2904110" lon="5.8915250">
    <ele>29.9</ele>
    <time>2019-09-08T07:45:31Z</time>
   </trkpt>
   <trkpt lat="51.2903770" lon="5.8914210">
    <ele>30.0</ele>
    <time>2019-09-08T07:45:32Z</time>
   </trkpt>
   <trkpt lat="51.2903520" lon="5.8913160">
    <ele>30.1</ele>
    <time>2019-09-08T07:45:33Z</time>
   </trkpt>
   <trkpt lat="51.2903230" lon="5.8912120">
    <ele>30.2</ele>
    <time>2019-09-08T07:45:34Z</time>
   </trkpt>
   <trkpt lat="51.2902900" lon="5.8911130">
    <ele>30.3</ele>
    <time>2019-09-08T07:45:35Z</time>
   </trkpt>
   <trkpt lat="51.2902570" lon="5.8910100">
    <ele>30.4</ele>
    <time>2019-09-08T07:45:36Z</time>
   </trkpt>
   <trkpt lat="51.2902170" lon="5.8909020">
    <ele>30.5</ele>
    <time>2019-09-08T07:45:37Z</time>
   </trkpt>
   <trkpt lat="51.2901850" lon="5.8907860">
    <ele>30.6</ele>
    <time>2019-09-08T07:45:38Z</time>
   </trkpt>
   <trkpt lat="51.2901480" lon="5.8906820">
    <ele>30.7</ele>
    <time>2019-09-08T07:45:39Z</time>
   </trkpt>
   <trkpt lat="51.2901080" lon="5.8905790">
    <ele>30.9</ele>
    <time>2019-09-08T07:45:40Z</time>
   </trkpt>
   <trkpt lat="51.2900770" lon="5.8904670">
    <ele>31.0</ele>
    <time>2019-09-08T07:45:41Z</time>
   </trkpt>
   <trkpt lat="51.2900520" lon="5.8903650">
    <ele>31.2</ele>
    <time>2019-09-08T07:45:42Z</time>
   </trkpt>
   <trkpt lat="51.2900240" lon="5.8902540">
    <ele>31.3</ele>
    <time>2019-09-08T07:45:43Z</time>
   </trkpt>
   <trkpt lat="51.2899930" lon="5.8901520">
    <ele>31.5</ele>
    <time>2019-09-08T07:45:44Z</time>
   </trkpt>
   <trkpt lat="51.2899620" lon="5.8900560">
    <ele>31.7</ele>
    <time>2019-09-08T07:45:45Z</time>
   </trkpt>
   <trkpt lat="51.2899230" lon="5.8899480">
    <ele>31.9</ele>
    <time>2019-09-08T07:45:46Z</time>
   </trkpt>
   <trkpt lat="51.2898920" lon="5.8898420">
    <ele>32.0</ele>
    <time>2019-09-08T07:45:47Z</time>
   </trkpt>
   <trkpt lat="51.2898630" lon="5.8897410">
    <ele>32.2</ele>
    <time>2019-09-08T07:45:48Z</time>
   </trkpt>
   <trkpt lat="51.2898250" lon="5.8896480">
    <ele>32.3</ele>
    <time>2019-09-08T07:45:49Z</time>
   </trkpt>
   <trkpt lat="51.2897900" lon="5.8895480">
    <ele>32.5</ele>
    <time>2019-09-08T07:45:50Z</time>
   </trkpt>
   <trkpt lat="51.2897550" lon="5.8894380">
    <ele>32.7</ele>
    <time>2019-09-08T07:45:51Z</time>
   </trkpt>
   <trkpt lat="51.2897160" lon="5.8893370">
    <ele>32.8</ele>
    <time>2019-09-08T07:45:52Z</time>
   </trkpt>
   <trkpt lat="51.2896810" lon="5.8892270">
    <ele>33.0</ele>
    <time>2019-09-08T07:45:53Z</time>
   </trkpt>
   <trkpt lat="51.2896490" lon="5.8891190">
    <ele>33.1</ele>
    <time>2019-09-08T07:45:54Z</time>
   </trkpt>
   <trkpt lat="51.2896130" lon="5.8890170">
    <ele>33.3</ele>
    <time>2019-09-08T07:45:55Z</time>
   </trkpt>
   <trkpt lat="51.2895780" lon="5.8889150">
    <ele>33.5</ele>
    <time>2019-09-08T07:45:56Z</time>
   </trkpt>
   <trkpt lat="51.2895400" lon="5.8888200">
    <ele>33.6</ele>
    <time>2019-09-08T07:45:57Z</time>
   </trkpt>
   <trkpt lat="51.2895070" lon="5.8887160">
    <ele>33.7</ele>
    <time>2019-09-08T07:45:58Z</time>
   </trkpt>
   <trkpt lat="51.2894730" lon="5.8886170">
    <ele>33.9</ele>
    <time>2019-09-08T07:45:59Z</time>
   </trkpt>
   <trkpt lat="51.2894400" lon="5.8884980">
    <ele>34.0</ele>
    <time>2019-09-08T07:46:00Z</time>
   </trkpt>
   <trkpt lat="51.2894080" lon="5.8883870">
    <ele>34.0</ele>
    <time>2019-09-08T07:46:01Z</time>
   </trkpt>
   <trkpt lat="51.2893640" lon="5.8882750">
    <ele>34.1</ele>
    <time>2019-09-08T07:46:02Z</time>
   </trkpt>
   <trkpt lat="51.2893300" lon="5.8881790">
    <ele>34.2</ele>
    <time>2019-09-08T07:46:03Z</time>
   </trkpt>
   <trkpt lat="51.2892890" lon="5.8880840">
    <ele>34.2</ele>
    <time>2019-09-08T07:46:04Z</time>
   </trkpt>
   <trkpt lat="51.2892660" lon="5.8879740">
    <ele>34.3</ele>
    <time>2019-09-08T07:46:05Z</time>
   </trkpt>
   <trkpt lat="51.2892250" lon="5.8878650">
    <ele>34.3</ele>
    <time>2019-09-08T07:46:06Z</time>
   </trkpt>
   <trkpt lat="51.2891910" lon="5.8877580">
    <ele>34.4</ele>
    <time>2019-09-08T07:46:07Z</time>
   </trkpt>
   <trkpt lat="51.2891640" lon="5.8876580">
    <ele>34.4</ele>
    <time>2019-09-08T07:46:08Z</time>
   </trkpt>
   <trkpt lat="51.2891250" lon="5.8875570">
    <ele>34.5</ele>
    <time>2019-09-08T07:46:09Z</time>
   </trkpt>
   <trkpt lat="51.2890890" lon="5.8874550">
    <ele>34.5</ele>
    <time>2019-09-08T07:46:10Z</time>
   </trkpt>
   <trkpt lat="51.2890510" lon="5.8873680">
    <ele>34.5</ele>
    <time>2019-09-08T07:46:11Z</time>
   </trkpt>
   <trkpt lat="51.2890120" lon="5.8872770">
    <ele>34.6</ele>
    <time>2019-09-08T07:46:12Z</time>
   </trkpt>
   <trkpt lat="51.2889790" lon="5.8871620">
    <ele>34.6</ele>
    <time>2019-09-08T07:46:13Z</time>
   </trkpt>
   <trkpt lat="51.2889480" lon="5.8870520">
    <ele>34.7</ele>
    <time>2019-09-08T07:46:14Z</time>
   </trkpt>
   <trkpt lat="51.2889130" lon="5.8869510">
    <ele>34.7</ele>
    <time>2019-09-08T07:46:15Z</time>
   </trkpt>
   <trkpt lat="51.2888780" lon="5.8868470">
    <ele>34.7</ele>
    <time>2019-09-08T07:46:16Z</time>
   </trkpt>
   <trkpt lat="51.2888560" lon="5.8867310">
    <ele>34.7</ele>
    <time>2019-09-08T07:46:17Z</time>
   </trkpt>
   <trkpt lat="51.2888330" lon="5.8866480">
    <ele>34.7</ele>
    <time>2019-09-08T07:46:18Z</time>
   </trkpt>
   <trkpt lat="51.2888200" lon="5.8865540">
    <ele>34.8</ele>
    <time>2019-09-08T07:46:19Z</time>
   </trkpt>
   <trkpt lat="51.2887880" lon="5.8864500">
    <ele>34.8</ele>
    <time>2019-09-08T07:46:20Z</time>
   </trkpt>
   <trkpt lat="51.2887530" lon="5.8863640">
    <ele>34.8</ele>
    <time>2019-09-08T07:46:21Z</time>
   </trkpt>
   <trkpt lat="51.2887280" lon="5.8862740">
    <ele>34.8</ele>
    <time>2019-09-08T07:46:22Z</time>
   </trkpt>
   <trkpt lat="51.2886840" lon="5.8862070">
    <ele>34.8</ele>
    <time>2019-09-08T07:46:23Z</time>
   </trkpt>
   <trkpt lat="51.2886440" lon="5.8861330">
    <ele>34.8</ele>
    <time>2019-09-08T07:46:24Z</time>
   </trkpt>
   <trkpt lat="51.2886010" lon="5.8859980">
    <ele>34.8</ele>
    <time>2019-09-08T07:46:25Z</time>
   </trkpt>
   <trkpt lat="51.2885700" lon="5.8859070">
    <ele>34.8</ele>
    <time>2019-09-08T07:46:26Z</time>
   </trkpt>
   <trkpt lat="51.2885350" lon="5.8858150">
    <ele>34.7</ele>
    <time>2019-09-08T07:46:27Z</time>
   </trkpt>
   <trkpt lat="51.2885000" lon="5.8857440">
    <ele>34.6</ele>
    <time>2019-09-08T07:46:28Z</time>
   </trkpt>
   <trkpt lat="51.2884820" lon="5.8856460">
    <ele>34.6</ele>
    <time>2019-09-08T07:46:29Z</time>
   </trkpt>
   <trkpt lat="51.2884610" lon="5.8855250">
    <ele>34.4</ele>
    <time>2019-09-08T07:46:30Z</time>
   </trkpt>
   <trkpt lat="51.2884210" lon="5.8854290">
    <ele>34.3</ele>
    <time>2019-09-08T07:46:31Z</time>
   </trkpt>
   <trkpt lat="51.2884000" lon="5.8852900">
    <ele>34.1</ele>
    <time>2019-09-08T07:46:32Z</time>
   </trkpt>
   <trkpt lat="51.2883970" lon="5.8851330">
    <ele>33.9</ele>
    <time>2019-09-08T07:46:33Z</time>
   </trkpt>
   <trkpt lat="51.2883700" lon="5.8850250">
    <ele>33.8</ele>
    <time>2019-09-08T07:46:34Z</time>
   </trkpt>
   <trkpt lat="51.2883340" lon="5.8848810">
    <ele>33.7</ele>
    <time>2019-09-08T07:46:35Z</time>
   </trkpt>
   <trkpt lat="51.2883000" lon="5.8848140">
    <ele>33.6</ele>
    <time>2019-09-08T07:46:36Z</time>
   </trkpt>
   <trkpt lat="51.2882680" lon="5.8847180">
    <ele>33.6</ele>
    <time>2019-09-08T07:46:37Z</time>
   </trkpt>
   <trkpt lat="51.2882710" lon="5.8845890">
    <ele>33.5</ele>
    <time>2019-09-08T07:46:38Z</time>
   </trkpt>
   <trkpt lat="51.2882570" lon="5.8844260">
    <ele>33.5</ele>
    <time>2019-09-08T07:46:39Z</time>
   </trkpt>
   <trkpt lat="51.2882200" lon="5.8843120">
    <ele>33.5</ele>
    <time>2019-09-08T07:46:40Z</time>
   </trkpt>
   <trkpt lat="51.2881800" lon="5.8842070">
    <ele>33.5</ele>
    <time>2019-09-08T07:46:41Z</time>
   </trkpt>
   <trkpt lat="51.2881380" lon="5.8840740">
    <ele>33.5</ele>
    <time>2019-09-08T07:46:42Z</time>
   </trkpt>
   <trkpt lat="51.2881000" lon="5.8839640">
    <ele>33.5</ele>
    <time>2019-09-08T07:46:43Z</time>
   </trkpt>
   <trkpt lat="51.2880660" lon="5.8838420">
    <ele>33.3</ele>
    <time>2019-09-08T07:46:44Z</time>
   </trkpt>
   <trkpt lat="51.2880300" lon="5.8837230">
    <ele>32.6</ele>
    <time>2019-09-08T07:46:45Z</time>
   </trkpt>
   <trkpt lat="51.2879950" lon="5.8836120">
    <ele>32.6</ele>
    <time>2019-09-08T07:46:46Z</time>
   </trkpt>
   <trkpt lat="51.2879590" lon="5.8835000">
    <ele>32.6</ele>
    <time>2019-09-08T07:46:47Z</time>
   </trkpt>
   <trkpt lat="51.2879290" lon="5.8833950">
    <ele>32.6</ele>
    <time>2019-09-08T07:46:48Z</time>
   </trkpt>
   <trkpt lat="51.2878920" lon="5.8832920">
    <ele>32.5</ele>
    <time>2019-09-08T07:46:49Z</time>
   </trkpt>
   <trkpt lat="51.2878640" lon="5.8831750">
    <ele>32.5</ele>
    <time>2019-09-08T07:46:50Z</time>
   </trkpt>
   <trkpt lat="51.2878360" lon="5.8830570">
    <ele>32.5</ele>
    <time>2019-09-08T07:46:51Z</time>
   </trkpt>
   <trkpt lat="51.2878080" lon="5.8829570">
    <ele>32.4</ele>
    <time>2019-09-08T07:46:52Z</time>
   </trkpt>
   <trkpt lat="51.2877790" lon="5.8828400">
    <ele>32.4</ele>
    <time>2019-09-08T07:46:53Z</time>
   </trkpt>
   <trkpt lat="51.2877540" lon="5.8827300">
    <ele>32.3</ele>
    <time>2019-09-08T07:46:54Z</time>
   </trkpt>
   <trkpt lat="51.2877340" lon="5.8826170">
    <ele>32.2</ele>
    <time>2019-09-08T07:46:55Z</time>
   </trkpt>
   <trkpt lat="51.2877150" lon="5.8825050">
    <ele>32.1</ele>
    <time>2019-09-08T07:46:56Z</time>
   </trkpt>
   <trkpt lat="51.2876980" lon="5.8823910">
    <ele>31.9</ele>
    <time>2019-09-08T07:46:57Z</time>
   </trkpt>
   <trkpt lat="51.2876830" lon="5.8822620">
    <ele>31.8</ele>
    <time>2019-09-08T07:46:58Z</time>
   </trkpt>
   <trkpt lat="51.2876830" lon="5.8821200">
    <ele>31.6</ele>
    <time>2019-09-08T07:46:59Z</time>
   </trkpt>
   <trkpt lat="51.2876780" lon="5.8819940">
    <ele>31.5</ele>
    <time>2019-09-08T07:47:00Z</time>
   </trkpt>
   <trkpt lat="51.2876780" lon="5.8818920">
    <ele>31.4</ele>
    <time>2019-09-08T07:47:01Z</time>
   </trkpt>
   <trkpt lat="51.2876690" lon="5.8817770">
    <ele>31.2</ele>
    <time>2019-09-08T07:47:02Z</time>
   </trkpt>
   <trkpt lat="51.2876630" lon="5.8816660">
    <ele>31.1</ele>
    <time>2019-09-08T07:47:03Z</time>
   </trkpt>
   <trkpt lat="51.2876590" lon="5.8815570">
    <ele>31.0</ele>
    <time>2019-09-08T07:47:04Z</time>
   </trkpt>
   <trkpt lat="51.2876630" lon="5.8814480">
    <ele>30.8</ele>
    <time>2019-09-08T07:47:05Z</time>
   </trkpt>
   <trkpt lat="51.2876680" lon="5.8813470">
    <ele>30.7</ele>
    <time>2019-09-08T07:47:06Z</time>
   </trkpt>
   <trkpt lat="51.2876740" lon="5.8812200">
    <ele>30.6</ele>
    <time>2019-09-08T07:47:07Z</time>
   </trkpt>
   <trkpt lat="51.2876830" lon="5.8810820">
    <ele>30.5</ele>
    <time>2019-09-08T07:47:08Z</time>
   </trkpt>
   <trkpt lat="51.2876810" lon="5.8809790">
    <ele>30.4</ele>
    <time>2019-09-08T07:47:09Z</time>
   </trkpt>
   <trkpt lat="51.2876780" lon="5.8808560">
    <ele>30.2</ele>
    <time>2019-09-08T07:47:10Z</time>
   </trkpt>
   <trkpt lat="51.2876720" lon="5.8807280">
    <ele>30.1</ele>
    <time>2019-09-08T07:47:11Z</time>
   </trkpt>
   <trkpt lat="51.2876650" lon="5.8806070">
    <ele>30.0</ele>
    <time>2019-09-08T07:47:12Z</time>
   </trkpt>
   <trkpt lat="51.2876610" lon="5.8804840">
    <ele>29.9</ele>
    <time>2019-09-08T07:47:13Z</time>
   </trkpt>
   <trkpt lat="51.2876580" lon="5.8803690">
    <ele>29.9</ele>
    <time>2019-09-08T07:47:14Z</time>
   </trkpt>
   <trkpt lat="51.2876630" lon="5.8802490">
    <ele>29.8</ele>
    <time>2019-09-08T07:47:15Z</time>
   </trkpt>
   <trkpt lat="51.2876650" lon="5.8801230">
    <ele>29.7</ele>
    <time>2019-09-08T07:47:16Z</time>
   </trkpt>
   <trkpt lat="51.2876630" lon="5.8799980">
    <ele>29.6</ele>
    <time>2019-09-08T07:47:17Z</time>
   </trkpt>
   <trkpt lat="51.2876560" lon="5.8798750">
    <ele>29.5</ele>
    <time>2019-09-08T07:47:18Z</time>
   </trkpt>
   <trkpt lat="51.2876580" lon="5.8797620">
    <ele>29.5</ele>
    <time>2019-09-08T07:47:19Z</time>
   </trkpt>
   <trkpt lat="51.2876570" lon="5.8796490">
    <ele>29.4</ele>
    <time>2019-09-08T07:47:20Z</time>
   </trkpt>
   <trkpt lat="51.2876640" lon="5.8795400">
    <ele>29.4</ele>
    <time>2019-09-08T07:47:21Z</time>
   </trkpt>
   <trkpt lat="51.2876680" lon="5.8794130">
    <ele>29.3</ele>
    <time>2019-09-08T07:47:22Z</time>
   </trkpt>
   <trkpt lat="51.2876710" lon="5.8792840">
    <ele>29.2</ele>
    <time>2019-09-08T07:47:23Z</time>
   </trkpt>
   <trkpt lat="51.2876660" lon="5.8791680">
    <ele>29.1</ele>
    <time>2019-09-08T07:47:24Z</time>
   </trkpt>
   <trkpt lat="51.2876690" lon="5.8790530">
    <ele>29.1</ele>
    <time>2019-09-08T07:47:25Z</time>
   </trkpt>
   <trkpt lat="51.2876690" lon="5.8789290">
    <ele>29.0</ele>
    <time>2019-09-08T07:47:26Z</time>
   </trkpt>
   <trkpt lat="51.2876690" lon="5.8788070">
    <ele>29.0</ele>
    <time>2019-09-08T07:47:27Z</time>
   </trkpt>
   <trkpt lat="51.2876690" lon="5.8786890">
    <ele>29.0</ele>
    <time>2019-09-08T07:47:28Z</time>
   </trkpt>
   <trkpt lat="51.2876690" lon="5.8785750">
    <ele>28.9</ele>
    <time>2019-09-08T07:47:29Z</time>
   </trkpt>
   <trkpt lat="51.2876700" lon="5.8784630">
    <ele>28.9</ele>
    <time>2019-09-08T07:47:30Z</time>
   </trkpt>
   <trkpt lat="51.2876710" lon="5.8783310">
    <ele>28.9</ele>
    <time>2019-09-08T07:47:31Z</time>
   </trkpt>
   <trkpt lat="51.2876720" lon="5.8782140">
    <ele>29.0</ele>
    <time>2019-09-08T07:47:32Z</time>
   </trkpt>
   <trkpt lat="51.2876780" lon="5.8780970">
    <ele>29.1</ele>
    <time>2019-09-08T07:47:33Z</time>
   </trkpt>
   <trkpt lat="51.2876750" lon="5.8779810">
    <ele>29.2</ele>
    <time>2019-09-08T07:47:34Z</time>
   </trkpt>
   <trkpt lat="51.2876780" lon="5.8778710">
    <ele>29.3</ele>
    <time>2019-09-08T07:47:35Z</time>
   </trkpt>
   <trkpt lat="51.2876750" lon="5.8777620">
    <ele>29.3</ele>
    <time>2019-09-08T07:47:36Z</time>
   </trkpt>
   <trkpt lat="51.2876780" lon="5.8776500">
    <ele>29.4</ele>
    <time>2019-09-08T07:47:37Z</time>
   </trkpt>
   <trkpt lat="51.2876860" lon="5.8775430">
    <ele>29.5</ele>
    <time>2019-09-08T07:47:38Z</time>
   </trkpt>
   <trkpt lat="51.2876810" lon="5.8774330">
    <ele>29.6</ele>
    <time>2019-09-08T07:47:39Z</time>
   </trkpt>
   <trkpt lat="51.2876780" lon="5.8773160">
    <ele>29.6</ele>
    <time>2019-09-08T07:47:40Z</time>
   </trkpt>
   <trkpt lat="51.2876760" lon="5.8772080">
    <ele>29.7</ele>
    <time>2019-09-08T07:47:41Z</time>
   </trkpt>
   <trkpt lat="51.2876750" lon="5.8770930">
    <ele>29.7</ele>
    <time>2019-09-08T07:47:42Z</time>
   </trkpt>
   <trkpt lat="51.2876730" lon="5.8769760">
    <ele>29.7</ele>
    <time>2019-09-08T07:47:43Z</time>
   </trkpt>
   <trkpt lat="51.2876710" lon="5.8768590">
    <ele>29.7</ele>
    <time>2019-09-08T07:47:44Z</time>
   </trkpt>
   <trkpt lat="51.2876700" lon="5.8767360">
    <ele>29.7</ele>
    <time>2019-09-08T07:47:45Z</time>
   </trkpt>
   <trkpt lat="51.2876700" lon="5.8766200">
    <ele>29.7</ele>
    <time>2019-09-08T07:47:46Z</time>
   </trkpt>
   <trkpt lat="51.2876700" lon="5.8765090">
    <ele>29.7</ele>
    <time>2019-09-08T07:47:47Z</time>
   </trkpt>
   <trkpt lat="51.2876680" lon="5.8764290">
    <ele>29.7</ele>
    <time>2019-09-08T07:47:48Z</time>
   </trkpt>
   <trkpt lat="51.2876660" lon="5.8763050">
    <ele>29.8</ele>
    <time>2019-09-08T07:47:49Z</time>
   </trkpt>
   <trkpt lat="51.2876730" lon="5.8761770">
    <ele>29.9</ele>
    <time>2019-09-08T07:47:50Z</time>
   </trkpt>
   <trkpt lat="51.2876690" lon="5.8760680">
    <ele>30.0</ele>
    <time>2019-09-08T07:47:51Z</time>
   </trkpt>
   <trkpt lat="51.2876610" lon="5.8759780">
    <ele>30.1</ele>
    <time>2019-09-08T07:47:52Z</time>
   </trkpt>
   <trkpt lat="51.2876580" lon="5.8759100">
    <ele>30.1</ele>
    <time>2019-09-08T07:47:53Z</time>
   </trkpt>
   <trkpt lat="51.2876540" lon="5.8757720">
    <ele>30.3</ele>
    <time>2019-09-08T07:47:54Z</time>
   </trkpt>
   <trkpt lat="51.2876800" lon="5.8756460">
    <ele>30.5</ele>
    <time>2019-09-08T07:47:55Z</time>
   </trkpt>
   <trkpt lat="51.2876660" lon="5.8755050">
    <ele>30.7</ele>
    <time>2019-09-08T07:47:56Z</time>
   </trkpt>
   <trkpt lat="51.2876890" lon="5.8753730">
    <ele>30.9</ele>
    <time>2019-09-08T07:47:57Z</time>
   </trkpt>
   <trkpt lat="51.2876990" lon="5.8752670">
    <ele>31.1</ele>
    <time>2019-09-08T07:47:58Z</time>
   </trkpt>
   <trkpt lat="51.2877030" lon="5.8751820">
    <ele>31.3</ele>
    <time>2019-09-08T07:47:59Z</time>
   </trkpt>
   <trkpt lat="51.2876940" lon="5.8750830">
    <ele>31.5</ele>
    <time>2019-09-08T07:48:00Z</time>
   </trkpt>
   <trkpt lat="51.2876850" lon="5.8749730">
    <ele>31.8</ele>
    <time>2019-09-08T07:48:01Z</time>
   </trkpt>
   <trkpt lat="51.2876750" lon="5.8748370">
    <ele>32.1</ele>
    <time>2019-09-08T07:48:02Z</time>
   </trkpt>
   <trkpt lat="51.2876880" lon="5.8746990">
    <ele>32.3</ele>
    <time>2019-09-08T07:48:03Z</time>
   </trkpt>
   <trkpt lat="51.2876970" lon="5.8745830">
    <ele>32.5</ele>
    <time>2019-09-08T07:48:04Z</time>
   </trkpt>
   <trkpt lat="51.2876940" lon="5.8744880">
    <ele>32.6</ele>
    <time>2019-09-08T07:48:05Z</time>
   </trkpt>
   <trkpt lat="51.2876780" lon="5.8743590">
    <ele>32.7</ele>
    <time>2019-09-08T07:48:06Z</time>
   </trkpt>
   <trkpt lat="51.2876760" lon="5.8742240">
    <ele>32.8</ele>
    <time>2019-09-08T07:48:07Z</time>
   </trkpt>
   <trkpt lat="51.2876730" lon="5.8741130">
    <ele>32.8</ele>
    <time>2019-09-08T07:48:08Z</time>
   </trkpt>
   <trkpt lat="51.2876710" lon="5.8739860">
    <ele>32.8</ele>
    <time>2019-09-08T07:48:09Z</time>
   </trkpt>
   <trkpt lat="51.2876700" lon="5.8738690">
    <ele>32.8</ele>
    <time>2019-09-08T07:48:10Z</time>
   </trkpt>
   <trkpt lat="51.2876740" lon="5.8737510">
    <ele>32.8</ele>
    <time>2019-09-08T07:48:11Z</time>
   </trkpt>
   <trkpt lat="51.2876730" lon="5.8736320">
    <ele>32.8</ele>
    <time>2019-09-08T07:48:12Z</time>
   </trkpt>
   <trkpt lat="51.2876760" lon="5.8735060">
    <ele>32.8</ele>
    <time>2019-09-08T07:48:13Z</time>
   </trkpt>
   <trkpt lat="51.2876760" lon="5.8733860">
    <ele>32.9</ele>
    <time>2019-09-08T07:48:14Z</time>
   </trkpt>
   <trkpt lat="51.2876890" lon="5.8732860">
    <ele>32.9</ele>
    <time>2019-09-08T07:48:15Z</time>
   </trkpt>
   <trkpt lat="51.2876960" lon="5.8731690">
    <ele>33.0</ele>
    <time>2019-09-08T07:48:16Z</time>
   </trkpt>
   <trkpt lat="51.2877080" lon="5.8730460">
    <ele>33.1</ele>
    <time>2019-09-08T07:48:17Z</time>
   </trkpt>
   <trkpt lat="51.2877180" lon="5.8729190">
    <ele>33.2</ele>
    <time>2019-09-08T07:48:18Z</time>
   </trkpt>
   <trkpt lat="51.2877130" lon="5.8728050">
    <ele>33.2</ele>
    <time>2019-09-08T07:48:19Z</time>
   </trkpt>
   <trkpt lat="51.2877120" lon="5.8726930">
    <ele>33.3</ele>
    <time>2019-09-08T07:48:20Z</time>
   </trkpt>
   <trkpt lat="51.2877120" lon="5.8725810">
    <ele>33.3</ele>
    <time>2019-09-08T07:48:21Z</time>
   </trkpt>
   <trkpt lat="51.2877190" lon="5.8724600">
    <ele>33.4</ele>
    <time>2019-09-08T07:48:22Z</time>
   </trkpt>
   <trkpt lat="51.2877210" lon="5.8723390">
    <ele>33.4</ele>
    <time>2019-09-08T07:48:23Z</time>
   </trkpt>
   <trkpt lat="51.2877370" lon="5.8721930">
    <ele>33.5</ele>
    <time>2019-09-08T07:48:24Z</time>
   </trkpt>
   <trkpt lat="51.2877350" lon="5.8720800">
    <ele>33.5</ele>
    <time>2019-09-08T07:48:25Z</time>
   </trkpt>
   <trkpt lat="51.2877390" lon="5.8719600">
    <ele>33.5</ele>
    <time>2019-09-08T07:48:26Z</time>
   </trkpt>
   <trkpt lat="51.2877430" lon="5.8718410">
    <ele>33.6</ele>
    <time>2019-09-08T07:48:27Z</time>
   </trkpt>
   <trkpt lat="51.2877460" lon="5.8717310">
    <ele>33.7</ele>
    <time>2019-09-08T07:48:28Z</time>
   </trkpt>
   <trkpt lat="51.2877500" lon="5.8716140">
    <ele>33.7</ele>
    <time>2019-09-08T07:48:29Z</time>
   </trkpt>
   <trkpt lat="51.2877560" lon="5.8714990">
    <ele>33.8</ele>
    <time>2019-09-08T07:48:30Z</time>
   </trkpt>
   <trkpt lat="51.2877580" lon="5.8713890">
    <ele>33.9</ele>
    <time>2019-09-08T07:48:31Z</time>
   </trkpt>
   <trkpt lat="51.2877700" lon="5.8712700">
    <ele>34.0</ele>
    <time>2019-09-08T07:48:32Z</time>
   </trkpt>
   <trkpt lat="51.2877840" lon="5.8711320">
    <ele>34.1</ele>
    <time>2019-09-08T07:48:33Z</time>
   </trkpt>
   <trkpt lat="51.2878000" lon="5.8710150">
    <ele>34.2</ele>
    <time>2019-09-08T07:48:34Z</time>
   </trkpt>
   <trkpt lat="51.2878170" lon="5.8708860">
    <ele>34.3</ele>
    <time>2019-09-08T07:48:35Z</time>
   </trkpt>
   <trkpt lat="51.2878330" lon="5.8707740">
    <ele>34.3</ele>
    <time>2019-09-08T07:48:36Z</time>
   </trkpt>
   <trkpt lat="51.2878510" lon="5.8706710">
    <ele>34.3</ele>
    <time>2019-09-08T07:48:37Z</time>
   </trkpt>
   <trkpt lat="51.2878700" lon="5.8705680">
    <ele>34.3</ele>
    <time>2019-09-08T07:48:38Z</time>
   </trkpt>
   <trkpt lat="51.2878840" lon="5.8704570">
    <ele>34.3</ele>
    <time>2019-09-08T07:48:39Z</time>
   </trkpt>
   <trkpt lat="51.2878990" lon="5.8703460">
    <ele>34.3</ele>
    <time>2019-09-08T07:48:40Z</time>
   </trkpt>
   <trkpt lat="51.2879200" lon="5.8702470">
    <ele>34.3</ele>
    <time>2019-09-08T07:48:41Z</time>
   </trkpt>
   <trkpt lat="51.2879350" lon="5.8701470">
    <ele>34.2</ele>
    <time>2019-09-08T07:48:42Z</time>
   </trkpt>
   <trkpt lat="51.2879530" lon="5.8700540">
    <ele>34.2</ele>
    <time>2019-09-08T07:48:43Z</time>
   </trkpt>
   <trkpt lat="51.2879670" lon="5.8699560">
    <ele>34.2</ele>
    <time>2019-09-08T07:48:44Z</time>
   </trkpt>
   <trkpt lat="51.2879820" lon="5.8698490">
    <ele>34.1</ele>
    <time>2019-09-08T07:48:45Z</time>
   </trkpt>
   <trkpt lat="51.2879940" lon="5.8697350">
    <ele>34.1</ele>
    <time>2019-09-08T07:48:46Z</time>
   </trkpt>
   <trkpt lat="51.2880110" lon="5.8696240">
    <ele>34.1</ele>
    <time>2019-09-08T07:48:47Z</time>
   </trkpt>
   <trkpt lat="51.2880280" lon="5.8695150">
    <ele>34.1</ele>
    <time>2019-09-08T07:48:48Z</time>
   </trkpt>
   <trkpt lat="51.2880390" lon="5.8693980">
    <ele>34.1</ele>
    <time>2019-09-08T07:48:49Z</time>
   </trkpt>
   <trkpt lat="51.2880530" lon="5.8692790">
    <ele>34.0</ele>
    <time>2019-09-08T07:48:50Z</time>
   </trkpt>
   <trkpt lat="51.2880750" lon="5.8691710">
    <ele>34.0</ele>
    <time>2019-09-08T07:48:51Z</time>
   </trkpt>
   <trkpt lat="51.2880870" lon="5.8690600">
    <ele>34.0</ele>
    <time>2019-09-08T07:48:52Z</time>
   </trkpt>
   <trkpt lat="51.2881010" lon="5.8689490">
    <ele>33.9</ele>
    <time>2019-09-08T07:48:53Z</time>
   </trkpt>
   <trkpt lat="51.2881230" lon="5.8688400">
    <ele>33.8</ele>
    <time>2019-09-08T07:48:54Z</time>
   </trkpt>
   <trkpt lat="51.2881420" lon="5.8687100">
    <ele>33.8</ele>
    <time>2019-09-08T07:48:55Z</time>
   </trkpt>
   <trkpt lat="51.2881580" lon="5.8685990">
    <ele>33.7</ele>
    <time>2019-09-08T07:48:56Z</time>
   </trkpt>
   <trkpt lat="51.2881760" lon="5.8684850">
    <ele>33.6</ele>
    <time>2019-09-08T07:48:57Z</time>
   </trkpt>
   <trkpt lat="51.2882110" lon="5.8683430">
    <ele>33.6</ele>
    <time>2019-09-08T07:48:58Z</time>
   </trkpt>
   <trkpt lat="51.2882310" lon="5.8682240">
    <ele>33.6</ele>
    <time>2019-09-08T07:48:59Z</time>
   </trkpt>
   <trkpt lat="51.2882410" lon="5.8681100">
    <ele>33.6</ele>
    <time>2019-09-08T07:49:00Z</time>
   </trkpt>
   <trkpt lat="51.2882640" lon="5.8679990">
    <ele>33.5</ele>
    <time>2019-09-08T07:49:01Z</time>
   </trkpt>
   <trkpt lat="51.2882850" lon="5.8678810">
    <ele>33.5</ele>
    <time>2019-09-08T07:49:02Z</time>
   </trkpt>
   <trkpt lat="51.2883090" lon="5.8677670">
    <ele>33.5</ele>
    <time>2019-09-08T07:49:03Z</time>
   </trkpt>
   <trkpt lat="51.2883300" lon="5.8676690">
    <ele>33.5</ele>
    <time>2019-09-08T07:49:04Z</time>
   </trkpt>
   <trkpt lat="51.2883450" lon="5.8675510">
    <ele>33.4</ele>
    <time>2019-09-08T07:49:05Z</time>
   </trkpt>
   <trkpt lat="51.2883660" lon="5.8674450">
    <ele>33.4</ele>
    <time>2019-09-08T07:49:06Z</time>
   </trkpt>
   <trkpt lat="51.2883820" lon="5.8673350">
    <ele>33.4</ele>
    <time>2019-09-08T07:49:07Z</time>
   </trkpt>
   <trkpt lat="51.2884130" lon="5.8672320">
    <ele>33.4</ele>
    <time>2019-09-08T07:49:08Z</time>
   </trkpt>
   <trkpt lat="51.2884330" lon="5.8671180">
    <ele>33.4</ele>
    <time>2019-09-08T07:49:09Z</time>
   </trkpt>
   <trkpt lat="51.2884540" lon="5.8670070">
    <ele>33.4</ele>
    <time>2019-09-08T07:49:10Z</time>
   </trkpt>
   <trkpt lat="51.2884640" lon="5.8668860">
    <ele>33.4</ele>
    <time>2019-09-08T07:49:11Z</time>
   </trkpt>
   <trkpt lat="51.2884780" lon="5.8667820">
    <ele>33.3</ele>
    <time>2019-09-08T07:49:12Z</time>
   </trkpt>
   <trkpt lat="51.2884940" lon="5.8666690">
    <ele>33.3</ele>
    <time>2019-09-08T07:49:13Z</time>
   </trkpt>
   <trkpt lat="51.2885110" lon="5.8665690">
    <ele>33.3</ele>
    <time>2019-09-08T07:49:14Z</time>
   </trkpt>
   <trkpt lat="51.2885330" lon="5.8664480">
    <ele>33.3</ele>
    <time>2019-09-08T07:49:15Z</time>
   </trkpt>
   <trkpt lat="51.2885500" lon="5.8663420">
    <ele>33.2</ele>
    <time>2019-09-08T07:49:16Z</time>
   </trkpt>
   <trkpt lat="51.2885730" lon="5.8662340">
    <ele>33.2</ele>
    <time>2019-09-08T07:49:17Z</time>
   </trkpt>
   <trkpt lat="51.2885930" lon="5.8661240">
    <ele>33.2</ele>
    <time>2019-09-08T07:49:18Z</time>
   </trkpt>
   <trkpt lat="51.2886170" lon="5.8660090">
    <ele>33.1</ele>
    <time>2019-09-08T07:49:19Z</time>
   </trkpt>
   <trkpt lat="51.2886420" lon="5.8659000">
    <ele>33.1</ele>
    <time>2019-09-08T07:49:20Z</time>
   </trkpt>
   <trkpt lat="51.2886720" lon="5.8657800">
    <ele>33.1</ele>
    <time>2019-09-08T07:49:21Z</time>
   </trkpt>
   <trkpt lat="51.2886970" lon="5.8656690">
    <ele>33.0</ele>
    <time>2019-09-08T07:49:22Z</time>
   </trkpt>
   <trkpt lat="51.2887180" lon="5.8655530">
    <ele>33.0</ele>
    <time>2019-09-08T07:49:23Z</time>
   </trkpt>
   <trkpt lat="51.2887330" lon="5.8654560">
    <ele>33.0</ele>
    <time>2019-09-08T07:49:24Z</time>
   </trkpt>
   <trkpt lat="51.2887530" lon="5.8653590">
    <ele>32.9</ele>
    <time>2019-09-08T07:49:25Z</time>
   </trkpt>
   <trkpt lat="51.2887840" lon="5.8652580">
    <ele>32.9</ele>
    <time>2019-09-08T07:49:26Z</time>
   </trkpt>
   <trkpt lat="51.2888030" lon="5.8651500">
    <ele>32.9</ele>
    <time>2019-09-08T07:49:27Z</time>
   </trkpt>
   <trkpt lat="51.2888240" lon="5.8650400">
    <ele>32.8</ele>
    <time>2019-09-08T07:49:28Z</time>
   </trkpt>
   <trkpt lat="51.2888510" lon="5.8649290">
    <ele>32.8</ele>
    <time>2019-09-08T07:49:29Z</time>
   </trkpt>
   <trkpt lat="51.2888730" lon="5.8648190">
    <ele>32.8</ele>
    <time>2019-09-08T07:49:30Z</time>
   </trkpt>
   <trkpt lat="51.2888880" lon="5.8647090">
    <ele>32.8</ele>
    <time>2019-09-08T07:49:31Z</time>
   </trkpt>
   <trkpt lat="51.2889120" lon="5.8646050">
    <ele>32.7</ele>
    <time>2019-09-08T07:49:32Z</time>
   </trkpt>
   <trkpt lat="51.2889300" lon="5.8645020">
    <ele>32.7</ele>
    <time>2019-09-08T07:49:33Z</time>
   </trkpt>
   <trkpt lat="51.2889530" lon="5.8643900">
    <ele>32.7</ele>
    <time>2019-09-08T07:49:34Z</time>
   </trkpt>
   <trkpt lat="51.2889760" lon="5.8642890">
    <ele>32.6</ele>
    <time>2019-09-08T07:49:35Z</time>
   </trkpt>
   <trkpt lat="51.2889990" lon="5.8641830">
    <ele>32.6</ele>
    <time>2019-09-08T07:49:36Z</time>
   </trkpt>
   <trkpt lat="51.2890140" lon="5.8640710">
    <ele>32.6</ele>
    <time>2019-09-08T07:49:37Z</time>
   </trkpt>
   <trkpt lat="51.2890330" lon="5.8639660">
    <ele>32.5</ele>
    <time>2019-09-08T07:49:38Z</time>
   </trkpt>
   <trkpt lat="51.2890500" lon="5.8638640">
    <ele>32.5</ele>
    <time>2019-09-08T07:49:39Z</time>
   </trkpt>
   <trkpt lat="51.2890660" lon="5.8637660">
    <ele>32.5</ele>
    <time>2019-09-08T07:49:40Z</time>
   </trkpt>
   <trkpt lat="51.2890870" lon="5.8636590">
    <ele>32.5</ele>
    <time>2019-09-08T07:49:41Z</time>
   </trkpt>
   <trkpt lat="51.2891030" lon="5.8635550">
    <ele>32.4</ele>
    <time>2019-09-08T07:49:42Z</time>
   </trkpt>
   <trkpt lat="51.2891260" lon="5.8634530">
    <ele>32.4</ele>
    <time>2019-09-08T07:49:43Z</time>
   </trkpt>
   <trkpt lat="51.2891460" lon="5.8633610">
    <ele>32.3</ele>
    <time>2019-09-08T07:49:44Z</time>
   </trkpt>
   <trkpt lat="51.2891680" lon="5.8632610">
    <ele>32.3</ele>
    <time>2019-09-08T07:49:45Z</time>
   </trkpt>
   <trkpt lat="51.2891960" lon="5.8631370">
    <ele>32.2</ele>
    <time>2019-09-08T07:49:46Z</time>
   </trkpt>
   <trkpt lat="51.2892120" lon="5.8630410">
    <ele>32.2</ele>
    <time>2019-09-08T07:49:47Z</time>
   </trkpt>
   <trkpt lat="51.2892280" lon="5.8629320">
    <ele>32.2</ele>
    <time>2019-09-08T07:49:48Z</time>
   </trkpt>
   <trkpt lat="51.2892470" lon="5.8628370">
    <ele>32.1</ele>
    <time>2019-09-08T07:49:49Z</time>
   </trkpt>
   <trkpt lat="51.2892680" lon="5.8627430">
    <ele>32.1</ele>
    <time>2019-09-08T07:49:50Z</time>
   </trkpt>
   <trkpt lat="51.2892900" lon="5.8626400">
    <ele>32.0</ele>
    <time>2019-09-08T07:49:51Z</time>
   </trkpt>
   <trkpt lat="51.2893130" lon="5.8625460">
    <ele>32.0</ele>
    <time>2019-09-08T07:49:52Z</time>
   </trkpt>
   <trkpt lat="51.2893310" lon="5.8624400">
    <ele>31.9</ele>
    <time>2019-09-08T07:49:53Z</time>
   </trkpt>
   <trkpt lat="51.2893520" lon="5.8623320">
    <ele>31.9</ele>
    <time>2019-09-08T07:49:54Z</time>
   </trkpt>
   <trkpt lat="51.2893720" lon="5.8622250">
    <ele>31.8</ele>
    <time>2019-09-08T07:49:55Z</time>
   </trkpt>
   <trkpt lat="51.2893930" lon="5.8621240">
    <ele>31.8</ele>
    <time>2019-09-08T07:49:56Z</time>
   </trkpt>
   <trkpt lat="51.2894110" lon="5.8620160">
    <ele>31.8</ele>
    <time>2019-09-08T07:49:57Z</time>
   </trkpt>
   <trkpt lat="51.2894300" lon="5.8619080">
    <ele>31.7</ele>
    <time>2019-09-08T07:49:58Z</time>
   </trkpt>
   <trkpt lat="51.2894510" lon="5.8617920">
    <ele>31.7</ele>
    <time>2019-09-08T07:49:59Z</time>
   </trkpt>
   <trkpt lat="51.2894730" lon="5.8616840">
    <ele>31.6</ele>
    <time>2019-09-08T07:50:00Z</time>
   </trkpt>
   <trkpt lat="51.2894930" lon="5.8615760">
    <ele>31.5</ele>
    <time>2019-09-08T07:50:01Z</time>
   </trkpt>
   <trkpt lat="51.2895150" lon="5.8614590">
    <ele>31.5</ele>
    <time>2019-09-08T07:50:02Z</time>
   </trkpt>
   <trkpt lat="51.2895300" lon="5.8613540">
    <ele>31.4</ele>
    <time>2019-09-08T07:50:03Z</time>
   </trkpt>
   <trkpt lat="51.2895550" lon="5.8612320">
    <ele>31.4</ele>
    <time>2019-09-08T07:50:04Z</time>
   </trkpt>
   <trkpt lat="51.2895740" lon="5.8611250">
    <ele>31.3</ele>
    <time>2019-09-08T07:50:05Z</time>
   </trkpt>
   <trkpt lat="51.2895980" lon="5.8610270">
    <ele>31.2</ele>
    <time>2019-09-08T07:50:06Z</time>
   </trkpt>
   <trkpt lat="51.2896220" lon="5.8609240">
    <ele>31.2</ele>
    <time>2019-09-08T07:50:07Z</time>
   </trkpt>
   <trkpt lat="51.2896400" lon="5.8608130">
    <ele>31.1</ele>
    <time>2019-09-08T07:50:08Z</time>
   </trkpt>
   <trkpt lat="51.2896660" lon="5.8606940">
    <ele>31.0</ele>
    <time>2019-09-08T07:50:09Z</time>
   </trkpt>
   <trkpt lat="51.2896840" lon="5.8605970">
    <ele>31.0</ele>
    <time>2019-09-08T07:50:10Z</time>
   </trkpt>
   <trkpt lat="51.2896990" lon="5.8604850">
    <ele>30.9</ele>
    <time>2019-09-08T07:50:11Z</time>
   </trkpt>
   <trkpt lat="51.2897230" lon="5.8603720">
    <ele>30.8</ele>
    <time>2019-09-08T07:50:12Z</time>
   </trkpt>
   <trkpt lat="51.2897440" lon="5.8602710">
    <ele>30.8</ele>
    <time>2019-09-08T07:50:13Z</time>
   </trkpt>
   <trkpt lat="51.2897560" lon="5.8601530">
    <ele>30.7</ele>
    <time>2019-09-08T07:50:14Z</time>
   </trkpt>
   <trkpt lat="51.2897730" lon="5.8600520">
    <ele>30.7</ele>
    <time>2019-09-08T07:50:15Z</time>
   </trkpt>
   <trkpt lat="51.2897880" lon="5.8599500">
    <ele>30.6</ele>
    <time>2019-09-08T07:50:16Z</time>
   </trkpt>
   <trkpt lat="51.2897970" lon="5.8598350">
    <ele>30.5</ele>
    <time>2019-09-08T07:50:17Z</time>
   </trkpt>
   <trkpt lat="51.2898170" lon="5.8597130">
    <ele>30.5</ele>
    <time>2019-09-08T07:50:18Z</time>
   </trkpt>
   <trkpt lat="51.2898410" lon="5.8596110">
    <ele>30.4</ele>
    <time>2019-09-08T07:50:19Z</time>
   </trkpt>
   <trkpt lat="51.2898620" lon="5.8595300">
    <ele>30.4</ele>
    <time>2019-09-08T07:50:20Z</time>
   </trkpt>
   <trkpt lat="51.2898730" lon="5.8594320">
    <ele>30.3</ele>
    <time>2019-09-08T07:50:21Z</time>
   </trkpt>
   <trkpt lat="51.2898900" lon="5.8593210">
    <ele>30.3</ele>
    <time>2019-09-08T07:50:22Z</time>
   </trkpt>
   <trkpt lat="51.2899130" lon="5.8592240">
    <ele>30.2</ele>
    <time>2019-09-08T07:50:23Z</time>
   </trkpt>
   <trkpt lat="51.2899390" lon="5.8591290">
    <ele>30.2</ele>
    <time>2019-09-08T07:50:24Z</time>
   </trkpt>
   <trkpt lat="51.2899660" lon="5.8590260">
    <ele>30.2</ele>
    <time>2019-09-08T07:50:25Z</time>
   </trkpt>
   <trkpt lat="51.2899870" lon="5.8589320">
    <ele>30.1</ele>
    <time>2019-09-08T07:50:26Z</time>
   </trkpt>
   <trkpt lat="51.2900050" lon="5.8588400">
    <ele>30.1</ele>
    <time>2019-09-08T07:50:27Z</time>
   </trkpt>
   <trkpt lat="51.2900250" lon="5.8587660">
    <ele>30.1</ele>
    <time>2019-09-08T07:50:28Z</time>
   </trkpt>
   <trkpt lat="51.2900340" lon="5.8586940">
    <ele>30.0</ele>
    <time>2019-09-08T07:50:29Z</time>
   </trkpt>
   <trkpt lat="51.2900210" lon="5.8586060">
    <ele>30.0</ele>
    <time>2019-09-08T07:50:30Z</time>
   </trkpt>
   <trkpt lat="51.2899890" lon="5.8585380">
    <ele>30.0</ele>
    <time>2019-09-08T07:50:31Z</time>
   </trkpt>
   <trkpt lat="51.2899440" lon="5.8584880">
    <ele>30.0</ele>
    <time>2019-09-08T07:50:32Z</time>
   </trkpt>
   <trkpt lat="51.2898940" lon="5.8584720">
    <ele>30.0</ele>
    <time>2019-09-08T07:50:33Z</time>
   </trkpt>
   <trkpt lat="51.2898320" lon="5.8584610">
    <ele>30.1</ele>
    <time>2019-09-08T07:50:34Z</time>
   </trkpt>
   <trkpt lat="51.2897660" lon="5.8584580">
    <ele>30.1</ele>
    <time>2019-09-08T07:50:35Z</time>
   </trkpt>
   <trkpt lat="51.2896970" lon="5.8584270">
    <ele>30.1</ele>
    <time>2019-09-08T07:50:36Z</time>
   </trkpt>
   <trkpt lat="51.2896280" lon="5.8584040">
    <ele>30.1</ele>
    <time>2019-09-08T07:50:37Z</time>
   </trkpt>
   <trkpt lat="51.2895530" lon="5.8583830">
    <ele>30.1</ele>
    <time>2019-09-08T07:50:38Z</time>
   </trkpt>
   <trkpt lat="51.2894800" lon="5.8583590">
    <ele>30.2</ele>
    <time>2019-09-08T07:50:39Z</time>
   </trkpt>
   <trkpt lat="51.2894100" lon="5.8583450">
    <ele>30.2</ele>
    <time>2019-09-08T07:50:40Z</time>
   </trkpt>
   <trkpt lat="51.2893360" lon="5.8583170">
    <ele>30.2</ele>
    <time>2019-09-08T07:50:41Z</time>
   </trkpt>
   <trkpt lat="51.2892580" lon="5.8582910">
    <ele>30.2</ele>
    <time>2019-09-08T07:50:42Z</time>
   </trkpt>
   <trkpt lat="51.2892040" lon="5.8582850">
    <ele>30.2</ele>
    <time>2019-09-08T07:50:43Z</time>
   </trkpt>
   <trkpt lat="51.2891340" lon="5.8582680">
    <ele>30.2</ele>
    <time>2019-09-08T07:50:44Z</time>
   </trkpt>
   <trkpt lat="51.2890590" lon="5.8582400">
    <ele>30.2</ele>
    <time>2019-09-08T07:50:45Z</time>
   </trkpt>
   <trkpt lat="51.2889900" lon="5.8582170">
    <ele>30.3</ele>
    <time>2019-09-08T07:50:46Z</time>
   </trkpt>
   <trkpt lat="51.2889180" lon="5.8581920">
    <ele>30.3</ele>
    <time>2019-09-08T07:50:47Z</time>
   </trkpt>
   <trkpt lat="51.2888620" lon="5.8581670">
    <ele>30.3</ele>
    <time>2019-09-08T07:50:48Z</time>
   </trkpt>
   <trkpt lat="51.2887850" lon="5.8581530">
    <ele>30.3</ele>
    <time>2019-09-08T07:50:49Z</time>
   </trkpt>
   <trkpt lat="51.2887220" lon="5.8581410">
    <ele>30.3</ele>
    <time>2019-09-08T07:50:50Z</time>
   </trkpt>
   <trkpt lat="51.2886330" lon="5.8581280">
    <ele>30.4</ele>
    <time>2019-09-08T07:50:51Z</time>
   </trkpt>
   <trkpt lat="51.2885600" lon="5.8580880">
    <ele>30.4</ele>
    <time>2019-09-08T07:50:52Z</time>
   </trkpt>
   <trkpt lat="51.2884880" lon="5.8580730">
    <ele>30.4</ele>
    <time>2019-09-08T07:50:53Z</time>
   </trkpt>
   <trkpt lat="51.2884110" lon="5.8580400">
    <ele>30.4</ele>
    <time>2019-09-08T07:50:54Z</time>
   </trkpt>
   <trkpt lat="51.2883420" lon="5.8580290">
    <ele>30.4</ele>
    <time>2019-09-08T07:50:55Z</time>
   </trkpt>
   <trkpt lat="51.2882710" lon="5.8580130">
    <ele>30.4</ele>
    <time>2019-09-08T07:50:56Z</time>
   </trkpt>
   <trkpt lat="51.2882030" lon="5.8580010">
    <ele>30.4</ele>
    <time>2019-09-08T07:50:57Z</time>
   </trkpt>
   <trkpt lat="51.2881280" lon="5.8579680">
    <ele>30.4</ele>
    <time>2019-09-08T07:50:58Z</time>
   </trkpt>
   <trkpt lat="51.2880500" lon="5.8579390">
    <ele>30.5</ele>
    <time>2019-09-08T07:50:59Z</time>
   </trkpt>
   <trkpt lat="51.2879780" lon="5.8579170">
    <ele>30.5</ele>
    <time>2019-09-08T07:51:00Z</time>
   </trkpt>
   <trkpt lat="51.2879050" lon="5.8578960">
    <ele>30.5</ele>
    <time>2019-09-08T07:51:01Z</time>
   </trkpt>
   <trkpt lat="51.2878370" lon="5.8578670">
    <ele>30.5</ele>
    <time>2019-09-08T07:51:02Z</time>
   </trkpt>
   <trkpt lat="51.2877710" lon="5.8578440">
    <ele>30.5</ele>
    <time>2019-09-08T07:51:03Z</time>
   </trkpt>
   <trkpt lat="51.2877070" lon="5.8578210">
    <ele>30.6</ele>
    <time>2019-09-08T07:51:04Z</time>
   </trkpt>
   <trkpt lat="51.2876390" lon="5.8578000">
    <ele>30.6</ele>
    <time>2019-09-08T07:51:05Z</time>
   </trkpt>
   <trkpt lat="51.2875480" lon="5.8578000">
    <ele>30.6</ele>
    <time>2019-09-08T07:51:06Z</time>
   </trkpt>
   <trkpt lat="51.2874760" lon="5.8577850">
    <ele>30.6</ele>
    <time>2019-09-08T07:51:07Z</time>
   </trkpt>
   <trkpt lat="51.2874260" lon="5.8578110">
    <ele>30.6</ele>
    <time>2019-09-08T07:51:08Z</time>
   </trkpt>
   <trkpt lat="51.2873370" lon="5.8577860">
    <ele>30.6</ele>
    <time>2019-09-08T07:51:09Z</time>
   </trkpt>
   <trkpt lat="51.2872640" lon="5.8577660">
    <ele>30.6</ele>
    <time>2019-09-08T07:51:10Z</time>
   </trkpt>
   <trkpt lat="51.2872280" lon="5.8577990">
    <ele>30.6</ele>
    <time>2019-09-08T07:51:11Z</time>
   </trkpt>
   <trkpt lat="51.2871660" lon="5.8578180">
    <ele>30.6</ele>
    <time>2019-09-08T07:51:12Z</time>
   </trkpt>
   <trkpt lat="51.2871030" lon="5.8578300">
    <ele>30.6</ele>
    <time>2019-09-08T07:51:13Z</time>
   </trkpt>
   <trkpt lat="51.2870400" lon="5.8578420">
    <ele>30.7</ele>
    <time>2019-09-08T07:51:14Z</time>
   </trkpt>
   <trkpt lat="51.2869640" lon="5.8578540">
    <ele>30.7</ele>
    <time>2019-09-08T07:51:15Z</time>
   </trkpt>
   <trkpt lat="51.2869040" lon="5.8578680">
    <ele>30.7</ele>
    <time>2019-09-08T07:51:16Z</time>
   </trkpt>
   <trkpt lat="51.2868350" lon="5.8579050">
    <ele>30.7</ele>
    <time>2019-09-08T07:51:17Z</time>
   </trkpt>
   <trkpt lat="51.2867720" lon="5.8579250">
    <ele>30.7</ele>
    <time>2019-09-08T07:51:18Z</time>
   </trkpt>
   <trkpt lat="51.2867070" lon="5.8579390">
    <ele>30.8</ele>
    <time>2019-09-08T07:51:19Z</time>
   </trkpt>
   <trkpt lat="51.2866470" lon="5.8579450">
    <ele>30.8</ele>
    <time>2019-09-08T07:51:20Z</time>
   </trkpt>
   <trkpt lat="51.2865890" lon="5.8579530">
    <ele>30.8</ele>
    <time>2019-09-08T07:51:21Z</time>
   </trkpt>
   <trkpt lat="51.2865290" lon="5.8579260">
    <ele>30.8</ele>
    <time>2019-09-08T07:51:22Z</time>
   </trkpt>
   <trkpt lat="51.2864820" lon="5.8578720">
    <ele>30.9</ele>
    <time>2019-09-08T07:51:23Z</time>
   </trkpt>
   <trkpt lat="51.2864490" lon="5.8577800">
    <ele>30.9</ele>
    <time>2019-09-08T07:51:24Z</time>
   </trkpt>
   <trkpt lat="51.2864370" lon="5.8576860">
    <ele>31.0</ele>
    <time>2019-09-08T07:51:25Z</time>
   </trkpt>
   <trkpt lat="51.2864090" lon="5.8575910">
    <ele>31.0</ele>
    <time>2019-09-08T07:51:26Z</time>
   </trkpt>
   <trkpt lat="51.2863830" lon="5.8574890">
    <ele>31.1</ele>
    <time>2019-09-08T07:51:27Z</time>
   </trkpt>
   <trkpt lat="51.2863480" lon="5.8573780">
    <ele>31.1</ele>
    <time>2019-09-08T07:51:28Z</time>
   </trkpt>
   <trkpt lat="51.2863040" lon="5.8572650">
    <ele>31.2</ele>
    <time>2019-09-08T07:51:29Z</time>
   </trkpt>
   <trkpt lat="51.2862620" lon="5.8571880">
    <ele>31.3</ele>
    <time>2019-09-08T07:51:30Z</time>
   </trkpt>
   <trkpt lat="51.2862090" lon="5.8570830">
    <ele>31.3</ele>
    <time>2019-09-08T07:51:31Z</time>
   </trkpt>
   <trkpt lat="51.2861620" lon="5.8569840">
    <ele>31.4</ele>
    <time>2019-09-08T07:51:32Z</time>
   </trkpt>
   <trkpt lat="51.2861200" lon="5.8568850">
    <ele>31.4</ele>
    <time>2019-09-08T07:51:33Z</time>
   </trkpt>
   <trkpt lat="51.2860820" lon="5.8567790">
    <ele>31.4</ele>
    <time>2019-09-08T07:51:34Z</time>
   </trkpt>
   <trkpt lat="51.2860400" lon="5.8566680">
    <ele>31.4</ele>
    <time>2019-09-08T07:51:35Z</time>
   </trkpt>
   <trkpt lat="51.2859900" lon="5.8565680">
    <ele>31.4</ele>
    <time>2019-09-08T07:51:36Z</time>
   </trkpt>
   <trkpt lat="51.2859790" lon="5.8564820">
    <ele>31.4</ele>
    <time>2019-09-08T07:51:37Z</time>
   </trkpt>
   <trkpt lat="51.2859420" lon="5.8563870">
    <ele>31.4</ele>
    <time>2019-09-08T07:51:38Z</time>
   </trkpt>
   <trkpt lat="51.2859140" lon="5.8562770">
    <ele>31.4</ele>
    <time>2019-09-08T07:51:39Z</time>
   </trkpt>
   <trkpt lat="51.2858660" lon="5.8561840">
    <ele>31.3</ele>
    <time>2019-09-08T07:51:40Z</time>
   </trkpt>
   <trkpt lat="51.2858490" lon="5.8561430">
    <ele>31.3</ele>
    <time>2019-09-08T07:51:41Z</time>
   </trkpt>
   <trkpt lat="51.2858170" lon="5.8560600">
    <ele>31.3</ele>
    <time>2019-09-08T07:51:42Z</time>
   </trkpt>
   <trkpt lat="51.2857760" lon="5.8559430">
    <ele>31.3</ele>
    <time>2019-09-08T07:51:43Z</time>
   </trkpt>
   <trkpt lat="51.2857350" lon="5.8558180">
    <ele>31.3</ele>
    <time>2019-09-08T07:51:44Z</time>
   </trkpt>
   <trkpt lat="51.2856990" lon="5.8557090">
    <ele>31.2</ele>
    <time>2019-09-08T07:51:45Z</time>
   </trkpt>
   <trkpt lat="51.2856570" lon="5.8556030">
    <ele>31.2</ele>
    <time>2019-09-08T07:51:46Z</time>
   </trkpt>
   <trkpt lat="51.2856220" lon="5.8555130">
    <ele>31.2</ele>
    <time>2019-09-08T07:51:47Z</time>
   </trkpt>
   <trkpt lat="51.2855810" lon="5.8554180">
    <ele>31.2</ele>
    <time>2019-09-08T07:51:48Z</time>
   </trkpt>
   <trkpt lat="51.2855430" lon="5.8553290">
    <ele>31.2</ele>
    <time>2019-09-08T07:51:49Z</time>
   </trkpt>
   <trkpt lat="51.2855140" lon="5.8552280">
    <ele>31.2</ele>
    <time>2019-09-08T07:51:50Z</time>
   </trkpt>
   <trkpt lat="51.2854560" lon="5.8551080">
    <ele>31.2</ele>
    <time>2019-09-08T07:51:51Z</time>
   </trkpt>
   <trkpt lat="51.2854260" lon="5.8550070">
    <ele>31.2</ele>
    <time>2019-09-08T07:51:52Z</time>
   </trkpt>
   <trkpt lat="51.2853910" lon="5.8549250">
    <ele>31.2</ele>
    <time>2019-09-08T07:51:53Z</time>
   </trkpt>
   <trkpt lat="51.2853600" lon="5.8548240">
    <ele>31.2</ele>
    <time>2019-09-08T07:51:54Z</time>
   </trkpt>
   <trkpt lat="51.2853180" lon="5.8547180">
    <ele>31.1</ele>
    <time>2019-09-08T07:51:55Z</time>
   </trkpt>
   <trkpt lat="51.2852800" lon="5.8546180">
    <ele>31.1</ele>
    <time>2019-09-08T07:51:56Z</time>
   </trkpt>
   <trkpt lat="51.2852450" lon="5.8545070">
    <ele>31.1</ele>
    <time>2019-09-08T07:51:57Z</time>
   </trkpt>
   <trkpt lat="51.2851960" lon="5.8543960">
    <ele>31.1</ele>
    <time>2019-09-08T07:51:58Z</time>
   </trkpt>
   <trkpt lat="51.2851540" lon="5.8542940">
    <ele>31.1</ele>
    <time>2019-09-08T07:51:59Z</time>
   </trkpt>
   <trkpt lat="51.2851140" lon="5.8541900">
    <ele>31.0</ele>
    <time>2019-09-08T07:52:00Z</time>
   </trkpt>
   <trkpt lat="51.2850700" lon="5.8540990">
    <ele>31.0</ele>
    <time>2019-09-08T07:52:01Z</time>
   </trkpt>
   <trkpt lat="51.2850410" lon="5.8540050">
    <ele>31.0</ele>
    <time>2019-09-08T07:52:02Z</time>
   </trkpt>
   <trkpt lat="51.2850060" lon="5.8539060">
    <ele>31.0</ele>
    <time>2019-09-08T07:52:03Z</time>
   </trkpt>
   <trkpt lat="51.2849650" lon="5.8538050">
    <ele>30.9</ele>
    <time>2019-09-08T07:52:04Z</time>
   </trkpt>
   <trkpt lat="51.2849340" lon="5.8537020">
    <ele>30.9</ele>
    <time>2019-09-08T07:52:05Z</time>
   </trkpt>
   <trkpt lat="51.2848990" lon="5.8536080">
    <ele>30.8</ele>
    <time>2019-09-08T07:52:06Z</time>
   </trkpt>
   <trkpt lat="51.2848570" lon="5.8535120">
    <ele>30.8</ele>
    <time>2019-09-08T07:52:07Z</time>
   </trkpt>
   <trkpt lat="51.2848160" lon="5.8534050">
    <ele>30.7</ele>
    <time>2019-09-08T07:52:08Z</time>
   </trkpt>
   <trkpt lat="51.2847810" lon="5.8533230">
    <ele>30.7</ele>
    <time>2019-09-08T07:52:09Z</time>
   </trkpt>
   <trkpt lat="51.2847370" lon="5.8532200">
    <ele>30.7</ele>
    <time>2019-09-08T07:52:10Z</time>
   </trkpt>
   <trkpt lat="51.2847040" lon="5.8531430">
    <ele>30.7</ele>
    <time>2019-09-08T07:52:11Z</time>
   </trkpt>
   <trkpt lat="51.2846640" lon="5.8530420">
    <ele>30.8</ele>
    <time>2019-09-08T07:52:12Z</time>
   </trkpt>
   <trkpt lat="51.2846230" lon="5.8529430">
    <ele>30.8</ele>
    <time>2019-09-08T07:52:13Z</time>
   </trkpt>
   <trkpt lat="51.2845860" lon="5.8528460">
    <ele>30.8</ele>
    <time>2019-09-08T07:52:14Z</time>
   </trkpt>
   <trkpt lat="51.2845500" lon="5.8527450">
    <ele>30.8</ele>
    <time>2019-09-08T07:52:15Z</time>
   </trkpt>
   <trkpt lat="51.2845130" lon="5.8526510">
    <ele>30.9</ele>
    <time>2019-09-08T07:52:16Z</time>
   </trkpt>
   <trkpt lat="51.2844770" lon="5.8525540">
    <ele>30.9</ele>
    <time>2019-09-08T07:52:17Z</time>
   </trkpt>
   <trkpt lat="51.2844550" lon="5.8524470">
    <ele>30.9</ele>
    <time>2019-09-08T07:52:18Z</time>
   </trkpt>
   <trkpt lat="51.2844240" lon="5.8523520">
    <ele>30.9</ele>
    <time>2019-09-08T07:52:19Z</time>
   </trkpt>
   <trkpt lat="51.2843920" lon="5.8522480">
    <ele>30.9</ele>
    <time>2019-09-08T07:52:20Z</time>
   </trkpt>
   <trkpt lat="51.2843530" lon="5.8521490">
    <ele>30.9</ele>
    <time>2019-09-08T07:52:21Z</time>
   </trkpt>
   <trkpt lat="51.2843090" lon="5.8520550">
    <ele>30.9</ele>
    <time>2019-09-08T07:52:22Z</time>
   </trkpt>
   <trkpt lat="51.2842640" lon="5.8519600">
    <ele>30.9</ele>
    <time>2019-09-08T07:52:23Z</time>
   </trkpt>
   <trkpt lat="51.2842280" lon="5.8518670">
    <ele>30.9</ele>
    <time>2019-09-08T07:52:24Z</time>
   </trkpt>
   <trkpt lat="51.2841910" lon="5.8517760">
    <ele>30.9</ele>
    <time>2019-09-08T07:52:25Z</time>
   </trkpt>
   <trkpt lat="51.2841660" lon="5.8516700">
    <ele>30.9</ele>
    <time>2019-09-08T07:52:26Z</time>
   </trkpt>
   <trkpt lat="51.2841450" lon="5.8515750">
    <ele>30.9</ele>
    <time>2019-09-08T07:52:27Z</time>
   </trkpt>
   <trkpt lat="51.2841140" lon="5.8514760">
    <ele>30.9</ele>
    <time>2019-09-08T07:52:28Z</time>
   </trkpt>
   <trkpt lat="51.2840740" lon="5.8513700">
    <ele>30.9</ele>
    <time>2019-09-08T07:52:29Z</time>
   </trkpt>
   <trkpt lat="51.2840290" lon="5.8512530">
    <ele>30.9</ele>
    <time>2019-09-08T07:52:30Z</time>
   </trkpt>
   <trkpt lat="51.2839980" lon="5.8511800">
    <ele>30.9</ele>
    <time>2019-09-08T07:52:31Z</time>
   </trkpt>
   <trkpt lat="51.2839560" lon="5.8510770">
    <ele>30.9</ele>
    <time>2019-09-08T07:52:32Z</time>
   </trkpt>
   <trkpt lat="51.2839170" lon="5.8509790">
    <ele>30.9</ele>
    <time>2019-09-08T07:52:33Z</time>
   </trkpt>
   <trkpt lat="51.2838670" lon="5.8508620">
    <ele>30.9</ele>
    <time>2019-09-08T07:52:34Z</time>
   </trkpt>
   <trkpt lat="51.2838160" lon="5.8507690">
    <ele>30.9</ele>
    <time>2019-09-08T07:52:35Z</time>
   </trkpt>
   <trkpt lat="51.2837920" lon="5.8506880">
    <ele>30.9</ele>
    <time>2019-09-08T07:52:36Z</time>
   </trkpt>
   <trkpt lat="51.2837700" lon="5.8505780">
    <ele>30.9</ele>
    <time>2019-09-08T07:52:37Z</time>
   </trkpt>
   <trkpt lat="51.2837290" lon="5.8504650">
    <ele>30.9</ele>
    <time>2019-09-08T07:52:38Z</time>
   </trkpt>
   <trkpt lat="51.2836790" lon="5.8503560">
    <ele>30.9</ele>
    <time>2019-09-08T07:52:39Z</time>
   </trkpt>
   <trkpt lat="51.2836440" lon="5.8502550">
    <ele>30.9</ele>
    <time>2019-09-08T07:52:40Z</time>
   </trkpt>
   <trkpt lat="51.2836040" lon="5.8501550">
    <ele>30.9</ele>
    <time>2019-09-08T07:52:41Z</time>
   </trkpt>
   <trkpt lat="51.2835540" lon="5.8500420">
    <ele>30.9</ele>
    <time>2019-09-08T07:52:42Z</time>
   </trkpt>
   <trkpt lat="51.2835130" lon="5.8499350">
    <ele>31.0</ele>
    <time>2019-09-08T07:52:43Z</time>
   </trkpt>
   <trkpt lat="51.2834690" lon="5.8498050">
    <ele>31.0</ele>
    <time>2019-09-08T07:52:44Z</time>
   </trkpt>
   <trkpt lat="51.2834310" lon="5.8497030">
    <ele>31.0</ele>
    <time>2019-09-08T07:52:45Z</time>
   </trkpt>
   <trkpt lat="51.2833900" lon="5.8495990">
    <ele>31.0</ele>
    <time>2019-09-08T07:52:46Z</time>
   </trkpt>
   <trkpt lat="51.2833540" lon="5.8495030">
    <ele>31.0</ele>
    <time>2019-09-08T07:52:47Z</time>
   </trkpt>
   <trkpt lat="51.2833120" lon="5.8494240">
    <ele>31.0</ele>
    <time>2019-09-08T07:52:48Z</time>
   </trkpt>
   <trkpt lat="51.2832700" lon="5.8493180">
    <ele>31.0</ele>
    <time>2019-09-08T07:52:49Z</time>
   </trkpt>
   <trkpt lat="51.2832400" lon="5.8492260">
    <ele>31.1</ele>
    <time>2019-09-08T07:52:50Z</time>
   </trkpt>
   <trkpt lat="51.2832070" lon="5.8491310">
    <ele>31.1</ele>
    <time>2019-09-08T07:52:51Z</time>
   </trkpt>
   <trkpt lat="51.2831620" lon="5.8490290">
    <ele>31.1</ele>
    <time>2019-09-08T07:52:52Z</time>
   </trkpt>
   <trkpt lat="51.2831270" lon="5.8489340">
    <ele>31.0</ele>
    <time>2019-09-08T07:52:53Z</time>
   </trkpt>
   <trkpt lat="51.2830860" lon="5.8488340">
    <ele>30.9</ele>
    <time>2019-09-08T07:52:54Z</time>
   </trkpt>
   <trkpt lat="51.2830450" lon="5.8487400">
    <ele>30.9</ele>
    <time>2019-09-08T07:52:55Z</time>
   </trkpt>
   <trkpt lat="51.2830110" lon="5.8486490">
    <ele>30.8</ele>
    <time>2019-09-08T07:52:56Z</time>
   </trkpt>
   <trkpt lat="51.2829750" lon="5.8485600">
    <ele>30.7</ele>
    <time>2019-09-08T07:52:57Z</time>
   </trkpt>
   <trkpt lat="51.2829250" lon="5.8484490">
    <ele>30.7</ele>
    <time>2019-09-08T07:52:58Z</time>
   </trkpt>
   <trkpt lat="51.2828850" lon="5.8483610">
    <ele>30.6</ele>
    <time>2019-09-08T07:52:59Z</time>
   </trkpt>
   <trkpt lat="51.2828440" lon="5.8482460">
    <ele>30.6</ele>
    <time>2019-09-08T07:53:00Z</time>
   </trkpt>
   <trkpt lat="51.2828210" lon="5.8481290">
    <ele>30.5</ele>
    <time>2019-09-08T07:53:01Z</time>
   </trkpt>
   <trkpt lat="51.2827840" lon="5.8480350">
    <ele>30.5</ele>
    <time>2019-09-08T07:53:02Z</time>
   </trkpt>
   <trkpt lat="51.2827500" lon="5.8479440">
    <ele>30.6</ele>
    <time>2019-09-08T07:53:03Z</time>
   </trkpt>
   <trkpt lat="51.2827150" lon="5.8478480">
    <ele>30.7</ele>
    <time>2019-09-08T07:53:04Z</time>
   </trkpt>
   <trkpt lat="51.2826730" lon="5.8477380">
    <ele>31.0</ele>
    <time>2019-09-08T07:53:05Z</time>
   </trkpt>
   <trkpt lat="51.2826330" lon="5.8476240">
    <ele>31.3</ele>
    <time>2019-09-08T07:53:06Z</time>
   </trkpt>
   <trkpt lat="51.2825870" lon="5.8475250">
    <ele>31.6</ele>
    <time>2019-09-08T07:53:07Z</time>
   </trkpt>
   <trkpt lat="51.2825410" lon="5.8474180">
    <ele>32.0</ele>
    <time>2019-09-08T07:53:08Z</time>
   </trkpt>
   <trkpt lat="51.2824930" lon="5.8473190">
    <ele>32.2</ele>
    <time>2019-09-08T07:53:09Z</time>
   </trkpt>
   <trkpt lat="51.2824420" lon="5.8472460">
    <ele>32.4</ele>
    <time>2019-09-08T07:53:10Z</time>
   </trkpt>
   <trkpt lat="51.2823900" lon="5.8471700">
    <ele>32.5</ele>
    <time>2019-09-08T07:53:11Z</time>
   </trkpt>
   <trkpt lat="51.2823350" lon="5.8470970">
    <ele>32.5</ele>
    <time>2019-09-08T07:53:12Z</time>
   </trkpt>
   <trkpt lat="51.2822820" lon="5.8470400">
    <ele>32.4</ele>
    <time>2019-09-08T07:53:13Z</time>
   </trkpt>
   <trkpt lat="51.2822180" lon="5.8469990">
    <ele>32.3</ele>
    <time>2019-09-08T07:53:14Z</time>
   </trkpt>
   <trkpt lat="51.2821480" lon="5.8469570">
    <ele>32.1</ele>
    <time>2019-09-08T07:53:15Z</time>
   </trkpt>
   <trkpt lat="51.2820650" lon="5.8469350">
    <ele>32.1</ele>
    <time>2019-09-08T07:53:16Z</time>
   </trkpt>
   <trkpt lat="51.2819900" lon="5.8469140">
    <ele>32.1</ele>
    <time>2019-09-08T07:53:17Z</time>
   </trkpt>
   <trkpt lat="51.2819060" lon="5.8468530">
    <ele>32.1</ele>
    <time>2019-09-08T07:53:18Z</time>
   </trkpt>
   <trkpt lat="51.2818420" lon="5.8468540">
    <ele>32.1</ele>
    <time>2019-09-08T07:53:19Z</time>
   </trkpt>
   <trkpt lat="51.2817710" lon="5.8468550">
    <ele>32.1</ele>
    <time>2019-09-08T07:53:20Z</time>
   </trkpt>
   <trkpt lat="51.2816970" lon="5.8468660">
    <ele>32.1</ele>
    <time>2019-09-08T07:53:21Z</time>
   </trkpt>
   <trkpt lat="51.2816310" lon="5.8469020">
    <ele>32.1</ele>
    <time>2019-09-08T07:53:22Z</time>
   </trkpt>
   <trkpt lat="51.2815580" lon="5.8469370">
    <ele>32.1</ele>
    <time>2019-09-08T07:53:23Z</time>
   </trkpt>
   <trkpt lat="51.2814930" lon="5.8469770">
    <ele>32.1</ele>
    <time>2019-09-08T07:53:24Z</time>
   </trkpt>
   <trkpt lat="51.2813910" lon="5.8469870">
    <ele>32.2</ele>
    <time>2019-09-08T07:53:25Z</time>
   </trkpt>
   <trkpt lat="51.2813470" lon="5.8470380">
    <ele>32.2</ele>
    <time>2019-09-08T07:53:26Z</time>
   </trkpt>
   <trkpt lat="51.2812720" lon="5.8471030">
    <ele>32.2</ele>
    <time>2019-09-08T07:53:27Z</time>
   </trkpt>
   <trkpt lat="51.2812100" lon="5.8471400">
    <ele>32.2</ele>
    <time>2019-09-08T07:53:28Z</time>
   </trkpt>
   <trkpt lat="51.2811510" lon="5.8471950">
    <ele>32.2</ele>
    <time>2019-09-08T07:53:29Z</time>
   </trkpt>
   <trkpt lat="51.2810890" lon="5.8472350">
    <ele>32.2</ele>
    <time>2019-09-08T07:53:30Z</time>
   </trkpt>
   <trkpt lat="51.2810080" lon="5.8472920">
    <ele>32.2</ele>
    <time>2019-09-08T07:53:31Z</time>
   </trkpt>
   <trkpt lat="51.2809360" lon="5.8473590">
    <ele>32.2</ele>
    <time>2019-09-08T07:53:32Z</time>
   </trkpt>
   <trkpt lat="51.2808620" lon="5.8473890">
    <ele>32.2</ele>
    <time>2019-09-08T07:53:33Z</time>
   </trkpt>
   <trkpt lat="51.2807960" lon="5.8474480">
    <ele>32.2</ele>
    <time>2019-09-08T07:53:34Z</time>
   </trkpt>
   <trkpt lat="51.2807330" lon="5.8475080">
    <ele>32.2</ele>
    <time>2019-09-08T07:53:35Z</time>
   </trkpt>
   <trkpt lat="51.2806750" lon="5.8475510">
    <ele>32.2</ele>
    <time>2019-09-08T07:53:36Z</time>
   </trkpt>
   <trkpt lat="51.2805910" lon="5.8476120">
    <ele>32.1</ele>
    <time>2019-09-08T07:53:37Z</time>
   </trkpt>
   <trkpt lat="51.2805370" lon="5.8476700">
    <ele>32.0</ele>
    <time>2019-09-08T07:53:38Z</time>
   </trkpt>
   <trkpt lat="51.2804760" lon="5.8477320">
    <ele>31.8</ele>
    <time>2019-09-08T07:53:39Z</time>
   </trkpt>
   <trkpt lat="51.2803900" lon="5.8477900">
    <ele>31.6</ele>
    <time>2019-09-08T07:53:40Z</time>
   </trkpt>
   <trkpt lat="51.2803140" lon="5.8478380">
    <ele>31.3</ele>
    <time>2019-09-08T07:53:41Z</time>
   </trkpt>
   <trkpt lat="51.2802410" lon="5.8478880">
    <ele>31.0</ele>
    <time>2019-09-08T07:53:42Z</time>
   </trkpt>
   <trkpt lat="51.2801640" lon="5.8479490">
    <ele>30.7</ele>
    <time>2019-09-08T07:53:43Z</time>
   </trkpt>
   <trkpt lat="51.2800930" lon="5.8480030">
    <ele>30.6</ele>
    <time>2019-09-08T07:53:44Z</time>
   </trkpt>
   <trkpt lat="51.2800180" lon="5.8480420">
    <ele>30.5</ele>
    <time>2019-09-08T07:53:45Z</time>
   </trkpt>
   <trkpt lat="51.2799460" lon="5.8480870">
    <ele>30.4</ele>
    <time>2019-09-08T07:53:46Z</time>
   </trkpt>
   <trkpt lat="51.2798800" lon="5.8481350">
    <ele>30.4</ele>
    <time>2019-09-08T07:53:47Z</time>
   </trkpt>
   <trkpt lat="51.2798160" lon="5.8481860">
    <ele>30.3</ele>
    <time>2019-09-08T07:53:48Z</time>
   </trkpt>
   <trkpt lat="51.2797510" lon="5.8482400">
    <ele>30.3</ele>
    <time>2019-09-08T07:53:49Z</time>
   </trkpt>
   <trkpt lat="51.2796830" lon="5.8482930">
    <ele>30.2</ele>
    <time>2019-09-08T07:53:50Z</time>
   </trkpt>
   <trkpt lat="51.2796110" lon="5.8483420">
    <ele>30.2</ele>
    <time>2019-09-08T07:53:51Z</time>
   </trkpt>
   <trkpt lat="51.2795450" lon="5.8483910">
    <ele>30.1</ele>
    <time>2019-09-08T07:53:52Z</time>
   </trkpt>
   <trkpt lat="51.2794700" lon="5.8484270">
    <ele>30.0</ele>
    <time>2019-09-08T07:53:53Z</time>
   </trkpt>
   <trkpt lat="51.2794000" lon="5.8484660">
    <ele>30.0</ele>
    <time>2019-09-08T07:53:54Z</time>
   </trkpt>
   <trkpt lat="51.2793310" lon="5.8485170">
    <ele>29.9</ele>
    <time>2019-09-08T07:53:55Z</time>
   </trkpt>
   <trkpt lat="51.2792520" lon="5.8485580">
    <ele>29.8</ele>
    <time>2019-09-08T07:53:56Z</time>
   </trkpt>
   <trkpt lat="51.2791780" lon="5.8486080">
    <ele>29.8</ele>
    <time>2019-09-08T07:53:57Z</time>
   </trkpt>
   <trkpt lat="51.2791020" lon="5.8486460">
    <ele>29.9</ele>
    <time>2019-09-08T07:53:58Z</time>
   </trkpt>
   <trkpt lat="51.2790330" lon="5.8486930">
    <ele>29.9</ele>
    <time>2019-09-08T07:53:59Z</time>
   </trkpt>
   <trkpt lat="51.2789640" lon="5.8487270">
    <ele>29.9</ele>
    <time>2019-09-08T07:54:00Z</time>
   </trkpt>
   <trkpt lat="51.2788940" lon="5.8487620">
    <ele>29.9</ele>
    <time>2019-09-08T07:54:01Z</time>
   </trkpt>
   <trkpt lat="51.2788230" lon="5.8487900">
    <ele>29.9</ele>
    <time>2019-09-08T07:54:02Z</time>
   </trkpt>
   <trkpt lat="51.2787490" lon="5.8488200">
    <ele>29.9</ele>
    <time>2019-09-08T07:54:03Z</time>
   </trkpt>
   <trkpt lat="51.2786670" lon="5.8488620">
    <ele>29.9</ele>
    <time>2019-09-08T07:54:04Z</time>
   </trkpt>
   <trkpt lat="51.2785940" lon="5.8488960">
    <ele>29.9</ele>
    <time>2019-09-08T07:54:05Z</time>
   </trkpt>
   <trkpt lat="51.2785210" lon="5.8489370">
    <ele>29.9</ele>
    <time>2019-09-08T07:54:06Z</time>
   </trkpt>
   <trkpt lat="51.2784400" lon="5.8489780">
    <ele>29.9</ele>
    <time>2019-09-08T07:54:07Z</time>
   </trkpt>
   <trkpt lat="51.2783600" lon="5.8490150">
    <ele>29.9</ele>
    <time>2019-09-08T07:54:08Z</time>
   </trkpt>
   <trkpt lat="51.2782850" lon="5.8490600">
    <ele>29.8</ele>
    <time>2019-09-08T07:54:09Z</time>
   </trkpt>
   <trkpt lat="51.2782020" lon="5.8491040">
    <ele>29.8</ele>
    <time>2019-09-08T07:54:10Z</time>
   </trkpt>
   <trkpt lat="51.2781250" lon="5.8491460">
    <ele>29.7</ele>
    <time>2019-09-08T07:54:11Z</time>
   </trkpt>
   <trkpt lat="51.2780530" lon="5.8491860">
    <ele>29.6</ele>
    <time>2019-09-08T07:54:12Z</time>
   </trkpt>
   <trkpt lat="51.2779790" lon="5.8492230">
    <ele>29.5</ele>
    <time>2019-09-08T07:54:13Z</time>
   </trkpt>
   <trkpt lat="51.2779050" lon="5.8492680">
    <ele>29.5</ele>
    <time>2019-09-08T07:54:14Z</time>
   </trkpt>
   <trkpt lat="51.2778340" lon="5.8493170">
    <ele>29.4</ele>
    <time>2019-09-08T07:54:15Z</time>
   </trkpt>
   <trkpt lat="51.2777590" lon="5.8493500">
    <ele>29.4</ele>
    <time>2019-09-08T07:54:16Z</time>
   </trkpt>
   <trkpt lat="51.2776830" lon="5.8493950">
    <ele>29.4</ele>
    <time>2019-09-08T07:54:17Z</time>
   </trkpt>
   <trkpt lat="51.2776160" lon="5.8494230">
    <ele>29.4</ele>
    <time>2019-09-08T07:54:18Z</time>
   </trkpt>
   <trkpt lat="51.2775380" lon="5.8494710">
    <ele>29.3</ele>
    <time>2019-09-08T07:54:19Z</time>
   </trkpt>
   <trkpt lat="51.2774680" lon="5.8495210">
    <ele>29.3</ele>
    <time>2019-09-08T07:54:20Z</time>
   </trkpt>
   <trkpt lat="51.2773940" lon="5.8495740">
    <ele>29.3</ele>
    <time>2019-09-08T07:54:21Z</time>
   </trkpt>
   <trkpt lat="51.2773230" lon="5.8496250">
    <ele>29.2</ele>
    <time>2019-09-08T07:54:22Z</time>
   </trkpt>
   <trkpt lat="51.2772550" lon="5.8496620">
    <ele>29.1</ele>
    <time>2019-09-08T07:54:23Z</time>
   </trkpt>
   <trkpt lat="51.2771800" lon="5.8497100">
    <ele>29.1</ele>
    <time>2019-09-08T07:54:24Z</time>
   </trkpt>
   <trkpt lat="51.2771110" lon="5.8497540">
    <ele>29.0</ele>
    <time>2019-09-08T07:54:25Z</time>
   </trkpt>
   <trkpt lat="51.2770510" lon="5.8497830">
    <ele>29.0</ele>
    <time>2019-09-08T07:54:26Z</time>
   </trkpt>
   <trkpt lat="51.2769870" lon="5.8498320">
    <ele>29.0</ele>
    <time>2019-09-08T07:54:27Z</time>
   </trkpt>
   <trkpt lat="51.2769140" lon="5.8498790">
    <ele>29.1</ele>
    <time>2019-09-08T07:54:28Z</time>
   </trkpt>
   <trkpt lat="51.2768420" lon="5.8499220">
    <ele>29.1</ele>
    <time>2019-09-08T07:54:29Z</time>
   </trkpt>
   <trkpt lat="51.2767670" lon="5.8499710">
    <ele>29.2</ele>
    <time>2019-09-08T07:54:30Z</time>
   </trkpt>
   <trkpt lat="51.2766940" lon="5.8500240">
    <ele>29.3</ele>
    <time>2019-09-08T07:54:31Z</time>
   </trkpt>
   <trkpt lat="51.2766150" lon="5.8500800">
    <ele>29.3</ele>
    <time>2019-09-08T07:54:32Z</time>
   </trkpt>
   <trkpt lat="51.2765490" lon="5.8501210">
    <ele>29.3</ele>
    <time>2019-09-08T07:54:33Z</time>
   </trkpt>
   <trkpt lat="51.2764790" lon="5.8501670">
    <ele>29.3</ele>
    <time>2019-09-08T07:54:34Z</time>
   </trkpt>
   <trkpt lat="51.2764070" lon="5.8502140">
    <ele>29.3</ele>
    <time>2019-09-08T07:54:35Z</time>
   </trkpt>
   <trkpt lat="51.2763390" lon="5.8502580">
    <ele>29.3</ele>
    <time>2019-09-08T07:54:36Z</time>
   </trkpt>
   <trkpt lat="51.2762680" lon="5.8502980">
    <ele>29.3</ele>
    <time>2019-09-08T07:54:37Z</time>
   </trkpt>
   <trkpt lat="51.2761960" lon="5.8503360">
    <ele>29.3</ele>
    <time>2019-09-08T07:54:38Z</time>
   </trkpt>
   <trkpt lat="51.2761360" lon="5.8503900">
    <ele>29.3</ele>
    <time>2019-09-08T07:54:39Z</time>
   </trkpt>
   <trkpt lat="51.2760690" lon="5.8504470">
    <ele>29.3</ele>
    <time>2019-09-08T07:54:40Z</time>
   </trkpt>
   <trkpt lat="51.2759980" lon="5.8504740">
    <ele>29.4</ele>
    <time>2019-09-08T07:54:41Z</time>
   </trkpt>
   <trkpt lat="51.2759210" lon="5.8504850">
    <ele>29.4</ele>
    <time>2019-09-08T07:54:42Z</time>
   </trkpt>
   <trkpt lat="51.2758360" lon="5.8504990">
    <ele>29.4</ele>
    <time>2019-09-08T07:54:43Z</time>
   </trkpt>
   <trkpt lat="51.2757550" lon="5.8505070">
    <ele>29.4</ele>
    <time>2019-09-08T07:54:44Z</time>
   </trkpt>
   <trkpt lat="51.2756940" lon="5.8505170">
    <ele>29.4</ele>
    <time>2019-09-08T07:54:45Z</time>
   </trkpt>
   <trkpt lat="51.2756110" lon="5.8505150">
    <ele>29.4</ele>
    <time>2019-09-08T07:54:46Z</time>
   </trkpt>
   <trkpt lat="51.2755300" lon="5.8505160">
    <ele>29.4</ele>
    <time>2019-09-08T07:54:47Z</time>
   </trkpt>
   <trkpt lat="51.2754580" lon="5.8505070">
    <ele>29.5</ele>
    <time>2019-09-08T07:54:48Z</time>
   </trkpt>
   <trkpt lat="51.2753980" lon="5.8505220">
    <ele>29.5</ele>
    <time>2019-09-08T07:54:49Z</time>
   </trkpt>
   <trkpt lat="51.2753280" lon="5.8505170">
    <ele>29.5</ele>
    <time>2019-09-08T07:54:50Z</time>
   </trkpt>
   <trkpt lat="51.2752520" lon="5.8505040">
    <ele>29.5</ele>
    <time>2019-09-08T07:54:51Z</time>
   </trkpt>
   <trkpt lat="51.2751770" lon="5.8504930">
    <ele>29.5</ele>
    <time>2019-09-08T07:54:52Z</time>
   </trkpt>
   <trkpt lat="51.2751040" lon="5.8504910">
    <ele>29.5</ele>
    <time>2019-09-08T07:54:53Z</time>
   </trkpt>
   <trkpt lat="51.2750480" lon="5.8504960">
    <ele>29.5</ele>
    <time>2019-09-08T07:54:54Z</time>
   </trkpt>
   <trkpt lat="51.2749660" lon="5.8504960">
    <ele>29.5</ele>
    <time>2019-09-08T07:54:55Z</time>
   </trkpt>
   <trkpt lat="51.2748980" lon="5.8504940">
    <ele>29.5</ele>
    <time>2019-09-08T07:54:56Z</time>
   </trkpt>
   <trkpt lat="51.2748280" lon="5.8504820">
    <ele>29.5</ele>
    <time>2019-09-08T07:54:57Z</time>
   </trkpt>
   <trkpt lat="51.2747570" lon="5.8504770">
    <ele>29.5</ele>
    <time>2019-09-08T07:54:58Z</time>
   </trkpt>
   <trkpt lat="51.2746850" lon="5.8504670">
    <ele>29.5</ele>
    <time>2019-09-08T07:54:59Z</time>
   </trkpt>
   <trkpt lat="51.2746080" lon="5.8504600">
    <ele>29.5</ele>
    <time>2019-09-08T07:55:00Z</time>
   </trkpt>
   <trkpt lat="51.2745360" lon="5.8504540">
    <ele>29.6</ele>
    <time>2019-09-08T07:55:01Z</time>
   </trkpt>
   <trkpt lat="51.2744600" lon="5.8504490">
    <ele>29.6</ele>
    <time>2019-09-08T07:55:02Z</time>
   </trkpt>
   <trkpt lat="51.2743840" lon="5.8504410">
    <ele>29.6</ele>
    <time>2019-09-08T07:55:03Z</time>
   </trkpt>
   <trkpt lat="51.2743110" lon="5.8504370">
    <ele>29.7</ele>
    <time>2019-09-08T07:55:04Z</time>
   </trkpt>
   <trkpt lat="51.2742380" lon="5.8504420">
    <ele>29.7</ele>
    <time>2019-09-08T07:55:05Z</time>
   </trkpt>
   <trkpt lat="51.2741650" lon="5.8504420">
    <ele>29.7</ele>
    <time>2019-09-08T07:55:06Z</time>
   </trkpt>
   <trkpt lat="51.2740950" lon="5.8504390">
    <ele>29.8</ele>
    <time>2019-09-08T07:55:07Z</time>
   </trkpt>
   <trkpt lat="51.2740220" lon="5.8504260">
    <ele>29.8</ele>
    <time>2019-09-08T07:55:08Z</time>
   </trkpt>
   <trkpt lat="51.2739490" lon="5.8504140">
    <ele>29.8</ele>
    <time>2019-09-08T07:55:09Z</time>
   </trkpt>
   <trkpt lat="51.2738760" lon="5.8504030">
    <ele>29.9</ele>
    <time>2019-09-08T07:55:10Z</time>
   </trkpt>
   <trkpt lat="51.2738110" lon="5.8504170">
    <ele>29.9</ele>
    <time>2019-09-08T07:55:11Z</time>
   </trkpt>
   <trkpt lat="51.2737410" lon="5.8504190">
    <ele>29.9</ele>
    <time>2019-09-08T07:55:12Z</time>
   </trkpt>
   <trkpt lat="51.2736640" lon="5.8504200">
    <ele>29.9</ele>
    <time>2019-09-08T07:55:13Z</time>
   </trkpt>
   <trkpt lat="51.2735870" lon="5.8504160">
    <ele>30.0</ele>
    <time>2019-09-08T07:55:14Z</time>
   </trkpt>
   <trkpt lat="51.2735160" lon="5.8504120">
    <ele>30.0</ele>
    <time>2019-09-08T07:55:15Z</time>
   </trkpt>
   <trkpt lat="51.2734400" lon="5.8504100">
    <ele>30.0</ele>
    <time>2019-09-08T07:55:16Z</time>
   </trkpt>
   <trkpt lat="51.2733700" lon="5.8504180">
    <ele>30.1</ele>
    <time>2019-09-08T07:55:17Z</time>
   </trkpt>
   <trkpt lat="51.2732950" lon="5.8504210">
    <ele>30.1</ele>
    <time>2019-09-08T07:55:18Z</time>
   </trkpt>
   <trkpt lat="51.2732310" lon="5.8504420">
    <ele>30.1</ele>
    <time>2019-09-08T07:55:19Z</time>
   </trkpt>
   <trkpt lat="51.2731690" lon="5.8504650">
    <ele>30.1</ele>
    <time>2019-09-08T07:55:20Z</time>
   </trkpt>
   <trkpt lat="51.2731200" lon="5.8505000">
    <ele>30.2</ele>
    <time>2019-09-08T07:55:21Z</time>
   </trkpt>
   <trkpt lat="51.2730590" lon="5.8505100">
    <ele>30.2</ele>
    <time>2019-09-08T07:55:22Z</time>
   </trkpt>
   <trkpt lat="51.2730170" lon="5.8505190">
    <ele>30.2</ele>
    <time>2019-09-08T07:55:23Z</time>
   </trkpt>
   <trkpt lat="51.2729650" lon="5.8504840">
    <ele>30.2</ele>
    <time>2019-09-08T07:55:24Z</time>
   </trkpt>
   <trkpt lat="51.2729350" lon="5.8504120">
    <ele>30.2</ele>
    <time>2019-09-08T07:55:25Z</time>
   </trkpt>
   <trkpt lat="51.2729120" lon="5.8503370">
    <ele>30.2</ele>
    <time>2019-09-08T07:55:26Z</time>
   </trkpt>
   <trkpt lat="51.2728900" lon="5.8502460">
    <ele>30.1</ele>
    <time>2019-09-08T07:55:27Z</time>
   </trkpt>
   <trkpt lat="51.2728680" lon="5.8501540">
    <ele>30.1</ele>
    <time>2019-09-08T07:55:28Z</time>
   </trkpt>
   <trkpt lat="51.2728420" lon="5.8500710">
    <ele>30.1</ele>
    <time>2019-09-08T07:55:29Z</time>
   </trkpt>
   <trkpt lat="51.2728090" lon="5.8499770">
    <ele>30.1</ele>
    <time>2019-09-08T07:55:30Z</time>
   </trkpt>
   <trkpt lat="51.2727810" lon="5.8498920">
    <ele>30.0</ele>
    <time>2019-09-08T07:55:31Z</time>
   </trkpt>
   <trkpt lat="51.2727510" lon="5.8498020">
    <ele>30.0</ele>
    <time>2019-09-08T07:55:32Z</time>
   </trkpt>
   <trkpt lat="51.2727310" lon="5.8497040">
    <ele>30.0</ele>
    <time>2019-09-08T07:55:33Z</time>
   </trkpt>
   <trkpt lat="51.2727030" lon="5.8496160">
    <ele>30.0</ele>
    <time>2019-09-08T07:55:34Z</time>
   </trkpt>
   <trkpt lat="51.2726860" lon="5.8495260">
    <ele>30.0</ele>
    <time>2019-09-08T07:55:35Z</time>
   </trkpt>
   <trkpt lat="51.2726650" lon="5.8494300">
    <ele>30.0</ele>
    <time>2019-09-08T07:55:36Z</time>
   </trkpt>
   <trkpt lat="51.2726370" lon="5.8493440">
    <ele>30.0</ele>
    <time>2019-09-08T07:55:37Z</time>
   </trkpt>
   <trkpt lat="51.2726190" lon="5.8492680">
    <ele>30.0</ele>
    <time>2019-09-08T07:55:38Z</time>
   </trkpt>
   <trkpt lat="51.2725670" lon="5.8492160">
    <ele>30.0</ele>
    <time>2019-09-08T07:55:39Z</time>
   </trkpt>
   <trkpt lat="51.2725230" lon="5.8491910">
    <ele>30.0</ele>
    <time>2019-09-08T07:55:40Z</time>
   </trkpt>
   <trkpt lat="51.2724770" lon="5.8491860">
    <ele>30.0</ele>
    <time>2019-09-08T07:55:41Z</time>
   </trkpt>
   <trkpt lat="51.2724320" lon="5.8492040">
    <ele>30.0</ele>
    <time>2019-09-08T07:55:42Z</time>
   </trkpt>
   <trkpt lat="51.2723810" lon="5.8492280">
    <ele>30.1</ele>
    <time>2019-09-08T07:55:43Z</time>
   </trkpt>
   <trkpt lat="51.2723150" lon="5.8492440">
    <ele>30.1</ele>
    <time>2019-09-08T07:55:44Z</time>
   </trkpt>
   <trkpt lat="51.2722550" lon="5.8492910">
    <ele>30.2</ele>
    <time>2019-09-08T07:55:45Z</time>
   </trkpt>
   <trkpt lat="51.2722000" lon="5.8493530">
    <ele>30.2</ele>
    <time>2019-09-08T07:55:46Z</time>
   </trkpt>
   <trkpt lat="51.2721420" lon="5.8494170">
    <ele>30.2</ele>
    <time>2019-09-08T07:55:47Z</time>
   </trkpt>
   <trkpt lat="51.2720840" lon="5.8494770">
    <ele>30.3</ele>
    <time>2019-09-08T07:55:48Z</time>
   </trkpt>
   <trkpt lat="51.2720210" lon="5.8495230">
    <ele>30.3</ele>
    <time>2019-09-08T07:55:49Z</time>
   </trkpt>
   <trkpt lat="51.2719670" lon="5.8495620">
    <ele>30.3</ele>
    <time>2019-09-08T07:55:50Z</time>
   </trkpt>
   <trkpt lat="51.2718910" lon="5.8496220">
    <ele>30.4</ele>
    <time>2019-09-08T07:55:51Z</time>
   </trkpt>
   <trkpt lat="51.2718360" lon="5.8496710">
    <ele>30.4</ele>
    <time>2019-09-08T07:55:52Z</time>
   </trkpt>
   <trkpt lat="51.2717800" lon="5.8497100">
    <ele>30.5</ele>
    <time>2019-09-08T07:55:53Z</time>
   </trkpt>
   <trkpt lat="51.2717070" lon="5.8497520">
    <ele>30.5</ele>
    <time>2019-09-08T07:55:54Z</time>
   </trkpt>
   <trkpt lat="51.2716590" lon="5.8497950">
    <ele>30.5</ele>
    <time>2019-09-08T07:55:55Z</time>
   </trkpt>
   <trkpt lat="51.2715920" lon="5.8498380">
    <ele>30.5</ele>
    <time>2019-09-08T07:55:56Z</time>
   </trkpt>
   <trkpt lat="51.2715310" lon="5.8498840">
    <ele>30.5</ele>
    <time>2019-09-08T07:55:57Z</time>
   </trkpt>
   <trkpt lat="51.2714600" lon="5.8499370">
    <ele>30.5</ele>
    <time>2019-09-08T07:55:58Z</time>
   </trkpt>
   <trkpt lat="51.2714010" lon="5.8500070">
    <ele>30.5</ele>
    <time>2019-09-08T07:55:59Z</time>
   </trkpt>
   <trkpt lat="51.2713410" lon="5.8500690">
    <ele>30.4</ele>
    <time>2019-09-08T07:56:00Z</time>
   </trkpt>
   <trkpt lat="51.2712690" lon="5.8501270">
    <ele>30.3</ele>
    <time>2019-09-08T07:56:01Z</time>
   </trkpt>
   <trkpt lat="51.2712020" lon="5.8501770">
    <ele>30.2</ele>
    <time>2019-09-08T07:56:02Z</time>
   </trkpt>
   <trkpt lat="51.2711410" lon="5.8502350">
    <ele>30.1</ele>
    <time>2019-09-08T07:56:03Z</time>
   </trkpt>
   <trkpt lat="51.2710630" lon="5.8502870">
    <ele>29.9</ele>
    <time>2019-09-08T07:56:04Z</time>
   </trkpt>
   <trkpt lat="51.2709980" lon="5.8503260">
    <ele>29.8</ele>
    <time>2019-09-08T07:56:05Z</time>
   </trkpt>
   <trkpt lat="51.2709170" lon="5.8503870">
    <ele>29.7</ele>
    <time>2019-09-08T07:56:06Z</time>
   </trkpt>
   <trkpt lat="51.2708480" lon="5.8504330">
    <ele>29.6</ele>
    <time>2019-09-08T07:56:07Z</time>
   </trkpt>
   <trkpt lat="51.2707500" lon="5.8504950">
    <ele>29.4</ele>
    <time>2019-09-08T07:56:08Z</time>
   </trkpt>
   <trkpt lat="51.2706800" lon="5.8505610">
    <ele>29.4</ele>
    <time>2019-09-08T07:56:09Z</time>
   </trkpt>
   <trkpt lat="51.2706130" lon="5.8506040">
    <ele>29.3</ele>
    <time>2019-09-08T07:56:10Z</time>
   </trkpt>
   <trkpt lat="51.2705520" lon="5.8506590">
    <ele>29.3</ele>
    <time>2019-09-08T07:56:11Z</time>
   </trkpt>
   <trkpt lat="51.2704830" lon="5.8507020">
    <ele>29.3</ele>
    <time>2019-09-08T07:56:12Z</time>
   </trkpt>
   <trkpt lat="51.2704110" lon="5.8507630">
    <ele>29.3</ele>
    <time>2019-09-08T07:56:13Z</time>
   </trkpt>
   <trkpt lat="51.2703390" lon="5.8508130">
    <ele>29.3</ele>
    <time>2019-09-08T07:56:14Z</time>
   </trkpt>
   <trkpt lat="51.2702810" lon="5.8508690">
    <ele>29.3</ele>
    <time>2019-09-08T07:56:15Z</time>
   </trkpt>
   <trkpt lat="51.2702130" lon="5.8509150">
    <ele>29.3</ele>
    <time>2019-09-08T07:56:16Z</time>
   </trkpt>
   <trkpt lat="51.2701450" lon="5.8509730">
    <ele>29.3</ele>
    <time>2019-09-08T07:56:17Z</time>
   </trkpt>
   <trkpt lat="51.2700810" lon="5.8510310">
    <ele>29.4</ele>
    <time>2019-09-08T07:56:18Z</time>
   </trkpt>
   <trkpt lat="51.2700210" lon="5.8510830">
    <ele>29.4</ele>
    <time>2019-09-08T07:56:19Z</time>
   </trkpt>
   <trkpt lat="51.2699670" lon="5.8511420">
    <ele>29.4</ele>
    <time>2019-09-08T07:56:20Z</time>
   </trkpt>
   <trkpt lat="51.2699030" lon="5.8511940">
    <ele>29.5</ele>
    <time>2019-09-08T07:56:21Z</time>
   </trkpt>
   <trkpt lat="51.2698510" lon="5.8512270">
    <ele>29.5</ele>
    <time>2019-09-08T07:56:22Z</time>
   </trkpt>
   <trkpt lat="51.2697870" lon="5.8512840">
    <ele>29.6</ele>
    <time>2019-09-08T07:56:23Z</time>
   </trkpt>
   <trkpt lat="51.2697180" lon="5.8513400">
    <ele>29.6</ele>
    <time>2019-09-08T07:56:24Z</time>
   </trkpt>
   <trkpt lat="51.2696400" lon="5.8513790">
    <ele>29.7</ele>
    <time>2019-09-08T07:56:25Z</time>
   </trkpt>
   <trkpt lat="51.2695690" lon="5.8514320">
    <ele>29.8</ele>
    <time>2019-09-08T07:56:26Z</time>
   </trkpt>
   <trkpt lat="51.2694700" lon="5.8514920">
    <ele>29.9</ele>
    <time>2019-09-08T07:56:27Z</time>
   </trkpt>
   <trkpt lat="51.2694060" lon="5.8515370">
    <ele>29.9</ele>
    <time>2019-09-08T07:56:28Z</time>
   </trkpt>
   <trkpt lat="51.2693240" lon="5.8515900">
    <ele>30.0</ele>
    <time>2019-09-08T07:56:29Z</time>
   </trkpt>
   <trkpt lat="51.2692630" lon="5.8516460">
    <ele>30.0</ele>
    <time>2019-09-08T07:56:30Z</time>
   </trkpt>
   <trkpt lat="51.2691950" lon="5.8517000">
    <ele>30.1</ele>
    <time>2019-09-08T07:56:31Z</time>
   </trkpt>
   <trkpt lat="51.2691430" lon="5.8517570">
    <ele>30.2</ele>
    <time>2019-09-08T07:56:32Z</time>
   </trkpt>
   <trkpt lat="51.2690610" lon="5.8518050">
    <ele>30.3</ele>
    <time>2019-09-08T07:56:33Z</time>
   </trkpt>
   <trkpt lat="51.2689840" lon="5.8518560">
    <ele>30.4</ele>
    <time>2019-09-08T07:56:34Z</time>
   </trkpt>
   <trkpt lat="51.2689020" lon="5.8519000">
    <ele>30.5</ele>
    <time>2019-09-08T07:56:35Z</time>
   </trkpt>
   <trkpt lat="51.2688360" lon="5.8519520">
    <ele>30.6</ele>
    <time>2019-09-08T07:56:36Z</time>
   </trkpt>
   <trkpt lat="51.2687650" lon="5.8520000">
    <ele>30.7</ele>
    <time>2019-09-08T07:56:37Z</time>
   </trkpt>
   <trkpt lat="51.2686960" lon="5.8520490">
    <ele>30.8</ele>
    <time>2019-09-08T07:56:38Z</time>
   </trkpt>
   <trkpt lat="51.2686230" lon="5.8521040">
    <ele>30.9</ele>
    <time>2019-09-08T07:56:39Z</time>
   </trkpt>
   <trkpt lat="51.2685550" lon="5.8521520">
    <ele>31.0</ele>
    <time>2019-09-08T07:56:40Z</time>
   </trkpt>
   <trkpt lat="51.2684880" lon="5.8522060">
    <ele>31.1</ele>
    <time>2019-09-08T07:56:41Z</time>
   </trkpt>
   <trkpt lat="51.2684160" lon="5.8522660">
    <ele>31.2</ele>
    <time>2019-09-08T07:56:42Z</time>
   </trkpt>
   <trkpt lat="51.2683510" lon="5.8523190">
    <ele>31.3</ele>
    <time>2019-09-08T07:56:43Z</time>
   </trkpt>
   <trkpt lat="51.2682860" lon="5.8523700">
    <ele>31.4</ele>
    <time>2019-09-08T07:56:44Z</time>
   </trkpt>
   <trkpt lat="51.2682230" lon="5.8524160">
    <ele>31.4</ele>
    <time>2019-09-08T07:56:45Z</time>
   </trkpt>
   <trkpt lat="51.2681630" lon="5.8524670">
    <ele>31.5</ele>
    <time>2019-09-08T07:56:46Z</time>
   </trkpt>
   <trkpt lat="51.2680970" lon="5.8525080">
    <ele>31.6</ele>
    <time>2019-09-08T07:56:47Z</time>
   </trkpt>
   <trkpt lat="51.2680370" lon="5.8525590">
    <ele>31.7</ele>
    <time>2019-09-08T07:56:48Z</time>
   </trkpt>
   <trkpt lat="51.2679550" lon="5.8526260">
    <ele>31.8</ele>
    <time>2019-09-08T07:56:49Z</time>
   </trkpt>
   <trkpt lat="51.2678800" lon="5.8526770">
    <ele>31.9</ele>
    <time>2019-09-08T07:56:50Z</time>
   </trkpt>
   <trkpt lat="51.2678120" lon="5.8527310">
    <ele>32.0</ele>
    <time>2019-09-08T07:56:51Z</time>
   </trkpt>
   <trkpt lat="51.2677420" lon="5.8527790">
    <ele>32.1</ele>
    <time>2019-09-08T07:56:52Z</time>
   </trkpt>
   <trkpt lat="51.2676730" lon="5.8528320">
    <ele>32.1</ele>
    <time>2019-09-08T07:56:53Z</time>
   </trkpt>
   <trkpt lat="51.2676140" lon="5.8528860">
    <ele>32.2</ele>
    <time>2019-09-08T07:56:54Z</time>
   </trkpt>
   <trkpt lat="51.2675520" lon="5.8529400">
    <ele>32.2</ele>
    <time>2019-09-08T07:56:55Z</time>
   </trkpt>
   <trkpt lat="51.2674880" lon="5.8529930">
    <ele>32.3</ele>
    <time>2019-09-08T07:56:56Z</time>
   </trkpt>
   <trkpt lat="51.2674190" lon="5.8530410">
    <ele>32.3</ele>
    <time>2019-09-08T07:56:57Z</time>
   </trkpt>
   <trkpt lat="51.2673440" lon="5.8530940">
    <ele>32.3</ele>
    <time>2019-09-08T07:56:58Z</time>
   </trkpt>
   <trkpt lat="51.2672690" lon="5.8531600">
    <ele>32.3</ele>
    <time>2019-09-08T07:56:59Z</time>
   </trkpt>
   <trkpt lat="51.2671950" lon="5.8532100">
    <ele>32.4</ele>
    <time>2019-09-08T07:57:00Z</time>
   </trkpt>
   <trkpt lat="51.2671240" lon="5.8532720">
    <ele>32.4</ele>
    <time>2019-09-08T07:57:01Z</time>
   </trkpt>
   <trkpt lat="51.2670610" lon="5.8533250">
    <ele>32.4</ele>
    <time>2019-09-08T07:57:02Z</time>
   </trkpt>
   <trkpt lat="51.2669890" lon="5.8533770">
    <ele>32.4</ele>
    <time>2019-09-08T07:57:03Z</time>
   </trkpt>
   <trkpt lat="51.2669170" lon="5.8534270">
    <ele>32.4</ele>
    <time>2019-09-08T07:57:04Z</time>
   </trkpt>
   <trkpt lat="51.2668460" lon="5.8534730">
    <ele>32.5</ele>
    <time>2019-09-08T07:57:05Z</time>
   </trkpt>
   <trkpt lat="51.2667650" lon="5.8535370">
    <ele>32.6</ele>
    <time>2019-09-08T07:57:06Z</time>
   </trkpt>
   <trkpt lat="51.2667010" lon="5.8535950">
    <ele>32.7</ele>
    <time>2019-09-08T07:57:07Z</time>
   </trkpt>
   <trkpt lat="51.2666260" lon="5.8536470">
    <ele>32.9</ele>
    <time>2019-09-08T07:57:08Z</time>
   </trkpt>
   <trkpt lat="51.2665460" lon="5.8536930">
    <ele>33.1</ele>
    <time>2019-09-08T07:57:09Z</time>
   </trkpt>
   <trkpt lat="51.2664780" lon="5.8537330">
    <ele>33.2</ele>
    <time>2019-09-08T07:57:10Z</time>
   </trkpt>
   <trkpt lat="51.2664050" lon="5.8537810">
    <ele>33.4</ele>
    <time>2019-09-08T07:57:11Z</time>
   </trkpt>
   <trkpt lat="51.2663320" lon="5.8538360">
    <ele>33.4</ele>
    <time>2019-09-08T07:57:12Z</time>
   </trkpt>
   <trkpt lat="51.2662690" lon="5.8538960">
    <ele>33.4</ele>
    <time>2019-09-08T07:57:13Z</time>
   </trkpt>
   <trkpt lat="51.2662010" lon="5.8539570">
    <ele>33.2</ele>
    <time>2019-09-08T07:57:14Z</time>
   </trkpt>
   <trkpt lat="51.2661390" lon="5.8540210">
    <ele>32.9</ele>
    <time>2019-09-08T07:57:15Z</time>
   </trkpt>
   <trkpt lat="51.2660740" lon="5.8540900">
    <ele>32.7</ele>
    <time>2019-09-08T07:57:16Z</time>
   </trkpt>
   <trkpt lat="51.2660110" lon="5.8541620">
    <ele>32.5</ele>
    <time>2019-09-08T07:57:17Z</time>
   </trkpt>
   <trkpt lat="51.2659480" lon="5.8542420">
    <ele>32.5</ele>
    <time>2019-09-08T07:57:18Z</time>
   </trkpt>
   <trkpt lat="51.2658940" lon="5.8543160">
    <ele>32.5</ele>
    <time>2019-09-08T07:57:19Z</time>
   </trkpt>
   <trkpt lat="51.2658340" lon="5.8544050">
    <ele>32.6</ele>
    <time>2019-09-08T07:57:20Z</time>
   </trkpt>
   <trkpt lat="51.2657790" lon="5.8544990">
    <ele>32.7</ele>
    <time>2019-09-08T07:57:21Z</time>
   </trkpt>
   <trkpt lat="51.2657250" lon="5.8545850">
    <ele>32.8</ele>
    <time>2019-09-08T07:57:22Z</time>
   </trkpt>
   <trkpt lat="51.2656770" lon="5.8546790">
    <ele>32.8</ele>
    <time>2019-09-08T07:57:23Z</time>
   </trkpt>
   <trkpt lat="51.2656310" lon="5.8547690">
    <ele>32.9</ele>
    <time>2019-09-08T07:57:24Z</time>
   </trkpt>
   <trkpt lat="51.2655800" lon="5.8548640">
    <ele>33.0</ele>
    <time>2019-09-08T07:57:25Z</time>
   </trkpt>
   <trkpt lat="51.2655320" lon="5.8549700">
    <ele>33.1</ele>
    <time>2019-09-08T07:57:26Z</time>
   </trkpt>
   <trkpt lat="51.2654790" lon="5.8550650">
    <ele>33.2</ele>
    <time>2019-09-08T07:57:27Z</time>
   </trkpt>
   <trkpt lat="51.2654310" lon="5.8551660">
    <ele>33.3</ele>
    <time>2019-09-08T07:57:28Z</time>
   </trkpt>
   <trkpt lat="51.2653780" lon="5.8552460">
    <ele>33.4</ele>
    <time>2019-09-08T07:57:29Z</time>
   </trkpt>
   <trkpt lat="51.2653320" lon="5.8553390">
    <ele>33.4</ele>
    <time>2019-09-08T07:57:30Z</time>
   </trkpt>
   <trkpt lat="51.2652900" lon="5.8554330">
    <ele>33.5</ele>
    <time>2019-09-08T07:57:31Z</time>
   </trkpt>
   <trkpt lat="51.2652390" lon="5.8555450">
    <ele>33.5</ele>
    <time>2019-09-08T07:57:32Z</time>
   </trkpt>
   <trkpt lat="51.2651940" lon="5.8556370">
    <ele>33.6</ele>
    <time>2019-09-08T07:57:33Z</time>
   </trkpt>
   <trkpt lat="51.2651450" lon="5.8557280">
    <ele>33.6</ele>
    <time>2019-09-08T07:57:34Z</time>
   </trkpt>
   <trkpt lat="51.2650970" lon="5.8558280">
    <ele>33.6</ele>
    <time>2019-09-08T07:57:35Z</time>
   </trkpt>
   <trkpt lat="51.2650510" lon="5.8559240">
    <ele>33.6</ele>
    <time>2019-09-08T07:57:36Z</time>
   </trkpt>
   <trkpt lat="51.2650060" lon="5.8560220">
    <ele>33.7</ele>
    <time>2019-09-08T07:57:37Z</time>
   </trkpt>
   <trkpt lat="51.2649610" lon="5.8561210">
    <ele>33.7</ele>
    <time>2019-09-08T07:57:38Z</time>
   </trkpt>
   <trkpt lat="51.2649160" lon="5.8562170">
    <ele>33.7</ele>
    <time>2019-09-08T07:57:39Z</time>
   </trkpt>
   <trkpt lat="51.2648730" lon="5.8563120">
    <ele>33.8</ele>
    <time>2019-09-08T07:57:40Z</time>
   </trkpt>
   <trkpt lat="51.2648260" lon="5.8563990">
    <ele>33.9</ele>
    <time>2019-09-08T07:57:41Z</time>
   </trkpt>
   <trkpt lat="51.2647730" lon="5.8564780">
    <ele>33.9</ele>
    <time>2019-09-08T07:57:42Z</time>
   </trkpt>
   <trkpt lat="51.2647220" lon="5.8565620">
    <ele>34.0</ele>
    <time>2019-09-08T07:57:43Z</time>
   </trkpt>
   <trkpt lat="51.2646670" lon="5.8566450">
    <ele>34.0</ele>
    <time>2019-09-08T07:57:44Z</time>
   </trkpt>
   <trkpt lat="51.2646040" lon="5.8567450">
    <ele>33.9</ele>
    <time>2019-09-08T07:57:45Z</time>
   </trkpt>
   <trkpt lat="51.2645560" lon="5.8568220">
    <ele>33.8</ele>
    <time>2019-09-08T07:57:46Z</time>
   </trkpt>
   <trkpt lat="51.2645080" lon="5.8569030">
    <ele>33.7</ele>
    <time>2019-09-08T07:57:47Z</time>
   </trkpt>
   <trkpt lat="51.2644460" lon="5.8569780">
    <ele>33.5</ele>
    <time>2019-09-08T07:57:48Z</time>
   </trkpt>
   <trkpt lat="51.2644030" lon="5.8570560">
    <ele>33.3</ele>
    <time>2019-09-08T07:57:49Z</time>
   </trkpt>
   <trkpt lat="51.2643410" lon="5.8571280">
    <ele>33.2</ele>
    <time>2019-09-08T07:57:50Z</time>
   </trkpt>
   <trkpt lat="51.2642770" lon="5.8571980">
    <ele>33.0</ele>
    <time>2019-09-08T07:57:51Z</time>
   </trkpt>
   <trkpt lat="51.2641950" lon="5.8572450">
    <ele>32.8</ele>
    <time>2019-09-08T07:57:52Z</time>
   </trkpt>
   <trkpt lat="51.2641250" lon="5.8573110">
    <ele>32.6</ele>
    <time>2019-09-08T07:57:53Z</time>
   </trkpt>
   <trkpt lat="51.2640600" lon="5.8573860">
    <ele>32.5</ele>
    <time>2019-09-08T07:57:54Z</time>
   </trkpt>
   <trkpt lat="51.2639960" lon="5.8574550">
    <ele>32.4</ele>
    <time>2019-09-08T07:57:55Z</time>
   </trkpt>
   <trkpt lat="51.2639360" lon="5.8575150">
    <ele>32.2</ele>
    <time>2019-09-08T07:57:56Z</time>
   </trkpt>
   <trkpt lat="51.2638700" lon="5.8575820">
    <ele>32.1</ele>
    <time>2019-09-08T07:57:57Z</time>
   </trkpt>
   <trkpt lat="51.2638020" lon="5.8576330">
    <ele>32.0</ele>
    <time>2019-09-08T07:57:58Z</time>
   </trkpt>
   <trkpt lat="51.2637360" lon="5.8576890">
    <ele>31.9</ele>
    <time>2019-09-08T07:57:59Z</time>
   </trkpt>
   <trkpt lat="51.2636670" lon="5.8577450">
    <ele>31.8</ele>
    <time>2019-09-08T07:58:00Z</time>
   </trkpt>
   <trkpt lat="51.2636080" lon="5.8578180">
    <ele>31.6</ele>
    <time>2019-09-08T07:58:01Z</time>
   </trkpt>
   <trkpt lat="51.2635440" lon="5.8578910">
    <ele>31.5</ele>
    <time>2019-09-08T07:58:02Z</time>
   </trkpt>
   <trkpt lat="51.2634810" lon="5.8579520">
    <ele>31.4</ele>
    <time>2019-09-08T07:58:03Z</time>
   </trkpt>
   <trkpt lat="51.2634170" lon="5.8580170">
    <ele>31.2</ele>
    <time>2019-09-08T07:58:04Z</time>
   </trkpt>
   <trkpt lat="51.2633520" lon="5.8580910">
    <ele>31.1</ele>
    <time>2019-09-08T07:58:05Z</time>
   </trkpt>
   <trkpt lat="51.2632870" lon="5.8581550">
    <ele>31.0</ele>
    <time>2019-09-08T07:58:06Z</time>
   </trkpt>
   <trkpt lat="51.2632250" lon="5.8582180">
    <ele>30.9</ele>
    <time>2019-09-08T07:58:07Z</time>
   </trkpt>
   <trkpt lat="51.2631550" lon="5.8582840">
    <ele>30.8</ele>
    <time>2019-09-08T07:58:08Z</time>
   </trkpt>
   <trkpt lat="51.2630910" lon="5.8583510">
    <ele>30.6</ele>
    <time>2019-09-08T07:58:09Z</time>
   </trkpt>
   <trkpt lat="51.2630330" lon="5.8584240">
    <ele>30.5</ele>
    <time>2019-09-08T07:58:10Z</time>
   </trkpt>
   <trkpt lat="51.2629670" lon="5.8584940">
    <ele>30.4</ele>
    <time>2019-09-08T07:58:11Z</time>
   </trkpt>
   <trkpt lat="51.2629090" lon="5.8585550">
    <ele>30.3</ele>
    <time>2019-09-08T07:58:12Z</time>
   </trkpt>
   <trkpt lat="51.2628490" lon="5.8586130">
    <ele>30.2</ele>
    <time>2019-09-08T07:58:13Z</time>
   </trkpt>
   <trkpt lat="51.2627900" lon="5.8586870">
    <ele>30.1</ele>
    <time>2019-09-08T07:58:14Z</time>
   </trkpt>
   <trkpt lat="51.2627330" lon="5.8587590">
    <ele>30.0</ele>
    <time>2019-09-08T07:58:15Z</time>
   </trkpt>
   <trkpt lat="51.2626700" lon="5.8588260">
    <ele>29.9</ele>
    <time>2019-09-08T07:58:16Z</time>
   </trkpt>
   <trkpt lat="51.2626020" lon="5.8588890">
    <ele>29.8</ele>
    <time>2019-09-08T07:58:17Z</time>
   </trkpt>
   <trkpt lat="51.2625380" lon="5.8589570">
    <ele>29.7</ele>
    <time>2019-09-08T07:58:18Z</time>
   </trkpt>
   <trkpt lat="51.2624790" lon="5.8590230">
    <ele>29.6</ele>
    <time>2019-09-08T07:58:19Z</time>
   </trkpt>
   <trkpt lat="51.2624220" lon="5.8590860">
    <ele>29.6</ele>
    <time>2019-09-08T07:58:20Z</time>
   </trkpt>
   <trkpt lat="51.2623610" lon="5.8591520">
    <ele>29.5</ele>
    <time>2019-09-08T07:58:21Z</time>
   </trkpt>
   <trkpt lat="51.2623010" lon="5.8592170">
    <ele>29.5</ele>
    <time>2019-09-08T07:58:22Z</time>
   </trkpt>
   <trkpt lat="51.2622380" lon="5.8592760">
    <ele>29.4</ele>
    <time>2019-09-08T07:58:23Z</time>
   </trkpt>
   <trkpt lat="51.2621730" lon="5.8593350">
    <ele>29.4</ele>
    <time>2019-09-08T07:58:24Z</time>
   </trkpt>
   <trkpt lat="51.2621060" lon="5.8593940">
    <ele>29.5</ele>
    <time>2019-09-08T07:58:25Z</time>
   </trkpt>
   <trkpt lat="51.2620400" lon="5.8594600">
    <ele>29.5</ele>
    <time>2019-09-08T07:58:26Z</time>
   </trkpt>
   <trkpt lat="51.2619720" lon="5.8595060">
    <ele>29.6</ele>
    <time>2019-09-08T07:58:27Z</time>
   </trkpt>
   <trkpt lat="51.2619000" lon="5.8595510">
    <ele>29.6</ele>
    <time>2019-09-08T07:58:28Z</time>
   </trkpt>
   <trkpt lat="51.2618220" lon="5.8595970">
    <ele>29.7</ele>
    <time>2019-09-08T07:58:29Z</time>
   </trkpt>
   <trkpt lat="51.2617520" lon="5.8596340">
    <ele>29.7</ele>
    <time>2019-09-08T07:58:30Z</time>
   </trkpt>
   <trkpt lat="51.2616780" lon="5.8596680">
    <ele>29.8</ele>
    <time>2019-09-08T07:58:31Z</time>
   </trkpt>
   <trkpt lat="51.2616010" lon="5.8597090">
    <ele>29.8</ele>
    <time>2019-09-08T07:58:32Z</time>
   </trkpt>
   <trkpt lat="51.2615290" lon="5.8597510">
    <ele>29.9</ele>
    <time>2019-09-08T07:58:33Z</time>
   </trkpt>
   <trkpt lat="51.2614550" lon="5.8597910">
    <ele>29.9</ele>
    <time>2019-09-08T07:58:34Z</time>
   </trkpt>
   <trkpt lat="51.2613650" lon="5.8598220">
    <ele>29.9</ele>
    <time>2019-09-08T07:58:35Z</time>
   </trkpt>
   <trkpt lat="51.2612910" lon="5.8598600">
    <ele>30.0</ele>
    <time>2019-09-08T07:58:36Z</time>
   </trkpt>
   <trkpt lat="51.2612220" lon="5.8599090">
    <ele>30.0</ele>
    <time>2019-09-08T07:58:37Z</time>
   </trkpt>
   <trkpt lat="51.2611560" lon="5.8599550">
    <ele>30.0</ele>
    <time>2019-09-08T07:58:38Z</time>
   </trkpt>
   <trkpt lat="51.2610850" lon="5.8599940">
    <ele>30.1</ele>
    <time>2019-09-08T07:58:39Z</time>
   </trkpt>
   <trkpt lat="51.2610290" lon="5.8600490">
    <ele>30.1</ele>
    <time>2019-09-08T07:58:40Z</time>
   </trkpt>
   <trkpt lat="51.2609610" lon="5.8600950">
    <ele>30.1</ele>
    <time>2019-09-08T07:58:41Z</time>
   </trkpt>
   <trkpt lat="51.2608920" lon="5.8601520">
    <ele>30.2</ele>
    <time>2019-09-08T07:58:42Z</time>
   </trkpt>
   <trkpt lat="51.2608300" lon="5.8602070">
    <ele>30.2</ele>
    <time>2019-09-08T07:58:43Z</time>
   </trkpt>
   <trkpt lat="51.2607470" lon="5.8603000">
    <ele>30.3</ele>
    <time>2019-09-08T07:58:44Z</time>
   </trkpt>
   <trkpt lat="51.2606750" lon="5.8603700">
    <ele>30.3</ele>
    <time>2019-09-08T07:58:45Z</time>
   </trkpt>
   <trkpt lat="51.2606040" lon="5.8604410">
    <ele>30.3</ele>
    <time>2019-09-08T07:58:46Z</time>
   </trkpt>
   <trkpt lat="51.2605440" lon="5.8605180">
    <ele>30.4</ele>
    <time>2019-09-08T07:58:47Z</time>
   </trkpt>
   <trkpt lat="51.2604630" lon="5.8605870">
    <ele>30.4</ele>
    <time>2019-09-08T07:58:48Z</time>
   </trkpt>
   <trkpt lat="51.2604200" lon="5.8606620">
    <ele>30.4</ele>
    <time>2019-09-08T07:58:49Z</time>
   </trkpt>
   <trkpt lat="51.2603700" lon="5.8607360">
    <ele>30.4</ele>
    <time>2019-09-08T07:58:50Z</time>
   </trkpt>
   <trkpt lat="51.2603120" lon="5.8608050">
    <ele>30.5</ele>
    <time>2019-09-08T07:58:51Z</time>
   </trkpt>
   <trkpt lat="51.2602330" lon="5.8608750">
    <ele>30.5</ele>
    <time>2019-09-08T07:58:52Z</time>
   </trkpt>
   <trkpt lat="51.2601750" lon="5.8609510">
    <ele>30.5</ele>
    <time>2019-09-08T07:58:53Z</time>
   </trkpt>
   <trkpt lat="51.2601130" lon="5.8610240">
    <ele>30.5</ele>
    <time>2019-09-08T07:58:54Z</time>
   </trkpt>
   <trkpt lat="51.2600370" lon="5.8610930">
    <ele>30.5</ele>
    <time>2019-09-08T07:58:55Z</time>
   </trkpt>
   <trkpt lat="51.2599980" lon="5.8611700">
    <ele>30.5</ele>
    <time>2019-09-08T07:58:56Z</time>
   </trkpt>
   <trkpt lat="51.2599410" lon="5.8612480">
    <ele>30.5</ele>
    <time>2019-09-08T07:58:57Z</time>
   </trkpt>
   <trkpt lat="51.2598580" lon="5.8613430">
    <ele>30.5</ele>
    <time>2019-09-08T07:58:58Z</time>
   </trkpt>
   <trkpt lat="51.2597990" lon="5.8614060">
    <ele>30.6</ele>
    <time>2019-09-08T07:58:59Z</time>
   </trkpt>
   <trkpt lat="51.2597360" lon="5.8614700">
    <ele>30.5</ele>
    <time>2019-09-08T07:59:00Z</time>
   </trkpt>
   <trkpt lat="51.2596720" lon="5.8615400">
    <ele>30.4</ele>
    <time>2019-09-08T07:59:01Z</time>
   </trkpt>
   <trkpt lat="51.2596060" lon="5.8615970">
    <ele>30.4</ele>
    <time>2019-09-08T07:59:02Z</time>
   </trkpt>
   <trkpt lat="51.2595320" lon="5.8616470">
    <ele>30.3</ele>
    <time>2019-09-08T07:59:03Z</time>
   </trkpt>
   <trkpt lat="51.2594640" lon="5.8617040">
    <ele>30.3</ele>
    <time>2019-09-08T07:59:04Z</time>
   </trkpt>
   <trkpt lat="51.2593970" lon="5.8617610">
    <ele>30.2</ele>
    <time>2019-09-08T07:59:05Z</time>
   </trkpt>
   <trkpt lat="51.2593320" lon="5.8617970">
    <ele>30.2</ele>
    <time>2019-09-08T07:59:06Z</time>
   </trkpt>
   <trkpt lat="51.2592660" lon="5.8618430">
    <ele>30.1</ele>
    <time>2019-09-08T07:59:07Z</time>
   </trkpt>
   <trkpt lat="51.2591940" lon="5.8618810">
    <ele>30.1</ele>
    <time>2019-09-08T07:59:08Z</time>
   </trkpt>
   <trkpt lat="51.2591120" lon="5.8619240">
    <ele>30.1</ele>
    <time>2019-09-08T07:59:09Z</time>
   </trkpt>
   <trkpt lat="51.2590510" lon="5.8619580">
    <ele>30.0</ele>
    <time>2019-09-08T07:59:10Z</time>
   </trkpt>
   <trkpt lat="51.2589820" lon="5.8619900">
    <ele>30.0</ele>
    <time>2019-09-08T07:59:11Z</time>
   </trkpt>
   <trkpt lat="51.2589140" lon="5.8620340">
    <ele>29.9</ele>
    <time>2019-09-08T07:59:12Z</time>
   </trkpt>
   <trkpt lat="51.2588400" lon="5.8620610">
    <ele>29.8</ele>
    <time>2019-09-08T07:59:13Z</time>
   </trkpt>
   <trkpt lat="51.2587700" lon="5.8621030">
    <ele>29.8</ele>
    <time>2019-09-08T07:59:14Z</time>
   </trkpt>
   <trkpt lat="51.2586990" lon="5.8621280">
    <ele>29.8</ele>
    <time>2019-09-08T07:59:15Z</time>
   </trkpt>
   <trkpt lat="51.2586180" lon="5.8621530">
    <ele>29.8</ele>
    <time>2019-09-08T07:59:16Z</time>
   </trkpt>
   <trkpt lat="51.2585470" lon="5.8621730">
    <ele>29.8</ele>
    <time>2019-09-08T07:59:17Z</time>
   </trkpt>
   <trkpt lat="51.2584690" lon="5.8621900">
    <ele>29.8</ele>
    <time>2019-09-08T07:59:18Z</time>
   </trkpt>
   <trkpt lat="51.2583960" lon="5.8622040">
    <ele>29.8</ele>
    <time>2019-09-08T07:59:19Z</time>
   </trkpt>
   <trkpt lat="51.2583130" lon="5.8622190">
    <ele>29.8</ele>
    <time>2019-09-08T07:59:20Z</time>
   </trkpt>
   <trkpt lat="51.2582350" lon="5.8622450">
    <ele>29.8</ele>
    <time>2019-09-08T07:59:21Z</time>
   </trkpt>
   <trkpt lat="51.2581610" lon="5.8622630">
    <ele>29.8</ele>
    <time>2019-09-08T07:59:22Z</time>
   </trkpt>
   <trkpt lat="51.2580800" lon="5.8622790">
    <ele>29.9</ele>
    <time>2019-09-08T07:59:23Z</time>
   </trkpt>
   <trkpt lat="51.2579960" lon="5.8622970">
    <ele>29.9</ele>
    <time>2019-09-08T07:59:24Z</time>
   </trkpt>
   <trkpt lat="51.2579100" lon="5.8623120">
    <ele>29.9</ele>
    <time>2019-09-08T07:59:25Z</time>
   </trkpt>
   <trkpt lat="51.2578250" lon="5.8623200">
    <ele>29.9</ele>
    <time>2019-09-08T07:59:26Z</time>
   </trkpt>
   <trkpt lat="51.2577520" lon="5.8623380">
    <ele>29.9</ele>
    <time>2019-09-08T07:59:27Z</time>
   </trkpt>
   <trkpt lat="51.2576800" lon="5.8623650">
    <ele>29.9</ele>
    <time>2019-09-08T07:59:28Z</time>
   </trkpt>
   <trkpt lat="51.2576080" lon="5.8623880">
    <ele>29.9</ele>
    <time>2019-09-08T07:59:29Z</time>
   </trkpt>
   <trkpt lat="51.2575220" lon="5.8624060">
    <ele>29.9</ele>
    <time>2019-09-08T07:59:30Z</time>
   </trkpt>
   <trkpt lat="51.2574450" lon="5.8624240">
    <ele>29.9</ele>
    <time>2019-09-08T07:59:31Z</time>
   </trkpt>
   <trkpt lat="51.2573690" lon="5.8624400">
    <ele>29.8</ele>
    <time>2019-09-08T07:59:32Z</time>
   </trkpt>
   <trkpt lat="51.2572910" lon="5.8624480">
    <ele>29.7</ele>
    <time>2019-09-08T07:59:33Z</time>
   </trkpt>
   <trkpt lat="51.2572120" lon="5.8624700">
    <ele>29.6</ele>
    <time>2019-09-08T07:59:34Z</time>
   </trkpt>
   <trkpt lat="51.2571300" lon="5.8624980">
    <ele>29.5</ele>
    <time>2019-09-08T07:59:35Z</time>
   </trkpt>
   <trkpt lat="51.2570510" lon="5.8625170">
    <ele>29.5</ele>
    <time>2019-09-08T07:59:36Z</time>
   </trkpt>
   <trkpt lat="51.2569630" lon="5.8625280">
    <ele>29.4</ele>
    <time>2019-09-08T07:59:37Z</time>
   </trkpt>
   <trkpt lat="51.2568890" lon="5.8625460">
    <ele>29.3</ele>
    <time>2019-09-08T07:59:38Z</time>
   </trkpt>
   <trkpt lat="51.2568070" lon="5.8625650">
    <ele>29.2</ele>
    <time>2019-09-08T07:59:39Z</time>
   </trkpt>
   <trkpt lat="51.2567330" lon="5.8625750">
    <ele>29.2</ele>
    <time>2019-09-08T07:59:40Z</time>
   </trkpt>
   <trkpt lat="51.2566560" lon="5.8625890">
    <ele>29.3</ele>
    <time>2019-09-08T07:59:41Z</time>
   </trkpt>
   <trkpt lat="51.2565670" lon="5.8626150">
    <ele>29.3</ele>
    <time>2019-09-08T07:59:42Z</time>
   </trkpt>
   <trkpt lat="51.2564920" lon="5.8626250">
    <ele>29.4</ele>
    <time>2019-09-08T07:59:43Z</time>
   </trkpt>
   <trkpt lat="51.2564170" lon="5.8626440">
    <ele>29.5</ele>
    <time>2019-09-08T07:59:44Z</time>
   </trkpt>
   <trkpt lat="51.2563370" lon="5.8626470">
    <ele>29.5</ele>
    <time>2019-09-08T07:59:45Z</time>
   </trkpt>
   <trkpt lat="51.2562550" lon="5.8626640">
    <ele>29.5</ele>
    <time>2019-09-08T07:59:46Z</time>
   </trkpt>
   <trkpt lat="51.2561770" lon="5.8626870">
    <ele>29.5</ele>
    <time>2019-09-08T07:59:47Z</time>
   </trkpt>
   <trkpt lat="51.2561040" lon="5.8627060">
    <ele>29.6</ele>
    <time>2019-09-08T07:59:48Z</time>
   </trkpt>
   <trkpt lat="51.2560400" lon="5.8627290">
    <ele>29.6</ele>
    <time>2019-09-08T07:59:49Z</time>
   </trkpt>
   <trkpt lat="51.2559640" lon="5.8627470">
    <ele>29.6</ele>
    <time>2019-09-08T07:59:50Z</time>
   </trkpt>
   <trkpt lat="51.2558870" lon="5.8627730">
    <ele>29.6</ele>
    <time>2019-09-08T07:59:51Z</time>
   </trkpt>
   <trkpt lat="51.2558120" lon="5.8627880">
    <ele>29.5</ele>
    <time>2019-09-08T07:59:52Z</time>
   </trkpt>
   <trkpt lat="51.2557270" lon="5.8627830">
    <ele>29.5</ele>
    <time>2019-09-08T07:59:53Z</time>
   </trkpt>
   <trkpt lat="51.2556610" lon="5.8628090">
    <ele>29.5</ele>
    <time>2019-09-08T07:59:54Z</time>
   </trkpt>
   <trkpt lat="51.2555930" lon="5.8628270">
    <ele>29.4</ele>
    <time>2019-09-08T07:59:55Z</time>
   </trkpt>
   <trkpt lat="51.2555160" lon="5.8628330">
    <ele>29.4</ele>
    <time>2019-09-08T07:59:56Z</time>
   </trkpt>
   <trkpt lat="51.2554450" lon="5.8628290">
    <ele>29.3</ele>
    <time>2019-09-08T07:59:57Z</time>
   </trkpt>
   <trkpt lat="51.2553780" lon="5.8628400">
    <ele>29.3</ele>
    <time>2019-09-08T07:59:58Z</time>
   </trkpt>
   <trkpt lat="51.2552940" lon="5.8628370">
    <ele>29.3</ele>
    <time>2019-09-08T07:59:59Z</time>
   </trkpt>
   <trkpt lat="51.2552170" lon="5.8628350">
    <ele>29.2</ele>
    <time>2019-09-08T08:00:00Z</time>
   </trkpt>
   <trkpt lat="51.2551420" lon="5.8628450">
    <ele>29.2</ele>
    <time>2019-09-08T08:00:01Z</time>
   </trkpt>
   <trkpt lat="51.2550680" lon="5.8628370">
    <ele>29.2</ele>
    <time>2019-09-08T08:00:02Z</time>
   </trkpt>
   <trkpt lat="51.2549950" lon="5.8628270">
    <ele>29.2</ele>
    <time>2019-09-08T08:00:03Z</time>
   </trkpt>
   <trkpt lat="51.2549190" lon="5.8628150">
    <ele>29.2</ele>
    <time>2019-09-08T08:00:04Z</time>
   </trkpt>
   <trkpt lat="51.2548400" lon="5.8627950">
    <ele>29.2</ele>
    <time>2019-09-08T08:00:05Z</time>
   </trkpt>
   <trkpt lat="51.2547650" lon="5.8627820">
    <ele>29.2</ele>
    <time>2019-09-08T08:00:06Z</time>
   </trkpt>
   <trkpt lat="51.2546820" lon="5.8627550">
    <ele>29.3</ele>
    <time>2019-09-08T08:00:07Z</time>
   </trkpt>
   <trkpt lat="51.2546070" lon="5.8627420">
    <ele>29.3</ele>
    <time>2019-09-08T08:00:08Z</time>
   </trkpt>
   <trkpt lat="51.2545300" lon="5.8627320">
    <ele>29.4</ele>
    <time>2019-09-08T08:00:09Z</time>
   </trkpt>
   <trkpt lat="51.2544370" lon="5.8627270">
    <ele>29.5</ele>
    <time>2019-09-08T08:00:10Z</time>
   </trkpt>
   <trkpt lat="51.2543570" lon="5.8627420">
    <ele>29.5</ele>
    <time>2019-09-08T08:00:11Z</time>
   </trkpt>
   <trkpt lat="51.2542770" lon="5.8627510">
    <ele>29.5</ele>
    <time>2019-09-08T08:00:12Z</time>
   </trkpt>
   <trkpt lat="51.2542070" lon="5.8627570">
    <ele>29.6</ele>
    <time>2019-09-08T08:00:13Z</time>
   </trkpt>
   <trkpt lat="51.2541250" lon="5.8627480">
    <ele>29.6</ele>
    <time>2019-09-08T08:00:14Z</time>
   </trkpt>
   <trkpt lat="51.2540460" lon="5.8627620">
    <ele>29.6</ele>
    <time>2019-09-08T08:00:15Z</time>
   </trkpt>
   <trkpt lat="51.2539880" lon="5.8627800">
    <ele>29.6</ele>
    <time>2019-09-08T08:00:16Z</time>
   </trkpt>
   <trkpt lat="51.2539180" lon="5.8627950">
    <ele>29.7</ele>
    <time>2019-09-08T08:00:17Z</time>
   </trkpt>
   <trkpt lat="51.2538450" lon="5.8628100">
    <ele>29.7</ele>
    <time>2019-09-08T08:00:18Z</time>
   </trkpt>
   <trkpt lat="51.2537620" lon="5.8628150">
    <ele>29.8</ele>
    <time>2019-09-08T08:00:19Z</time>
   </trkpt>
   <trkpt lat="51.2536820" lon="5.8628250">
    <ele>29.8</ele>
    <time>2019-09-08T08:00:20Z</time>
   </trkpt>
   <trkpt lat="51.2536020" lon="5.8628320">
    <ele>29.9</ele>
    <time>2019-09-08T08:00:21Z</time>
   </trkpt>
   <trkpt lat="51.2535280" lon="5.8628090">
    <ele>29.9</ele>
    <time>2019-09-08T08:00:22Z</time>
   </trkpt>
   <trkpt lat="51.2534510" lon="5.8628210">
    <ele>29.9</ele>
    <time>2019-09-08T08:00:23Z</time>
   </trkpt>
   <trkpt lat="51.2533760" lon="5.8628350">
    <ele>30.0</ele>
    <time>2019-09-08T08:00:24Z</time>
   </trkpt>
   <trkpt lat="51.2532990" lon="5.8628530">
    <ele>30.0</ele>
    <time>2019-09-08T08:00:25Z</time>
   </trkpt>
   <trkpt lat="51.2532120" lon="5.8628620">
    <ele>30.0</ele>
    <time>2019-09-08T08:00:26Z</time>
   </trkpt>
   <trkpt lat="51.2531350" lon="5.8628740">
    <ele>30.0</ele>
    <time>2019-09-08T08:00:27Z</time>
   </trkpt>
   <trkpt lat="51.2530690" lon="5.8629030">
    <ele>30.0</ele>
    <time>2019-09-08T08:00:28Z</time>
   </trkpt>
   <trkpt lat="51.2529890" lon="5.8629190">
    <ele>30.0</ele>
    <time>2019-09-08T08:00:29Z</time>
   </trkpt>
   <trkpt lat="51.2529020" lon="5.8629180">
    <ele>30.0</ele>
    <time>2019-09-08T08:00:30Z</time>
   </trkpt>
   <trkpt lat="51.2528230" lon="5.8629350">
    <ele>30.0</ele>
    <time>2019-09-08T08:00:31Z</time>
   </trkpt>
   <trkpt lat="51.2527470" lon="5.8629610">
    <ele>29.9</ele>
    <time>2019-09-08T08:00:32Z</time>
   </trkpt>
   <trkpt lat="51.2526740" lon="5.8629750">
    <ele>29.9</ele>
    <time>2019-09-08T08:00:33Z</time>
   </trkpt>
   <trkpt lat="51.2525910" lon="5.8629860">
    <ele>29.9</ele>
    <time>2019-09-08T08:00:34Z</time>
   </trkpt>
   <trkpt lat="51.2525060" lon="5.8629800">
    <ele>29.9</ele>
    <time>2019-09-08T08:00:35Z</time>
   </trkpt>
   <trkpt lat="51.2524310" lon="5.8630010">
    <ele>29.9</ele>
    <time>2019-09-08T08:00:36Z</time>
   </trkpt>
   <trkpt lat="51.2523500" lon="5.8630130">
    <ele>29.8</ele>
    <time>2019-09-08T08:00:37Z</time>
   </trkpt>
   <trkpt lat="51.2522690" lon="5.8630320">
    <ele>29.8</ele>
    <time>2019-09-08T08:00:38Z</time>
   </trkpt>
   <trkpt lat="51.2522040" lon="5.8630590">
    <ele>29.8</ele>
    <time>2019-09-08T08:00:39Z</time>
   </trkpt>
   <trkpt lat="51.2521140" lon="5.8630640">
    <ele>29.8</ele>
    <time>2019-09-08T08:00:40Z</time>
   </trkpt>
   <trkpt lat="51.2520330" lon="5.8630720">
    <ele>29.8</ele>
    <time>2019-09-08T08:00:41Z</time>
   </trkpt>
   <trkpt lat="51.2519520" lon="5.8630800">
    <ele>29.8</ele>
    <time>2019-09-08T08:00:42Z</time>
   </trkpt>
   <trkpt lat="51.2518740" lon="5.8630880">
    <ele>29.7</ele>
    <time>2019-09-08T08:00:43Z</time>
   </trkpt>
   <trkpt lat="51.2518020" lon="5.8630910">
    <ele>29.7</ele>
    <time>2019-09-08T08:00:44Z</time>
   </trkpt>
   <trkpt lat="51.2517270" lon="5.8630970">
    <ele>29.7</ele>
    <time>2019-09-08T08:00:45Z</time>
   </trkpt>
   <trkpt lat="51.2516580" lon="5.8631130">
    <ele>29.7</ele>
    <time>2019-09-08T08:00:46Z</time>
   </trkpt>
   <trkpt lat="51.2515830" lon="5.8631320">
    <ele>29.7</ele>
    <time>2019-09-08T08:00:47Z</time>
   </trkpt>
   <trkpt lat="51.2515090" lon="5.8631580">
    <ele>29.6</ele>
    <time>2019-09-08T08:00:48Z</time>
   </trkpt>
   <trkpt lat="51.2514340" lon="5.8631760">
    <ele>29.6</ele>
    <time>2019-09-08T08:00:49Z</time>
   </trkpt>
   <trkpt lat="51.2513610" lon="5.8632080">
    <ele>29.6</ele>
    <time>2019-09-08T08:00:50Z</time>
   </trkpt>
   <trkpt lat="51.2512790" lon="5.8632210">
    <ele>29.5</ele>
    <time>2019-09-08T08:00:51Z</time>
   </trkpt>
   <trkpt lat="51.2512050" lon="5.8632460">
    <ele>29.4</ele>
    <time>2019-09-08T08:00:52Z</time>
   </trkpt>
   <trkpt lat="51.2511330" lon="5.8632960">
    <ele>29.4</ele>
    <time>2019-09-08T08:00:53Z</time>
   </trkpt>
   <trkpt lat="51.2510650" lon="5.8633570">
    <ele>29.3</ele>
    <time>2019-09-08T08:00:54Z</time>
   </trkpt>
   <trkpt lat="51.2509980" lon="5.8634180">
    <ele>29.2</ele>
    <time>2019-09-08T08:00:55Z</time>
   </trkpt>
   <trkpt lat="51.2509260" lon="5.8634620">
    <ele>29.0</ele>
    <time>2019-09-08T08:00:56Z</time>
   </trkpt>
   <trkpt lat="51.2508810" lon="5.8635180">
    <ele>28.9</ele>
    <time>2019-09-08T08:00:57Z</time>
   </trkpt>
   <trkpt lat="51.2508070" lon="5.8635750">
    <ele>28.8</ele>
    <time>2019-09-08T08:00:58Z</time>
   </trkpt>
   <trkpt lat="51.2507550" lon="5.8636300">
    <ele>28.7</ele>
    <time>2019-09-08T08:00:59Z</time>
   </trkpt>
   <trkpt lat="51.2507100" lon="5.8636760">
    <ele>28.6</ele>
    <time>2019-09-08T08:01:00Z</time>
   </trkpt>
   <trkpt lat="51.2506580" lon="5.8637090">
    <ele>28.6</ele>
    <time>2019-09-08T08:01:01Z</time>
   </trkpt>
   <trkpt lat="51.2505980" lon="5.8637240">
    <ele>28.5</ele>
    <time>2019-09-08T08:01:02Z</time>
   </trkpt>
   <trkpt lat="51.2505460" lon="5.8636940">
    <ele>28.5</ele>
    <time>2019-09-08T08:01:03Z</time>
   </trkpt>
   <trkpt lat="51.2505030" lon="5.8636370">
    <ele>28.6</ele>
    <time>2019-09-08T08:01:04Z</time>
   </trkpt>
   <trkpt lat="51.2504680" lon="5.8635500">
    <ele>28.6</ele>
    <time>2019-09-08T08:01:05Z</time>
   </trkpt>
   <trkpt lat="51.2504440" lon="5.8634550">
    <ele>28.7</ele>
    <time>2019-09-08T08:01:06Z</time>
   </trkpt>
   <trkpt lat="51.2504170" lon="5.8633480">
    <ele>28.7</ele>
    <time>2019-09-08T08:01:07Z</time>
   </trkpt>
   <trkpt lat="51.2503930" lon="5.8632470">
    <ele>28.7</ele>
    <time>2019-09-08T08:01:08Z</time>
   </trkpt>
   <trkpt lat="51.2503790" lon="5.8631260">
    <ele>28.7</ele>
    <time>2019-09-08T08:01:09Z</time>
   </trkpt>
   <trkpt lat="51.2503630" lon="5.8630140">
    <ele>28.7</ele>
    <time>2019-09-08T08:01:10Z</time>
   </trkpt>
   <trkpt lat="51.2503450" lon="5.8629040">
    <ele>28.7</ele>
    <time>2019-09-08T08:01:11Z</time>
   </trkpt>
   <trkpt lat="51.2503300" lon="5.8627780">
    <ele>28.7</ele>
    <time>2019-09-08T08:01:12Z</time>
   </trkpt>
   <trkpt lat="51.2503150" lon="5.8626610">
    <ele>28.7</ele>
    <time>2019-09-08T08:01:13Z</time>
   </trkpt>
   <trkpt lat="51.2503110" lon="5.8625450">
    <ele>28.7</ele>
    <time>2019-09-08T08:01:14Z</time>
   </trkpt>
   <trkpt lat="51.2503070" lon="5.8624250">
    <ele>28.7</ele>
    <time>2019-09-08T08:01:15Z</time>
   </trkpt>
   <trkpt lat="51.2503080" lon="5.8623000">
    <ele>28.8</ele>
    <time>2019-09-08T08:01:16Z</time>
   </trkpt>
   <trkpt lat="51.2503190" lon="5.8621950">
    <ele>28.8</ele>
    <time>2019-09-08T08:01:17Z</time>
   </trkpt>
   <trkpt lat="51.2503350" lon="5.8620740">
    <ele>28.8</ele>
    <time>2019-09-08T08:01:18Z</time>
   </trkpt>
   <trkpt lat="51.2503430" lon="5.8619510">
    <ele>28.8</ele>
    <time>2019-09-08T08:01:19Z</time>
   </trkpt>
   <trkpt lat="51.2503470" lon="5.8618290">
    <ele>28.9</ele>
    <time>2019-09-08T08:01:20Z</time>
   </trkpt>
   <trkpt lat="51.2503590" lon="5.8617090">
    <ele>28.9</ele>
    <time>2019-09-08T08:01:21Z</time>
   </trkpt>
   <trkpt lat="51.2503670" lon="5.8615770">
    <ele>29.0</ele>
    <time>2019-09-08T08:01:22Z</time>
   </trkpt>
   <trkpt lat="51.2503750" lon="5.8614580">
    <ele>29.0</ele>
    <time>2019-09-08T08:01:23Z</time>
   </trkpt>
   <trkpt lat="51.2503860" lon="5.8613470">
    <ele>29.0</ele>
    <time>2019-09-08T08:01:24Z</time>
   </trkpt>
   <trkpt lat="51.2503920" lon="5.8612300">
    <ele>29.1</ele>
    <time>2019-09-08T08:01:25Z</time>
   </trkpt>
   <trkpt lat="51.2503970" lon="5.8611150">
    <ele>29.1</ele>
    <time>2019-09-08T08:01:26Z</time>
   </trkpt>
   <trkpt lat="51.2504090" lon="5.8609940">
    <ele>29.2</ele>
    <time>2019-09-08T08:01:27Z</time>
   </trkpt>
   <trkpt lat="51.2504220" lon="5.8608750">
    <ele>29.2</ele>
    <time>2019-09-08T08:01:28Z</time>
   </trkpt>
   <trkpt lat="51.2504230" lon="5.8607550">
    <ele>29.2</ele>
    <time>2019-09-08T08:01:29Z</time>
   </trkpt>
   <trkpt lat="51.2504330" lon="5.8606290">
    <ele>29.2</ele>
    <time>2019-09-08T08:01:30Z</time>
   </trkpt>
   <trkpt lat="51.2504370" lon="5.8605040">
    <ele>29.2</ele>
    <time>2019-09-08T08:01:31Z</time>
   </trkpt>
   <trkpt lat="51.2504360" lon="5.8603900">
    <ele>29.2</ele>
    <time>2019-09-08T08:01:32Z</time>
   </trkpt>
   <trkpt lat="51.2504420" lon="5.8602760">
    <ele>29.2</ele>
    <time>2019-09-08T08:01:33Z</time>
   </trkpt>
   <trkpt lat="51.2504490" lon="5.8601520">
    <ele>29.2</ele>
    <time>2019-09-08T08:01:34Z</time>
   </trkpt>
   <trkpt lat="51.2504570" lon="5.8600330">
    <ele>29.2</ele>
    <time>2019-09-08T08:01:35Z</time>
   </trkpt>
   <trkpt lat="51.2504540" lon="5.8599130">
    <ele>29.3</ele>
    <time>2019-09-08T08:01:36Z</time>
   </trkpt>
   <trkpt lat="51.2504490" lon="5.8597950">
    <ele>29.3</ele>
    <time>2019-09-08T08:01:37Z</time>
   </trkpt>
   <trkpt lat="51.2504420" lon="5.8597060">
    <ele>29.3</ele>
    <time>2019-09-08T08:01:38Z</time>
   </trkpt>
   <trkpt lat="51.2504370" lon="5.8595860">
    <ele>29.3</ele>
    <time>2019-09-08T08:01:39Z</time>
   </trkpt>
   <trkpt lat="51.2504260" lon="5.8594660">
    <ele>29.4</ele>
    <time>2019-09-08T08:01:40Z</time>
   </trkpt>
   <trkpt lat="51.2504180" lon="5.8593630">
    <ele>29.4</ele>
    <time>2019-09-08T08:01:41Z</time>
   </trkpt>
   <trkpt lat="51.2504120" lon="5.8592490">
    <ele>29.5</ele>
    <time>2019-09-08T08:01:42Z</time>
   </trkpt>
   <trkpt lat="51.2504010" lon="5.8591300">
    <ele>29.5</ele>
    <time>2019-09-08T08:01:43Z</time>
   </trkpt>
   <trkpt lat="51.2503910" lon="5.8590120">
    <ele>29.6</ele>
    <time>2019-09-08T08:01:44Z</time>
   </trkpt>
   <trkpt lat="51.2503780" lon="5.8588790">
    <ele>29.6</ele>
    <time>2019-09-08T08:01:45Z</time>
   </trkpt>
   <trkpt lat="51.2503600" lon="5.8587650">
    <ele>29.7</ele>
    <time>2019-09-08T08:01:46Z</time>
   </trkpt>
   <trkpt lat="51.2503420" lon="5.8586460">
    <ele>29.7</ele>
    <time>2019-09-08T08:01:47Z</time>
   </trkpt>
   <trkpt lat="51.2503280" lon="5.8585200">
    <ele>29.7</ele>
    <time>2019-09-08T08:01:48Z</time>
   </trkpt>
   <trkpt lat="51.2503120" lon="5.8583960">
    <ele>29.8</ele>
    <time>2019-09-08T08:01:49Z</time>
   </trkpt>
   <trkpt lat="51.2502990" lon="5.8582670">
    <ele>29.8</ele>
    <time>2019-09-08T08:01:50Z</time>
   </trkpt>
   <trkpt lat="51.2502840" lon="5.8581500">
    <ele>29.8</ele>
    <time>2019-09-08T08:01:51Z</time>
   </trkpt>
   <trkpt lat="51.2502800" lon="5.8580300">
    <ele>29.9</ele>
    <time>2019-09-08T08:01:52Z</time>
   </trkpt>
   <trkpt lat="51.2502610" lon="5.8579180">
    <ele>29.9</ele>
    <time>2019-09-08T08:01:53Z</time>
   </trkpt>
   <trkpt lat="51.2502450" lon="5.8577940">
    <ele>29.9</ele>
    <time>2019-09-08T08:01:54Z</time>
   </trkpt>
   <trkpt lat="51.2502370" lon="5.8576700">
    <ele>29.9</ele>
    <time>2019-09-08T08:01:55Z</time>
   </trkpt>
   <trkpt lat="51.2502230" lon="5.8575430">
    <ele>29.9</ele>
    <time>2019-09-08T08:01:56Z</time>
   </trkpt>
   <trkpt lat="51.2502100" lon="5.8574190">
    <ele>29.9</ele>
    <time>2019-09-08T08:01:57Z</time>
   </trkpt>
   <trkpt lat="51.2501960" lon="5.8573060">
    <ele>29.9</ele>
    <time>2019-09-08T08:01:58Z</time>
   </trkpt>
   <trkpt lat="51.2501760" lon="5.8571890">
    <ele>29.9</ele>
    <time>2019-09-08T08:01:59Z</time>
   </trkpt>
   <trkpt lat="51.2501600" lon="5.8570630">
    <ele>30.0</ele>
    <time>2019-09-08T08:02:00Z</time>
   </trkpt>
   <trkpt lat="51.2501410" lon="5.8569480">
    <ele>30.0</ele>
    <time>2019-09-08T08:02:01Z</time>
   </trkpt>
   <trkpt lat="51.2501240" lon="5.8568320">
    <ele>30.0</ele>
    <time>2019-09-08T08:02:02Z</time>
   </trkpt>
   <trkpt lat="51.2501070" lon="5.8567220">
    <ele>30.0</ele>
    <time>2019-09-08T08:02:03Z</time>
   </trkpt>
   <trkpt lat="51.2500920" lon="5.8566030">
    <ele>30.0</ele>
    <time>2019-09-08T08:02:04Z</time>
   </trkpt>
   <trkpt lat="51.2500950" lon="5.8564890">
    <ele>30.1</ele>
    <time>2019-09-08T08:02:05Z</time>
   </trkpt>
   <trkpt lat="51.2500930" lon="5.8563650">
    <ele>30.1</ele>
    <time>2019-09-08T08:02:06Z</time>
   </trkpt>
   <trkpt lat="51.2500780" lon="5.8562490">
    <ele>30.2</ele>
    <time>2019-09-08T08:02:07Z</time>
   </trkpt>
   <trkpt lat="51.2500650" lon="5.8561500">
    <ele>30.2</ele>
    <time>2019-09-08T08:02:08Z</time>
   </trkpt>
   <trkpt lat="51.2500450" lon="5.8560460">
    <ele>30.3</ele>
    <time>2019-09-08T08:02:09Z</time>
   </trkpt>
   <trkpt lat="51.2500380" lon="5.8559380">
    <ele>30.3</ele>
    <time>2019-09-08T08:02:10Z</time>
   </trkpt>
   <trkpt lat="51.2500220" lon="5.8558460">
    <ele>30.4</ele>
    <time>2019-09-08T08:02:11Z</time>
   </trkpt>
   <trkpt lat="51.2500070" lon="5.8557630">
    <ele>30.4</ele>
    <time>2019-09-08T08:02:12Z</time>
   </trkpt>
   <trkpt lat="51.2499930" lon="5.8556960">
    <ele>30.5</ele>
    <time>2019-09-08T08:02:13Z</time>
   </trkpt>
   <trkpt lat="51.2499500" lon="5.8556490">
    <ele>30.5</ele>
    <time>2019-09-08T08:02:14Z</time>
   </trkpt>
   <trkpt lat="51.2499110" lon="5.8556140">
    <ele>30.5</ele>
    <time>2019-09-08T08:02:15Z</time>
   </trkpt>
   <trkpt lat="51.2498660" lon="5.8555810">
    <ele>30.4</ele>
    <time>2019-09-08T08:02:16Z</time>
   </trkpt>
   <trkpt lat="51.2498340" lon="5.8555040">
    <ele>30.3</ele>
    <time>2019-09-08T08:02:17Z</time>
   </trkpt>
   <trkpt lat="51.2498290" lon="5.8554120">
    <ele>30.2</ele>
    <time>2019-09-08T08:02:18Z</time>
   </trkpt>
   <trkpt lat="51.2498240" lon="5.8553090">
    <ele>30.1</ele>
    <time>2019-09-08T08:02:19Z</time>
   </trkpt>
   <trkpt lat="51.2498260" lon="5.8552080">
    <ele>30.0</ele>
    <time>2019-09-08T08:02:20Z</time>
   </trkpt>
   <trkpt lat="51.2498240" lon="5.8550980">
    <ele>29.9</ele>
    <time>2019-09-08T08:02:21Z</time>
   </trkpt>
   <trkpt lat="51.2498240" lon="5.8549790">
    <ele>29.8</ele>
    <time>2019-09-08T08:02:22Z</time>
   </trkpt>
   <trkpt lat="51.2498250" lon="5.8548740">
    <ele>29.7</ele>
    <time>2019-09-08T08:02:23Z</time>
   </trkpt>
   <trkpt lat="51.2498290" lon="5.8547590">
    <ele>29.7</ele>
    <time>2019-09-08T08:02:24Z</time>
   </trkpt>
   <trkpt lat="51.2498290" lon="5.8546450">
    <ele>29.6</ele>
    <time>2019-09-08T08:02:25Z</time>
   </trkpt>
   <trkpt lat="51.2498310" lon="5.8545290">
    <ele>29.5</ele>
    <time>2019-09-08T08:02:26Z</time>
   </trkpt>
   <trkpt lat="51.2498310" lon="5.8544260">
    <ele>29.4</ele>
    <time>2019-09-08T08:02:27Z</time>
   </trkpt>
   <trkpt lat="51.2498360" lon="5.8543140">
    <ele>29.3</ele>
    <time>2019-09-08T08:02:28Z</time>
   </trkpt>
   <trkpt lat="51.2498370" lon="5.8542090">
    <ele>29.3</ele>
    <time>2019-09-08T08:02:29Z</time>
   </trkpt>
   <trkpt lat="51.2498420" lon="5.8541000">
    <ele>29.2</ele>
    <time>2019-09-08T08:02:30Z</time>
   </trkpt>
   <trkpt lat="51.2498460" lon="5.8538950">
    <ele>29.1</ele>
    <time>2019-09-08T08:02:32Z</time>
   </trkpt>
   <trkpt lat="51.2498440" lon="5.8537850">
    <ele>29.0</ele>
    <time>2019-09-08T08:02:33Z</time>
   </trkpt>
   <trkpt lat="51.2498390" lon="5.8536790">
    <ele>29.0</ele>
    <time>2019-09-08T08:02:34Z</time>
   </trkpt>
   <trkpt lat="51.2498370" lon="5.8535690">
    <ele>28.9</ele>
    <time>2019-09-08T08:02:35Z</time>
   </trkpt>
   <trkpt lat="51.2498300" lon="5.8534530">
    <ele>28.9</ele>
    <time>2019-09-08T08:02:36Z</time>
   </trkpt>
   <trkpt lat="51.2498290" lon="5.8533320">
    <ele>28.9</ele>
    <time>2019-09-08T08:02:37Z</time>
   </trkpt>
   <trkpt lat="51.2498250" lon="5.8532150">
    <ele>28.8</ele>
    <time>2019-09-08T08:02:38Z</time>
   </trkpt>
   <trkpt lat="51.2498190" lon="5.8530920">
    <ele>28.8</ele>
    <time>2019-09-08T08:02:39Z</time>
   </trkpt>
   <trkpt lat="51.2498160" lon="5.8529820">
    <ele>28.8</ele>
    <time>2019-09-08T08:02:40Z</time>
   </trkpt>
   <trkpt lat="51.2498110" lon="5.8528620">
    <ele>28.8</ele>
    <time>2019-09-08T08:02:41Z</time>
   </trkpt>
   <trkpt lat="51.2498050" lon="5.8527490">
    <ele>28.9</ele>
    <time>2019-09-08T08:02:42Z</time>
   </trkpt>
   <trkpt lat="51.2497910" lon="5.8526310">
    <ele>28.9</ele>
    <time>2019-09-08T08:02:43Z</time>
   </trkpt>
   <trkpt lat="51.2497800" lon="5.8525110">
    <ele>29.0</ele>
    <time>2019-09-08T08:02:44Z</time>
   </trkpt>
   <trkpt lat="51.2497810" lon="5.8523800">
    <ele>29.0</ele>
    <time>2019-09-08T08:02:45Z</time>
   </trkpt>
   <trkpt lat="51.2497690" lon="5.8522690">
    <ele>29.1</ele>
    <time>2019-09-08T08:02:46Z</time>
   </trkpt>
   <trkpt lat="51.2497570" lon="5.8521650">
    <ele>29.1</ele>
    <time>2019-09-08T08:02:47Z</time>
   </trkpt>
   <trkpt lat="51.2497430" lon="5.8520500">
    <ele>29.2</ele>
    <time>2019-09-08T08:02:48Z</time>
   </trkpt>
   <trkpt lat="51.2497330" lon="5.8519340">
    <ele>29.2</ele>
    <time>2019-09-08T08:02:49Z</time>
   </trkpt>
   <trkpt lat="51.2497250" lon="5.8518310">
    <ele>29.3</ele>
    <time>2019-09-08T08:02:50Z</time>
   </trkpt>
   <trkpt lat="51.2497160" lon="5.8517240">
    <ele>29.3</ele>
    <time>2019-09-08T08:02:51Z</time>
   </trkpt>
   <trkpt lat="51.2496980" lon="5.8516120">
    <ele>29.3</ele>
    <time>2019-09-08T08:02:52Z</time>
   </trkpt>
   <trkpt lat="51.2496820" lon="5.8515070">
    <ele>29.4</ele>
    <time>2019-09-08T08:02:53Z</time>
   </trkpt>
   <trkpt lat="51.2496680" lon="5.8513990">
    <ele>29.4</ele>
    <time>2019-09-08T08:02:54Z</time>
   </trkpt>
   <trkpt lat="51.2496460" lon="5.8512970">
    <ele>29.4</ele>
    <time>2019-09-08T08:02:55Z</time>
   </trkpt>
   <trkpt lat="51.2496300" lon="5.8512020">
    <ele>29.4</ele>
    <time>2019-09-08T08:02:56Z</time>
   </trkpt>
   <trkpt lat="51.2496040" lon="5.8511240">
    <ele>29.4</ele>
    <time>2019-09-08T08:02:57Z</time>
   </trkpt>
   <trkpt lat="51.2495690" lon="5.8510640">
    <ele>29.4</ele>
    <time>2019-09-08T08:02:58Z</time>
   </trkpt>
   <trkpt lat="51.2495340" lon="5.8510140">
    <ele>29.4</ele>
    <time>2019-09-08T08:02:59Z</time>
   </trkpt>
   <trkpt lat="51.2495100" lon="5.8509840">
    <ele>29.4</ele>
    <time>2019-09-08T08:03:00Z</time>
   </trkpt>
   <trkpt lat="51.2494840" lon="5.8509370">
    <ele>29.3</ele>
    <time>2019-09-08T08:03:01Z</time>
   </trkpt>
   <trkpt lat="51.2494730" lon="5.8508620">
    <ele>29.3</ele>
    <time>2019-09-08T08:03:02Z</time>
   </trkpt>
   <trkpt lat="51.2494770" lon="5.8507800">
    <ele>29.3</ele>
    <time>2019-09-08T08:03:03Z</time>
   </trkpt>
   <trkpt lat="51.2494860" lon="5.8506840">
    <ele>29.2</ele>
    <time>2019-09-08T08:03:04Z</time>
   </trkpt>
   <trkpt lat="51.2495100" lon="5.8505920">
    <ele>29.2</ele>
    <time>2019-09-08T08:03:05Z</time>
   </trkpt>
   <trkpt lat="51.2495260" lon="5.8504830">
    <ele>29.2</ele>
    <time>2019-09-08T08:03:06Z</time>
   </trkpt>
   <trkpt lat="51.2495460" lon="5.8503730">
    <ele>29.2</ele>
    <time>2019-09-08T08:03:07Z</time>
   </trkpt>
   <trkpt lat="51.2495670" lon="5.8502740">
    <ele>29.2</ele>
    <time>2019-09-08T08:03:08Z</time>
   </trkpt>
   <trkpt lat="51.2495840" lon="5.8501690">
    <ele>29.3</ele>
    <time>2019-09-08T08:03:09Z</time>
   </trkpt>
   <trkpt lat="51.2496020" lon="5.8500520">
    <ele>29.5</ele>
    <time>2019-09-08T08:03:10Z</time>
   </trkpt>
   <trkpt lat="51.2496170" lon="5.8499300">
    <ele>29.6</ele>
    <time>2019-09-08T08:03:11Z</time>
   </trkpt>
   <trkpt lat="51.2496330" lon="5.8498090">
    <ele>29.8</ele>
    <time>2019-09-08T08:03:12Z</time>
   </trkpt>
   <trkpt lat="51.2496440" lon="5.8496970">
    <ele>30.0</ele>
    <time>2019-09-08T08:03:13Z</time>
   </trkpt>
   <trkpt lat="51.2496520" lon="5.8495760">
    <ele>30.2</ele>
    <time>2019-09-08T08:03:14Z</time>
   </trkpt>
   <trkpt lat="51.2496690" lon="5.8494590">
    <ele>30.3</ele>
    <time>2019-09-08T08:03:15Z</time>
   </trkpt>
   <trkpt lat="51.2496810" lon="5.8493410">
    <ele>30.5</ele>
    <time>2019-09-08T08:03:16Z</time>
   </trkpt>
   <trkpt lat="51.2496940" lon="5.8492300">
    <ele>30.6</ele>
    <time>2019-09-08T08:03:17Z</time>
   </trkpt>
   <trkpt lat="51.2497060" lon="5.8491200">
    <ele>30.8</ele>
    <time>2019-09-08T08:03:18Z</time>
   </trkpt>
   <trkpt lat="51.2497150" lon="5.8490100">
    <ele>30.9</ele>
    <time>2019-09-08T08:03:19Z</time>
   </trkpt>
   <trkpt lat="51.2497290" lon="5.8489010">
    <ele>30.9</ele>
    <time>2019-09-08T08:03:20Z</time>
   </trkpt>
   <trkpt lat="51.2497450" lon="5.8487840">
    <ele>31.0</ele>
    <time>2019-09-08T08:03:21Z</time>
   </trkpt>
   <trkpt lat="51.2497600" lon="5.8486650">
    <ele>31.1</ele>
    <time>2019-09-08T08:03:22Z</time>
   </trkpt>
   <trkpt lat="51.2497720" lon="5.8485470">
    <ele>31.3</ele>
    <time>2019-09-08T08:03:23Z</time>
   </trkpt>
   <trkpt lat="51.2497840" lon="5.8484310">
    <ele>31.4</ele>
    <time>2019-09-08T08:03:24Z</time>
   </trkpt>
   <trkpt lat="51.2497950" lon="5.8483170">
    <ele>31.5</ele>
    <time>2019-09-08T08:03:25Z</time>
   </trkpt>
   <trkpt lat="51.2498030" lon="5.8481980">
    <ele>31.6</ele>
    <time>2019-09-08T08:03:26Z</time>
   </trkpt>
   <trkpt lat="51.2498080" lon="5.8480820">
    <ele>31.7</ele>
    <time>2019-09-08T08:03:27Z</time>
   </trkpt>
   <trkpt lat="51.2498140" lon="5.8479690">
    <ele>31.8</ele>
    <time>2019-09-08T08:03:28Z</time>
   </trkpt>
   <trkpt lat="51.2498180" lon="5.8478490">
    <ele>31.8</ele>
    <time>2019-09-08T08:03:29Z</time>
   </trkpt>
   <trkpt lat="51.2498170" lon="5.8477280">
    <ele>31.9</ele>
    <time>2019-09-08T08:03:30Z</time>
   </trkpt>
   <trkpt lat="51.2498110" lon="5.8476060">
    <ele>32.0</ele>
    <time>2019-09-08T08:03:31Z</time>
   </trkpt>
   <trkpt lat="51.2498010" lon="5.8474870">
    <ele>32.1</ele>
    <time>2019-09-08T08:03:32Z</time>
   </trkpt>
   <trkpt lat="51.2497840" lon="5.8473720">
    <ele>32.1</ele>
    <time>2019-09-08T08:03:33Z</time>
   </trkpt>
   <trkpt lat="51.2497690" lon="5.8472580">
    <ele>32.2</ele>
    <time>2019-09-08T08:03:34Z</time>
   </trkpt>
   <trkpt lat="51.2497480" lon="5.8471440">
    <ele>32.2</ele>
    <time>2019-09-08T08:03:35Z</time>
   </trkpt>
   <trkpt lat="51.2497280" lon="5.8470310">
    <ele>32.2</ele>
    <time>2019-09-08T08:03:36Z</time>
   </trkpt>
   <trkpt lat="51.2497140" lon="5.8469320">
    <ele>32.2</ele>
    <time>2019-09-08T08:03:37Z</time>
   </trkpt>
   <trkpt lat="51.2497030" lon="5.8468380">
    <ele>32.2</ele>
    <time>2019-09-08T08:03:38Z</time>
   </trkpt>
   <trkpt lat="51.2496900" lon="5.8467380">
    <ele>32.2</ele>
    <time>2019-09-08T08:03:39Z</time>
   </trkpt>
   <trkpt lat="51.2496770" lon="5.8466370">
    <ele>32.3</ele>
    <time>2019-09-08T08:03:40Z</time>
   </trkpt>
   <trkpt lat="51.2496650" lon="5.8465420">
    <ele>32.3</ele>
    <time>2019-09-08T08:03:41Z</time>
   </trkpt>
   <trkpt lat="51.2496490" lon="5.8464480">
    <ele>32.3</ele>
    <time>2019-09-08T08:03:42Z</time>
   </trkpt>
   <trkpt lat="51.2496390" lon="5.8463540">
    <ele>32.4</ele>
    <time>2019-09-08T08:03:43Z</time>
   </trkpt>
   <trkpt lat="51.2496270" lon="5.8462610">
    <ele>32.4</ele>
    <time>2019-09-08T08:03:44Z</time>
   </trkpt>
   <trkpt lat="51.2496190" lon="5.8461710">
    <ele>32.4</ele>
    <time>2019-09-08T08:03:45Z</time>
   </trkpt>
   <trkpt lat="51.2496110" lon="5.8460840">
    <ele>32.5</ele>
    <time>2019-09-08T08:03:46Z</time>
   </trkpt>
   <trkpt lat="51.2496090" lon="5.8459990">
    <ele>32.5</ele>
    <time>2019-09-08T08:03:47Z</time>
   </trkpt>
   <trkpt lat="51.2496050" lon="5.8459160">
    <ele>32.5</ele>
    <time>2019-09-08T08:03:48Z</time>
   </trkpt>
   <trkpt lat="51.2496070" lon="5.8458390">
    <ele>32.5</ele>
    <time>2019-09-08T08:03:49Z</time>
   </trkpt>
   <trkpt lat="51.2496140" lon="5.8457670">
    <ele>32.5</ele>
    <time>2019-09-08T08:03:50Z</time>
   </trkpt>
   <trkpt lat="51.2496300" lon="5.8457000">
    <ele>32.5</ele>
    <time>2019-09-08T08:03:51Z</time>
   </trkpt>
   <trkpt lat="51.2496500" lon="5.8456430">
    <ele>32.5</ele>
    <time>2019-09-08T08:03:52Z</time>
   </trkpt>
   <trkpt lat="51.2496630" lon="5.8455960">
    <ele>32.5</ele>
    <time>2019-09-08T08:03:53Z</time>
   </trkpt>
   <trkpt lat="51.2496730" lon="5.8455500">
    <ele>32.4</ele>
    <time>2019-09-08T08:03:54Z</time>
   </trkpt>
   <trkpt lat="51.2496790" lon="5.8455070">
    <ele>32.4</ele>
    <time>2019-09-08T08:03:55Z</time>
   </trkpt>
   <trkpt lat="51.2496710" lon="5.8454530">
    <ele>32.5</ele>
    <time>2019-09-08T08:03:57Z</time>
   </trkpt>
   <trkpt lat="51.2496620" lon="5.8454110">
    <ele>32.5</ele>
    <time>2019-09-08T08:04:09Z</time>
   </trkpt>
   <trkpt lat="51.2496770" lon="5.8453690">
    <ele>32.5</ele>
    <time>2019-09-08T08:04:56Z</time>
   </trkpt>
   <trkpt lat="51.2497040" lon="5.8453560">
    <ele>32.4</ele>
    <time>2019-09-08T08:05:34Z</time>
   </trkpt>
   <trkpt lat="51.2497090" lon="5.8454020">
    <ele>32.4</ele>
    <time>2019-09-08T08:05:41Z</time>
   </trkpt>
   <trkpt lat="51.2496850" lon="5.8454220">
    <ele>32.5</ele>
    <time>2019-09-08T08:05:53Z</time>
   </trkpt>
   <trkpt lat="51.2496590" lon="5.8454440">
    <ele>32.5</ele>
    <time>2019-09-08T08:06:00Z</time>
   </trkpt>
   <trkpt lat="51.2496310" lon="5.8454500">
    <ele>32.5</ele>
    <time>2019-09-08T08:06:05Z</time>
   </trkpt>
   <trkpt lat="51.2496160" lon="5.8454130">
    <ele>32.5</ele>
    <time>2019-09-08T08:06:12Z</time>
   </trkpt>
   <trkpt lat="51.2496220" lon="5.8453280">
    <ele>32.5</ele>
    <time>2019-09-08T08:06:14Z</time>
   </trkpt>
   <trkpt lat="51.2496020" lon="5.8452920">
    <ele>32.6</ele>
    <time>2019-09-08T08:06:19Z</time>
   </trkpt>
   <trkpt lat="51.2496100" lon="5.8453890">
    <ele>32.6</ele>
    <time>2019-09-08T08:07:20Z</time>
   </trkpt>
   <trkpt lat="51.2496330" lon="5.8453690">
    <ele>32.5</ele>
    <time>2019-09-08T08:07:32Z</time>
   </trkpt>
   <trkpt lat="51.2496100" lon="5.8453990">
    <ele>32.6</ele>
    <time>2019-09-08T08:07:51Z</time>
   </trkpt>
   <trkpt lat="51.2496340" lon="5.8454210">
    <ele>32.5</ele>
    <time>2019-09-08T08:07:55Z</time>
   </trkpt>
   <trkpt lat="51.2496600" lon="5.8454060">
    <ele>32.5</ele>
    <time>2019-09-08T08:08:01Z</time>
   </trkpt>
   <trkpt lat="51.2496310" lon="5.8454000">
    <ele>32.5</ele>
    <time>2019-09-08T08:08:58Z</time>
   </trkpt>
   <trkpt lat="51.2496450" lon="5.8454720">
    <ele>32.5</ele>
    <time>2019-09-08T08:17:07Z</time>
   </trkpt>
   <trkpt lat="51.2496360" lon="5.8455560">
    <ele>32.5</ele>
    <time>2019-09-08T08:17:09Z</time>
   </trkpt>
   <trkpt lat="51.2496350" lon="5.8456100">
    <ele>32.5</ele>
    <time>2019-09-08T08:17:10Z</time>
   </trkpt>
   <trkpt lat="51.2496340" lon="5.8456640">
    <ele>32.5</ele>
    <time>2019-09-08T08:17:11Z</time>
   </trkpt>
   <trkpt lat="51.2496290" lon="5.8457200">
    <ele>32.5</ele>
    <time>2019-09-08T08:17:12Z</time>
   </trkpt>
   <trkpt lat="51.2496210" lon="5.8457810">
    <ele>32.5</ele>
    <time>2019-09-08T08:17:13Z</time>
   </trkpt>
   <trkpt lat="51.2496160" lon="5.8458490">
    <ele>32.5</ele>
    <time>2019-09-08T08:17:14Z</time>
   </trkpt>
   <trkpt lat="51.2496250" lon="5.8459410">
    <ele>32.5</ele>
    <time>2019-09-08T08:17:15Z</time>
   </trkpt>
   <trkpt lat="51.2496360" lon="5.8460100">
    <ele>32.5</ele>
    <time>2019-09-08T08:17:16Z</time>
   </trkpt>
   <trkpt lat="51.2496160" lon="5.8460750">
    <ele>32.5</ele>
    <time>2019-09-08T08:17:17Z</time>
   </trkpt>
   <trkpt lat="51.2496400" lon="5.8462110">
    <ele>32.4</ele>
    <time>2019-09-08T08:17:18Z</time>
   </trkpt>
   <trkpt lat="51.2496260" lon="5.8463070">
    <ele>32.4</ele>
    <time>2019-09-08T08:17:19Z</time>
   </trkpt>
   <trkpt lat="51.2496270" lon="5.8463960">
    <ele>32.4</ele>
    <time>2019-09-08T08:17:20Z</time>
   </trkpt>
   <trkpt lat="51.2496490" lon="5.8465310">
    <ele>32.3</ele>
    <time>2019-09-08T08:17:21Z</time>
   </trkpt>
   <trkpt lat="51.2496610" lon="5.8466110">
    <ele>32.3</ele>
    <time>2019-09-08T08:17:22Z</time>
   </trkpt>
   <trkpt lat="51.2496640" lon="5.8466910">
    <ele>32.3</ele>
    <time>2019-09-08T08:17:23Z</time>
   </trkpt>
   <trkpt lat="51.2496860" lon="5.8468250">
    <ele>32.2</ele>
    <time>2019-09-08T08:17:24Z</time>
   </trkpt>
   <trkpt lat="51.2496940" lon="5.8469070">
    <ele>32.2</ele>
    <time>2019-09-08T08:17:25Z</time>
   </trkpt>
   <trkpt lat="51.2497010" lon="5.8469800">
    <ele>32.2</ele>
    <time>2019-09-08T08:17:26Z</time>
   </trkpt>
   <trkpt lat="51.2497190" lon="5.8470570">
    <ele>32.2</ele>
    <time>2019-09-08T08:17:27Z</time>
   </trkpt>
   <trkpt lat="51.2497350" lon="5.8471500">
    <ele>32.2</ele>
    <time>2019-09-08T08:17:28Z</time>
   </trkpt>
   <trkpt lat="51.2497410" lon="5.8472170">
    <ele>32.2</ele>
    <time>2019-09-08T08:17:29Z</time>
   </trkpt>
   <trkpt lat="51.2497450" lon="5.8472820">
    <ele>32.2</ele>
    <time>2019-09-08T08:17:30Z</time>
   </trkpt>
   <trkpt lat="51.2497610" lon="5.8473420">
    <ele>32.1</ele>
    <time>2019-09-08T08:17:31Z</time>
   </trkpt>
   <trkpt lat="51.2497740" lon="5.8474240">
    <ele>32.1</ele>
    <time>2019-09-08T08:17:32Z</time>
   </trkpt>
   <trkpt lat="51.2497860" lon="5.8474920">
    <ele>32.1</ele>
    <time>2019-09-08T08:17:33Z</time>
   </trkpt>
   <trkpt lat="51.2498050" lon="5.8475480">
    <ele>32.1</ele>
    <time>2019-09-08T08:17:34Z</time>
   </trkpt>
   <trkpt lat="51.2498380" lon="5.8475810">
    <ele>32.0</ele>
    <time>2019-09-08T08:17:35Z</time>
   </trkpt>
   <trkpt lat="51.2498720" lon="5.8475850">
    <ele>31.9</ele>
    <time>2019-09-08T08:17:36Z</time>
   </trkpt>
   <trkpt lat="51.2499120" lon="5.8475550">
    <ele>31.8</ele>
    <time>2019-09-08T08:17:37Z</time>
   </trkpt>
   <trkpt lat="51.2499670" lon="5.8475180">
    <ele>31.6</ele>
    <time>2019-09-08T08:17:38Z</time>
   </trkpt>
   <trkpt lat="51.2500190" lon="5.8474740">
    <ele>31.5</ele>
    <time>2019-09-08T08:17:39Z</time>
   </trkpt>
   <trkpt lat="51.2500720" lon="5.8474020">
    <ele>31.3</ele>
    <time>2019-09-08T08:17:40Z</time>
   </trkpt>
   <trkpt lat="51.2501220" lon="5.8473260">
    <ele>31.2</ele>
    <time>2019-09-08T08:17:41Z</time>
   </trkpt>
   <trkpt lat="51.2501740" lon="5.8472570">
    <ele>31.1</ele>
    <time>2019-09-08T08:17:42Z</time>
   </trkpt>
   <trkpt lat="51.2502250" lon="5.8471920">
    <ele>31.0</ele>
    <time>2019-09-08T08:17:43Z</time>
   </trkpt>
   <trkpt lat="51.2502820" lon="5.8471580">
    <ele>30.9</ele>
    <time>2019-09-08T08:17:44Z</time>
   </trkpt>
   <trkpt lat="51.2503280" lon="5.8470960">
    <ele>30.8</ele>
    <time>2019-09-08T08:17:45Z</time>
   </trkpt>
   <trkpt lat="51.2503740" lon="5.8470410">
    <ele>30.8</ele>
    <time>2019-09-08T08:17:46Z</time>
   </trkpt>
   <trkpt lat="51.2504240" lon="5.8469900">
    <ele>30.7</ele>
    <time>2019-09-08T08:17:47Z</time>
   </trkpt>
   <trkpt lat="51.2504720" lon="5.8469470">
    <ele>30.7</ele>
    <time>2019-09-08T08:17:48Z</time>
   </trkpt>
   <trkpt lat="51.2505290" lon="5.8469050">
    <ele>30.6</ele>
    <time>2019-09-08T08:17:49Z</time>
   </trkpt>
   <trkpt lat="51.2505900" lon="5.8468660">
    <ele>30.5</ele>
    <time>2019-09-08T08:17:50Z</time>
   </trkpt>
   <trkpt lat="51.2506500" lon="5.8468420">
    <ele>30.5</ele>
    <time>2019-09-08T08:17:51Z</time>
   </trkpt>
   <trkpt lat="51.2507160" lon="5.8468150">
    <ele>30.4</ele>
    <time>2019-09-08T08:17:52Z</time>
   </trkpt>
   <trkpt lat="51.2507850" lon="5.8468050">
    <ele>30.4</ele>
    <time>2019-09-08T08:17:53Z</time>
   </trkpt>
   <trkpt lat="51.2508520" lon="5.8467840">
    <ele>30.4</ele>
    <time>2019-09-08T08:17:54Z</time>
   </trkpt>
   <trkpt lat="51.2509140" lon="5.8467640">
    <ele>30.4</ele>
    <time>2019-09-08T08:17:55Z</time>
   </trkpt>
   <trkpt lat="51.2509690" lon="5.8467490">
    <ele>30.4</ele>
    <time>2019-09-08T08:17:56Z</time>
   </trkpt>
   <trkpt lat="51.2510200" lon="5.8467380">
    <ele>30.4</ele>
    <time>2019-09-08T08:17:57Z</time>
   </trkpt>
   <trkpt lat="51.2510660" lon="5.8467070">
    <ele>30.4</ele>
    <time>2019-09-08T08:17:58Z</time>
   </trkpt>
   <trkpt lat="51.2511200" lon="5.8467000">
    <ele>30.3</ele>
    <time>2019-09-08T08:17:59Z</time>
   </trkpt>
   <trkpt lat="51.2511710" lon="5.8466900">
    <ele>30.3</ele>
    <time>2019-09-08T08:18:00Z</time>
   </trkpt>
   <trkpt lat="51.2512240" lon="5.8466850">
    <ele>30.3</ele>
    <time>2019-09-08T08:18:01Z</time>
   </trkpt>
   <trkpt lat="51.2512860" lon="5.8466840">
    <ele>30.2</ele>
    <time>2019-09-08T08:18:02Z</time>
   </trkpt>
   <trkpt lat="51.2513490" lon="5.8466870">
    <ele>30.1</ele>
    <time>2019-09-08T08:18:03Z</time>
   </trkpt>
   <trkpt lat="51.2514190" lon="5.8467060">
    <ele>30.1</ele>
    <time>2019-09-08T08:18:04Z</time>
   </trkpt>
   <trkpt lat="51.2514880" lon="5.8467190">
    <ele>30.2</ele>
    <time>2019-09-08T08:18:05Z</time>
   </trkpt>
   <trkpt lat="51.2515540" lon="5.8467320">
    <ele>30.2</ele>
    <time>2019-09-08T08:18:06Z</time>
   </trkpt>
   <trkpt lat="51.2516160" lon="5.8467400">
    <ele>30.3</ele>
    <time>2019-09-08T08:18:07Z</time>
   </trkpt>
   <trkpt lat="51.2516810" lon="5.8467650">
    <ele>30.3</ele>
    <time>2019-09-08T08:18:08Z</time>
   </trkpt>
   <trkpt lat="51.2517570" lon="5.8468120">
    <ele>30.3</ele>
    <time>2019-09-08T08:18:09Z</time>
   </trkpt>
   <trkpt lat="51.2518260" lon="5.8468400">
    <ele>30.3</ele>
    <time>2019-09-08T08:18:10Z</time>
   </trkpt>
   <trkpt lat="51.2518870" lon="5.8468570">
    <ele>30.2</ele>
    <time>2019-09-08T08:18:11Z</time>
   </trkpt>
   <trkpt lat="51.2519510" lon="5.8468890">
    <ele>30.2</ele>
    <time>2019-09-08T08:18:12Z</time>
   </trkpt>
   <trkpt lat="51.2520140" lon="5.8469200">
    <ele>30.2</ele>
    <time>2019-09-08T08:18:13Z</time>
   </trkpt>
   <trkpt lat="51.2520730" lon="5.8469470">
    <ele>30.1</ele>
    <time>2019-09-08T08:18:14Z</time>
   </trkpt>
   <trkpt lat="51.2521320" lon="5.8469760">
    <ele>30.1</ele>
    <time>2019-09-08T08:18:15Z</time>
   </trkpt>
   <trkpt lat="51.2522000" lon="5.8470100">
    <ele>30.2</ele>
    <time>2019-09-08T08:18:16Z</time>
   </trkpt>
   <trkpt lat="51.2522640" lon="5.8470450">
    <ele>30.2</ele>
    <time>2019-09-08T08:18:17Z</time>
   </trkpt>
   <trkpt lat="51.2523250" lon="5.8470570">
    <ele>30.2</ele>
    <time>2019-09-08T08:18:18Z</time>
   </trkpt>
   <trkpt lat="51.2523920" lon="5.8470870">
    <ele>30.3</ele>
    <time>2019-09-08T08:18:19Z</time>
   </trkpt>
   <trkpt lat="51.2524560" lon="5.8471180">
    <ele>30.3</ele>
    <time>2019-09-08T08:18:20Z</time>
   </trkpt>
   <trkpt lat="51.2525260" lon="5.8471520">
    <ele>30.4</ele>
    <time>2019-09-08T08:18:21Z</time>
   </trkpt>
   <trkpt lat="51.2525900" lon="5.8471780">
    <ele>30.4</ele>
    <time>2019-09-08T08:18:22Z</time>
   </trkpt>
   <trkpt lat="51.2526530" lon="5.8472140">
    <ele>30.4</ele>
    <time>2019-09-08T08:18:23Z</time>
   </trkpt>
   <trkpt lat="51.2527120" lon="5.8472340">
    <ele>30.4</ele>
    <time>2019-09-08T08:18:24Z</time>
   </trkpt>
   <trkpt lat="51.2527710" lon="5.8472810">
    <ele>30.4</ele>
    <time>2019-09-08T08:18:25Z</time>
   </trkpt>
   <trkpt lat="51.2528270" lon="5.8473230">
    <ele>30.3</ele>
    <time>2019-09-08T08:18:26Z</time>
   </trkpt>
   <trkpt lat="51.2528890" lon="5.8473780">
    <ele>30.2</ele>
    <time>2019-09-08T08:18:27Z</time>
   </trkpt>
   <trkpt lat="51.2529480" lon="5.8474360">
    <ele>30.2</ele>
    <time>2019-09-08T08:18:28Z</time>
   </trkpt>
   <trkpt lat="51.2530110" lon="5.8474820">
    <ele>30.1</ele>
    <time>2019-09-08T08:18:29Z</time>
   </trkpt>
   <trkpt lat="51.2530700" lon="5.8475230">
    <ele>30.0</ele>
    <time>2019-09-08T08:18:30Z</time>
   </trkpt>
   <trkpt lat="51.2531250" lon="5.8475570">
    <ele>30.0</ele>
    <time>2019-09-08T08:18:31Z</time>
   </trkpt>
   <trkpt lat="51.2531880" lon="5.8476030">
    <ele>29.9</ele>
    <time>2019-09-08T08:18:32Z</time>
   </trkpt>
   <trkpt lat="51.2532480" lon="5.8476380">
    <ele>30.0</ele>
    <time>2019-09-08T08:18:33Z</time>
   </trkpt>
   <trkpt lat="51.2533140" lon="5.8476720">
    <ele>30.0</ele>
    <time>2019-09-08T08:18:34Z</time>
   </trkpt>
   <trkpt lat="51.2533810" lon="5.8477060">
    <ele>30.1</ele>
    <time>2019-09-08T08:18:35Z</time>
   </trkpt>
   <trkpt lat="51.2534460" lon="5.8477310">
    <ele>30.2</ele>
    <time>2019-09-08T08:18:36Z</time>
   </trkpt>
   <trkpt lat="51.2535080" lon="5.8477570">
    <ele>30.3</ele>
    <time>2019-09-08T08:18:37Z</time>
   </trkpt>
   <trkpt lat="51.2535730" lon="5.8477810">
    <ele>30.3</ele>
    <time>2019-09-08T08:18:38Z</time>
   </trkpt>
   <trkpt lat="51.2536380" lon="5.8477990">
    <ele>30.4</ele>
    <time>2019-09-08T08:18:39Z</time>
   </trkpt>
   <trkpt lat="51.2537020" lon="5.8478160">
    <ele>30.4</ele>
    <time>2019-09-08T08:18:40Z</time>
   </trkpt>
   <trkpt lat="51.2537650" lon="5.8478420">
    <ele>30.4</ele>
    <time>2019-09-08T08:18:41Z</time>
   </trkpt>
   <trkpt lat="51.2538310" lon="5.8478650">
    <ele>30.4</ele>
    <time>2019-09-08T08:18:42Z</time>
   </trkpt>
   <trkpt lat="51.2538900" lon="5.8478720">
    <ele>30.4</ele>
    <time>2019-09-08T08:18:43Z</time>
   </trkpt>
   <trkpt lat="51.2539540" lon="5.8478860">
    <ele>30.4</ele>
    <time>2019-09-08T08:18:44Z</time>
   </trkpt>
   <trkpt lat="51.2540240" lon="5.8479060">
    <ele>30.4</ele>
    <time>2019-09-08T08:18:45Z</time>
   </trkpt>
   <trkpt lat="51.2540890" lon="5.8478990">
    <ele>30.4</ele>
    <time>2019-09-08T08:18:46Z</time>
   </trkpt>
   <trkpt lat="51.2541600" lon="5.8478900">
    <ele>30.3</ele>
    <time>2019-09-08T08:18:47Z</time>
   </trkpt>
   <trkpt lat="51.2542300" lon="5.8478910">
    <ele>30.3</ele>
    <time>2019-09-08T08:18:48Z</time>
   </trkpt>
   <trkpt lat="51.2542930" lon="5.8478660">
    <ele>30.2</ele>
    <time>2019-09-08T08:18:49Z</time>
   </trkpt>
   <trkpt lat="51.2543540" lon="5.8478320">
    <ele>30.2</ele>
    <time>2019-09-08T08:18:50Z</time>
   </trkpt>
   <trkpt lat="51.2544140" lon="5.8477910">
    <ele>30.1</ele>
    <time>2019-09-08T08:18:51Z</time>
   </trkpt>
   <trkpt lat="51.2544670" lon="5.8477470">
    <ele>30.0</ele>
    <time>2019-09-08T08:18:52Z</time>
   </trkpt>
   <trkpt lat="51.2545280" lon="5.8477030">
    <ele>30.0</ele>
    <time>2019-09-08T08:18:53Z</time>
   </trkpt>
   <trkpt lat="51.2545850" lon="5.8476560">
    <ele>29.9</ele>
    <time>2019-09-08T08:18:54Z</time>
   </trkpt>
   <trkpt lat="51.2546430" lon="5.8476000">
    <ele>29.9</ele>
    <time>2019-09-08T08:18:55Z</time>
   </trkpt>
   <trkpt lat="51.2547050" lon="5.8475680">
    <ele>29.8</ele>
    <time>2019-09-08T08:18:56Z</time>
   </trkpt>
   <trkpt lat="51.2547630" lon="5.8475100">
    <ele>29.7</ele>
    <time>2019-09-08T08:18:57Z</time>
   </trkpt>
   <trkpt lat="51.2548290" lon="5.8474730">
    <ele>29.7</ele>
    <time>2019-09-08T08:18:58Z</time>
   </trkpt>
   <trkpt lat="51.2548850" lon="5.8474240">
    <ele>29.7</ele>
    <time>2019-09-08T08:18:59Z</time>
   </trkpt>
   <trkpt lat="51.2549380" lon="5.8473820">
    <ele>29.6</ele>
    <time>2019-09-08T08:19:00Z</time>
   </trkpt>
   <trkpt lat="51.2550060" lon="5.8473230">
    <ele>29.6</ele>
    <time>2019-09-08T08:19:01Z</time>
   </trkpt>
   <trkpt lat="51.2550700" lon="5.8472740">
    <ele>29.6</ele>
    <time>2019-09-08T08:19:02Z</time>
   </trkpt>
   <trkpt lat="51.2551280" lon="5.8472280">
    <ele>29.6</ele>
    <time>2019-09-08T08:19:03Z</time>
   </trkpt>
   <trkpt lat="51.2551860" lon="5.8471820">
    <ele>29.7</ele>
    <time>2019-09-08T08:19:04Z</time>
   </trkpt>
   <trkpt lat="51.2552420" lon="5.8471420">
    <ele>29.8</ele>
    <time>2019-09-08T08:19:05Z</time>
   </trkpt>
   <trkpt lat="51.2552980" lon="5.8470910">
    <ele>29.8</ele>
    <time>2019-09-08T08:19:06Z</time>
   </trkpt>
   <trkpt lat="51.2553560" lon="5.8470420">
    <ele>29.8</ele>
    <time>2019-09-08T08:19:07Z</time>
   </trkpt>
   <trkpt lat="51.2554140" lon="5.8469900">
    <ele>29.9</ele>
    <time>2019-09-08T08:19:08Z</time>
   </trkpt>
   <trkpt lat="51.2554740" lon="5.8469410">
    <ele>29.9</ele>
    <time>2019-09-08T08:19:09Z</time>
   </trkpt>
   <trkpt lat="51.2555460" lon="5.8468920">
    <ele>30.0</ele>
    <time>2019-09-08T08:19:10Z</time>
   </trkpt>
   <trkpt lat="51.2556030" lon="5.8468350">
    <ele>30.0</ele>
    <time>2019-09-08T08:19:11Z</time>
   </trkpt>
   <trkpt lat="51.2556670" lon="5.8467890">
    <ele>30.0</ele>
    <time>2019-09-08T08:19:12Z</time>
   </trkpt>
   <trkpt lat="51.2557250" lon="5.8467400">
    <ele>30.0</ele>
    <time>2019-09-08T08:19:13Z</time>
   </trkpt>
   <trkpt lat="51.2557820" lon="5.8466880">
    <ele>30.0</ele>
    <time>2019-09-08T08:19:14Z</time>
   </trkpt>
   <trkpt lat="51.2558410" lon="5.8466400">
    <ele>30.0</ele>
    <time>2019-09-08T08:19:15Z</time>
   </trkpt>
   <trkpt lat="51.2558980" lon="5.8465870">
    <ele>30.1</ele>
    <time>2019-09-08T08:19:16Z</time>
   </trkpt>
   <trkpt lat="51.2559450" lon="5.8465210">
    <ele>30.1</ele>
    <time>2019-09-08T08:19:17Z</time>
   </trkpt>
   <trkpt lat="51.2560020" lon="5.8464860">
    <ele>30.2</ele>
    <time>2019-09-08T08:19:18Z</time>
   </trkpt>
   <trkpt lat="51.2560600" lon="5.8464370">
    <ele>30.2</ele>
    <time>2019-09-08T08:19:19Z</time>
   </trkpt>
   <trkpt lat="51.2561200" lon="5.8463880">
    <ele>30.3</ele>
    <time>2019-09-08T08:19:20Z</time>
   </trkpt>
   <trkpt lat="51.2561760" lon="5.8463440">
    <ele>30.3</ele>
    <time>2019-09-08T08:19:21Z</time>
   </trkpt>
   <trkpt lat="51.2562310" lon="5.8462940">
    <ele>30.4</ele>
    <time>2019-09-08T08:19:22Z</time>
   </trkpt>
   <trkpt lat="51.2562880" lon="5.8462420">
    <ele>30.4</ele>
    <time>2019-09-08T08:19:23Z</time>
   </trkpt>
   <trkpt lat="51.2563470" lon="5.8461980">
    <ele>30.5</ele>
    <time>2019-09-08T08:19:24Z</time>
   </trkpt>
   <trkpt lat="51.2564080" lon="5.8461530">
    <ele>30.6</ele>
    <time>2019-09-08T08:19:25Z</time>
   </trkpt>
   <trkpt lat="51.2564660" lon="5.8461100">
    <ele>30.6</ele>
    <time>2019-09-08T08:19:26Z</time>
   </trkpt>
   <trkpt lat="51.2565250" lon="5.8460700">
    <ele>30.7</ele>
    <time>2019-09-08T08:19:27Z</time>
   </trkpt>
   <trkpt lat="51.2565890" lon="5.8460320">
    <ele>30.7</ele>
    <time>2019-09-08T08:19:28Z</time>
   </trkpt>
   <trkpt lat="51.2566450" lon="5.8459820">
    <ele>30.7</ele>
    <time>2019-09-08T08:19:29Z</time>
   </trkpt>
   <trkpt lat="51.2567010" lon="5.8459320">
    <ele>30.7</ele>
    <time>2019-09-08T08:19:30Z</time>
   </trkpt>
   <trkpt lat="51.2567640" lon="5.8459030">
    <ele>30.7</ele>
    <time>2019-09-08T08:19:31Z</time>
   </trkpt>
   <trkpt lat="51.2568220" lon="5.8458490">
    <ele>30.7</ele>
    <time>2019-09-08T08:19:32Z</time>
   </trkpt>
   <trkpt lat="51.2568830" lon="5.8458040">
    <ele>30.7</ele>
    <time>2019-09-08T08:19:33Z</time>
   </trkpt>
   <trkpt lat="51.2569460" lon="5.8457660">
    <ele>30.7</ele>
    <time>2019-09-08T08:19:34Z</time>
   </trkpt>
   <trkpt lat="51.2570080" lon="5.8457230">
    <ele>30.7</ele>
    <time>2019-09-08T08:19:35Z</time>
   </trkpt>
   <trkpt lat="51.2570610" lon="5.8456680">
    <ele>30.7</ele>
    <time>2019-09-08T08:19:36Z</time>
   </trkpt>
   <trkpt lat="51.2571200" lon="5.8456160">
    <ele>30.7</ele>
    <time>2019-09-08T08:19:37Z</time>
   </trkpt>
   <trkpt lat="51.2571840" lon="5.8455680">
    <ele>30.7</ele>
    <time>2019-09-08T08:19:38Z</time>
   </trkpt>
   <trkpt lat="51.2572440" lon="5.8455190">
    <ele>30.7</ele>
    <time>2019-09-08T08:19:39Z</time>
   </trkpt>
   <trkpt lat="51.2573010" lon="5.8454670">
    <ele>30.6</ele>
    <time>2019-09-08T08:19:40Z</time>
   </trkpt>
   <trkpt lat="51.2573600" lon="5.8454170">
    <ele>30.6</ele>
    <time>2019-09-08T08:19:41Z</time>
   </trkpt>
   <trkpt lat="51.2574200" lon="5.8453680">
    <ele>30.6</ele>
    <time>2019-09-08T08:19:42Z</time>
   </trkpt>
   <trkpt lat="51.2574800" lon="5.8453270">
    <ele>30.5</ele>
    <time>2019-09-08T08:19:43Z</time>
   </trkpt>
   <trkpt lat="51.2575450" lon="5.8452830">
    <ele>30.5</ele>
    <time>2019-09-08T08:19:44Z</time>
   </trkpt>
   <trkpt lat="51.2576060" lon="5.8452470">
    <ele>30.4</ele>
    <time>2019-09-08T08:19:45Z</time>
   </trkpt>
   <trkpt lat="51.2576720" lon="5.8452150">
    <ele>30.4</ele>
    <time>2019-09-08T08:19:46Z</time>
   </trkpt>
   <trkpt lat="51.2577380" lon="5.8451850">
    <ele>30.3</ele>
    <time>2019-09-08T08:19:47Z</time>
   </trkpt>
   <trkpt lat="51.2578110" lon="5.8451580">
    <ele>30.3</ele>
    <time>2019-09-08T08:19:48Z</time>
   </trkpt>
   <trkpt lat="51.2578830" lon="5.8451300">
    <ele>30.2</ele>
    <time>2019-09-08T08:19:49Z</time>
   </trkpt>
   <trkpt lat="51.2579500" lon="5.8451010">
    <ele>30.2</ele>
    <time>2019-09-08T08:19:50Z</time>
   </trkpt>
   <trkpt lat="51.2580160" lon="5.8450780">
    <ele>30.2</ele>
    <time>2019-09-08T08:19:51Z</time>
   </trkpt>
   <trkpt lat="51.2580820" lon="5.8450530">
    <ele>30.3</ele>
    <time>2019-09-08T08:19:52Z</time>
   </trkpt>
   <trkpt lat="51.2581430" lon="5.8450250">
    <ele>30.4</ele>
    <time>2019-09-08T08:19:53Z</time>
   </trkpt>
   <trkpt lat="51.2582090" lon="5.8449960">
    <ele>30.4</ele>
    <time>2019-09-08T08:19:54Z</time>
   </trkpt>
   <trkpt lat="51.2582720" lon="5.8449640">
    <ele>30.5</ele>
    <time>2019-09-08T08:19:55Z</time>
   </trkpt>
   <trkpt lat="51.2583320" lon="5.8449290">
    <ele>30.6</ele>
    <time>2019-09-08T08:19:56Z</time>
   </trkpt>
   <trkpt lat="51.2583950" lon="5.8448950">
    <ele>30.6</ele>
    <time>2019-09-08T08:19:57Z</time>
   </trkpt>
   <trkpt lat="51.2584540" lon="5.8448530">
    <ele>30.7</ele>
    <time>2019-09-08T08:19:58Z</time>
   </trkpt>
   <trkpt lat="51.2585160" lon="5.8448130">
    <ele>30.7</ele>
    <time>2019-09-08T08:19:59Z</time>
   </trkpt>
   <trkpt lat="51.2585750" lon="5.8447730">
    <ele>30.7</ele>
    <time>2019-09-08T08:20:00Z</time>
   </trkpt>
   <trkpt lat="51.2586370" lon="5.8447290">
    <ele>30.7</ele>
    <time>2019-09-08T08:20:01Z</time>
   </trkpt>
   <trkpt lat="51.2586980" lon="5.8446940">
    <ele>30.7</ele>
    <time>2019-09-08T08:20:02Z</time>
   </trkpt>
   <trkpt lat="51.2587660" lon="5.8446640">
    <ele>30.7</ele>
    <time>2019-09-08T08:20:03Z</time>
   </trkpt>
   <trkpt lat="51.2588280" lon="5.8446350">
    <ele>30.7</ele>
    <time>2019-09-08T08:20:04Z</time>
   </trkpt>
   <trkpt lat="51.2588920" lon="5.8446010">
    <ele>30.6</ele>
    <time>2019-09-08T08:20:05Z</time>
   </trkpt>
   <trkpt lat="51.2589550" lon="5.8445620">
    <ele>30.6</ele>
    <time>2019-09-08T08:20:06Z</time>
   </trkpt>
   <trkpt lat="51.2590190" lon="5.8445170">
    <ele>30.6</ele>
    <time>2019-09-08T08:20:07Z</time>
   </trkpt>
   <trkpt lat="51.2590840" lon="5.8444840">
    <ele>30.7</ele>
    <time>2019-09-08T08:20:08Z</time>
   </trkpt>
   <trkpt lat="51.2591470" lon="5.8444530">
    <ele>30.7</ele>
    <time>2019-09-08T08:20:09Z</time>
   </trkpt>
   <trkpt lat="51.2592080" lon="5.8444170">
    <ele>30.8</ele>
    <time>2019-09-08T08:20:10Z</time>
   </trkpt>
   <trkpt lat="51.2592680" lon="5.8443760">
    <ele>30.8</ele>
    <time>2019-09-08T08:20:11Z</time>
   </trkpt>
   <trkpt lat="51.2593280" lon="5.8443390">
    <ele>30.8</ele>
    <time>2019-09-08T08:20:12Z</time>
   </trkpt>
   <trkpt lat="51.2593910" lon="5.8443020">
    <ele>30.9</ele>
    <time>2019-09-08T08:20:13Z</time>
   </trkpt>
   <trkpt lat="51.2594550" lon="5.8442670">
    <ele>30.9</ele>
    <time>2019-09-08T08:20:14Z</time>
   </trkpt>
   <trkpt lat="51.2595170" lon="5.8442270">
    <ele>31.0</ele>
    <time>2019-09-08T08:20:15Z</time>
   </trkpt>
   <trkpt lat="51.2595790" lon="5.8441880">
    <ele>31.0</ele>
    <time>2019-09-08T08:20:16Z</time>
   </trkpt>
   <trkpt lat="51.2596400" lon="5.8441470">
    <ele>31.1</ele>
    <time>2019-09-08T08:20:17Z</time>
   </trkpt>
   <trkpt lat="51.2597010" lon="5.8441090">
    <ele>31.1</ele>
    <time>2019-09-08T08:20:18Z</time>
   </trkpt>
   <trkpt lat="51.2597660" lon="5.8440580">
    <ele>31.1</ele>
    <time>2019-09-08T08:20:19Z</time>
   </trkpt>
   <trkpt lat="51.2598240" lon="5.8440160">
    <ele>31.1</ele>
    <time>2019-09-08T08:20:20Z</time>
   </trkpt>
   <trkpt lat="51.2598930" lon="5.8439910">
    <ele>31.1</ele>
    <time>2019-09-08T08:20:21Z</time>
   </trkpt>
   <trkpt lat="51.2599550" lon="5.8439580">
    <ele>31.0</ele>
    <time>2019-09-08T08:20:22Z</time>
   </trkpt>
   <trkpt lat="51.2600120" lon="5.8439130">
    <ele>31.0</ele>
    <time>2019-09-08T08:20:23Z</time>
   </trkpt>
   <trkpt lat="51.2600690" lon="5.8438610">
    <ele>30.8</ele>
    <time>2019-09-08T08:20:24Z</time>
   </trkpt>
   <trkpt lat="51.2601250" lon="5.8438160">
    <ele>30.7</ele>
    <time>2019-09-08T08:20:25Z</time>
   </trkpt>
   <trkpt lat="51.2601850" lon="5.8437690">
    <ele>30.6</ele>
    <time>2019-09-08T08:20:26Z</time>
   </trkpt>
   <trkpt lat="51.2602420" lon="5.8437230">
    <ele>30.5</ele>
    <time>2019-09-08T08:20:27Z</time>
   </trkpt>
   <trkpt lat="51.2603030" lon="5.8436810">
    <ele>30.4</ele>
    <time>2019-09-08T08:20:28Z</time>
   </trkpt>
   <trkpt lat="51.2603630" lon="5.8436350">
    <ele>30.3</ele>
    <time>2019-09-08T08:20:29Z</time>
   </trkpt>
   <trkpt lat="51.2604250" lon="5.8436020">
    <ele>30.2</ele>
    <time>2019-09-08T08:20:30Z</time>
   </trkpt>
   <trkpt lat="51.2604840" lon="5.8435530">
    <ele>30.2</ele>
    <time>2019-09-08T08:20:31Z</time>
   </trkpt>
   <trkpt lat="51.2605430" lon="5.8435110">
    <ele>30.3</ele>
    <time>2019-09-08T08:20:32Z</time>
   </trkpt>
   <trkpt lat="51.2606040" lon="5.8434680">
    <ele>30.3</ele>
    <time>2019-09-08T08:20:33Z</time>
   </trkpt>
   <trkpt lat="51.2606630" lon="5.8434290">
    <ele>30.4</ele>
    <time>2019-09-08T08:20:34Z</time>
   </trkpt>
   <trkpt lat="51.2607330" lon="5.8433960">
    <ele>30.4</ele>
    <time>2019-09-08T08:20:35Z</time>
   </trkpt>
   <trkpt lat="51.2607940" lon="5.8433540">
    <ele>30.5</ele>
    <time>2019-09-08T08:20:36Z</time>
   </trkpt>
   <trkpt lat="51.2608540" lon="5.8433020">
    <ele>30.5</ele>
    <time>2019-09-08T08:20:37Z</time>
   </trkpt>
   <trkpt lat="51.2609200" lon="5.8432680">
    <ele>30.5</ele>
    <time>2019-09-08T08:20:38Z</time>
   </trkpt>
   <trkpt lat="51.2609880" lon="5.8432420">
    <ele>30.5</ele>
    <time>2019-09-08T08:20:39Z</time>
   </trkpt>
   <trkpt lat="51.2610550" lon="5.8432030">
    <ele>30.6</ele>
    <time>2019-09-08T08:20:40Z</time>
   </trkpt>
   <trkpt lat="51.2611160" lon="5.8431650">
    <ele>30.6</ele>
    <time>2019-09-08T08:20:41Z</time>
   </trkpt>
   <trkpt lat="51.2611850" lon="5.8431230">
    <ele>30.6</ele>
    <time>2019-09-08T08:20:42Z</time>
   </trkpt>
   <trkpt lat="51.2612470" lon="5.8430810">
    <ele>30.7</ele>
    <time>2019-09-08T08:20:43Z</time>
   </trkpt>
   <trkpt lat="51.2613110" lon="5.8430610">
    <ele>30.7</ele>
    <time>2019-09-08T08:20:44Z</time>
   </trkpt>
   <trkpt lat="51.2613820" lon="5.8430160">
    <ele>30.8</ele>
    <time>2019-09-08T08:20:45Z</time>
   </trkpt>
   <trkpt lat="51.2614450" lon="5.8429730">
    <ele>30.9</ele>
    <time>2019-09-08T08:20:46Z</time>
   </trkpt>
   <trkpt lat="51.2615140" lon="5.8429240">
    <ele>31.0</ele>
    <time>2019-09-08T08:20:47Z</time>
   </trkpt>
   <trkpt lat="51.2615770" lon="5.8428760">
    <ele>31.0</ele>
    <time>2019-09-08T08:20:48Z</time>
   </trkpt>
   <trkpt lat="51.2616470" lon="5.8428360">
    <ele>30.9</ele>
    <time>2019-09-08T08:20:49Z</time>
   </trkpt>
   <trkpt lat="51.2617020" lon="5.8427840">
    <ele>30.8</ele>
    <time>2019-09-08T08:20:50Z</time>
   </trkpt>
   <trkpt lat="51.2617600" lon="5.8427340">
    <ele>30.8</ele>
    <time>2019-09-08T08:20:51Z</time>
   </trkpt>
   <trkpt lat="51.2618310" lon="5.8426850">
    <ele>30.7</ele>
    <time>2019-09-08T08:20:52Z</time>
   </trkpt>
   <trkpt lat="51.2618980" lon="5.8426550">
    <ele>30.6</ele>
    <time>2019-09-08T08:20:53Z</time>
   </trkpt>
   <trkpt lat="51.2619590" lon="5.8426070">
    <ele>30.6</ele>
    <time>2019-09-08T08:20:54Z</time>
   </trkpt>
   <trkpt lat="51.2620180" lon="5.8425640">
    <ele>30.6</ele>
    <time>2019-09-08T08:20:55Z</time>
   </trkpt>
   <trkpt lat="51.2620820" lon="5.8425280">
    <ele>30.6</ele>
    <time>2019-09-08T08:20:56Z</time>
   </trkpt>
   <trkpt lat="51.2621450" lon="5.8424970">
    <ele>30.7</ele>
    <time>2019-09-08T08:20:57Z</time>
   </trkpt>
   <trkpt lat="51.2622070" lon="5.8424540">
    <ele>30.7</ele>
    <time>2019-09-08T08:20:58Z</time>
   </trkpt>
   <trkpt lat="51.2622700" lon="5.8424160">
    <ele>30.8</ele>
    <time>2019-09-08T08:20:59Z</time>
   </trkpt>
   <trkpt lat="51.2623260" lon="5.8423710">
    <ele>30.8</ele>
    <time>2019-09-08T08:21:00Z</time>
   </trkpt>
   <trkpt lat="51.2623910" lon="5.8423380">
    <ele>30.9</ele>
    <time>2019-09-08T08:21:01Z</time>
   </trkpt>
   <trkpt lat="51.2624530" lon="5.8423020">
    <ele>30.9</ele>
    <time>2019-09-08T08:21:02Z</time>
   </trkpt>
   <trkpt lat="51.2625180" lon="5.8422600">
    <ele>30.9</ele>
    <time>2019-09-08T08:21:03Z</time>
   </trkpt>
   <trkpt lat="51.2625760" lon="5.8422140">
    <ele>30.9</ele>
    <time>2019-09-08T08:21:04Z</time>
   </trkpt>
   <trkpt lat="51.2626340" lon="5.8421690">
    <ele>30.8</ele>
    <time>2019-09-08T08:21:05Z</time>
   </trkpt>
   <trkpt lat="51.2626960" lon="5.8421210">
    <ele>30.7</ele>
    <time>2019-09-08T08:21:06Z</time>
   </trkpt>
   <trkpt lat="51.2627610" lon="5.8420830">
    <ele>30.6</ele>
    <time>2019-09-08T08:21:07Z</time>
   </trkpt>
   <trkpt lat="51.2628220" lon="5.8420420">
    <ele>30.5</ele>
    <time>2019-09-08T08:21:08Z</time>
   </trkpt>
   <trkpt lat="51.2628790" lon="5.8419990">
    <ele>30.4</ele>
    <time>2019-09-08T08:21:09Z</time>
   </trkpt>
   <trkpt lat="51.2629420" lon="5.8419580">
    <ele>30.4</ele>
    <time>2019-09-08T08:21:10Z</time>
   </trkpt>
   <trkpt lat="51.2630090" lon="5.8419160">
    <ele>30.5</ele>
    <time>2019-09-08T08:21:11Z</time>
   </trkpt>
   <trkpt lat="51.2630690" lon="5.8418710">
    <ele>30.5</ele>
    <time>2019-09-08T08:21:12Z</time>
   </trkpt>
   <trkpt lat="51.2631380" lon="5.8418240">
    <ele>30.7</ele>
    <time>2019-09-08T08:21:13Z</time>
   </trkpt>
   <trkpt lat="51.2632020" lon="5.8417880">
    <ele>30.8</ele>
    <time>2019-09-08T08:21:14Z</time>
   </trkpt>
   <trkpt lat="51.2632680" lon="5.8417390">
    <ele>31.0</ele>
    <time>2019-09-08T08:21:15Z</time>
   </trkpt>
   <trkpt lat="51.2633310" lon="5.8417000">
    <ele>31.1</ele>
    <time>2019-09-08T08:21:16Z</time>
   </trkpt>
   <trkpt lat="51.2633920" lon="5.8416650">
    <ele>31.1</ele>
    <time>2019-09-08T08:21:17Z</time>
   </trkpt>
   <trkpt lat="51.2634530" lon="5.8416210">
    <ele>31.2</ele>
    <time>2019-09-08T08:21:18Z</time>
   </trkpt>
   <trkpt lat="51.2635150" lon="5.8415800">
    <ele>31.1</ele>
    <time>2019-09-08T08:21:19Z</time>
   </trkpt>
   <trkpt lat="51.2635770" lon="5.8415350">
    <ele>31.1</ele>
    <time>2019-09-08T08:21:20Z</time>
   </trkpt>
   <trkpt lat="51.2636430" lon="5.8414930">
    <ele>31.1</ele>
    <time>2019-09-08T08:21:21Z</time>
   </trkpt>
   <trkpt lat="51.2636970" lon="5.8414550">
    <ele>31.1</ele>
    <time>2019-09-08T08:21:22Z</time>
   </trkpt>
   <trkpt lat="51.2637580" lon="5.8414080">
    <ele>31.1</ele>
    <time>2019-09-08T08:21:23Z</time>
   </trkpt>
   <trkpt lat="51.2638190" lon="5.8413650">
    <ele>31.1</ele>
    <time>2019-09-08T08:21:24Z</time>
   </trkpt>
   <trkpt lat="51.2638830" lon="5.8413160">
    <ele>31.2</ele>
    <time>2019-09-08T08:21:25Z</time>
   </trkpt>
   <trkpt lat="51.2639480" lon="5.8412640">
    <ele>31.3</ele>
    <time>2019-09-08T08:21:26Z</time>
   </trkpt>
   <trkpt lat="51.2640110" lon="5.8412210">
    <ele>31.4</ele>
    <time>2019-09-08T08:21:27Z</time>
   </trkpt>
   <trkpt lat="51.2640690" lon="5.8411750">
    <ele>31.5</ele>
    <time>2019-09-08T08:21:28Z</time>
   </trkpt>
   <trkpt lat="51.2641260" lon="5.8411320">
    <ele>31.6</ele>
    <time>2019-09-08T08:21:29Z</time>
   </trkpt>
   <trkpt lat="51.2641930" lon="5.8410820">
    <ele>31.7</ele>
    <time>2019-09-08T08:21:30Z</time>
   </trkpt>
   <trkpt lat="51.2642540" lon="5.8410330">
    <ele>31.8</ele>
    <time>2019-09-08T08:21:31Z</time>
   </trkpt>
   <trkpt lat="51.2643240" lon="5.8409840">
    <ele>31.8</ele>
    <time>2019-09-08T08:21:32Z</time>
   </trkpt>
   <trkpt lat="51.2643900" lon="5.8409420">
    <ele>31.9</ele>
    <time>2019-09-08T08:21:33Z</time>
   </trkpt>
   <trkpt lat="51.2644540" lon="5.8408940">
    <ele>31.9</ele>
    <time>2019-09-08T08:21:34Z</time>
   </trkpt>
   <trkpt lat="51.2645140" lon="5.8408500">
    <ele>31.9</ele>
    <time>2019-09-08T08:21:35Z</time>
   </trkpt>
   <trkpt lat="51.2645810" lon="5.8408020">
    <ele>32.0</ele>
    <time>2019-09-08T08:21:36Z</time>
   </trkpt>
   <trkpt lat="51.2646420" lon="5.8407670">
    <ele>32.0</ele>
    <time>2019-09-08T08:21:37Z</time>
   </trkpt>
   <trkpt lat="51.2647040" lon="5.8407230">
    <ele>32.0</ele>
    <time>2019-09-08T08:21:38Z</time>
   </trkpt>
   <trkpt lat="51.2647620" lon="5.8406710">
    <ele>32.0</ele>
    <time>2019-09-08T08:21:39Z</time>
   </trkpt>
   <trkpt lat="51.2648260" lon="5.8406300">
    <ele>32.1</ele>
    <time>2019-09-08T08:21:40Z</time>
   </trkpt>
   <trkpt lat="51.2648820" lon="5.8405780">
    <ele>32.1</ele>
    <time>2019-09-08T08:21:41Z</time>
   </trkpt>
   <trkpt lat="51.2649450" lon="5.8405360">
    <ele>32.1</ele>
    <time>2019-09-08T08:21:42Z</time>
   </trkpt>
   <trkpt lat="51.2650140" lon="5.8404940">
    <ele>32.0</ele>
    <time>2019-09-08T08:21:43Z</time>
   </trkpt>
   <trkpt lat="51.2650770" lon="5.8404580">
    <ele>32.0</ele>
    <time>2019-09-08T08:21:44Z</time>
   </trkpt>
   <trkpt lat="51.2651370" lon="5.8404200">
    <ele>31.9</ele>
    <time>2019-09-08T08:21:45Z</time>
   </trkpt>
   <trkpt lat="51.2651990" lon="5.8403800">
    <ele>31.9</ele>
    <time>2019-09-08T08:21:46Z</time>
   </trkpt>
   <trkpt lat="51.2652590" lon="5.8403370">
    <ele>31.8</ele>
    <time>2019-09-08T08:21:47Z</time>
   </trkpt>
   <trkpt lat="51.2653180" lon="5.8402960">
    <ele>31.7</ele>
    <time>2019-09-08T08:21:48Z</time>
   </trkpt>
   <trkpt lat="51.2653770" lon="5.8402520">
    <ele>31.7</ele>
    <time>2019-09-08T08:21:49Z</time>
   </trkpt>
   <trkpt lat="51.2654390" lon="5.8402100">
    <ele>31.6</ele>
    <time>2019-09-08T08:21:50Z</time>
   </trkpt>
   <trkpt lat="51.2654960" lon="5.8401680">
    <ele>31.6</ele>
    <time>2019-09-08T08:21:51Z</time>
   </trkpt>
   <trkpt lat="51.2655530" lon="5.8401300">
    <ele>31.6</ele>
    <time>2019-09-08T08:21:52Z</time>
   </trkpt>
   <trkpt lat="51.2656100" lon="5.8400860">
    <ele>31.6</ele>
    <time>2019-09-08T08:21:53Z</time>
   </trkpt>
   <trkpt lat="51.2656620" lon="5.8400350">
    <ele>31.7</ele>
    <time>2019-09-08T08:21:54Z</time>
   </trkpt>
   <trkpt lat="51.2657260" lon="5.8399990">
    <ele>31.7</ele>
    <time>2019-09-08T08:21:55Z</time>
   </trkpt>
   <trkpt lat="51.2657900" lon="5.8399530">
    <ele>31.8</ele>
    <time>2019-09-08T08:21:56Z</time>
   </trkpt>
   <trkpt lat="51.2658510" lon="5.8399190">
    <ele>31.9</ele>
    <time>2019-09-08T08:21:57Z</time>
   </trkpt>
   <trkpt lat="51.2659080" lon="5.8398780">
    <ele>31.9</ele>
    <time>2019-09-08T08:21:58Z</time>
   </trkpt>
   <trkpt lat="51.2659670" lon="5.8398310">
    <ele>31.9</ele>
    <time>2019-09-08T08:21:59Z</time>
   </trkpt>
   <trkpt lat="51.2660250" lon="5.8397770">
    <ele>32.0</ele>
    <time>2019-09-08T08:22:00Z</time>
   </trkpt>
   <trkpt lat="51.2660900" lon="5.8397410">
    <ele>32.0</ele>
    <time>2019-09-08T08:22:01Z</time>
   </trkpt>
   <trkpt lat="51.2661510" lon="5.8397080">
    <ele>31.9</ele>
    <time>2019-09-08T08:22:02Z</time>
   </trkpt>
   <trkpt lat="51.2662310" lon="5.8396900">
    <ele>31.9</ele>
    <time>2019-09-08T08:22:03Z</time>
   </trkpt>
   <trkpt lat="51.2662970" lon="5.8396480">
    <ele>31.9</ele>
    <time>2019-09-08T08:22:04Z</time>
   </trkpt>
   <trkpt lat="51.2663600" lon="5.8396120">
    <ele>31.8</ele>
    <time>2019-09-08T08:22:05Z</time>
   </trkpt>
   <trkpt lat="51.2664250" lon="5.8395610">
    <ele>31.8</ele>
    <time>2019-09-08T08:22:06Z</time>
   </trkpt>
   <trkpt lat="51.2664840" lon="5.8395090">
    <ele>31.7</ele>
    <time>2019-09-08T08:22:07Z</time>
   </trkpt>
   <trkpt lat="51.2665450" lon="5.8394700">
    <ele>31.7</ele>
    <time>2019-09-08T08:22:08Z</time>
   </trkpt>
   <trkpt lat="51.2666050" lon="5.8394210">
    <ele>31.6</ele>
    <time>2019-09-08T08:22:09Z</time>
   </trkpt>
   <trkpt lat="51.2666650" lon="5.8393900">
    <ele>31.6</ele>
    <time>2019-09-08T08:22:10Z</time>
   </trkpt>
   <trkpt lat="51.2667250" lon="5.8393480">
    <ele>31.5</ele>
    <time>2019-09-08T08:22:11Z</time>
   </trkpt>
   <trkpt lat="51.2667890" lon="5.8392970">
    <ele>31.5</ele>
    <time>2019-09-08T08:22:12Z</time>
   </trkpt>
   <trkpt lat="51.2668500" lon="5.8392520">
    <ele>31.4</ele>
    <time>2019-09-08T08:22:13Z</time>
   </trkpt>
   <trkpt lat="51.2669150" lon="5.8392090">
    <ele>31.4</ele>
    <time>2019-09-08T08:22:14Z</time>
   </trkpt>
   <trkpt lat="51.2669780" lon="5.8391640">
    <ele>31.3</ele>
    <time>2019-09-08T08:22:15Z</time>
   </trkpt>
   <trkpt lat="51.2670530" lon="5.8391240">
    <ele>31.2</ele>
    <time>2019-09-08T08:22:16Z</time>
   </trkpt>
   <trkpt lat="51.2671110" lon="5.8390790">
    <ele>31.1</ele>
    <time>2019-09-08T08:22:17Z</time>
   </trkpt>
   <trkpt lat="51.2671760" lon="5.8390400">
    <ele>31.1</ele>
    <time>2019-09-08T08:22:18Z</time>
   </trkpt>
   <trkpt lat="51.2672400" lon="5.8389950">
    <ele>31.0</ele>
    <time>2019-09-08T08:22:19Z</time>
   </trkpt>
   <trkpt lat="51.2673010" lon="5.8389480">
    <ele>30.9</ele>
    <time>2019-09-08T08:22:20Z</time>
   </trkpt>
   <trkpt lat="51.2673620" lon="5.8388990">
    <ele>30.8</ele>
    <time>2019-09-08T08:22:21Z</time>
   </trkpt>
   <trkpt lat="51.2674260" lon="5.8388670">
    <ele>30.8</ele>
    <time>2019-09-08T08:22:22Z</time>
   </trkpt>
   <trkpt lat="51.2674850" lon="5.8388270">
    <ele>30.7</ele>
    <time>2019-09-08T08:22:23Z</time>
   </trkpt>
   <trkpt lat="51.2675540" lon="5.8387840">
    <ele>30.7</ele>
    <time>2019-09-08T08:22:24Z</time>
   </trkpt>
   <trkpt lat="51.2676140" lon="5.8387410">
    <ele>30.6</ele>
    <time>2019-09-08T08:22:25Z</time>
   </trkpt>
   <trkpt lat="51.2676750" lon="5.8386980">
    <ele>30.6</ele>
    <time>2019-09-08T08:22:26Z</time>
   </trkpt>
   <trkpt lat="51.2677320" lon="5.8386540">
    <ele>30.6</ele>
    <time>2019-09-08T08:22:27Z</time>
   </trkpt>
   <trkpt lat="51.2677910" lon="5.8386210">
    <ele>30.6</ele>
    <time>2019-09-08T08:22:28Z</time>
   </trkpt>
   <trkpt lat="51.2678480" lon="5.8385860">
    <ele>30.6</ele>
    <time>2019-09-08T08:22:29Z</time>
   </trkpt>
   <trkpt lat="51.2679090" lon="5.8385370">
    <ele>30.6</ele>
    <time>2019-09-08T08:22:30Z</time>
   </trkpt>
   <trkpt lat="51.2679700" lon="5.8385000">
    <ele>30.6</ele>
    <time>2019-09-08T08:22:31Z</time>
   </trkpt>
   <trkpt lat="51.2680330" lon="5.8384670">
    <ele>30.6</ele>
    <time>2019-09-08T08:22:32Z</time>
   </trkpt>
   <trkpt lat="51.2680940" lon="5.8384280">
    <ele>30.6</ele>
    <time>2019-09-08T08:22:33Z</time>
   </trkpt>
   <trkpt lat="51.2681530" lon="5.8383830">
    <ele>30.6</ele>
    <time>2019-09-08T08:22:34Z</time>
   </trkpt>
   <trkpt lat="51.2682110" lon="5.8383450">
    <ele>30.6</ele>
    <time>2019-09-08T08:22:35Z</time>
   </trkpt>
   <trkpt lat="51.2682770" lon="5.8383070">
    <ele>30.6</ele>
    <time>2019-09-08T08:22:36Z</time>
   </trkpt>
   <trkpt lat="51.2683450" lon="5.8382470">
    <ele>30.6</ele>
    <time>2019-09-08T08:22:37Z</time>
   </trkpt>
   <trkpt lat="51.2684120" lon="5.8381990">
    <ele>30.6</ele>
    <time>2019-09-08T08:22:38Z</time>
   </trkpt>
   <trkpt lat="51.2684770" lon="5.8381520">
    <ele>30.6</ele>
    <time>2019-09-08T08:22:39Z</time>
   </trkpt>
   <trkpt lat="51.2685440" lon="5.8381210">
    <ele>30.6</ele>
    <time>2019-09-08T08:22:40Z</time>
   </trkpt>
   <trkpt lat="51.2686090" lon="5.8380710">
    <ele>30.6</ele>
    <time>2019-09-08T08:22:41Z</time>
   </trkpt>
   <trkpt lat="51.2686760" lon="5.8380430">
    <ele>30.6</ele>
    <time>2019-09-08T08:22:42Z</time>
   </trkpt>
   <trkpt lat="51.2687410" lon="5.8380070">
    <ele>30.5</ele>
    <time>2019-09-08T08:22:43Z</time>
   </trkpt>
   <trkpt lat="51.2688010" lon="5.8379690">
    <ele>30.5</ele>
    <time>2019-09-08T08:22:44Z</time>
   </trkpt>
   <trkpt lat="51.2688600" lon="5.8379240">
    <ele>30.5</ele>
    <time>2019-09-08T08:22:45Z</time>
   </trkpt>
   <trkpt lat="51.2689150" lon="5.8378710">
    <ele>30.4</ele>
    <time>2019-09-08T08:22:46Z</time>
   </trkpt>
   <trkpt lat="51.2689750" lon="5.8378340">
    <ele>30.3</ele>
    <time>2019-09-08T08:22:47Z</time>
   </trkpt>
   <trkpt lat="51.2690420" lon="5.8377910">
    <ele>30.3</ele>
    <time>2019-09-08T08:22:48Z</time>
   </trkpt>
   <trkpt lat="51.2691050" lon="5.8377670">
    <ele>30.2</ele>
    <time>2019-09-08T08:22:49Z</time>
   </trkpt>
   <trkpt lat="51.2691580" lon="5.8377210">
    <ele>30.1</ele>
    <time>2019-09-08T08:22:50Z</time>
   </trkpt>
   <trkpt lat="51.2692180" lon="5.8376810">
    <ele>30.1</ele>
    <time>2019-09-08T08:22:51Z</time>
   </trkpt>
   <trkpt lat="51.2692810" lon="5.8376370">
    <ele>30.1</ele>
    <time>2019-09-08T08:22:52Z</time>
   </trkpt>
   <trkpt lat="51.2693400" lon="5.8375980">
    <ele>30.3</ele>
    <time>2019-09-08T08:22:53Z</time>
   </trkpt>
   <trkpt lat="51.2693990" lon="5.8375630">
    <ele>30.5</ele>
    <time>2019-09-08T08:22:54Z</time>
   </trkpt>
   <trkpt lat="51.2694580" lon="5.8375230">
    <ele>30.6</ele>
    <time>2019-09-08T08:22:55Z</time>
   </trkpt>
   <trkpt lat="51.2695140" lon="5.8374780">
    <ele>30.7</ele>
    <time>2019-09-08T08:22:56Z</time>
   </trkpt>
   <trkpt lat="51.2695780" lon="5.8374400">
    <ele>30.8</ele>
    <time>2019-09-08T08:22:57Z</time>
   </trkpt>
   <trkpt lat="51.2696440" lon="5.8374040">
    <ele>30.8</ele>
    <time>2019-09-08T08:22:58Z</time>
   </trkpt>
   <trkpt lat="51.2697050" lon="5.8373680">
    <ele>30.8</ele>
    <time>2019-09-08T08:22:59Z</time>
   </trkpt>
   <trkpt lat="51.2697650" lon="5.8373390">
    <ele>30.7</ele>
    <time>2019-09-08T08:23:00Z</time>
   </trkpt>
   <trkpt lat="51.2698270" lon="5.8372890">
    <ele>30.7</ele>
    <time>2019-09-08T08:23:01Z</time>
   </trkpt>
   <trkpt lat="51.2698860" lon="5.8372560">
    <ele>30.6</ele>
    <time>2019-09-08T08:23:02Z</time>
   </trkpt>
   <trkpt lat="51.2699520" lon="5.8372040">
    <ele>30.6</ele>
    <time>2019-09-08T08:23:03Z</time>
   </trkpt>
   <trkpt lat="51.2700080" lon="5.8371640">
    <ele>30.6</ele>
    <time>2019-09-08T08:23:04Z</time>
   </trkpt>
   <trkpt lat="51.2700650" lon="5.8371240">
    <ele>30.5</ele>
    <time>2019-09-08T08:23:05Z</time>
   </trkpt>
   <trkpt lat="51.2701290" lon="5.8370870">
    <ele>30.5</ele>
    <time>2019-09-08T08:23:06Z</time>
   </trkpt>
   <trkpt lat="51.2701900" lon="5.8370510">
    <ele>30.5</ele>
    <time>2019-09-08T08:23:07Z</time>
   </trkpt>
   <trkpt lat="51.2702470" lon="5.8370060">
    <ele>30.4</ele>
    <time>2019-09-08T08:23:08Z</time>
   </trkpt>
   <trkpt lat="51.2703060" lon="5.8369520">
    <ele>30.4</ele>
    <time>2019-09-08T08:23:09Z</time>
   </trkpt>
   <trkpt lat="51.2703670" lon="5.8368990">
    <ele>30.3</ele>
    <time>2019-09-08T08:23:10Z</time>
   </trkpt>
   <trkpt lat="51.2704370" lon="5.8368540">
    <ele>30.2</ele>
    <time>2019-09-08T08:23:11Z</time>
   </trkpt>
   <trkpt lat="51.2705020" lon="5.8368070">
    <ele>30.1</ele>
    <time>2019-09-08T08:23:12Z</time>
   </trkpt>
   <trkpt lat="51.2705700" lon="5.8367580">
    <ele>30.0</ele>
    <time>2019-09-08T08:23:13Z</time>
   </trkpt>
   <trkpt lat="51.2706430" lon="5.8367210">
    <ele>30.0</ele>
    <time>2019-09-08T08:23:14Z</time>
   </trkpt>
   <trkpt lat="51.2707100" lon="5.8366800">
    <ele>30.0</ele>
    <time>2019-09-08T08:23:15Z</time>
   </trkpt>
   <trkpt lat="51.2707840" lon="5.8366200">
    <ele>30.0</ele>
    <time>2019-09-08T08:23:16Z</time>
   </trkpt>
   <trkpt lat="51.2708500" lon="5.8365820">
    <ele>30.0</ele>
    <time>2019-09-08T08:23:17Z</time>
   </trkpt>
   <trkpt lat="51.2709130" lon="5.8365320">
    <ele>30.0</ele>
    <time>2019-09-08T08:23:18Z</time>
   </trkpt>
   <trkpt lat="51.2709820" lon="5.8364840">
    <ele>30.1</ele>
    <time>2019-09-08T08:23:19Z</time>
   </trkpt>
   <trkpt lat="51.2710460" lon="5.8364360">
    <ele>30.2</ele>
    <time>2019-09-08T08:23:20Z</time>
   </trkpt>
   <trkpt lat="51.2711140" lon="5.8363840">
    <ele>30.3</ele>
    <time>2019-09-08T08:23:21Z</time>
   </trkpt>
   <trkpt lat="51.2711800" lon="5.8363470">
    <ele>30.4</ele>
    <time>2019-09-08T08:23:22Z</time>
   </trkpt>
   <trkpt lat="51.2712470" lon="5.8362920">
    <ele>30.5</ele>
    <time>2019-09-08T08:23:23Z</time>
   </trkpt>
   <trkpt lat="51.2713140" lon="5.8362520">
    <ele>30.5</ele>
    <time>2019-09-08T08:23:24Z</time>
   </trkpt>
   <trkpt lat="51.2713780" lon="5.8362110">
    <ele>30.5</ele>
    <time>2019-09-08T08:23:25Z</time>
   </trkpt>
   <trkpt lat="51.2714400" lon="5.8361670">
    <ele>30.5</ele>
    <time>2019-09-08T08:23:26Z</time>
   </trkpt>
   <trkpt lat="51.2715090" lon="5.8361190">
    <ele>30.5</ele>
    <time>2019-09-08T08:23:27Z</time>
   </trkpt>
   <trkpt lat="51.2715700" lon="5.8360690">
    <ele>30.5</ele>
    <time>2019-09-08T08:23:28Z</time>
   </trkpt>
   <trkpt lat="51.2716360" lon="5.8360190">
    <ele>30.6</ele>
    <time>2019-09-08T08:23:29Z</time>
   </trkpt>
   <trkpt lat="51.2717040" lon="5.8359780">
    <ele>30.6</ele>
    <time>2019-09-08T08:23:30Z</time>
   </trkpt>
   <trkpt lat="51.2717650" lon="5.8359280">
    <ele>30.6</ele>
    <time>2019-09-08T08:23:31Z</time>
   </trkpt>
   <trkpt lat="51.2718340" lon="5.8358810">
    <ele>30.6</ele>
    <time>2019-09-08T08:23:32Z</time>
   </trkpt>
   <trkpt lat="51.2719020" lon="5.8358370">
    <ele>30.6</ele>
    <time>2019-09-08T08:23:33Z</time>
   </trkpt>
   <trkpt lat="51.2719680" lon="5.8357800">
    <ele>30.6</ele>
    <time>2019-09-08T08:23:34Z</time>
   </trkpt>
   <trkpt lat="51.2720340" lon="5.8357350">
    <ele>30.6</ele>
    <time>2019-09-08T08:23:35Z</time>
   </trkpt>
   <trkpt lat="51.2721000" lon="5.8356760">
    <ele>30.6</ele>
    <time>2019-09-08T08:23:36Z</time>
   </trkpt>
   <trkpt lat="51.2721630" lon="5.8356420">
    <ele>30.6</ele>
    <time>2019-09-08T08:23:37Z</time>
   </trkpt>
   <trkpt lat="51.2722280" lon="5.8356050">
    <ele>30.6</ele>
    <time>2019-09-08T08:23:38Z</time>
   </trkpt>
   <trkpt lat="51.2722880" lon="5.8355590">
    <ele>30.6</ele>
    <time>2019-09-08T08:23:39Z</time>
   </trkpt>
   <trkpt lat="51.2723550" lon="5.8355070">
    <ele>30.6</ele>
    <time>2019-09-08T08:23:40Z</time>
   </trkpt>
   <trkpt lat="51.2724140" lon="5.8354490">
    <ele>30.6</ele>
    <time>2019-09-08T08:23:41Z</time>
   </trkpt>
   <trkpt lat="51.2724770" lon="5.8354100">
    <ele>30.6</ele>
    <time>2019-09-08T08:23:42Z</time>
   </trkpt>
   <trkpt lat="51.2725470" lon="5.8353720">
    <ele>30.6</ele>
    <time>2019-09-08T08:23:43Z</time>
   </trkpt>
   <trkpt lat="51.2726160" lon="5.8353300">
    <ele>30.6</ele>
    <time>2019-09-08T08:23:44Z</time>
   </trkpt>
   <trkpt lat="51.2726820" lon="5.8352840">
    <ele>30.6</ele>
    <time>2019-09-08T08:23:45Z</time>
   </trkpt>
   <trkpt lat="51.2727410" lon="5.8352350">
    <ele>30.6</ele>
    <time>2019-09-08T08:23:46Z</time>
   </trkpt>
   <trkpt lat="51.2728080" lon="5.8352000">
    <ele>30.6</ele>
    <time>2019-09-08T08:23:47Z</time>
   </trkpt>
   <trkpt lat="51.2728660" lon="5.8351530">
    <ele>30.6</ele>
    <time>2019-09-08T08:23:48Z</time>
   </trkpt>
   <trkpt lat="51.2729310" lon="5.8351190">
    <ele>30.5</ele>
    <time>2019-09-08T08:23:49Z</time>
   </trkpt>
   <trkpt lat="51.2729900" lon="5.8350790">
    <ele>30.5</ele>
    <time>2019-09-08T08:23:50Z</time>
   </trkpt>
   <trkpt lat="51.2730530" lon="5.8350360">
    <ele>30.5</ele>
    <time>2019-09-08T08:23:51Z</time>
   </trkpt>
   <trkpt lat="51.2731160" lon="5.8349930">
    <ele>30.5</ele>
    <time>2019-09-08T08:23:52Z</time>
   </trkpt>
   <trkpt lat="51.2731780" lon="5.8349440">
    <ele>30.5</ele>
    <time>2019-09-08T08:23:53Z</time>
   </trkpt>
   <trkpt lat="51.2732440" lon="5.8349020">
    <ele>30.5</ele>
    <time>2019-09-08T08:23:54Z</time>
   </trkpt>
   <trkpt lat="51.2732950" lon="5.8348540">
    <ele>30.5</ele>
    <time>2019-09-08T08:23:55Z</time>
   </trkpt>
   <trkpt lat="51.2733580" lon="5.8348140">
    <ele>30.6</ele>
    <time>2019-09-08T08:23:56Z</time>
   </trkpt>
   <trkpt lat="51.2734210" lon="5.8347760">
    <ele>30.8</ele>
    <time>2019-09-08T08:23:57Z</time>
   </trkpt>
   <trkpt lat="51.2734810" lon="5.8347260">
    <ele>30.8</ele>
    <time>2019-09-08T08:23:58Z</time>
   </trkpt>
   <trkpt lat="51.2735430" lon="5.8346900">
    <ele>30.8</ele>
    <time>2019-09-08T08:23:59Z</time>
   </trkpt>
   <trkpt lat="51.2736120" lon="5.8346440">
    <ele>30.8</ele>
    <time>2019-09-08T08:24:00Z</time>
   </trkpt>
   <trkpt lat="51.2736750" lon="5.8346100">
    <ele>30.8</ele>
    <time>2019-09-08T08:24:01Z</time>
   </trkpt>
   <trkpt lat="51.2737380" lon="5.8345660">
    <ele>30.8</ele>
    <time>2019-09-08T08:24:02Z</time>
   </trkpt>
   <trkpt lat="51.2738010" lon="5.8345280">
    <ele>30.8</ele>
    <time>2019-09-08T08:24:03Z</time>
   </trkpt>
   <trkpt lat="51.2738650" lon="5.8344850">
    <ele>30.8</ele>
    <time>2019-09-08T08:24:04Z</time>
   </trkpt>
   <trkpt lat="51.2739240" lon="5.8344470">
    <ele>30.8</ele>
    <time>2019-09-08T08:24:05Z</time>
   </trkpt>
   <trkpt lat="51.2739850" lon="5.8344030">
    <ele>30.8</ele>
    <time>2019-09-08T08:24:06Z</time>
   </trkpt>
   <trkpt lat="51.2740650" lon="5.8343580">
    <ele>30.8</ele>
    <time>2019-09-08T08:24:07Z</time>
   </trkpt>
   <trkpt lat="51.2741310" lon="5.8343090">
    <ele>30.8</ele>
    <time>2019-09-08T08:24:08Z</time>
   </trkpt>
   <trkpt lat="51.2741950" lon="5.8342660">
    <ele>30.8</ele>
    <time>2019-09-08T08:24:09Z</time>
   </trkpt>
   <trkpt lat="51.2742600" lon="5.8342270">
    <ele>30.7</ele>
    <time>2019-09-08T08:24:10Z</time>
   </trkpt>
   <trkpt lat="51.2743250" lon="5.8341730">
    <ele>30.7</ele>
    <time>2019-09-08T08:24:11Z</time>
   </trkpt>
   <trkpt lat="51.2743900" lon="5.8341230">
    <ele>30.7</ele>
    <time>2019-09-08T08:24:12Z</time>
   </trkpt>
   <trkpt lat="51.2744530" lon="5.8340830">
    <ele>30.6</ele>
    <time>2019-09-08T08:24:13Z</time>
   </trkpt>
   <trkpt lat="51.2745220" lon="5.8340410">
    <ele>30.6</ele>
    <time>2019-09-08T08:24:14Z</time>
   </trkpt>
   <trkpt lat="51.2745800" lon="5.8340020">
    <ele>30.5</ele>
    <time>2019-09-08T08:24:15Z</time>
   </trkpt>
   <trkpt lat="51.2746250" lon="5.8339570">
    <ele>30.5</ele>
    <time>2019-09-08T08:24:16Z</time>
   </trkpt>
   <trkpt lat="51.2746750" lon="5.8339170">
    <ele>30.5</ele>
    <time>2019-09-08T08:24:17Z</time>
   </trkpt>
   <trkpt lat="51.2747300" lon="5.8338880">
    <ele>30.5</ele>
    <time>2019-09-08T08:24:18Z</time>
   </trkpt>
   <trkpt lat="51.2747790" lon="5.8338250">
    <ele>30.6</ele>
    <time>2019-09-08T08:24:19Z</time>
   </trkpt>
   <trkpt lat="51.2748150" lon="5.8337630">
    <ele>30.7</ele>
    <time>2019-09-08T08:24:20Z</time>
   </trkpt>
   <trkpt lat="51.2748520" lon="5.8336900">
    <ele>30.6</ele>
    <time>2019-09-08T08:24:21Z</time>
   </trkpt>
   <trkpt lat="51.2748400" lon="5.8335700">
    <ele>30.6</ele>
    <time>2019-09-08T08:24:22Z</time>
   </trkpt>
   <trkpt lat="51.2748420" lon="5.8334670">
    <ele>30.6</ele>
    <time>2019-09-08T08:24:23Z</time>
   </trkpt>
   <trkpt lat="51.2748370" lon="5.8333600">
    <ele>30.6</ele>
    <time>2019-09-08T08:24:24Z</time>
   </trkpt>
   <trkpt lat="51.2748360" lon="5.8332620">
    <ele>30.6</ele>
    <time>2019-09-08T08:24:25Z</time>
   </trkpt>
   <trkpt lat="51.2748280" lon="5.8331530">
    <ele>30.5</ele>
    <time>2019-09-08T08:24:26Z</time>
   </trkpt>
   <trkpt lat="51.2748240" lon="5.8330450">
    <ele>30.5</ele>
    <time>2019-09-08T08:24:27Z</time>
   </trkpt>
   <trkpt lat="51.2748140" lon="5.8329380">
    <ele>30.4</ele>
    <time>2019-09-08T08:24:28Z</time>
   </trkpt>
   <trkpt lat="51.2748080" lon="5.8328310">
    <ele>30.4</ele>
    <time>2019-09-08T08:24:29Z</time>
   </trkpt>
   <trkpt lat="51.2748010" lon="5.8327240">
    <ele>30.3</ele>
    <time>2019-09-08T08:24:30Z</time>
   </trkpt>
   <trkpt lat="51.2747990" lon="5.8326150">
    <ele>30.2</ele>
    <time>2019-09-08T08:24:31Z</time>
   </trkpt>
   <trkpt lat="51.2748000" lon="5.8325020">
    <ele>30.1</ele>
    <time>2019-09-08T08:24:32Z</time>
   </trkpt>
   <trkpt lat="51.2747970" lon="5.8323910">
    <ele>30.1</ele>
    <time>2019-09-08T08:24:33Z</time>
   </trkpt>
   <trkpt lat="51.2747930" lon="5.8322740">
    <ele>30.0</ele>
    <time>2019-09-08T08:24:34Z</time>
   </trkpt>
   <trkpt lat="51.2747870" lon="5.8321640">
    <ele>29.9</ele>
    <time>2019-09-08T08:24:35Z</time>
   </trkpt>
   <trkpt lat="51.2747830" lon="5.8320510">
    <ele>29.8</ele>
    <time>2019-09-08T08:24:36Z</time>
   </trkpt>
   <trkpt lat="51.2747760" lon="5.8319370">
    <ele>29.8</ele>
    <time>2019-09-08T08:24:37Z</time>
   </trkpt>
   <trkpt lat="51.2747710" lon="5.8318340">
    <ele>29.7</ele>
    <time>2019-09-08T08:24:38Z</time>
   </trkpt>
   <trkpt lat="51.2747540" lon="5.8317190">
    <ele>29.7</ele>
    <time>2019-09-08T08:24:39Z</time>
   </trkpt>
   <trkpt lat="51.2747450" lon="5.8316080">
    <ele>29.7</ele>
    <time>2019-09-08T08:24:40Z</time>
   </trkpt>
   <trkpt lat="51.2747470" lon="5.8314890">
    <ele>29.7</ele>
    <time>2019-09-08T08:24:41Z</time>
   </trkpt>
   <trkpt lat="51.2747410" lon="5.8313910">
    <ele>29.7</ele>
    <time>2019-09-08T08:24:42Z</time>
   </trkpt>
   <trkpt lat="51.2747340" lon="5.8312920">
    <ele>29.7</ele>
    <time>2019-09-08T08:24:43Z</time>
   </trkpt>
   <trkpt lat="51.2747270" lon="5.8311870">
    <ele>29.7</ele>
    <time>2019-09-08T08:24:44Z</time>
   </trkpt>
   <trkpt lat="51.2747140" lon="5.8310880">
    <ele>29.7</ele>
    <time>2019-09-08T08:24:45Z</time>
   </trkpt>
   <trkpt lat="51.2747010" lon="5.8309830">
    <ele>29.7</ele>
    <time>2019-09-08T08:24:46Z</time>
   </trkpt>
   <trkpt lat="51.2746940" lon="5.8308830">
    <ele>29.7</ele>
    <time>2019-09-08T08:24:47Z</time>
   </trkpt>
   <trkpt lat="51.2746900" lon="5.8307800">
    <ele>29.7</ele>
    <time>2019-09-08T08:24:48Z</time>
   </trkpt>
   <trkpt lat="51.2746800" lon="5.8306730">
    <ele>29.7</ele>
    <time>2019-09-08T08:24:49Z</time>
   </trkpt>
   <trkpt lat="51.2746720" lon="5.8305530">
    <ele>29.7</ele>
    <time>2019-09-08T08:24:50Z</time>
   </trkpt>
   <trkpt lat="51.2746630" lon="5.8304510">
    <ele>29.7</ele>
    <time>2019-09-08T08:24:51Z</time>
   </trkpt>
   <trkpt lat="51.2746620" lon="5.8303510">
    <ele>29.7</ele>
    <time>2019-09-08T08:24:52Z</time>
   </trkpt>
   <trkpt lat="51.2746550" lon="5.8302480">
    <ele>29.7</ele>
    <time>2019-09-08T08:24:53Z</time>
   </trkpt>
   <trkpt lat="51.2746510" lon="5.8301350">
    <ele>29.8</ele>
    <time>2019-09-08T08:24:54Z</time>
   </trkpt>
   <trkpt lat="51.2746430" lon="5.8300260">
    <ele>29.8</ele>
    <time>2019-09-08T08:24:55Z</time>
   </trkpt>
   <trkpt lat="51.2746380" lon="5.8299280">
    <ele>29.9</ele>
    <time>2019-09-08T08:24:56Z</time>
   </trkpt>
   <trkpt lat="51.2746340" lon="5.8298170">
    <ele>29.9</ele>
    <time>2019-09-08T08:24:57Z</time>
   </trkpt>
   <trkpt lat="51.2746200" lon="5.8297040">
    <ele>30.0</ele>
    <time>2019-09-08T08:24:58Z</time>
   </trkpt>
   <trkpt lat="51.2746150" lon="5.8295880">
    <ele>30.0</ele>
    <time>2019-09-08T08:24:59Z</time>
   </trkpt>
   <trkpt lat="51.2746090" lon="5.8294810">
    <ele>30.0</ele>
    <time>2019-09-08T08:25:00Z</time>
   </trkpt>
   <trkpt lat="51.2746030" lon="5.8293730">
    <ele>30.0</ele>
    <time>2019-09-08T08:25:01Z</time>
   </trkpt>
   <trkpt lat="51.2745970" lon="5.8292660">
    <ele>30.0</ele>
    <time>2019-09-08T08:25:02Z</time>
   </trkpt>
   <trkpt lat="51.2745930" lon="5.8291570">
    <ele>30.0</ele>
    <time>2019-09-08T08:25:03Z</time>
   </trkpt>
   <trkpt lat="51.2745860" lon="5.8290450">
    <ele>29.9</ele>
    <time>2019-09-08T08:25:04Z</time>
   </trkpt>
   <trkpt lat="51.2745860" lon="5.8289350">
    <ele>29.9</ele>
    <time>2019-09-08T08:25:05Z</time>
   </trkpt>
   <trkpt lat="51.2745830" lon="5.8288220">
    <ele>29.9</ele>
    <time>2019-09-08T08:25:06Z</time>
   </trkpt>
   <trkpt lat="51.2745860" lon="5.8287090">
    <ele>29.9</ele>
    <time>2019-09-08T08:25:07Z</time>
   </trkpt>
   <trkpt lat="51.2745780" lon="5.8286020">
    <ele>29.8</ele>
    <time>2019-09-08T08:25:08Z</time>
   </trkpt>
   <trkpt lat="51.2745740" lon="5.8285000">
    <ele>29.8</ele>
    <time>2019-09-08T08:25:09Z</time>
   </trkpt>
   <trkpt lat="51.2745600" lon="5.8283940">
    <ele>29.8</ele>
    <time>2019-09-08T08:25:10Z</time>
   </trkpt>
   <trkpt lat="51.2745540" lon="5.8282890">
    <ele>29.8</ele>
    <time>2019-09-08T08:25:11Z</time>
   </trkpt>
   <trkpt lat="51.2745480" lon="5.8281890">
    <ele>29.8</ele>
    <time>2019-09-08T08:25:12Z</time>
   </trkpt>
   <trkpt lat="51.2745390" lon="5.8280830">
    <ele>29.8</ele>
    <time>2019-09-08T08:25:13Z</time>
   </trkpt>
   <trkpt lat="51.2745330" lon="5.8279740">
    <ele>29.8</ele>
    <time>2019-09-08T08:25:14Z</time>
   </trkpt>
   <trkpt lat="51.2745290" lon="5.8278610">
    <ele>29.8</ele>
    <time>2019-09-08T08:25:15Z</time>
   </trkpt>
   <trkpt lat="51.2745210" lon="5.8277470">
    <ele>29.8</ele>
    <time>2019-09-08T08:25:16Z</time>
   </trkpt>
   <trkpt lat="51.2745160" lon="5.8276400">
    <ele>29.8</ele>
    <time>2019-09-08T08:25:17Z</time>
   </trkpt>
   <trkpt lat="51.2745070" lon="5.8275280">
    <ele>29.9</ele>
    <time>2019-09-08T08:25:18Z</time>
   </trkpt>
   <trkpt lat="51.2744980" lon="5.8274280">
    <ele>29.9</ele>
    <time>2019-09-08T08:25:19Z</time>
   </trkpt>
   <trkpt lat="51.2744830" lon="5.8273220">
    <ele>29.9</ele>
    <time>2019-09-08T08:25:20Z</time>
   </trkpt>
   <trkpt lat="51.2744750" lon="5.8272150">
    <ele>30.0</ele>
    <time>2019-09-08T08:25:21Z</time>
   </trkpt>
   <trkpt lat="51.2744750" lon="5.8271130">
    <ele>30.0</ele>
    <time>2019-09-08T08:25:22Z</time>
   </trkpt>
   <trkpt lat="51.2744710" lon="5.8270090">
    <ele>30.1</ele>
    <time>2019-09-08T08:25:23Z</time>
   </trkpt>
   <trkpt lat="51.2744660" lon="5.8268980">
    <ele>30.1</ele>
    <time>2019-09-08T08:25:24Z</time>
   </trkpt>
   <trkpt lat="51.2744570" lon="5.8267860">
    <ele>30.1</ele>
    <time>2019-09-08T08:25:25Z</time>
   </trkpt>
   <trkpt lat="51.2744490" lon="5.8266820">
    <ele>30.2</ele>
    <time>2019-09-08T08:25:26Z</time>
   </trkpt>
   <trkpt lat="51.2744360" lon="5.8265850">
    <ele>30.2</ele>
    <time>2019-09-08T08:25:27Z</time>
   </trkpt>
   <trkpt lat="51.2744240" lon="5.8264880">
    <ele>30.2</ele>
    <time>2019-09-08T08:25:28Z</time>
   </trkpt>
   <trkpt lat="51.2744240" lon="5.8263630">
    <ele>30.3</ele>
    <time>2019-09-08T08:25:29Z</time>
   </trkpt>
   <trkpt lat="51.2744170" lon="5.8262540">
    <ele>30.3</ele>
    <time>2019-09-08T08:25:30Z</time>
   </trkpt>
   <trkpt lat="51.2744200" lon="5.8261260">
    <ele>30.3</ele>
    <time>2019-09-08T08:25:31Z</time>
   </trkpt>
   <trkpt lat="51.2744140" lon="5.8260120">
    <ele>30.4</ele>
    <time>2019-09-08T08:25:32Z</time>
   </trkpt>
   <trkpt lat="51.2744080" lon="5.8258960">
    <ele>30.4</ele>
    <time>2019-09-08T08:25:33Z</time>
   </trkpt>
   <trkpt lat="51.2744020" lon="5.8257930">
    <ele>30.4</ele>
    <time>2019-09-08T08:25:34Z</time>
   </trkpt>
   <trkpt lat="51.2743980" lon="5.8256840">
    <ele>30.5</ele>
    <time>2019-09-08T08:25:35Z</time>
   </trkpt>
   <trkpt lat="51.2743930" lon="5.8255780">
    <ele>30.5</ele>
    <time>2019-09-08T08:25:36Z</time>
   </trkpt>
   <trkpt lat="51.2743860" lon="5.8254530">
    <ele>30.5</ele>
    <time>2019-09-08T08:25:37Z</time>
   </trkpt>
   <trkpt lat="51.2743790" lon="5.8253470">
    <ele>30.6</ele>
    <time>2019-09-08T08:25:38Z</time>
   </trkpt>
   <trkpt lat="51.2743740" lon="5.8252360">
    <ele>30.6</ele>
    <time>2019-09-08T08:25:39Z</time>
   </trkpt>
   <trkpt lat="51.2743620" lon="5.8251280">
    <ele>30.6</ele>
    <time>2019-09-08T08:25:40Z</time>
   </trkpt>
   <trkpt lat="51.2743520" lon="5.8250250">
    <ele>30.7</ele>
    <time>2019-09-08T08:25:41Z</time>
   </trkpt>
   <trkpt lat="51.2743500" lon="5.8249090">
    <ele>30.7</ele>
    <time>2019-09-08T08:25:42Z</time>
   </trkpt>
   <trkpt lat="51.2743420" lon="5.8248050">
    <ele>30.8</ele>
    <time>2019-09-08T08:25:43Z</time>
   </trkpt>
   <trkpt lat="51.2743390" lon="5.8246980">
    <ele>30.8</ele>
    <time>2019-09-08T08:25:44Z</time>
   </trkpt>
   <trkpt lat="51.2743400" lon="5.8245830">
    <ele>30.8</ele>
    <time>2019-09-08T08:25:45Z</time>
   </trkpt>
   <trkpt lat="51.2743340" lon="5.8244770">
    <ele>30.9</ele>
    <time>2019-09-08T08:25:46Z</time>
   </trkpt>
   <trkpt lat="51.2743240" lon="5.8243700">
    <ele>31.0</ele>
    <time>2019-09-08T08:25:47Z</time>
   </trkpt>
   <trkpt lat="51.2743190" lon="5.8242550">
    <ele>31.0</ele>
    <time>2019-09-08T08:25:48Z</time>
   </trkpt>
   <trkpt lat="51.2743170" lon="5.8241550">
    <ele>31.1</ele>
    <time>2019-09-08T08:25:49Z</time>
   </trkpt>
   <trkpt lat="51.2743130" lon="5.8240460">
    <ele>31.2</ele>
    <time>2019-09-08T08:25:50Z</time>
   </trkpt>
   <trkpt lat="51.2743080" lon="5.8239360">
    <ele>31.3</ele>
    <time>2019-09-08T08:25:51Z</time>
   </trkpt>
   <trkpt lat="51.2743010" lon="5.8238230">
    <ele>31.3</ele>
    <time>2019-09-08T08:25:52Z</time>
   </trkpt>
   <trkpt lat="51.2742980" lon="5.8237170">
    <ele>31.4</ele>
    <time>2019-09-08T08:25:53Z</time>
   </trkpt>
   <trkpt lat="51.2742920" lon="5.8236110">
    <ele>31.4</ele>
    <time>2019-09-08T08:25:54Z</time>
   </trkpt>
   <trkpt lat="51.2742870" lon="5.8235150">
    <ele>31.5</ele>
    <time>2019-09-08T08:25:55Z</time>
   </trkpt>
   <trkpt lat="51.2742810" lon="5.8234060">
    <ele>31.6</ele>
    <time>2019-09-08T08:25:56Z</time>
   </trkpt>
   <trkpt lat="51.2742750" lon="5.8233020">
    <ele>31.6</ele>
    <time>2019-09-08T08:25:57Z</time>
   </trkpt>
   <trkpt lat="51.2742690" lon="5.8231820">
    <ele>31.7</ele>
    <time>2019-09-08T08:25:58Z</time>
   </trkpt>
   <trkpt lat="51.2742600" lon="5.8230750">
    <ele>31.7</ele>
    <time>2019-09-08T08:25:59Z</time>
   </trkpt>
   <trkpt lat="51.2742480" lon="5.8229630">
    <ele>31.8</ele>
    <time>2019-09-08T08:26:00Z</time>
   </trkpt>
   <trkpt lat="51.2742380" lon="5.8228560">
    <ele>31.8</ele>
    <time>2019-09-08T08:26:01Z</time>
   </trkpt>
   <trkpt lat="51.2742300" lon="5.8227510">
    <ele>31.8</ele>
    <time>2019-09-08T08:26:02Z</time>
   </trkpt>
   <trkpt lat="51.2742230" lon="5.8226390">
    <ele>31.9</ele>
    <time>2019-09-08T08:26:03Z</time>
   </trkpt>
   <trkpt lat="51.2742200" lon="5.8225260">
    <ele>31.9</ele>
    <time>2019-09-08T08:26:04Z</time>
   </trkpt>
   <trkpt lat="51.2742130" lon="5.8224190">
    <ele>31.9</ele>
    <time>2019-09-08T08:26:05Z</time>
   </trkpt>
   <trkpt lat="51.2742080" lon="5.8223050">
    <ele>32.0</ele>
    <time>2019-09-08T08:26:06Z</time>
   </trkpt>
   <trkpt lat="51.2742010" lon="5.8221890">
    <ele>32.0</ele>
    <time>2019-09-08T08:26:07Z</time>
   </trkpt>
   <trkpt lat="51.2741940" lon="5.8220840">
    <ele>32.0</ele>
    <time>2019-09-08T08:26:08Z</time>
   </trkpt>
   <trkpt lat="51.2741920" lon="5.8219750">
    <ele>32.0</ele>
    <time>2019-09-08T08:26:09Z</time>
   </trkpt>
   <trkpt lat="51.2741840" lon="5.8218570">
    <ele>32.1</ele>
    <time>2019-09-08T08:26:10Z</time>
   </trkpt>
   <trkpt lat="51.2741740" lon="5.8217640">
    <ele>32.1</ele>
    <time>2019-09-08T08:26:11Z</time>
   </trkpt>
   <trkpt lat="51.2741720" lon="5.8216450">
    <ele>32.1</ele>
    <time>2019-09-08T08:26:12Z</time>
   </trkpt>
   <trkpt lat="51.2741610" lon="5.8215330">
    <ele>32.0</ele>
    <time>2019-09-08T08:26:13Z</time>
   </trkpt>
   <trkpt lat="51.2741570" lon="5.8214280">
    <ele>32.0</ele>
    <time>2019-09-08T08:26:14Z</time>
   </trkpt>
   <trkpt lat="51.2741530" lon="5.8213240">
    <ele>32.0</ele>
    <time>2019-09-08T08:26:15Z</time>
   </trkpt>
   <trkpt lat="51.2741480" lon="5.8212140">
    <ele>31.9</ele>
    <time>2019-09-08T08:26:16Z</time>
   </trkpt>
   <trkpt lat="51.2741440" lon="5.8211100">
    <ele>31.9</ele>
    <time>2019-09-08T08:26:17Z</time>
   </trkpt>
   <trkpt lat="51.2741350" lon="5.8210080">
    <ele>31.8</ele>
    <time>2019-09-08T08:26:18Z</time>
   </trkpt>
   <trkpt lat="51.2741280" lon="5.8208950">
    <ele>31.8</ele>
    <time>2019-09-08T08:26:19Z</time>
   </trkpt>
   <trkpt lat="51.2741190" lon="5.8207920">
    <ele>31.7</ele>
    <time>2019-09-08T08:26:20Z</time>
   </trkpt>
   <trkpt lat="51.2741140" lon="5.8206900">
    <ele>31.6</ele>
    <time>2019-09-08T08:26:21Z</time>
   </trkpt>
   <trkpt lat="51.2741140" lon="5.8206000">
    <ele>31.6</ele>
    <time>2019-09-08T08:26:22Z</time>
   </trkpt>
   <trkpt lat="51.2741090" lon="5.8204860">
    <ele>31.5</ele>
    <time>2019-09-08T08:26:23Z</time>
   </trkpt>
   <trkpt lat="51.2741010" lon="5.8203780">
    <ele>31.5</ele>
    <time>2019-09-08T08:26:24Z</time>
   </trkpt>
   <trkpt lat="51.2740960" lon="5.8202620">
    <ele>31.4</ele>
    <time>2019-09-08T08:26:25Z</time>
   </trkpt>
   <trkpt lat="51.2740950" lon="5.8201440">
    <ele>31.4</ele>
    <time>2019-09-08T08:26:26Z</time>
   </trkpt>
   <trkpt lat="51.2740930" lon="5.8200410">
    <ele>31.3</ele>
    <time>2019-09-08T08:26:27Z</time>
   </trkpt>
   <trkpt lat="51.2740890" lon="5.8199260">
    <ele>31.3</ele>
    <time>2019-09-08T08:26:28Z</time>
   </trkpt>
   <trkpt lat="51.2740810" lon="5.8198170">
    <ele>31.2</ele>
    <time>2019-09-08T08:26:29Z</time>
   </trkpt>
   <trkpt lat="51.2740780" lon="5.8197130">
    <ele>31.2</ele>
    <time>2019-09-08T08:26:30Z</time>
   </trkpt>
   <trkpt lat="51.2740750" lon="5.8196410">
    <ele>31.2</ele>
    <time>2019-09-08T08:26:31Z</time>
   </trkpt>
   <trkpt lat="51.2740640" lon="5.8195300">
    <ele>31.1</ele>
    <time>2019-09-08T08:26:32Z</time>
   </trkpt>
   <trkpt lat="51.2740520" lon="5.8194150">
    <ele>31.0</ele>
    <time>2019-09-08T08:26:33Z</time>
   </trkpt>
   <trkpt lat="51.2740420" lon="5.8193050">
    <ele>31.0</ele>
    <time>2019-09-08T08:26:34Z</time>
   </trkpt>
   <trkpt lat="51.2740430" lon="5.8191820">
    <ele>30.9</ele>
    <time>2019-09-08T08:26:35Z</time>
   </trkpt>
   <trkpt lat="51.2740360" lon="5.8190750">
    <ele>30.8</ele>
    <time>2019-09-08T08:26:36Z</time>
   </trkpt>
   <trkpt lat="51.2740350" lon="5.8189660">
    <ele>30.8</ele>
    <time>2019-09-08T08:26:37Z</time>
   </trkpt>
   <trkpt lat="51.2740260" lon="5.8188600">
    <ele>30.7</ele>
    <time>2019-09-08T08:26:38Z</time>
   </trkpt>
   <trkpt lat="51.2740230" lon="5.8187470">
    <ele>30.7</ele>
    <time>2019-09-08T08:26:39Z</time>
   </trkpt>
   <trkpt lat="51.2740190" lon="5.8186430">
    <ele>30.6</ele>
    <time>2019-09-08T08:26:40Z</time>
   </trkpt>
   <trkpt lat="51.2740140" lon="5.8185340">
    <ele>30.6</ele>
    <time>2019-09-08T08:26:41Z</time>
   </trkpt>
   <trkpt lat="51.2740120" lon="5.8184220">
    <ele>30.5</ele>
    <time>2019-09-08T08:26:42Z</time>
   </trkpt>
   <trkpt lat="51.2740040" lon="5.8183100">
    <ele>30.5</ele>
    <time>2019-09-08T08:26:43Z</time>
   </trkpt>
   <trkpt lat="51.2739960" lon="5.8182020">
    <ele>30.4</ele>
    <time>2019-09-08T08:26:44Z</time>
   </trkpt>
   <trkpt lat="51.2739880" lon="5.8180930">
    <ele>30.3</ele>
    <time>2019-09-08T08:26:45Z</time>
   </trkpt>
   <trkpt lat="51.2739870" lon="5.8179770">
    <ele>30.3</ele>
    <time>2019-09-08T08:26:46Z</time>
   </trkpt>
   <trkpt lat="51.2739830" lon="5.8178650">
    <ele>30.2</ele>
    <time>2019-09-08T08:26:47Z</time>
   </trkpt>
   <trkpt lat="51.2739750" lon="5.8177550">
    <ele>30.2</ele>
    <time>2019-09-08T08:26:48Z</time>
   </trkpt>
   <trkpt lat="51.2739720" lon="5.8176490">
    <ele>30.1</ele>
    <time>2019-09-08T08:26:49Z</time>
   </trkpt>
   <trkpt lat="51.2739660" lon="5.8175270">
    <ele>30.1</ele>
    <time>2019-09-08T08:26:50Z</time>
   </trkpt>
   <trkpt lat="51.2739510" lon="5.8174270">
    <ele>30.1</ele>
    <time>2019-09-08T08:26:51Z</time>
   </trkpt>
   <trkpt lat="51.2739430" lon="5.8173110">
    <ele>30.0</ele>
    <time>2019-09-08T08:26:52Z</time>
   </trkpt>
   <trkpt lat="51.2739330" lon="5.8172020">
    <ele>30.0</ele>
    <time>2019-09-08T08:26:53Z</time>
   </trkpt>
   <trkpt lat="51.2739230" lon="5.8170900">
    <ele>30.0</ele>
    <time>2019-09-08T08:26:54Z</time>
   </trkpt>
   <trkpt lat="51.2739190" lon="5.8169820">
    <ele>29.9</ele>
    <time>2019-09-08T08:26:55Z</time>
   </trkpt>
   <trkpt lat="51.2739100" lon="5.8168700">
    <ele>29.9</ele>
    <time>2019-09-08T08:26:56Z</time>
   </trkpt>
   <trkpt lat="51.2739070" lon="5.8167690">
    <ele>29.9</ele>
    <time>2019-09-08T08:26:57Z</time>
   </trkpt>
   <trkpt lat="51.2739030" lon="5.8166580">
    <ele>29.8</ele>
    <time>2019-09-08T08:26:58Z</time>
   </trkpt>
   <trkpt lat="51.2738950" lon="5.8165550">
    <ele>29.8</ele>
    <time>2019-09-08T08:26:59Z</time>
   </trkpt>
   <trkpt lat="51.2738910" lon="5.8164440">
    <ele>29.7</ele>
    <time>2019-09-08T08:27:00Z</time>
   </trkpt>
   <trkpt lat="51.2738930" lon="5.8163340">
    <ele>29.7</ele>
    <time>2019-09-08T08:27:01Z</time>
   </trkpt>
   <trkpt lat="51.2738940" lon="5.8162310">
    <ele>29.6</ele>
    <time>2019-09-08T08:27:02Z</time>
   </trkpt>
   <trkpt lat="51.2738980" lon="5.8161210">
    <ele>29.6</ele>
    <time>2019-09-08T08:27:03Z</time>
   </trkpt>
   <trkpt lat="51.2739130" lon="5.8160090">
    <ele>29.5</ele>
    <time>2019-09-08T08:27:04Z</time>
   </trkpt>
   <trkpt lat="51.2739390" lon="5.8159150">
    <ele>29.5</ele>
    <time>2019-09-08T08:27:05Z</time>
   </trkpt>
   <trkpt lat="51.2739660" lon="5.8158190">
    <ele>29.4</ele>
    <time>2019-09-08T08:27:06Z</time>
   </trkpt>
   <trkpt lat="51.2739910" lon="5.8157280">
    <ele>29.4</ele>
    <time>2019-09-08T08:27:07Z</time>
   </trkpt>
   <trkpt lat="51.2740050" lon="5.8156300">
    <ele>29.3</ele>
    <time>2019-09-08T08:27:08Z</time>
   </trkpt>
   <trkpt lat="51.2739960" lon="5.8155280">
    <ele>29.3</ele>
    <time>2019-09-08T08:27:09Z</time>
   </trkpt>
   <trkpt lat="51.2739620" lon="5.8154340">
    <ele>29.3</ele>
    <time>2019-09-08T08:27:10Z</time>
   </trkpt>
   <trkpt lat="51.2739130" lon="5.8153560">
    <ele>29.3</ele>
    <time>2019-09-08T08:27:11Z</time>
   </trkpt>
   <trkpt lat="51.2738580" lon="5.8152750">
    <ele>29.3</ele>
    <time>2019-09-08T08:27:12Z</time>
   </trkpt>
   <trkpt lat="51.2738020" lon="5.8151900">
    <ele>29.3</ele>
    <time>2019-09-08T08:27:13Z</time>
   </trkpt>
   <trkpt lat="51.2737500" lon="5.8151070">
    <ele>29.3</ele>
    <time>2019-09-08T08:27:14Z</time>
   </trkpt>
   <trkpt lat="51.2737070" lon="5.8150190">
    <ele>29.3</ele>
    <time>2019-09-08T08:27:15Z</time>
   </trkpt>
   <trkpt lat="51.2736530" lon="5.8149310">
    <ele>29.3</ele>
    <time>2019-09-08T08:27:16Z</time>
   </trkpt>
   <trkpt lat="51.2735950" lon="5.8148550">
    <ele>29.3</ele>
    <time>2019-09-08T08:27:17Z</time>
   </trkpt>
   <trkpt lat="51.2735470" lon="5.8147790">
    <ele>29.3</ele>
    <time>2019-09-08T08:27:18Z</time>
   </trkpt>
   <trkpt lat="51.2734940" lon="5.8147070">
    <ele>29.3</ele>
    <time>2019-09-08T08:27:19Z</time>
   </trkpt>
   <trkpt lat="51.2734430" lon="5.8146270">
    <ele>29.3</ele>
    <time>2019-09-08T08:27:20Z</time>
   </trkpt>
   <trkpt lat="51.2733950" lon="5.8145540">
    <ele>29.4</ele>
    <time>2019-09-08T08:27:21Z</time>
   </trkpt>
   <trkpt lat="51.2733400" lon="5.8144740">
    <ele>29.4</ele>
    <time>2019-09-08T08:27:22Z</time>
   </trkpt>
   <trkpt lat="51.2732890" lon="5.8143880">
    <ele>29.5</ele>
    <time>2019-09-08T08:27:23Z</time>
   </trkpt>
   <trkpt lat="51.2732400" lon="5.8143100">
    <ele>29.6</ele>
    <time>2019-09-08T08:27:24Z</time>
   </trkpt>
   <trkpt lat="51.2731920" lon="5.8142400">
    <ele>29.7</ele>
    <time>2019-09-08T08:27:25Z</time>
   </trkpt>
   <trkpt lat="51.2731420" lon="5.8141600">
    <ele>29.9</ele>
    <time>2019-09-08T08:27:26Z</time>
   </trkpt>
   <trkpt lat="51.2730960" lon="5.8140810">
    <ele>30.0</ele>
    <time>2019-09-08T08:27:27Z</time>
   </trkpt>
   <trkpt lat="51.2730490" lon="5.8139970">
    <ele>30.1</ele>
    <time>2019-09-08T08:27:28Z</time>
   </trkpt>
   <trkpt lat="51.2730010" lon="5.8139170">
    <ele>30.2</ele>
    <time>2019-09-08T08:27:29Z</time>
   </trkpt>
   <trkpt lat="51.2729460" lon="5.8138340">
    <ele>30.2</ele>
    <time>2019-09-08T08:27:30Z</time>
   </trkpt>
   <trkpt lat="51.2728950" lon="5.8137560">
    <ele>30.2</ele>
    <time>2019-09-08T08:27:31Z</time>
   </trkpt>
   <trkpt lat="51.2728470" lon="5.8136730">
    <ele>30.2</ele>
    <time>2019-09-08T08:27:32Z</time>
   </trkpt>
   <trkpt lat="51.2727920" lon="5.8135850">
    <ele>30.2</ele>
    <time>2019-09-08T08:27:33Z</time>
   </trkpt>
   <trkpt lat="51.2727460" lon="5.8135130">
    <ele>30.2</ele>
    <time>2019-09-08T08:27:34Z</time>
   </trkpt>
   <trkpt lat="51.2727000" lon="5.8134190">
    <ele>30.2</ele>
    <time>2019-09-08T08:27:35Z</time>
   </trkpt>
   <trkpt lat="51.2726470" lon="5.8133390">
    <ele>30.1</ele>
    <time>2019-09-08T08:27:36Z</time>
   </trkpt>
   <trkpt lat="51.2726000" lon="5.8132630">
    <ele>30.1</ele>
    <time>2019-09-08T08:27:37Z</time>
   </trkpt>
   <trkpt lat="51.2725550" lon="5.8131810">
    <ele>29.9</ele>
    <time>2019-09-08T08:27:38Z</time>
   </trkpt>
   <trkpt lat="51.2725040" lon="5.8131030">
    <ele>29.8</ele>
    <time>2019-09-08T08:27:39Z</time>
   </trkpt>
   <trkpt lat="51.2724520" lon="5.8130330">
    <ele>29.7</ele>
    <time>2019-09-08T08:27:40Z</time>
   </trkpt>
   <trkpt lat="51.2724060" lon="5.8129520">
    <ele>29.7</ele>
    <time>2019-09-08T08:27:41Z</time>
   </trkpt>
   <trkpt lat="51.2723520" lon="5.8128790">
    <ele>29.7</ele>
    <time>2019-09-08T08:27:42Z</time>
   </trkpt>
   <trkpt lat="51.2723010" lon="5.8127980">
    <ele>29.8</ele>
    <time>2019-09-08T08:27:43Z</time>
   </trkpt>
   <trkpt lat="51.2722520" lon="5.8127170">
    <ele>29.9</ele>
    <time>2019-09-08T08:27:44Z</time>
   </trkpt>
   <trkpt lat="51.2722000" lon="5.8126390">
    <ele>30.0</ele>
    <time>2019-09-08T08:27:45Z</time>
   </trkpt>
   <trkpt lat="51.2721550" lon="5.8125590">
    <ele>30.1</ele>
    <time>2019-09-08T08:27:46Z</time>
   </trkpt>
   <trkpt lat="51.2721090" lon="5.8124720">
    <ele>30.2</ele>
    <time>2019-09-08T08:27:47Z</time>
   </trkpt>
   <trkpt lat="51.2720530" lon="5.8123890">
    <ele>30.2</ele>
    <time>2019-09-08T08:27:48Z</time>
   </trkpt>
   <trkpt lat="51.2720150" lon="5.8123000">
    <ele>30.3</ele>
    <time>2019-09-08T08:27:49Z</time>
   </trkpt>
   <trkpt lat="51.2719650" lon="5.8122310">
    <ele>30.3</ele>
    <time>2019-09-08T08:27:50Z</time>
   </trkpt>
   <trkpt lat="51.2719130" lon="5.8121480">
    <ele>30.3</ele>
    <time>2019-09-08T08:27:51Z</time>
   </trkpt>
   <trkpt lat="51.2718640" lon="5.8120750">
    <ele>30.3</ele>
    <time>2019-09-08T08:27:52Z</time>
   </trkpt>
   <trkpt lat="51.2718140" lon="5.8120040">
    <ele>30.3</ele>
    <time>2019-09-08T08:27:53Z</time>
   </trkpt>
   <trkpt lat="51.2717720" lon="5.8119020">
    <ele>30.3</ele>
    <time>2019-09-08T08:27:54Z</time>
   </trkpt>
   <trkpt lat="51.2717380" lon="5.8118260">
    <ele>30.3</ele>
    <time>2019-09-08T08:27:55Z</time>
   </trkpt>
   <trkpt lat="51.2717090" lon="5.8117470">
    <ele>30.3</ele>
    <time>2019-09-08T08:27:56Z</time>
   </trkpt>
   <trkpt lat="51.2716750" lon="5.8116740">
    <ele>30.3</ele>
    <time>2019-09-08T08:27:57Z</time>
   </trkpt>
   <trkpt lat="51.2716370" lon="5.8116020">
    <ele>30.3</ele>
    <time>2019-09-08T08:27:58Z</time>
   </trkpt>
   <trkpt lat="51.2715970" lon="5.8115260">
    <ele>30.3</ele>
    <time>2019-09-08T08:27:59Z</time>
   </trkpt>
   <trkpt lat="51.2715480" lon="5.8114500">
    <ele>30.3</ele>
    <time>2019-09-08T08:28:00Z</time>
   </trkpt>
   <trkpt lat="51.2714920" lon="5.8113720">
    <ele>30.3</ele>
    <time>2019-09-08T08:28:01Z</time>
   </trkpt>
   <trkpt lat="51.2714310" lon="5.8113070">
    <ele>30.4</ele>
    <time>2019-09-08T08:28:02Z</time>
   </trkpt>
   <trkpt lat="51.2713740" lon="5.8112470">
    <ele>30.4</ele>
    <time>2019-09-08T08:28:03Z</time>
   </trkpt>
   <trkpt lat="51.2713250" lon="5.8111420">
    <ele>30.4</ele>
    <time>2019-09-08T08:28:04Z</time>
   </trkpt>
   <trkpt lat="51.2712690" lon="5.8110630">
    <ele>30.5</ele>
    <time>2019-09-08T08:28:05Z</time>
   </trkpt>
   <trkpt lat="51.2712140" lon="5.8109870">
    <ele>30.5</ele>
    <time>2019-09-08T08:28:06Z</time>
   </trkpt>
   <trkpt lat="51.2711750" lon="5.8109300">
    <ele>30.5</ele>
    <time>2019-09-08T08:28:07Z</time>
   </trkpt>
   <trkpt lat="51.2711180" lon="5.8108420">
    <ele>30.5</ele>
    <time>2019-09-08T08:28:08Z</time>
   </trkpt>
   <trkpt lat="51.2710520" lon="5.8107490">
    <ele>30.5</ele>
    <time>2019-09-08T08:28:09Z</time>
   </trkpt>
   <trkpt lat="51.2710160" lon="5.8106920">
    <ele>30.5</ele>
    <time>2019-09-08T08:28:10Z</time>
   </trkpt>
   <trkpt lat="51.2709590" lon="5.8106130">
    <ele>30.6</ele>
    <time>2019-09-08T08:28:11Z</time>
   </trkpt>
   <trkpt lat="51.2709080" lon="5.8105330">
    <ele>30.6</ele>
    <time>2019-09-08T08:28:12Z</time>
   </trkpt>
   <trkpt lat="51.2708620" lon="5.8104280">
    <ele>30.6</ele>
    <time>2019-09-08T08:28:13Z</time>
   </trkpt>
   <trkpt lat="51.2708070" lon="5.8103600">
    <ele>30.6</ele>
    <time>2019-09-08T08:28:14Z</time>
   </trkpt>
   <trkpt lat="51.2707700" lon="5.8103070">
    <ele>30.6</ele>
    <time>2019-09-08T08:28:15Z</time>
   </trkpt>
   <trkpt lat="51.2707220" lon="5.8102350">
    <ele>30.7</ele>
    <time>2019-09-08T08:28:16Z</time>
   </trkpt>
   <trkpt lat="51.2706730" lon="5.8101640">
    <ele>30.7</ele>
    <time>2019-09-08T08:28:17Z</time>
   </trkpt>
   <trkpt lat="51.2706230" lon="5.8100880">
    <ele>30.7</ele>
    <time>2019-09-08T08:28:18Z</time>
   </trkpt>
   <trkpt lat="51.2705740" lon="5.8100260">
    <ele>30.7</ele>
    <time>2019-09-08T08:28:19Z</time>
   </trkpt>
   <trkpt lat="51.2705300" lon="5.8099680">
    <ele>30.7</ele>
    <time>2019-09-08T08:28:20Z</time>
   </trkpt>
   <trkpt lat="51.2704820" lon="5.8098860">
    <ele>30.7</ele>
    <time>2019-09-08T08:28:21Z</time>
   </trkpt>
   <trkpt lat="51.2704310" lon="5.8098000">
    <ele>30.8</ele>
    <time>2019-09-08T08:28:22Z</time>
   </trkpt>
   <trkpt lat="51.2703870" lon="5.8097260">
    <ele>30.8</ele>
    <time>2019-09-08T08:28:23Z</time>
   </trkpt>
   <trkpt lat="51.2703350" lon="5.8096480">
    <ele>30.8</ele>
    <time>2019-09-08T08:28:24Z</time>
   </trkpt>
   <trkpt lat="51.2702870" lon="5.8095770">
    <ele>30.8</ele>
    <time>2019-09-08T08:28:25Z</time>
   </trkpt>
   <trkpt lat="51.2702310" lon="5.8094710">
    <ele>30.8</ele>
    <time>2019-09-08T08:28:26Z</time>
   </trkpt>
   <trkpt lat="51.2701730" lon="5.8094020">
    <ele>30.8</ele>
    <time>2019-09-08T08:28:27Z</time>
   </trkpt>
   <trkpt lat="51.2701110" lon="5.8093210">
    <ele>30.8</ele>
    <time>2019-09-08T08:28:28Z</time>
   </trkpt>
   <trkpt lat="51.2700680" lon="5.8092270">
    <ele>30.8</ele>
    <time>2019-09-08T08:28:29Z</time>
   </trkpt>
   <trkpt lat="51.2700210" lon="5.8091300">
    <ele>30.8</ele>
    <time>2019-09-08T08:28:30Z</time>
   </trkpt>
   <trkpt lat="51.2699830" lon="5.8090510">
    <ele>30.8</ele>
    <time>2019-09-08T08:28:31Z</time>
   </trkpt>
   <trkpt lat="51.2699330" lon="5.8089620">
    <ele>30.8</ele>
    <time>2019-09-08T08:28:32Z</time>
   </trkpt>
   <trkpt lat="51.2698810" lon="5.8088820">
    <ele>30.8</ele>
    <time>2019-09-08T08:28:33Z</time>
   </trkpt>
   <trkpt lat="51.2698130" lon="5.8088240">
    <ele>30.8</ele>
    <time>2019-09-08T08:28:34Z</time>
   </trkpt>
   <trkpt lat="51.2697580" lon="5.8087400">
    <ele>30.8</ele>
    <time>2019-09-08T08:28:35Z</time>
   </trkpt>
   <trkpt lat="51.2697100" lon="5.8086600">
    <ele>30.8</ele>
    <time>2019-09-08T08:28:36Z</time>
   </trkpt>
   <trkpt lat="51.2696560" lon="5.8085790">
    <ele>30.8</ele>
    <time>2019-09-08T08:28:37Z</time>
   </trkpt>
   <trkpt lat="51.2696090" lon="5.8084890">
    <ele>30.8</ele>
    <time>2019-09-08T08:28:38Z</time>
   </trkpt>
   <trkpt lat="51.2695740" lon="5.8083980">
    <ele>30.9</ele>
    <time>2019-09-08T08:28:39Z</time>
   </trkpt>
   <trkpt lat="51.2695040" lon="5.8083310">
    <ele>30.9</ele>
    <time>2019-09-08T08:28:40Z</time>
   </trkpt>
   <trkpt lat="51.2694570" lon="5.8082550">
    <ele>30.9</ele>
    <time>2019-09-08T08:28:41Z</time>
   </trkpt>
   <trkpt lat="51.2694110" lon="5.8081480">
    <ele>30.9</ele>
    <time>2019-09-08T08:28:42Z</time>
   </trkpt>
   <trkpt lat="51.2693660" lon="5.8080540">
    <ele>30.9</ele>
    <time>2019-09-08T08:28:43Z</time>
   </trkpt>
   <trkpt lat="51.2693140" lon="5.8079180">
    <ele>31.0</ele>
    <time>2019-09-08T08:28:44Z</time>
   </trkpt>
   <trkpt lat="51.2692610" lon="5.8078440">
    <ele>31.0</ele>
    <time>2019-09-08T08:28:45Z</time>
   </trkpt>
   <trkpt lat="51.2692140" lon="5.8077710">
    <ele>31.0</ele>
    <time>2019-09-08T08:28:46Z</time>
   </trkpt>
   <trkpt lat="51.2691580" lon="5.8077030">
    <ele>31.0</ele>
    <time>2019-09-08T08:28:47Z</time>
   </trkpt>
   <trkpt lat="51.2691080" lon="5.8076290">
    <ele>31.0</ele>
    <time>2019-09-08T08:28:48Z</time>
   </trkpt>
   <trkpt lat="51.2690630" lon="5.8075420">
    <ele>31.1</ele>
    <time>2019-09-08T08:28:49Z</time>
   </trkpt>
   <trkpt lat="51.2690140" lon="5.8074370">
    <ele>31.1</ele>
    <time>2019-09-08T08:28:50Z</time>
   </trkpt>
   <trkpt lat="51.2689680" lon="5.8073560">
    <ele>31.1</ele>
    <time>2019-09-08T08:28:51Z</time>
   </trkpt>
   <trkpt lat="51.2689150" lon="5.8072580">
    <ele>31.1</ele>
    <time>2019-09-08T08:28:52Z</time>
   </trkpt>
   <trkpt lat="51.2688570" lon="5.8072120">
    <ele>31.1</ele>
    <time>2019-09-08T08:28:53Z</time>
   </trkpt>
   <trkpt lat="51.2688110" lon="5.8071150">
    <ele>31.1</ele>
    <time>2019-09-08T08:28:54Z</time>
   </trkpt>
   <trkpt lat="51.2687740" lon="5.8070100">
    <ele>31.1</ele>
    <time>2019-09-08T08:28:55Z</time>
   </trkpt>
   <trkpt lat="51.2687320" lon="5.8069430">
    <ele>31.1</ele>
    <time>2019-09-08T08:28:56Z</time>
   </trkpt>
   <trkpt lat="51.2686830" lon="5.8068620">
    <ele>31.1</ele>
    <time>2019-09-08T08:28:57Z</time>
   </trkpt>
   <trkpt lat="51.2686380" lon="5.8067800">
    <ele>31.2</ele>
    <time>2019-09-08T08:28:58Z</time>
   </trkpt>
   <trkpt lat="51.2685890" lon="5.8067260">
    <ele>31.2</ele>
    <time>2019-09-08T08:28:59Z</time>
   </trkpt>
   <trkpt lat="51.2685450" lon="5.8066600">
    <ele>31.2</ele>
    <time>2019-09-08T08:29:00Z</time>
   </trkpt>
   <trkpt lat="51.2685000" lon="5.8065530">
    <ele>31.2</ele>
    <time>2019-09-08T08:29:01Z</time>
   </trkpt>
   <trkpt lat="51.2684430" lon="5.8064760">
    <ele>31.3</ele>
    <time>2019-09-08T08:29:02Z</time>
   </trkpt>
   <trkpt lat="51.2683880" lon="5.8064140">
    <ele>31.3</ele>
    <time>2019-09-08T08:29:03Z</time>
   </trkpt>
   <trkpt lat="51.2683350" lon="5.8063410">
    <ele>31.3</ele>
    <time>2019-09-08T08:29:04Z</time>
   </trkpt>
   <trkpt lat="51.2682840" lon="5.8062830">
    <ele>31.3</ele>
    <time>2019-09-08T08:29:05Z</time>
   </trkpt>
   <trkpt lat="51.2682410" lon="5.8062040">
    <ele>31.3</ele>
    <time>2019-09-08T08:29:06Z</time>
   </trkpt>
   <trkpt lat="51.2681900" lon="5.8061240">
    <ele>31.3</ele>
    <time>2019-09-08T08:29:07Z</time>
   </trkpt>
   <trkpt lat="51.2681560" lon="5.8060440">
    <ele>31.3</ele>
    <time>2019-09-08T08:29:08Z</time>
   </trkpt>
   <trkpt lat="51.2680840" lon="5.8059550">
    <ele>31.4</ele>
    <time>2019-09-08T08:29:09Z</time>
   </trkpt>
   <trkpt lat="51.2680390" lon="5.8058690">
    <ele>31.4</ele>
    <time>2019-09-08T08:29:10Z</time>
   </trkpt>
   <trkpt lat="51.2679910" lon="5.8058140">
    <ele>31.4</ele>
    <time>2019-09-08T08:29:11Z</time>
   </trkpt>
   <trkpt lat="51.2679380" lon="5.8057460">
    <ele>31.4</ele>
    <time>2019-09-08T08:29:12Z</time>
   </trkpt>
   <trkpt lat="51.2678900" lon="5.8056640">
    <ele>31.4</ele>
    <time>2019-09-08T08:29:13Z</time>
   </trkpt>
   <trkpt lat="51.2678350" lon="5.8055790">
    <ele>31.4</ele>
    <time>2019-09-08T08:29:14Z</time>
   </trkpt>
   <trkpt lat="51.2677830" lon="5.8054880">
    <ele>31.4</ele>
    <time>2019-09-08T08:29:15Z</time>
   </trkpt>
   <trkpt lat="51.2677390" lon="5.8053980">
    <ele>31.5</ele>
    <time>2019-09-08T08:29:16Z</time>
   </trkpt>
   <trkpt lat="51.2676970" lon="5.8053150">
    <ele>31.5</ele>
    <time>2019-09-08T08:29:17Z</time>
   </trkpt>
   <trkpt lat="51.2676520" lon="5.8052410">
    <ele>31.5</ele>
    <time>2019-09-08T08:29:18Z</time>
   </trkpt>
   <trkpt lat="51.2676040" lon="5.8051650">
    <ele>31.5</ele>
    <time>2019-09-08T08:29:19Z</time>
   </trkpt>
   <trkpt lat="51.2675560" lon="5.8050820">
    <ele>31.6</ele>
    <time>2019-09-08T08:29:20Z</time>
   </trkpt>
   <trkpt lat="51.2675090" lon="5.8049880">
    <ele>31.6</ele>
    <time>2019-09-08T08:29:21Z</time>
   </trkpt>
   <trkpt lat="51.2674670" lon="5.8048880">
    <ele>31.6</ele>
    <time>2019-09-08T08:29:22Z</time>
   </trkpt>
   <trkpt lat="51.2674240" lon="5.8048080">
    <ele>31.6</ele>
    <time>2019-09-08T08:29:23Z</time>
   </trkpt>
   <trkpt lat="51.2673790" lon="5.8047250">
    <ele>31.7</ele>
    <time>2019-09-08T08:29:24Z</time>
   </trkpt>
   <trkpt lat="51.2673300" lon="5.8046370">
    <ele>31.7</ele>
    <time>2019-09-08T08:29:25Z</time>
   </trkpt>
   <trkpt lat="51.2672910" lon="5.8045420">
    <ele>31.7</ele>
    <time>2019-09-08T08:29:26Z</time>
   </trkpt>
   <trkpt lat="51.2672560" lon="5.8044600">
    <ele>31.8</ele>
    <time>2019-09-08T08:29:27Z</time>
   </trkpt>
   <trkpt lat="51.2672080" lon="5.8043810">
    <ele>31.8</ele>
    <time>2019-09-08T08:29:28Z</time>
   </trkpt>
   <trkpt lat="51.2671550" lon="5.8043040">
    <ele>31.9</ele>
    <time>2019-09-08T08:29:29Z</time>
   </trkpt>
   <trkpt lat="51.2671100" lon="5.8042290">
    <ele>31.9</ele>
    <time>2019-09-08T08:29:30Z</time>
   </trkpt>
   <trkpt lat="51.2670830" lon="5.8041180">
    <ele>31.9</ele>
    <time>2019-09-08T08:29:31Z</time>
   </trkpt>
   <trkpt lat="51.2670440" lon="5.8040370">
    <ele>32.0</ele>
    <time>2019-09-08T08:29:32Z</time>
   </trkpt>
   <trkpt lat="51.2670060" lon="5.8039560">
    <ele>32.0</ele>
    <time>2019-09-08T08:29:33Z</time>
   </trkpt>
   <trkpt lat="51.2669630" lon="5.8038790">
    <ele>32.0</ele>
    <time>2019-09-08T08:29:34Z</time>
   </trkpt>
   <trkpt lat="51.2669270" lon="5.8037560">
    <ele>32.1</ele>
    <time>2019-09-08T08:29:35Z</time>
   </trkpt>
   <trkpt lat="51.2668790" lon="5.8036790">
    <ele>32.1</ele>
    <time>2019-09-08T08:29:36Z</time>
   </trkpt>
   <trkpt lat="51.2668340" lon="5.8036150">
    <ele>32.1</ele>
    <time>2019-09-08T08:29:37Z</time>
   </trkpt>
   <trkpt lat="51.2667870" lon="5.8035340">
    <ele>32.2</ele>
    <time>2019-09-08T08:29:38Z</time>
   </trkpt>
   <trkpt lat="51.2667440" lon="5.8034420">
    <ele>32.2</ele>
    <time>2019-09-08T08:29:39Z</time>
   </trkpt>
   <trkpt lat="51.2666990" lon="5.8033550">
    <ele>32.3</ele>
    <time>2019-09-08T08:29:40Z</time>
   </trkpt>
   <trkpt lat="51.2666540" lon="5.8032360">
    <ele>32.3</ele>
    <time>2019-09-08T08:29:41Z</time>
   </trkpt>
   <trkpt lat="51.2666070" lon="5.8031520">
    <ele>32.1</ele>
    <time>2019-09-08T08:29:42Z</time>
   </trkpt>
   <trkpt lat="51.2665580" lon="5.8030780">
    <ele>32.3</ele>
    <time>2019-09-08T08:29:43Z</time>
   </trkpt>
   <trkpt lat="51.2665150" lon="5.8029930">
    <ele>32.4</ele>
    <time>2019-09-08T08:29:44Z</time>
   </trkpt>
   <trkpt lat="51.2664690" lon="5.8029150">
    <ele>32.5</ele>
    <time>2019-09-08T08:29:45Z</time>
   </trkpt>
   <trkpt lat="51.2664280" lon="5.8028240">
    <ele>32.6</ele>
    <time>2019-09-08T08:29:46Z</time>
   </trkpt>
   <trkpt lat="51.2663830" lon="5.8027390">
    <ele>32.6</ele>
    <time>2019-09-08T08:29:47Z</time>
   </trkpt>
   <trkpt lat="51.2663350" lon="5.8026580">
    <ele>32.5</ele>
    <time>2019-09-08T08:29:48Z</time>
   </trkpt>
   <trkpt lat="51.2662850" lon="5.8025680">
    <ele>32.5</ele>
    <time>2019-09-08T08:29:49Z</time>
   </trkpt>
   <trkpt lat="51.2662390" lon="5.8024940">
    <ele>32.4</ele>
    <time>2019-09-08T08:29:50Z</time>
   </trkpt>
   <trkpt lat="51.2661970" lon="5.8024080">
    <ele>32.4</ele>
    <time>2019-09-08T08:29:51Z</time>
   </trkpt>
   <trkpt lat="51.2661700" lon="5.8023650">
    <ele>32.3</ele>
    <time>2019-09-08T08:29:52Z</time>
   </trkpt>
   <trkpt lat="51.2661280" lon="5.8022830">
    <ele>32.3</ele>
    <time>2019-09-08T08:29:53Z</time>
   </trkpt>
   <trkpt lat="51.2660930" lon="5.8022310">
    <ele>32.3</ele>
    <time>2019-09-08T08:29:54Z</time>
   </trkpt>
   <trkpt lat="51.2660510" lon="5.8021570">
    <ele>32.3</ele>
    <time>2019-09-08T08:29:55Z</time>
   </trkpt>
   <trkpt lat="51.2660090" lon="5.8020770">
    <ele>32.2</ele>
    <time>2019-09-08T08:29:56Z</time>
   </trkpt>
   <trkpt lat="51.2659660" lon="5.8019880">
    <ele>32.2</ele>
    <time>2019-09-08T08:29:57Z</time>
   </trkpt>
   <trkpt lat="51.2659230" lon="5.8019040">
    <ele>32.1</ele>
    <time>2019-09-08T08:29:58Z</time>
   </trkpt>
   <trkpt lat="51.2658830" lon="5.8018080">
    <ele>32.1</ele>
    <time>2019-09-08T08:29:59Z</time>
   </trkpt>
   <trkpt lat="51.2658410" lon="5.8017050">
    <ele>32.0</ele>
    <time>2019-09-08T08:30:00Z</time>
   </trkpt>
   <trkpt lat="51.2657900" lon="5.8016180">
    <ele>32.0</ele>
    <time>2019-09-08T08:30:01Z</time>
   </trkpt>
   <trkpt lat="51.2657410" lon="5.8015360">
    <ele>32.1</ele>
    <time>2019-09-08T08:30:02Z</time>
   </trkpt>
   <trkpt lat="51.2657000" lon="5.8014340">
    <ele>32.1</ele>
    <time>2019-09-08T08:30:03Z</time>
   </trkpt>
   <trkpt lat="51.2656570" lon="5.8013480">
    <ele>32.2</ele>
    <time>2019-09-08T08:30:04Z</time>
   </trkpt>
   <trkpt lat="51.2656110" lon="5.8012600">
    <ele>32.3</ele>
    <time>2019-09-08T08:30:05Z</time>
   </trkpt>
   <trkpt lat="51.2655740" lon="5.8011710">
    <ele>32.5</ele>
    <time>2019-09-08T08:30:06Z</time>
   </trkpt>
   <trkpt lat="51.2655190" lon="5.8010850">
    <ele>32.6</ele>
    <time>2019-09-08T08:30:07Z</time>
   </trkpt>
   <trkpt lat="51.2654720" lon="5.8010250">
    <ele>32.6</ele>
    <time>2019-09-08T08:30:08Z</time>
   </trkpt>
   <trkpt lat="51.2654270" lon="5.8009320">
    <ele>32.7</ele>
    <time>2019-09-08T08:30:09Z</time>
   </trkpt>
   <trkpt lat="51.2653830" lon="5.8008480">
    <ele>32.7</ele>
    <time>2019-09-08T08:30:10Z</time>
   </trkpt>
   <trkpt lat="51.2653380" lon="5.8007540">
    <ele>32.7</ele>
    <time>2019-09-08T08:30:11Z</time>
   </trkpt>
   <trkpt lat="51.2653020" lon="5.8006590">
    <ele>32.8</ele>
    <time>2019-09-08T08:30:12Z</time>
   </trkpt>
   <trkpt lat="51.2652540" lon="5.8005740">
    <ele>32.8</ele>
    <time>2019-09-08T08:30:13Z</time>
   </trkpt>
   <trkpt lat="51.2652070" lon="5.8004800">
    <ele>32.8</ele>
    <time>2019-09-08T08:30:14Z</time>
   </trkpt>
   <trkpt lat="51.2651630" lon="5.8003990">
    <ele>32.8</ele>
    <time>2019-09-08T08:30:15Z</time>
   </trkpt>
   <trkpt lat="51.2651110" lon="5.8003280">
    <ele>32.9</ele>
    <time>2019-09-08T08:30:16Z</time>
   </trkpt>
   <trkpt lat="51.2650650" lon="5.8002540">
    <ele>32.9</ele>
    <time>2019-09-08T08:30:17Z</time>
   </trkpt>
   <trkpt lat="51.2650240" lon="5.8001680">
    <ele>32.9</ele>
    <time>2019-09-08T08:30:18Z</time>
   </trkpt>
   <trkpt lat="51.2649830" lon="5.8000780">
    <ele>32.9</ele>
    <time>2019-09-08T08:30:19Z</time>
   </trkpt>
   <trkpt lat="51.2649410" lon="5.8000020">
    <ele>32.9</ele>
    <time>2019-09-08T08:30:20Z</time>
   </trkpt>
   <trkpt lat="51.2648980" lon="5.7999080">
    <ele>32.8</ele>
    <time>2019-09-08T08:30:21Z</time>
   </trkpt>
   <trkpt lat="51.2648550" lon="5.7998260">
    <ele>32.8</ele>
    <time>2019-09-08T08:30:22Z</time>
   </trkpt>
   <trkpt lat="51.2648110" lon="5.7997380">
    <ele>32.8</ele>
    <time>2019-09-08T08:30:23Z</time>
   </trkpt>
   <trkpt lat="51.2647580" lon="5.7996570">
    <ele>32.9</ele>
    <time>2019-09-08T08:30:24Z</time>
   </trkpt>
   <trkpt lat="51.2647090" lon="5.7995760">
    <ele>32.9</ele>
    <time>2019-09-08T08:30:25Z</time>
   </trkpt>
   <trkpt lat="51.2646660" lon="5.7994850">
    <ele>33.0</ele>
    <time>2019-09-08T08:30:26Z</time>
   </trkpt>
   <trkpt lat="51.2646210" lon="5.7994020">
    <ele>33.1</ele>
    <time>2019-09-08T08:30:27Z</time>
   </trkpt>
   <trkpt lat="51.2645830" lon="5.7993150">
    <ele>33.2</ele>
    <time>2019-09-08T08:30:28Z</time>
   </trkpt>
   <trkpt lat="51.2645410" lon="5.7992140">
    <ele>33.3</ele>
    <time>2019-09-08T08:30:29Z</time>
   </trkpt>
   <trkpt lat="51.2644960" lon="5.7991190">
    <ele>33.3</ele>
    <time>2019-09-08T08:30:30Z</time>
   </trkpt>
   <trkpt lat="51.2644530" lon="5.7990320">
    <ele>33.3</ele>
    <time>2019-09-08T08:30:31Z</time>
   </trkpt>
   <trkpt lat="51.2644100" lon="5.7989470">
    <ele>33.3</ele>
    <time>2019-09-08T08:30:32Z</time>
   </trkpt>
   <trkpt lat="51.2643730" lon="5.7988730">
    <ele>33.3</ele>
    <time>2019-09-08T08:30:33Z</time>
   </trkpt>
   <trkpt lat="51.2643300" lon="5.7987850">
    <ele>33.4</ele>
    <time>2019-09-08T08:30:34Z</time>
   </trkpt>
   <trkpt lat="51.2642880" lon="5.7986970">
    <ele>33.4</ele>
    <time>2019-09-08T08:30:35Z</time>
   </trkpt>
   <trkpt lat="51.2642470" lon="5.7986110">
    <ele>33.4</ele>
    <time>2019-09-08T08:30:36Z</time>
   </trkpt>
   <trkpt lat="51.2642060" lon="5.7985250">
    <ele>33.5</ele>
    <time>2019-09-08T08:30:37Z</time>
   </trkpt>
   <trkpt lat="51.2641620" lon="5.7984480">
    <ele>33.5</ele>
    <time>2019-09-08T08:30:38Z</time>
   </trkpt>
   <trkpt lat="51.2641220" lon="5.7983560">
    <ele>33.6</ele>
    <time>2019-09-08T08:30:39Z</time>
   </trkpt>
   <trkpt lat="51.2640820" lon="5.7982880">
    <ele>33.7</ele>
    <time>2019-09-08T08:30:40Z</time>
   </trkpt>
   <trkpt lat="51.2640420" lon="5.7982030">
    <ele>33.7</ele>
    <time>2019-09-08T08:30:41Z</time>
   </trkpt>
   <trkpt lat="51.2640000" lon="5.7981190">
    <ele>33.8</ele>
    <time>2019-09-08T08:30:42Z</time>
   </trkpt>
   <trkpt lat="51.2639540" lon="5.7980200">
    <ele>33.8</ele>
    <time>2019-09-08T08:30:43Z</time>
   </trkpt>
   <trkpt lat="51.2639120" lon="5.7979330">
    <ele>33.8</ele>
    <time>2019-09-08T08:30:44Z</time>
   </trkpt>
   <trkpt lat="51.2638750" lon="5.7978360">
    <ele>33.8</ele>
    <time>2019-09-08T08:30:45Z</time>
   </trkpt>
   <trkpt lat="51.2638320" lon="5.7977520">
    <ele>33.8</ele>
    <time>2019-09-08T08:30:46Z</time>
   </trkpt>
   <trkpt lat="51.2637920" lon="5.7976580">
    <ele>33.8</ele>
    <time>2019-09-08T08:30:47Z</time>
   </trkpt>
   <trkpt lat="51.2637430" lon="5.7975810">
    <ele>33.8</ele>
    <time>2019-09-08T08:30:48Z</time>
   </trkpt>
   <trkpt lat="51.2637010" lon="5.7975000">
    <ele>33.7</ele>
    <time>2019-09-08T08:30:49Z</time>
   </trkpt>
   <trkpt lat="51.2636480" lon="5.7974220">
    <ele>33.7</ele>
    <time>2019-09-08T08:30:50Z</time>
   </trkpt>
   <trkpt lat="51.2636050" lon="5.7973420">
    <ele>33.6</ele>
    <time>2019-09-08T08:30:51Z</time>
   </trkpt>
   <trkpt lat="51.2635590" lon="5.7972410">
    <ele>33.6</ele>
    <time>2019-09-08T08:30:52Z</time>
   </trkpt>
   <trkpt lat="51.2635020" lon="5.7971650">
    <ele>33.5</ele>
    <time>2019-09-08T08:30:53Z</time>
   </trkpt>
   <trkpt lat="51.2634590" lon="5.7970810">
    <ele>33.4</ele>
    <time>2019-09-08T08:30:54Z</time>
   </trkpt>
   <trkpt lat="51.2634210" lon="5.7969720">
    <ele>33.3</ele>
    <time>2019-09-08T08:30:55Z</time>
   </trkpt>
   <trkpt lat="51.2633880" lon="5.7968780">
    <ele>33.2</ele>
    <time>2019-09-08T08:30:56Z</time>
   </trkpt>
   <trkpt lat="51.2633380" lon="5.7967900">
    <ele>33.1</ele>
    <time>2019-09-08T08:30:57Z</time>
   </trkpt>
   <trkpt lat="51.2632990" lon="5.7967110">
    <ele>33.0</ele>
    <time>2019-09-08T08:30:58Z</time>
   </trkpt>
   <trkpt lat="51.2632530" lon="5.7966110">
    <ele>32.9</ele>
    <time>2019-09-08T08:30:59Z</time>
   </trkpt>
   <trkpt lat="51.2632140" lon="5.7965170">
    <ele>32.8</ele>
    <time>2019-09-08T08:31:00Z</time>
   </trkpt>
   <trkpt lat="51.2631760" lon="5.7964250">
    <ele>32.7</ele>
    <time>2019-09-08T08:31:01Z</time>
   </trkpt>
   <trkpt lat="51.2631320" lon="5.7963360">
    <ele>32.6</ele>
    <time>2019-09-08T08:31:02Z</time>
   </trkpt>
   <trkpt lat="51.2631020" lon="5.7962460">
    <ele>32.5</ele>
    <time>2019-09-08T08:31:03Z</time>
   </trkpt>
   <trkpt lat="51.2630640" lon="5.7961310">
    <ele>32.5</ele>
    <time>2019-09-08T08:31:04Z</time>
   </trkpt>
   <trkpt lat="51.2630210" lon="5.7960160">
    <ele>32.4</ele>
    <time>2019-09-08T08:31:05Z</time>
   </trkpt>
   <trkpt lat="51.2629730" lon="5.7959330">
    <ele>32.3</ele>
    <time>2019-09-08T08:31:06Z</time>
   </trkpt>
   <trkpt lat="51.2629280" lon="5.7958520">
    <ele>32.2</ele>
    <time>2019-09-08T08:31:07Z</time>
   </trkpt>
   <trkpt lat="51.2628810" lon="5.7957600">
    <ele>32.2</ele>
    <time>2019-09-08T08:31:08Z</time>
   </trkpt>
   <trkpt lat="51.2628360" lon="5.7956770">
    <ele>32.1</ele>
    <time>2019-09-08T08:31:09Z</time>
   </trkpt>
   <trkpt lat="51.2627900" lon="5.7956040">
    <ele>32.0</ele>
    <time>2019-09-08T08:31:10Z</time>
   </trkpt>
   <trkpt lat="51.2627390" lon="5.7955170">
    <ele>31.9</ele>
    <time>2019-09-08T08:31:11Z</time>
   </trkpt>
   <trkpt lat="51.2627020" lon="5.7954350">
    <ele>31.9</ele>
    <time>2019-09-08T08:31:12Z</time>
   </trkpt>
   <trkpt lat="51.2626590" lon="5.7953600">
    <ele>31.9</ele>
    <time>2019-09-08T08:31:13Z</time>
   </trkpt>
   <trkpt lat="51.2626190" lon="5.7952860">
    <ele>32.0</ele>
    <time>2019-09-08T08:31:14Z</time>
   </trkpt>
   <trkpt lat="51.2625820" lon="5.7951870">
    <ele>32.0</ele>
    <time>2019-09-08T08:31:15Z</time>
   </trkpt>
   <trkpt lat="51.2625470" lon="5.7951050">
    <ele>32.1</ele>
    <time>2019-09-08T08:31:16Z</time>
   </trkpt>
   <trkpt lat="51.2624960" lon="5.7950060">
    <ele>32.1</ele>
    <time>2019-09-08T08:31:17Z</time>
   </trkpt>
   <trkpt lat="51.2624570" lon="5.7949140">
    <ele>32.1</ele>
    <time>2019-09-08T08:31:18Z</time>
   </trkpt>
   <trkpt lat="51.2624160" lon="5.7948290">
    <ele>32.0</ele>
    <time>2019-09-08T08:31:19Z</time>
   </trkpt>
   <trkpt lat="51.2623720" lon="5.7947350">
    <ele>32.0</ele>
    <time>2019-09-08T08:31:20Z</time>
   </trkpt>
   <trkpt lat="51.2623270" lon="5.7946560">
    <ele>31.9</ele>
    <time>2019-09-08T08:31:21Z</time>
   </trkpt>
   <trkpt lat="51.2622830" lon="5.7945750">
    <ele>31.9</ele>
    <time>2019-09-08T08:31:22Z</time>
   </trkpt>
   <trkpt lat="51.2622400" lon="5.7944940">
    <ele>31.9</ele>
    <time>2019-09-08T08:31:23Z</time>
   </trkpt>
   <trkpt lat="51.2622050" lon="5.7944200">
    <ele>31.9</ele>
    <time>2019-09-08T08:31:24Z</time>
   </trkpt>
   <trkpt lat="51.2621380" lon="5.7943260">
    <ele>31.8</ele>
    <time>2019-09-08T08:31:25Z</time>
   </trkpt>
   <trkpt lat="51.2620890" lon="5.7942490">
    <ele>31.8</ele>
    <time>2019-09-08T08:31:26Z</time>
   </trkpt>
   <trkpt lat="51.2620420" lon="5.7941830">
    <ele>31.8</ele>
    <time>2019-09-08T08:31:27Z</time>
   </trkpt>
   <trkpt lat="51.2619990" lon="5.7941000">
    <ele>31.7</ele>
    <time>2019-09-08T08:31:28Z</time>
   </trkpt>
   <trkpt lat="51.2619530" lon="5.7940270">
    <ele>31.7</ele>
    <time>2019-09-08T08:31:29Z</time>
   </trkpt>
   <trkpt lat="51.2619100" lon="5.7939420">
    <ele>31.7</ele>
    <time>2019-09-08T08:31:30Z</time>
   </trkpt>
   <trkpt lat="51.2618730" lon="5.7938140">
    <ele>31.8</ele>
    <time>2019-09-08T08:31:31Z</time>
   </trkpt>
   <trkpt lat="51.2618360" lon="5.7937320">
    <ele>31.9</ele>
    <time>2019-09-08T08:31:32Z</time>
   </trkpt>
   <trkpt lat="51.2617870" lon="5.7936550">
    <ele>32.0</ele>
    <time>2019-09-08T08:31:33Z</time>
   </trkpt>
   <trkpt lat="51.2617410" lon="5.7935700">
    <ele>32.1</ele>
    <time>2019-09-08T08:31:34Z</time>
   </trkpt>
   <trkpt lat="51.2617030" lon="5.7935000">
    <ele>32.2</ele>
    <time>2019-09-08T08:31:35Z</time>
   </trkpt>
   <trkpt lat="51.2616600" lon="5.7934320">
    <ele>32.2</ele>
    <time>2019-09-08T08:31:36Z</time>
   </trkpt>
   <trkpt lat="51.2616090" lon="5.7933540">
    <ele>32.2</ele>
    <time>2019-09-08T08:31:37Z</time>
   </trkpt>
   <trkpt lat="51.2615660" lon="5.7932550">
    <ele>32.2</ele>
    <time>2019-09-08T08:31:38Z</time>
   </trkpt>
   <trkpt lat="51.2615260" lon="5.7931800">
    <ele>32.3</ele>
    <time>2019-09-08T08:31:39Z</time>
   </trkpt>
   <trkpt lat="51.2614780" lon="5.7931030">
    <ele>32.3</ele>
    <time>2019-09-08T08:31:40Z</time>
   </trkpt>
   <trkpt lat="51.2614310" lon="5.7930190">
    <ele>32.4</ele>
    <time>2019-09-08T08:31:41Z</time>
   </trkpt>
   <trkpt lat="51.2613760" lon="5.7929530">
    <ele>32.4</ele>
    <time>2019-09-08T08:31:42Z</time>
   </trkpt>
   <trkpt lat="51.2613250" lon="5.7928740">
    <ele>32.4</ele>
    <time>2019-09-08T08:31:43Z</time>
   </trkpt>
   <trkpt lat="51.2612820" lon="5.7927860">
    <ele>32.3</ele>
    <time>2019-09-08T08:31:44Z</time>
   </trkpt>
   <trkpt lat="51.2612380" lon="5.7927140">
    <ele>32.3</ele>
    <time>2019-09-08T08:31:45Z</time>
   </trkpt>
   <trkpt lat="51.2611950" lon="5.7926310">
    <ele>32.3</ele>
    <time>2019-09-08T08:31:46Z</time>
   </trkpt>
   <trkpt lat="51.2611470" lon="5.7925620">
    <ele>32.3</ele>
    <time>2019-09-08T08:31:47Z</time>
   </trkpt>
   <trkpt lat="51.2611020" lon="5.7924800">
    <ele>32.4</ele>
    <time>2019-09-08T08:31:48Z</time>
   </trkpt>
   <trkpt lat="51.2610690" lon="5.7924150">
    <ele>32.4</ele>
    <time>2019-09-08T08:31:49Z</time>
   </trkpt>
   <trkpt lat="51.2610240" lon="5.7923410">
    <ele>32.5</ele>
    <time>2019-09-08T08:31:50Z</time>
   </trkpt>
   <trkpt lat="51.2609710" lon="5.7922660">
    <ele>31.9</ele>
    <time>2019-09-08T08:31:51Z</time>
   </trkpt>
   <trkpt lat="51.2609210" lon="5.7921920">
    <ele>31.6</ele>
    <time>2019-09-08T08:31:52Z</time>
   </trkpt>
   <trkpt lat="51.2608820" lon="5.7921040">
    <ele>31.4</ele>
    <time>2019-09-08T08:31:53Z</time>
   </trkpt>
   <trkpt lat="51.2608380" lon="5.7920200">
    <ele>31.3</ele>
    <time>2019-09-08T08:31:54Z</time>
   </trkpt>
   <trkpt lat="51.2607980" lon="5.7919330">
    <ele>31.3</ele>
    <time>2019-09-08T08:31:55Z</time>
   </trkpt>
   <trkpt lat="51.2607690" lon="5.7918550">
    <ele>31.3</ele>
    <time>2019-09-08T08:31:56Z</time>
   </trkpt>
   <trkpt lat="51.2607300" lon="5.7917590">
    <ele>31.2</ele>
    <time>2019-09-08T08:31:57Z</time>
   </trkpt>
   <trkpt lat="51.2606970" lon="5.7916770">
    <ele>31.2</ele>
    <time>2019-09-08T08:31:58Z</time>
   </trkpt>
   <trkpt lat="51.2606720" lon="5.7915840">
    <ele>31.1</ele>
    <time>2019-09-08T08:31:59Z</time>
   </trkpt>
   <trkpt lat="51.2606330" lon="5.7914940">
    <ele>31.1</ele>
    <time>2019-09-08T08:32:00Z</time>
   </trkpt>
   <trkpt lat="51.2606020" lon="5.7914010">
    <ele>31.0</ele>
    <time>2019-09-08T08:32:01Z</time>
   </trkpt>
   <trkpt lat="51.2605700" lon="5.7913170">
    <ele>30.9</ele>
    <time>2019-09-08T08:32:02Z</time>
   </trkpt>
   <trkpt lat="51.2605400" lon="5.7912490">
    <ele>30.8</ele>
    <time>2019-09-08T08:32:03Z</time>
   </trkpt>
   <trkpt lat="51.2605130" lon="5.7911960">
    <ele>30.7</ele>
    <time>2019-09-08T08:32:04Z</time>
   </trkpt>
   <trkpt lat="51.2604840" lon="5.7911400">
    <ele>30.6</ele>
    <time>2019-09-08T08:32:05Z</time>
   </trkpt>
   <trkpt lat="51.2604580" lon="5.7910910">
    <ele>30.5</ele>
    <time>2019-09-08T08:32:06Z</time>
   </trkpt>
   <trkpt lat="51.2604420" lon="5.7910360">
    <ele>30.5</ele>
    <time>2019-09-08T08:32:07Z</time>
   </trkpt>
   <trkpt lat="51.2604170" lon="5.7909950">
    <ele>30.4</ele>
    <time>2019-09-08T08:32:08Z</time>
   </trkpt>
   <trkpt lat="51.2603940" lon="5.7909510">
    <ele>30.5</ele>
    <time>2019-09-08T08:32:09Z</time>
   </trkpt>
   <trkpt lat="51.2604000" lon="5.7908960">
    <ele>30.5</ele>
    <time>2019-09-08T08:32:10Z</time>
   </trkpt>
   <trkpt lat="51.2604240" lon="5.7908460">
    <ele>30.6</ele>
    <time>2019-09-08T08:32:11Z</time>
   </trkpt>
   <trkpt lat="51.2604600" lon="5.7907840">
    <ele>30.6</ele>
    <time>2019-09-08T08:32:12Z</time>
   </trkpt>
   <trkpt lat="51.2605000" lon="5.7907440">
    <ele>30.6</ele>
    <time>2019-09-08T08:32:13Z</time>
   </trkpt>
   <trkpt lat="51.2605470" lon="5.7907000">
    <ele>30.6</ele>
    <time>2019-09-08T08:32:14Z</time>
   </trkpt>
   <trkpt lat="51.2605870" lon="5.7906340">
    <ele>30.6</ele>
    <time>2019-09-08T08:32:15Z</time>
   </trkpt>
   <trkpt lat="51.2606290" lon="5.7905740">
    <ele>30.6</ele>
    <time>2019-09-08T08:32:16Z</time>
   </trkpt>
   <trkpt lat="51.2606690" lon="5.7905120">
    <ele>30.5</ele>
    <time>2019-09-08T08:32:17Z</time>
   </trkpt>
   <trkpt lat="51.2607130" lon="5.7904490">
    <ele>30.5</ele>
    <time>2019-09-08T08:32:18Z</time>
   </trkpt>
   <trkpt lat="51.2607560" lon="5.7903730">
    <ele>30.5</ele>
    <time>2019-09-08T08:32:19Z</time>
   </trkpt>
   <trkpt lat="51.2607990" lon="5.7902990">
    <ele>30.5</ele>
    <time>2019-09-08T08:32:20Z</time>
   </trkpt>
   <trkpt lat="51.2608470" lon="5.7902170">
    <ele>30.4</ele>
    <time>2019-09-08T08:32:21Z</time>
   </trkpt>
   <trkpt lat="51.2608920" lon="5.7901430">
    <ele>30.4</ele>
    <time>2019-09-08T08:32:22Z</time>
   </trkpt>
   <trkpt lat="51.2609360" lon="5.7900670">
    <ele>30.4</ele>
    <time>2019-09-08T08:32:23Z</time>
   </trkpt>
   <trkpt lat="51.2609850" lon="5.7899940">
    <ele>30.4</ele>
    <time>2019-09-08T08:32:24Z</time>
   </trkpt>
   <trkpt lat="51.2610360" lon="5.7899090">
    <ele>30.4</ele>
    <time>2019-09-08T08:32:25Z</time>
   </trkpt>
   <trkpt lat="51.2610870" lon="5.7898320">
    <ele>30.5</ele>
    <time>2019-09-08T08:32:26Z</time>
   </trkpt>
   <trkpt lat="51.2611330" lon="5.7897560">
    <ele>30.5</ele>
    <time>2019-09-08T08:32:27Z</time>
   </trkpt>
   <trkpt lat="51.2611760" lon="5.7896800">
    <ele>30.5</ele>
    <time>2019-09-08T08:32:28Z</time>
   </trkpt>
   <trkpt lat="51.2612220" lon="5.7896000">
    <ele>30.5</ele>
    <time>2019-09-08T08:32:29Z</time>
   </trkpt>
   <trkpt lat="51.2612680" lon="5.7895230">
    <ele>30.5</ele>
    <time>2019-09-08T08:32:30Z</time>
   </trkpt>
   <trkpt lat="51.2613190" lon="5.7894340">
    <ele>30.5</ele>
    <time>2019-09-08T08:32:31Z</time>
   </trkpt>
   <trkpt lat="51.2613630" lon="5.7893510">
    <ele>30.6</ele>
    <time>2019-09-08T08:32:32Z</time>
   </trkpt>
   <trkpt lat="51.2614150" lon="5.7892730">
    <ele>30.6</ele>
    <time>2019-09-08T08:32:33Z</time>
   </trkpt>
   <trkpt lat="51.2614620" lon="5.7891930">
    <ele>30.7</ele>
    <time>2019-09-08T08:32:34Z</time>
   </trkpt>
   <trkpt lat="51.2615100" lon="5.7891140">
    <ele>30.7</ele>
    <time>2019-09-08T08:32:35Z</time>
   </trkpt>
   <trkpt lat="51.2615660" lon="5.7890380">
    <ele>30.8</ele>
    <time>2019-09-08T08:32:36Z</time>
   </trkpt>
   <trkpt lat="51.2616130" lon="5.7889570">
    <ele>30.8</ele>
    <time>2019-09-08T08:32:37Z</time>
   </trkpt>
   <trkpt lat="51.2616600" lon="5.7888790">
    <ele>30.8</ele>
    <time>2019-09-08T08:32:38Z</time>
   </trkpt>
   <trkpt lat="51.2617080" lon="5.7887920">
    <ele>30.8</ele>
    <time>2019-09-08T08:32:39Z</time>
   </trkpt>
   <trkpt lat="51.2617490" lon="5.7887040">
    <ele>30.7</ele>
    <time>2019-09-08T08:32:40Z</time>
   </trkpt>
   <trkpt lat="51.2617960" lon="5.7886240">
    <ele>30.5</ele>
    <time>2019-09-08T08:32:41Z</time>
   </trkpt>
   <trkpt lat="51.2618390" lon="5.7885440">
    <ele>30.4</ele>
    <time>2019-09-08T08:32:42Z</time>
   </trkpt>
   <trkpt lat="51.2618900" lon="5.7884620">
    <ele>30.2</ele>
    <time>2019-09-08T08:32:43Z</time>
   </trkpt>
   <trkpt lat="51.2619420" lon="5.7883790">
    <ele>30.0</ele>
    <time>2019-09-08T08:32:44Z</time>
   </trkpt>
   <trkpt lat="51.2619930" lon="5.7883020">
    <ele>29.9</ele>
    <time>2019-09-08T08:32:45Z</time>
   </trkpt>
   <trkpt lat="51.2620450" lon="5.7882250">
    <ele>29.9</ele>
    <time>2019-09-08T08:32:46Z</time>
   </trkpt>
   <trkpt lat="51.2620930" lon="5.7881450">
    <ele>29.9</ele>
    <time>2019-09-08T08:32:47Z</time>
   </trkpt>
   <trkpt lat="51.2621360" lon="5.7880620">
    <ele>30.0</ele>
    <time>2019-09-08T08:32:48Z</time>
   </trkpt>
   <trkpt lat="51.2621830" lon="5.7879840">
    <ele>30.1</ele>
    <time>2019-09-08T08:32:49Z</time>
   </trkpt>
   <trkpt lat="51.2622330" lon="5.7879120">
    <ele>30.2</ele>
    <time>2019-09-08T08:32:50Z</time>
   </trkpt>
   <trkpt lat="51.2622820" lon="5.7878270">
    <ele>30.3</ele>
    <time>2019-09-08T08:32:51Z</time>
   </trkpt>
   <trkpt lat="51.2623290" lon="5.7877430">
    <ele>30.5</ele>
    <time>2019-09-08T08:32:52Z</time>
   </trkpt>
   <trkpt lat="51.2623810" lon="5.7876620">
    <ele>30.6</ele>
    <time>2019-09-08T08:32:53Z</time>
   </trkpt>
   <trkpt lat="51.2624360" lon="5.7875860">
    <ele>30.7</ele>
    <time>2019-09-08T08:32:54Z</time>
   </trkpt>
   <trkpt lat="51.2624880" lon="5.7875060">
    <ele>30.7</ele>
    <time>2019-09-08T08:32:55Z</time>
   </trkpt>
   <trkpt lat="51.2625380" lon="5.7874220">
    <ele>30.8</ele>
    <time>2019-09-08T08:32:56Z</time>
   </trkpt>
   <trkpt lat="51.2625880" lon="5.7873370">
    <ele>30.8</ele>
    <time>2019-09-08T08:32:57Z</time>
   </trkpt>
   <trkpt lat="51.2626390" lon="5.7872510">
    <ele>30.8</ele>
    <time>2019-09-08T08:32:58Z</time>
   </trkpt>
   <trkpt lat="51.2626890" lon="5.7871660">
    <ele>30.8</ele>
    <time>2019-09-08T08:32:59Z</time>
   </trkpt>
   <trkpt lat="51.2627390" lon="5.7870930">
    <ele>30.8</ele>
    <time>2019-09-08T08:33:00Z</time>
   </trkpt>
   <trkpt lat="51.2627890" lon="5.7870090">
    <ele>30.8</ele>
    <time>2019-09-08T08:33:01Z</time>
   </trkpt>
   <trkpt lat="51.2628390" lon="5.7869160">
    <ele>30.8</ele>
    <time>2019-09-08T08:33:02Z</time>
   </trkpt>
   <trkpt lat="51.2628900" lon="5.7868290">
    <ele>30.8</ele>
    <time>2019-09-08T08:33:03Z</time>
   </trkpt>
   <trkpt lat="51.2629410" lon="5.7867510">
    <ele>30.8</ele>
    <time>2019-09-08T08:33:04Z</time>
   </trkpt>
   <trkpt lat="51.2629870" lon="5.7866670">
    <ele>30.8</ele>
    <time>2019-09-08T08:33:05Z</time>
   </trkpt>
   <trkpt lat="51.2630410" lon="5.7865610">
    <ele>30.8</ele>
    <time>2019-09-08T08:33:06Z</time>
   </trkpt>
   <trkpt lat="51.2630960" lon="5.7864620">
    <ele>30.7</ele>
    <time>2019-09-08T08:33:07Z</time>
   </trkpt>
   <trkpt lat="51.2631510" lon="5.7863820">
    <ele>30.6</ele>
    <time>2019-09-08T08:33:08Z</time>
   </trkpt>
   <trkpt lat="51.2632110" lon="5.7863020">
    <ele>30.3</ele>
    <time>2019-09-08T08:33:09Z</time>
   </trkpt>
   <trkpt lat="51.2632690" lon="5.7862210">
    <ele>30.0</ele>
    <time>2019-09-08T08:33:10Z</time>
   </trkpt>
   <trkpt lat="51.2633200" lon="5.7861300">
    <ele>29.7</ele>
    <time>2019-09-08T08:33:11Z</time>
   </trkpt>
   <trkpt lat="51.2633650" lon="5.7860470">
    <ele>29.3</ele>
    <time>2019-09-08T08:33:12Z</time>
   </trkpt>
   <trkpt lat="51.2634060" lon="5.7859580">
    <ele>29.1</ele>
    <time>2019-09-08T08:33:13Z</time>
   </trkpt>
   <trkpt lat="51.2634510" lon="5.7858740">
    <ele>29.0</ele>
    <time>2019-09-08T08:33:14Z</time>
   </trkpt>
   <trkpt lat="51.2635070" lon="5.7858020">
    <ele>28.9</ele>
    <time>2019-09-08T08:33:15Z</time>
   </trkpt>
   <trkpt lat="51.2635490" lon="5.7857170">
    <ele>28.9</ele>
    <time>2019-09-08T08:33:16Z</time>
   </trkpt>
   <trkpt lat="51.2635980" lon="5.7856340">
    <ele>28.9</ele>
    <time>2019-09-08T08:33:17Z</time>
   </trkpt>
   <trkpt lat="51.2636570" lon="5.7855480">
    <ele>28.9</ele>
    <time>2019-09-08T08:33:18Z</time>
   </trkpt>
   <trkpt lat="51.2636990" lon="5.7854540">
    <ele>28.9</ele>
    <time>2019-09-08T08:33:19Z</time>
   </trkpt>
   <trkpt lat="51.2637450" lon="5.7853680">
    <ele>28.9</ele>
    <time>2019-09-08T08:33:20Z</time>
   </trkpt>
   <trkpt lat="51.2637930" lon="5.7852720">
    <ele>28.8</ele>
    <time>2019-09-08T08:33:21Z</time>
   </trkpt>
   <trkpt lat="51.2638440" lon="5.7851900">
    <ele>28.8</ele>
    <time>2019-09-08T08:33:22Z</time>
   </trkpt>
   <trkpt lat="51.2638930" lon="5.7851040">
    <ele>28.7</ele>
    <time>2019-09-08T08:33:23Z</time>
   </trkpt>
   <trkpt lat="51.2639430" lon="5.7850090">
    <ele>28.7</ele>
    <time>2019-09-08T08:33:24Z</time>
   </trkpt>
   <trkpt lat="51.2639900" lon="5.7849330">
    <ele>28.6</ele>
    <time>2019-09-08T08:33:25Z</time>
   </trkpt>
   <trkpt lat="51.2640380" lon="5.7848300">
    <ele>28.6</ele>
    <time>2019-09-08T08:33:26Z</time>
   </trkpt>
   <trkpt lat="51.2640860" lon="5.7847460">
    <ele>28.5</ele>
    <time>2019-09-08T08:33:27Z</time>
   </trkpt>
   <trkpt lat="51.2641310" lon="5.7846580">
    <ele>28.5</ele>
    <time>2019-09-08T08:33:28Z</time>
   </trkpt>
   <trkpt lat="51.2641800" lon="5.7845640">
    <ele>28.5</ele>
    <time>2019-09-08T08:33:29Z</time>
   </trkpt>
   <trkpt lat="51.2642170" lon="5.7844710">
    <ele>28.4</ele>
    <time>2019-09-08T08:33:30Z</time>
   </trkpt>
   <trkpt lat="51.2642550" lon="5.7843850">
    <ele>28.4</ele>
    <time>2019-09-08T08:33:31Z</time>
   </trkpt>
   <trkpt lat="51.2642990" lon="5.7842970">
    <ele>28.4</ele>
    <time>2019-09-08T08:33:32Z</time>
   </trkpt>
   <trkpt lat="51.2643380" lon="5.7842190">
    <ele>28.4</ele>
    <time>2019-09-08T08:33:33Z</time>
   </trkpt>
   <trkpt lat="51.2643740" lon="5.7841330">
    <ele>28.4</ele>
    <time>2019-09-08T08:33:34Z</time>
   </trkpt>
   <trkpt lat="51.2644130" lon="5.7840540">
    <ele>28.4</ele>
    <time>2019-09-08T08:33:35Z</time>
   </trkpt>
   <trkpt lat="51.2644540" lon="5.7839730">
    <ele>28.5</ele>
    <time>2019-09-08T08:33:36Z</time>
   </trkpt>
   <trkpt lat="51.2644860" lon="5.7838990">
    <ele>28.5</ele>
    <time>2019-09-08T08:33:37Z</time>
   </trkpt>
   <trkpt lat="51.2645240" lon="5.7837950">
    <ele>28.6</ele>
    <time>2019-09-08T08:33:38Z</time>
   </trkpt>
   <trkpt lat="51.2645630" lon="5.7837120">
    <ele>28.7</ele>
    <time>2019-09-08T08:33:39Z</time>
   </trkpt>
   <trkpt lat="51.2645960" lon="5.7836220">
    <ele>28.9</ele>
    <time>2019-09-08T08:33:40Z</time>
   </trkpt>
   <trkpt lat="51.2646360" lon="5.7835390">
    <ele>29.1</ele>
    <time>2019-09-08T08:33:41Z</time>
   </trkpt>
   <trkpt lat="51.2646700" lon="5.7834510">
    <ele>29.2</ele>
    <time>2019-09-08T08:33:42Z</time>
   </trkpt>
   <trkpt lat="51.2647120" lon="5.7833700">
    <ele>29.3</ele>
    <time>2019-09-08T08:33:43Z</time>
   </trkpt>
   <trkpt lat="51.2647500" lon="5.7832760">
    <ele>29.4</ele>
    <time>2019-09-08T08:33:44Z</time>
   </trkpt>
   <trkpt lat="51.2647890" lon="5.7831950">
    <ele>29.4</ele>
    <time>2019-09-08T08:33:45Z</time>
   </trkpt>
   <trkpt lat="51.2648240" lon="5.7831020">
    <ele>29.5</ele>
    <time>2019-09-08T08:33:46Z</time>
   </trkpt>
   <trkpt lat="51.2648590" lon="5.7830070">
    <ele>29.7</ele>
    <time>2019-09-08T08:33:47Z</time>
   </trkpt>
   <trkpt lat="51.2648940" lon="5.7829130">
    <ele>29.8</ele>
    <time>2019-09-08T08:33:48Z</time>
   </trkpt>
   <trkpt lat="51.2649310" lon="5.7828250">
    <ele>29.9</ele>
    <time>2019-09-08T08:33:49Z</time>
   </trkpt>
   <trkpt lat="51.2649660" lon="5.7827370">
    <ele>30.0</ele>
    <time>2019-09-08T08:33:50Z</time>
   </trkpt>
   <trkpt lat="51.2650040" lon="5.7826410">
    <ele>30.1</ele>
    <time>2019-09-08T08:33:51Z</time>
   </trkpt>
   <trkpt lat="51.2650420" lon="5.7825360">
    <ele>30.2</ele>
    <time>2019-09-08T08:33:52Z</time>
   </trkpt>
   <trkpt lat="51.2650910" lon="5.7824180">
    <ele>30.4</ele>
    <time>2019-09-08T08:33:53Z</time>
   </trkpt>
   <trkpt lat="51.2651320" lon="5.7823270">
    <ele>30.5</ele>
    <time>2019-09-08T08:33:54Z</time>
   </trkpt>
   <trkpt lat="51.2651680" lon="5.7822530">
    <ele>30.6</ele>
    <time>2019-09-08T08:33:55Z</time>
   </trkpt>
   <trkpt lat="51.2652000" lon="5.7821620">
    <ele>30.7</ele>
    <time>2019-09-08T08:33:56Z</time>
   </trkpt>
   <trkpt lat="51.2652360" lon="5.7820800">
    <ele>30.8</ele>
    <time>2019-09-08T08:33:57Z</time>
   </trkpt>
   <trkpt lat="51.2652690" lon="5.7819940">
    <ele>30.9</ele>
    <time>2019-09-08T08:33:58Z</time>
   </trkpt>
   <trkpt lat="51.2653140" lon="5.7818740">
    <ele>31.1</ele>
    <time>2019-09-08T08:33:59Z</time>
   </trkpt>
   <trkpt lat="51.2653470" lon="5.7817870">
    <ele>31.2</ele>
    <time>2019-09-08T08:34:00Z</time>
   </trkpt>
   <trkpt lat="51.2653810" lon="5.7816950">
    <ele>31.3</ele>
    <time>2019-09-08T08:34:01Z</time>
   </trkpt>
   <trkpt lat="51.2654170" lon="5.7816090">
    <ele>31.4</ele>
    <time>2019-09-08T08:34:02Z</time>
   </trkpt>
   <trkpt lat="51.2654500" lon="5.7815120">
    <ele>31.5</ele>
    <time>2019-09-08T08:34:03Z</time>
   </trkpt>
   <trkpt lat="51.2654800" lon="5.7814180">
    <ele>31.6</ele>
    <time>2019-09-08T08:34:04Z</time>
   </trkpt>
   <trkpt lat="51.2655230" lon="5.7813340">
    <ele>31.7</ele>
    <time>2019-09-08T08:34:05Z</time>
   </trkpt>
   <trkpt lat="51.2655580" lon="5.7812440">
    <ele>31.8</ele>
    <time>2019-09-08T08:34:06Z</time>
   </trkpt>
   <trkpt lat="51.2655940" lon="5.7811600">
    <ele>31.9</ele>
    <time>2019-09-08T08:34:07Z</time>
   </trkpt>
   <trkpt lat="51.2656350" lon="5.7810740">
    <ele>32.0</ele>
    <time>2019-09-08T08:34:08Z</time>
   </trkpt>
   <trkpt lat="51.2656670" lon="5.7809950">
    <ele>32.1</ele>
    <time>2019-09-08T08:34:09Z</time>
   </trkpt>
   <trkpt lat="51.2657010" lon="5.7809180">
    <ele>32.2</ele>
    <time>2019-09-08T08:34:10Z</time>
   </trkpt>
   <trkpt lat="51.2657390" lon="5.7808190">
    <ele>32.3</ele>
    <time>2019-09-08T08:34:11Z</time>
   </trkpt>
   <trkpt lat="51.2657770" lon="5.7807330">
    <ele>32.3</ele>
    <time>2019-09-08T08:34:12Z</time>
   </trkpt>
   <trkpt lat="51.2658120" lon="5.7806380">
    <ele>32.4</ele>
    <time>2019-09-08T08:34:13Z</time>
   </trkpt>
   <trkpt lat="51.2658510" lon="5.7805480">
    <ele>32.5</ele>
    <time>2019-09-08T08:34:14Z</time>
   </trkpt>
   <trkpt lat="51.2658910" lon="5.7804560">
    <ele>32.6</ele>
    <time>2019-09-08T08:34:15Z</time>
   </trkpt>
   <trkpt lat="51.2659320" lon="5.7803700">
    <ele>32.7</ele>
    <time>2019-09-08T08:34:16Z</time>
   </trkpt>
   <trkpt lat="51.2659660" lon="5.7802840">
    <ele>32.7</ele>
    <time>2019-09-08T08:34:17Z</time>
   </trkpt>
   <trkpt lat="51.2660000" lon="5.7801970">
    <ele>32.8</ele>
    <time>2019-09-08T08:34:18Z</time>
   </trkpt>
   <trkpt lat="51.2660380" lon="5.7801100">
    <ele>32.8</ele>
    <time>2019-09-08T08:34:19Z</time>
   </trkpt>
   <trkpt lat="51.2660780" lon="5.7800120">
    <ele>32.8</ele>
    <time>2019-09-08T08:34:20Z</time>
   </trkpt>
   <trkpt lat="51.2661090" lon="5.7799110">
    <ele>32.7</ele>
    <time>2019-09-08T08:34:21Z</time>
   </trkpt>
   <trkpt lat="51.2661460" lon="5.7798260">
    <ele>32.6</ele>
    <time>2019-09-08T08:34:22Z</time>
   </trkpt>
   <trkpt lat="51.2661790" lon="5.7797310">
    <ele>32.6</ele>
    <time>2019-09-08T08:34:23Z</time>
   </trkpt>
   <trkpt lat="51.2662180" lon="5.7796250">
    <ele>32.5</ele>
    <time>2019-09-08T08:34:24Z</time>
   </trkpt>
   <trkpt lat="51.2662490" lon="5.7795320">
    <ele>32.4</ele>
    <time>2019-09-08T08:34:25Z</time>
   </trkpt>
   <trkpt lat="51.2662820" lon="5.7794540">
    <ele>32.3</ele>
    <time>2019-09-08T08:34:26Z</time>
   </trkpt>
   <trkpt lat="51.2663180" lon="5.7793690">
    <ele>32.3</ele>
    <time>2019-09-08T08:34:27Z</time>
   </trkpt>
   <trkpt lat="51.2663500" lon="5.7792800">
    <ele>32.2</ele>
    <time>2019-09-08T08:34:28Z</time>
   </trkpt>
   <trkpt lat="51.2663730" lon="5.7791860">
    <ele>32.1</ele>
    <time>2019-09-08T08:34:29Z</time>
   </trkpt>
   <trkpt lat="51.2664070" lon="5.7790910">
    <ele>32.0</ele>
    <time>2019-09-08T08:34:30Z</time>
   </trkpt>
   <trkpt lat="51.2664410" lon="5.7790010">
    <ele>31.9</ele>
    <time>2019-09-08T08:34:31Z</time>
   </trkpt>
   <trkpt lat="51.2664650" lon="5.7789110">
    <ele>31.8</ele>
    <time>2019-09-08T08:34:32Z</time>
   </trkpt>
   <trkpt lat="51.2664930" lon="5.7788110">
    <ele>31.7</ele>
    <time>2019-09-08T08:34:33Z</time>
   </trkpt>
   <trkpt lat="51.2665230" lon="5.7787160">
    <ele>31.6</ele>
    <time>2019-09-08T08:34:34Z</time>
   </trkpt>
   <trkpt lat="51.2665640" lon="5.7786210">
    <ele>31.5</ele>
    <time>2019-09-08T08:34:35Z</time>
   </trkpt>
   <trkpt lat="51.2666090" lon="5.7785440">
    <ele>31.5</ele>
    <time>2019-09-08T08:34:36Z</time>
   </trkpt>
   <trkpt lat="51.2666560" lon="5.7784460">
    <ele>31.6</ele>
    <time>2019-09-08T08:34:37Z</time>
   </trkpt>
   <trkpt lat="51.2667100" lon="5.7783870">
    <ele>31.6</ele>
    <time>2019-09-08T08:34:38Z</time>
   </trkpt>
   <trkpt lat="51.2667650" lon="5.7783130">
    <ele>31.7</ele>
    <time>2019-09-08T08:34:39Z</time>
   </trkpt>
   <trkpt lat="51.2668100" lon="5.7782410">
    <ele>31.7</ele>
    <time>2019-09-08T08:34:40Z</time>
   </trkpt>
   <trkpt lat="51.2668500" lon="5.7781700">
    <ele>31.8</ele>
    <time>2019-09-08T08:34:41Z</time>
   </trkpt>
   <trkpt lat="51.2668960" lon="5.7780910">
    <ele>31.9</ele>
    <time>2019-09-08T08:34:42Z</time>
   </trkpt>
   <trkpt lat="51.2669390" lon="5.7780180">
    <ele>32.0</ele>
    <time>2019-09-08T08:34:43Z</time>
   </trkpt>
   <trkpt lat="51.2669820" lon="5.7779460">
    <ele>32.1</ele>
    <time>2019-09-08T08:34:44Z</time>
   </trkpt>
   <trkpt lat="51.2670280" lon="5.7778630">
    <ele>32.1</ele>
    <time>2019-09-08T08:34:45Z</time>
   </trkpt>
   <trkpt lat="51.2670800" lon="5.7777840">
    <ele>32.2</ele>
    <time>2019-09-08T08:34:46Z</time>
   </trkpt>
   <trkpt lat="51.2671240" lon="5.7777000">
    <ele>32.2</ele>
    <time>2019-09-08T08:34:47Z</time>
   </trkpt>
   <trkpt lat="51.2671540" lon="5.7776160">
    <ele>32.2</ele>
    <time>2019-09-08T08:34:48Z</time>
   </trkpt>
   <trkpt lat="51.2671780" lon="5.7775040">
    <ele>32.2</ele>
    <time>2019-09-08T08:34:49Z</time>
   </trkpt>
   <trkpt lat="51.2672060" lon="5.7773960">
    <ele>32.2</ele>
    <time>2019-09-08T08:34:50Z</time>
   </trkpt>
   <trkpt lat="51.2672340" lon="5.7772950">
    <ele>32.2</ele>
    <time>2019-09-08T08:34:51Z</time>
   </trkpt>
   <trkpt lat="51.2672650" lon="5.7771900">
    <ele>32.2</ele>
    <time>2019-09-08T08:34:52Z</time>
   </trkpt>
   <trkpt lat="51.2672990" lon="5.7770890">
    <ele>32.2</ele>
    <time>2019-09-08T08:34:53Z</time>
   </trkpt>
   <trkpt lat="51.2673350" lon="5.7769960">
    <ele>32.2</ele>
    <time>2019-09-08T08:34:54Z</time>
   </trkpt>
   <trkpt lat="51.2673720" lon="5.7769090">
    <ele>32.2</ele>
    <time>2019-09-08T08:34:55Z</time>
   </trkpt>
   <trkpt lat="51.2674080" lon="5.7768200">
    <ele>32.2</ele>
    <time>2019-09-08T08:34:56Z</time>
   </trkpt>
   <trkpt lat="51.2674430" lon="5.7767230">
    <ele>32.2</ele>
    <time>2019-09-08T08:34:57Z</time>
   </trkpt>
   <trkpt lat="51.2674780" lon="5.7766300">
    <ele>32.2</ele>
    <time>2019-09-08T08:34:58Z</time>
   </trkpt>
   <trkpt lat="51.2675220" lon="5.7765330">
    <ele>32.2</ele>
    <time>2019-09-08T08:34:59Z</time>
   </trkpt>
   <trkpt lat="51.2675600" lon="5.7764400">
    <ele>32.2</ele>
    <time>2019-09-08T08:35:00Z</time>
   </trkpt>
   <trkpt lat="51.2675980" lon="5.7763500">
    <ele>32.2</ele>
    <time>2019-09-08T08:35:01Z</time>
   </trkpt>
   <trkpt lat="51.2676400" lon="5.7762570">
    <ele>32.1</ele>
    <time>2019-09-08T08:35:02Z</time>
   </trkpt>
   <trkpt lat="51.2676740" lon="5.7761740">
    <ele>32.1</ele>
    <time>2019-09-08T08:35:03Z</time>
   </trkpt>
   <trkpt lat="51.2677110" lon="5.7760850">
    <ele>32.1</ele>
    <time>2019-09-08T08:35:04Z</time>
   </trkpt>
   <trkpt lat="51.2677550" lon="5.7759870">
    <ele>32.1</ele>
    <time>2019-09-08T08:35:05Z</time>
   </trkpt>
   <trkpt lat="51.2677920" lon="5.7758990">
    <ele>32.1</ele>
    <time>2019-09-08T08:35:06Z</time>
   </trkpt>
   <trkpt lat="51.2678440" lon="5.7758140">
    <ele>32.0</ele>
    <time>2019-09-08T08:35:07Z</time>
   </trkpt>
   <trkpt lat="51.2678930" lon="5.7757570">
    <ele>32.0</ele>
    <time>2019-09-08T08:35:08Z</time>
   </trkpt>
   <trkpt lat="51.2679400" lon="5.7756840">
    <ele>32.0</ele>
    <time>2019-09-08T08:35:09Z</time>
   </trkpt>
   <trkpt lat="51.2680140" lon="5.7756040">
    <ele>32.1</ele>
    <time>2019-09-08T08:35:10Z</time>
   </trkpt>
   <trkpt lat="51.2680750" lon="5.7755460">
    <ele>32.1</ele>
    <time>2019-09-08T08:35:11Z</time>
   </trkpt>
   <trkpt lat="51.2681290" lon="5.7755050">
    <ele>32.1</ele>
    <time>2019-09-08T08:35:12Z</time>
   </trkpt>
   <trkpt lat="51.2681960" lon="5.7754710">
    <ele>32.1</ele>
    <time>2019-09-08T08:35:13Z</time>
   </trkpt>
   <trkpt lat="51.2682580" lon="5.7754390">
    <ele>32.1</ele>
    <time>2019-09-08T08:35:14Z</time>
   </trkpt>
   <trkpt lat="51.2683260" lon="5.7753940">
    <ele>32.2</ele>
    <time>2019-09-08T08:35:15Z</time>
   </trkpt>
   <trkpt lat="51.2683920" lon="5.7753760">
    <ele>32.2</ele>
    <time>2019-09-08T08:35:16Z</time>
   </trkpt>
   <trkpt lat="51.2684590" lon="5.7753580">
    <ele>32.2</ele>
    <time>2019-09-08T08:35:17Z</time>
   </trkpt>
   <trkpt lat="51.2685160" lon="5.7753090">
    <ele>32.2</ele>
    <time>2019-09-08T08:35:18Z</time>
   </trkpt>
   <trkpt lat="51.2685810" lon="5.7752980">
    <ele>32.2</ele>
    <time>2019-09-08T08:35:19Z</time>
   </trkpt>
   <trkpt lat="51.2686470" lon="5.7752910">
    <ele>32.2</ele>
    <time>2019-09-08T08:35:20Z</time>
   </trkpt>
   <trkpt lat="51.2687160" lon="5.7752900">
    <ele>32.2</ele>
    <time>2019-09-08T08:35:21Z</time>
   </trkpt>
   <trkpt lat="51.2687820" lon="5.7752860">
    <ele>32.2</ele>
    <time>2019-09-08T08:35:22Z</time>
   </trkpt>
   <trkpt lat="51.2688470" lon="5.7752870">
    <ele>32.3</ele>
    <time>2019-09-08T08:35:23Z</time>
   </trkpt>
   <trkpt lat="51.2689120" lon="5.7753030">
    <ele>32.3</ele>
    <time>2019-09-08T08:35:24Z</time>
   </trkpt>
   <trkpt lat="51.2689730" lon="5.7753200">
    <ele>32.3</ele>
    <time>2019-09-08T08:35:25Z</time>
   </trkpt>
   <trkpt lat="51.2690460" lon="5.7753540">
    <ele>32.4</ele>
    <time>2019-09-08T08:35:26Z</time>
   </trkpt>
   <trkpt lat="51.2691090" lon="5.7753790">
    <ele>32.4</ele>
    <time>2019-09-08T08:35:27Z</time>
   </trkpt>
   <trkpt lat="51.2691670" lon="5.7754030">
    <ele>32.4</ele>
    <time>2019-09-08T08:35:28Z</time>
   </trkpt>
   <trkpt lat="51.2692280" lon="5.7754270">
    <ele>32.4</ele>
    <time>2019-09-08T08:35:29Z</time>
   </trkpt>
   <trkpt lat="51.2692890" lon="5.7754590">
    <ele>32.4</ele>
    <time>2019-09-08T08:35:30Z</time>
   </trkpt>
   <trkpt lat="51.2693530" lon="5.7754950">
    <ele>32.4</ele>
    <time>2019-09-08T08:35:31Z</time>
   </trkpt>
   <trkpt lat="51.2694160" lon="5.7755450">
    <ele>32.5</ele>
    <time>2019-09-08T08:35:32Z</time>
   </trkpt>
   <trkpt lat="51.2694830" lon="5.7755840">
    <ele>32.5</ele>
    <time>2019-09-08T08:35:33Z</time>
   </trkpt>
   <trkpt lat="51.2695410" lon="5.7756100">
    <ele>32.6</ele>
    <time>2019-09-08T08:35:34Z</time>
   </trkpt>
   <trkpt lat="51.2696010" lon="5.7756380">
    <ele>32.6</ele>
    <time>2019-09-08T08:35:35Z</time>
   </trkpt>
   <trkpt lat="51.2696440" lon="5.7756570">
    <ele>32.7</ele>
    <time>2019-09-08T08:35:36Z</time>
   </trkpt>
   <trkpt lat="51.2696900" lon="5.7756870">
    <ele>32.8</ele>
    <time>2019-09-08T08:35:37Z</time>
   </trkpt>
   <trkpt lat="51.2697270" lon="5.7757370">
    <ele>32.7</ele>
    <time>2019-09-08T08:35:38Z</time>
   </trkpt>
   <trkpt lat="51.2697620" lon="5.7757850">
    <ele>32.7</ele>
    <time>2019-09-08T08:35:39Z</time>
   </trkpt>
   <trkpt lat="51.2697870" lon="5.7758310">
    <ele>32.7</ele>
    <time>2019-09-08T08:35:40Z</time>
   </trkpt>
   <trkpt lat="51.2698360" lon="5.7758750">
    <ele>32.7</ele>
    <time>2019-09-08T08:35:41Z</time>
   </trkpt>
   <trkpt lat="51.2698810" lon="5.7758960">
    <ele>32.6</ele>
    <time>2019-09-08T08:35:42Z</time>
   </trkpt>
   <trkpt lat="51.2699340" lon="5.7759050">
    <ele>32.6</ele>
    <time>2019-09-08T08:35:43Z</time>
   </trkpt>
   <trkpt lat="51.2699930" lon="5.7759060">
    <ele>32.6</ele>
    <time>2019-09-08T08:35:44Z</time>
   </trkpt>
   <trkpt lat="51.2700510" lon="5.7759050">
    <ele>32.6</ele>
    <time>2019-09-08T08:35:45Z</time>
   </trkpt>
   <trkpt lat="51.2701100" lon="5.7758950">
    <ele>32.6</ele>
    <time>2019-09-08T08:35:46Z</time>
   </trkpt>
   <trkpt lat="51.2701810" lon="5.7758870">
    <ele>32.6</ele>
    <time>2019-09-08T08:35:47Z</time>
   </trkpt>
   <trkpt lat="51.2702480" lon="5.7758850">
    <ele>32.5</ele>
    <time>2019-09-08T08:35:48Z</time>
   </trkpt>
   <trkpt lat="51.2703160" lon="5.7758840">
    <ele>32.5</ele>
    <time>2019-09-08T08:35:49Z</time>
   </trkpt>
   <trkpt lat="51.2703910" lon="5.7758790">
    <ele>32.5</ele>
    <time>2019-09-08T08:35:50Z</time>
   </trkpt>
   <trkpt lat="51.2704620" lon="5.7758730">
    <ele>32.5</ele>
    <time>2019-09-08T08:35:51Z</time>
   </trkpt>
   <trkpt lat="51.2705360" lon="5.7758690">
    <ele>32.5</ele>
    <time>2019-09-08T08:35:52Z</time>
   </trkpt>
   <trkpt lat="51.2706080" lon="5.7758660">
    <ele>32.5</ele>
    <time>2019-09-08T08:35:53Z</time>
   </trkpt>
   <trkpt lat="51.2706910" lon="5.7758670">
    <ele>32.4</ele>
    <time>2019-09-08T08:35:54Z</time>
   </trkpt>
   <trkpt lat="51.2707590" lon="5.7758630">
    <ele>32.4</ele>
    <time>2019-09-08T08:35:55Z</time>
   </trkpt>
   <trkpt lat="51.2708230" lon="5.7758560">
    <ele>32.4</ele>
    <time>2019-09-08T08:35:56Z</time>
   </trkpt>
   <trkpt lat="51.2708900" lon="5.7758530">
    <ele>32.4</ele>
    <time>2019-09-08T08:35:57Z</time>
   </trkpt>
   <trkpt lat="51.2709520" lon="5.7758550">
    <ele>32.3</ele>
    <time>2019-09-08T08:35:58Z</time>
   </trkpt>
   <trkpt lat="51.2710150" lon="5.7758580">
    <ele>32.3</ele>
    <time>2019-09-08T08:35:59Z</time>
   </trkpt>
   <trkpt lat="51.2710790" lon="5.7758590">
    <ele>32.2</ele>
    <time>2019-09-08T08:36:00Z</time>
   </trkpt>
   <trkpt lat="51.2711360" lon="5.7758520">
    <ele>32.2</ele>
    <time>2019-09-08T08:36:01Z</time>
   </trkpt>
   <trkpt lat="51.2711920" lon="5.7758410">
    <ele>32.2</ele>
    <time>2019-09-08T08:36:02Z</time>
   </trkpt>
   <trkpt lat="51.2712360" lon="5.7758030">
    <ele>32.2</ele>
    <time>2019-09-08T08:36:03Z</time>
   </trkpt>
   <trkpt lat="51.2712610" lon="5.7757360">
    <ele>32.2</ele>
    <time>2019-09-08T08:36:04Z</time>
   </trkpt>
   <trkpt lat="51.2712710" lon="5.7756600">
    <ele>32.2</ele>
    <time>2019-09-08T08:36:05Z</time>
   </trkpt>
   <trkpt lat="51.2712830" lon="5.7755910">
    <ele>32.2</ele>
    <time>2019-09-08T08:36:06Z</time>
   </trkpt>
   <trkpt lat="51.2712850" lon="5.7755160">
    <ele>32.2</ele>
    <time>2019-09-08T08:36:07Z</time>
   </trkpt>
   <trkpt lat="51.2712780" lon="5.7754390">
    <ele>32.2</ele>
    <time>2019-09-08T08:36:08Z</time>
   </trkpt>
   <trkpt lat="51.2712590" lon="5.7753650">
    <ele>32.2</ele>
    <time>2019-09-08T08:36:09Z</time>
   </trkpt>
   <trkpt lat="51.2712300" lon="5.7752780">
    <ele>32.3</ele>
    <time>2019-09-08T08:36:10Z</time>
   </trkpt>
   <trkpt lat="51.2712130" lon="5.7751960">
    <ele>32.4</ele>
    <time>2019-09-08T08:36:11Z</time>
   </trkpt>
   <trkpt lat="51.2711990" lon="5.7751150">
    <ele>32.5</ele>
    <time>2019-09-08T08:36:12Z</time>
   </trkpt>
   <trkpt lat="51.2711830" lon="5.7750250">
    <ele>32.7</ele>
    <time>2019-09-08T08:36:13Z</time>
   </trkpt>
   <trkpt lat="51.2711520" lon="5.7749450">
    <ele>32.8</ele>
    <time>2019-09-08T08:36:14Z</time>
   </trkpt>
   <trkpt lat="51.2711160" lon="5.7748620">
    <ele>32.9</ele>
    <time>2019-09-08T08:36:15Z</time>
   </trkpt>
   <trkpt lat="51.2710840" lon="5.7747880">
    <ele>32.9</ele>
    <time>2019-09-08T08:36:16Z</time>
   </trkpt>
   <trkpt lat="51.2710520" lon="5.7747210">
    <ele>32.9</ele>
    <time>2019-09-08T08:36:17Z</time>
   </trkpt>
   <trkpt lat="51.2710230" lon="5.7746340">
    <ele>32.9</ele>
    <time>2019-09-08T08:36:18Z</time>
   </trkpt>
   <trkpt lat="51.2709880" lon="5.7745750">
    <ele>32.9</ele>
    <time>2019-09-08T08:36:19Z</time>
   </trkpt>
   <trkpt lat="51.2709290" lon="5.7745040">
    <ele>32.8</ele>
    <time>2019-09-08T08:36:20Z</time>
   </trkpt>
   <trkpt lat="51.2708940" lon="5.7744230">
    <ele>32.8</ele>
    <time>2019-09-08T08:36:21Z</time>
   </trkpt>
   <trkpt lat="51.2708570" lon="5.7743390">
    <ele>32.8</ele>
    <time>2019-09-08T08:36:22Z</time>
   </trkpt>
   <trkpt lat="51.2708030" lon="5.7742730">
    <ele>32.7</ele>
    <time>2019-09-08T08:36:23Z</time>
   </trkpt>
   <trkpt lat="51.2707640" lon="5.7741860">
    <ele>32.7</ele>
    <time>2019-09-08T08:36:24Z</time>
   </trkpt>
   <trkpt lat="51.2707190" lon="5.7741030">
    <ele>32.6</ele>
    <time>2019-09-08T08:36:25Z</time>
   </trkpt>
   <trkpt lat="51.2706810" lon="5.7740240">
    <ele>32.6</ele>
    <time>2019-09-08T08:36:26Z</time>
   </trkpt>
   <trkpt lat="51.2706430" lon="5.7739330">
    <ele>32.5</ele>
    <time>2019-09-08T08:36:27Z</time>
   </trkpt>
   <trkpt lat="51.2706020" lon="5.7738430">
    <ele>32.5</ele>
    <time>2019-09-08T08:36:28Z</time>
   </trkpt>
   <trkpt lat="51.2705660" lon="5.7737610">
    <ele>32.5</ele>
    <time>2019-09-08T08:36:29Z</time>
   </trkpt>
   <trkpt lat="51.2705160" lon="5.7736560">
    <ele>32.5</ele>
    <time>2019-09-08T08:36:30Z</time>
   </trkpt>
   <trkpt lat="51.2704700" lon="5.7735540">
    <ele>32.5</ele>
    <time>2019-09-08T08:36:31Z</time>
   </trkpt>
   <trkpt lat="51.2704240" lon="5.7734540">
    <ele>32.5</ele>
    <time>2019-09-08T08:36:32Z</time>
   </trkpt>
   <trkpt lat="51.2703820" lon="5.7733660">
    <ele>32.5</ele>
    <time>2019-09-08T08:36:33Z</time>
   </trkpt>
   <trkpt lat="51.2703390" lon="5.7732550">
    <ele>32.6</ele>
    <time>2019-09-08T08:36:34Z</time>
   </trkpt>
   <trkpt lat="51.2702950" lon="5.7731630">
    <ele>32.6</ele>
    <time>2019-09-08T08:36:35Z</time>
   </trkpt>
   <trkpt lat="51.2702550" lon="5.7730680">
    <ele>32.7</ele>
    <time>2019-09-08T08:36:36Z</time>
   </trkpt>
   <trkpt lat="51.2702120" lon="5.7729730">
    <ele>32.7</ele>
    <time>2019-09-08T08:36:37Z</time>
   </trkpt>
   <trkpt lat="51.2701640" lon="5.7728860">
    <ele>32.8</ele>
    <time>2019-09-08T08:36:38Z</time>
   </trkpt>
   <trkpt lat="51.2701230" lon="5.7727960">
    <ele>32.8</ele>
    <time>2019-09-08T08:36:39Z</time>
   </trkpt>
   <trkpt lat="51.2700960" lon="5.7727080">
    <ele>32.8</ele>
    <time>2019-09-08T08:36:40Z</time>
   </trkpt>
   <trkpt lat="51.2700550" lon="5.7726160">
    <ele>32.9</ele>
    <time>2019-09-08T08:36:41Z</time>
   </trkpt>
   <trkpt lat="51.2700090" lon="5.7725250">
    <ele>32.9</ele>
    <time>2019-09-08T08:36:42Z</time>
   </trkpt>
   <trkpt lat="51.2699680" lon="5.7724280">
    <ele>32.9</ele>
    <time>2019-09-08T08:36:43Z</time>
   </trkpt>
   <trkpt lat="51.2699270" lon="5.7723470">
    <ele>32.9</ele>
    <time>2019-09-08T08:36:44Z</time>
   </trkpt>
   <trkpt lat="51.2698710" lon="5.7722640">
    <ele>32.9</ele>
    <time>2019-09-08T08:36:45Z</time>
   </trkpt>
   <trkpt lat="51.2698390" lon="5.7721870">
    <ele>32.9</ele>
    <time>2019-09-08T08:36:46Z</time>
   </trkpt>
   <trkpt lat="51.2697950" lon="5.7721130">
    <ele>32.9</ele>
    <time>2019-09-08T08:36:47Z</time>
   </trkpt>
   <trkpt lat="51.2697540" lon="5.7720300">
    <ele>32.9</ele>
    <time>2019-09-08T08:36:48Z</time>
   </trkpt>
   <trkpt lat="51.2697110" lon="5.7719610">
    <ele>32.9</ele>
    <time>2019-09-08T08:36:49Z</time>
   </trkpt>
   <trkpt lat="51.2696900" lon="5.7718780">
    <ele>32.9</ele>
    <time>2019-09-08T08:36:50Z</time>
   </trkpt>
   <trkpt lat="51.2696360" lon="5.7717860">
    <ele>32.9</ele>
    <time>2019-09-08T08:36:51Z</time>
   </trkpt>
   <trkpt lat="51.2695840" lon="5.7716950">
    <ele>32.9</ele>
    <time>2019-09-08T08:36:52Z</time>
   </trkpt>
   <trkpt lat="51.2695350" lon="5.7716000">
    <ele>32.9</ele>
    <time>2019-09-08T08:36:53Z</time>
   </trkpt>
   <trkpt lat="51.2694890" lon="5.7715050">
    <ele>32.9</ele>
    <time>2019-09-08T08:36:54Z</time>
   </trkpt>
   <trkpt lat="51.2694500" lon="5.7714100">
    <ele>32.9</ele>
    <time>2019-09-08T08:36:55Z</time>
   </trkpt>
   <trkpt lat="51.2694060" lon="5.7713230">
    <ele>32.9</ele>
    <time>2019-09-08T08:36:56Z</time>
   </trkpt>
   <trkpt lat="51.2693540" lon="5.7712330">
    <ele>32.9</ele>
    <time>2019-09-08T08:36:57Z</time>
   </trkpt>
   <trkpt lat="51.2693130" lon="5.7711440">
    <ele>32.9</ele>
    <time>2019-09-08T08:36:58Z</time>
   </trkpt>
   <trkpt lat="51.2692730" lon="5.7710630">
    <ele>32.9</ele>
    <time>2019-09-08T08:36:59Z</time>
   </trkpt>
   <trkpt lat="51.2692330" lon="5.7709760">
    <ele>33.0</ele>
    <time>2019-09-08T08:37:00Z</time>
   </trkpt>
   <trkpt lat="51.2691950" lon="5.7708990">
    <ele>33.0</ele>
    <time>2019-09-08T08:37:01Z</time>
   </trkpt>
   <trkpt lat="51.2691530" lon="5.7708150">
    <ele>33.1</ele>
    <time>2019-09-08T08:37:02Z</time>
   </trkpt>
   <trkpt lat="51.2691120" lon="5.7707120">
    <ele>33.1</ele>
    <time>2019-09-08T08:37:03Z</time>
   </trkpt>
   <trkpt lat="51.2690600" lon="5.7706180">
    <ele>33.1</ele>
    <time>2019-09-08T08:37:04Z</time>
   </trkpt>
   <trkpt lat="51.2690200" lon="5.7705280">
    <ele>33.1</ele>
    <time>2019-09-08T08:37:05Z</time>
   </trkpt>
   <trkpt lat="51.2689760" lon="5.7704410">
    <ele>33.1</ele>
    <time>2019-09-08T08:37:06Z</time>
   </trkpt>
   <trkpt lat="51.2689330" lon="5.7703540">
    <ele>33.1</ele>
    <time>2019-09-08T08:37:07Z</time>
   </trkpt>
   <trkpt lat="51.2688930" lon="5.7702640">
    <ele>33.2</ele>
    <time>2019-09-08T08:37:08Z</time>
   </trkpt>
   <trkpt lat="51.2688530" lon="5.7701810">
    <ele>33.2</ele>
    <time>2019-09-08T08:37:09Z</time>
   </trkpt>
   <trkpt lat="51.2688080" lon="5.7700960">
    <ele>33.3</ele>
    <time>2019-09-08T08:37:10Z</time>
   </trkpt>
   <trkpt lat="51.2687710" lon="5.7700160">
    <ele>33.3</ele>
    <time>2019-09-08T08:37:11Z</time>
   </trkpt>
   <trkpt lat="51.2687330" lon="5.7699260">
    <ele>33.4</ele>
    <time>2019-09-08T08:37:12Z</time>
   </trkpt>
   <trkpt lat="51.2686890" lon="5.7698320">
    <ele>33.5</ele>
    <time>2019-09-08T08:37:13Z</time>
   </trkpt>
   <trkpt lat="51.2686370" lon="5.7697610">
    <ele>33.5</ele>
    <time>2019-09-08T08:37:14Z</time>
   </trkpt>
   <trkpt lat="51.2686000" lon="5.7696760">
    <ele>33.6</ele>
    <time>2019-09-08T08:37:15Z</time>
   </trkpt>
   <trkpt lat="51.2685590" lon="5.7695800">
    <ele>33.6</ele>
    <time>2019-09-08T08:37:16Z</time>
   </trkpt>
   <trkpt lat="51.2685160" lon="5.7694930">
    <ele>33.7</ele>
    <time>2019-09-08T08:37:17Z</time>
   </trkpt>
   <trkpt lat="51.2684760" lon="5.7694100">
    <ele>33.7</ele>
    <time>2019-09-08T08:37:18Z</time>
   </trkpt>
   <trkpt lat="51.2684270" lon="5.7693170">
    <ele>33.8</ele>
    <time>2019-09-08T08:37:19Z</time>
   </trkpt>
   <trkpt lat="51.2683860" lon="5.7692340">
    <ele>33.8</ele>
    <time>2019-09-08T08:37:20Z</time>
   </trkpt>
   <trkpt lat="51.2683430" lon="5.7691460">
    <ele>33.9</ele>
    <time>2019-09-08T08:37:21Z</time>
   </trkpt>
   <trkpt lat="51.2683080" lon="5.7690570">
    <ele>33.9</ele>
    <time>2019-09-08T08:37:22Z</time>
   </trkpt>
   <trkpt lat="51.2682740" lon="5.7689660">
    <ele>34.0</ele>
    <time>2019-09-08T08:37:23Z</time>
   </trkpt>
   <trkpt lat="51.2682340" lon="5.7688890">
    <ele>34.1</ele>
    <time>2019-09-08T08:37:24Z</time>
   </trkpt>
   <trkpt lat="51.2681850" lon="5.7688100">
    <ele>34.1</ele>
    <time>2019-09-08T08:37:25Z</time>
   </trkpt>
   <trkpt lat="51.2681420" lon="5.7687280">
    <ele>34.2</ele>
    <time>2019-09-08T08:37:26Z</time>
   </trkpt>
   <trkpt lat="51.2680980" lon="5.7686360">
    <ele>34.2</ele>
    <time>2019-09-08T08:37:27Z</time>
   </trkpt>
   <trkpt lat="51.2680630" lon="5.7685560">
    <ele>34.3</ele>
    <time>2019-09-08T08:37:28Z</time>
   </trkpt>
   <trkpt lat="51.2680210" lon="5.7684750">
    <ele>34.2</ele>
    <time>2019-09-08T08:37:29Z</time>
   </trkpt>
   <trkpt lat="51.2679880" lon="5.7683870">
    <ele>34.0</ele>
    <time>2019-09-08T08:37:30Z</time>
   </trkpt>
   <trkpt lat="51.2679470" lon="5.7683050">
    <ele>33.8</ele>
    <time>2019-09-08T08:37:31Z</time>
   </trkpt>
   <trkpt lat="51.2679150" lon="5.7682090">
    <ele>33.6</ele>
    <time>2019-09-08T08:37:32Z</time>
   </trkpt>
   <trkpt lat="51.2678820" lon="5.7681100">
    <ele>33.4</ele>
    <time>2019-09-08T08:37:33Z</time>
   </trkpt>
   <trkpt lat="51.2678410" lon="5.7680270">
    <ele>33.3</ele>
    <time>2019-09-08T08:37:34Z</time>
   </trkpt>
   <trkpt lat="51.2678050" lon="5.7679360">
    <ele>33.1</ele>
    <time>2019-09-08T08:37:35Z</time>
   </trkpt>
   <trkpt lat="51.2677680" lon="5.7678570">
    <ele>33.0</ele>
    <time>2019-09-08T08:37:36Z</time>
   </trkpt>
   <trkpt lat="51.2677360" lon="5.7677630">
    <ele>32.9</ele>
    <time>2019-09-08T08:37:37Z</time>
   </trkpt>
   <trkpt lat="51.2677010" lon="5.7676840">
    <ele>32.8</ele>
    <time>2019-09-08T08:37:38Z</time>
   </trkpt>
   <trkpt lat="51.2676680" lon="5.7675840">
    <ele>32.5</ele>
    <time>2019-09-08T08:37:39Z</time>
   </trkpt>
   <trkpt lat="51.2676340" lon="5.7674980">
    <ele>32.3</ele>
    <time>2019-09-08T08:37:40Z</time>
   </trkpt>
   <trkpt lat="51.2676060" lon="5.7673980">
    <ele>32.1</ele>
    <time>2019-09-08T08:37:41Z</time>
   </trkpt>
   <trkpt lat="51.2675760" lon="5.7673150">
    <ele>31.9</ele>
    <time>2019-09-08T08:37:42Z</time>
   </trkpt>
   <trkpt lat="51.2675410" lon="5.7672340">
    <ele>31.9</ele>
    <time>2019-09-08T08:37:43Z</time>
   </trkpt>
   <trkpt lat="51.2675050" lon="5.7671510">
    <ele>31.9</ele>
    <time>2019-09-08T08:37:44Z</time>
   </trkpt>
   <trkpt lat="51.2674720" lon="5.7670770">
    <ele>31.8</ele>
    <time>2019-09-08T08:37:45Z</time>
   </trkpt>
   <trkpt lat="51.2674360" lon="5.7669840">
    <ele>31.8</ele>
    <time>2019-09-08T08:37:46Z</time>
   </trkpt>
   <trkpt lat="51.2674020" lon="5.7668960">
    <ele>31.8</ele>
    <time>2019-09-08T08:37:47Z</time>
   </trkpt>
   <trkpt lat="51.2673740" lon="5.7668290">
    <ele>31.8</ele>
    <time>2019-09-08T08:37:48Z</time>
   </trkpt>
   <trkpt lat="51.2673480" lon="5.7667690">
    <ele>31.7</ele>
    <time>2019-09-08T08:37:49Z</time>
   </trkpt>
   <trkpt lat="51.2673270" lon="5.7666990">
    <ele>31.7</ele>
    <time>2019-09-08T08:37:50Z</time>
   </trkpt>
   <trkpt lat="51.2673040" lon="5.7666550">
    <ele>31.8</ele>
    <time>2019-09-08T08:37:51Z</time>
   </trkpt>
   <trkpt lat="51.2672910" lon="5.7665980">
    <ele>31.8</ele>
    <time>2019-09-08T08:37:52Z</time>
   </trkpt>
   <trkpt lat="51.2672970" lon="5.7665340">
    <ele>31.9</ele>
    <time>2019-09-08T08:37:53Z</time>
   </trkpt>
   <trkpt lat="51.2673250" lon="5.7664640">
    <ele>31.9</ele>
    <time>2019-09-08T08:37:54Z</time>
   </trkpt>
   <trkpt lat="51.2673630" lon="5.7664230">
    <ele>31.9</ele>
    <time>2019-09-08T08:37:55Z</time>
   </trkpt>
   <trkpt lat="51.2674200" lon="5.7663870">
    <ele>31.8</ele>
    <time>2019-09-08T08:37:56Z</time>
   </trkpt>
   <trkpt lat="51.2674760" lon="5.7663550">
    <ele>31.8</ele>
    <time>2019-09-08T08:37:57Z</time>
   </trkpt>
   <trkpt lat="51.2675390" lon="5.7663040">
    <ele>31.8</ele>
    <time>2019-09-08T08:37:58Z</time>
   </trkpt>
   <trkpt lat="51.2675990" lon="5.7662620">
    <ele>31.8</ele>
    <time>2019-09-08T08:37:59Z</time>
   </trkpt>
   <trkpt lat="51.2676580" lon="5.7662190">
    <ele>31.8</ele>
    <time>2019-09-08T08:38:00Z</time>
   </trkpt>
   <trkpt lat="51.2677220" lon="5.7661780">
    <ele>31.8</ele>
    <time>2019-09-08T08:38:01Z</time>
   </trkpt>
   <trkpt lat="51.2677860" lon="5.7661310">
    <ele>31.8</ele>
    <time>2019-09-08T08:38:02Z</time>
   </trkpt>
   <trkpt lat="51.2678480" lon="5.7660880">
    <ele>31.8</ele>
    <time>2019-09-08T08:38:03Z</time>
   </trkpt>
   <trkpt lat="51.2679150" lon="5.7660370">
    <ele>31.8</ele>
    <time>2019-09-08T08:38:04Z</time>
   </trkpt>
   <trkpt lat="51.2679750" lon="5.7659860">
    <ele>31.8</ele>
    <time>2019-09-08T08:38:05Z</time>
   </trkpt>
   <trkpt lat="51.2680360" lon="5.7659430">
    <ele>31.8</ele>
    <time>2019-09-08T08:38:06Z</time>
   </trkpt>
   <trkpt lat="51.2680910" lon="5.7659100">
    <ele>31.8</ele>
    <time>2019-09-08T08:38:07Z</time>
   </trkpt>
   <trkpt lat="51.2681630" lon="5.7658710">
    <ele>31.8</ele>
    <time>2019-09-08T08:38:08Z</time>
   </trkpt>
   <trkpt lat="51.2682300" lon="5.7658310">
    <ele>31.8</ele>
    <time>2019-09-08T08:38:09Z</time>
   </trkpt>
   <trkpt lat="51.2682900" lon="5.7657840">
    <ele>31.8</ele>
    <time>2019-09-08T08:38:10Z</time>
   </trkpt>
   <trkpt lat="51.2683490" lon="5.7657250">
    <ele>31.8</ele>
    <time>2019-09-08T08:38:11Z</time>
   </trkpt>
   <trkpt lat="51.2684080" lon="5.7656680">
    <ele>31.8</ele>
    <time>2019-09-08T08:38:12Z</time>
   </trkpt>
   <trkpt lat="51.2684660" lon="5.7656110">
    <ele>31.8</ele>
    <time>2019-09-08T08:38:13Z</time>
   </trkpt>
   <trkpt lat="51.2685250" lon="5.7655500">
    <ele>31.8</ele>
    <time>2019-09-08T08:38:14Z</time>
   </trkpt>
   <trkpt lat="51.2685790" lon="5.7654880">
    <ele>31.8</ele>
    <time>2019-09-08T08:38:15Z</time>
   </trkpt>
   <trkpt lat="51.2686390" lon="5.7654350">
    <ele>31.8</ele>
    <time>2019-09-08T08:38:16Z</time>
   </trkpt>
   <trkpt lat="51.2687020" lon="5.7653830">
    <ele>31.8</ele>
    <time>2019-09-08T08:38:17Z</time>
   </trkpt>
   <trkpt lat="51.2687600" lon="5.7653260">
    <ele>31.8</ele>
    <time>2019-09-08T08:38:18Z</time>
   </trkpt>
   <trkpt lat="51.2688220" lon="5.7652710">
    <ele>31.8</ele>
    <time>2019-09-08T08:38:19Z</time>
   </trkpt>
   <trkpt lat="51.2688800" lon="5.7652210">
    <ele>31.8</ele>
    <time>2019-09-08T08:38:20Z</time>
   </trkpt>
   <trkpt lat="51.2689400" lon="5.7651690">
    <ele>31.8</ele>
    <time>2019-09-08T08:38:21Z</time>
   </trkpt>
   <trkpt lat="51.2690000" lon="5.7650990">
    <ele>31.8</ele>
    <time>2019-09-08T08:38:22Z</time>
   </trkpt>
   <trkpt lat="51.2690610" lon="5.7650490">
    <ele>31.8</ele>
    <time>2019-09-08T08:38:23Z</time>
   </trkpt>
   <trkpt lat="51.2691170" lon="5.7649860">
    <ele>31.8</ele>
    <time>2019-09-08T08:38:24Z</time>
   </trkpt>
   <trkpt lat="51.2691820" lon="5.7649270">
    <ele>31.7</ele>
    <time>2019-09-08T08:38:25Z</time>
   </trkpt>
   <trkpt lat="51.2692400" lon="5.7648700">
    <ele>31.7</ele>
    <time>2019-09-08T08:38:26Z</time>
   </trkpt>
   <trkpt lat="51.2692940" lon="5.7648140">
    <ele>31.7</ele>
    <time>2019-09-08T08:38:27Z</time>
   </trkpt>
   <trkpt lat="51.2693520" lon="5.7647570">
    <ele>31.7</ele>
    <time>2019-09-08T08:38:28Z</time>
   </trkpt>
   <trkpt lat="51.2694110" lon="5.7646860">
    <ele>31.7</ele>
    <time>2019-09-08T08:38:29Z</time>
   </trkpt>
   <trkpt lat="51.2694820" lon="5.7646430">
    <ele>31.7</ele>
    <time>2019-09-08T08:38:30Z</time>
   </trkpt>
   <trkpt lat="51.2695390" lon="5.7645890">
    <ele>31.7</ele>
    <time>2019-09-08T08:38:31Z</time>
   </trkpt>
   <trkpt lat="51.2695900" lon="5.7645250">
    <ele>31.7</ele>
    <time>2019-09-08T08:38:32Z</time>
   </trkpt>
   <trkpt lat="51.2696520" lon="5.7644580">
    <ele>31.7</ele>
    <time>2019-09-08T08:38:33Z</time>
   </trkpt>
   <trkpt lat="51.2697140" lon="5.7643970">
    <ele>31.7</ele>
    <time>2019-09-08T08:38:34Z</time>
   </trkpt>
   <trkpt lat="51.2697740" lon="5.7643450">
    <ele>31.7</ele>
    <time>2019-09-08T08:38:35Z</time>
   </trkpt>
   <trkpt lat="51.2698320" lon="5.7642940">
    <ele>31.7</ele>
    <time>2019-09-08T08:38:36Z</time>
   </trkpt>
   <trkpt lat="51.2698910" lon="5.7642450">
    <ele>31.7</ele>
    <time>2019-09-08T08:38:37Z</time>
   </trkpt>
   <trkpt lat="51.2699520" lon="5.7641900">
    <ele>31.7</ele>
    <time>2019-09-08T08:38:38Z</time>
   </trkpt>
   <trkpt lat="51.2700100" lon="5.7641380">
    <ele>31.7</ele>
    <time>2019-09-08T08:38:39Z</time>
   </trkpt>
   <trkpt lat="51.2700580" lon="5.7640850">
    <ele>31.7</ele>
    <time>2019-09-08T08:38:40Z</time>
   </trkpt>
   <trkpt lat="51.2701180" lon="5.7640220">
    <ele>31.7</ele>
    <time>2019-09-08T08:38:41Z</time>
   </trkpt>
   <trkpt lat="51.2701750" lon="5.7639740">
    <ele>31.7</ele>
    <time>2019-09-08T08:38:42Z</time>
   </trkpt>
   <trkpt lat="51.2702340" lon="5.7639180">
    <ele>31.7</ele>
    <time>2019-09-08T08:38:43Z</time>
   </trkpt>
   <trkpt lat="51.2702900" lon="5.7638650">
    <ele>31.7</ele>
    <time>2019-09-08T08:38:44Z</time>
   </trkpt>
   <trkpt lat="51.2703530" lon="5.7638160">
    <ele>31.7</ele>
    <time>2019-09-08T08:38:45Z</time>
   </trkpt>
   <trkpt lat="51.2704120" lon="5.7637610">
    <ele>31.7</ele>
    <time>2019-09-08T08:38:46Z</time>
   </trkpt>
   <trkpt lat="51.2704800" lon="5.7637090">
    <ele>31.7</ele>
    <time>2019-09-08T08:38:47Z</time>
   </trkpt>
   <trkpt lat="51.2705370" lon="5.7636580">
    <ele>31.7</ele>
    <time>2019-09-08T08:38:48Z</time>
   </trkpt>
   <trkpt lat="51.2705910" lon="5.7636150">
    <ele>31.7</ele>
    <time>2019-09-08T08:38:49Z</time>
   </trkpt>
   <trkpt lat="51.2706500" lon="5.7635450">
    <ele>31.7</ele>
    <time>2019-09-08T08:38:50Z</time>
   </trkpt>
   <trkpt lat="51.2707150" lon="5.7634910">
    <ele>31.7</ele>
    <time>2019-09-08T08:38:51Z</time>
   </trkpt>
   <trkpt lat="51.2707780" lon="5.7634330">
    <ele>31.7</ele>
    <time>2019-09-08T08:38:52Z</time>
   </trkpt>
   <trkpt lat="51.2708370" lon="5.7633760">
    <ele>31.7</ele>
    <time>2019-09-08T08:38:53Z</time>
   </trkpt>
   <trkpt lat="51.2709040" lon="5.7633120">
    <ele>31.7</ele>
    <time>2019-09-08T08:38:54Z</time>
   </trkpt>
   <trkpt lat="51.2709610" lon="5.7632460">
    <ele>31.8</ele>
    <time>2019-09-08T08:38:55Z</time>
   </trkpt>
   <trkpt lat="51.2710190" lon="5.7631850">
    <ele>31.9</ele>
    <time>2019-09-08T08:38:56Z</time>
   </trkpt>
   <trkpt lat="51.2710660" lon="5.7631030">
    <ele>32.1</ele>
    <time>2019-09-08T08:38:57Z</time>
   </trkpt>
   <trkpt lat="51.2711180" lon="5.7630500">
    <ele>32.3</ele>
    <time>2019-09-08T08:38:58Z</time>
   </trkpt>
   <trkpt lat="51.2711750" lon="5.7629830">
    <ele>32.5</ele>
    <time>2019-09-08T08:38:59Z</time>
   </trkpt>
   <trkpt lat="51.2712380" lon="5.7629330">
    <ele>32.6</ele>
    <time>2019-09-08T08:39:00Z</time>
   </trkpt>
   <trkpt lat="51.2712990" lon="5.7628770">
    <ele>32.6</ele>
    <time>2019-09-08T08:39:01Z</time>
   </trkpt>
   <trkpt lat="51.2713640" lon="5.7628210">
    <ele>32.6</ele>
    <time>2019-09-08T08:39:02Z</time>
   </trkpt>
   <trkpt lat="51.2714240" lon="5.7627660">
    <ele>32.6</ele>
    <time>2019-09-08T08:39:03Z</time>
   </trkpt>
   <trkpt lat="51.2714880" lon="5.7627090">
    <ele>32.6</ele>
    <time>2019-09-08T08:39:04Z</time>
   </trkpt>
   <trkpt lat="51.2715480" lon="5.7626500">
    <ele>32.6</ele>
    <time>2019-09-08T08:39:05Z</time>
   </trkpt>
   <trkpt lat="51.2715860" lon="5.7625820">
    <ele>32.6</ele>
    <time>2019-09-08T08:39:06Z</time>
   </trkpt>
   <trkpt lat="51.2716460" lon="5.7625340">
    <ele>32.6</ele>
    <time>2019-09-08T08:39:07Z</time>
   </trkpt>
   <trkpt lat="51.2717090" lon="5.7624720">
    <ele>32.6</ele>
    <time>2019-09-08T08:39:08Z</time>
   </trkpt>
   <trkpt lat="51.2717620" lon="5.7624070">
    <ele>32.6</ele>
    <time>2019-09-08T08:39:09Z</time>
   </trkpt>
   <trkpt lat="51.2718210" lon="5.7623480">
    <ele>32.6</ele>
    <time>2019-09-08T08:39:10Z</time>
   </trkpt>
   <trkpt lat="51.2718840" lon="5.7623030">
    <ele>32.6</ele>
    <time>2019-09-08T08:39:11Z</time>
   </trkpt>
   <trkpt lat="51.2719450" lon="5.7622370">
    <ele>32.6</ele>
    <time>2019-09-08T08:39:12Z</time>
   </trkpt>
   <trkpt lat="51.2720060" lon="5.7621770">
    <ele>32.6</ele>
    <time>2019-09-08T08:39:13Z</time>
   </trkpt>
   <trkpt lat="51.2720690" lon="5.7621230">
    <ele>32.6</ele>
    <time>2019-09-08T08:39:14Z</time>
   </trkpt>
   <trkpt lat="51.2721240" lon="5.7620700">
    <ele>32.6</ele>
    <time>2019-09-08T08:39:15Z</time>
   </trkpt>
   <trkpt lat="51.2721840" lon="5.7620120">
    <ele>32.6</ele>
    <time>2019-09-08T08:39:16Z</time>
   </trkpt>
   <trkpt lat="51.2722410" lon="5.7619580">
    <ele>32.6</ele>
    <time>2019-09-08T08:39:17Z</time>
   </trkpt>
   <trkpt lat="51.2723060" lon="5.7619100">
    <ele>32.6</ele>
    <time>2019-09-08T08:39:18Z</time>
   </trkpt>
   <trkpt lat="51.2723670" lon="5.7618570">
    <ele>32.5</ele>
    <time>2019-09-08T08:39:19Z</time>
   </trkpt>
   <trkpt lat="51.2724360" lon="5.7618200">
    <ele>32.5</ele>
    <time>2019-09-08T08:39:20Z</time>
   </trkpt>
   <trkpt lat="51.2724900" lon="5.7617600">
    <ele>32.5</ele>
    <time>2019-09-08T08:39:21Z</time>
   </trkpt>
   <trkpt lat="51.2725680" lon="5.7617190">
    <ele>32.5</ele>
    <time>2019-09-08T08:39:22Z</time>
   </trkpt>
   <trkpt lat="51.2726350" lon="5.7616650">
    <ele>32.4</ele>
    <time>2019-09-08T08:39:23Z</time>
   </trkpt>
   <trkpt lat="51.2726880" lon="5.7616030">
    <ele>32.4</ele>
    <time>2019-09-08T08:39:24Z</time>
   </trkpt>
   <trkpt lat="51.2727440" lon="5.7615400">
    <ele>32.3</ele>
    <time>2019-09-08T08:39:25Z</time>
   </trkpt>
   <trkpt lat="51.2728000" lon="5.7614760">
    <ele>32.2</ele>
    <time>2019-09-08T08:39:26Z</time>
   </trkpt>
   <trkpt lat="51.2728520" lon="5.7614110">
    <ele>32.1</ele>
    <time>2019-09-08T08:39:27Z</time>
   </trkpt>
   <trkpt lat="51.2729150" lon="5.7613570">
    <ele>32.0</ele>
    <time>2019-09-08T08:39:28Z</time>
   </trkpt>
   <trkpt lat="51.2729730" lon="5.7612850">
    <ele>31.9</ele>
    <time>2019-09-08T08:39:29Z</time>
   </trkpt>
   <trkpt lat="51.2730200" lon="5.7611950">
    <ele>31.7</ele>
    <time>2019-09-08T08:39:30Z</time>
   </trkpt>
   <trkpt lat="51.2730820" lon="5.7611250">
    <ele>31.6</ele>
    <time>2019-09-08T08:39:31Z</time>
   </trkpt>
   <trkpt lat="51.2731260" lon="5.7610570">
    <ele>31.5</ele>
    <time>2019-09-08T08:39:32Z</time>
   </trkpt>
   <trkpt lat="51.2731780" lon="5.7609890">
    <ele>31.4</ele>
    <time>2019-09-08T08:39:33Z</time>
   </trkpt>
   <trkpt lat="51.2732190" lon="5.7609200">
    <ele>31.2</ele>
    <time>2019-09-08T08:39:34Z</time>
   </trkpt>
   <trkpt lat="51.2732860" lon="5.7608590">
    <ele>31.0</ele>
    <time>2019-09-08T08:39:35Z</time>
   </trkpt>
   <trkpt lat="51.2733360" lon="5.7607740">
    <ele>30.9</ele>
    <time>2019-09-08T08:39:36Z</time>
   </trkpt>
   <trkpt lat="51.2733830" lon="5.7607020">
    <ele>30.7</ele>
    <time>2019-09-08T08:39:37Z</time>
   </trkpt>
   <trkpt lat="51.2734260" lon="5.7606190">
    <ele>30.6</ele>
    <time>2019-09-08T08:39:38Z</time>
   </trkpt>
   <trkpt lat="51.2734700" lon="5.7605370">
    <ele>30.7</ele>
    <time>2019-09-08T08:39:39Z</time>
   </trkpt>
   <trkpt lat="51.2735180" lon="5.7604580">
    <ele>30.7</ele>
    <time>2019-09-08T08:39:40Z</time>
   </trkpt>
   <trkpt lat="51.2735780" lon="5.7603720">
    <ele>30.8</ele>
    <time>2019-09-08T08:39:41Z</time>
   </trkpt>
   <trkpt lat="51.2736240" lon="5.7602870">
    <ele>30.8</ele>
    <time>2019-09-08T08:39:42Z</time>
   </trkpt>
   <trkpt lat="51.2736850" lon="5.7601990">
    <ele>30.8</ele>
    <time>2019-09-08T08:39:43Z</time>
   </trkpt>
   <trkpt lat="51.2737210" lon="5.7601120">
    <ele>30.9</ele>
    <time>2019-09-08T08:39:44Z</time>
   </trkpt>
   <trkpt lat="51.2737610" lon="5.7600240">
    <ele>30.9</ele>
    <time>2019-09-08T08:39:45Z</time>
   </trkpt>
   <trkpt lat="51.2738000" lon="5.7599220">
    <ele>31.0</ele>
    <time>2019-09-08T08:39:46Z</time>
   </trkpt>
   <trkpt lat="51.2738220" lon="5.7598380">
    <ele>31.0</ele>
    <time>2019-09-08T08:39:47Z</time>
   </trkpt>
   <trkpt lat="51.2738550" lon="5.7597550">
    <ele>31.0</ele>
    <time>2019-09-08T08:39:48Z</time>
   </trkpt>
   <trkpt lat="51.2738960" lon="5.7596590">
    <ele>31.1</ele>
    <time>2019-09-08T08:39:49Z</time>
   </trkpt>
   <trkpt lat="51.2739300" lon="5.7595590">
    <ele>31.1</ele>
    <time>2019-09-08T08:39:50Z</time>
   </trkpt>
   <trkpt lat="51.2739640" lon="5.7594710">
    <ele>31.2</ele>
    <time>2019-09-08T08:39:51Z</time>
   </trkpt>
   <trkpt lat="51.2740010" lon="5.7593760">
    <ele>31.2</ele>
    <time>2019-09-08T08:39:52Z</time>
   </trkpt>
   <trkpt lat="51.2740390" lon="5.7592950">
    <ele>31.2</ele>
    <time>2019-09-08T08:39:53Z</time>
   </trkpt>
   <trkpt lat="51.2740790" lon="5.7592030">
    <ele>31.3</ele>
    <time>2019-09-08T08:39:54Z</time>
   </trkpt>
   <trkpt lat="51.2741100" lon="5.7591160">
    <ele>31.3</ele>
    <time>2019-09-08T08:39:55Z</time>
   </trkpt>
   <trkpt lat="51.2741480" lon="5.7590130">
    <ele>31.4</ele>
    <time>2019-09-08T08:39:56Z</time>
   </trkpt>
   <trkpt lat="51.2741810" lon="5.7589140">
    <ele>31.4</ele>
    <time>2019-09-08T08:39:57Z</time>
   </trkpt>
   <trkpt lat="51.2742140" lon="5.7588050">
    <ele>31.5</ele>
    <time>2019-09-08T08:39:58Z</time>
   </trkpt>
   <trkpt lat="51.2742410" lon="5.7587100">
    <ele>31.5</ele>
    <time>2019-09-08T08:39:59Z</time>
   </trkpt>
   <trkpt lat="51.2742830" lon="5.7586150">
    <ele>31.6</ele>
    <time>2019-09-08T08:40:00Z</time>
   </trkpt>
   <trkpt lat="51.2743130" lon="5.7585230">
    <ele>31.6</ele>
    <time>2019-09-08T08:40:01Z</time>
   </trkpt>
   <trkpt lat="51.2743400" lon="5.7584170">
    <ele>31.7</ele>
    <time>2019-09-08T08:40:02Z</time>
   </trkpt>
   <trkpt lat="51.2743610" lon="5.7583130">
    <ele>31.8</ele>
    <time>2019-09-08T08:40:03Z</time>
   </trkpt>
   <trkpt lat="51.2743810" lon="5.7582100">
    <ele>31.9</ele>
    <time>2019-09-08T08:40:04Z</time>
   </trkpt>
   <trkpt lat="51.2744030" lon="5.7580930">
    <ele>32.0</ele>
    <time>2019-09-08T08:40:05Z</time>
   </trkpt>
   <trkpt lat="51.2744070" lon="5.7579970">
    <ele>32.0</ele>
    <time>2019-09-08T08:40:06Z</time>
   </trkpt>
   <trkpt lat="51.2744100" lon="5.7578920">
    <ele>32.1</ele>
    <time>2019-09-08T08:40:07Z</time>
   </trkpt>
   <trkpt lat="51.2744090" lon="5.7577840">
    <ele>32.2</ele>
    <time>2019-09-08T08:40:08Z</time>
   </trkpt>
   <trkpt lat="51.2744010" lon="5.7576710">
    <ele>32.4</ele>
    <time>2019-09-08T08:40:09Z</time>
   </trkpt>
   <trkpt lat="51.2743980" lon="5.7575620">
    <ele>32.5</ele>
    <time>2019-09-08T08:40:10Z</time>
   </trkpt>
   <trkpt lat="51.2743800" lon="5.7574590">
    <ele>32.6</ele>
    <time>2019-09-08T08:40:11Z</time>
   </trkpt>
   <trkpt lat="51.2743610" lon="5.7573590">
    <ele>32.7</ele>
    <time>2019-09-08T08:40:12Z</time>
   </trkpt>
   <trkpt lat="51.2743260" lon="5.7572750">
    <ele>32.8</ele>
    <time>2019-09-08T08:40:13Z</time>
   </trkpt>
   <trkpt lat="51.2743040" lon="5.7571740">
    <ele>32.9</ele>
    <time>2019-09-08T08:40:14Z</time>
   </trkpt>
   <trkpt lat="51.2742720" lon="5.7570750">
    <ele>33.0</ele>
    <time>2019-09-08T08:40:15Z</time>
   </trkpt>
   <trkpt lat="51.2742500" lon="5.7569670">
    <ele>33.1</ele>
    <time>2019-09-08T08:40:16Z</time>
   </trkpt>
   <trkpt lat="51.2742230" lon="5.7568640">
    <ele>33.2</ele>
    <time>2019-09-08T08:40:17Z</time>
   </trkpt>
   <trkpt lat="51.2741970" lon="5.7567700">
    <ele>33.3</ele>
    <time>2019-09-08T08:40:18Z</time>
   </trkpt>
   <trkpt lat="51.2741610" lon="5.7566780">
    <ele>33.3</ele>
    <time>2019-09-08T08:40:19Z</time>
   </trkpt>
   <trkpt lat="51.2741410" lon="5.7565780">
    <ele>33.4</ele>
    <time>2019-09-08T08:40:20Z</time>
   </trkpt>
   <trkpt lat="51.2741190" lon="5.7564720">
    <ele>33.5</ele>
    <time>2019-09-08T08:40:21Z</time>
   </trkpt>
   <trkpt lat="51.2740910" lon="5.7563720">
    <ele>33.6</ele>
    <time>2019-09-08T08:40:22Z</time>
   </trkpt>
   <trkpt lat="51.2740710" lon="5.7562660">
    <ele>33.7</ele>
    <time>2019-09-08T08:40:23Z</time>
   </trkpt>
   <trkpt lat="51.2740480" lon="5.7561640">
    <ele>33.7</ele>
    <time>2019-09-08T08:40:24Z</time>
   </trkpt>
   <trkpt lat="51.2740240" lon="5.7560550">
    <ele>33.8</ele>
    <time>2019-09-08T08:40:25Z</time>
   </trkpt>
   <trkpt lat="51.2739960" lon="5.7559610">
    <ele>33.8</ele>
    <time>2019-09-08T08:40:26Z</time>
   </trkpt>
   <trkpt lat="51.2739670" lon="5.7558600">
    <ele>33.9</ele>
    <time>2019-09-08T08:40:27Z</time>
   </trkpt>
   <trkpt lat="51.2739420" lon="5.7557630">
    <ele>33.9</ele>
    <time>2019-09-08T08:40:28Z</time>
   </trkpt>
   <trkpt lat="51.2739190" lon="5.7556630">
    <ele>33.9</ele>
    <time>2019-09-08T08:40:29Z</time>
   </trkpt>
   <trkpt lat="51.2738910" lon="5.7555660">
    <ele>33.9</ele>
    <time>2019-09-08T08:40:30Z</time>
   </trkpt>
   <trkpt lat="51.2738660" lon="5.7554690">
    <ele>34.0</ele>
    <time>2019-09-08T08:40:31Z</time>
   </trkpt>
   <trkpt lat="51.2738400" lon="5.7553680">
    <ele>34.0</ele>
    <time>2019-09-08T08:40:32Z</time>
   </trkpt>
   <trkpt lat="51.2738160" lon="5.7552590">
    <ele>34.0</ele>
    <time>2019-09-08T08:40:33Z</time>
   </trkpt>
   <trkpt lat="51.2737920" lon="5.7551440">
    <ele>34.0</ele>
    <time>2019-09-08T08:40:34Z</time>
   </trkpt>
   <trkpt lat="51.2737630" lon="5.7550360">
    <ele>34.0</ele>
    <time>2019-09-08T08:40:35Z</time>
   </trkpt>
   <trkpt lat="51.2737350" lon="5.7549310">
    <ele>34.1</ele>
    <time>2019-09-08T08:40:36Z</time>
   </trkpt>
   <trkpt lat="51.2737060" lon="5.7548280">
    <ele>34.1</ele>
    <time>2019-09-08T08:40:37Z</time>
   </trkpt>
   <trkpt lat="51.2736740" lon="5.7547370">
    <ele>34.1</ele>
    <time>2019-09-08T08:40:38Z</time>
   </trkpt>
   <trkpt lat="51.2736560" lon="5.7546240">
    <ele>34.1</ele>
    <time>2019-09-08T08:40:39Z</time>
   </trkpt>
   <trkpt lat="51.2736300" lon="5.7545160">
    <ele>34.2</ele>
    <time>2019-09-08T08:40:40Z</time>
   </trkpt>
   <trkpt lat="51.2736040" lon="5.7544170">
    <ele>34.2</ele>
    <time>2019-09-08T08:40:41Z</time>
   </trkpt>
   <trkpt lat="51.2735820" lon="5.7543110">
    <ele>34.2</ele>
    <time>2019-09-08T08:40:42Z</time>
   </trkpt>
   <trkpt lat="51.2735600" lon="5.7542020">
    <ele>34.1</ele>
    <time>2019-09-08T08:40:43Z</time>
   </trkpt>
   <trkpt lat="51.2735260" lon="5.7540990">
    <ele>34.1</ele>
    <time>2019-09-08T08:40:44Z</time>
   </trkpt>
   <trkpt lat="51.2734980" lon="5.7539860">
    <ele>34.0</ele>
    <time>2019-09-08T08:40:45Z</time>
   </trkpt>
   <trkpt lat="51.2734700" lon="5.7538830">
    <ele>33.9</ele>
    <time>2019-09-08T08:40:46Z</time>
   </trkpt>
   <trkpt lat="51.2734470" lon="5.7537700">
    <ele>33.8</ele>
    <time>2019-09-08T08:40:47Z</time>
   </trkpt>
   <trkpt lat="51.2734190" lon="5.7536670">
    <ele>33.7</ele>
    <time>2019-09-08T08:40:48Z</time>
   </trkpt>
   <trkpt lat="51.2733940" lon="5.7535720">
    <ele>33.6</ele>
    <time>2019-09-08T08:40:49Z</time>
   </trkpt>
   <trkpt lat="51.2733740" lon="5.7534660">
    <ele>33.6</ele>
    <time>2019-09-08T08:40:50Z</time>
   </trkpt>
   <trkpt lat="51.2733510" lon="5.7533620">
    <ele>33.5</ele>
    <time>2019-09-08T08:40:51Z</time>
   </trkpt>
   <trkpt lat="51.2733210" lon="5.7532540">
    <ele>33.4</ele>
    <time>2019-09-08T08:40:52Z</time>
   </trkpt>
   <trkpt lat="51.2732970" lon="5.7531490">
    <ele>33.3</ele>
    <time>2019-09-08T08:40:53Z</time>
   </trkpt>
   <trkpt lat="51.2732670" lon="5.7530430">
    <ele>33.2</ele>
    <time>2019-09-08T08:40:54Z</time>
   </trkpt>
   <trkpt lat="51.2732410" lon="5.7529470">
    <ele>33.0</ele>
    <time>2019-09-08T08:40:55Z</time>
   </trkpt>
   <trkpt lat="51.2732160" lon="5.7528480">
    <ele>32.9</ele>
    <time>2019-09-08T08:40:56Z</time>
   </trkpt>
   <trkpt lat="51.2731880" lon="5.7527400">
    <ele>32.8</ele>
    <time>2019-09-08T08:40:57Z</time>
   </trkpt>
   <trkpt lat="51.2731590" lon="5.7526420">
    <ele>32.8</ele>
    <time>2019-09-08T08:40:58Z</time>
   </trkpt>
   <trkpt lat="51.2731340" lon="5.7525480">
    <ele>32.7</ele>
    <time>2019-09-08T08:40:59Z</time>
   </trkpt>
   <trkpt lat="51.2731110" lon="5.7524590">
    <ele>32.7</ele>
    <time>2019-09-08T08:41:00Z</time>
   </trkpt>
   <trkpt lat="51.2730910" lon="5.7523650">
    <ele>32.7</ele>
    <time>2019-09-08T08:41:01Z</time>
   </trkpt>
   <trkpt lat="51.2730730" lon="5.7522670">
    <ele>32.6</ele>
    <time>2019-09-08T08:41:02Z</time>
   </trkpt>
   <trkpt lat="51.2730530" lon="5.7521780">
    <ele>32.6</ele>
    <time>2019-09-08T08:41:03Z</time>
   </trkpt>
   <trkpt lat="51.2730330" lon="5.7520800">
    <ele>32.7</ele>
    <time>2019-09-08T08:41:04Z</time>
   </trkpt>
   <trkpt lat="51.2730120" lon="5.7519790">
    <ele>32.7</ele>
    <time>2019-09-08T08:41:05Z</time>
   </trkpt>
   <trkpt lat="51.2729920" lon="5.7518870">
    <ele>32.7</ele>
    <time>2019-09-08T08:41:06Z</time>
   </trkpt>
   <trkpt lat="51.2729750" lon="5.7517910">
    <ele>32.7</ele>
    <time>2019-09-08T08:41:07Z</time>
   </trkpt>
   <trkpt lat="51.2729590" lon="5.7516930">
    <ele>32.8</ele>
    <time>2019-09-08T08:41:08Z</time>
   </trkpt>
   <trkpt lat="51.2729490" lon="5.7515970">
    <ele>32.8</ele>
    <time>2019-09-08T08:41:09Z</time>
   </trkpt>
   <trkpt lat="51.2729500" lon="5.7514950">
    <ele>32.8</ele>
    <time>2019-09-08T08:41:10Z</time>
   </trkpt>
   <trkpt lat="51.2729340" lon="5.7513910">
    <ele>32.9</ele>
    <time>2019-09-08T08:41:11Z</time>
   </trkpt>
   <trkpt lat="51.2729160" lon="5.7512840">
    <ele>33.0</ele>
    <time>2019-09-08T08:41:12Z</time>
   </trkpt>
   <trkpt lat="51.2729000" lon="5.7511700">
    <ele>33.1</ele>
    <time>2019-09-08T08:41:13Z</time>
   </trkpt>
   <trkpt lat="51.2728790" lon="5.7510730">
    <ele>33.1</ele>
    <time>2019-09-08T08:41:14Z</time>
   </trkpt>
   <trkpt lat="51.2728570" lon="5.7509720">
    <ele>33.1</ele>
    <time>2019-09-08T08:41:15Z</time>
   </trkpt>
   <trkpt lat="51.2728300" lon="5.7508790">
    <ele>33.0</ele>
    <time>2019-09-08T08:41:16Z</time>
   </trkpt>
   <trkpt lat="51.2728000" lon="5.7507620">
    <ele>33.0</ele>
    <time>2019-09-08T08:41:17Z</time>
   </trkpt>
   <trkpt lat="51.2727840" lon="5.7506240">
    <ele>33.0</ele>
    <time>2019-09-08T08:41:18Z</time>
   </trkpt>
   <trkpt lat="51.2727660" lon="5.7505070">
    <ele>32.9</ele>
    <time>2019-09-08T08:41:19Z</time>
   </trkpt>
   <trkpt lat="51.2727370" lon="5.7504380">
    <ele>32.8</ele>
    <time>2019-09-08T08:41:20Z</time>
   </trkpt>
   <trkpt lat="51.2727080" lon="5.7503730">
    <ele>32.9</ele>
    <time>2019-09-08T08:41:21Z</time>
   </trkpt>
   <trkpt lat="51.2726800" lon="5.7502820">
    <ele>32.8</ele>
    <time>2019-09-08T08:41:22Z</time>
   </trkpt>
   <trkpt lat="51.2726570" lon="5.7501970">
    <ele>32.9</ele>
    <time>2019-09-08T08:41:23Z</time>
   </trkpt>
   <trkpt lat="51.2726360" lon="5.7500790">
    <ele>33.1</ele>
    <time>2019-09-08T08:41:24Z</time>
   </trkpt>
   <trkpt lat="51.2726130" lon="5.7499910">
    <ele>33.3</ele>
    <time>2019-09-08T08:41:25Z</time>
   </trkpt>
   <trkpt lat="51.2725890" lon="5.7499050">
    <ele>33.5</ele>
    <time>2019-09-08T08:41:26Z</time>
   </trkpt>
   <trkpt lat="51.2725670" lon="5.7498150">
    <ele>33.7</ele>
    <time>2019-09-08T08:41:27Z</time>
   </trkpt>
   <trkpt lat="51.2725320" lon="5.7497450">
    <ele>33.8</ele>
    <time>2019-09-08T08:41:28Z</time>
   </trkpt>
   <trkpt lat="51.2724830" lon="5.7497080">
    <ele>33.9</ele>
    <time>2019-09-08T08:41:29Z</time>
   </trkpt>
   <trkpt lat="51.2724310" lon="5.7497020">
    <ele>34.0</ele>
    <time>2019-09-08T08:41:30Z</time>
   </trkpt>
   <trkpt lat="51.2723800" lon="5.7497210">
    <ele>34.0</ele>
    <time>2019-09-08T08:41:31Z</time>
   </trkpt>
   <trkpt lat="51.2723170" lon="5.7497660">
    <ele>34.0</ele>
    <time>2019-09-08T08:41:32Z</time>
   </trkpt>
   <trkpt lat="51.2722450" lon="5.7497800">
    <ele>34.1</ele>
    <time>2019-09-08T08:41:33Z</time>
   </trkpt>
   <trkpt lat="51.2721720" lon="5.7498270">
    <ele>33.9</ele>
    <time>2019-09-08T08:41:34Z</time>
   </trkpt>
   <trkpt lat="51.2721100" lon="5.7498710">
    <ele>33.7</ele>
    <time>2019-09-08T08:41:35Z</time>
   </trkpt>
   <trkpt lat="51.2720280" lon="5.7499180">
    <ele>33.5</ele>
    <time>2019-09-08T08:41:36Z</time>
   </trkpt>
   <trkpt lat="51.2719550" lon="5.7499440">
    <ele>33.2</ele>
    <time>2019-09-08T08:41:37Z</time>
   </trkpt>
   <trkpt lat="51.2718710" lon="5.7499940">
    <ele>33.1</ele>
    <time>2019-09-08T08:41:38Z</time>
   </trkpt>
   <trkpt lat="51.2718310" lon="5.7500390">
    <ele>33.0</ele>
    <time>2019-09-08T08:41:39Z</time>
   </trkpt>
   <trkpt lat="51.2717660" lon="5.7500740">
    <ele>32.8</ele>
    <time>2019-09-08T08:41:40Z</time>
   </trkpt>
   <trkpt lat="51.2717040" lon="5.7501230">
    <ele>32.7</ele>
    <time>2019-09-08T08:41:41Z</time>
   </trkpt>
   <trkpt lat="51.2716210" lon="5.7501630">
    <ele>32.6</ele>
    <time>2019-09-08T08:41:42Z</time>
   </trkpt>
   <trkpt lat="51.2715640" lon="5.7501950">
    <ele>32.5</ele>
    <time>2019-09-08T08:41:43Z</time>
   </trkpt>
   <trkpt lat="51.2715000" lon="5.7502350">
    <ele>32.5</ele>
    <time>2019-09-08T08:41:44Z</time>
   </trkpt>
   <trkpt lat="51.2714400" lon="5.7502710">
    <ele>32.4</ele>
    <time>2019-09-08T08:41:45Z</time>
   </trkpt>
   <trkpt lat="51.2713580" lon="5.7503160">
    <ele>32.4</ele>
    <time>2019-09-08T08:41:46Z</time>
   </trkpt>
   <trkpt lat="51.2712810" lon="5.7503530">
    <ele>32.4</ele>
    <time>2019-09-08T08:41:47Z</time>
   </trkpt>
   <trkpt lat="51.2712170" lon="5.7503740">
    <ele>32.4</ele>
    <time>2019-09-08T08:41:48Z</time>
   </trkpt>
   <trkpt lat="51.2711330" lon="5.7504170">
    <ele>32.4</ele>
    <time>2019-09-08T08:41:49Z</time>
   </trkpt>
   <trkpt lat="51.2710560" lon="5.7504600">
    <ele>32.4</ele>
    <time>2019-09-08T08:41:50Z</time>
   </trkpt>
   <trkpt lat="51.2709910" lon="5.7504900">
    <ele>32.5</ele>
    <time>2019-09-08T08:41:51Z</time>
   </trkpt>
   <trkpt lat="51.2709260" lon="5.7505210">
    <ele>32.5</ele>
    <time>2019-09-08T08:41:52Z</time>
   </trkpt>
   <trkpt lat="51.2708620" lon="5.7505680">
    <ele>32.5</ele>
    <time>2019-09-08T08:41:53Z</time>
   </trkpt>
   <trkpt lat="51.2707870" lon="5.7506060">
    <ele>32.6</ele>
    <time>2019-09-08T08:41:54Z</time>
   </trkpt>
   <trkpt lat="51.2707280" lon="5.7506340">
    <ele>32.6</ele>
    <time>2019-09-08T08:41:55Z</time>
   </trkpt>
   <trkpt lat="51.2706680" lon="5.7506630">
    <ele>32.6</ele>
    <time>2019-09-08T08:41:56Z</time>
   </trkpt>
   <trkpt lat="51.2706030" lon="5.7506880">
    <ele>32.6</ele>
    <time>2019-09-08T08:41:57Z</time>
   </trkpt>
   <trkpt lat="51.2705300" lon="5.7507180">
    <ele>32.6</ele>
    <time>2019-09-08T08:41:58Z</time>
   </trkpt>
   <trkpt lat="51.2704610" lon="5.7507320">
    <ele>32.5</ele>
    <time>2019-09-08T08:41:59Z</time>
   </trkpt>
   <trkpt lat="51.2703820" lon="5.7507660">
    <ele>32.5</ele>
    <time>2019-09-08T08:42:00Z</time>
   </trkpt>
   <trkpt lat="51.2703130" lon="5.7507920">
    <ele>32.4</ele>
    <time>2019-09-08T08:42:01Z</time>
   </trkpt>
   <trkpt lat="51.2702350" lon="5.7508090">
    <ele>32.4</ele>
    <time>2019-09-08T08:42:02Z</time>
   </trkpt>
   <trkpt lat="51.2701630" lon="5.7508280">
    <ele>32.3</ele>
    <time>2019-09-08T08:42:03Z</time>
   </trkpt>
   <trkpt lat="51.2700860" lon="5.7508390">
    <ele>32.3</ele>
    <time>2019-09-08T08:42:04Z</time>
   </trkpt>
   <trkpt lat="51.2700040" lon="5.7508430">
    <ele>32.4</ele>
    <time>2019-09-08T08:42:05Z</time>
   </trkpt>
   <trkpt lat="51.2699380" lon="5.7508380">
    <ele>32.4</ele>
    <time>2019-09-08T08:42:06Z</time>
   </trkpt>
   <trkpt lat="51.2698640" lon="5.7508320">
    <ele>32.5</ele>
    <time>2019-09-08T08:42:07Z</time>
   </trkpt>
   <trkpt lat="51.2698040" lon="5.7508420">
    <ele>32.6</ele>
    <time>2019-09-08T08:42:08Z</time>
   </trkpt>
   <trkpt lat="51.2697410" lon="5.7508480">
    <ele>32.7</ele>
    <time>2019-09-08T08:42:09Z</time>
   </trkpt>
   <trkpt lat="51.2696590" lon="5.7508530">
    <ele>32.9</ele>
    <time>2019-09-08T08:42:10Z</time>
   </trkpt>
   <trkpt lat="51.2695910" lon="5.7508590">
    <ele>33.0</ele>
    <time>2019-09-08T08:42:11Z</time>
   </trkpt>
   <trkpt lat="51.2695190" lon="5.7508760">
    <ele>33.2</ele>
    <time>2019-09-08T08:42:12Z</time>
   </trkpt>
   <trkpt lat="51.2694510" lon="5.7508740">
    <ele>33.4</ele>
    <time>2019-09-08T08:42:13Z</time>
   </trkpt>
   <trkpt lat="51.2693780" lon="5.7508790">
    <ele>33.5</ele>
    <time>2019-09-08T08:42:14Z</time>
   </trkpt>
   <trkpt lat="51.2693090" lon="5.7508770">
    <ele>33.6</ele>
    <time>2019-09-08T08:42:15Z</time>
   </trkpt>
   <trkpt lat="51.2692420" lon="5.7508750">
    <ele>33.7</ele>
    <time>2019-09-08T08:42:16Z</time>
   </trkpt>
   <trkpt lat="51.2691850" lon="5.7508690">
    <ele>33.8</ele>
    <time>2019-09-08T08:42:17Z</time>
   </trkpt>
   <trkpt lat="51.2691200" lon="5.7508410">
    <ele>33.8</ele>
    <time>2019-09-08T08:42:18Z</time>
   </trkpt>
   <trkpt lat="51.2690710" lon="5.7507860">
    <ele>33.7</ele>
    <time>2019-09-08T08:42:19Z</time>
   </trkpt>
   <trkpt lat="51.2690360" lon="5.7506980">
    <ele>33.5</ele>
    <time>2019-09-08T08:42:20Z</time>
   </trkpt>
   <trkpt lat="51.2690080" lon="5.7506010">
    <ele>33.5</ele>
    <time>2019-09-08T08:42:21Z</time>
   </trkpt>
   <trkpt lat="51.2689630" lon="5.7504910">
    <ele>33.4</ele>
    <time>2019-09-08T08:42:22Z</time>
   </trkpt>
   <trkpt lat="51.2689160" lon="5.7504040">
    <ele>33.4</ele>
    <time>2019-09-08T08:42:23Z</time>
   </trkpt>
   <trkpt lat="51.2688670" lon="5.7503190">
    <ele>33.4</ele>
    <time>2019-09-08T08:42:24Z</time>
   </trkpt>
   <trkpt lat="51.2688190" lon="5.7502260">
    <ele>33.4</ele>
    <time>2019-09-08T08:42:25Z</time>
   </trkpt>
   <trkpt lat="51.2687730" lon="5.7501440">
    <ele>33.4</ele>
    <time>2019-09-08T08:42:26Z</time>
   </trkpt>
   <trkpt lat="51.2687270" lon="5.7500660">
    <ele>33.4</ele>
    <time>2019-09-08T08:42:27Z</time>
   </trkpt>
   <trkpt lat="51.2686780" lon="5.7499800">
    <ele>33.3</ele>
    <time>2019-09-08T08:42:28Z</time>
   </trkpt>
   <trkpt lat="51.2686320" lon="5.7498940">
    <ele>33.3</ele>
    <time>2019-09-08T08:42:29Z</time>
   </trkpt>
   <trkpt lat="51.2685700" lon="5.7498030">
    <ele>33.2</ele>
    <time>2019-09-08T08:42:30Z</time>
   </trkpt>
   <trkpt lat="51.2685220" lon="5.7497260">
    <ele>33.2</ele>
    <time>2019-09-08T08:42:31Z</time>
   </trkpt>
   <trkpt lat="51.2684720" lon="5.7496510">
    <ele>33.2</ele>
    <time>2019-09-08T08:42:32Z</time>
   </trkpt>
   <trkpt lat="51.2684240" lon="5.7495690">
    <ele>33.2</ele>
    <time>2019-09-08T08:42:33Z</time>
   </trkpt>
   <trkpt lat="51.2683800" lon="5.7495010">
    <ele>33.1</ele>
    <time>2019-09-08T08:42:34Z</time>
   </trkpt>
   <trkpt lat="51.2683370" lon="5.7494050">
    <ele>33.1</ele>
    <time>2019-09-08T08:42:35Z</time>
   </trkpt>
   <trkpt lat="51.2682860" lon="5.7493280">
    <ele>33.0</ele>
    <time>2019-09-08T08:42:36Z</time>
   </trkpt>
   <trkpt lat="51.2682300" lon="5.7492590">
    <ele>33.0</ele>
    <time>2019-09-08T08:42:37Z</time>
   </trkpt>
   <trkpt lat="51.2681720" lon="5.7491890">
    <ele>32.9</ele>
    <time>2019-09-08T08:42:38Z</time>
   </trkpt>
   <trkpt lat="51.2681100" lon="5.7491250">
    <ele>32.8</ele>
    <time>2019-09-08T08:42:39Z</time>
   </trkpt>
   <trkpt lat="51.2680480" lon="5.7490630">
    <ele>32.6</ele>
    <time>2019-09-08T08:42:40Z</time>
   </trkpt>
   <trkpt lat="51.2679770" lon="5.7490100">
    <ele>32.5</ele>
    <time>2019-09-08T08:42:41Z</time>
   </trkpt>
   <trkpt lat="51.2679110" lon="5.7489720">
    <ele>32.4</ele>
    <time>2019-09-08T08:42:42Z</time>
   </trkpt>
   <trkpt lat="51.2678370" lon="5.7489090">
    <ele>32.3</ele>
    <time>2019-09-08T08:42:43Z</time>
   </trkpt>
   <trkpt lat="51.2677800" lon="5.7488900">
    <ele>32.3</ele>
    <time>2019-09-08T08:42:44Z</time>
   </trkpt>
   <trkpt lat="51.2677190" lon="5.7488750">
    <ele>32.3</ele>
    <time>2019-09-08T08:42:45Z</time>
   </trkpt>
   <trkpt lat="51.2676550" lon="5.7488210">
    <ele>32.3</ele>
    <time>2019-09-08T08:42:46Z</time>
   </trkpt>
   <trkpt lat="51.2675820" lon="5.7487760">
    <ele>32.3</ele>
    <time>2019-09-08T08:42:47Z</time>
   </trkpt>
   <trkpt lat="51.2675180" lon="5.7487280">
    <ele>32.3</ele>
    <time>2019-09-08T08:42:48Z</time>
   </trkpt>
   <trkpt lat="51.2674490" lon="5.7486860">
    <ele>32.3</ele>
    <time>2019-09-08T08:42:49Z</time>
   </trkpt>
   <trkpt lat="51.2673870" lon="5.7486390">
    <ele>32.3</ele>
    <time>2019-09-08T08:42:50Z</time>
   </trkpt>
   <trkpt lat="51.2673020" lon="5.7486190">
    <ele>32.2</ele>
    <time>2019-09-08T08:42:51Z</time>
   </trkpt>
   <trkpt lat="51.2672370" lon="5.7485740">
    <ele>32.2</ele>
    <time>2019-09-08T08:42:52Z</time>
   </trkpt>
   <trkpt lat="51.2671670" lon="5.7485290">
    <ele>32.2</ele>
    <time>2019-09-08T08:42:53Z</time>
   </trkpt>
   <trkpt lat="51.2670990" lon="5.7484940">
    <ele>32.2</ele>
    <time>2019-09-08T08:42:54Z</time>
   </trkpt>
   <trkpt lat="51.2670260" lon="5.7484490">
    <ele>32.2</ele>
    <time>2019-09-08T08:42:55Z</time>
   </trkpt>
   <trkpt lat="51.2669560" lon="5.7484000">
    <ele>32.2</ele>
    <time>2019-09-08T08:42:56Z</time>
   </trkpt>
   <trkpt lat="51.2668940" lon="5.7483540">
    <ele>32.2</ele>
    <time>2019-09-08T08:42:57Z</time>
   </trkpt>
   <trkpt lat="51.2668330" lon="5.7482950">
    <ele>32.2</ele>
    <time>2019-09-08T08:42:58Z</time>
   </trkpt>
   <trkpt lat="51.2667680" lon="5.7482310">
    <ele>32.2</ele>
    <time>2019-09-08T08:42:59Z</time>
   </trkpt>
   <trkpt lat="51.2667140" lon="5.7481510">
    <ele>32.1</ele>
    <time>2019-09-08T08:43:00Z</time>
   </trkpt>
   <trkpt lat="51.2666720" lon="5.7481020">
    <ele>32.1</ele>
    <time>2019-09-08T08:43:01Z</time>
   </trkpt>
   <trkpt lat="51.2666040" lon="5.7480180">
    <ele>32.1</ele>
    <time>2019-09-08T08:43:02Z</time>
   </trkpt>
   <trkpt lat="51.2665530" lon="5.7479430">
    <ele>32.1</ele>
    <time>2019-09-08T08:43:03Z</time>
   </trkpt>
   <trkpt lat="51.2665030" lon="5.7478670">
    <ele>32.1</ele>
    <time>2019-09-08T08:43:04Z</time>
   </trkpt>
   <trkpt lat="51.2664510" lon="5.7477950">
    <ele>32.1</ele>
    <time>2019-09-08T08:43:05Z</time>
   </trkpt>
   <trkpt lat="51.2663930" lon="5.7477220">
    <ele>32.1</ele>
    <time>2019-09-08T08:43:06Z</time>
   </trkpt>
   <trkpt lat="51.2663080" lon="5.7476550">
    <ele>32.1</ele>
    <time>2019-09-08T08:43:07Z</time>
   </trkpt>
   <trkpt lat="51.2662440" lon="5.7475890">
    <ele>32.1</ele>
    <time>2019-09-08T08:43:08Z</time>
   </trkpt>
   <trkpt lat="51.2661770" lon="5.7475490">
    <ele>32.1</ele>
    <time>2019-09-08T08:43:09Z</time>
   </trkpt>
   <trkpt lat="51.2661050" lon="5.7475240">
    <ele>32.1</ele>
    <time>2019-09-08T08:43:10Z</time>
   </trkpt>
   <trkpt lat="51.2660230" lon="5.7475420">
    <ele>32.0</ele>
    <time>2019-09-08T08:43:11Z</time>
   </trkpt>
   <trkpt lat="51.2659520" lon="5.7475590">
    <ele>32.0</ele>
    <time>2019-09-08T08:43:12Z</time>
   </trkpt>
   <trkpt lat="51.2658910" lon="5.7475870">
    <ele>32.0</ele>
    <time>2019-09-08T08:43:13Z</time>
   </trkpt>
   <trkpt lat="51.2658270" lon="5.7476120">
    <ele>31.9</ele>
    <time>2019-09-08T08:43:14Z</time>
   </trkpt>
   <trkpt lat="51.2657610" lon="5.7476210">
    <ele>31.9</ele>
    <time>2019-09-08T08:43:15Z</time>
   </trkpt>
   <trkpt lat="51.2656900" lon="5.7476360">
    <ele>31.9</ele>
    <time>2019-09-08T08:43:16Z</time>
   </trkpt>
   <trkpt lat="51.2656260" lon="5.7476650">
    <ele>31.9</ele>
    <time>2019-09-08T08:43:17Z</time>
   </trkpt>
   <trkpt lat="51.2655610" lon="5.7476900">
    <ele>31.9</ele>
    <time>2019-09-08T08:43:18Z</time>
   </trkpt>
   <trkpt lat="51.2654870" lon="5.7477040">
    <ele>31.9</ele>
    <time>2019-09-08T08:43:19Z</time>
   </trkpt>
   <trkpt lat="51.2654060" lon="5.7477120">
    <ele>31.9</ele>
    <time>2019-09-08T08:43:20Z</time>
   </trkpt>
   <trkpt lat="51.2653290" lon="5.7477030">
    <ele>31.9</ele>
    <time>2019-09-08T08:43:21Z</time>
   </trkpt>
   <trkpt lat="51.2652490" lon="5.7477030">
    <ele>31.8</ele>
    <time>2019-09-08T08:43:22Z</time>
   </trkpt>
   <trkpt lat="51.2651690" lon="5.7477080">
    <ele>31.8</ele>
    <time>2019-09-08T08:43:23Z</time>
   </trkpt>
   <trkpt lat="51.2650830" lon="5.7477190">
    <ele>31.8</ele>
    <time>2019-09-08T08:43:24Z</time>
   </trkpt>
   <trkpt lat="51.2650120" lon="5.7477180">
    <ele>31.8</ele>
    <time>2019-09-08T08:43:25Z</time>
   </trkpt>
   <trkpt lat="51.2649470" lon="5.7477340">
    <ele>31.7</ele>
    <time>2019-09-08T08:43:26Z</time>
   </trkpt>
   <trkpt lat="51.2648700" lon="5.7477290">
    <ele>31.7</ele>
    <time>2019-09-08T08:43:27Z</time>
   </trkpt>
   <trkpt lat="51.2648060" lon="5.7477340">
    <ele>31.7</ele>
    <time>2019-09-08T08:43:28Z</time>
   </trkpt>
   <trkpt lat="51.2647320" lon="5.7477460">
    <ele>31.7</ele>
    <time>2019-09-08T08:43:29Z</time>
   </trkpt>
   <trkpt lat="51.2646670" lon="5.7477420">
    <ele>31.7</ele>
    <time>2019-09-08T08:43:30Z</time>
   </trkpt>
   <trkpt lat="51.2645940" lon="5.7477410">
    <ele>31.8</ele>
    <time>2019-09-08T08:43:31Z</time>
   </trkpt>
   <trkpt lat="51.2645190" lon="5.7477410">
    <ele>31.8</ele>
    <time>2019-09-08T08:43:32Z</time>
   </trkpt>
   <trkpt lat="51.2644460" lon="5.7477500">
    <ele>31.8</ele>
    <time>2019-09-08T08:43:33Z</time>
   </trkpt>
   <trkpt lat="51.2643700" lon="5.7477530">
    <ele>31.9</ele>
    <time>2019-09-08T08:43:34Z</time>
   </trkpt>
   <trkpt lat="51.2642990" lon="5.7477500">
    <ele>31.9</ele>
    <time>2019-09-08T08:43:35Z</time>
   </trkpt>
   <trkpt lat="51.2642070" lon="5.7477340">
    <ele>32.0</ele>
    <time>2019-09-08T08:43:36Z</time>
   </trkpt>
   <trkpt lat="51.2641360" lon="5.7477420">
    <ele>32.1</ele>
    <time>2019-09-08T08:43:37Z</time>
   </trkpt>
   <trkpt lat="51.2640660" lon="5.7477450">
    <ele>32.1</ele>
    <time>2019-09-08T08:43:38Z</time>
   </trkpt>
   <trkpt lat="51.2639930" lon="5.7477370">
    <ele>32.2</ele>
    <time>2019-09-08T08:43:39Z</time>
   </trkpt>
   <trkpt lat="51.2639180" lon="5.7477470">
    <ele>32.2</ele>
    <time>2019-09-08T08:43:40Z</time>
   </trkpt>
   <trkpt lat="51.2638440" lon="5.7477700">
    <ele>32.2</ele>
    <time>2019-09-08T08:43:41Z</time>
   </trkpt>
   <trkpt lat="51.2637810" lon="5.7477700">
    <ele>32.2</ele>
    <time>2019-09-08T08:43:42Z</time>
   </trkpt>
   <trkpt lat="51.2637070" lon="5.7477840">
    <ele>32.2</ele>
    <time>2019-09-08T08:43:43Z</time>
   </trkpt>
   <trkpt lat="51.2636390" lon="5.7477940">
    <ele>32.2</ele>
    <time>2019-09-08T08:43:44Z</time>
   </trkpt>
   <trkpt lat="51.2635640" lon="5.7478080">
    <ele>32.3</ele>
    <time>2019-09-08T08:43:45Z</time>
   </trkpt>
   <trkpt lat="51.2634910" lon="5.7478140">
    <ele>32.3</ele>
    <time>2019-09-08T08:43:46Z</time>
   </trkpt>
   <trkpt lat="51.2634260" lon="5.7478150">
    <ele>32.3</ele>
    <time>2019-09-08T08:43:47Z</time>
   </trkpt>
   <trkpt lat="51.2633630" lon="5.7478120">
    <ele>32.3</ele>
    <time>2019-09-08T08:43:48Z</time>
   </trkpt>
   <trkpt lat="51.2632880" lon="5.7478210">
    <ele>32.4</ele>
    <time>2019-09-08T08:43:49Z</time>
   </trkpt>
   <trkpt lat="51.2632110" lon="5.7478220">
    <ele>32.4</ele>
    <time>2019-09-08T08:43:50Z</time>
   </trkpt>
   <trkpt lat="51.2631400" lon="5.7478230">
    <ele>32.6</ele>
    <time>2019-09-08T08:43:51Z</time>
   </trkpt>
   <trkpt lat="51.2630610" lon="5.7478310">
    <ele>32.7</ele>
    <time>2019-09-08T08:43:52Z</time>
   </trkpt>
   <trkpt lat="51.2629940" lon="5.7478380">
    <ele>32.9</ele>
    <time>2019-09-08T08:43:53Z</time>
   </trkpt>
   <trkpt lat="51.2629220" lon="5.7478450">
    <ele>33.1</ele>
    <time>2019-09-08T08:43:54Z</time>
   </trkpt>
   <trkpt lat="51.2628520" lon="5.7478550">
    <ele>33.2</ele>
    <time>2019-09-08T08:43:55Z</time>
   </trkpt>
   <trkpt lat="51.2627840" lon="5.7478570">
    <ele>33.2</ele>
    <time>2019-09-08T08:43:56Z</time>
   </trkpt>
   <trkpt lat="51.2627170" lon="5.7478650">
    <ele>33.3</ele>
    <time>2019-09-08T08:43:57Z</time>
   </trkpt>
   <trkpt lat="51.2626520" lon="5.7478840">
    <ele>33.3</ele>
    <time>2019-09-08T08:43:58Z</time>
   </trkpt>
   <trkpt lat="51.2626030" lon="5.7479150">
    <ele>33.3</ele>
    <time>2019-09-08T08:43:59Z</time>
   </trkpt>
   <trkpt lat="51.2625270" lon="5.7479580">
    <ele>33.3</ele>
    <time>2019-09-08T08:44:00Z</time>
   </trkpt>
   <trkpt lat="51.2624560" lon="5.7480180">
    <ele>33.3</ele>
    <time>2019-09-08T08:44:01Z</time>
   </trkpt>
   <trkpt lat="51.2624000" lon="5.7480860">
    <ele>33.3</ele>
    <time>2019-09-08T08:44:02Z</time>
   </trkpt>
   <trkpt lat="51.2623440" lon="5.7481800">
    <ele>33.3</ele>
    <time>2019-09-08T08:44:03Z</time>
   </trkpt>
   <trkpt lat="51.2623030" lon="5.7482670">
    <ele>33.3</ele>
    <time>2019-09-08T08:44:04Z</time>
   </trkpt>
   <trkpt lat="51.2622550" lon="5.7483580">
    <ele>33.3</ele>
    <time>2019-09-08T08:44:05Z</time>
   </trkpt>
   <trkpt lat="51.2622090" lon="5.7484470">
    <ele>33.3</ele>
    <time>2019-09-08T08:44:06Z</time>
   </trkpt>
   <trkpt lat="51.2621830" lon="5.7485490">
    <ele>33.4</ele>
    <time>2019-09-08T08:44:07Z</time>
   </trkpt>
   <trkpt lat="51.2621330" lon="5.7486380">
    <ele>33.4</ele>
    <time>2019-09-08T08:44:08Z</time>
   </trkpt>
   <trkpt lat="51.2620860" lon="5.7487240">
    <ele>33.4</ele>
    <time>2019-09-08T08:44:09Z</time>
   </trkpt>
   <trkpt lat="51.2620450" lon="5.7488130">
    <ele>33.4</ele>
    <time>2019-09-08T08:44:10Z</time>
   </trkpt>
   <trkpt lat="51.2620030" lon="5.7489200">
    <ele>33.4</ele>
    <time>2019-09-08T08:44:11Z</time>
   </trkpt>
   <trkpt lat="51.2619720" lon="5.7490180">
    <ele>33.4</ele>
    <time>2019-09-08T08:44:12Z</time>
   </trkpt>
   <trkpt lat="51.2619410" lon="5.7491240">
    <ele>33.4</ele>
    <time>2019-09-08T08:44:13Z</time>
   </trkpt>
   <trkpt lat="51.2619300" lon="5.7492380">
    <ele>33.4</ele>
    <time>2019-09-08T08:44:14Z</time>
   </trkpt>
   <trkpt lat="51.2619150" lon="5.7493450">
    <ele>33.4</ele>
    <time>2019-09-08T08:44:15Z</time>
   </trkpt>
   <trkpt lat="51.2619060" lon="5.7494730">
    <ele>33.3</ele>
    <time>2019-09-08T08:44:16Z</time>
   </trkpt>
   <trkpt lat="51.2618800" lon="5.7495790">
    <ele>33.3</ele>
    <time>2019-09-08T08:44:17Z</time>
   </trkpt>
   <trkpt lat="51.2618550" lon="5.7496860">
    <ele>33.3</ele>
    <time>2019-09-08T08:44:18Z</time>
   </trkpt>
   <trkpt lat="51.2618330" lon="5.7497930">
    <ele>33.3</ele>
    <time>2019-09-08T08:44:19Z</time>
   </trkpt>
   <trkpt lat="51.2618330" lon="5.7499050">
    <ele>33.3</ele>
    <time>2019-09-08T08:44:20Z</time>
   </trkpt>
   <trkpt lat="51.2618080" lon="5.7500150">
    <ele>33.3</ele>
    <time>2019-09-08T08:44:21Z</time>
   </trkpt>
   <trkpt lat="51.2617840" lon="5.7501150">
    <ele>33.2</ele>
    <time>2019-09-08T08:44:22Z</time>
   </trkpt>
   <trkpt lat="51.2617510" lon="5.7502230">
    <ele>33.2</ele>
    <time>2019-09-08T08:44:23Z</time>
   </trkpt>
   <trkpt lat="51.2617310" lon="5.7503250">
    <ele>33.2</ele>
    <time>2019-09-08T08:44:24Z</time>
   </trkpt>
   <trkpt lat="51.2616980" lon="5.7504380">
    <ele>33.2</ele>
    <time>2019-09-08T08:44:25Z</time>
   </trkpt>
   <trkpt lat="51.2616750" lon="5.7505220">
    <ele>33.2</ele>
    <time>2019-09-08T08:44:26Z</time>
   </trkpt>
   <trkpt lat="51.2616520" lon="5.7506210">
    <ele>33.2</ele>
    <time>2019-09-08T08:44:27Z</time>
   </trkpt>
   <trkpt lat="51.2616190" lon="5.7507290">
    <ele>33.2</ele>
    <time>2019-09-08T08:44:28Z</time>
   </trkpt>
   <trkpt lat="51.2615930" lon="5.7508210">
    <ele>33.2</ele>
    <time>2019-09-08T08:44:29Z</time>
   </trkpt>
   <trkpt lat="51.2615540" lon="5.7509160">
    <ele>33.2</ele>
    <time>2019-09-08T08:44:30Z</time>
   </trkpt>
   <trkpt lat="51.2615140" lon="5.7510170">
    <ele>33.2</ele>
    <time>2019-09-08T08:44:31Z</time>
   </trkpt>
   <trkpt lat="51.2614640" lon="5.7511220">
    <ele>33.2</ele>
    <time>2019-09-08T08:44:32Z</time>
   </trkpt>
   <trkpt lat="51.2614330" lon="5.7512120">
    <ele>33.2</ele>
    <time>2019-09-08T08:44:33Z</time>
   </trkpt>
   <trkpt lat="51.2614010" lon="5.7513110">
    <ele>33.1</ele>
    <time>2019-09-08T08:44:34Z</time>
   </trkpt>
   <trkpt lat="51.2613600" lon="5.7514180">
    <ele>33.1</ele>
    <time>2019-09-08T08:44:35Z</time>
   </trkpt>
   <trkpt lat="51.2613280" lon="5.7515310">
    <ele>33.1</ele>
    <time>2019-09-08T08:44:36Z</time>
   </trkpt>
   <trkpt lat="51.2612910" lon="5.7516370">
    <ele>33.1</ele>
    <time>2019-09-08T08:44:37Z</time>
   </trkpt>
   <trkpt lat="51.2612420" lon="5.7517250">
    <ele>33.1</ele>
    <time>2019-09-08T08:44:38Z</time>
   </trkpt>
   <trkpt lat="51.2612020" lon="5.7518190">
    <ele>33.0</ele>
    <time>2019-09-08T08:44:39Z</time>
   </trkpt>
   <trkpt lat="51.2611510" lon="5.7519090">
    <ele>33.0</ele>
    <time>2019-09-08T08:44:40Z</time>
   </trkpt>
   <trkpt lat="51.2611090" lon="5.7519870">
    <ele>33.0</ele>
    <time>2019-09-08T08:44:41Z</time>
   </trkpt>
   <trkpt lat="51.2610730" lon="5.7520810">
    <ele>32.9</ele>
    <time>2019-09-08T08:44:42Z</time>
   </trkpt>
   <trkpt lat="51.2610340" lon="5.7521870">
    <ele>32.9</ele>
    <time>2019-09-08T08:44:43Z</time>
   </trkpt>
   <trkpt lat="51.2609910" lon="5.7523030">
    <ele>32.9</ele>
    <time>2019-09-08T08:44:44Z</time>
   </trkpt>
   <trkpt lat="51.2609550" lon="5.7524150">
    <ele>32.9</ele>
    <time>2019-09-08T08:44:45Z</time>
   </trkpt>
   <trkpt lat="51.2609290" lon="5.7525180">
    <ele>33.0</ele>
    <time>2019-09-08T08:44:46Z</time>
   </trkpt>
   <trkpt lat="51.2608820" lon="5.7526260">
    <ele>33.0</ele>
    <time>2019-09-08T08:44:47Z</time>
   </trkpt>
   <trkpt lat="51.2608480" lon="5.7527230">
    <ele>33.0</ele>
    <time>2019-09-08T08:44:48Z</time>
   </trkpt>
   <trkpt lat="51.2608120" lon="5.7528320">
    <ele>33.0</ele>
    <time>2019-09-08T08:44:49Z</time>
   </trkpt>
   <trkpt lat="51.2607740" lon="5.7529320">
    <ele>33.0</ele>
    <time>2019-09-08T08:44:50Z</time>
   </trkpt>
   <trkpt lat="51.2607270" lon="5.7530370">
    <ele>33.1</ele>
    <time>2019-09-08T08:44:51Z</time>
   </trkpt>
   <trkpt lat="51.2606990" lon="5.7531450">
    <ele>33.1</ele>
    <time>2019-09-08T08:44:52Z</time>
   </trkpt>
   <trkpt lat="51.2606700" lon="5.7532710">
    <ele>33.1</ele>
    <time>2019-09-08T08:44:53Z</time>
   </trkpt>
   <trkpt lat="51.2606530" lon="5.7533750">
    <ele>33.1</ele>
    <time>2019-09-08T08:44:54Z</time>
   </trkpt>
   <trkpt lat="51.2606520" lon="5.7534850">
    <ele>33.1</ele>
    <time>2019-09-08T08:44:55Z</time>
   </trkpt>
   <trkpt lat="51.2606470" lon="5.7535950">
    <ele>33.1</ele>
    <time>2019-09-08T08:44:56Z</time>
   </trkpt>
   <trkpt lat="51.2606450" lon="5.7537010">
    <ele>33.1</ele>
    <time>2019-09-08T08:44:57Z</time>
   </trkpt>
   <trkpt lat="51.2606380" lon="5.7538120">
    <ele>33.1</ele>
    <time>2019-09-08T08:44:58Z</time>
   </trkpt>
   <trkpt lat="51.2606380" lon="5.7539310">
    <ele>33.1</ele>
    <time>2019-09-08T08:44:59Z</time>
   </trkpt>
   <trkpt lat="51.2606300" lon="5.7540430">
    <ele>33.1</ele>
    <time>2019-09-08T08:45:00Z</time>
   </trkpt>
   <trkpt lat="51.2606360" lon="5.7541610">
    <ele>33.1</ele>
    <time>2019-09-08T08:45:01Z</time>
   </trkpt>
   <trkpt lat="51.2606270" lon="5.7542720">
    <ele>33.1</ele>
    <time>2019-09-08T08:45:02Z</time>
   </trkpt>
   <trkpt lat="51.2606210" lon="5.7543880">
    <ele>33.1</ele>
    <time>2019-09-08T08:45:03Z</time>
   </trkpt>
   <trkpt lat="51.2606020" lon="5.7545180">
    <ele>33.1</ele>
    <time>2019-09-08T08:45:04Z</time>
   </trkpt>
   <trkpt lat="51.2606190" lon="5.7546650">
    <ele>33.1</ele>
    <time>2019-09-08T08:45:05Z</time>
   </trkpt>
   <trkpt lat="51.2606350" lon="5.7548060">
    <ele>33.1</ele>
    <time>2019-09-08T08:45:06Z</time>
   </trkpt>
   <trkpt lat="51.2606310" lon="5.7549210">
    <ele>33.1</ele>
    <time>2019-09-08T08:45:07Z</time>
   </trkpt>
   <trkpt lat="51.2606230" lon="5.7550280">
    <ele>33.1</ele>
    <time>2019-09-08T08:45:08Z</time>
   </trkpt>
   <trkpt lat="51.2606060" lon="5.7551270">
    <ele>33.1</ele>
    <time>2019-09-08T08:45:09Z</time>
   </trkpt>
   <trkpt lat="51.2606070" lon="5.7552420">
    <ele>33.1</ele>
    <time>2019-09-08T08:45:10Z</time>
   </trkpt>
   <trkpt lat="51.2606070" lon="5.7553410">
    <ele>33.1</ele>
    <time>2019-09-08T08:45:11Z</time>
   </trkpt>
   <trkpt lat="51.2606220" lon="5.7554620">
    <ele>33.1</ele>
    <time>2019-09-08T08:45:12Z</time>
   </trkpt>
   <trkpt lat="51.2606240" lon="5.7555750">
    <ele>33.1</ele>
    <time>2019-09-08T08:45:13Z</time>
   </trkpt>
   <trkpt lat="51.2606110" lon="5.7556830">
    <ele>33.1</ele>
    <time>2019-09-08T08:45:14Z</time>
   </trkpt>
   <trkpt lat="51.2606130" lon="5.7558070">
    <ele>33.1</ele>
    <time>2019-09-08T08:45:15Z</time>
   </trkpt>
   <trkpt lat="51.2606210" lon="5.7559390">
    <ele>33.1</ele>
    <time>2019-09-08T08:45:16Z</time>
   </trkpt>
   <trkpt lat="51.2605880" lon="5.7560400">
    <ele>33.1</ele>
    <time>2019-09-08T08:45:17Z</time>
   </trkpt>
   <trkpt lat="51.2605820" lon="5.7561560">
    <ele>33.1</ele>
    <time>2019-09-08T08:45:18Z</time>
   </trkpt>
   <trkpt lat="51.2605780" lon="5.7562750">
    <ele>33.1</ele>
    <time>2019-09-08T08:45:19Z</time>
   </trkpt>
   <trkpt lat="51.2605640" lon="5.7563980">
    <ele>33.1</ele>
    <time>2019-09-08T08:45:20Z</time>
   </trkpt>
   <trkpt lat="51.2605670" lon="5.7565180">
    <ele>33.1</ele>
    <time>2019-09-08T08:45:21Z</time>
   </trkpt>
   <trkpt lat="51.2605670" lon="5.7566340">
    <ele>33.1</ele>
    <time>2019-09-08T08:45:22Z</time>
   </trkpt>
   <trkpt lat="51.2605680" lon="5.7567420">
    <ele>33.1</ele>
    <time>2019-09-08T08:45:23Z</time>
   </trkpt>
   <trkpt lat="51.2605780" lon="5.7568270">
    <ele>33.1</ele>
    <time>2019-09-08T08:45:24Z</time>
   </trkpt>
   <trkpt lat="51.2606030" lon="5.7569240">
    <ele>33.1</ele>
    <time>2019-09-08T08:45:25Z</time>
   </trkpt>
   <trkpt lat="51.2606400" lon="5.7570290">
    <ele>33.1</ele>
    <time>2019-09-08T08:45:26Z</time>
   </trkpt>
   <trkpt lat="51.2606630" lon="5.7571190">
    <ele>33.1</ele>
    <time>2019-09-08T08:45:27Z</time>
   </trkpt>
   <trkpt lat="51.2606980" lon="5.7572260">
    <ele>33.1</ele>
    <time>2019-09-08T08:45:28Z</time>
   </trkpt>
   <trkpt lat="51.2607230" lon="5.7573210">
    <ele>33.1</ele>
    <time>2019-09-08T08:45:29Z</time>
   </trkpt>
   <trkpt lat="51.2607520" lon="5.7574050">
    <ele>33.1</ele>
    <time>2019-09-08T08:45:30Z</time>
   </trkpt>
   <trkpt lat="51.2607770" lon="5.7574880">
    <ele>33.1</ele>
    <time>2019-09-08T08:45:31Z</time>
   </trkpt>
   <trkpt lat="51.2607990" lon="5.7575820">
    <ele>33.1</ele>
    <time>2019-09-08T08:45:32Z</time>
   </trkpt>
   <trkpt lat="51.2608150" lon="5.7576600">
    <ele>33.1</ele>
    <time>2019-09-08T08:45:33Z</time>
   </trkpt>
   <trkpt lat="51.2608330" lon="5.7577310">
    <ele>33.1</ele>
    <time>2019-09-08T08:45:34Z</time>
   </trkpt>
   <trkpt lat="51.2608420" lon="5.7578020">
    <ele>33.1</ele>
    <time>2019-09-08T08:45:35Z</time>
   </trkpt>
   <trkpt lat="51.2608310" lon="5.7578500">
    <ele>33.1</ele>
    <time>2019-09-08T08:45:36Z</time>
   </trkpt>
   <trkpt lat="51.2608120" lon="5.7578860">
    <ele>33.1</ele>
    <time>2019-09-08T08:45:37Z</time>
   </trkpt>
   <trkpt lat="51.2607800" lon="5.7578840">
    <ele>33.1</ele>
    <time>2019-09-08T08:45:38Z</time>
   </trkpt>
   <trkpt lat="51.2607220" lon="5.7578500">
    <ele>33.1</ele>
    <time>2019-09-08T08:45:39Z</time>
   </trkpt>
   <trkpt lat="51.2606870" lon="5.7577970">
    <ele>33.1</ele>
    <time>2019-09-08T08:45:40Z</time>
   </trkpt>
   <trkpt lat="51.2606420" lon="5.7577290">
    <ele>33.1</ele>
    <time>2019-09-08T08:45:41Z</time>
   </trkpt>
   <trkpt lat="51.2606100" lon="5.7576590">
    <ele>33.1</ele>
    <time>2019-09-08T08:45:42Z</time>
   </trkpt>
   <trkpt lat="51.2605730" lon="5.7575890">
    <ele>33.1</ele>
    <time>2019-09-08T08:45:43Z</time>
   </trkpt>
   <trkpt lat="51.2605350" lon="5.7575100">
    <ele>33.1</ele>
    <time>2019-09-08T08:45:44Z</time>
   </trkpt>
   <trkpt lat="51.2604980" lon="5.7574360">
    <ele>33.0</ele>
    <time>2019-09-08T08:45:45Z</time>
   </trkpt>
   <trkpt lat="51.2604560" lon="5.7573640">
    <ele>33.0</ele>
    <time>2019-09-08T08:45:46Z</time>
   </trkpt>
   <trkpt lat="51.2604120" lon="5.7572860">
    <ele>33.0</ele>
    <time>2019-09-08T08:45:47Z</time>
   </trkpt>
   <trkpt lat="51.2603720" lon="5.7572100">
    <ele>33.0</ele>
    <time>2019-09-08T08:45:48Z</time>
   </trkpt>
   <trkpt lat="51.2603210" lon="5.7571360">
    <ele>33.1</ele>
    <time>2019-09-08T08:45:49Z</time>
   </trkpt>
   <trkpt lat="51.2602770" lon="5.7570570">
    <ele>33.1</ele>
    <time>2019-09-08T08:45:50Z</time>
   </trkpt>
   <trkpt lat="51.2602300" lon="5.7569760">
    <ele>33.1</ele>
    <time>2019-09-08T08:45:51Z</time>
   </trkpt>
   <trkpt lat="51.2601850" lon="5.7568950">
    <ele>33.1</ele>
    <time>2019-09-08T08:45:52Z</time>
   </trkpt>
   <trkpt lat="51.2601400" lon="5.7568220">
    <ele>33.1</ele>
    <time>2019-09-08T08:45:53Z</time>
   </trkpt>
   <trkpt lat="51.2600900" lon="5.7567460">
    <ele>33.1</ele>
    <time>2019-09-08T08:45:54Z</time>
   </trkpt>
   <trkpt lat="51.2600440" lon="5.7566700">
    <ele>33.1</ele>
    <time>2019-09-08T08:45:55Z</time>
   </trkpt>
   <trkpt lat="51.2599940" lon="5.7565890">
    <ele>33.1</ele>
    <time>2019-09-08T08:45:56Z</time>
   </trkpt>
   <trkpt lat="51.2599470" lon="5.7565120">
    <ele>33.1</ele>
    <time>2019-09-08T08:45:57Z</time>
   </trkpt>
   <trkpt lat="51.2598920" lon="5.7564450">
    <ele>33.1</ele>
    <time>2019-09-08T08:45:58Z</time>
   </trkpt>
   <trkpt lat="51.2598500" lon="5.7563700">
    <ele>33.1</ele>
    <time>2019-09-08T08:45:59Z</time>
   </trkpt>
   <trkpt lat="51.2598090" lon="5.7562970">
    <ele>33.1</ele>
    <time>2019-09-08T08:46:00Z</time>
   </trkpt>
   <trkpt lat="51.2597600" lon="5.7562220">
    <ele>33.0</ele>
    <time>2019-09-08T08:46:01Z</time>
   </trkpt>
   <trkpt lat="51.2597110" lon="5.7561470">
    <ele>33.0</ele>
    <time>2019-09-08T08:46:02Z</time>
   </trkpt>
   <trkpt lat="51.2596730" lon="5.7560650">
    <ele>33.0</ele>
    <time>2019-09-08T08:46:03Z</time>
   </trkpt>
   <trkpt lat="51.2596230" lon="5.7559880">
    <ele>32.9</ele>
    <time>2019-09-08T08:46:04Z</time>
   </trkpt>
   <trkpt lat="51.2595810" lon="5.7559090">
    <ele>32.9</ele>
    <time>2019-09-08T08:46:05Z</time>
   </trkpt>
   <trkpt lat="51.2595370" lon="5.7558330">
    <ele>32.9</ele>
    <time>2019-09-08T08:46:06Z</time>
   </trkpt>
   <trkpt lat="51.2594970" lon="5.7557600">
    <ele>32.8</ele>
    <time>2019-09-08T08:46:07Z</time>
   </trkpt>
   <trkpt lat="51.2594630" lon="5.7556830">
    <ele>32.8</ele>
    <time>2019-09-08T08:46:08Z</time>
   </trkpt>
   <trkpt lat="51.2594250" lon="5.7556010">
    <ele>32.7</ele>
    <time>2019-09-08T08:46:09Z</time>
   </trkpt>
   <trkpt lat="51.2593860" lon="5.7555290">
    <ele>32.7</ele>
    <time>2019-09-08T08:46:10Z</time>
   </trkpt>
   <trkpt lat="51.2593400" lon="5.7554600">
    <ele>32.6</ele>
    <time>2019-09-08T08:46:11Z</time>
   </trkpt>
   <trkpt lat="51.2592990" lon="5.7553910">
    <ele>32.6</ele>
    <time>2019-09-08T08:46:12Z</time>
   </trkpt>
   <trkpt lat="51.2592540" lon="5.7553130">
    <ele>32.6</ele>
    <time>2019-09-08T08:46:13Z</time>
   </trkpt>
   <trkpt lat="51.2592110" lon="5.7552270">
    <ele>32.6</ele>
    <time>2019-09-08T08:46:14Z</time>
   </trkpt>
   <trkpt lat="51.2591680" lon="5.7551400">
    <ele>32.5</ele>
    <time>2019-09-08T08:46:15Z</time>
   </trkpt>
   <trkpt lat="51.2591250" lon="5.7550620">
    <ele>32.5</ele>
    <time>2019-09-08T08:46:16Z</time>
   </trkpt>
   <trkpt lat="51.2590820" lon="5.7549740">
    <ele>32.5</ele>
    <time>2019-09-08T08:46:17Z</time>
   </trkpt>
   <trkpt lat="51.2590440" lon="5.7549020">
    <ele>32.5</ele>
    <time>2019-09-08T08:46:18Z</time>
   </trkpt>
   <trkpt lat="51.2590070" lon="5.7548140">
    <ele>32.6</ele>
    <time>2019-09-08T08:46:19Z</time>
   </trkpt>
   <trkpt lat="51.2589690" lon="5.7547330">
    <ele>32.7</ele>
    <time>2019-09-08T08:46:20Z</time>
   </trkpt>
   <trkpt lat="51.2589210" lon="5.7546440">
    <ele>32.9</ele>
    <time>2019-09-08T08:46:21Z</time>
   </trkpt>
   <trkpt lat="51.2588840" lon="5.7545550">
    <ele>33.0</ele>
    <time>2019-09-08T08:46:22Z</time>
   </trkpt>
   <trkpt lat="51.2588480" lon="5.7544670">
    <ele>33.1</ele>
    <time>2019-09-08T08:46:23Z</time>
   </trkpt>
   <trkpt lat="51.2588230" lon="5.7543630">
    <ele>33.1</ele>
    <time>2019-09-08T08:46:24Z</time>
   </trkpt>
   <trkpt lat="51.2587950" lon="5.7542490">
    <ele>33.2</ele>
    <time>2019-09-08T08:46:25Z</time>
   </trkpt>
   <trkpt lat="51.2587750" lon="5.7541260">
    <ele>33.3</ele>
    <time>2019-09-08T08:46:26Z</time>
   </trkpt>
   <trkpt lat="51.2587830" lon="5.7539970">
    <ele>33.4</ele>
    <time>2019-09-08T08:46:27Z</time>
   </trkpt>
   <trkpt lat="51.2587870" lon="5.7538770">
    <ele>33.4</ele>
    <time>2019-09-08T08:46:28Z</time>
   </trkpt>
   <trkpt lat="51.2588000" lon="5.7537750">
    <ele>33.5</ele>
    <time>2019-09-08T08:46:29Z</time>
   </trkpt>
   <trkpt lat="51.2588180" lon="5.7536660">
    <ele>33.5</ele>
    <time>2019-09-08T08:46:30Z</time>
   </trkpt>
   <trkpt lat="51.2588460" lon="5.7535610">
    <ele>33.6</ele>
    <time>2019-09-08T08:46:31Z</time>
   </trkpt>
   <trkpt lat="51.2588810" lon="5.7534570">
    <ele>33.6</ele>
    <time>2019-09-08T08:46:32Z</time>
   </trkpt>
   <trkpt lat="51.2589160" lon="5.7533540">
    <ele>33.6</ele>
    <time>2019-09-08T08:46:33Z</time>
   </trkpt>
   <trkpt lat="51.2589550" lon="5.7532570">
    <ele>33.6</ele>
    <time>2019-09-08T08:46:34Z</time>
   </trkpt>
   <trkpt lat="51.2590020" lon="5.7531340">
    <ele>33.6</ele>
    <time>2019-09-08T08:46:35Z</time>
   </trkpt>
   <trkpt lat="51.2590350" lon="5.7530360">
    <ele>33.6</ele>
    <time>2019-09-08T08:46:36Z</time>
   </trkpt>
   <trkpt lat="51.2590780" lon="5.7529360">
    <ele>33.5</ele>
    <time>2019-09-08T08:46:37Z</time>
   </trkpt>
   <trkpt lat="51.2591170" lon="5.7528360">
    <ele>33.5</ele>
    <time>2019-09-08T08:46:38Z</time>
   </trkpt>
   <trkpt lat="51.2591570" lon="5.7527380">
    <ele>33.5</ele>
    <time>2019-09-08T08:46:39Z</time>
   </trkpt>
   <trkpt lat="51.2591930" lon="5.7526450">
    <ele>33.4</ele>
    <time>2019-09-08T08:46:40Z</time>
   </trkpt>
   <trkpt lat="51.2592290" lon="5.7525370">
    <ele>33.3</ele>
    <time>2019-09-08T08:46:41Z</time>
   </trkpt>
   <trkpt lat="51.2592730" lon="5.7524430">
    <ele>33.3</ele>
    <time>2019-09-08T08:46:42Z</time>
   </trkpt>
   <trkpt lat="51.2593060" lon="5.7523490">
    <ele>33.2</ele>
    <time>2019-09-08T08:46:43Z</time>
   </trkpt>
   <trkpt lat="51.2593500" lon="5.7522410">
    <ele>33.1</ele>
    <time>2019-09-08T08:46:44Z</time>
   </trkpt>
   <trkpt lat="51.2593870" lon="5.7521400">
    <ele>33.1</ele>
    <time>2019-09-08T08:46:45Z</time>
   </trkpt>
   <trkpt lat="51.2594190" lon="5.7520440">
    <ele>33.0</ele>
    <time>2019-09-08T08:46:46Z</time>
   </trkpt>
   <trkpt lat="51.2594540" lon="5.7519480">
    <ele>32.9</ele>
    <time>2019-09-08T08:46:47Z</time>
   </trkpt>
   <trkpt lat="51.2594860" lon="5.7518500">
    <ele>32.8</ele>
    <time>2019-09-08T08:46:48Z</time>
   </trkpt>
   <trkpt lat="51.2595310" lon="5.7517470">
    <ele>32.8</ele>
    <time>2019-09-08T08:46:49Z</time>
   </trkpt>
   <trkpt lat="51.2595700" lon="5.7516440">
    <ele>32.7</ele>
    <time>2019-09-08T08:46:50Z</time>
   </trkpt>
   <trkpt lat="51.2596030" lon="5.7515330">
    <ele>32.7</ele>
    <time>2019-09-08T08:46:51Z</time>
   </trkpt>
   <trkpt lat="51.2596340" lon="5.7514210">
    <ele>32.7</ele>
    <time>2019-09-08T08:46:52Z</time>
   </trkpt>
   <trkpt lat="51.2596650" lon="5.7513170">
    <ele>32.7</ele>
    <time>2019-09-08T08:46:53Z</time>
   </trkpt>
   <trkpt lat="51.2596930" lon="5.7512090">
    <ele>32.7</ele>
    <time>2019-09-08T08:46:54Z</time>
   </trkpt>
   <trkpt lat="51.2597210" lon="5.7511040">
    <ele>32.7</ele>
    <time>2019-09-08T08:46:55Z</time>
   </trkpt>
   <trkpt lat="51.2597420" lon="5.7509990">
    <ele>32.7</ele>
    <time>2019-09-08T08:46:56Z</time>
   </trkpt>
   <trkpt lat="51.2597700" lon="5.7508890">
    <ele>32.6</ele>
    <time>2019-09-08T08:46:57Z</time>
   </trkpt>
   <trkpt lat="51.2597850" lon="5.7507770">
    <ele>32.6</ele>
    <time>2019-09-08T08:46:58Z</time>
   </trkpt>
   <trkpt lat="51.2598040" lon="5.7506660">
    <ele>32.6</ele>
    <time>2019-09-08T08:46:59Z</time>
   </trkpt>
   <trkpt lat="51.2598290" lon="5.7505520">
    <ele>32.5</ele>
    <time>2019-09-08T08:47:00Z</time>
   </trkpt>
   <trkpt lat="51.2598480" lon="5.7504360">
    <ele>32.4</ele>
    <time>2019-09-08T08:47:01Z</time>
   </trkpt>
   <trkpt lat="51.2598730" lon="5.7503170">
    <ele>32.4</ele>
    <time>2019-09-08T08:47:02Z</time>
   </trkpt>
   <trkpt lat="51.2598820" lon="5.7502040">
    <ele>32.3</ele>
    <time>2019-09-08T08:47:03Z</time>
   </trkpt>
   <trkpt lat="51.2598920" lon="5.7500910">
    <ele>32.3</ele>
    <time>2019-09-08T08:47:04Z</time>
   </trkpt>
   <trkpt lat="51.2599020" lon="5.7499680">
    <ele>32.3</ele>
    <time>2019-09-08T08:47:05Z</time>
   </trkpt>
   <trkpt lat="51.2598930" lon="5.7498580">
    <ele>32.2</ele>
    <time>2019-09-08T08:47:06Z</time>
   </trkpt>
   <trkpt lat="51.2599040" lon="5.7497430">
    <ele>32.2</ele>
    <time>2019-09-08T08:47:07Z</time>
   </trkpt>
   <trkpt lat="51.2599040" lon="5.7496280">
    <ele>32.1</ele>
    <time>2019-09-08T08:47:08Z</time>
   </trkpt>
   <trkpt lat="51.2599120" lon="5.7495180">
    <ele>32.1</ele>
    <time>2019-09-08T08:47:09Z</time>
   </trkpt>
   <trkpt lat="51.2599200" lon="5.7494220">
    <ele>32.1</ele>
    <time>2019-09-08T08:47:10Z</time>
   </trkpt>
   <trkpt lat="51.2599240" lon="5.7493200">
    <ele>32.1</ele>
    <time>2019-09-08T08:47:11Z</time>
   </trkpt>
   <trkpt lat="51.2599310" lon="5.7492020">
    <ele>32.1</ele>
    <time>2019-09-08T08:47:12Z</time>
   </trkpt>
   <trkpt lat="51.2599360" lon="5.7490950">
    <ele>32.1</ele>
    <time>2019-09-08T08:47:13Z</time>
   </trkpt>
   <trkpt lat="51.2599420" lon="5.7489990">
    <ele>32.1</ele>
    <time>2019-09-08T08:47:14Z</time>
   </trkpt>
   <trkpt lat="51.2599490" lon="5.7488820">
    <ele>32.1</ele>
    <time>2019-09-08T08:47:15Z</time>
   </trkpt>
   <trkpt lat="51.2599510" lon="5.7487730">
    <ele>32.1</ele>
    <time>2019-09-08T08:47:16Z</time>
   </trkpt>
   <trkpt lat="51.2599610" lon="5.7486720">
    <ele>32.1</ele>
    <time>2019-09-08T08:47:17Z</time>
   </trkpt>
   <trkpt lat="51.2599720" lon="5.7485580">
    <ele>32.1</ele>
    <time>2019-09-08T08:47:18Z</time>
   </trkpt>
   <trkpt lat="51.2599700" lon="5.7484490">
    <ele>32.3</ele>
    <time>2019-09-08T08:47:19Z</time>
   </trkpt>
   <trkpt lat="51.2599760" lon="5.7483460">
    <ele>32.4</ele>
    <time>2019-09-08T08:47:20Z</time>
   </trkpt>
   <trkpt lat="51.2599840" lon="5.7482390">
    <ele>32.5</ele>
    <time>2019-09-08T08:47:21Z</time>
   </trkpt>
   <trkpt lat="51.2599910" lon="5.7481250">
    <ele>32.7</ele>
    <time>2019-09-08T08:47:22Z</time>
   </trkpt>
   <trkpt lat="51.2599970" lon="5.7480130">
    <ele>32.7</ele>
    <time>2019-09-08T08:47:23Z</time>
   </trkpt>
   <trkpt lat="51.2600030" lon="5.7479070">
    <ele>32.8</ele>
    <time>2019-09-08T08:47:24Z</time>
   </trkpt>
   <trkpt lat="51.2600040" lon="5.7478100">
    <ele>32.8</ele>
    <time>2019-09-08T08:47:25Z</time>
   </trkpt>
   <trkpt lat="51.2600090" lon="5.7476960">
    <ele>32.8</ele>
    <time>2019-09-08T08:47:26Z</time>
   </trkpt>
   <trkpt lat="51.2600170" lon="5.7475810">
    <ele>32.8</ele>
    <time>2019-09-08T08:47:27Z</time>
   </trkpt>
   <trkpt lat="51.2600140" lon="5.7474760">
    <ele>32.8</ele>
    <time>2019-09-08T08:47:28Z</time>
   </trkpt>
   <trkpt lat="51.2600190" lon="5.7473670">
    <ele>32.7</ele>
    <time>2019-09-08T08:47:29Z</time>
   </trkpt>
   <trkpt lat="51.2600280" lon="5.7472570">
    <ele>32.5</ele>
    <time>2019-09-08T08:47:30Z</time>
   </trkpt>
   <trkpt lat="51.2600430" lon="5.7471280">
    <ele>32.3</ele>
    <time>2019-09-08T08:47:31Z</time>
   </trkpt>
   <trkpt lat="51.2600560" lon="5.7470200">
    <ele>32.2</ele>
    <time>2019-09-08T08:47:32Z</time>
   </trkpt>
   <trkpt lat="51.2600550" lon="5.7467960">
    <ele>32.3</ele>
    <time>2019-09-08T08:47:34Z</time>
   </trkpt>
   <trkpt lat="51.2600590" lon="5.7466930">
    <ele>32.3</ele>
    <time>2019-09-08T08:47:35Z</time>
   </trkpt>
   <trkpt lat="51.2600610" lon="5.7465770">
    <ele>32.4</ele>
    <time>2019-09-08T08:47:36Z</time>
   </trkpt>
   <trkpt lat="51.2600660" lon="5.7464780">
    <ele>32.5</ele>
    <time>2019-09-08T08:47:37Z</time>
   </trkpt>
   <trkpt lat="51.2600690" lon="5.7463700">
    <ele>32.5</ele>
    <time>2019-09-08T08:47:38Z</time>
   </trkpt>
   <trkpt lat="51.2600670" lon="5.7462630">
    <ele>32.5</ele>
    <time>2019-09-08T08:47:39Z</time>
   </trkpt>
   <trkpt lat="51.2600700" lon="5.7461440">
    <ele>32.5</ele>
    <time>2019-09-08T08:47:40Z</time>
   </trkpt>
   <trkpt lat="51.2600640" lon="5.7460310">
    <ele>32.5</ele>
    <time>2019-09-08T08:47:41Z</time>
   </trkpt>
   <trkpt lat="51.2600660" lon="5.7459260">
    <ele>32.5</ele>
    <time>2019-09-08T08:47:42Z</time>
   </trkpt>
   <trkpt lat="51.2600710" lon="5.7458220">
    <ele>32.5</ele>
    <time>2019-09-08T08:47:43Z</time>
   </trkpt>
   <trkpt lat="51.2600680" lon="5.7457160">
    <ele>32.5</ele>
    <time>2019-09-08T08:47:44Z</time>
   </trkpt>
   <trkpt lat="51.2600650" lon="5.7456060">
    <ele>32.5</ele>
    <time>2019-09-08T08:47:45Z</time>
   </trkpt>
   <trkpt lat="51.2600650" lon="5.7454980">
    <ele>32.5</ele>
    <time>2019-09-08T08:47:46Z</time>
   </trkpt>
   <trkpt lat="51.2600600" lon="5.7453880">
    <ele>32.4</ele>
    <time>2019-09-08T08:47:47Z</time>
   </trkpt>
   <trkpt lat="51.2600520" lon="5.7452880">
    <ele>32.4</ele>
    <time>2019-09-08T08:47:48Z</time>
   </trkpt>
   <trkpt lat="51.2600540" lon="5.7451590">
    <ele>32.2</ele>
    <time>2019-09-08T08:47:49Z</time>
   </trkpt>
   <trkpt lat="51.2600510" lon="5.7450500">
    <ele>32.2</ele>
    <time>2019-09-08T08:47:50Z</time>
   </trkpt>
   <trkpt lat="51.2600510" lon="5.7449350">
    <ele>32.1</ele>
    <time>2019-09-08T08:47:51Z</time>
   </trkpt>
   <trkpt lat="51.2600510" lon="5.7448230">
    <ele>32.0</ele>
    <time>2019-09-08T08:47:52Z</time>
   </trkpt>
   <trkpt lat="51.2600490" lon="5.7447120">
    <ele>31.9</ele>
    <time>2019-09-08T08:47:53Z</time>
   </trkpt>
   <trkpt lat="51.2600470" lon="5.7446100">
    <ele>31.8</ele>
    <time>2019-09-08T08:47:54Z</time>
   </trkpt>
   <trkpt lat="51.2600470" lon="5.7445070">
    <ele>31.8</ele>
    <time>2019-09-08T08:47:55Z</time>
   </trkpt>
   <trkpt lat="51.2600490" lon="5.7444050">
    <ele>31.7</ele>
    <time>2019-09-08T08:47:56Z</time>
   </trkpt>
   <trkpt lat="51.2600500" lon="5.7443060">
    <ele>31.7</ele>
    <time>2019-09-08T08:47:57Z</time>
   </trkpt>
   <trkpt lat="51.2600450" lon="5.7442040">
    <ele>31.7</ele>
    <time>2019-09-08T08:47:58Z</time>
   </trkpt>
   <trkpt lat="51.2600450" lon="5.7441070">
    <ele>31.6</ele>
    <time>2019-09-08T08:47:59Z</time>
   </trkpt>
   <trkpt lat="51.2600490" lon="5.7440070">
    <ele>31.6</ele>
    <time>2019-09-08T08:48:00Z</time>
   </trkpt>
   <trkpt lat="51.2600460" lon="5.7439190">
    <ele>31.6</ele>
    <time>2019-09-08T08:48:01Z</time>
   </trkpt>
   <trkpt lat="51.2600510" lon="5.7438320">
    <ele>31.7</ele>
    <time>2019-09-08T08:48:02Z</time>
   </trkpt>
   <trkpt lat="51.2600480" lon="5.7437480">
    <ele>31.7</ele>
    <time>2019-09-08T08:48:03Z</time>
   </trkpt>
   <trkpt lat="51.2600410" lon="5.7436610">
    <ele>31.8</ele>
    <time>2019-09-08T08:48:04Z</time>
   </trkpt>
   <trkpt lat="51.2600130" lon="5.7436040">
    <ele>31.9</ele>
    <time>2019-09-08T08:48:05Z</time>
   </trkpt>
   <trkpt lat="51.2599670" lon="5.7435630">
    <ele>32.0</ele>
    <time>2019-09-08T08:48:06Z</time>
   </trkpt>
   <trkpt lat="51.2599100" lon="5.7435450">
    <ele>32.0</ele>
    <time>2019-09-08T08:48:07Z</time>
   </trkpt>
   <trkpt lat="51.2598470" lon="5.7435630">
    <ele>32.0</ele>
    <time>2019-09-08T08:48:08Z</time>
   </trkpt>
   <trkpt lat="51.2597810" lon="5.7435800">
    <ele>32.0</ele>
    <time>2019-09-08T08:48:09Z</time>
   </trkpt>
   <trkpt lat="51.2597130" lon="5.7435960">
    <ele>32.0</ele>
    <time>2019-09-08T08:48:10Z</time>
   </trkpt>
   <trkpt lat="51.2596430" lon="5.7436230">
    <ele>32.0</ele>
    <time>2019-09-08T08:48:11Z</time>
   </trkpt>
   <trkpt lat="51.2595760" lon="5.7436430">
    <ele>32.0</ele>
    <time>2019-09-08T08:48:12Z</time>
   </trkpt>
   <trkpt lat="51.2595080" lon="5.7436740">
    <ele>32.0</ele>
    <time>2019-09-08T08:48:13Z</time>
   </trkpt>
   <trkpt lat="51.2594310" lon="5.7437020">
    <ele>32.0</ele>
    <time>2019-09-08T08:48:14Z</time>
   </trkpt>
   <trkpt lat="51.2593510" lon="5.7437300">
    <ele>32.0</ele>
    <time>2019-09-08T08:48:15Z</time>
   </trkpt>
   <trkpt lat="51.2592830" lon="5.7437600">
    <ele>31.9</ele>
    <time>2019-09-08T08:48:16Z</time>
   </trkpt>
   <trkpt lat="51.2592100" lon="5.7437840">
    <ele>31.9</ele>
    <time>2019-09-08T08:48:17Z</time>
   </trkpt>
   <trkpt lat="51.2591390" lon="5.7438160">
    <ele>31.9</ele>
    <time>2019-09-08T08:48:18Z</time>
   </trkpt>
   <trkpt lat="51.2590670" lon="5.7438400">
    <ele>31.8</ele>
    <time>2019-09-08T08:48:19Z</time>
   </trkpt>
   <trkpt lat="51.2589910" lon="5.7438780">
    <ele>31.8</ele>
    <time>2019-09-08T08:48:20Z</time>
   </trkpt>
   <trkpt lat="51.2589150" lon="5.7439100">
    <ele>31.8</ele>
    <time>2019-09-08T08:48:21Z</time>
   </trkpt>
   <trkpt lat="51.2588440" lon="5.7439370">
    <ele>31.7</ele>
    <time>2019-09-08T08:48:22Z</time>
   </trkpt>
   <trkpt lat="51.2587750" lon="5.7439720">
    <ele>31.7</ele>
    <time>2019-09-08T08:48:23Z</time>
   </trkpt>
   <trkpt lat="51.2587090" lon="5.7440020">
    <ele>31.6</ele>
    <time>2019-09-08T08:48:24Z</time>
   </trkpt>
   <trkpt lat="51.2586440" lon="5.7440340">
    <ele>31.6</ele>
    <time>2019-09-08T08:48:25Z</time>
   </trkpt>
   <trkpt lat="51.2585760" lon="5.7440660">
    <ele>31.5</ele>
    <time>2019-09-08T08:48:26Z</time>
   </trkpt>
   <trkpt lat="51.2585050" lon="5.7440950">
    <ele>31.4</ele>
    <time>2019-09-08T08:48:27Z</time>
   </trkpt>
   <trkpt lat="51.2584280" lon="5.7441160">
    <ele>31.5</ele>
    <time>2019-09-08T08:48:28Z</time>
   </trkpt>
   <trkpt lat="51.2583560" lon="5.7441460">
    <ele>31.5</ele>
    <time>2019-09-08T08:48:29Z</time>
   </trkpt>
   <trkpt lat="51.2582860" lon="5.7441770">
    <ele>31.5</ele>
    <time>2019-09-08T08:48:30Z</time>
   </trkpt>
   <trkpt lat="51.2582160" lon="5.7442090">
    <ele>31.5</ele>
    <time>2019-09-08T08:48:31Z</time>
   </trkpt>
   <trkpt lat="51.2581610" lon="5.7442320">
    <ele>31.5</ele>
    <time>2019-09-08T08:48:32Z</time>
   </trkpt>
   <trkpt lat="51.2580940" lon="5.7442560">
    <ele>31.5</ele>
    <time>2019-09-08T08:48:33Z</time>
   </trkpt>
   <trkpt lat="51.2580310" lon="5.7442790">
    <ele>31.5</ele>
    <time>2019-09-08T08:48:34Z</time>
   </trkpt>
   <trkpt lat="51.2579640" lon="5.7443180">
    <ele>31.5</ele>
    <time>2019-09-08T08:48:35Z</time>
   </trkpt>
   <trkpt lat="51.2578970" lon="5.7443490">
    <ele>31.5</ele>
    <time>2019-09-08T08:48:36Z</time>
   </trkpt>
   <trkpt lat="51.2578320" lon="5.7443820">
    <ele>31.5</ele>
    <time>2019-09-08T08:48:37Z</time>
   </trkpt>
   <trkpt lat="51.2577620" lon="5.7444130">
    <ele>31.5</ele>
    <time>2019-09-08T08:48:38Z</time>
   </trkpt>
   <trkpt lat="51.2576870" lon="5.7444400">
    <ele>31.5</ele>
    <time>2019-09-08T08:48:39Z</time>
   </trkpt>
   <trkpt lat="51.2576210" lon="5.7444580">
    <ele>31.5</ele>
    <time>2019-09-08T08:48:40Z</time>
   </trkpt>
   <trkpt lat="51.2575510" lon="5.7444820">
    <ele>31.5</ele>
    <time>2019-09-08T08:48:41Z</time>
   </trkpt>
   <trkpt lat="51.2574760" lon="5.7445060">
    <ele>31.6</ele>
    <time>2019-09-08T08:48:42Z</time>
   </trkpt>
   <trkpt lat="51.2574090" lon="5.7445280">
    <ele>31.6</ele>
    <time>2019-09-08T08:48:43Z</time>
   </trkpt>
   <trkpt lat="51.2573350" lon="5.7445530">
    <ele>31.6</ele>
    <time>2019-09-08T08:48:44Z</time>
   </trkpt>
   <trkpt lat="51.2572680" lon="5.7445830">
    <ele>31.6</ele>
    <time>2019-09-08T08:48:45Z</time>
   </trkpt>
   <trkpt lat="51.2572080" lon="5.7446050">
    <ele>31.6</ele>
    <time>2019-09-08T08:48:46Z</time>
   </trkpt>
   <trkpt lat="51.2571350" lon="5.7446320">
    <ele>31.6</ele>
    <time>2019-09-08T08:48:47Z</time>
   </trkpt>
   <trkpt lat="51.2570640" lon="5.7446570">
    <ele>31.6</ele>
    <time>2019-09-08T08:48:48Z</time>
   </trkpt>
   <trkpt lat="51.2569920" lon="5.7446860">
    <ele>31.6</ele>
    <time>2019-09-08T08:48:49Z</time>
   </trkpt>
   <trkpt lat="51.2569230" lon="5.7447150">
    <ele>31.5</ele>
    <time>2019-09-08T08:48:50Z</time>
   </trkpt>
   <trkpt lat="51.2568590" lon="5.7447480">
    <ele>31.5</ele>
    <time>2019-09-08T08:48:51Z</time>
   </trkpt>
   <trkpt lat="51.2567940" lon="5.7447830">
    <ele>31.5</ele>
    <time>2019-09-08T08:48:52Z</time>
   </trkpt>
   <trkpt lat="51.2567200" lon="5.7448160">
    <ele>31.5</ele>
    <time>2019-09-08T08:48:53Z</time>
   </trkpt>
   <trkpt lat="51.2566490" lon="5.7448400">
    <ele>31.5</ele>
    <time>2019-09-08T08:48:54Z</time>
   </trkpt>
   <trkpt lat="51.2565870" lon="5.7448650">
    <ele>31.5</ele>
    <time>2019-09-08T08:48:55Z</time>
   </trkpt>
   <trkpt lat="51.2565270" lon="5.7448850">
    <ele>31.5</ele>
    <time>2019-09-08T08:48:56Z</time>
   </trkpt>
   <trkpt lat="51.2564690" lon="5.7449080">
    <ele>31.5</ele>
    <time>2019-09-08T08:48:57Z</time>
   </trkpt>
   <trkpt lat="51.2564050" lon="5.7449340">
    <ele>31.5</ele>
    <time>2019-09-08T08:48:58Z</time>
   </trkpt>
   <trkpt lat="51.2563450" lon="5.7449660">
    <ele>31.5</ele>
    <time>2019-09-08T08:48:59Z</time>
   </trkpt>
   <trkpt lat="51.2562870" lon="5.7449920">
    <ele>31.6</ele>
    <time>2019-09-08T08:49:00Z</time>
   </trkpt>
   <trkpt lat="51.2562270" lon="5.7450140">
    <ele>31.6</ele>
    <time>2019-09-08T08:49:01Z</time>
   </trkpt>
   <trkpt lat="51.2561600" lon="5.7450360">
    <ele>31.6</ele>
    <time>2019-09-08T08:49:02Z</time>
   </trkpt>
   <trkpt lat="51.2560850" lon="5.7450620">
    <ele>31.6</ele>
    <time>2019-09-08T08:49:03Z</time>
   </trkpt>
   <trkpt lat="51.2560070" lon="5.7450770">
    <ele>31.6</ele>
    <time>2019-09-08T08:49:04Z</time>
   </trkpt>
   <trkpt lat="51.2559350" lon="5.7451050">
    <ele>31.6</ele>
    <time>2019-09-08T08:49:05Z</time>
   </trkpt>
   <trkpt lat="51.2558510" lon="5.7451350">
    <ele>31.7</ele>
    <time>2019-09-08T08:49:06Z</time>
   </trkpt>
   <trkpt lat="51.2557650" lon="5.7451650">
    <ele>31.7</ele>
    <time>2019-09-08T08:49:07Z</time>
   </trkpt>
   <trkpt lat="51.2556910" lon="5.7451900">
    <ele>31.7</ele>
    <time>2019-09-08T08:49:08Z</time>
   </trkpt>
   <trkpt lat="51.2556150" lon="5.7452120">
    <ele>31.7</ele>
    <time>2019-09-08T08:49:09Z</time>
   </trkpt>
   <trkpt lat="51.2555410" lon="5.7452300">
    <ele>31.7</ele>
    <time>2019-09-08T08:49:10Z</time>
   </trkpt>
   <trkpt lat="51.2554730" lon="5.7452420">
    <ele>31.7</ele>
    <time>2019-09-08T08:49:11Z</time>
   </trkpt>
   <trkpt lat="51.2554060" lon="5.7452590">
    <ele>31.7</ele>
    <time>2019-09-08T08:49:12Z</time>
   </trkpt>
   <trkpt lat="51.2553380" lon="5.7452760">
    <ele>31.6</ele>
    <time>2019-09-08T08:49:13Z</time>
   </trkpt>
   <trkpt lat="51.2552650" lon="5.7452980">
    <ele>31.6</ele>
    <time>2019-09-08T08:49:14Z</time>
   </trkpt>
   <trkpt lat="51.2551860" lon="5.7453140">
    <ele>31.6</ele>
    <time>2019-09-08T08:49:15Z</time>
   </trkpt>
   <trkpt lat="51.2551150" lon="5.7453280">
    <ele>31.5</ele>
    <time>2019-09-08T08:49:16Z</time>
   </trkpt>
   <trkpt lat="51.2550370" lon="5.7453460">
    <ele>31.5</ele>
    <time>2019-09-08T08:49:17Z</time>
   </trkpt>
   <trkpt lat="51.2549630" lon="5.7453660">
    <ele>31.4</ele>
    <time>2019-09-08T08:49:18Z</time>
   </trkpt>
   <trkpt lat="51.2548890" lon="5.7453830">
    <ele>31.4</ele>
    <time>2019-09-08T08:49:19Z</time>
   </trkpt>
   <trkpt lat="51.2548120" lon="5.7453970">
    <ele>31.3</ele>
    <time>2019-09-08T08:49:20Z</time>
   </trkpt>
   <trkpt lat="51.2547400" lon="5.7454140">
    <ele>31.2</ele>
    <time>2019-09-08T08:49:21Z</time>
   </trkpt>
   <trkpt lat="51.2546670" lon="5.7454260">
    <ele>31.2</ele>
    <time>2019-09-08T08:49:22Z</time>
   </trkpt>
   <trkpt lat="51.2545950" lon="5.7454410">
    <ele>31.1</ele>
    <time>2019-09-08T08:49:23Z</time>
   </trkpt>
   <trkpt lat="51.2545290" lon="5.7454570">
    <ele>31.0</ele>
    <time>2019-09-08T08:49:24Z</time>
   </trkpt>
   <trkpt lat="51.2544570" lon="5.7454710">
    <ele>31.0</ele>
    <time>2019-09-08T08:49:25Z</time>
   </trkpt>
   <trkpt lat="51.2543870" lon="5.7454870">
    <ele>30.9</ele>
    <time>2019-09-08T08:49:26Z</time>
   </trkpt>
   <trkpt lat="51.2543240" lon="5.7455060">
    <ele>30.9</ele>
    <time>2019-09-08T08:49:27Z</time>
   </trkpt>
   <trkpt lat="51.2542660" lon="5.7455140">
    <ele>30.8</ele>
    <time>2019-09-08T08:49:28Z</time>
   </trkpt>
   <trkpt lat="51.2542080" lon="5.7455430">
    <ele>30.8</ele>
    <time>2019-09-08T08:49:29Z</time>
   </trkpt>
   <trkpt lat="51.2541400" lon="5.7455590">
    <ele>30.8</ele>
    <time>2019-09-08T08:49:30Z</time>
   </trkpt>
   <trkpt lat="51.2540770" lon="5.7455800">
    <ele>30.8</ele>
    <time>2019-09-08T08:49:31Z</time>
   </trkpt>
   <trkpt lat="51.2539980" lon="5.7456170">
    <ele>30.8</ele>
    <time>2019-09-08T08:49:32Z</time>
   </trkpt>
   <trkpt lat="51.2539160" lon="5.7456510">
    <ele>30.8</ele>
    <time>2019-09-08T08:49:33Z</time>
   </trkpt>
   <trkpt lat="51.2538440" lon="5.7456810">
    <ele>30.8</ele>
    <time>2019-09-08T08:49:34Z</time>
   </trkpt>
   <trkpt lat="51.2537690" lon="5.7457070">
    <ele>30.8</ele>
    <time>2019-09-08T08:49:35Z</time>
   </trkpt>
   <trkpt lat="51.2537000" lon="5.7457340">
    <ele>30.9</ele>
    <time>2019-09-08T08:49:36Z</time>
   </trkpt>
   <trkpt lat="51.2536310" lon="5.7457630">
    <ele>30.9</ele>
    <time>2019-09-08T08:49:37Z</time>
   </trkpt>
   <trkpt lat="51.2535560" lon="5.7457860">
    <ele>31.0</ele>
    <time>2019-09-08T08:49:38Z</time>
   </trkpt>
   <trkpt lat="51.2534650" lon="5.7457920">
    <ele>31.0</ele>
    <time>2019-09-08T08:49:39Z</time>
   </trkpt>
   <trkpt lat="51.2533890" lon="5.7458200">
    <ele>31.1</ele>
    <time>2019-09-08T08:49:40Z</time>
   </trkpt>
   <trkpt lat="51.2533210" lon="5.7458480">
    <ele>31.1</ele>
    <time>2019-09-08T08:49:41Z</time>
   </trkpt>
   <trkpt lat="51.2532340" lon="5.7458850">
    <ele>31.1</ele>
    <time>2019-09-08T08:49:42Z</time>
   </trkpt>
   <trkpt lat="51.2531500" lon="5.7459170">
    <ele>31.1</ele>
    <time>2019-09-08T08:49:43Z</time>
   </trkpt>
   <trkpt lat="51.2530840" lon="5.7459480">
    <ele>31.1</ele>
    <time>2019-09-08T08:49:44Z</time>
   </trkpt>
   <trkpt lat="51.2530020" lon="5.7459840">
    <ele>31.1</ele>
    <time>2019-09-08T08:49:45Z</time>
   </trkpt>
   <trkpt lat="51.2529100" lon="5.7460160">
    <ele>31.1</ele>
    <time>2019-09-08T08:49:46Z</time>
   </trkpt>
   <trkpt lat="51.2528410" lon="5.7460350">
    <ele>31.1</ele>
    <time>2019-09-08T08:49:47Z</time>
   </trkpt>
   <trkpt lat="51.2527740" lon="5.7460530">
    <ele>31.1</ele>
    <time>2019-09-08T08:49:48Z</time>
   </trkpt>
   <trkpt lat="51.2526910" lon="5.7460650">
    <ele>31.1</ele>
    <time>2019-09-08T08:49:49Z</time>
   </trkpt>
   <trkpt lat="51.2526120" lon="5.7460760">
    <ele>31.1</ele>
    <time>2019-09-08T08:49:50Z</time>
   </trkpt>
   <trkpt lat="51.2525350" lon="5.7460830">
    <ele>31.1</ele>
    <time>2019-09-08T08:49:51Z</time>
   </trkpt>
   <trkpt lat="51.2524580" lon="5.7460840">
    <ele>31.1</ele>
    <time>2019-09-08T08:49:52Z</time>
   </trkpt>
   <trkpt lat="51.2523880" lon="5.7460840">
    <ele>31.1</ele>
    <time>2019-09-08T08:49:53Z</time>
   </trkpt>
   <trkpt lat="51.2523180" lon="5.7460810">
    <ele>31.1</ele>
    <time>2019-09-08T08:49:54Z</time>
   </trkpt>
   <trkpt lat="51.2522430" lon="5.7460740">
    <ele>31.1</ele>
    <time>2019-09-08T08:49:55Z</time>
   </trkpt>
   <trkpt lat="51.2521680" lon="5.7460790">
    <ele>31.2</ele>
    <time>2019-09-08T08:49:56Z</time>
   </trkpt>
   <trkpt lat="51.2520860" lon="5.7460920">
    <ele>31.2</ele>
    <time>2019-09-08T08:49:57Z</time>
   </trkpt>
   <trkpt lat="51.2520120" lon="5.7460970">
    <ele>31.3</ele>
    <time>2019-09-08T08:49:58Z</time>
   </trkpt>
   <trkpt lat="51.2519440" lon="5.7460960">
    <ele>31.3</ele>
    <time>2019-09-08T08:49:59Z</time>
   </trkpt>
   <trkpt lat="51.2518720" lon="5.7460980">
    <ele>31.4</ele>
    <time>2019-09-08T08:50:00Z</time>
   </trkpt>
   <trkpt lat="51.2517960" lon="5.7461010">
    <ele>31.4</ele>
    <time>2019-09-08T08:50:01Z</time>
   </trkpt>
   <trkpt lat="51.2517230" lon="5.7460990">
    <ele>31.5</ele>
    <time>2019-09-08T08:50:02Z</time>
   </trkpt>
   <trkpt lat="51.2516540" lon="5.7461060">
    <ele>31.5</ele>
    <time>2019-09-08T08:50:03Z</time>
   </trkpt>
   <trkpt lat="51.2515870" lon="5.7461080">
    <ele>31.6</ele>
    <time>2019-09-08T08:50:04Z</time>
   </trkpt>
   <trkpt lat="51.2515170" lon="5.7461180">
    <ele>31.7</ele>
    <time>2019-09-08T08:50:05Z</time>
   </trkpt>
   <trkpt lat="51.2514490" lon="5.7461200">
    <ele>31.7</ele>
    <time>2019-09-08T08:50:06Z</time>
   </trkpt>
   <trkpt lat="51.2513880" lon="5.7461230">
    <ele>31.8</ele>
    <time>2019-09-08T08:50:07Z</time>
   </trkpt>
   <trkpt lat="51.2513230" lon="5.7461210">
    <ele>31.8</ele>
    <time>2019-09-08T08:50:08Z</time>
   </trkpt>
   <trkpt lat="51.2512470" lon="5.7461320">
    <ele>31.9</ele>
    <time>2019-09-08T08:50:09Z</time>
   </trkpt>
   <trkpt lat="51.2511740" lon="5.7461480">
    <ele>31.9</ele>
    <time>2019-09-08T08:50:10Z</time>
   </trkpt>
   <trkpt lat="51.2511070" lon="5.7461620">
    <ele>32.0</ele>
    <time>2019-09-08T08:50:11Z</time>
   </trkpt>
   <trkpt lat="51.2510370" lon="5.7461700">
    <ele>32.0</ele>
    <time>2019-09-08T08:50:12Z</time>
   </trkpt>
   <trkpt lat="51.2509620" lon="5.7461720">
    <ele>32.0</ele>
    <time>2019-09-08T08:50:13Z</time>
   </trkpt>
   <trkpt lat="51.2508980" lon="5.7461830">
    <ele>32.0</ele>
    <time>2019-09-08T08:50:14Z</time>
   </trkpt>
   <trkpt lat="51.2508250" lon="5.7461960">
    <ele>32.0</ele>
    <time>2019-09-08T08:50:15Z</time>
   </trkpt>
   <trkpt lat="51.2507540" lon="5.7462130">
    <ele>32.0</ele>
    <time>2019-09-08T08:50:16Z</time>
   </trkpt>
   <trkpt lat="51.2506850" lon="5.7462340">
    <ele>32.1</ele>
    <time>2019-09-08T08:50:17Z</time>
   </trkpt>
   <trkpt lat="51.2506140" lon="5.7462380">
    <ele>32.1</ele>
    <time>2019-09-08T08:50:18Z</time>
   </trkpt>
   <trkpt lat="51.2505310" lon="5.7462520">
    <ele>32.1</ele>
    <time>2019-09-08T08:50:19Z</time>
   </trkpt>
   <trkpt lat="51.2504570" lon="5.7462750">
    <ele>32.1</ele>
    <time>2019-09-08T08:50:20Z</time>
   </trkpt>
   <trkpt lat="51.2503870" lon="5.7462780">
    <ele>32.1</ele>
    <time>2019-09-08T08:50:21Z</time>
   </trkpt>
   <trkpt lat="51.2503160" lon="5.7462740">
    <ele>32.2</ele>
    <time>2019-09-08T08:50:22Z</time>
   </trkpt>
   <trkpt lat="51.2502450" lon="5.7462870">
    <ele>32.2</ele>
    <time>2019-09-08T08:50:23Z</time>
   </trkpt>
   <trkpt lat="51.2501790" lon="5.7462970">
    <ele>32.2</ele>
    <time>2019-09-08T08:50:24Z</time>
   </trkpt>
   <trkpt lat="51.2501070" lon="5.7462950">
    <ele>32.2</ele>
    <time>2019-09-08T08:50:25Z</time>
   </trkpt>
   <trkpt lat="51.2500310" lon="5.7462920">
    <ele>32.3</ele>
    <time>2019-09-08T08:50:26Z</time>
   </trkpt>
   <trkpt lat="51.2499490" lon="5.7462980">
    <ele>32.3</ele>
    <time>2019-09-08T08:50:27Z</time>
   </trkpt>
   <trkpt lat="51.2498740" lon="5.7462860">
    <ele>32.3</ele>
    <time>2019-09-08T08:50:28Z</time>
   </trkpt>
   <trkpt lat="51.2498030" lon="5.7462650">
    <ele>32.3</ele>
    <time>2019-09-08T08:50:29Z</time>
   </trkpt>
   <trkpt lat="51.2497260" lon="5.7462410">
    <ele>32.3</ele>
    <time>2019-09-08T08:50:30Z</time>
   </trkpt>
   <trkpt lat="51.2496530" lon="5.7462170">
    <ele>32.3</ele>
    <time>2019-09-08T08:50:31Z</time>
   </trkpt>
   <trkpt lat="51.2495870" lon="5.7461930">
    <ele>32.2</ele>
    <time>2019-09-08T08:50:32Z</time>
   </trkpt>
   <trkpt lat="51.2495110" lon="5.7461770">
    <ele>32.2</ele>
    <time>2019-09-08T08:50:33Z</time>
   </trkpt>
   <trkpt lat="51.2494310" lon="5.7461600">
    <ele>32.1</ele>
    <time>2019-09-08T08:50:34Z</time>
   </trkpt>
   <trkpt lat="51.2493570" lon="5.7461530">
    <ele>32.1</ele>
    <time>2019-09-08T08:50:35Z</time>
   </trkpt>
   <trkpt lat="51.2492830" lon="5.7461290">
    <ele>32.0</ele>
    <time>2019-09-08T08:50:36Z</time>
   </trkpt>
   <trkpt lat="51.2492210" lon="5.7461150">
    <ele>31.9</ele>
    <time>2019-09-08T08:50:37Z</time>
   </trkpt>
   <trkpt lat="51.2491420" lon="5.7460930">
    <ele>31.8</ele>
    <time>2019-09-08T08:50:38Z</time>
   </trkpt>
   <trkpt lat="51.2490580" lon="5.7460800">
    <ele>31.8</ele>
    <time>2019-09-08T08:50:39Z</time>
   </trkpt>
   <trkpt lat="51.2489910" lon="5.7460670">
    <ele>31.7</ele>
    <time>2019-09-08T08:50:40Z</time>
   </trkpt>
   <trkpt lat="51.2489270" lon="5.7460420">
    <ele>31.6</ele>
    <time>2019-09-08T08:50:41Z</time>
   </trkpt>
   <trkpt lat="51.2488640" lon="5.7460300">
    <ele>31.6</ele>
    <time>2019-09-08T08:50:42Z</time>
   </trkpt>
   <trkpt lat="51.2487970" lon="5.7460190">
    <ele>31.5</ele>
    <time>2019-09-08T08:50:43Z</time>
   </trkpt>
   <trkpt lat="51.2487270" lon="5.7460130">
    <ele>31.4</ele>
    <time>2019-09-08T08:50:44Z</time>
   </trkpt>
   <trkpt lat="51.2486600" lon="5.7459930">
    <ele>31.4</ele>
    <time>2019-09-08T08:50:45Z</time>
   </trkpt>
   <trkpt lat="51.2485910" lon="5.7459870">
    <ele>31.3</ele>
    <time>2019-09-08T08:50:46Z</time>
   </trkpt>
   <trkpt lat="51.2485230" lon="5.7459700">
    <ele>31.2</ele>
    <time>2019-09-08T08:50:47Z</time>
   </trkpt>
   <trkpt lat="51.2484580" lon="5.7459610">
    <ele>31.2</ele>
    <time>2019-09-08T08:50:48Z</time>
   </trkpt>
   <trkpt lat="51.2483920" lon="5.7459500">
    <ele>31.3</ele>
    <time>2019-09-08T08:50:49Z</time>
   </trkpt>
   <trkpt lat="51.2483290" lon="5.7459300">
    <ele>31.3</ele>
    <time>2019-09-08T08:50:50Z</time>
   </trkpt>
   <trkpt lat="51.2482580" lon="5.7459090">
    <ele>31.3</ele>
    <time>2019-09-08T08:50:51Z</time>
   </trkpt>
   <trkpt lat="51.2481860" lon="5.7458890">
    <ele>31.3</ele>
    <time>2019-09-08T08:50:52Z</time>
   </trkpt>
   <trkpt lat="51.2481320" lon="5.7458810">
    <ele>31.3</ele>
    <time>2019-09-08T08:50:53Z</time>
   </trkpt>
   <trkpt lat="51.2480680" lon="5.7458590">
    <ele>31.4</ele>
    <time>2019-09-08T08:50:54Z</time>
   </trkpt>
   <trkpt lat="51.2480150" lon="5.7458320">
    <ele>31.4</ele>
    <time>2019-09-08T08:50:55Z</time>
   </trkpt>
   <trkpt lat="51.2479490" lon="5.7458050">
    <ele>31.4</ele>
    <time>2019-09-08T08:50:56Z</time>
   </trkpt>
   <trkpt lat="51.2479000" lon="5.7457740">
    <ele>31.4</ele>
    <time>2019-09-08T08:50:57Z</time>
   </trkpt>
   <trkpt lat="51.2478490" lon="5.7457470">
    <ele>31.4</ele>
    <time>2019-09-08T08:50:58Z</time>
   </trkpt>
   <trkpt lat="51.2477990" lon="5.7457140">
    <ele>31.4</ele>
    <time>2019-09-08T08:50:59Z</time>
   </trkpt>
   <trkpt lat="51.2477510" lon="5.7456830">
    <ele>31.4</ele>
    <time>2019-09-08T08:51:00Z</time>
   </trkpt>
   <trkpt lat="51.2477030" lon="5.7456560">
    <ele>31.4</ele>
    <time>2019-09-08T08:51:01Z</time>
   </trkpt>
   <trkpt lat="51.2476510" lon="5.7456150">
    <ele>31.5</ele>
    <time>2019-09-08T08:51:02Z</time>
   </trkpt>
   <trkpt lat="51.2476110" lon="5.7455870">
    <ele>31.5</ele>
    <time>2019-09-08T08:51:03Z</time>
   </trkpt>
   <trkpt lat="51.2475730" lon="5.7455660">
    <ele>31.5</ele>
    <time>2019-09-08T08:51:04Z</time>
   </trkpt>
   <trkpt lat="51.2475400" lon="5.7455340">
    <ele>31.5</ele>
    <time>2019-09-08T08:51:05Z</time>
   </trkpt>
   <trkpt lat="51.2474910" lon="5.7454960">
    <ele>31.6</ele>
    <time>2019-09-08T08:51:07Z</time>
   </trkpt>
   <trkpt lat="51.2474420" lon="5.7454400">
    <ele>31.6</ele>
    <time>2019-09-08T08:51:09Z</time>
   </trkpt>
   <trkpt lat="51.2474060" lon="5.7453850">
    <ele>31.7</ele>
    <time>2019-09-08T08:51:11Z</time>
   </trkpt>
   <trkpt lat="51.2473850" lon="5.7453520">
    <ele>31.8</ele>
    <time>2019-09-08T08:51:12Z</time>
   </trkpt>
   <trkpt lat="51.2473650" lon="5.7453060">
    <ele>31.8</ele>
    <time>2019-09-08T08:51:13Z</time>
   </trkpt>
   <trkpt lat="51.2473480" lon="5.7452580">
    <ele>31.9</ele>
    <time>2019-09-08T08:51:14Z</time>
   </trkpt>
   <trkpt lat="51.2473310" lon="5.7452080">
    <ele>31.9</ele>
    <time>2019-09-08T08:51:15Z</time>
   </trkpt>
   <trkpt lat="51.2473170" lon="5.7451570">
    <ele>32.0</ele>
    <time>2019-09-08T08:51:16Z</time>
   </trkpt>
   <trkpt lat="51.2473070" lon="5.7451020">
    <ele>32.0</ele>
    <time>2019-09-08T08:51:17Z</time>
   </trkpt>
   <trkpt lat="51.2473060" lon="5.7450410">
    <ele>32.1</ele>
    <time>2019-09-08T08:51:18Z</time>
   </trkpt>
   <trkpt lat="51.2473100" lon="5.7449770">
    <ele>32.1</ele>
    <time>2019-09-08T08:51:19Z</time>
   </trkpt>
   <trkpt lat="51.2473150" lon="5.7449130">
    <ele>32.2</ele>
    <time>2019-09-08T08:51:20Z</time>
   </trkpt>
   <trkpt lat="51.2473210" lon="5.7448470">
    <ele>32.2</ele>
    <time>2019-09-08T08:51:21Z</time>
   </trkpt>
   <trkpt lat="51.2473270" lon="5.7447790">
    <ele>32.3</ele>
    <time>2019-09-08T08:51:22Z</time>
   </trkpt>
   <trkpt lat="51.2473250" lon="5.7447090">
    <ele>32.4</ele>
    <time>2019-09-08T08:51:23Z</time>
   </trkpt>
   <trkpt lat="51.2473060" lon="5.7446400">
    <ele>32.4</ele>
    <time>2019-09-08T08:51:24Z</time>
   </trkpt>
   <trkpt lat="51.2472820" lon="5.7445740">
    <ele>32.4</ele>
    <time>2019-09-08T08:51:25Z</time>
   </trkpt>
   <trkpt lat="51.2472530" lon="5.7445000">
    <ele>32.3</ele>
    <time>2019-09-08T08:51:26Z</time>
   </trkpt>
   <trkpt lat="51.2472270" lon="5.7444390">
    <ele>32.3</ele>
    <time>2019-09-08T08:51:27Z</time>
   </trkpt>
   <trkpt lat="51.2471940" lon="5.7443800">
    <ele>32.3</ele>
    <time>2019-09-08T08:51:28Z</time>
   </trkpt>
   <trkpt lat="51.2471690" lon="5.7443210">
    <ele>32.2</ele>
    <time>2019-09-08T08:51:29Z</time>
   </trkpt>
   <trkpt lat="51.2471450" lon="5.7442630">
    <ele>32.2</ele>
    <time>2019-09-08T08:51:30Z</time>
   </trkpt>
   <trkpt lat="51.2471270" lon="5.7442070">
    <ele>32.2</ele>
    <time>2019-09-08T08:51:31Z</time>
   </trkpt>
   <trkpt lat="51.2471030" lon="5.7441590">
    <ele>32.2</ele>
    <time>2019-09-08T08:51:32Z</time>
   </trkpt>
   <trkpt lat="51.2470850" lon="5.7441090">
    <ele>32.2</ele>
    <time>2019-09-08T08:51:33Z</time>
   </trkpt>
   <trkpt lat="51.2470710" lon="5.7440590">
    <ele>32.1</ele>
    <time>2019-09-08T08:51:34Z</time>
   </trkpt>
   <trkpt lat="51.2470540" lon="5.7439950">
    <ele>32.1</ele>
    <time>2019-09-08T08:51:35Z</time>
   </trkpt>
   <trkpt lat="51.2470260" lon="5.7439350">
    <ele>32.1</ele>
    <time>2019-09-08T08:51:36Z</time>
   </trkpt>
   <trkpt lat="51.2470070" lon="5.7438790">
    <ele>32.0</ele>
    <time>2019-09-08T08:51:37Z</time>
   </trkpt>
   <trkpt lat="51.2469850" lon="5.7438110">
    <ele>32.0</ele>
    <time>2019-09-08T08:51:38Z</time>
   </trkpt>
   <trkpt lat="51.2469590" lon="5.7437520">
    <ele>31.9</ele>
    <time>2019-09-08T08:51:39Z</time>
   </trkpt>
   <trkpt lat="51.2469380" lon="5.7436730">
    <ele>31.9</ele>
    <time>2019-09-08T08:51:40Z</time>
   </trkpt>
   <trkpt lat="51.2469070" lon="5.7435920">
    <ele>31.8</ele>
    <time>2019-09-08T08:51:41Z</time>
   </trkpt>
   <trkpt lat="51.2468790" lon="5.7435140">
    <ele>31.7</ele>
    <time>2019-09-08T08:51:42Z</time>
   </trkpt>
   <trkpt lat="51.2468540" lon="5.7434230">
    <ele>31.6</ele>
    <time>2019-09-08T08:51:43Z</time>
   </trkpt>
   <trkpt lat="51.2468260" lon="5.7433320">
    <ele>31.6</ele>
    <time>2019-09-08T08:51:44Z</time>
   </trkpt>
   <trkpt lat="51.2467950" lon="5.7432460">
    <ele>31.5</ele>
    <time>2019-09-08T08:51:45Z</time>
   </trkpt>
   <trkpt lat="51.2467630" lon="5.7431630">
    <ele>31.5</ele>
    <time>2019-09-08T08:51:46Z</time>
   </trkpt>
   <trkpt lat="51.2467320" lon="5.7430680">
    <ele>31.5</ele>
    <time>2019-09-08T08:51:47Z</time>
   </trkpt>
   <trkpt lat="51.2466980" lon="5.7429730">
    <ele>31.5</ele>
    <time>2019-09-08T08:51:48Z</time>
   </trkpt>
   <trkpt lat="51.2466580" lon="5.7428890">
    <ele>31.5</ele>
    <time>2019-09-08T08:51:49Z</time>
   </trkpt>
   <trkpt lat="51.2466160" lon="5.7428020">
    <ele>31.5</ele>
    <time>2019-09-08T08:51:50Z</time>
   </trkpt>
   <trkpt lat="51.2465740" lon="5.7427230">
    <ele>31.5</ele>
    <time>2019-09-08T08:51:51Z</time>
   </trkpt>
   <trkpt lat="51.2465350" lon="5.7426320">
    <ele>31.4</ele>
    <time>2019-09-08T08:51:52Z</time>
   </trkpt>
   <trkpt lat="51.2464960" lon="5.7425430">
    <ele>31.4</ele>
    <time>2019-09-08T08:51:53Z</time>
   </trkpt>
   <trkpt lat="51.2464590" lon="5.7424490">
    <ele>31.4</ele>
    <time>2019-09-08T08:51:54Z</time>
   </trkpt>
   <trkpt lat="51.2464250" lon="5.7423720">
    <ele>31.4</ele>
    <time>2019-09-08T08:51:55Z</time>
   </trkpt>
   <trkpt lat="51.2463920" lon="5.7422810">
    <ele>31.4</ele>
    <time>2019-09-08T08:51:56Z</time>
   </trkpt>
   <trkpt lat="51.2463830" lon="5.7421730">
    <ele>31.4</ele>
    <time>2019-09-08T08:51:57Z</time>
   </trkpt>
   <trkpt lat="51.2463870" lon="5.7420620">
    <ele>31.4</ele>
    <time>2019-09-08T08:51:58Z</time>
   </trkpt>
   <trkpt lat="51.2463880" lon="5.7419480">
    <ele>31.4</ele>
    <time>2019-09-08T08:51:59Z</time>
   </trkpt>
   <trkpt lat="51.2464020" lon="5.7418260">
    <ele>31.5</ele>
    <time>2019-09-08T08:52:00Z</time>
   </trkpt>
   <trkpt lat="51.2464090" lon="5.7417160">
    <ele>31.5</ele>
    <time>2019-09-08T08:52:01Z</time>
   </trkpt>
   <trkpt lat="51.2464220" lon="5.7415890">
    <ele>31.5</ele>
    <time>2019-09-08T08:52:02Z</time>
   </trkpt>
   <trkpt lat="51.2464320" lon="5.7414840">
    <ele>31.5</ele>
    <time>2019-09-08T08:52:03Z</time>
   </trkpt>
   <trkpt lat="51.2464320" lon="5.7413720">
    <ele>31.5</ele>
    <time>2019-09-08T08:52:04Z</time>
   </trkpt>
   <trkpt lat="51.2464460" lon="5.7412580">
    <ele>31.6</ele>
    <time>2019-09-08T08:52:05Z</time>
   </trkpt>
   <trkpt lat="51.2464570" lon="5.7411480">
    <ele>31.6</ele>
    <time>2019-09-08T08:52:06Z</time>
   </trkpt>
   <trkpt lat="51.2464690" lon="5.7410240">
    <ele>31.6</ele>
    <time>2019-09-08T08:52:07Z</time>
   </trkpt>
   <trkpt lat="51.2464720" lon="5.7409140">
    <ele>31.6</ele>
    <time>2019-09-08T08:52:08Z</time>
   </trkpt>
   <trkpt lat="51.2464820" lon="5.7408050">
    <ele>31.6</ele>
    <time>2019-09-08T08:52:09Z</time>
   </trkpt>
   <trkpt lat="51.2464890" lon="5.7406970">
    <ele>31.6</ele>
    <time>2019-09-08T08:52:10Z</time>
   </trkpt>
   <trkpt lat="51.2465050" lon="5.7405840">
    <ele>31.6</ele>
    <time>2019-09-08T08:52:11Z</time>
   </trkpt>
   <trkpt lat="51.2465180" lon="5.7404850">
    <ele>31.6</ele>
    <time>2019-09-08T08:52:12Z</time>
   </trkpt>
   <trkpt lat="51.2465270" lon="5.7403720">
    <ele>31.5</ele>
    <time>2019-09-08T08:52:13Z</time>
   </trkpt>
   <trkpt lat="51.2465320" lon="5.7402690">
    <ele>31.5</ele>
    <time>2019-09-08T08:52:14Z</time>
   </trkpt>
   <trkpt lat="51.2465390" lon="5.7401630">
    <ele>31.5</ele>
    <time>2019-09-08T08:52:15Z</time>
   </trkpt>
   <trkpt lat="51.2465460" lon="5.7400610">
    <ele>31.5</ele>
    <time>2019-09-08T08:52:16Z</time>
   </trkpt>
   <trkpt lat="51.2465520" lon="5.7399670">
    <ele>31.5</ele>
    <time>2019-09-08T08:52:17Z</time>
   </trkpt>
   <trkpt lat="51.2465650" lon="5.7398670">
    <ele>31.4</ele>
    <time>2019-09-08T08:52:18Z</time>
   </trkpt>
   <trkpt lat="51.2465880" lon="5.7397790">
    <ele>31.4</ele>
    <time>2019-09-08T08:52:19Z</time>
   </trkpt>
   <trkpt lat="51.2466250" lon="5.7397050">
    <ele>31.4</ele>
    <time>2019-09-08T08:52:20Z</time>
   </trkpt>
   <trkpt lat="51.2466770" lon="5.7396700">
    <ele>31.4</ele>
    <time>2019-09-08T08:52:21Z</time>
   </trkpt>
   <trkpt lat="51.2467340" lon="5.7396660">
    <ele>31.4</ele>
    <time>2019-09-08T08:52:22Z</time>
   </trkpt>
   <trkpt lat="51.2468060" lon="5.7396800">
    <ele>31.4</ele>
    <time>2019-09-08T08:52:23Z</time>
   </trkpt>
   <trkpt lat="51.2468680" lon="5.7396890">
    <ele>31.5</ele>
    <time>2019-09-08T08:52:24Z</time>
   </trkpt>
   <trkpt lat="51.2469260" lon="5.7397030">
    <ele>31.5</ele>
    <time>2019-09-08T08:52:25Z</time>
   </trkpt>
   <trkpt lat="51.2469850" lon="5.7397220">
    <ele>31.5</ele>
    <time>2019-09-08T08:52:26Z</time>
   </trkpt>
   <trkpt lat="51.2470480" lon="5.7397170">
    <ele>31.5</ele>
    <time>2019-09-08T08:52:27Z</time>
   </trkpt>
   <trkpt lat="51.2470970" lon="5.7397040">
    <ele>31.5</ele>
    <time>2019-09-08T08:52:28Z</time>
   </trkpt>
   <trkpt lat="51.2471360" lon="5.7396540">
    <ele>31.5</ele>
    <time>2019-09-08T08:52:29Z</time>
   </trkpt>
   <trkpt lat="51.2471440" lon="5.7395610">
    <ele>31.5</ele>
    <time>2019-09-08T08:52:30Z</time>
   </trkpt>
   <trkpt lat="51.2471500" lon="5.7394700">
    <ele>31.5</ele>
    <time>2019-09-08T08:52:31Z</time>
   </trkpt>
   <trkpt lat="51.2471430" lon="5.7393710">
    <ele>31.4</ele>
    <time>2019-09-08T08:52:32Z</time>
   </trkpt>
   <trkpt lat="51.2471510" lon="5.7392690">
    <ele>31.4</ele>
    <time>2019-09-08T08:52:33Z</time>
   </trkpt>
   <trkpt lat="51.2471570" lon="5.7391620">
    <ele>31.3</ele>
    <time>2019-09-08T08:52:34Z</time>
   </trkpt>
   <trkpt lat="51.2471490" lon="5.7390620">
    <ele>31.3</ele>
    <time>2019-09-08T08:52:35Z</time>
   </trkpt>
   <trkpt lat="51.2471410" lon="5.7389630">
    <ele>31.3</ele>
    <time>2019-09-08T08:52:36Z</time>
   </trkpt>
   <trkpt lat="51.2471080" lon="5.7388740">
    <ele>31.3</ele>
    <time>2019-09-08T08:52:37Z</time>
   </trkpt>
   <trkpt lat="51.2470590" lon="5.7388170">
    <ele>31.3</ele>
    <time>2019-09-08T08:52:38Z</time>
   </trkpt>
   <trkpt lat="51.2469980" lon="5.7387900">
    <ele>31.3</ele>
    <time>2019-09-08T08:52:39Z</time>
   </trkpt>
   <trkpt lat="51.2469280" lon="5.7387860">
    <ele>31.3</ele>
    <time>2019-09-08T08:52:40Z</time>
   </trkpt>
   <trkpt lat="51.2468560" lon="5.7387870">
    <ele>31.3</ele>
    <time>2019-09-08T08:52:41Z</time>
   </trkpt>
   <trkpt lat="51.2467900" lon="5.7387840">
    <ele>31.3</ele>
    <time>2019-09-08T08:52:42Z</time>
   </trkpt>
   <trkpt lat="51.2467290" lon="5.7387860">
    <ele>31.3</ele>
    <time>2019-09-08T08:52:43Z</time>
   </trkpt>
   <trkpt lat="51.2466620" lon="5.7387920">
    <ele>31.3</ele>
    <time>2019-09-08T08:52:44Z</time>
   </trkpt>
   <trkpt lat="51.2466060" lon="5.7387940">
    <ele>31.3</ele>
    <time>2019-09-08T08:52:45Z</time>
   </trkpt>
   <trkpt lat="51.2465410" lon="5.7388150">
    <ele>31.3</ele>
    <time>2019-09-08T08:52:46Z</time>
   </trkpt>
   <trkpt lat="51.2464760" lon="5.7388310">
    <ele>31.3</ele>
    <time>2019-09-08T08:52:47Z</time>
   </trkpt>
   <trkpt lat="51.2464160" lon="5.7388460">
    <ele>31.3</ele>
    <time>2019-09-08T08:52:48Z</time>
   </trkpt>
   <trkpt lat="51.2463590" lon="5.7388720">
    <ele>31.3</ele>
    <time>2019-09-08T08:52:49Z</time>
   </trkpt>
   <trkpt lat="51.2462940" lon="5.7389060">
    <ele>31.3</ele>
    <time>2019-09-08T08:52:50Z</time>
   </trkpt>
   <trkpt lat="51.2462280" lon="5.7389250">
    <ele>31.3</ele>
    <time>2019-09-08T08:52:51Z</time>
   </trkpt>
   <trkpt lat="51.2461570" lon="5.7389430">
    <ele>31.3</ele>
    <time>2019-09-08T08:52:52Z</time>
   </trkpt>
   <trkpt lat="51.2460840" lon="5.7389540">
    <ele>31.3</ele>
    <time>2019-09-08T08:52:53Z</time>
   </trkpt>
   <trkpt lat="51.2460150" lon="5.7389610">
    <ele>31.3</ele>
    <time>2019-09-08T08:52:54Z</time>
   </trkpt>
   <trkpt lat="51.2459440" lon="5.7389600">
    <ele>31.3</ele>
    <time>2019-09-08T08:52:55Z</time>
   </trkpt>
   <trkpt lat="51.2458700" lon="5.7389470">
    <ele>31.3</ele>
    <time>2019-09-08T08:52:56Z</time>
   </trkpt>
   <trkpt lat="51.2458040" lon="5.7389300">
    <ele>31.3</ele>
    <time>2019-09-08T08:52:57Z</time>
   </trkpt>
   <trkpt lat="51.2457370" lon="5.7389050">
    <ele>31.4</ele>
    <time>2019-09-08T08:52:58Z</time>
   </trkpt>
   <trkpt lat="51.2456670" lon="5.7388840">
    <ele>31.4</ele>
    <time>2019-09-08T08:52:59Z</time>
   </trkpt>
   <trkpt lat="51.2455970" lon="5.7388660">
    <ele>31.5</ele>
    <time>2019-09-08T08:53:00Z</time>
   </trkpt>
   <trkpt lat="51.2455250" lon="5.7388510">
    <ele>31.7</ele>
    <time>2019-09-08T08:53:01Z</time>
   </trkpt>
   <trkpt lat="51.2454570" lon="5.7388330">
    <ele>31.9</ele>
    <time>2019-09-08T08:53:02Z</time>
   </trkpt>
   <trkpt lat="51.2453900" lon="5.7388130">
    <ele>32.0</ele>
    <time>2019-09-08T08:53:03Z</time>
   </trkpt>
   <trkpt lat="51.2453160" lon="5.7387940">
    <ele>32.2</ele>
    <time>2019-09-08T08:53:04Z</time>
   </trkpt>
   <trkpt lat="51.2452390" lon="5.7387760">
    <ele>32.3</ele>
    <time>2019-09-08T08:53:05Z</time>
   </trkpt>
   <trkpt lat="51.2451620" lon="5.7387680">
    <ele>32.5</ele>
    <time>2019-09-08T08:53:06Z</time>
   </trkpt>
   <trkpt lat="51.2450940" lon="5.7387720">
    <ele>32.6</ele>
    <time>2019-09-08T08:53:07Z</time>
   </trkpt>
   <trkpt lat="51.2450250" lon="5.7387940">
    <ele>32.7</ele>
    <time>2019-09-08T08:53:08Z</time>
   </trkpt>
   <trkpt lat="51.2449530" lon="5.7388160">
    <ele>32.9</ele>
    <time>2019-09-08T08:53:09Z</time>
   </trkpt>
   <trkpt lat="51.2448850" lon="5.7388460">
    <ele>32.8</ele>
    <time>2019-09-08T08:53:10Z</time>
   </trkpt>
   <trkpt lat="51.2448130" lon="5.7388630">
    <ele>32.7</ele>
    <time>2019-09-08T08:53:11Z</time>
   </trkpt>
   <trkpt lat="51.2447400" lon="5.7388950">
    <ele>32.6</ele>
    <time>2019-09-08T08:53:12Z</time>
   </trkpt>
   <trkpt lat="51.2446720" lon="5.7389070">
    <ele>32.5</ele>
    <time>2019-09-08T08:53:13Z</time>
   </trkpt>
   <trkpt lat="51.2446050" lon="5.7389170">
    <ele>32.5</ele>
    <time>2019-09-08T08:53:14Z</time>
   </trkpt>
   <trkpt lat="51.2445400" lon="5.7389370">
    <ele>32.5</ele>
    <time>2019-09-08T08:53:15Z</time>
   </trkpt>
   <trkpt lat="51.2444630" lon="5.7389510">
    <ele>32.5</ele>
    <time>2019-09-08T08:53:16Z</time>
   </trkpt>
   <trkpt lat="51.2443910" lon="5.7389620">
    <ele>32.5</ele>
    <time>2019-09-08T08:53:17Z</time>
   </trkpt>
   <trkpt lat="51.2443120" lon="5.7389950">
    <ele>32.6</ele>
    <time>2019-09-08T08:53:18Z</time>
   </trkpt>
   <trkpt lat="51.2442340" lon="5.7390300">
    <ele>32.6</ele>
    <time>2019-09-08T08:53:19Z</time>
   </trkpt>
   <trkpt lat="51.2441580" lon="5.7390560">
    <ele>32.6</ele>
    <time>2019-09-08T08:53:20Z</time>
   </trkpt>
   <trkpt lat="51.2440800" lon="5.7390730">
    <ele>32.6</ele>
    <time>2019-09-08T08:53:21Z</time>
   </trkpt>
   <trkpt lat="51.2440160" lon="5.7390800">
    <ele>32.5</ele>
    <time>2019-09-08T08:53:22Z</time>
   </trkpt>
   <trkpt lat="51.2439510" lon="5.7391040">
    <ele>32.4</ele>
    <time>2019-09-08T08:53:23Z</time>
   </trkpt>
   <trkpt lat="51.2438800" lon="5.7391170">
    <ele>32.3</ele>
    <time>2019-09-08T08:53:24Z</time>
   </trkpt>
   <trkpt lat="51.2438090" lon="5.7391370">
    <ele>32.0</ele>
    <time>2019-09-08T08:53:25Z</time>
   </trkpt>
   <trkpt lat="51.2437410" lon="5.7391480">
    <ele>31.7</ele>
    <time>2019-09-08T08:53:26Z</time>
   </trkpt>
   <trkpt lat="51.2436720" lon="5.7391690">
    <ele>31.4</ele>
    <time>2019-09-08T08:53:27Z</time>
   </trkpt>
   <trkpt lat="51.2436050" lon="5.7391860">
    <ele>30.9</ele>
    <time>2019-09-08T08:53:28Z</time>
   </trkpt>
   <trkpt lat="51.2435410" lon="5.7392060">
    <ele>30.5</ele>
    <time>2019-09-08T08:53:29Z</time>
   </trkpt>
   <trkpt lat="51.2434710" lon="5.7392300">
    <ele>30.5</ele>
    <time>2019-09-08T08:53:30Z</time>
   </trkpt>
   <trkpt lat="51.2434030" lon="5.7392600">
    <ele>30.4</ele>
    <time>2019-09-08T08:53:31Z</time>
   </trkpt>
   <trkpt lat="51.2433370" lon="5.7392800">
    <ele>30.4</ele>
    <time>2019-09-08T08:53:32Z</time>
   </trkpt>
   <trkpt lat="51.2432660" lon="5.7393070">
    <ele>30.4</ele>
    <time>2019-09-08T08:53:33Z</time>
   </trkpt>
   <trkpt lat="51.2431830" lon="5.7393350">
    <ele>30.4</ele>
    <time>2019-09-08T08:53:34Z</time>
   </trkpt>
   <trkpt lat="51.2431070" lon="5.7393620">
    <ele>30.4</ele>
    <time>2019-09-08T08:53:35Z</time>
   </trkpt>
   <trkpt lat="51.2430390" lon="5.7394020">
    <ele>30.4</ele>
    <time>2019-09-08T08:53:36Z</time>
   </trkpt>
   <trkpt lat="51.2429710" lon="5.7394340">
    <ele>30.4</ele>
    <time>2019-09-08T08:53:37Z</time>
   </trkpt>
   <trkpt lat="51.2429020" lon="5.7394570">
    <ele>30.3</ele>
    <time>2019-09-08T08:53:38Z</time>
   </trkpt>
   <trkpt lat="51.2428320" lon="5.7394850">
    <ele>30.2</ele>
    <time>2019-09-08T08:53:39Z</time>
   </trkpt>
   <trkpt lat="51.2427630" lon="5.7395120">
    <ele>30.1</ele>
    <time>2019-09-08T08:53:40Z</time>
   </trkpt>
   <trkpt lat="51.2426900" lon="5.7395270">
    <ele>30.0</ele>
    <time>2019-09-08T08:53:41Z</time>
   </trkpt>
   <trkpt lat="51.2426270" lon="5.7395600">
    <ele>29.9</ele>
    <time>2019-09-08T08:53:42Z</time>
   </trkpt>
   <trkpt lat="51.2425490" lon="5.7395930">
    <ele>29.8</ele>
    <time>2019-09-08T08:53:43Z</time>
   </trkpt>
   <trkpt lat="51.2424770" lon="5.7396390">
    <ele>29.7</ele>
    <time>2019-09-08T08:53:44Z</time>
   </trkpt>
   <trkpt lat="51.2424140" lon="5.7396920">
    <ele>29.6</ele>
    <time>2019-09-08T08:53:45Z</time>
   </trkpt>
   <trkpt lat="51.2423500" lon="5.7397440">
    <ele>29.5</ele>
    <time>2019-09-08T08:53:46Z</time>
   </trkpt>
   <trkpt lat="51.2422860" lon="5.7397900">
    <ele>29.5</ele>
    <time>2019-09-08T08:53:47Z</time>
   </trkpt>
   <trkpt lat="51.2422200" lon="5.7398350">
    <ele>29.5</ele>
    <time>2019-09-08T08:53:48Z</time>
   </trkpt>
   <trkpt lat="51.2421520" lon="5.7398830">
    <ele>29.5</ele>
    <time>2019-09-08T08:53:49Z</time>
   </trkpt>
   <trkpt lat="51.2420880" lon="5.7399320">
    <ele>29.5</ele>
    <time>2019-09-08T08:53:50Z</time>
   </trkpt>
   <trkpt lat="51.2420270" lon="5.7399860">
    <ele>29.5</ele>
    <time>2019-09-08T08:53:51Z</time>
   </trkpt>
   <trkpt lat="51.2419660" lon="5.7400350">
    <ele>29.5</ele>
    <time>2019-09-08T08:53:52Z</time>
   </trkpt>
   <trkpt lat="51.2419120" lon="5.7400800">
    <ele>29.5</ele>
    <time>2019-09-08T08:53:53Z</time>
   </trkpt>
   <trkpt lat="51.2418450" lon="5.7401210">
    <ele>29.5</ele>
    <time>2019-09-08T08:53:54Z</time>
   </trkpt>
   <trkpt lat="51.2418050" lon="5.7401640">
    <ele>29.5</ele>
    <time>2019-09-08T08:53:55Z</time>
   </trkpt>
   <trkpt lat="51.2417350" lon="5.7402190">
    <ele>29.5</ele>
    <time>2019-09-08T08:53:56Z</time>
   </trkpt>
   <trkpt lat="51.2416750" lon="5.7402730">
    <ele>29.5</ele>
    <time>2019-09-08T08:53:57Z</time>
   </trkpt>
   <trkpt lat="51.2416150" lon="5.7403340">
    <ele>29.5</ele>
    <time>2019-09-08T08:53:58Z</time>
   </trkpt>
   <trkpt lat="51.2415450" lon="5.7403840">
    <ele>29.5</ele>
    <time>2019-09-08T08:53:59Z</time>
   </trkpt>
   <trkpt lat="51.2414850" lon="5.7404410">
    <ele>29.5</ele>
    <time>2019-09-08T08:54:00Z</time>
   </trkpt>
   <trkpt lat="51.2414210" lon="5.7405020">
    <ele>29.5</ele>
    <time>2019-09-08T08:54:01Z</time>
   </trkpt>
   <trkpt lat="51.2413450" lon="5.7405520">
    <ele>29.5</ele>
    <time>2019-09-08T08:54:02Z</time>
   </trkpt>
   <trkpt lat="51.2412870" lon="5.7406000">
    <ele>29.6</ele>
    <time>2019-09-08T08:54:03Z</time>
   </trkpt>
   <trkpt lat="51.2412300" lon="5.7406660">
    <ele>29.6</ele>
    <time>2019-09-08T08:54:04Z</time>
   </trkpt>
   <trkpt lat="51.2411730" lon="5.7407270">
    <ele>29.6</ele>
    <time>2019-09-08T08:54:05Z</time>
   </trkpt>
   <trkpt lat="51.2411120" lon="5.7407860">
    <ele>29.4</ele>
    <time>2019-09-08T08:54:06Z</time>
   </trkpt>
   <trkpt lat="51.2410500" lon="5.7408380">
    <ele>29.4</ele>
    <time>2019-09-08T08:54:07Z</time>
   </trkpt>
   <trkpt lat="51.2409820" lon="5.7408960">
    <ele>29.3</ele>
    <time>2019-09-08T08:54:08Z</time>
   </trkpt>
   <trkpt lat="51.2409170" lon="5.7409530">
    <ele>29.4</ele>
    <time>2019-09-08T08:54:09Z</time>
   </trkpt>
   <trkpt lat="51.2408520" lon="5.7410090">
    <ele>29.5</ele>
    <time>2019-09-08T08:54:10Z</time>
   </trkpt>
   <trkpt lat="51.2407930" lon="5.7410740">
    <ele>29.8</ele>
    <time>2019-09-08T08:54:11Z</time>
   </trkpt>
   <trkpt lat="51.2407260" lon="5.7411440">
    <ele>30.1</ele>
    <time>2019-09-08T08:54:12Z</time>
   </trkpt>
   <trkpt lat="51.2406640" lon="5.7411990">
    <ele>30.5</ele>
    <time>2019-09-08T08:54:13Z</time>
   </trkpt>
   <trkpt lat="51.2406020" lon="5.7412550">
    <ele>30.8</ele>
    <time>2019-09-08T08:54:14Z</time>
   </trkpt>
   <trkpt lat="51.2405360" lon="5.7413140">
    <ele>31.2</ele>
    <time>2019-09-08T08:54:15Z</time>
   </trkpt>
   <trkpt lat="51.2404720" lon="5.7413670">
    <ele>31.4</ele>
    <time>2019-09-08T08:54:16Z</time>
   </trkpt>
   <trkpt lat="51.2404130" lon="5.7414230">
    <ele>31.6</ele>
    <time>2019-09-08T08:54:17Z</time>
   </trkpt>
   <trkpt lat="51.2403600" lon="5.7414870">
    <ele>31.7</ele>
    <time>2019-09-08T08:54:18Z</time>
   </trkpt>
   <trkpt lat="51.2402960" lon="5.7415500">
    <ele>31.8</ele>
    <time>2019-09-08T08:54:19Z</time>
   </trkpt>
   <trkpt lat="51.2402360" lon="5.7416350">
    <ele>31.9</ele>
    <time>2019-09-08T08:54:20Z</time>
   </trkpt>
   <trkpt lat="51.2401780" lon="5.7417110">
    <ele>31.9</ele>
    <time>2019-09-08T08:54:21Z</time>
   </trkpt>
   <trkpt lat="51.2401180" lon="5.7417830">
    <ele>31.9</ele>
    <time>2019-09-08T08:54:22Z</time>
   </trkpt>
   <trkpt lat="51.2400700" lon="5.7418710">
    <ele>31.9</ele>
    <time>2019-09-08T08:54:23Z</time>
   </trkpt>
   <trkpt lat="51.2400020" lon="5.7419330">
    <ele>31.9</ele>
    <time>2019-09-08T08:54:24Z</time>
   </trkpt>
   <trkpt lat="51.2399610" lon="5.7420280">
    <ele>32.0</ele>
    <time>2019-09-08T08:54:25Z</time>
   </trkpt>
   <trkpt lat="51.2399440" lon="5.7421430">
    <ele>32.0</ele>
    <time>2019-09-08T08:54:26Z</time>
   </trkpt>
   <trkpt lat="51.2398990" lon="5.7422280">
    <ele>32.0</ele>
    <time>2019-09-08T08:54:27Z</time>
   </trkpt>
   <trkpt lat="51.2398730" lon="5.7423330">
    <ele>32.1</ele>
    <time>2019-09-08T08:54:28Z</time>
   </trkpt>
   <trkpt lat="51.2398480" lon="5.7424110">
    <ele>32.1</ele>
    <time>2019-09-08T08:54:29Z</time>
   </trkpt>
   <trkpt lat="51.2397890" lon="5.7425050">
    <ele>32.2</ele>
    <time>2019-09-08T08:54:30Z</time>
   </trkpt>
   <trkpt lat="51.2397450" lon="5.7425910">
    <ele>32.2</ele>
    <time>2019-09-08T08:54:31Z</time>
   </trkpt>
   <trkpt lat="51.2397150" lon="5.7426540">
    <ele>32.3</ele>
    <time>2019-09-08T08:54:32Z</time>
   </trkpt>
   <trkpt lat="51.2396700" lon="5.7427280">
    <ele>32.3</ele>
    <time>2019-09-08T08:54:33Z</time>
   </trkpt>
   <trkpt lat="51.2396390" lon="5.7428140">
    <ele>32.3</ele>
    <time>2019-09-08T08:54:34Z</time>
   </trkpt>
   <trkpt lat="51.2395990" lon="5.7428830">
    <ele>32.2</ele>
    <time>2019-09-08T08:54:35Z</time>
   </trkpt>
   <trkpt lat="51.2395780" lon="5.7429200">
    <ele>32.2</ele>
    <time>2019-09-08T08:54:36Z</time>
   </trkpt>
   <trkpt lat="51.2395490" lon="5.7429810">
    <ele>32.1</ele>
    <time>2019-09-08T08:54:37Z</time>
   </trkpt>
   <trkpt lat="51.2395320" lon="5.7430760">
    <ele>32.0</ele>
    <time>2019-09-08T08:54:38Z</time>
   </trkpt>
   <trkpt lat="51.2395100" lon="5.7431650">
    <ele>31.9</ele>
    <time>2019-09-08T08:54:39Z</time>
   </trkpt>
   <trkpt lat="51.2394830" lon="5.7432260">
    <ele>31.8</ele>
    <time>2019-09-08T08:54:40Z</time>
   </trkpt>
   <trkpt lat="51.2394830" lon="5.7432970">
    <ele>31.7</ele>
    <time>2019-09-08T08:54:41Z</time>
   </trkpt>
   <trkpt lat="51.2394400" lon="5.7433210">
    <ele>31.7</ele>
    <time>2019-09-08T08:54:42Z</time>
   </trkpt>
   <trkpt lat="51.2393780" lon="5.7433110">
    <ele>31.4</ele>
    <time>2019-09-08T08:54:43Z</time>
   </trkpt>
   <trkpt lat="51.2392820" lon="5.7432460">
    <ele>31.4</ele>
    <time>2019-09-08T08:54:45Z</time>
   </trkpt>
   <trkpt lat="51.2392230" lon="5.7432010">
    <ele>31.4</ele>
    <time>2019-09-08T08:54:46Z</time>
   </trkpt>
   <trkpt lat="51.2391570" lon="5.7431430">
    <ele>31.3</ele>
    <time>2019-09-08T08:54:47Z</time>
   </trkpt>
   <trkpt lat="51.2391060" lon="5.7430650">
    <ele>31.3</ele>
    <time>2019-09-08T08:54:48Z</time>
   </trkpt>
   <trkpt lat="51.2390490" lon="5.7429960">
    <ele>31.3</ele>
    <time>2019-09-08T08:54:49Z</time>
   </trkpt>
   <trkpt lat="51.2389780" lon="5.7429040">
    <ele>31.3</ele>
    <time>2019-09-08T08:54:50Z</time>
   </trkpt>
   <trkpt lat="51.2389150" lon="5.7428220">
    <ele>31.3</ele>
    <time>2019-09-08T08:54:51Z</time>
   </trkpt>
   <trkpt lat="51.2388520" lon="5.7427490">
    <ele>31.3</ele>
    <time>2019-09-08T08:54:52Z</time>
   </trkpt>
   <trkpt lat="51.2387890" lon="5.7426740">
    <ele>31.3</ele>
    <time>2019-09-08T08:54:53Z</time>
   </trkpt>
   <trkpt lat="51.2387260" lon="5.7426030">
    <ele>31.3</ele>
    <time>2019-09-08T08:54:54Z</time>
   </trkpt>
   <trkpt lat="51.2386730" lon="5.7425290">
    <ele>31.3</ele>
    <time>2019-09-08T08:54:55Z</time>
   </trkpt>
   <trkpt lat="51.2386200" lon="5.7424610">
    <ele>31.2</ele>
    <time>2019-09-08T08:54:56Z</time>
   </trkpt>
   <trkpt lat="51.2385640" lon="5.7423820">
    <ele>31.2</ele>
    <time>2019-09-08T08:54:57Z</time>
   </trkpt>
   <trkpt lat="51.2385080" lon="5.7423110">
    <ele>31.2</ele>
    <time>2019-09-08T08:54:58Z</time>
   </trkpt>
   <trkpt lat="51.2384360" lon="5.7422340">
    <ele>31.2</ele>
    <time>2019-09-08T08:54:59Z</time>
   </trkpt>
   <trkpt lat="51.2383890" lon="5.7421620">
    <ele>31.2</ele>
    <time>2019-09-08T08:55:00Z</time>
   </trkpt>
   <trkpt lat="51.2383390" lon="5.7420920">
    <ele>31.1</ele>
    <time>2019-09-08T08:55:01Z</time>
   </trkpt>
   <trkpt lat="51.2382730" lon="5.7420200">
    <ele>31.1</ele>
    <time>2019-09-08T08:55:02Z</time>
   </trkpt>
   <trkpt lat="51.2382220" lon="5.7419570">
    <ele>31.1</ele>
    <time>2019-09-08T08:55:03Z</time>
   </trkpt>
   <trkpt lat="51.2381660" lon="5.7418910">
    <ele>31.1</ele>
    <time>2019-09-08T08:55:04Z</time>
   </trkpt>
   <trkpt lat="51.2380880" lon="5.7418590">
    <ele>31.1</ele>
    <time>2019-09-08T08:55:05Z</time>
   </trkpt>
   <trkpt lat="51.2380330" lon="5.7417800">
    <ele>31.1</ele>
    <time>2019-09-08T08:55:06Z</time>
   </trkpt>
   <trkpt lat="51.2379830" lon="5.7416800">
    <ele>31.1</ele>
    <time>2019-09-08T08:55:07Z</time>
   </trkpt>
   <trkpt lat="51.2379230" lon="5.7416150">
    <ele>31.1</ele>
    <time>2019-09-08T08:55:08Z</time>
   </trkpt>
   <trkpt lat="51.2378690" lon="5.7415440">
    <ele>31.1</ele>
    <time>2019-09-08T08:55:09Z</time>
   </trkpt>
   <trkpt lat="51.2378130" lon="5.7414740">
    <ele>31.1</ele>
    <time>2019-09-08T08:55:10Z</time>
   </trkpt>
   <trkpt lat="51.2377530" lon="5.7414010">
    <ele>31.1</ele>
    <time>2019-09-08T08:55:11Z</time>
   </trkpt>
   <trkpt lat="51.2377000" lon="5.7413350">
    <ele>31.1</ele>
    <time>2019-09-08T08:55:12Z</time>
   </trkpt>
   <trkpt lat="51.2376510" lon="5.7412880">
    <ele>31.1</ele>
    <time>2019-09-08T08:55:13Z</time>
   </trkpt>
   <trkpt lat="51.2376000" lon="5.7412220">
    <ele>31.1</ele>
    <time>2019-09-08T08:55:14Z</time>
   </trkpt>
   <trkpt lat="51.2375500" lon="5.7411270">
    <ele>31.1</ele>
    <time>2019-09-08T08:55:15Z</time>
   </trkpt>
   <trkpt lat="51.2374860" lon="5.7410870">
    <ele>31.1</ele>
    <time>2019-09-08T08:55:16Z</time>
   </trkpt>
   <trkpt lat="51.2374200" lon="5.7410790">
    <ele>31.1</ele>
    <time>2019-09-08T08:55:17Z</time>
   </trkpt>
   <trkpt lat="51.2373490" lon="5.7411090">
    <ele>31.1</ele>
    <time>2019-09-08T08:55:18Z</time>
   </trkpt>
   <trkpt lat="51.2372740" lon="5.7411840">
    <ele>31.1</ele>
    <time>2019-09-08T08:55:19Z</time>
   </trkpt>
   <trkpt lat="51.2371990" lon="5.7412430">
    <ele>31.1</ele>
    <time>2019-09-08T08:55:20Z</time>
   </trkpt>
   <trkpt lat="51.2371360" lon="5.7412880">
    <ele>31.1</ele>
    <time>2019-09-08T08:55:21Z</time>
   </trkpt>
   <trkpt lat="51.2370700" lon="5.7413440">
    <ele>31.1</ele>
    <time>2019-09-08T08:55:22Z</time>
   </trkpt>
   <trkpt lat="51.2369970" lon="5.7414060">
    <ele>31.5</ele>
    <time>2019-09-08T08:55:23Z</time>
   </trkpt>
   <trkpt lat="51.2369360" lon="5.7414560">
    <ele>31.7</ele>
    <time>2019-09-08T08:55:24Z</time>
   </trkpt>
   <trkpt lat="51.2368740" lon="5.7415190">
    <ele>32.0</ele>
    <time>2019-09-08T08:55:25Z</time>
   </trkpt>
   <trkpt lat="51.2368120" lon="5.7415650">
    <ele>32.1</ele>
    <time>2019-09-08T08:55:26Z</time>
   </trkpt>
   <trkpt lat="51.2367520" lon="5.7416110">
    <ele>32.2</ele>
    <time>2019-09-08T08:55:27Z</time>
   </trkpt>
   <trkpt lat="51.2366890" lon="5.7416560">
    <ele>32.2</ele>
    <time>2019-09-08T08:55:28Z</time>
   </trkpt>
   <trkpt lat="51.2366260" lon="5.7416870">
    <ele>32.1</ele>
    <time>2019-09-08T08:55:29Z</time>
   </trkpt>
   <trkpt lat="51.2365510" lon="5.7417190">
    <ele>32.1</ele>
    <time>2019-09-08T08:55:30Z</time>
   </trkpt>
   <trkpt lat="51.2364790" lon="5.7417350">
    <ele>32.0</ele>
    <time>2019-09-08T08:55:31Z</time>
   </trkpt>
   <trkpt lat="51.2364040" lon="5.7417480">
    <ele>32.0</ele>
    <time>2019-09-08T08:55:32Z</time>
   </trkpt>
   <trkpt lat="51.2363330" lon="5.7417460">
    <ele>32.1</ele>
    <time>2019-09-08T08:55:33Z</time>
   </trkpt>
   <trkpt lat="51.2362640" lon="5.7417320">
    <ele>32.2</ele>
    <time>2019-09-08T08:55:34Z</time>
   </trkpt>
   <trkpt lat="51.2361910" lon="5.7417170">
    <ele>32.3</ele>
    <time>2019-09-08T08:55:35Z</time>
   </trkpt>
   <trkpt lat="51.2361130" lon="5.7416950">
    <ele>32.4</ele>
    <time>2019-09-08T08:55:36Z</time>
   </trkpt>
   <trkpt lat="51.2360420" lon="5.7416660">
    <ele>32.4</ele>
    <time>2019-09-08T08:55:37Z</time>
   </trkpt>
   <trkpt lat="51.2359720" lon="5.7416380">
    <ele>32.4</ele>
    <time>2019-09-08T08:55:38Z</time>
   </trkpt>
   <trkpt lat="51.2359040" lon="5.7416220">
    <ele>32.3</ele>
    <time>2019-09-08T08:55:39Z</time>
   </trkpt>
   <trkpt lat="51.2358340" lon="5.7415970">
    <ele>32.3</ele>
    <time>2019-09-08T08:55:40Z</time>
   </trkpt>
   <trkpt lat="51.2357660" lon="5.7415760">
    <ele>32.2</ele>
    <time>2019-09-08T08:55:41Z</time>
   </trkpt>
   <trkpt lat="51.2356990" lon="5.7415550">
    <ele>32.1</ele>
    <time>2019-09-08T08:55:42Z</time>
   </trkpt>
   <trkpt lat="51.2356340" lon="5.7415280">
    <ele>32.0</ele>
    <time>2019-09-08T08:55:43Z</time>
   </trkpt>
   <trkpt lat="51.2355620" lon="5.7415030">
    <ele>31.8</ele>
    <time>2019-09-08T08:55:44Z</time>
   </trkpt>
   <trkpt lat="51.2354880" lon="5.7414780">
    <ele>31.5</ele>
    <time>2019-09-08T08:55:45Z</time>
   </trkpt>
   <trkpt lat="51.2354150" lon="5.7414370">
    <ele>31.3</ele>
    <time>2019-09-08T08:55:46Z</time>
   </trkpt>
   <trkpt lat="51.2353450" lon="5.7414160">
    <ele>31.1</ele>
    <time>2019-09-08T08:55:47Z</time>
   </trkpt>
   <trkpt lat="51.2352780" lon="5.7413960">
    <ele>30.9</ele>
    <time>2019-09-08T08:55:48Z</time>
   </trkpt>
   <trkpt lat="51.2352100" lon="5.7413850">
    <ele>30.7</ele>
    <time>2019-09-08T08:55:49Z</time>
   </trkpt>
   <trkpt lat="51.2351400" lon="5.7413560">
    <ele>30.5</ele>
    <time>2019-09-08T08:55:50Z</time>
   </trkpt>
   <trkpt lat="51.2350730" lon="5.7413310">
    <ele>30.4</ele>
    <time>2019-09-08T08:55:51Z</time>
   </trkpt>
   <trkpt lat="51.2350050" lon="5.7413150">
    <ele>30.2</ele>
    <time>2019-09-08T08:55:52Z</time>
   </trkpt>
   <trkpt lat="51.2349400" lon="5.7412890">
    <ele>30.0</ele>
    <time>2019-09-08T08:55:53Z</time>
   </trkpt>
   <trkpt lat="51.2348730" lon="5.7412640">
    <ele>29.9</ele>
    <time>2019-09-08T08:55:54Z</time>
   </trkpt>
   <trkpt lat="51.2348060" lon="5.7412360">
    <ele>29.7</ele>
    <time>2019-09-08T08:55:55Z</time>
   </trkpt>
   <trkpt lat="51.2347380" lon="5.7412100">
    <ele>29.6</ele>
    <time>2019-09-08T08:55:56Z</time>
   </trkpt>
   <trkpt lat="51.2346730" lon="5.7411800">
    <ele>29.5</ele>
    <time>2019-09-08T08:55:57Z</time>
   </trkpt>
   <trkpt lat="51.2346040" lon="5.7411550">
    <ele>29.3</ele>
    <time>2019-09-08T08:55:58Z</time>
   </trkpt>
   <trkpt lat="51.2345250" lon="5.7411180">
    <ele>29.2</ele>
    <time>2019-09-08T08:55:59Z</time>
   </trkpt>
   <trkpt lat="51.2344520" lon="5.7410870">
    <ele>29.2</ele>
    <time>2019-09-08T08:56:00Z</time>
   </trkpt>
   <trkpt lat="51.2343890" lon="5.7410680">
    <ele>29.1</ele>
    <time>2019-09-08T08:56:01Z</time>
   </trkpt>
   <trkpt lat="51.2343230" lon="5.7410370">
    <ele>29.0</ele>
    <time>2019-09-08T08:56:02Z</time>
   </trkpt>
   <trkpt lat="51.2342550" lon="5.7409950">
    <ele>29.0</ele>
    <time>2019-09-08T08:56:03Z</time>
   </trkpt>
   <trkpt lat="51.2341850" lon="5.7409740">
    <ele>28.9</ele>
    <time>2019-09-08T08:56:04Z</time>
   </trkpt>
   <trkpt lat="51.2341200" lon="5.7409570">
    <ele>28.8</ele>
    <time>2019-09-08T08:56:05Z</time>
   </trkpt>
   <trkpt lat="51.2340530" lon="5.7409420">
    <ele>28.7</ele>
    <time>2019-09-08T08:56:06Z</time>
   </trkpt>
   <trkpt lat="51.2339780" lon="5.7409440">
    <ele>28.5</ele>
    <time>2019-09-08T08:56:07Z</time>
   </trkpt>
   <trkpt lat="51.2339060" lon="5.7409570">
    <ele>28.5</ele>
    <time>2019-09-08T08:56:08Z</time>
   </trkpt>
   <trkpt lat="51.2338330" lon="5.7409870">
    <ele>28.6</ele>
    <time>2019-09-08T08:56:09Z</time>
   </trkpt>
   <trkpt lat="51.2337610" lon="5.7410000">
    <ele>28.6</ele>
    <time>2019-09-08T08:56:10Z</time>
   </trkpt>
   <trkpt lat="51.2336900" lon="5.7410230">
    <ele>28.6</ele>
    <time>2019-09-08T08:56:11Z</time>
   </trkpt>
   <trkpt lat="51.2336210" lon="5.7410540">
    <ele>28.6</ele>
    <time>2019-09-08T08:56:12Z</time>
   </trkpt>
   <trkpt lat="51.2335540" lon="5.7410750">
    <ele>28.6</ele>
    <time>2019-09-08T08:56:13Z</time>
   </trkpt>
   <trkpt lat="51.2334930" lon="5.7410970">
    <ele>28.6</ele>
    <time>2019-09-08T08:56:14Z</time>
   </trkpt>
   <trkpt lat="51.2334250" lon="5.7411210">
    <ele>28.6</ele>
    <time>2019-09-08T08:56:15Z</time>
   </trkpt>
   <trkpt lat="51.2333530" lon="5.7411600">
    <ele>28.6</ele>
    <time>2019-09-08T08:56:16Z</time>
   </trkpt>
   <trkpt lat="51.2332820" lon="5.7411810">
    <ele>28.6</ele>
    <time>2019-09-08T08:56:17Z</time>
   </trkpt>
   <trkpt lat="51.2332210" lon="5.7412070">
    <ele>28.6</ele>
    <time>2019-09-08T08:56:18Z</time>
   </trkpt>
   <trkpt lat="51.2331590" lon="5.7412360">
    <ele>28.6</ele>
    <time>2019-09-08T08:56:19Z</time>
   </trkpt>
   <trkpt lat="51.2330900" lon="5.7412420">
    <ele>28.7</ele>
    <time>2019-09-08T08:56:20Z</time>
   </trkpt>
   <trkpt lat="51.2330260" lon="5.7412370">
    <ele>28.7</ele>
    <time>2019-09-08T08:56:21Z</time>
   </trkpt>
   <trkpt lat="51.2329540" lon="5.7412100">
    <ele>28.8</ele>
    <time>2019-09-08T08:56:22Z</time>
   </trkpt>
   <trkpt lat="51.2328920" lon="5.7411670">
    <ele>28.8</ele>
    <time>2019-09-08T08:56:23Z</time>
   </trkpt>
   <trkpt lat="51.2328270" lon="5.7411260">
    <ele>28.9</ele>
    <time>2019-09-08T08:56:24Z</time>
   </trkpt>
   <trkpt lat="51.2327630" lon="5.7410830">
    <ele>29.0</ele>
    <time>2019-09-08T08:56:25Z</time>
   </trkpt>
   <trkpt lat="51.2326940" lon="5.7410390">
    <ele>29.1</ele>
    <time>2019-09-08T08:56:26Z</time>
   </trkpt>
   <trkpt lat="51.2326330" lon="5.7410000">
    <ele>29.2</ele>
    <time>2019-09-08T08:56:27Z</time>
   </trkpt>
   <trkpt lat="51.2325590" lon="5.7409470">
    <ele>29.3</ele>
    <time>2019-09-08T08:56:28Z</time>
   </trkpt>
   <trkpt lat="51.2324900" lon="5.7409110">
    <ele>29.4</ele>
    <time>2019-09-08T08:56:29Z</time>
   </trkpt>
   <trkpt lat="51.2324280" lon="5.7408800">
    <ele>29.4</ele>
    <time>2019-09-08T08:56:30Z</time>
   </trkpt>
   <trkpt lat="51.2323600" lon="5.7408490">
    <ele>29.5</ele>
    <time>2019-09-08T08:56:31Z</time>
   </trkpt>
   <trkpt lat="51.2322910" lon="5.7408060">
    <ele>29.6</ele>
    <time>2019-09-08T08:56:32Z</time>
   </trkpt>
   <trkpt lat="51.2322240" lon="5.7407610">
    <ele>29.7</ele>
    <time>2019-09-08T08:56:33Z</time>
   </trkpt>
   <trkpt lat="51.2321630" lon="5.7407270">
    <ele>29.7</ele>
    <time>2019-09-08T08:56:34Z</time>
   </trkpt>
   <trkpt lat="51.2320980" lon="5.7406730">
    <ele>29.8</ele>
    <time>2019-09-08T08:56:35Z</time>
   </trkpt>
   <trkpt lat="51.2320280" lon="5.7406330">
    <ele>29.9</ele>
    <time>2019-09-08T08:56:36Z</time>
   </trkpt>
   <trkpt lat="51.2319680" lon="5.7406000">
    <ele>30.0</ele>
    <time>2019-09-08T08:56:37Z</time>
   </trkpt>
   <trkpt lat="51.2319010" lon="5.7405630">
    <ele>30.1</ele>
    <time>2019-09-08T08:56:38Z</time>
   </trkpt>
   <trkpt lat="51.2318330" lon="5.7405160">
    <ele>30.2</ele>
    <time>2019-09-08T08:56:39Z</time>
   </trkpt>
   <trkpt lat="51.2317630" lon="5.7404700">
    <ele>30.3</ele>
    <time>2019-09-08T08:56:40Z</time>
   </trkpt>
   <trkpt lat="51.2316870" lon="5.7404250">
    <ele>30.4</ele>
    <time>2019-09-08T08:56:41Z</time>
   </trkpt>
   <trkpt lat="51.2316200" lon="5.7403760">
    <ele>30.5</ele>
    <time>2019-09-08T08:56:42Z</time>
   </trkpt>
   <trkpt lat="51.2315540" lon="5.7403370">
    <ele>30.6</ele>
    <time>2019-09-08T08:56:43Z</time>
   </trkpt>
   <trkpt lat="51.2314890" lon="5.7402970">
    <ele>30.7</ele>
    <time>2019-09-08T08:56:44Z</time>
   </trkpt>
   <trkpt lat="51.2314250" lon="5.7402600">
    <ele>30.7</ele>
    <time>2019-09-08T08:56:45Z</time>
   </trkpt>
   <trkpt lat="51.2313630" lon="5.7402160">
    <ele>30.7</ele>
    <time>2019-09-08T08:56:46Z</time>
   </trkpt>
   <trkpt lat="51.2313000" lon="5.7401690">
    <ele>30.8</ele>
    <time>2019-09-08T08:56:47Z</time>
   </trkpt>
   <trkpt lat="51.2312320" lon="5.7401320">
    <ele>30.8</ele>
    <time>2019-09-08T08:56:48Z</time>
   </trkpt>
   <trkpt lat="51.2311670" lon="5.7400850">
    <ele>30.9</ele>
    <time>2019-09-08T08:56:49Z</time>
   </trkpt>
   <trkpt lat="51.2311020" lon="5.7400450">
    <ele>30.9</ele>
    <time>2019-09-08T08:56:50Z</time>
   </trkpt>
   <trkpt lat="51.2310350" lon="5.7400020">
    <ele>31.0</ele>
    <time>2019-09-08T08:56:51Z</time>
   </trkpt>
   <trkpt lat="51.2309710" lon="5.7399610">
    <ele>30.9</ele>
    <time>2019-09-08T08:56:52Z</time>
   </trkpt>
   <trkpt lat="51.2309040" lon="5.7399200">
    <ele>30.9</ele>
    <time>2019-09-08T08:56:53Z</time>
   </trkpt>
   <trkpt lat="51.2308340" lon="5.7398800">
    <ele>30.8</ele>
    <time>2019-09-08T08:56:54Z</time>
   </trkpt>
   <trkpt lat="51.2307700" lon="5.7398410">
    <ele>30.8</ele>
    <time>2019-09-08T08:56:55Z</time>
   </trkpt>
   <trkpt lat="51.2307020" lon="5.7398000">
    <ele>30.8</ele>
    <time>2019-09-08T08:56:56Z</time>
   </trkpt>
   <trkpt lat="51.2306310" lon="5.7397650">
    <ele>30.7</ele>
    <time>2019-09-08T08:56:57Z</time>
   </trkpt>
   <trkpt lat="51.2305640" lon="5.7397200">
    <ele>30.7</ele>
    <time>2019-09-08T08:56:58Z</time>
   </trkpt>
   <trkpt lat="51.2304970" lon="5.7396800">
    <ele>30.6</ele>
    <time>2019-09-08T08:56:59Z</time>
   </trkpt>
   <trkpt lat="51.2304280" lon="5.7396390">
    <ele>30.6</ele>
    <time>2019-09-08T08:57:00Z</time>
   </trkpt>
   <trkpt lat="51.2303610" lon="5.7396000">
    <ele>30.6</ele>
    <time>2019-09-08T08:57:01Z</time>
   </trkpt>
   <trkpt lat="51.2302960" lon="5.7395600">
    <ele>30.5</ele>
    <time>2019-09-08T08:57:02Z</time>
   </trkpt>
   <trkpt lat="51.2302350" lon="5.7395170">
    <ele>30.5</ele>
    <time>2019-09-08T08:57:03Z</time>
   </trkpt>
   <trkpt lat="51.2301690" lon="5.7394700">
    <ele>30.4</ele>
    <time>2019-09-08T08:57:04Z</time>
   </trkpt>
   <trkpt lat="51.2301010" lon="5.7394310">
    <ele>30.4</ele>
    <time>2019-09-08T08:57:05Z</time>
   </trkpt>
   <trkpt lat="51.2300380" lon="5.7393900">
    <ele>30.4</ele>
    <time>2019-09-08T08:57:06Z</time>
   </trkpt>
   <trkpt lat="51.2299690" lon="5.7393510">
    <ele>30.3</ele>
    <time>2019-09-08T08:57:07Z</time>
   </trkpt>
   <trkpt lat="51.2299040" lon="5.7393080">
    <ele>30.3</ele>
    <time>2019-09-08T08:57:08Z</time>
   </trkpt>
   <trkpt lat="51.2298400" lon="5.7392730">
    <ele>30.2</ele>
    <time>2019-09-08T08:57:09Z</time>
   </trkpt>
   <trkpt lat="51.2297690" lon="5.7392330">
    <ele>30.2</ele>
    <time>2019-09-08T08:57:10Z</time>
   </trkpt>
   <trkpt lat="51.2296990" lon="5.7391930">
    <ele>30.1</ele>
    <time>2019-09-08T08:57:11Z</time>
   </trkpt>
   <trkpt lat="51.2296330" lon="5.7391530">
    <ele>30.1</ele>
    <time>2019-09-08T08:57:12Z</time>
   </trkpt>
   <trkpt lat="51.2295630" lon="5.7391140">
    <ele>30.0</ele>
    <time>2019-09-08T08:57:13Z</time>
   </trkpt>
   <trkpt lat="51.2294950" lon="5.7390770">
    <ele>30.0</ele>
    <time>2019-09-08T08:57:14Z</time>
   </trkpt>
   <trkpt lat="51.2294300" lon="5.7390480">
    <ele>29.9</ele>
    <time>2019-09-08T08:57:15Z</time>
   </trkpt>
   <trkpt lat="51.2293420" lon="5.7389950">
    <ele>29.9</ele>
    <time>2019-09-08T08:57:16Z</time>
   </trkpt>
   <trkpt lat="51.2292660" lon="5.7389510">
    <ele>29.9</ele>
    <time>2019-09-08T08:57:17Z</time>
   </trkpt>
   <trkpt lat="51.2292030" lon="5.7389070">
    <ele>29.8</ele>
    <time>2019-09-08T08:57:18Z</time>
   </trkpt>
   <trkpt lat="51.2291380" lon="5.7388470">
    <ele>29.8</ele>
    <time>2019-09-08T08:57:19Z</time>
   </trkpt>
   <trkpt lat="51.2290730" lon="5.7387940">
    <ele>29.8</ele>
    <time>2019-09-08T08:57:20Z</time>
   </trkpt>
   <trkpt lat="51.2290090" lon="5.7387400">
    <ele>29.8</ele>
    <time>2019-09-08T08:57:21Z</time>
   </trkpt>
   <trkpt lat="51.2289370" lon="5.7386900">
    <ele>29.7</ele>
    <time>2019-09-08T08:57:22Z</time>
   </trkpt>
   <trkpt lat="51.2288760" lon="5.7386200">
    <ele>29.7</ele>
    <time>2019-09-08T08:57:23Z</time>
   </trkpt>
   <trkpt lat="51.2288080" lon="5.7385910">
    <ele>29.7</ele>
    <time>2019-09-08T08:57:24Z</time>
   </trkpt>
   <trkpt lat="51.2287440" lon="5.7385320">
    <ele>29.7</ele>
    <time>2019-09-08T08:57:25Z</time>
   </trkpt>
   <trkpt lat="51.2286830" lon="5.7384600">
    <ele>29.7</ele>
    <time>2019-09-08T08:57:26Z</time>
   </trkpt>
   <trkpt lat="51.2286200" lon="5.7384050">
    <ele>29.7</ele>
    <time>2019-09-08T08:57:27Z</time>
   </trkpt>
   <trkpt lat="51.2285560" lon="5.7383510">
    <ele>29.6</ele>
    <time>2019-09-08T08:57:28Z</time>
   </trkpt>
   <trkpt lat="51.2284930" lon="5.7383000">
    <ele>29.6</ele>
    <time>2019-09-08T08:57:29Z</time>
   </trkpt>
   <trkpt lat="51.2284290" lon="5.7382480">
    <ele>29.6</ele>
    <time>2019-09-08T08:57:30Z</time>
   </trkpt>
   <trkpt lat="51.2283670" lon="5.7382070">
    <ele>29.5</ele>
    <time>2019-09-08T08:57:31Z</time>
   </trkpt>
   <trkpt lat="51.2283060" lon="5.7381590">
    <ele>29.5</ele>
    <time>2019-09-08T08:57:32Z</time>
   </trkpt>
   <trkpt lat="51.2282370" lon="5.7381080">
    <ele>29.5</ele>
    <time>2019-09-08T08:57:33Z</time>
   </trkpt>
   <trkpt lat="51.2281780" lon="5.7380560">
    <ele>29.4</ele>
    <time>2019-09-08T08:57:34Z</time>
   </trkpt>
   <trkpt lat="51.2281130" lon="5.7380090">
    <ele>29.4</ele>
    <time>2019-09-08T08:57:35Z</time>
   </trkpt>
   <trkpt lat="51.2280450" lon="5.7379590">
    <ele>29.4</ele>
    <time>2019-09-08T08:57:36Z</time>
   </trkpt>
   <trkpt lat="51.2279740" lon="5.7378890">
    <ele>29.3</ele>
    <time>2019-09-08T08:57:37Z</time>
   </trkpt>
   <trkpt lat="51.2279050" lon="5.7378560">
    <ele>29.3</ele>
    <time>2019-09-08T08:57:38Z</time>
   </trkpt>
   <trkpt lat="51.2278370" lon="5.7378050">
    <ele>29.2</ele>
    <time>2019-09-08T08:57:39Z</time>
   </trkpt>
   <trkpt lat="51.2277710" lon="5.7377550">
    <ele>29.2</ele>
    <time>2019-09-08T08:57:40Z</time>
   </trkpt>
   <trkpt lat="51.2277170" lon="5.7376570">
    <ele>29.2</ele>
    <time>2019-09-08T08:57:41Z</time>
   </trkpt>
   <trkpt lat="51.2276380" lon="5.7375900">
    <ele>29.1</ele>
    <time>2019-09-08T08:57:42Z</time>
   </trkpt>
   <trkpt lat="51.2275760" lon="5.7375370">
    <ele>29.1</ele>
    <time>2019-09-08T08:57:43Z</time>
   </trkpt>
   <trkpt lat="51.2275110" lon="5.7374940">
    <ele>29.0</ele>
    <time>2019-09-08T08:57:44Z</time>
   </trkpt>
   <trkpt lat="51.2274460" lon="5.7374400">
    <ele>29.0</ele>
    <time>2019-09-08T08:57:45Z</time>
   </trkpt>
   <trkpt lat="51.2273870" lon="5.7373640">
    <ele>29.0</ele>
    <time>2019-09-08T08:57:46Z</time>
   </trkpt>
   <trkpt lat="51.2273220" lon="5.7373070">
    <ele>29.0</ele>
    <time>2019-09-08T08:57:47Z</time>
   </trkpt>
   <trkpt lat="51.2272680" lon="5.7372370">
    <ele>29.0</ele>
    <time>2019-09-08T08:57:48Z</time>
   </trkpt>
   <trkpt lat="51.2272060" lon="5.7371900">
    <ele>29.0</ele>
    <time>2019-09-08T08:57:49Z</time>
   </trkpt>
   <trkpt lat="51.2271490" lon="5.7371240">
    <ele>28.9</ele>
    <time>2019-09-08T08:57:50Z</time>
   </trkpt>
   <trkpt lat="51.2270830" lon="5.7370670">
    <ele>28.9</ele>
    <time>2019-09-08T08:57:51Z</time>
   </trkpt>
   <trkpt lat="51.2270200" lon="5.7370080">
    <ele>28.9</ele>
    <time>2019-09-08T08:57:52Z</time>
   </trkpt>
   <trkpt lat="51.2269600" lon="5.7369550">
    <ele>28.9</ele>
    <time>2019-09-08T08:57:53Z</time>
   </trkpt>
   <trkpt lat="51.2268980" lon="5.7368930">
    <ele>28.9</ele>
    <time>2019-09-08T08:57:54Z</time>
   </trkpt>
   <trkpt lat="51.2268360" lon="5.7368420">
    <ele>28.9</ele>
    <time>2019-09-08T08:57:55Z</time>
   </trkpt>
   <trkpt lat="51.2267700" lon="5.7367900">
    <ele>28.9</ele>
    <time>2019-09-08T08:57:56Z</time>
   </trkpt>
   <trkpt lat="51.2267050" lon="5.7367310">
    <ele>28.9</ele>
    <time>2019-09-08T08:57:57Z</time>
   </trkpt>
   <trkpt lat="51.2266410" lon="5.7366750">
    <ele>28.9</ele>
    <time>2019-09-08T08:57:58Z</time>
   </trkpt>
   <trkpt lat="51.2265770" lon="5.7366180">
    <ele>28.9</ele>
    <time>2019-09-08T08:57:59Z</time>
   </trkpt>
   <trkpt lat="51.2265200" lon="5.7365570">
    <ele>28.9</ele>
    <time>2019-09-08T08:58:00Z</time>
   </trkpt>
   <trkpt lat="51.2264580" lon="5.7365170">
    <ele>28.9</ele>
    <time>2019-09-08T08:58:01Z</time>
   </trkpt>
   <trkpt lat="51.2263980" lon="5.7364670">
    <ele>28.9</ele>
    <time>2019-09-08T08:58:02Z</time>
   </trkpt>
   <trkpt lat="51.2263400" lon="5.7364160">
    <ele>28.9</ele>
    <time>2019-09-08T08:58:03Z</time>
   </trkpt>
   <trkpt lat="51.2262740" lon="5.7363590">
    <ele>28.9</ele>
    <time>2019-09-08T08:58:04Z</time>
   </trkpt>
   <trkpt lat="51.2262070" lon="5.7363070">
    <ele>28.9</ele>
    <time>2019-09-08T08:58:05Z</time>
   </trkpt>
   <trkpt lat="51.2261410" lon="5.7362480">
    <ele>28.9</ele>
    <time>2019-09-08T08:58:06Z</time>
   </trkpt>
   <trkpt lat="51.2260750" lon="5.7361910">
    <ele>28.9</ele>
    <time>2019-09-08T08:58:07Z</time>
   </trkpt>
   <trkpt lat="51.2260080" lon="5.7361320">
    <ele>28.9</ele>
    <time>2019-09-08T08:58:08Z</time>
   </trkpt>
   <trkpt lat="51.2259510" lon="5.7360840">
    <ele>28.9</ele>
    <time>2019-09-08T08:58:09Z</time>
   </trkpt>
   <trkpt lat="51.2258830" lon="5.7360250">
    <ele>28.9</ele>
    <time>2019-09-08T08:58:10Z</time>
   </trkpt>
   <trkpt lat="51.2258120" lon="5.7359720">
    <ele>28.9</ele>
    <time>2019-09-08T08:58:11Z</time>
   </trkpt>
   <trkpt lat="51.2257470" lon="5.7359150">
    <ele>28.9</ele>
    <time>2019-09-08T08:58:12Z</time>
   </trkpt>
   <trkpt lat="51.2256820" lon="5.7358620">
    <ele>28.9</ele>
    <time>2019-09-08T08:58:13Z</time>
   </trkpt>
   <trkpt lat="51.2256120" lon="5.7358100">
    <ele>28.9</ele>
    <time>2019-09-08T08:58:14Z</time>
   </trkpt>
   <trkpt lat="51.2255460" lon="5.7357620">
    <ele>28.9</ele>
    <time>2019-09-08T08:58:15Z</time>
   </trkpt>
   <trkpt lat="51.2254810" lon="5.7357050">
    <ele>28.9</ele>
    <time>2019-09-08T08:58:16Z</time>
   </trkpt>
   <trkpt lat="51.2254200" lon="5.7356440">
    <ele>28.9</ele>
    <time>2019-09-08T08:58:17Z</time>
   </trkpt>
   <trkpt lat="51.2253530" lon="5.7355940">
    <ele>28.9</ele>
    <time>2019-09-08T08:58:18Z</time>
   </trkpt>
   <trkpt lat="51.2252740" lon="5.7355350">
    <ele>28.9</ele>
    <time>2019-09-08T08:58:19Z</time>
   </trkpt>
   <trkpt lat="51.2252100" lon="5.7354850">
    <ele>28.9</ele>
    <time>2019-09-08T08:58:20Z</time>
   </trkpt>
   <trkpt lat="51.2251450" lon="5.7354260">
    <ele>29.0</ele>
    <time>2019-09-08T08:58:21Z</time>
   </trkpt>
   <trkpt lat="51.2250840" lon="5.7353670">
    <ele>29.0</ele>
    <time>2019-09-08T08:58:22Z</time>
   </trkpt>
   <trkpt lat="51.2250230" lon="5.7353260">
    <ele>29.0</ele>
    <time>2019-09-08T08:58:23Z</time>
   </trkpt>
   <trkpt lat="51.2249590" lon="5.7352740">
    <ele>29.1</ele>
    <time>2019-09-08T08:58:24Z</time>
   </trkpt>
   <trkpt lat="51.2248950" lon="5.7352280">
    <ele>29.1</ele>
    <time>2019-09-08T08:58:25Z</time>
   </trkpt>
   <trkpt lat="51.2248340" lon="5.7351850">
    <ele>29.1</ele>
    <time>2019-09-08T08:58:26Z</time>
   </trkpt>
   <trkpt lat="51.2247720" lon="5.7351320">
    <ele>29.2</ele>
    <time>2019-09-08T08:58:27Z</time>
   </trkpt>
   <trkpt lat="51.2247080" lon="5.7350810">
    <ele>29.2</ele>
    <time>2019-09-08T08:58:28Z</time>
   </trkpt>
   <trkpt lat="51.2246460" lon="5.7350210">
    <ele>29.3</ele>
    <time>2019-09-08T08:58:29Z</time>
   </trkpt>
   <trkpt lat="51.2245850" lon="5.7349490">
    <ele>29.3</ele>
    <time>2019-09-08T08:58:30Z</time>
   </trkpt>
   <trkpt lat="51.2245300" lon="5.7349080">
    <ele>29.3</ele>
    <time>2019-09-08T08:58:31Z</time>
   </trkpt>
   <trkpt lat="51.2244740" lon="5.7348390">
    <ele>29.3</ele>
    <time>2019-09-08T08:58:32Z</time>
   </trkpt>
   <trkpt lat="51.2244190" lon="5.7347900">
    <ele>29.3</ele>
    <time>2019-09-08T08:58:33Z</time>
   </trkpt>
   <trkpt lat="51.2243540" lon="5.7347310">
    <ele>29.3</ele>
    <time>2019-09-08T08:58:34Z</time>
   </trkpt>
   <trkpt lat="51.2242920" lon="5.7346690">
    <ele>29.3</ele>
    <time>2019-09-08T08:58:35Z</time>
   </trkpt>
   <trkpt lat="51.2242560" lon="5.7346280">
    <ele>29.3</ele>
    <time>2019-09-08T08:58:36Z</time>
   </trkpt>
   <trkpt lat="51.2242140" lon="5.7345700">
    <ele>29.3</ele>
    <time>2019-09-08T08:58:37Z</time>
   </trkpt>
   <trkpt lat="51.2241780" lon="5.7345050">
    <ele>29.3</ele>
    <time>2019-09-08T08:58:38Z</time>
   </trkpt>
   <trkpt lat="51.2241630" lon="5.7344190">
    <ele>29.3</ele>
    <time>2019-09-08T08:58:39Z</time>
   </trkpt>
   <trkpt lat="51.2241800" lon="5.7343350">
    <ele>29.3</ele>
    <time>2019-09-08T08:58:40Z</time>
   </trkpt>
   <trkpt lat="51.2242090" lon="5.7342610">
    <ele>29.4</ele>
    <time>2019-09-08T08:58:41Z</time>
   </trkpt>
   <trkpt lat="51.2242570" lon="5.7342100">
    <ele>29.4</ele>
    <time>2019-09-08T08:58:42Z</time>
   </trkpt>
   <trkpt lat="51.2243180" lon="5.7341470">
    <ele>29.4</ele>
    <time>2019-09-08T08:58:43Z</time>
   </trkpt>
   <trkpt lat="51.2243750" lon="5.7341000">
    <ele>29.5</ele>
    <time>2019-09-08T08:58:44Z</time>
   </trkpt>
   <trkpt lat="51.2244320" lon="5.7340570">
    <ele>29.5</ele>
    <time>2019-09-08T08:58:45Z</time>
   </trkpt>
   <trkpt lat="51.2244870" lon="5.7340150">
    <ele>29.5</ele>
    <time>2019-09-08T08:58:46Z</time>
   </trkpt>
   <trkpt lat="51.2245470" lon="5.7339700">
    <ele>29.5</ele>
    <time>2019-09-08T08:58:47Z</time>
   </trkpt>
   <trkpt lat="51.2246050" lon="5.7339160">
    <ele>29.6</ele>
    <time>2019-09-08T08:58:48Z</time>
   </trkpt>
   <trkpt lat="51.2246690" lon="5.7338590">
    <ele>29.6</ele>
    <time>2019-09-08T08:58:49Z</time>
   </trkpt>
   <trkpt lat="51.2247330" lon="5.7337770">
    <ele>29.7</ele>
    <time>2019-09-08T08:58:50Z</time>
   </trkpt>
   <trkpt lat="51.2247810" lon="5.7337160">
    <ele>29.7</ele>
    <time>2019-09-08T08:58:51Z</time>
   </trkpt>
   <trkpt lat="51.2248400" lon="5.7336480">
    <ele>29.7</ele>
    <time>2019-09-08T08:58:52Z</time>
   </trkpt>
   <trkpt lat="51.2248900" lon="5.7335840">
    <ele>29.8</ele>
    <time>2019-09-08T08:58:53Z</time>
   </trkpt>
   <trkpt lat="51.2249500" lon="5.7335310">
    <ele>29.8</ele>
    <time>2019-09-08T08:58:54Z</time>
   </trkpt>
   <trkpt lat="51.2250090" lon="5.7334650">
    <ele>29.8</ele>
    <time>2019-09-08T08:58:55Z</time>
   </trkpt>
   <trkpt lat="51.2250690" lon="5.7334080">
    <ele>29.8</ele>
    <time>2019-09-08T08:58:56Z</time>
   </trkpt>
   <trkpt lat="51.2251300" lon="5.7333380">
    <ele>29.9</ele>
    <time>2019-09-08T08:58:57Z</time>
   </trkpt>
   <trkpt lat="51.2251850" lon="5.7332660">
    <ele>29.9</ele>
    <time>2019-09-08T08:58:58Z</time>
   </trkpt>
   <trkpt lat="51.2252470" lon="5.7332100">
    <ele>29.9</ele>
    <time>2019-09-08T08:58:59Z</time>
   </trkpt>
   <trkpt lat="51.2253070" lon="5.7331270">
    <ele>29.9</ele>
    <time>2019-09-08T08:59:00Z</time>
   </trkpt>
   <trkpt lat="51.2253750" lon="5.7330610">
    <ele>29.9</ele>
    <time>2019-09-08T08:59:01Z</time>
   </trkpt>
   <trkpt lat="51.2254310" lon="5.7329990">
    <ele>29.9</ele>
    <time>2019-09-08T08:59:02Z</time>
   </trkpt>
   <trkpt lat="51.2254890" lon="5.7329350">
    <ele>29.9</ele>
    <time>2019-09-08T08:59:03Z</time>
   </trkpt>
   <trkpt lat="51.2255500" lon="5.7328770">
    <ele>30.0</ele>
    <time>2019-09-08T08:59:04Z</time>
   </trkpt>
   <trkpt lat="51.2256070" lon="5.7328050">
    <ele>30.0</ele>
    <time>2019-09-08T08:59:05Z</time>
   </trkpt>
   <trkpt lat="51.2256700" lon="5.7327340">
    <ele>30.1</ele>
    <time>2019-09-08T08:59:06Z</time>
   </trkpt>
   <trkpt lat="51.2257240" lon="5.7326650">
    <ele>30.2</ele>
    <time>2019-09-08T08:59:07Z</time>
   </trkpt>
   <trkpt lat="51.2257780" lon="5.7326270">
    <ele>30.2</ele>
    <time>2019-09-08T08:59:08Z</time>
   </trkpt>
   <trkpt lat="51.2258310" lon="5.7325610">
    <ele>30.3</ele>
    <time>2019-09-08T08:59:09Z</time>
   </trkpt>
   <trkpt lat="51.2258760" lon="5.7324950">
    <ele>30.3</ele>
    <time>2019-09-08T08:59:10Z</time>
   </trkpt>
   <trkpt lat="51.2259230" lon="5.7324340">
    <ele>30.3</ele>
    <time>2019-09-08T08:59:11Z</time>
   </trkpt>
   <trkpt lat="51.2259730" lon="5.7323890">
    <ele>30.4</ele>
    <time>2019-09-08T08:59:12Z</time>
   </trkpt>
   <trkpt lat="51.2260190" lon="5.7323320">
    <ele>30.4</ele>
    <time>2019-09-08T08:59:13Z</time>
   </trkpt>
   <trkpt lat="51.2260650" lon="5.7322670">
    <ele>30.4</ele>
    <time>2019-09-08T08:59:14Z</time>
   </trkpt>
   <trkpt lat="51.2260970" lon="5.7322030">
    <ele>30.4</ele>
    <time>2019-09-08T08:59:15Z</time>
   </trkpt>
   <trkpt lat="51.2261150" lon="5.7321240">
    <ele>30.5</ele>
    <time>2019-09-08T08:59:16Z</time>
   </trkpt>
   <trkpt lat="51.2260980" lon="5.7320330">
    <ele>30.4</ele>
    <time>2019-09-08T08:59:17Z</time>
   </trkpt>
   <trkpt lat="51.2260630" lon="5.7319480">
    <ele>30.4</ele>
    <time>2019-09-08T08:59:18Z</time>
   </trkpt>
   <trkpt lat="51.2260050" lon="5.7318680">
    <ele>30.4</ele>
    <time>2019-09-08T08:59:19Z</time>
   </trkpt>
   <trkpt lat="51.2259660" lon="5.7317800">
    <ele>30.3</ele>
    <time>2019-09-08T08:59:20Z</time>
   </trkpt>
   <trkpt lat="51.2259330" lon="5.7316760">
    <ele>30.3</ele>
    <time>2019-09-08T08:59:21Z</time>
   </trkpt>
   <trkpt lat="51.2259070" lon="5.7315660">
    <ele>30.3</ele>
    <time>2019-09-08T08:59:22Z</time>
   </trkpt>
   <trkpt lat="51.2258950" lon="5.7314480">
    <ele>30.3</ele>
    <time>2019-09-08T08:59:23Z</time>
   </trkpt>
   <trkpt lat="51.2258830" lon="5.7313290">
    <ele>30.3</ele>
    <time>2019-09-08T08:59:24Z</time>
   </trkpt>
   <trkpt lat="51.2258660" lon="5.7312220">
    <ele>30.3</ele>
    <time>2019-09-08T08:59:25Z</time>
   </trkpt>
   <trkpt lat="51.2258520" lon="5.7311100">
    <ele>30.3</ele>
    <time>2019-09-08T08:59:26Z</time>
   </trkpt>
   <trkpt lat="51.2258390" lon="5.7310080">
    <ele>30.3</ele>
    <time>2019-09-08T08:59:27Z</time>
   </trkpt>
   <trkpt lat="51.2258260" lon="5.7309000">
    <ele>30.4</ele>
    <time>2019-09-08T08:59:28Z</time>
   </trkpt>
   <trkpt lat="51.2258080" lon="5.7307990">
    <ele>30.4</ele>
    <time>2019-09-08T08:59:29Z</time>
   </trkpt>
   <trkpt lat="51.2258050" lon="5.7306790">
    <ele>30.4</ele>
    <time>2019-09-08T08:59:30Z</time>
   </trkpt>
   <trkpt lat="51.2257930" lon="5.7305690">
    <ele>30.4</ele>
    <time>2019-09-08T08:59:31Z</time>
   </trkpt>
   <trkpt lat="51.2257820" lon="5.7304620">
    <ele>30.5</ele>
    <time>2019-09-08T08:59:32Z</time>
   </trkpt>
   <trkpt lat="51.2257710" lon="5.7303580">
    <ele>30.5</ele>
    <time>2019-09-08T08:59:33Z</time>
   </trkpt>
   <trkpt lat="51.2257620" lon="5.7302440">
    <ele>30.5</ele>
    <time>2019-09-08T08:59:34Z</time>
   </trkpt>
   <trkpt lat="51.2257530" lon="5.7301360">
    <ele>30.5</ele>
    <time>2019-09-08T08:59:35Z</time>
   </trkpt>
   <trkpt lat="51.2257430" lon="5.7300270">
    <ele>30.5</ele>
    <time>2019-09-08T08:59:36Z</time>
   </trkpt>
   <trkpt lat="51.2257360" lon="5.7299310">
    <ele>30.5</ele>
    <time>2019-09-08T08:59:37Z</time>
   </trkpt>
   <trkpt lat="51.2257180" lon="5.7298370">
    <ele>30.6</ele>
    <time>2019-09-08T08:59:38Z</time>
   </trkpt>
   <trkpt lat="51.2256990" lon="5.7297390">
    <ele>30.6</ele>
    <time>2019-09-08T08:59:39Z</time>
   </trkpt>
   <trkpt lat="51.2256890" lon="5.7296160">
    <ele>30.6</ele>
    <time>2019-09-08T08:59:40Z</time>
   </trkpt>
   <trkpt lat="51.2256750" lon="5.7295060">
    <ele>30.6</ele>
    <time>2019-09-08T08:59:41Z</time>
   </trkpt>
   <trkpt lat="51.2256660" lon="5.7293890">
    <ele>30.6</ele>
    <time>2019-09-08T08:59:42Z</time>
   </trkpt>
   <trkpt lat="51.2256600" lon="5.7292790">
    <ele>30.6</ele>
    <time>2019-09-08T08:59:43Z</time>
   </trkpt>
   <trkpt lat="51.2256350" lon="5.7291870">
    <ele>30.6</ele>
    <time>2019-09-08T08:59:44Z</time>
   </trkpt>
   <trkpt lat="51.2256310" lon="5.7290730">
    <ele>30.6</ele>
    <time>2019-09-08T08:59:45Z</time>
   </trkpt>
   <trkpt lat="51.2256190" lon="5.7289580">
    <ele>30.7</ele>
    <time>2019-09-08T08:59:46Z</time>
   </trkpt>
   <trkpt lat="51.2255960" lon="5.7288540">
    <ele>30.7</ele>
    <time>2019-09-08T08:59:47Z</time>
   </trkpt>
   <trkpt lat="51.2255900" lon="5.7287390">
    <ele>30.8</ele>
    <time>2019-09-08T08:59:48Z</time>
   </trkpt>
   <trkpt lat="51.2255790" lon="5.7286430">
    <ele>30.8</ele>
    <time>2019-09-08T08:59:49Z</time>
   </trkpt>
   <trkpt lat="51.2255630" lon="5.7285450">
    <ele>30.9</ele>
    <time>2019-09-08T08:59:50Z</time>
   </trkpt>
   <trkpt lat="51.2255490" lon="5.7284520">
    <ele>30.9</ele>
    <time>2019-09-08T08:59:51Z</time>
   </trkpt>
   <trkpt lat="51.2255490" lon="5.7283550">
    <ele>30.9</ele>
    <time>2019-09-08T08:59:52Z</time>
   </trkpt>
   <trkpt lat="51.2255600" lon="5.7282580">
    <ele>30.9</ele>
    <time>2019-09-08T08:59:53Z</time>
   </trkpt>
   <trkpt lat="51.2255900" lon="5.7281510">
    <ele>30.9</ele>
    <time>2019-09-08T08:59:54Z</time>
   </trkpt>
   <trkpt lat="51.2256420" lon="5.7280540">
    <ele>30.9</ele>
    <time>2019-09-08T08:59:55Z</time>
   </trkpt>
   <trkpt lat="51.2256920" lon="5.7280220">
    <ele>30.9</ele>
    <time>2019-09-08T08:59:56Z</time>
   </trkpt>
   <trkpt lat="51.2257470" lon="5.7279950">
    <ele>30.9</ele>
    <time>2019-09-08T08:59:57Z</time>
   </trkpt>
   <trkpt lat="51.2258060" lon="5.7279540">
    <ele>30.9</ele>
    <time>2019-09-08T08:59:58Z</time>
   </trkpt>
   <trkpt lat="51.2258690" lon="5.7279170">
    <ele>30.8</ele>
    <time>2019-09-08T08:59:59Z</time>
   </trkpt>
   <trkpt lat="51.2259450" lon="5.7278560">
    <ele>30.7</ele>
    <time>2019-09-08T09:00:00Z</time>
   </trkpt>
   <trkpt lat="51.2260080" lon="5.7278110">
    <ele>30.6</ele>
    <time>2019-09-08T09:00:01Z</time>
   </trkpt>
   <trkpt lat="51.2260720" lon="5.7277670">
    <ele>30.5</ele>
    <time>2019-09-08T09:00:02Z</time>
   </trkpt>
   <trkpt lat="51.2261350" lon="5.7277340">
    <ele>30.4</ele>
    <time>2019-09-08T09:00:03Z</time>
   </trkpt>
   <trkpt lat="51.2261650" lon="5.7276550">
    <ele>30.3</ele>
    <time>2019-09-08T09:00:04Z</time>
   </trkpt>
   <trkpt lat="51.2262260" lon="5.7275900">
    <ele>30.1</ele>
    <time>2019-09-08T09:00:05Z</time>
   </trkpt>
   <trkpt lat="51.2262970" lon="5.7275210">
    <ele>30.0</ele>
    <time>2019-09-08T09:00:06Z</time>
   </trkpt>
   <trkpt lat="51.2263530" lon="5.7274580">
    <ele>30.0</ele>
    <time>2019-09-08T09:00:07Z</time>
   </trkpt>
   <trkpt lat="51.2264090" lon="5.7273870">
    <ele>29.9</ele>
    <time>2019-09-08T09:00:08Z</time>
   </trkpt>
   <trkpt lat="51.2264700" lon="5.7273000">
    <ele>29.8</ele>
    <time>2019-09-08T09:00:09Z</time>
   </trkpt>
   <trkpt lat="51.2265220" lon="5.7272170">
    <ele>29.8</ele>
    <time>2019-09-08T09:00:10Z</time>
   </trkpt>
   <trkpt lat="51.2265750" lon="5.7271410">
    <ele>29.7</ele>
    <time>2019-09-08T09:00:11Z</time>
   </trkpt>
   <trkpt lat="51.2266140" lon="5.7270530">
    <ele>29.7</ele>
    <time>2019-09-08T09:00:12Z</time>
   </trkpt>
   <trkpt lat="51.2266510" lon="5.7269580">
    <ele>29.7</ele>
    <time>2019-09-08T09:00:13Z</time>
   </trkpt>
   <trkpt lat="51.2266810" lon="5.7268520">
    <ele>29.6</ele>
    <time>2019-09-08T09:00:14Z</time>
   </trkpt>
   <trkpt lat="51.2267000" lon="5.7267490">
    <ele>29.6</ele>
    <time>2019-09-08T09:00:15Z</time>
   </trkpt>
   <trkpt lat="51.2267060" lon="5.7266560">
    <ele>29.6</ele>
    <time>2019-09-08T09:00:16Z</time>
   </trkpt>
   <trkpt lat="51.2267090" lon="5.7265420">
    <ele>29.5</ele>
    <time>2019-09-08T09:00:17Z</time>
   </trkpt>
   <trkpt lat="51.2267220" lon="5.7264440">
    <ele>29.5</ele>
    <time>2019-09-08T09:00:18Z</time>
   </trkpt>
   <trkpt lat="51.2267410" lon="5.7263330">
    <ele>29.5</ele>
    <time>2019-09-08T09:00:19Z</time>
   </trkpt>
   <trkpt lat="51.2267520" lon="5.7262290">
    <ele>29.5</ele>
    <time>2019-09-08T09:00:20Z</time>
   </trkpt>
   <trkpt lat="51.2267620" lon="5.7261300">
    <ele>29.5</ele>
    <time>2019-09-08T09:00:21Z</time>
   </trkpt>
   <trkpt lat="51.2267750" lon="5.7260260">
    <ele>29.4</ele>
    <time>2019-09-08T09:00:22Z</time>
   </trkpt>
   <trkpt lat="51.2267890" lon="5.7259230">
    <ele>29.4</ele>
    <time>2019-09-08T09:00:23Z</time>
   </trkpt>
   <trkpt lat="51.2268020" lon="5.7258210">
    <ele>29.4</ele>
    <time>2019-09-08T09:00:24Z</time>
   </trkpt>
   <trkpt lat="51.2268090" lon="5.7257190">
    <ele>29.4</ele>
    <time>2019-09-08T09:00:25Z</time>
   </trkpt>
   <trkpt lat="51.2268140" lon="5.7256230">
    <ele>29.4</ele>
    <time>2019-09-08T09:00:26Z</time>
   </trkpt>
   <trkpt lat="51.2268270" lon="5.7255120">
    <ele>29.4</ele>
    <time>2019-09-08T09:00:27Z</time>
   </trkpt>
   <trkpt lat="51.2268370" lon="5.7254100">
    <ele>29.4</ele>
    <time>2019-09-08T09:00:28Z</time>
   </trkpt>
   <trkpt lat="51.2268440" lon="5.7253030">
    <ele>29.4</ele>
    <time>2019-09-08T09:00:29Z</time>
   </trkpt>
   <trkpt lat="51.2268550" lon="5.7251860">
    <ele>29.4</ele>
    <time>2019-09-08T09:00:30Z</time>
   </trkpt>
   <trkpt lat="51.2268640" lon="5.7250820">
    <ele>29.5</ele>
    <time>2019-09-08T09:00:31Z</time>
   </trkpt>
   <trkpt lat="51.2268750" lon="5.7249710">
    <ele>29.5</ele>
    <time>2019-09-08T09:00:32Z</time>
   </trkpt>
   <trkpt lat="51.2268820" lon="5.7248580">
    <ele>29.5</ele>
    <time>2019-09-08T09:00:33Z</time>
   </trkpt>
   <trkpt lat="51.2268860" lon="5.7247510">
    <ele>29.5</ele>
    <time>2019-09-08T09:00:34Z</time>
   </trkpt>
   <trkpt lat="51.2268900" lon="5.7246390">
    <ele>29.5</ele>
    <time>2019-09-08T09:00:35Z</time>
   </trkpt>
   <trkpt lat="51.2268960" lon="5.7245280">
    <ele>29.4</ele>
    <time>2019-09-08T09:00:36Z</time>
   </trkpt>
   <trkpt lat="51.2268990" lon="5.7244180">
    <ele>29.4</ele>
    <time>2019-09-08T09:00:37Z</time>
   </trkpt>
   <trkpt lat="51.2269070" lon="5.7243030">
    <ele>29.4</ele>
    <time>2019-09-08T09:00:38Z</time>
   </trkpt>
   <trkpt lat="51.2269130" lon="5.7241910">
    <ele>29.4</ele>
    <time>2019-09-08T09:00:39Z</time>
   </trkpt>
   <trkpt lat="51.2269120" lon="5.7240760">
    <ele>29.4</ele>
    <time>2019-09-08T09:00:40Z</time>
   </trkpt>
   <trkpt lat="51.2269110" lon="5.7239680">
    <ele>29.4</ele>
    <time>2019-09-08T09:00:41Z</time>
   </trkpt>
   <trkpt lat="51.2269090" lon="5.7238580">
    <ele>29.4</ele>
    <time>2019-09-08T09:00:42Z</time>
   </trkpt>
   <trkpt lat="51.2269030" lon="5.7237620">
    <ele>29.3</ele>
    <time>2019-09-08T09:00:43Z</time>
   </trkpt>
   <trkpt lat="51.2268980" lon="5.7236470">
    <ele>29.3</ele>
    <time>2019-09-08T09:00:44Z</time>
   </trkpt>
   <trkpt lat="51.2268990" lon="5.7235330">
    <ele>29.3</ele>
    <time>2019-09-08T09:00:45Z</time>
   </trkpt>
   <trkpt lat="51.2269000" lon="5.7234130">
    <ele>29.3</ele>
    <time>2019-09-08T09:00:46Z</time>
   </trkpt>
   <trkpt lat="51.2268900" lon="5.7233000">
    <ele>29.2</ele>
    <time>2019-09-08T09:00:47Z</time>
   </trkpt>
   <trkpt lat="51.2268920" lon="5.7232000">
    <ele>29.2</ele>
    <time>2019-09-08T09:00:48Z</time>
   </trkpt>
   <trkpt lat="51.2268920" lon="5.7230870">
    <ele>29.2</ele>
    <time>2019-09-08T09:00:49Z</time>
   </trkpt>
   <trkpt lat="51.2268800" lon="5.7229860">
    <ele>29.2</ele>
    <time>2019-09-08T09:00:50Z</time>
   </trkpt>
   <trkpt lat="51.2268780" lon="5.7228800">
    <ele>29.2</ele>
    <time>2019-09-08T09:00:51Z</time>
   </trkpt>
   <trkpt lat="51.2268780" lon="5.7227750">
    <ele>29.2</ele>
    <time>2019-09-08T09:00:52Z</time>
   </trkpt>
   <trkpt lat="51.2268770" lon="5.7226780">
    <ele>29.2</ele>
    <time>2019-09-08T09:00:53Z</time>
   </trkpt>
   <trkpt lat="51.2268710" lon="5.7225680">
    <ele>29.3</ele>
    <time>2019-09-08T09:00:54Z</time>
   </trkpt>
   <trkpt lat="51.2268640" lon="5.7224640">
    <ele>29.3</ele>
    <time>2019-09-08T09:00:55Z</time>
   </trkpt>
   <trkpt lat="51.2268550" lon="5.7223550">
    <ele>29.3</ele>
    <time>2019-09-08T09:00:56Z</time>
   </trkpt>
   <trkpt lat="51.2268450" lon="5.7222520">
    <ele>29.4</ele>
    <time>2019-09-08T09:00:57Z</time>
   </trkpt>
   <trkpt lat="51.2268460" lon="5.7221380">
    <ele>29.5</ele>
    <time>2019-09-08T09:00:58Z</time>
   </trkpt>
   <trkpt lat="51.2268480" lon="5.7220180">
    <ele>29.5</ele>
    <time>2019-09-08T09:00:59Z</time>
   </trkpt>
   <trkpt lat="51.2268450" lon="5.7219120">
    <ele>29.6</ele>
    <time>2019-09-08T09:01:00Z</time>
   </trkpt>
   <trkpt lat="51.2268580" lon="5.7217530">
    <ele>29.6</ele>
    <time>2019-09-08T09:01:01Z</time>
   </trkpt>
   <trkpt lat="51.2268580" lon="5.7216390">
    <ele>29.7</ele>
    <time>2019-09-08T09:01:02Z</time>
   </trkpt>
   <trkpt lat="51.2268570" lon="5.7215190">
    <ele>29.7</ele>
    <time>2019-09-08T09:01:03Z</time>
   </trkpt>
   <trkpt lat="51.2268510" lon="5.7214130">
    <ele>29.8</ele>
    <time>2019-09-08T09:01:04Z</time>
   </trkpt>
   <trkpt lat="51.2268510" lon="5.7213070">
    <ele>29.8</ele>
    <time>2019-09-08T09:01:05Z</time>
   </trkpt>
   <trkpt lat="51.2268500" lon="5.7212020">
    <ele>29.8</ele>
    <time>2019-09-08T09:01:06Z</time>
   </trkpt>
   <trkpt lat="51.2268540" lon="5.7210900">
    <ele>29.8</ele>
    <time>2019-09-08T09:01:07Z</time>
   </trkpt>
   <trkpt lat="51.2268490" lon="5.7209820">
    <ele>29.9</ele>
    <time>2019-09-08T09:01:08Z</time>
   </trkpt>
   <trkpt lat="51.2268490" lon="5.7208710">
    <ele>29.9</ele>
    <time>2019-09-08T09:01:09Z</time>
   </trkpt>
   <trkpt lat="51.2268440" lon="5.7207650">
    <ele>29.9</ele>
    <time>2019-09-08T09:01:10Z</time>
   </trkpt>
   <trkpt lat="51.2268480" lon="5.7206480">
    <ele>29.9</ele>
    <time>2019-09-08T09:01:11Z</time>
   </trkpt>
   <trkpt lat="51.2268470" lon="5.7205490">
    <ele>29.9</ele>
    <time>2019-09-08T09:01:12Z</time>
   </trkpt>
   <trkpt lat="51.2268460" lon="5.7204460">
    <ele>30.0</ele>
    <time>2019-09-08T09:01:13Z</time>
   </trkpt>
   <trkpt lat="51.2268430" lon="5.7203420">
    <ele>30.1</ele>
    <time>2019-09-08T09:01:14Z</time>
   </trkpt>
   <trkpt lat="51.2268440" lon="5.7202660">
    <ele>30.1</ele>
    <time>2019-09-08T09:01:15Z</time>
   </trkpt>
   <trkpt lat="51.2268430" lon="5.7201520">
    <ele>30.2</ele>
    <time>2019-09-08T09:01:16Z</time>
   </trkpt>
   <trkpt lat="51.2268450" lon="5.7200400">
    <ele>30.3</ele>
    <time>2019-09-08T09:01:17Z</time>
   </trkpt>
   <trkpt lat="51.2268380" lon="5.7199330">
    <ele>30.4</ele>
    <time>2019-09-08T09:01:18Z</time>
   </trkpt>
   <trkpt lat="51.2268330" lon="5.7198230">
    <ele>30.4</ele>
    <time>2019-09-08T09:01:19Z</time>
   </trkpt>
   <trkpt lat="51.2268390" lon="5.7197090">
    <ele>30.5</ele>
    <time>2019-09-08T09:01:20Z</time>
   </trkpt>
   <trkpt lat="51.2268360" lon="5.7196040">
    <ele>30.5</ele>
    <time>2019-09-08T09:01:21Z</time>
   </trkpt>
   <trkpt lat="51.2268400" lon="5.7195050">
    <ele>30.5</ele>
    <time>2019-09-08T09:01:22Z</time>
   </trkpt>
   <trkpt lat="51.2268340" lon="5.7194060">
    <ele>30.5</ele>
    <time>2019-09-08T09:01:23Z</time>
   </trkpt>
   <trkpt lat="51.2268220" lon="5.7193180">
    <ele>30.6</ele>
    <time>2019-09-08T09:01:24Z</time>
   </trkpt>
   <trkpt lat="51.2268240" lon="5.7192240">
    <ele>30.6</ele>
    <time>2019-09-08T09:01:25Z</time>
   </trkpt>
   <trkpt lat="51.2268230" lon="5.7191420">
    <ele>30.7</ele>
    <time>2019-09-08T09:01:26Z</time>
   </trkpt>
   <trkpt lat="51.2268210" lon="5.7190430">
    <ele>30.8</ele>
    <time>2019-09-08T09:01:27Z</time>
   </trkpt>
   <trkpt lat="51.2268230" lon="5.7189740">
    <ele>30.9</ele>
    <time>2019-09-08T09:01:28Z</time>
   </trkpt>
   <trkpt lat="51.2268290" lon="5.7189200">
    <ele>31.0</ele>
    <time>2019-09-08T09:01:29Z</time>
   </trkpt>
   <trkpt lat="51.2268350" lon="5.7188690">
    <ele>31.2</ele>
    <time>2019-09-08T09:01:30Z</time>
   </trkpt>
   <trkpt lat="51.2268490" lon="5.7188050">
    <ele>31.4</ele>
    <time>2019-09-08T09:01:32Z</time>
   </trkpt>
   <trkpt lat="51.2268690" lon="5.7187500">
    <ele>31.7</ele>
    <time>2019-09-08T09:01:34Z</time>
   </trkpt>
   <trkpt lat="51.2268770" lon="5.7186940">
    <ele>31.7</ele>
    <time>2019-09-08T09:01:35Z</time>
   </trkpt>
   <trkpt lat="51.2268780" lon="5.7186400">
    <ele>31.8</ele>
    <time>2019-09-08T09:01:36Z</time>
   </trkpt>
   <trkpt lat="51.2268840" lon="5.7185690">
    <ele>31.8</ele>
    <time>2019-09-08T09:01:37Z</time>
   </trkpt>
   <trkpt lat="51.2269070" lon="5.7184980">
    <ele>31.8</ele>
    <time>2019-09-08T09:01:38Z</time>
   </trkpt>
   <trkpt lat="51.2269190" lon="5.7184310">
    <ele>31.9</ele>
    <time>2019-09-08T09:01:39Z</time>
   </trkpt>
   <trkpt lat="51.2269390" lon="5.7183640">
    <ele>31.9</ele>
    <time>2019-09-08T09:01:40Z</time>
   </trkpt>
   <trkpt lat="51.2269590" lon="5.7183000">
    <ele>31.9</ele>
    <time>2019-09-08T09:01:41Z</time>
   </trkpt>
   <trkpt lat="51.2269700" lon="5.7182320">
    <ele>32.0</ele>
    <time>2019-09-08T09:01:42Z</time>
   </trkpt>
   <trkpt lat="51.2269850" lon="5.7181630">
    <ele>32.0</ele>
    <time>2019-09-08T09:01:43Z</time>
   </trkpt>
   <trkpt lat="51.2270020" lon="5.7180880">
    <ele>32.0</ele>
    <time>2019-09-08T09:01:44Z</time>
   </trkpt>
   <trkpt lat="51.2270120" lon="5.7180140">
    <ele>32.0</ele>
    <time>2019-09-08T09:01:45Z</time>
   </trkpt>
   <trkpt lat="51.2270090" lon="5.7179400">
    <ele>31.9</ele>
    <time>2019-09-08T09:01:46Z</time>
   </trkpt>
   <trkpt lat="51.2270100" lon="5.7178630">
    <ele>31.8</ele>
    <time>2019-09-08T09:01:47Z</time>
   </trkpt>
   <trkpt lat="51.2270100" lon="5.7177780">
    <ele>31.7</ele>
    <time>2019-09-08T09:01:48Z</time>
   </trkpt>
   <trkpt lat="51.2270100" lon="5.7176800">
    <ele>31.6</ele>
    <time>2019-09-08T09:01:49Z</time>
   </trkpt>
   <trkpt lat="51.2270060" lon="5.7175810">
    <ele>31.5</ele>
    <time>2019-09-08T09:01:50Z</time>
   </trkpt>
   <trkpt lat="51.2270000" lon="5.7174880">
    <ele>31.5</ele>
    <time>2019-09-08T09:01:51Z</time>
   </trkpt>
   <trkpt lat="51.2269890" lon="5.7174010">
    <ele>31.5</ele>
    <time>2019-09-08T09:01:52Z</time>
   </trkpt>
   <trkpt lat="51.2269850" lon="5.7173050">
    <ele>31.5</ele>
    <time>2019-09-08T09:01:53Z</time>
   </trkpt>
   <trkpt lat="51.2269790" lon="5.7172040">
    <ele>31.6</ele>
    <time>2019-09-08T09:01:54Z</time>
   </trkpt>
   <trkpt lat="51.2269680" lon="5.7171190">
    <ele>31.6</ele>
    <time>2019-09-08T09:01:55Z</time>
   </trkpt>
   <trkpt lat="51.2269650" lon="5.7170170">
    <ele>31.7</ele>
    <time>2019-09-08T09:01:56Z</time>
   </trkpt>
   <trkpt lat="51.2269530" lon="5.7169090">
    <ele>31.8</ele>
    <time>2019-09-08T09:01:57Z</time>
   </trkpt>
   <trkpt lat="51.2269470" lon="5.7168110">
    <ele>31.9</ele>
    <time>2019-09-08T09:01:58Z</time>
   </trkpt>
   <trkpt lat="51.2269460" lon="5.7167020">
    <ele>32.0</ele>
    <time>2019-09-08T09:01:59Z</time>
   </trkpt>
   <trkpt lat="51.2269380" lon="5.7166040">
    <ele>32.0</ele>
    <time>2019-09-08T09:02:00Z</time>
   </trkpt>
   <trkpt lat="51.2269290" lon="5.7164990">
    <ele>31.9</ele>
    <time>2019-09-08T09:02:01Z</time>
   </trkpt>
   <trkpt lat="51.2269170" lon="5.7163900">
    <ele>31.9</ele>
    <time>2019-09-08T09:02:02Z</time>
   </trkpt>
   <trkpt lat="51.2269180" lon="5.7162870">
    <ele>31.8</ele>
    <time>2019-09-08T09:02:03Z</time>
   </trkpt>
   <trkpt lat="51.2269140" lon="5.7161830">
    <ele>31.7</ele>
    <time>2019-09-08T09:02:04Z</time>
   </trkpt>
   <trkpt lat="51.2269070" lon="5.7160850">
    <ele>31.6</ele>
    <time>2019-09-08T09:02:05Z</time>
   </trkpt>
   <trkpt lat="51.2268900" lon="5.7159730">
    <ele>31.6</ele>
    <time>2019-09-08T09:02:06Z</time>
   </trkpt>
   <trkpt lat="51.2268850" lon="5.7158640">
    <ele>31.6</ele>
    <time>2019-09-08T09:02:07Z</time>
   </trkpt>
   <trkpt lat="51.2268850" lon="5.7157550">
    <ele>31.6</ele>
    <time>2019-09-08T09:02:08Z</time>
   </trkpt>
   <trkpt lat="51.2268850" lon="5.7156480">
    <ele>31.6</ele>
    <time>2019-09-08T09:02:09Z</time>
   </trkpt>
   <trkpt lat="51.2268870" lon="5.7155300">
    <ele>31.6</ele>
    <time>2019-09-08T09:02:10Z</time>
   </trkpt>
   <trkpt lat="51.2268920" lon="5.7154150">
    <ele>31.6</ele>
    <time>2019-09-08T09:02:11Z</time>
   </trkpt>
   <trkpt lat="51.2268920" lon="5.7153010">
    <ele>31.6</ele>
    <time>2019-09-08T09:02:12Z</time>
   </trkpt>
   <trkpt lat="51.2268940" lon="5.7152010">
    <ele>31.6</ele>
    <time>2019-09-08T09:02:13Z</time>
   </trkpt>
   <trkpt lat="51.2269000" lon="5.7150900">
    <ele>31.6</ele>
    <time>2019-09-08T09:02:14Z</time>
   </trkpt>
   <trkpt lat="51.2269110" lon="5.7149900">
    <ele>31.6</ele>
    <time>2019-09-08T09:02:15Z</time>
   </trkpt>
   <trkpt lat="51.2269230" lon="5.7148820">
    <ele>31.6</ele>
    <time>2019-09-08T09:02:16Z</time>
   </trkpt>
   <trkpt lat="51.2269420" lon="5.7147730">
    <ele>31.6</ele>
    <time>2019-09-08T09:02:17Z</time>
   </trkpt>
   <trkpt lat="51.2269540" lon="5.7146620">
    <ele>31.6</ele>
    <time>2019-09-08T09:02:18Z</time>
   </trkpt>
   <trkpt lat="51.2269720" lon="5.7145590">
    <ele>31.6</ele>
    <time>2019-09-08T09:02:19Z</time>
   </trkpt>
   <trkpt lat="51.2269910" lon="5.7144610">
    <ele>31.6</ele>
    <time>2019-09-08T09:02:20Z</time>
   </trkpt>
   <trkpt lat="51.2270140" lon="5.7143520">
    <ele>31.6</ele>
    <time>2019-09-08T09:02:21Z</time>
   </trkpt>
   <trkpt lat="51.2270340" lon="5.7142390">
    <ele>31.7</ele>
    <time>2019-09-08T09:02:22Z</time>
   </trkpt>
   <trkpt lat="51.2270420" lon="5.7141370">
    <ele>31.7</ele>
    <time>2019-09-08T09:02:23Z</time>
   </trkpt>
   <trkpt lat="51.2270540" lon="5.7140290">
    <ele>31.7</ele>
    <time>2019-09-08T09:02:24Z</time>
   </trkpt>
   <trkpt lat="51.2270680" lon="5.7139270">
    <ele>31.7</ele>
    <time>2019-09-08T09:02:25Z</time>
   </trkpt>
   <trkpt lat="51.2270810" lon="5.7138260">
    <ele>31.7</ele>
    <time>2019-09-08T09:02:26Z</time>
   </trkpt>
   <trkpt lat="51.2271020" lon="5.7137200">
    <ele>31.7</ele>
    <time>2019-09-08T09:02:27Z</time>
   </trkpt>
   <trkpt lat="51.2271190" lon="5.7136160">
    <ele>31.7</ele>
    <time>2019-09-08T09:02:28Z</time>
   </trkpt>
   <trkpt lat="51.2271360" lon="5.7135090">
    <ele>31.7</ele>
    <time>2019-09-08T09:02:29Z</time>
   </trkpt>
   <trkpt lat="51.2271600" lon="5.7133930">
    <ele>31.7</ele>
    <time>2019-09-08T09:02:30Z</time>
   </trkpt>
   <trkpt lat="51.2271790" lon="5.7132790">
    <ele>31.7</ele>
    <time>2019-09-08T09:02:31Z</time>
   </trkpt>
   <trkpt lat="51.2271940" lon="5.7131730">
    <ele>31.7</ele>
    <time>2019-09-08T09:02:32Z</time>
   </trkpt>
   <trkpt lat="51.2272100" lon="5.7130660">
    <ele>31.7</ele>
    <time>2019-09-08T09:02:33Z</time>
   </trkpt>
   <trkpt lat="51.2272270" lon="5.7129650">
    <ele>31.7</ele>
    <time>2019-09-08T09:02:34Z</time>
   </trkpt>
   <trkpt lat="51.2272420" lon="5.7128670">
    <ele>31.8</ele>
    <time>2019-09-08T09:02:35Z</time>
   </trkpt>
   <trkpt lat="51.2272620" lon="5.7127650">
    <ele>31.8</ele>
    <time>2019-09-08T09:02:36Z</time>
   </trkpt>
   <trkpt lat="51.2272720" lon="5.7126660">
    <ele>31.8</ele>
    <time>2019-09-08T09:02:37Z</time>
   </trkpt>
   <trkpt lat="51.2272840" lon="5.7125530">
    <ele>31.8</ele>
    <time>2019-09-08T09:02:38Z</time>
   </trkpt>
   <trkpt lat="51.2273030" lon="5.7124490">
    <ele>31.8</ele>
    <time>2019-09-08T09:02:39Z</time>
   </trkpt>
   <trkpt lat="51.2273080" lon="5.7123460">
    <ele>31.8</ele>
    <time>2019-09-08T09:02:40Z</time>
   </trkpt>
   <trkpt lat="51.2273260" lon="5.7122450">
    <ele>31.8</ele>
    <time>2019-09-08T09:02:41Z</time>
   </trkpt>
   <trkpt lat="51.2273460" lon="5.7121350">
    <ele>31.8</ele>
    <time>2019-09-08T09:02:42Z</time>
   </trkpt>
   <trkpt lat="51.2273660" lon="5.7120400">
    <ele>31.8</ele>
    <time>2019-09-08T09:02:43Z</time>
   </trkpt>
   <trkpt lat="51.2273870" lon="5.7119430">
    <ele>31.8</ele>
    <time>2019-09-08T09:02:44Z</time>
   </trkpt>
   <trkpt lat="51.2274070" lon="5.7118420">
    <ele>31.8</ele>
    <time>2019-09-08T09:02:45Z</time>
   </trkpt>
   <trkpt lat="51.2274330" lon="5.7117270">
    <ele>31.8</ele>
    <time>2019-09-08T09:02:46Z</time>
   </trkpt>
   <trkpt lat="51.2274590" lon="5.7116260">
    <ele>31.8</ele>
    <time>2019-09-08T09:02:47Z</time>
   </trkpt>
   <trkpt lat="51.2274890" lon="5.7115330">
    <ele>31.9</ele>
    <time>2019-09-08T09:02:48Z</time>
   </trkpt>
   <trkpt lat="51.2275230" lon="5.7114410">
    <ele>31.9</ele>
    <time>2019-09-08T09:02:49Z</time>
   </trkpt>
   <trkpt lat="51.2275590" lon="5.7113460">
    <ele>31.9</ele>
    <time>2019-09-08T09:02:50Z</time>
   </trkpt>
   <trkpt lat="51.2275990" lon="5.7112570">
    <ele>31.9</ele>
    <time>2019-09-08T09:02:51Z</time>
   </trkpt>
   <trkpt lat="51.2276420" lon="5.7111680">
    <ele>31.9</ele>
    <time>2019-09-08T09:02:52Z</time>
   </trkpt>
   <trkpt lat="51.2276870" lon="5.7110770">
    <ele>32.0</ele>
    <time>2019-09-08T09:02:53Z</time>
   </trkpt>
   <trkpt lat="51.2277250" lon="5.7109920">
    <ele>32.0</ele>
    <time>2019-09-08T09:02:54Z</time>
   </trkpt>
   <trkpt lat="51.2277680" lon="5.7109000">
    <ele>32.0</ele>
    <time>2019-09-08T09:02:55Z</time>
   </trkpt>
   <trkpt lat="51.2278100" lon="5.7108080">
    <ele>32.0</ele>
    <time>2019-09-08T09:02:56Z</time>
   </trkpt>
   <trkpt lat="51.2278430" lon="5.7107260">
    <ele>32.1</ele>
    <time>2019-09-08T09:02:57Z</time>
   </trkpt>
   <trkpt lat="51.2278850" lon="5.7106530">
    <ele>32.1</ele>
    <time>2019-09-08T09:02:58Z</time>
   </trkpt>
   <trkpt lat="51.2279260" lon="5.7105680">
    <ele>32.1</ele>
    <time>2019-09-08T09:02:59Z</time>
   </trkpt>
   <trkpt lat="51.2279680" lon="5.7104930">
    <ele>32.2</ele>
    <time>2019-09-08T09:03:00Z</time>
   </trkpt>
   <trkpt lat="51.2280160" lon="5.7104050">
    <ele>32.2</ele>
    <time>2019-09-08T09:03:01Z</time>
   </trkpt>
   <trkpt lat="51.2280580" lon="5.7103280">
    <ele>32.2</ele>
    <time>2019-09-08T09:03:02Z</time>
   </trkpt>
   <trkpt lat="51.2280890" lon="5.7102340">
    <ele>32.3</ele>
    <time>2019-09-08T09:03:03Z</time>
   </trkpt>
   <trkpt lat="51.2281350" lon="5.7101430">
    <ele>32.3</ele>
    <time>2019-09-08T09:03:04Z</time>
   </trkpt>
   <trkpt lat="51.2281840" lon="5.7100580">
    <ele>32.3</ele>
    <time>2019-09-08T09:03:05Z</time>
   </trkpt>
   <trkpt lat="51.2282330" lon="5.7099490">
    <ele>32.4</ele>
    <time>2019-09-08T09:03:06Z</time>
   </trkpt>
   <trkpt lat="51.2282890" lon="5.7098260">
    <ele>32.4</ele>
    <time>2019-09-08T09:03:07Z</time>
   </trkpt>
   <trkpt lat="51.2283330" lon="5.7097340">
    <ele>32.5</ele>
    <time>2019-09-08T09:03:08Z</time>
   </trkpt>
   <trkpt lat="51.2283740" lon="5.7096570">
    <ele>32.5</ele>
    <time>2019-09-08T09:03:09Z</time>
   </trkpt>
   <trkpt lat="51.2284120" lon="5.7095660">
    <ele>32.6</ele>
    <time>2019-09-08T09:03:10Z</time>
   </trkpt>
   <trkpt lat="51.2284310" lon="5.7094840">
    <ele>32.6</ele>
    <time>2019-09-08T09:03:11Z</time>
   </trkpt>
   <trkpt lat="51.2284740" lon="5.7093810">
    <ele>32.7</ele>
    <time>2019-09-08T09:03:12Z</time>
   </trkpt>
   <trkpt lat="51.2285110" lon="5.7092840">
    <ele>32.7</ele>
    <time>2019-09-08T09:03:13Z</time>
   </trkpt>
   <trkpt lat="51.2285430" lon="5.7091710">
    <ele>32.7</ele>
    <time>2019-09-08T09:03:14Z</time>
   </trkpt>
   <trkpt lat="51.2285640" lon="5.7090560">
    <ele>32.8</ele>
    <time>2019-09-08T09:03:15Z</time>
   </trkpt>
   <trkpt lat="51.2285890" lon="5.7089500">
    <ele>32.8</ele>
    <time>2019-09-08T09:03:16Z</time>
   </trkpt>
   <trkpt lat="51.2285830" lon="5.7088610">
    <ele>32.8</ele>
    <time>2019-09-08T09:03:17Z</time>
   </trkpt>
   <trkpt lat="51.2286020" lon="5.7087540">
    <ele>32.9</ele>
    <time>2019-09-08T09:03:18Z</time>
   </trkpt>
   <trkpt lat="51.2286170" lon="5.7086600">
    <ele>32.9</ele>
    <time>2019-09-08T09:03:19Z</time>
   </trkpt>
   <trkpt lat="51.2286360" lon="5.7085360">
    <ele>32.9</ele>
    <time>2019-09-08T09:03:20Z</time>
   </trkpt>
   <trkpt lat="51.2286600" lon="5.7084050">
    <ele>33.0</ele>
    <time>2019-09-08T09:03:21Z</time>
   </trkpt>
   <trkpt lat="51.2286760" lon="5.7082910">
    <ele>33.0</ele>
    <time>2019-09-08T09:03:22Z</time>
   </trkpt>
   <trkpt lat="51.2286880" lon="5.7081810">
    <ele>33.1</ele>
    <time>2019-09-08T09:03:23Z</time>
   </trkpt>
   <trkpt lat="51.2286950" lon="5.7080730">
    <ele>33.1</ele>
    <time>2019-09-08T09:03:24Z</time>
   </trkpt>
   <trkpt lat="51.2287180" lon="5.7079770">
    <ele>33.1</ele>
    <time>2019-09-08T09:03:25Z</time>
   </trkpt>
   <trkpt lat="51.2287370" lon="5.7078690">
    <ele>33.2</ele>
    <time>2019-09-08T09:03:26Z</time>
   </trkpt>
   <trkpt lat="51.2287510" lon="5.7077710">
    <ele>33.2</ele>
    <time>2019-09-08T09:03:27Z</time>
   </trkpt>
   <trkpt lat="51.2287720" lon="5.7076450">
    <ele>33.2</ele>
    <time>2019-09-08T09:03:28Z</time>
   </trkpt>
   <trkpt lat="51.2287950" lon="5.7075490">
    <ele>33.3</ele>
    <time>2019-09-08T09:03:29Z</time>
   </trkpt>
   <trkpt lat="51.2288210" lon="5.7074370">
    <ele>33.3</ele>
    <time>2019-09-08T09:03:30Z</time>
   </trkpt>
   <trkpt lat="51.2288510" lon="5.7073330">
    <ele>33.3</ele>
    <time>2019-09-08T09:03:31Z</time>
   </trkpt>
   <trkpt lat="51.2288820" lon="5.7072330">
    <ele>33.4</ele>
    <time>2019-09-08T09:03:32Z</time>
   </trkpt>
   <trkpt lat="51.2289160" lon="5.7071330">
    <ele>33.4</ele>
    <time>2019-09-08T09:03:33Z</time>
   </trkpt>
   <trkpt lat="51.2289550" lon="5.7070140">
    <ele>33.4</ele>
    <time>2019-09-08T09:03:34Z</time>
   </trkpt>
   <trkpt lat="51.2290110" lon="5.7069330">
    <ele>33.4</ele>
    <time>2019-09-08T09:03:35Z</time>
   </trkpt>
   <trkpt lat="51.2290500" lon="5.7068360">
    <ele>33.5</ele>
    <time>2019-09-08T09:03:36Z</time>
   </trkpt>
   <trkpt lat="51.2290860" lon="5.7067450">
    <ele>33.5</ele>
    <time>2019-09-08T09:03:37Z</time>
   </trkpt>
   <trkpt lat="51.2291240" lon="5.7066550">
    <ele>33.5</ele>
    <time>2019-09-08T09:03:38Z</time>
   </trkpt>
   <trkpt lat="51.2291740" lon="5.7065320">
    <ele>33.4</ele>
    <time>2019-09-08T09:03:39Z</time>
   </trkpt>
   <trkpt lat="51.2292190" lon="5.7064470">
    <ele>33.4</ele>
    <time>2019-09-08T09:03:40Z</time>
   </trkpt>
   <trkpt lat="51.2292560" lon="5.7063530">
    <ele>33.4</ele>
    <time>2019-09-08T09:03:41Z</time>
   </trkpt>
   <trkpt lat="51.2292970" lon="5.7062600">
    <ele>33.4</ele>
    <time>2019-09-08T09:03:42Z</time>
   </trkpt>
   <trkpt lat="51.2293300" lon="5.7061700">
    <ele>33.4</ele>
    <time>2019-09-08T09:03:43Z</time>
   </trkpt>
   <trkpt lat="51.2293720" lon="5.7060790">
    <ele>33.3</ele>
    <time>2019-09-08T09:03:44Z</time>
   </trkpt>
   <trkpt lat="51.2294070" lon="5.7059810">
    <ele>33.3</ele>
    <time>2019-09-08T09:03:45Z</time>
   </trkpt>
   <trkpt lat="51.2294430" lon="5.7058990">
    <ele>33.2</ele>
    <time>2019-09-08T09:03:46Z</time>
   </trkpt>
   <trkpt lat="51.2294860" lon="5.7058050">
    <ele>33.2</ele>
    <time>2019-09-08T09:03:47Z</time>
   </trkpt>
   <trkpt lat="51.2295220" lon="5.7057330">
    <ele>33.1</ele>
    <time>2019-09-08T09:03:48Z</time>
   </trkpt>
   <trkpt lat="51.2295610" lon="5.7056480">
    <ele>33.0</ele>
    <time>2019-09-08T09:03:49Z</time>
   </trkpt>
   <trkpt lat="51.2295880" lon="5.7055440">
    <ele>33.0</ele>
    <time>2019-09-08T09:03:50Z</time>
   </trkpt>
   <trkpt lat="51.2296260" lon="5.7054530">
    <ele>32.9</ele>
    <time>2019-09-08T09:03:51Z</time>
   </trkpt>
   <trkpt lat="51.2296630" lon="5.7053570">
    <ele>32.8</ele>
    <time>2019-09-08T09:03:52Z</time>
   </trkpt>
   <trkpt lat="51.2297000" lon="5.7052630">
    <ele>32.7</ele>
    <time>2019-09-08T09:03:53Z</time>
   </trkpt>
   <trkpt lat="51.2297570" lon="5.7051510">
    <ele>32.6</ele>
    <time>2019-09-08T09:03:54Z</time>
   </trkpt>
   <trkpt lat="51.2297930" lon="5.7050670">
    <ele>32.6</ele>
    <time>2019-09-08T09:03:55Z</time>
   </trkpt>
   <trkpt lat="51.2298300" lon="5.7049690">
    <ele>32.5</ele>
    <time>2019-09-08T09:03:56Z</time>
   </trkpt>
   <trkpt lat="51.2298650" lon="5.7048740">
    <ele>32.5</ele>
    <time>2019-09-08T09:03:57Z</time>
   </trkpt>
   <trkpt lat="51.2299050" lon="5.7047840">
    <ele>32.4</ele>
    <time>2019-09-08T09:03:58Z</time>
   </trkpt>
   <trkpt lat="51.2299490" lon="5.7047000">
    <ele>32.4</ele>
    <time>2019-09-08T09:03:59Z</time>
   </trkpt>
   <trkpt lat="51.2299760" lon="5.7046120">
    <ele>32.4</ele>
    <time>2019-09-08T09:04:00Z</time>
   </trkpt>
   <trkpt lat="51.2300100" lon="5.7045230">
    <ele>32.4</ele>
    <time>2019-09-08T09:04:01Z</time>
   </trkpt>
   <trkpt lat="51.2300420" lon="5.7044330">
    <ele>32.3</ele>
    <time>2019-09-08T09:04:02Z</time>
   </trkpt>
   <trkpt lat="51.2300700" lon="5.7043350">
    <ele>32.3</ele>
    <time>2019-09-08T09:04:03Z</time>
   </trkpt>
   <trkpt lat="51.2300930" lon="5.7042310">
    <ele>32.3</ele>
    <time>2019-09-08T09:04:04Z</time>
   </trkpt>
   <trkpt lat="51.2301180" lon="5.7041380">
    <ele>32.3</ele>
    <time>2019-09-08T09:04:05Z</time>
   </trkpt>
   <trkpt lat="51.2301370" lon="5.7040350">
    <ele>32.3</ele>
    <time>2019-09-08T09:04:06Z</time>
   </trkpt>
   <trkpt lat="51.2301580" lon="5.7039160">
    <ele>32.3</ele>
    <time>2019-09-08T09:04:07Z</time>
   </trkpt>
   <trkpt lat="51.2301640" lon="5.7038090">
    <ele>32.3</ele>
    <time>2019-09-08T09:04:08Z</time>
   </trkpt>
   <trkpt lat="51.2301760" lon="5.7037020">
    <ele>32.3</ele>
    <time>2019-09-08T09:04:09Z</time>
   </trkpt>
   <trkpt lat="51.2301940" lon="5.7035940">
    <ele>32.3</ele>
    <time>2019-09-08T09:04:10Z</time>
   </trkpt>
   <trkpt lat="51.2302100" lon="5.7034940">
    <ele>32.4</ele>
    <time>2019-09-08T09:04:11Z</time>
   </trkpt>
   <trkpt lat="51.2302250" lon="5.7033860">
    <ele>32.4</ele>
    <time>2019-09-08T09:04:12Z</time>
   </trkpt>
   <trkpt lat="51.2302370" lon="5.7032850">
    <ele>32.5</ele>
    <time>2019-09-08T09:04:13Z</time>
   </trkpt>
   <trkpt lat="51.2302540" lon="5.7031940">
    <ele>32.6</ele>
    <time>2019-09-08T09:04:14Z</time>
   </trkpt>
   <trkpt lat="51.2302740" lon="5.7030850">
    <ele>32.7</ele>
    <time>2019-09-08T09:04:15Z</time>
   </trkpt>
   <trkpt lat="51.2302890" lon="5.7029780">
    <ele>32.9</ele>
    <time>2019-09-08T09:04:16Z</time>
   </trkpt>
   <trkpt lat="51.2303010" lon="5.7028580">
    <ele>33.0</ele>
    <time>2019-09-08T09:04:17Z</time>
   </trkpt>
   <trkpt lat="51.2303250" lon="5.7027410">
    <ele>33.1</ele>
    <time>2019-09-08T09:04:18Z</time>
   </trkpt>
   <trkpt lat="51.2303410" lon="5.7026360">
    <ele>33.2</ele>
    <time>2019-09-08T09:04:19Z</time>
   </trkpt>
   <trkpt lat="51.2303530" lon="5.7025410">
    <ele>33.2</ele>
    <time>2019-09-08T09:04:20Z</time>
   </trkpt>
   <trkpt lat="51.2303680" lon="5.7024410">
    <ele>33.3</ele>
    <time>2019-09-08T09:04:21Z</time>
   </trkpt>
   <trkpt lat="51.2303810" lon="5.7023340">
    <ele>33.3</ele>
    <time>2019-09-08T09:04:22Z</time>
   </trkpt>
   <trkpt lat="51.2303970" lon="5.7022230">
    <ele>33.3</ele>
    <time>2019-09-08T09:04:23Z</time>
   </trkpt>
   <trkpt lat="51.2304110" lon="5.7021210">
    <ele>33.3</ele>
    <time>2019-09-08T09:04:24Z</time>
   </trkpt>
   <trkpt lat="51.2304250" lon="5.7020120">
    <ele>33.3</ele>
    <time>2019-09-08T09:04:25Z</time>
   </trkpt>
   <trkpt lat="51.2304330" lon="5.7019100">
    <ele>33.3</ele>
    <time>2019-09-08T09:04:26Z</time>
   </trkpt>
   <trkpt lat="51.2304410" lon="5.7018000">
    <ele>33.3</ele>
    <time>2019-09-08T09:04:27Z</time>
   </trkpt>
   <trkpt lat="51.2304490" lon="5.7016910">
    <ele>33.3</ele>
    <time>2019-09-08T09:04:28Z</time>
   </trkpt>
   <trkpt lat="51.2304630" lon="5.7015840">
    <ele>33.3</ele>
    <time>2019-09-08T09:04:29Z</time>
   </trkpt>
   <trkpt lat="51.2304700" lon="5.7014740">
    <ele>33.3</ele>
    <time>2019-09-08T09:04:30Z</time>
   </trkpt>
   <trkpt lat="51.2304700" lon="5.7013640">
    <ele>33.3</ele>
    <time>2019-09-08T09:04:31Z</time>
   </trkpt>
   <trkpt lat="51.2304890" lon="5.7012520">
    <ele>33.3</ele>
    <time>2019-09-08T09:04:32Z</time>
   </trkpt>
   <trkpt lat="51.2305040" lon="5.7011500">
    <ele>33.3</ele>
    <time>2019-09-08T09:04:33Z</time>
   </trkpt>
   <trkpt lat="51.2305120" lon="5.7010490">
    <ele>33.3</ele>
    <time>2019-09-08T09:04:34Z</time>
   </trkpt>
   <trkpt lat="51.2305230" lon="5.7009550">
    <ele>33.3</ele>
    <time>2019-09-08T09:04:35Z</time>
   </trkpt>
   <trkpt lat="51.2305360" lon="5.7008470">
    <ele>33.3</ele>
    <time>2019-09-08T09:04:36Z</time>
   </trkpt>
   <trkpt lat="51.2305370" lon="5.7007410">
    <ele>33.3</ele>
    <time>2019-09-08T09:04:37Z</time>
   </trkpt>
   <trkpt lat="51.2305370" lon="5.7006490">
    <ele>33.3</ele>
    <time>2019-09-08T09:04:38Z</time>
   </trkpt>
   <trkpt lat="51.2305370" lon="5.7005410">
    <ele>33.3</ele>
    <time>2019-09-08T09:04:39Z</time>
   </trkpt>
   <trkpt lat="51.2305190" lon="5.7004440">
    <ele>33.3</ele>
    <time>2019-09-08T09:04:40Z</time>
   </trkpt>
   <trkpt lat="51.2304990" lon="5.7003380">
    <ele>33.3</ele>
    <time>2019-09-08T09:04:41Z</time>
   </trkpt>
   <trkpt lat="51.2304700" lon="5.7002290">
    <ele>33.3</ele>
    <time>2019-09-08T09:04:42Z</time>
   </trkpt>
   <trkpt lat="51.2304300" lon="5.7001360">
    <ele>33.3</ele>
    <time>2019-09-08T09:04:43Z</time>
   </trkpt>
   <trkpt lat="51.2303770" lon="5.7000640">
    <ele>33.3</ele>
    <time>2019-09-08T09:04:44Z</time>
   </trkpt>
   <trkpt lat="51.2303200" lon="5.6999930">
    <ele>33.3</ele>
    <time>2019-09-08T09:04:45Z</time>
   </trkpt>
   <trkpt lat="51.2302610" lon="5.6999350">
    <ele>33.3</ele>
    <time>2019-09-08T09:04:46Z</time>
   </trkpt>
   <trkpt lat="51.2301990" lon="5.6998720">
    <ele>33.3</ele>
    <time>2019-09-08T09:04:47Z</time>
   </trkpt>
   <trkpt lat="51.2301510" lon="5.6997610">
    <ele>33.3</ele>
    <time>2019-09-08T09:04:48Z</time>
   </trkpt>
   <trkpt lat="51.2300840" lon="5.6997120">
    <ele>33.3</ele>
    <time>2019-09-08T09:04:49Z</time>
   </trkpt>
   <trkpt lat="51.2300170" lon="5.6996580">
    <ele>33.4</ele>
    <time>2019-09-08T09:04:50Z</time>
   </trkpt>
   <trkpt lat="51.2299500" lon="5.6996010">
    <ele>33.4</ele>
    <time>2019-09-08T09:04:51Z</time>
   </trkpt>
   <trkpt lat="51.2298930" lon="5.6995690">
    <ele>33.4</ele>
    <time>2019-09-08T09:04:52Z</time>
   </trkpt>
   <trkpt lat="51.2298200" lon="5.6995230">
    <ele>33.4</ele>
    <time>2019-09-08T09:04:53Z</time>
   </trkpt>
   <trkpt lat="51.2297520" lon="5.6994740">
    <ele>33.5</ele>
    <time>2019-09-08T09:04:54Z</time>
   </trkpt>
   <trkpt lat="51.2296850" lon="5.6994400">
    <ele>33.5</ele>
    <time>2019-09-08T09:04:55Z</time>
   </trkpt>
   <trkpt lat="51.2296210" lon="5.6994020">
    <ele>33.5</ele>
    <time>2019-09-08T09:04:56Z</time>
   </trkpt>
   <trkpt lat="51.2295520" lon="5.6993640">
    <ele>33.5</ele>
    <time>2019-09-08T09:04:57Z</time>
   </trkpt>
   <trkpt lat="51.2294850" lon="5.6993330">
    <ele>33.6</ele>
    <time>2019-09-08T09:04:58Z</time>
   </trkpt>
   <trkpt lat="51.2294010" lon="5.6992970">
    <ele>33.6</ele>
    <time>2019-09-08T09:04:59Z</time>
   </trkpt>
   <trkpt lat="51.2293320" lon="5.6992510">
    <ele>33.6</ele>
    <time>2019-09-08T09:05:00Z</time>
   </trkpt>
   <trkpt lat="51.2292670" lon="5.6991970">
    <ele>33.7</ele>
    <time>2019-09-08T09:05:01Z</time>
   </trkpt>
   <trkpt lat="51.2292070" lon="5.6991420">
    <ele>33.7</ele>
    <time>2019-09-08T09:05:02Z</time>
   </trkpt>
   <trkpt lat="51.2291430" lon="5.6990950">
    <ele>33.7</ele>
    <time>2019-09-08T09:05:03Z</time>
   </trkpt>
   <trkpt lat="51.2290780" lon="5.6990530">
    <ele>33.7</ele>
    <time>2019-09-08T09:05:04Z</time>
   </trkpt>
   <trkpt lat="51.2290090" lon="5.6990000">
    <ele>33.7</ele>
    <time>2019-09-08T09:05:05Z</time>
   </trkpt>
   <trkpt lat="51.2289470" lon="5.6989590">
    <ele>33.7</ele>
    <time>2019-09-08T09:05:06Z</time>
   </trkpt>
   <trkpt lat="51.2288870" lon="5.6989140">
    <ele>33.7</ele>
    <time>2019-09-08T09:05:07Z</time>
   </trkpt>
   <trkpt lat="51.2288190" lon="5.6988670">
    <ele>33.7</ele>
    <time>2019-09-08T09:05:08Z</time>
   </trkpt>
   <trkpt lat="51.2287530" lon="5.6988160">
    <ele>33.8</ele>
    <time>2019-09-08T09:05:09Z</time>
   </trkpt>
   <trkpt lat="51.2287020" lon="5.6987860">
    <ele>33.8</ele>
    <time>2019-09-08T09:05:10Z</time>
   </trkpt>
   <trkpt lat="51.2286370" lon="5.6987430">
    <ele>33.8</ele>
    <time>2019-09-08T09:05:11Z</time>
   </trkpt>
   <trkpt lat="51.2285720" lon="5.6986980">
    <ele>33.8</ele>
    <time>2019-09-08T09:05:12Z</time>
   </trkpt>
   <trkpt lat="51.2285040" lon="5.6986710">
    <ele>33.8</ele>
    <time>2019-09-08T09:05:13Z</time>
   </trkpt>
   <trkpt lat="51.2284350" lon="5.6986370">
    <ele>33.8</ele>
    <time>2019-09-08T09:05:14Z</time>
   </trkpt>
   <trkpt lat="51.2283750" lon="5.6986200">
    <ele>33.8</ele>
    <time>2019-09-08T09:05:15Z</time>
   </trkpt>
   <trkpt lat="51.2283140" lon="5.6985760">
    <ele>33.8</ele>
    <time>2019-09-08T09:05:16Z</time>
   </trkpt>
   <trkpt lat="51.2282410" lon="5.6985280">
    <ele>33.8</ele>
    <time>2019-09-08T09:05:17Z</time>
   </trkpt>
   <trkpt lat="51.2281640" lon="5.6984950">
    <ele>33.8</ele>
    <time>2019-09-08T09:05:18Z</time>
   </trkpt>
   <trkpt lat="51.2280990" lon="5.6984600">
    <ele>33.8</ele>
    <time>2019-09-08T09:05:19Z</time>
   </trkpt>
   <trkpt lat="51.2280310" lon="5.6984230">
    <ele>33.8</ele>
    <time>2019-09-08T09:05:20Z</time>
   </trkpt>
   <trkpt lat="51.2279570" lon="5.6983790">
    <ele>33.8</ele>
    <time>2019-09-08T09:05:21Z</time>
   </trkpt>
   <trkpt lat="51.2278920" lon="5.6983330">
    <ele>33.8</ele>
    <time>2019-09-08T09:05:22Z</time>
   </trkpt>
   <trkpt lat="51.2278120" lon="5.6982870">
    <ele>33.7</ele>
    <time>2019-09-08T09:05:23Z</time>
   </trkpt>
   <trkpt lat="51.2277430" lon="5.6982360">
    <ele>33.7</ele>
    <time>2019-09-08T09:05:24Z</time>
   </trkpt>
   <trkpt lat="51.2276780" lon="5.6981890">
    <ele>33.7</ele>
    <time>2019-09-08T09:05:25Z</time>
   </trkpt>
   <trkpt lat="51.2276140" lon="5.6981290">
    <ele>33.7</ele>
    <time>2019-09-08T09:05:26Z</time>
   </trkpt>
   <trkpt lat="51.2275560" lon="5.6980670">
    <ele>33.7</ele>
    <time>2019-09-08T09:05:27Z</time>
   </trkpt>
   <trkpt lat="51.2274970" lon="5.6980060">
    <ele>33.7</ele>
    <time>2019-09-08T09:05:28Z</time>
   </trkpt>
   <trkpt lat="51.2274320" lon="5.6979270">
    <ele>33.7</ele>
    <time>2019-09-08T09:05:29Z</time>
   </trkpt>
   <trkpt lat="51.2273750" lon="5.6978460">
    <ele>33.6</ele>
    <time>2019-09-08T09:05:30Z</time>
   </trkpt>
   <trkpt lat="51.2273250" lon="5.6977560">
    <ele>33.6</ele>
    <time>2019-09-08T09:05:31Z</time>
   </trkpt>
   <trkpt lat="51.2272740" lon="5.6976640">
    <ele>33.8</ele>
    <time>2019-09-08T09:05:32Z</time>
   </trkpt>
   <trkpt lat="51.2272280" lon="5.6975740">
    <ele>33.9</ele>
    <time>2019-09-08T09:05:33Z</time>
   </trkpt>
   <trkpt lat="51.2271800" lon="5.6974850">
    <ele>34.0</ele>
    <time>2019-09-08T09:05:34Z</time>
   </trkpt>
   <trkpt lat="51.2271220" lon="5.6974170">
    <ele>34.1</ele>
    <time>2019-09-08T09:05:35Z</time>
   </trkpt>
   <trkpt lat="51.2270640" lon="5.6973510">
    <ele>34.1</ele>
    <time>2019-09-08T09:05:36Z</time>
   </trkpt>
   <trkpt lat="51.2270000" lon="5.6972690">
    <ele>34.2</ele>
    <time>2019-09-08T09:05:37Z</time>
   </trkpt>
   <trkpt lat="51.2269360" lon="5.6972360">
    <ele>34.2</ele>
    <time>2019-09-08T09:05:38Z</time>
   </trkpt>
   <trkpt lat="51.2268790" lon="5.6971700">
    <ele>34.3</ele>
    <time>2019-09-08T09:05:39Z</time>
   </trkpt>
   <trkpt lat="51.2268220" lon="5.6971190">
    <ele>34.3</ele>
    <time>2019-09-08T09:05:40Z</time>
   </trkpt>
   <trkpt lat="51.2267690" lon="5.6970890">
    <ele>34.3</ele>
    <time>2019-09-08T09:05:41Z</time>
   </trkpt>
   <trkpt lat="51.2267170" lon="5.6970540">
    <ele>34.4</ele>
    <time>2019-09-08T09:05:42Z</time>
   </trkpt>
   <trkpt lat="51.2266560" lon="5.6970140">
    <ele>34.4</ele>
    <time>2019-09-08T09:05:43Z</time>
   </trkpt>
   <trkpt lat="51.2265810" lon="5.6969710">
    <ele>34.4</ele>
    <time>2019-09-08T09:05:44Z</time>
   </trkpt>
   <trkpt lat="51.2265030" lon="5.6969170">
    <ele>34.5</ele>
    <time>2019-09-08T09:05:45Z</time>
   </trkpt>
   <trkpt lat="51.2264360" lon="5.6968710">
    <ele>34.5</ele>
    <time>2019-09-08T09:05:46Z</time>
   </trkpt>
   <trkpt lat="51.2263970" lon="5.6968060">
    <ele>34.5</ele>
    <time>2019-09-08T09:05:47Z</time>
   </trkpt>
   <trkpt lat="51.2263190" lon="5.6967580">
    <ele>34.6</ele>
    <time>2019-09-08T09:05:48Z</time>
   </trkpt>
   <trkpt lat="51.2262540" lon="5.6967210">
    <ele>34.6</ele>
    <time>2019-09-08T09:05:49Z</time>
   </trkpt>
   <trkpt lat="51.2261700" lon="5.6966570">
    <ele>34.6</ele>
    <time>2019-09-08T09:05:50Z</time>
   </trkpt>
   <trkpt lat="51.2261050" lon="5.6965960">
    <ele>34.6</ele>
    <time>2019-09-08T09:05:51Z</time>
   </trkpt>
   <trkpt lat="51.2260380" lon="5.6965540">
    <ele>34.7</ele>
    <time>2019-09-08T09:05:52Z</time>
   </trkpt>
   <trkpt lat="51.2259700" lon="5.6965060">
    <ele>34.7</ele>
    <time>2019-09-08T09:05:53Z</time>
   </trkpt>
   <trkpt lat="51.2258820" lon="5.6964420">
    <ele>34.7</ele>
    <time>2019-09-08T09:05:54Z</time>
   </trkpt>
   <trkpt lat="51.2258210" lon="5.6963990">
    <ele>34.7</ele>
    <time>2019-09-08T09:05:55Z</time>
   </trkpt>
   <trkpt lat="51.2257580" lon="5.6963570">
    <ele>34.8</ele>
    <time>2019-09-08T09:05:56Z</time>
   </trkpt>
   <trkpt lat="51.2256940" lon="5.6963170">
    <ele>34.8</ele>
    <time>2019-09-08T09:05:57Z</time>
   </trkpt>
   <trkpt lat="51.2256170" lon="5.6962830">
    <ele>34.8</ele>
    <time>2019-09-08T09:05:58Z</time>
   </trkpt>
   <trkpt lat="51.2255480" lon="5.6962410">
    <ele>34.8</ele>
    <time>2019-09-08T09:05:59Z</time>
   </trkpt>
   <trkpt lat="51.2254600" lon="5.6961950">
    <ele>34.8</ele>
    <time>2019-09-08T09:06:00Z</time>
   </trkpt>
   <trkpt lat="51.2253900" lon="5.6961550">
    <ele>34.8</ele>
    <time>2019-09-08T09:06:01Z</time>
   </trkpt>
   <trkpt lat="51.2253230" lon="5.6961140">
    <ele>34.8</ele>
    <time>2019-09-08T09:06:02Z</time>
   </trkpt>
   <trkpt lat="51.2252570" lon="5.6960730">
    <ele>34.8</ele>
    <time>2019-09-08T09:06:03Z</time>
   </trkpt>
   <trkpt lat="51.2251940" lon="5.6960200">
    <ele>34.8</ele>
    <time>2019-09-08T09:06:04Z</time>
   </trkpt>
   <trkpt lat="51.2251230" lon="5.6959850">
    <ele>34.8</ele>
    <time>2019-09-08T09:06:05Z</time>
   </trkpt>
   <trkpt lat="51.2250630" lon="5.6959480">
    <ele>34.8</ele>
    <time>2019-09-08T09:06:06Z</time>
   </trkpt>
   <trkpt lat="51.2250050" lon="5.6959240">
    <ele>34.8</ele>
    <time>2019-09-08T09:06:07Z</time>
   </trkpt>
   <trkpt lat="51.2249440" lon="5.6958820">
    <ele>34.8</ele>
    <time>2019-09-08T09:06:08Z</time>
   </trkpt>
   <trkpt lat="51.2248770" lon="5.6958360">
    <ele>34.8</ele>
    <time>2019-09-08T09:06:09Z</time>
   </trkpt>
   <trkpt lat="51.2248200" lon="5.6957920">
    <ele>34.8</ele>
    <time>2019-09-08T09:06:10Z</time>
   </trkpt>
   <trkpt lat="51.2247550" lon="5.6957470">
    <ele>34.8</ele>
    <time>2019-09-08T09:06:11Z</time>
   </trkpt>
   <trkpt lat="51.2246840" lon="5.6957260">
    <ele>34.7</ele>
    <time>2019-09-08T09:06:12Z</time>
   </trkpt>
   <trkpt lat="51.2246340" lon="5.6957040">
    <ele>34.7</ele>
    <time>2019-09-08T09:06:13Z</time>
   </trkpt>
   <trkpt lat="51.2245680" lon="5.6956380">
    <ele>34.7</ele>
    <time>2019-09-08T09:06:14Z</time>
   </trkpt>
   <trkpt lat="51.2244690" lon="5.6955690">
    <ele>34.7</ele>
    <time>2019-09-08T09:06:15Z</time>
   </trkpt>
   <trkpt lat="51.2244080" lon="5.6955160">
    <ele>34.6</ele>
    <time>2019-09-08T09:06:16Z</time>
   </trkpt>
   <trkpt lat="51.2243410" lon="5.6954680">
    <ele>34.6</ele>
    <time>2019-09-08T09:06:17Z</time>
   </trkpt>
   <trkpt lat="51.2242730" lon="5.6954170">
    <ele>34.6</ele>
    <time>2019-09-08T09:06:18Z</time>
   </trkpt>
   <trkpt lat="51.2242090" lon="5.6953600">
    <ele>34.6</ele>
    <time>2019-09-08T09:06:19Z</time>
   </trkpt>
   <trkpt lat="51.2241460" lon="5.6953340">
    <ele>34.6</ele>
    <time>2019-09-08T09:06:20Z</time>
   </trkpt>
   <trkpt lat="51.2240810" lon="5.6952950">
    <ele>34.6</ele>
    <time>2019-09-08T09:06:21Z</time>
   </trkpt>
   <trkpt lat="51.2240260" lon="5.6952480">
    <ele>34.6</ele>
    <time>2019-09-08T09:06:22Z</time>
   </trkpt>
   <trkpt lat="51.2239730" lon="5.6952150">
    <ele>34.6</ele>
    <time>2019-09-08T09:06:23Z</time>
   </trkpt>
   <trkpt lat="51.2239150" lon="5.6951620">
    <ele>34.6</ele>
    <time>2019-09-08T09:06:24Z</time>
   </trkpt>
   <trkpt lat="51.2238390" lon="5.6951150">
    <ele>34.6</ele>
    <time>2019-09-08T09:06:25Z</time>
   </trkpt>
   <trkpt lat="51.2237720" lon="5.6950600">
    <ele>34.6</ele>
    <time>2019-09-08T09:06:26Z</time>
   </trkpt>
   <trkpt lat="51.2237080" lon="5.6950290">
    <ele>34.6</ele>
    <time>2019-09-08T09:06:27Z</time>
   </trkpt>
   <trkpt lat="51.2236350" lon="5.6949820">
    <ele>34.6</ele>
    <time>2019-09-08T09:06:28Z</time>
   </trkpt>
   <trkpt lat="51.2235690" lon="5.6949320">
    <ele>34.6</ele>
    <time>2019-09-08T09:06:29Z</time>
   </trkpt>
   <trkpt lat="51.2235080" lon="5.6948950">
    <ele>34.6</ele>
    <time>2019-09-08T09:06:30Z</time>
   </trkpt>
   <trkpt lat="51.2234560" lon="5.6948620">
    <ele>34.6</ele>
    <time>2019-09-08T09:06:31Z</time>
   </trkpt>
   <trkpt lat="51.2233960" lon="5.6948270">
    <ele>34.6</ele>
    <time>2019-09-08T09:06:32Z</time>
   </trkpt>
   <trkpt lat="51.2233280" lon="5.6947580">
    <ele>34.6</ele>
    <time>2019-09-08T09:06:33Z</time>
   </trkpt>
   <trkpt lat="51.2232620" lon="5.6947160">
    <ele>34.6</ele>
    <time>2019-09-08T09:06:34Z</time>
   </trkpt>
   <trkpt lat="51.2231890" lon="5.6946750">
    <ele>34.6</ele>
    <time>2019-09-08T09:06:35Z</time>
   </trkpt>
   <trkpt lat="51.2231290" lon="5.6946320">
    <ele>34.6</ele>
    <time>2019-09-08T09:06:36Z</time>
   </trkpt>
   <trkpt lat="51.2230670" lon="5.6945860">
    <ele>34.6</ele>
    <time>2019-09-08T09:06:37Z</time>
   </trkpt>
   <trkpt lat="51.2230030" lon="5.6945400">
    <ele>34.6</ele>
    <time>2019-09-08T09:06:38Z</time>
   </trkpt>
   <trkpt lat="51.2229280" lon="5.6944970">
    <ele>34.6</ele>
    <time>2019-09-08T09:06:39Z</time>
   </trkpt>
   <trkpt lat="51.2228420" lon="5.6944390">
    <ele>34.6</ele>
    <time>2019-09-08T09:06:40Z</time>
   </trkpt>
   <trkpt lat="51.2227730" lon="5.6944000">
    <ele>34.6</ele>
    <time>2019-09-08T09:06:41Z</time>
   </trkpt>
   <trkpt lat="51.2227030" lon="5.6943590">
    <ele>34.6</ele>
    <time>2019-09-08T09:06:42Z</time>
   </trkpt>
   <trkpt lat="51.2226310" lon="5.6943090">
    <ele>34.6</ele>
    <time>2019-09-08T09:06:43Z</time>
   </trkpt>
   <trkpt lat="51.2225600" lon="5.6942610">
    <ele>34.6</ele>
    <time>2019-09-08T09:06:44Z</time>
   </trkpt>
   <trkpt lat="51.2224950" lon="5.6942050">
    <ele>34.6</ele>
    <time>2019-09-08T09:06:45Z</time>
   </trkpt>
   <trkpt lat="51.2224380" lon="5.6941700">
    <ele>34.6</ele>
    <time>2019-09-08T09:06:46Z</time>
   </trkpt>
   <trkpt lat="51.2223650" lon="5.6941380">
    <ele>34.6</ele>
    <time>2019-09-08T09:06:47Z</time>
   </trkpt>
   <trkpt lat="51.2223020" lon="5.6940940">
    <ele>34.6</ele>
    <time>2019-09-08T09:06:48Z</time>
   </trkpt>
   <trkpt lat="51.2222300" lon="5.6940540">
    <ele>34.6</ele>
    <time>2019-09-08T09:06:49Z</time>
   </trkpt>
   <trkpt lat="51.2221660" lon="5.6940100">
    <ele>34.6</ele>
    <time>2019-09-08T09:06:50Z</time>
   </trkpt>
   <trkpt lat="51.2221040" lon="5.6939580">
    <ele>34.6</ele>
    <time>2019-09-08T09:06:51Z</time>
   </trkpt>
   <trkpt lat="51.2220450" lon="5.6939050">
    <ele>34.6</ele>
    <time>2019-09-08T09:06:52Z</time>
   </trkpt>
   <trkpt lat="51.2219780" lon="5.6938650">
    <ele>34.6</ele>
    <time>2019-09-08T09:06:53Z</time>
   </trkpt>
   <trkpt lat="51.2219090" lon="5.6938320">
    <ele>34.6</ele>
    <time>2019-09-08T09:06:54Z</time>
   </trkpt>
   <trkpt lat="51.2218470" lon="5.6937890">
    <ele>34.6</ele>
    <time>2019-09-08T09:06:55Z</time>
   </trkpt>
   <trkpt lat="51.2217840" lon="5.6937260">
    <ele>34.6</ele>
    <time>2019-09-08T09:06:56Z</time>
   </trkpt>
   <trkpt lat="51.2217140" lon="5.6936870">
    <ele>34.6</ele>
    <time>2019-09-08T09:06:57Z</time>
   </trkpt>
   <trkpt lat="51.2216460" lon="5.6936440">
    <ele>34.6</ele>
    <time>2019-09-08T09:06:58Z</time>
   </trkpt>
   <trkpt lat="51.2215840" lon="5.6935940">
    <ele>34.6</ele>
    <time>2019-09-08T09:06:59Z</time>
   </trkpt>
   <trkpt lat="51.2215170" lon="5.6935470">
    <ele>34.6</ele>
    <time>2019-09-08T09:07:00Z</time>
   </trkpt>
   <trkpt lat="51.2214530" lon="5.6934770">
    <ele>34.6</ele>
    <time>2019-09-08T09:07:01Z</time>
   </trkpt>
   <trkpt lat="51.2213910" lon="5.6934420">
    <ele>34.5</ele>
    <time>2019-09-08T09:07:02Z</time>
   </trkpt>
   <trkpt lat="51.2213230" lon="5.6933980">
    <ele>34.5</ele>
    <time>2019-09-08T09:07:03Z</time>
   </trkpt>
   <trkpt lat="51.2212540" lon="5.6933590">
    <ele>34.5</ele>
    <time>2019-09-08T09:07:04Z</time>
   </trkpt>
   <trkpt lat="51.2211790" lon="5.6933130">
    <ele>34.5</ele>
    <time>2019-09-08T09:07:05Z</time>
   </trkpt>
   <trkpt lat="51.2211170" lon="5.6932730">
    <ele>34.5</ele>
    <time>2019-09-08T09:07:06Z</time>
   </trkpt>
   <trkpt lat="51.2210370" lon="5.6932310">
    <ele>34.5</ele>
    <time>2019-09-08T09:07:07Z</time>
   </trkpt>
   <trkpt lat="51.2209700" lon="5.6931820">
    <ele>34.5</ele>
    <time>2019-09-08T09:07:08Z</time>
   </trkpt>
   <trkpt lat="51.2209030" lon="5.6931300">
    <ele>34.5</ele>
    <time>2019-09-08T09:07:09Z</time>
   </trkpt>
   <trkpt lat="51.2208390" lon="5.6930890">
    <ele>34.4</ele>
    <time>2019-09-08T09:07:10Z</time>
   </trkpt>
   <trkpt lat="51.2207730" lon="5.6930260">
    <ele>34.4</ele>
    <time>2019-09-08T09:07:11Z</time>
   </trkpt>
   <trkpt lat="51.2207110" lon="5.6929680">
    <ele>34.4</ele>
    <time>2019-09-08T09:07:12Z</time>
   </trkpt>
   <trkpt lat="51.2206220" lon="5.6928910">
    <ele>34.4</ele>
    <time>2019-09-08T09:07:13Z</time>
   </trkpt>
   <trkpt lat="51.2205600" lon="5.6928440">
    <ele>34.4</ele>
    <time>2019-09-08T09:07:14Z</time>
   </trkpt>
   <trkpt lat="51.2204950" lon="5.6928020">
    <ele>34.4</ele>
    <time>2019-09-08T09:07:15Z</time>
   </trkpt>
   <trkpt lat="51.2204350" lon="5.6927900">
    <ele>34.3</ele>
    <time>2019-09-08T09:07:16Z</time>
   </trkpt>
   <trkpt lat="51.2203610" lon="5.6927580">
    <ele>34.3</ele>
    <time>2019-09-08T09:07:17Z</time>
   </trkpt>
   <trkpt lat="51.2202890" lon="5.6927040">
    <ele>34.3</ele>
    <time>2019-09-08T09:07:18Z</time>
   </trkpt>
   <trkpt lat="51.2202280" lon="5.6926510">
    <ele>34.3</ele>
    <time>2019-09-08T09:07:19Z</time>
   </trkpt>
   <trkpt lat="51.2201660" lon="5.6926020">
    <ele>34.3</ele>
    <time>2019-09-08T09:07:20Z</time>
   </trkpt>
   <trkpt lat="51.2200980" lon="5.6925600">
    <ele>34.3</ele>
    <time>2019-09-08T09:07:21Z</time>
   </trkpt>
   <trkpt lat="51.2200310" lon="5.6925220">
    <ele>34.3</ele>
    <time>2019-09-08T09:07:22Z</time>
   </trkpt>
   <trkpt lat="51.2199670" lon="5.6924730">
    <ele>34.2</ele>
    <time>2019-09-08T09:07:23Z</time>
   </trkpt>
   <trkpt lat="51.2199090" lon="5.6924350">
    <ele>34.2</ele>
    <time>2019-09-08T09:07:24Z</time>
   </trkpt>
   <trkpt lat="51.2198490" lon="5.6923740">
    <ele>34.2</ele>
    <time>2019-09-08T09:07:25Z</time>
   </trkpt>
   <trkpt lat="51.2197790" lon="5.6923310">
    <ele>34.2</ele>
    <time>2019-09-08T09:07:26Z</time>
   </trkpt>
   <trkpt lat="51.2197080" lon="5.6922960">
    <ele>34.2</ele>
    <time>2019-09-08T09:07:27Z</time>
   </trkpt>
   <trkpt lat="51.2196410" lon="5.6922510">
    <ele>34.2</ele>
    <time>2019-09-08T09:07:28Z</time>
   </trkpt>
   <trkpt lat="51.2195680" lon="5.6922270">
    <ele>34.2</ele>
    <time>2019-09-08T09:07:29Z</time>
   </trkpt>
   <trkpt lat="51.2195070" lon="5.6921790">
    <ele>34.2</ele>
    <time>2019-09-08T09:07:30Z</time>
   </trkpt>
   <trkpt lat="51.2194430" lon="5.6921380">
    <ele>34.2</ele>
    <time>2019-09-08T09:07:31Z</time>
   </trkpt>
   <trkpt lat="51.2193920" lon="5.6920960">
    <ele>34.2</ele>
    <time>2019-09-08T09:07:32Z</time>
   </trkpt>
   <trkpt lat="51.2192900" lon="5.6920660">
    <ele>34.1</ele>
    <time>2019-09-08T09:07:33Z</time>
   </trkpt>
   <trkpt lat="51.2192270" lon="5.6920180">
    <ele>34.1</ele>
    <time>2019-09-08T09:07:34Z</time>
   </trkpt>
   <trkpt lat="51.2191610" lon="5.6919690">
    <ele>34.1</ele>
    <time>2019-09-08T09:07:35Z</time>
   </trkpt>
   <trkpt lat="51.2190870" lon="5.6919230">
    <ele>34.1</ele>
    <time>2019-09-08T09:07:36Z</time>
   </trkpt>
   <trkpt lat="51.2190210" lon="5.6918770">
    <ele>34.1</ele>
    <time>2019-09-08T09:07:37Z</time>
   </trkpt>
   <trkpt lat="51.2189280" lon="5.6918310">
    <ele>34.1</ele>
    <time>2019-09-08T09:07:38Z</time>
   </trkpt>
   <trkpt lat="51.2188600" lon="5.6917830">
    <ele>34.1</ele>
    <time>2019-09-08T09:07:39Z</time>
   </trkpt>
   <trkpt lat="51.2187980" lon="5.6917280">
    <ele>34.1</ele>
    <time>2019-09-08T09:07:40Z</time>
   </trkpt>
   <trkpt lat="51.2187490" lon="5.6916790">
    <ele>34.1</ele>
    <time>2019-09-08T09:07:41Z</time>
   </trkpt>
   <trkpt lat="51.2186880" lon="5.6916160">
    <ele>34.1</ele>
    <time>2019-09-08T09:07:42Z</time>
   </trkpt>
   <trkpt lat="51.2186200" lon="5.6915690">
    <ele>34.1</ele>
    <time>2019-09-08T09:07:43Z</time>
   </trkpt>
   <trkpt lat="51.2185510" lon="5.6915280">
    <ele>34.1</ele>
    <time>2019-09-08T09:07:44Z</time>
   </trkpt>
   <trkpt lat="51.2184680" lon="5.6914710">
    <ele>34.1</ele>
    <time>2019-09-08T09:07:45Z</time>
   </trkpt>
   <trkpt lat="51.2183940" lon="5.6914320">
    <ele>34.1</ele>
    <time>2019-09-08T09:07:46Z</time>
   </trkpt>
   <trkpt lat="51.2183450" lon="5.6913890">
    <ele>34.1</ele>
    <time>2019-09-08T09:07:47Z</time>
   </trkpt>
   <trkpt lat="51.2182770" lon="5.6913380">
    <ele>34.1</ele>
    <time>2019-09-08T09:07:48Z</time>
   </trkpt>
   <trkpt lat="51.2182090" lon="5.6913000">
    <ele>34.0</ele>
    <time>2019-09-08T09:07:49Z</time>
   </trkpt>
   <trkpt lat="51.2181470" lon="5.6912540">
    <ele>34.0</ele>
    <time>2019-09-08T09:07:50Z</time>
   </trkpt>
   <trkpt lat="51.2180890" lon="5.6912140">
    <ele>34.0</ele>
    <time>2019-09-08T09:07:51Z</time>
   </trkpt>
   <trkpt lat="51.2180250" lon="5.6911770">
    <ele>34.0</ele>
    <time>2019-09-08T09:07:52Z</time>
   </trkpt>
   <trkpt lat="51.2179640" lon="5.6911360">
    <ele>34.0</ele>
    <time>2019-09-08T09:07:53Z</time>
   </trkpt>
   <trkpt lat="51.2179070" lon="5.6910780">
    <ele>33.9</ele>
    <time>2019-09-08T09:07:54Z</time>
   </trkpt>
   <trkpt lat="51.2178430" lon="5.6910270">
    <ele>33.9</ele>
    <time>2019-09-08T09:07:55Z</time>
   </trkpt>
   <trkpt lat="51.2177810" lon="5.6909910">
    <ele>33.9</ele>
    <time>2019-09-08T09:07:56Z</time>
   </trkpt>
   <trkpt lat="51.2177150" lon="5.6909400">
    <ele>33.9</ele>
    <time>2019-09-08T09:07:57Z</time>
   </trkpt>
   <trkpt lat="51.2176520" lon="5.6908980">
    <ele>33.9</ele>
    <time>2019-09-08T09:07:58Z</time>
   </trkpt>
   <trkpt lat="51.2175890" lon="5.6908600">
    <ele>33.9</ele>
    <time>2019-09-08T09:07:59Z</time>
   </trkpt>
   <trkpt lat="51.2175280" lon="5.6908190">
    <ele>33.9</ele>
    <time>2019-09-08T09:08:00Z</time>
   </trkpt>
   <trkpt lat="51.2174600" lon="5.6907750">
    <ele>33.9</ele>
    <time>2019-09-08T09:08:01Z</time>
   </trkpt>
   <trkpt lat="51.2173950" lon="5.6907330">
    <ele>33.9</ele>
    <time>2019-09-08T09:08:02Z</time>
   </trkpt>
   <trkpt lat="51.2173290" lon="5.6906990">
    <ele>33.9</ele>
    <time>2019-09-08T09:08:03Z</time>
   </trkpt>
   <trkpt lat="51.2172730" lon="5.6906800">
    <ele>33.9</ele>
    <time>2019-09-08T09:08:04Z</time>
   </trkpt>
   <trkpt lat="51.2172020" lon="5.6906170">
    <ele>33.9</ele>
    <time>2019-09-08T09:08:05Z</time>
   </trkpt>
   <trkpt lat="51.2171400" lon="5.6905750">
    <ele>33.9</ele>
    <time>2019-09-08T09:08:06Z</time>
   </trkpt>
   <trkpt lat="51.2170670" lon="5.6905390">
    <ele>33.9</ele>
    <time>2019-09-08T09:08:07Z</time>
   </trkpt>
   <trkpt lat="51.2170090" lon="5.6904890">
    <ele>33.9</ele>
    <time>2019-09-08T09:08:08Z</time>
   </trkpt>
   <trkpt lat="51.2169450" lon="5.6904380">
    <ele>33.9</ele>
    <time>2019-09-08T09:08:09Z</time>
   </trkpt>
   <trkpt lat="51.2168660" lon="5.6904010">
    <ele>33.8</ele>
    <time>2019-09-08T09:08:10Z</time>
   </trkpt>
   <trkpt lat="51.2167990" lon="5.6903580">
    <ele>33.8</ele>
    <time>2019-09-08T09:08:11Z</time>
   </trkpt>
   <trkpt lat="51.2167390" lon="5.6903170">
    <ele>33.8</ele>
    <time>2019-09-08T09:08:12Z</time>
   </trkpt>
   <trkpt lat="51.2166700" lon="5.6902770">
    <ele>33.9</ele>
    <time>2019-09-08T09:08:13Z</time>
   </trkpt>
   <trkpt lat="51.2166150" lon="5.6902260">
    <ele>33.9</ele>
    <time>2019-09-08T09:08:14Z</time>
   </trkpt>
   <trkpt lat="51.2165540" lon="5.6901860">
    <ele>33.9</ele>
    <time>2019-09-08T09:08:15Z</time>
   </trkpt>
   <trkpt lat="51.2164890" lon="5.6901600">
    <ele>33.9</ele>
    <time>2019-09-08T09:08:16Z</time>
   </trkpt>
   <trkpt lat="51.2164280" lon="5.6901410">
    <ele>33.9</ele>
    <time>2019-09-08T09:08:17Z</time>
   </trkpt>
   <trkpt lat="51.2163650" lon="5.6901570">
    <ele>33.9</ele>
    <time>2019-09-08T09:08:18Z</time>
   </trkpt>
   <trkpt lat="51.2163070" lon="5.6901870">
    <ele>33.7</ele>
    <time>2019-09-08T09:08:19Z</time>
   </trkpt>
   <trkpt lat="51.2162360" lon="5.6902230">
    <ele>33.6</ele>
    <time>2019-09-08T09:08:20Z</time>
   </trkpt>
   <trkpt lat="51.2161710" lon="5.6902510">
    <ele>33.4</ele>
    <time>2019-09-08T09:08:21Z</time>
   </trkpt>
   <trkpt lat="51.2160990" lon="5.6902910">
    <ele>33.3</ele>
    <time>2019-09-08T09:08:22Z</time>
   </trkpt>
   <trkpt lat="51.2160200" lon="5.6903320">
    <ele>33.2</ele>
    <time>2019-09-08T09:08:23Z</time>
   </trkpt>
   <trkpt lat="51.2159440" lon="5.6903790">
    <ele>33.1</ele>
    <time>2019-09-08T09:08:24Z</time>
   </trkpt>
   <trkpt lat="51.2158750" lon="5.6904150">
    <ele>33.0</ele>
    <time>2019-09-08T09:08:25Z</time>
   </trkpt>
   <trkpt lat="51.2158070" lon="5.6904390">
    <ele>33.0</ele>
    <time>2019-09-08T09:08:26Z</time>
   </trkpt>
   <trkpt lat="51.2157420" lon="5.6904710">
    <ele>33.0</ele>
    <time>2019-09-08T09:08:27Z</time>
   </trkpt>
   <trkpt lat="51.2156800" lon="5.6904990">
    <ele>33.0</ele>
    <time>2019-09-08T09:08:28Z</time>
   </trkpt>
   <trkpt lat="51.2156100" lon="5.6905240">
    <ele>33.0</ele>
    <time>2019-09-08T09:08:29Z</time>
   </trkpt>
   <trkpt lat="51.2155410" lon="5.6905580">
    <ele>33.0</ele>
    <time>2019-09-08T09:08:30Z</time>
   </trkpt>
   <trkpt lat="51.2154600" lon="5.6905990">
    <ele>33.0</ele>
    <time>2019-09-08T09:08:31Z</time>
   </trkpt>
   <trkpt lat="51.2153960" lon="5.6906290">
    <ele>33.0</ele>
    <time>2019-09-08T09:08:32Z</time>
   </trkpt>
   <trkpt lat="51.2153270" lon="5.6906540">
    <ele>33.0</ele>
    <time>2019-09-08T09:08:33Z</time>
   </trkpt>
   <trkpt lat="51.2152640" lon="5.6906750">
    <ele>33.0</ele>
    <time>2019-09-08T09:08:34Z</time>
   </trkpt>
   <trkpt lat="51.2151990" lon="5.6907060">
    <ele>33.0</ele>
    <time>2019-09-08T09:08:35Z</time>
   </trkpt>
   <trkpt lat="51.2151380" lon="5.6907340">
    <ele>33.0</ele>
    <time>2019-09-08T09:08:36Z</time>
   </trkpt>
   <trkpt lat="51.2150740" lon="5.6907550">
    <ele>33.0</ele>
    <time>2019-09-08T09:08:37Z</time>
   </trkpt>
   <trkpt lat="51.2150090" lon="5.6907780">
    <ele>33.0</ele>
    <time>2019-09-08T09:08:38Z</time>
   </trkpt>
   <trkpt lat="51.2149500" lon="5.6908020">
    <ele>32.9</ele>
    <time>2019-09-08T09:08:39Z</time>
   </trkpt>
   <trkpt lat="51.2148870" lon="5.6908290">
    <ele>32.9</ele>
    <time>2019-09-08T09:08:40Z</time>
   </trkpt>
   <trkpt lat="51.2148180" lon="5.6908610">
    <ele>32.8</ele>
    <time>2019-09-08T09:08:41Z</time>
   </trkpt>
   <trkpt lat="51.2147540" lon="5.6908890">
    <ele>32.8</ele>
    <time>2019-09-08T09:08:42Z</time>
   </trkpt>
   <trkpt lat="51.2146860" lon="5.6909180">
    <ele>32.7</ele>
    <time>2019-09-08T09:08:43Z</time>
   </trkpt>
   <trkpt lat="51.2146260" lon="5.6909440">
    <ele>32.7</ele>
    <time>2019-09-08T09:08:44Z</time>
   </trkpt>
   <trkpt lat="51.2145510" lon="5.6909620">
    <ele>32.7</ele>
    <time>2019-09-08T09:08:45Z</time>
   </trkpt>
   <trkpt lat="51.2144890" lon="5.6909870">
    <ele>32.7</ele>
    <time>2019-09-08T09:08:46Z</time>
   </trkpt>
   <trkpt lat="51.2144200" lon="5.6910150">
    <ele>32.6</ele>
    <time>2019-09-08T09:08:47Z</time>
   </trkpt>
   <trkpt lat="51.2143590" lon="5.6910450">
    <ele>32.6</ele>
    <time>2019-09-08T09:08:48Z</time>
   </trkpt>
   <trkpt lat="51.2142840" lon="5.6910710">
    <ele>32.6</ele>
    <time>2019-09-08T09:08:49Z</time>
   </trkpt>
   <trkpt lat="51.2142230" lon="5.6911000">
    <ele>32.6</ele>
    <time>2019-09-08T09:08:50Z</time>
   </trkpt>
   <trkpt lat="51.2141640" lon="5.6911400">
    <ele>32.5</ele>
    <time>2019-09-08T09:08:51Z</time>
   </trkpt>
   <trkpt lat="51.2140950" lon="5.6911650">
    <ele>32.5</ele>
    <time>2019-09-08T09:08:52Z</time>
   </trkpt>
   <trkpt lat="51.2140210" lon="5.6911990">
    <ele>32.5</ele>
    <time>2019-09-08T09:08:53Z</time>
   </trkpt>
   <trkpt lat="51.2139450" lon="5.6912350">
    <ele>32.5</ele>
    <time>2019-09-08T09:08:54Z</time>
   </trkpt>
   <trkpt lat="51.2138670" lon="5.6912730">
    <ele>32.4</ele>
    <time>2019-09-08T09:08:55Z</time>
   </trkpt>
   <trkpt lat="51.2137910" lon="5.6913010">
    <ele>32.4</ele>
    <time>2019-09-08T09:08:56Z</time>
   </trkpt>
   <trkpt lat="51.2137100" lon="5.6913230">
    <ele>32.6</ele>
    <time>2019-09-08T09:08:57Z</time>
   </trkpt>
   <trkpt lat="51.2136370" lon="5.6913560">
    <ele>32.8</ele>
    <time>2019-09-08T09:08:58Z</time>
   </trkpt>
   <trkpt lat="51.2135730" lon="5.6913840">
    <ele>32.9</ele>
    <time>2019-09-08T09:08:59Z</time>
   </trkpt>
   <trkpt lat="51.2135030" lon="5.6914120">
    <ele>33.0</ele>
    <time>2019-09-08T09:09:00Z</time>
   </trkpt>
   <trkpt lat="51.2134380" lon="5.6914320">
    <ele>33.2</ele>
    <time>2019-09-08T09:09:01Z</time>
   </trkpt>
   <trkpt lat="51.2133810" lon="5.6914570">
    <ele>33.3</ele>
    <time>2019-09-08T09:09:02Z</time>
   </trkpt>
   <trkpt lat="51.2133190" lon="5.6914870">
    <ele>33.5</ele>
    <time>2019-09-08T09:09:03Z</time>
   </trkpt>
   <trkpt lat="51.2132470" lon="5.6915030">
    <ele>33.7</ele>
    <time>2019-09-08T09:09:04Z</time>
   </trkpt>
   <trkpt lat="51.2131690" lon="5.6915340">
    <ele>33.9</ele>
    <time>2019-09-08T09:09:05Z</time>
   </trkpt>
   <trkpt lat="51.2130890" lon="5.6915710">
    <ele>34.2</ele>
    <time>2019-09-08T09:09:06Z</time>
   </trkpt>
   <trkpt lat="51.2130130" lon="5.6916030">
    <ele>34.4</ele>
    <time>2019-09-08T09:09:07Z</time>
   </trkpt>
   <trkpt lat="51.2129420" lon="5.6916400">
    <ele>34.7</ele>
    <time>2019-09-08T09:09:08Z</time>
   </trkpt>
   <trkpt lat="51.2128770" lon="5.6916680">
    <ele>35.0</ele>
    <time>2019-09-08T09:09:09Z</time>
   </trkpt>
   <trkpt lat="51.2128060" lon="5.6917020">
    <ele>35.4</ele>
    <time>2019-09-08T09:09:10Z</time>
   </trkpt>
   <trkpt lat="51.2127160" lon="5.6917380">
    <ele>35.8</ele>
    <time>2019-09-08T09:09:11Z</time>
   </trkpt>
   <trkpt lat="51.2126500" lon="5.6917770">
    <ele>36.2</ele>
    <time>2019-09-08T09:09:12Z</time>
   </trkpt>
   <trkpt lat="51.2125810" lon="5.6918110">
    <ele>36.5</ele>
    <time>2019-09-08T09:09:13Z</time>
   </trkpt>
   <trkpt lat="51.2125110" lon="5.6918390">
    <ele>36.8</ele>
    <time>2019-09-08T09:09:14Z</time>
   </trkpt>
   <trkpt lat="51.2124460" lon="5.6918630">
    <ele>37.1</ele>
    <time>2019-09-08T09:09:15Z</time>
   </trkpt>
   <trkpt lat="51.2123810" lon="5.6918880">
    <ele>37.4</ele>
    <time>2019-09-08T09:09:16Z</time>
   </trkpt>
   <trkpt lat="51.2123140" lon="5.6919120">
    <ele>37.5</ele>
    <time>2019-09-08T09:09:17Z</time>
   </trkpt>
   <trkpt lat="51.2122610" lon="5.6919480">
    <ele>37.6</ele>
    <time>2019-09-08T09:09:18Z</time>
   </trkpt>
   <trkpt lat="51.2121990" lon="5.6919870">
    <ele>37.6</ele>
    <time>2019-09-08T09:09:19Z</time>
   </trkpt>
   <trkpt lat="51.2121420" lon="5.6920120">
    <ele>37.7</ele>
    <time>2019-09-08T09:09:20Z</time>
   </trkpt>
   <trkpt lat="51.2120890" lon="5.6920500">
    <ele>37.7</ele>
    <time>2019-09-08T09:09:21Z</time>
   </trkpt>
   <trkpt lat="51.2120260" lon="5.6920730">
    <ele>37.7</ele>
    <time>2019-09-08T09:09:22Z</time>
   </trkpt>
   <trkpt lat="51.2119590" lon="5.6920940">
    <ele>37.8</ele>
    <time>2019-09-08T09:09:23Z</time>
   </trkpt>
   <trkpt lat="51.2118780" lon="5.6921330">
    <ele>37.8</ele>
    <time>2019-09-08T09:09:24Z</time>
   </trkpt>
   <trkpt lat="51.2118140" lon="5.6921600">
    <ele>37.8</ele>
    <time>2019-09-08T09:09:25Z</time>
   </trkpt>
   <trkpt lat="51.2117500" lon="5.6921870">
    <ele>37.8</ele>
    <time>2019-09-08T09:09:26Z</time>
   </trkpt>
   <trkpt lat="51.2116600" lon="5.6922010">
    <ele>37.8</ele>
    <time>2019-09-08T09:09:27Z</time>
   </trkpt>
   <trkpt lat="51.2115650" lon="5.6922130">
    <ele>37.8</ele>
    <time>2019-09-08T09:09:28Z</time>
   </trkpt>
   <trkpt lat="51.2114940" lon="5.6922440">
    <ele>37.9</ele>
    <time>2019-09-08T09:09:29Z</time>
   </trkpt>
   <trkpt lat="51.2114270" lon="5.6922950">
    <ele>37.9</ele>
    <time>2019-09-08T09:09:30Z</time>
   </trkpt>
   <trkpt lat="51.2113590" lon="5.6923240">
    <ele>37.9</ele>
    <time>2019-09-08T09:09:31Z</time>
   </trkpt>
   <trkpt lat="51.2112890" lon="5.6923460">
    <ele>37.9</ele>
    <time>2019-09-08T09:09:32Z</time>
   </trkpt>
   <trkpt lat="51.2112230" lon="5.6923780">
    <ele>38.0</ele>
    <time>2019-09-08T09:09:33Z</time>
   </trkpt>
   <trkpt lat="51.2111510" lon="5.6924050">
    <ele>38.0</ele>
    <time>2019-09-08T09:09:34Z</time>
   </trkpt>
   <trkpt lat="51.2111040" lon="5.6924370">
    <ele>38.0</ele>
    <time>2019-09-08T09:09:35Z</time>
   </trkpt>
   <trkpt lat="51.2110430" lon="5.6924590">
    <ele>38.1</ele>
    <time>2019-09-08T09:09:36Z</time>
   </trkpt>
   <trkpt lat="51.2109710" lon="5.6924960">
    <ele>38.2</ele>
    <time>2019-09-08T09:09:37Z</time>
   </trkpt>
   <trkpt lat="51.2108920" lon="5.6925270">
    <ele>38.2</ele>
    <time>2019-09-08T09:09:38Z</time>
   </trkpt>
   <trkpt lat="51.2108290" lon="5.6925670">
    <ele>38.3</ele>
    <time>2019-09-08T09:09:39Z</time>
   </trkpt>
   <trkpt lat="51.2107460" lon="5.6926000">
    <ele>38.4</ele>
    <time>2019-09-08T09:09:40Z</time>
   </trkpt>
   <trkpt lat="51.2106910" lon="5.6926410">
    <ele>38.4</ele>
    <time>2019-09-08T09:09:41Z</time>
   </trkpt>
   <trkpt lat="51.2106070" lon="5.6926680">
    <ele>38.5</ele>
    <time>2019-09-08T09:09:42Z</time>
   </trkpt>
   <trkpt lat="51.2105230" lon="5.6926990">
    <ele>38.5</ele>
    <time>2019-09-08T09:09:43Z</time>
   </trkpt>
   <trkpt lat="51.2104320" lon="5.6927340">
    <ele>38.6</ele>
    <time>2019-09-08T09:09:44Z</time>
   </trkpt>
   <trkpt lat="51.2103650" lon="5.6927730">
    <ele>38.6</ele>
    <time>2019-09-08T09:09:45Z</time>
   </trkpt>
   <trkpt lat="51.2102930" lon="5.6927950">
    <ele>38.7</ele>
    <time>2019-09-08T09:09:46Z</time>
   </trkpt>
   <trkpt lat="51.2102210" lon="5.6928290">
    <ele>38.8</ele>
    <time>2019-09-08T09:09:47Z</time>
   </trkpt>
   <trkpt lat="51.2101480" lon="5.6928570">
    <ele>38.9</ele>
    <time>2019-09-08T09:09:48Z</time>
   </trkpt>
   <trkpt lat="51.2100460" lon="5.6928940">
    <ele>38.9</ele>
    <time>2019-09-08T09:09:49Z</time>
   </trkpt>
   <trkpt lat="51.2099720" lon="5.6929260">
    <ele>39.0</ele>
    <time>2019-09-08T09:09:50Z</time>
   </trkpt>
   <trkpt lat="51.2099030" lon="5.6929570">
    <ele>39.0</ele>
    <time>2019-09-08T09:09:51Z</time>
   </trkpt>
   <trkpt lat="51.2098330" lon="5.6929840">
    <ele>39.1</ele>
    <time>2019-09-08T09:09:52Z</time>
   </trkpt>
   <trkpt lat="51.2097650" lon="5.6930090">
    <ele>39.1</ele>
    <time>2019-09-08T09:09:53Z</time>
   </trkpt>
   <trkpt lat="51.2096960" lon="5.6930400">
    <ele>39.2</ele>
    <time>2019-09-08T09:09:54Z</time>
   </trkpt>
   <trkpt lat="51.2096140" lon="5.6930610">
    <ele>39.3</ele>
    <time>2019-09-08T09:09:55Z</time>
   </trkpt>
   <trkpt lat="51.2095380" lon="5.6930810">
    <ele>39.4</ele>
    <time>2019-09-08T09:09:56Z</time>
   </trkpt>
   <trkpt lat="51.2094760" lon="5.6931050">
    <ele>39.5</ele>
    <time>2019-09-08T09:09:57Z</time>
   </trkpt>
   <trkpt lat="51.2094050" lon="5.6931310">
    <ele>39.6</ele>
    <time>2019-09-08T09:09:58Z</time>
   </trkpt>
   <trkpt lat="51.2093290" lon="5.6931630">
    <ele>39.6</ele>
    <time>2019-09-08T09:09:59Z</time>
   </trkpt>
   <trkpt lat="51.2092620" lon="5.6931880">
    <ele>39.6</ele>
    <time>2019-09-08T09:10:00Z</time>
   </trkpt>
   <trkpt lat="51.2092340" lon="5.6932290">
    <ele>39.6</ele>
    <time>2019-09-08T09:10:01Z</time>
   </trkpt>
   <trkpt lat="51.2091450" lon="5.6932450">
    <ele>39.5</ele>
    <time>2019-09-08T09:10:02Z</time>
   </trkpt>
   <trkpt lat="51.2090830" lon="5.6932700">
    <ele>39.5</ele>
    <time>2019-09-08T09:10:03Z</time>
   </trkpt>
   <trkpt lat="51.2090180" lon="5.6933030">
    <ele>39.4</ele>
    <time>2019-09-08T09:10:04Z</time>
   </trkpt>
   <trkpt lat="51.2089610" lon="5.6933350">
    <ele>39.3</ele>
    <time>2019-09-08T09:10:05Z</time>
   </trkpt>
   <trkpt lat="51.2088990" lon="5.6933610">
    <ele>39.3</ele>
    <time>2019-09-08T09:10:06Z</time>
   </trkpt>
   <trkpt lat="51.2088520" lon="5.6933860">
    <ele>39.3</ele>
    <time>2019-09-08T09:10:07Z</time>
   </trkpt>
   <trkpt lat="51.2087980" lon="5.6934130">
    <ele>39.2</ele>
    <time>2019-09-08T09:10:08Z</time>
   </trkpt>
   <trkpt lat="51.2087330" lon="5.6934350">
    <ele>39.2</ele>
    <time>2019-09-08T09:10:09Z</time>
   </trkpt>
   <trkpt lat="51.2086690" lon="5.6934600">
    <ele>39.2</ele>
    <time>2019-09-08T09:10:10Z</time>
   </trkpt>
   <trkpt lat="51.2086010" lon="5.6934880">
    <ele>39.1</ele>
    <time>2019-09-08T09:10:11Z</time>
   </trkpt>
   <trkpt lat="51.2085380" lon="5.6935240">
    <ele>39.1</ele>
    <time>2019-09-08T09:10:12Z</time>
   </trkpt>
   <trkpt lat="51.2084730" lon="5.6935550">
    <ele>39.1</ele>
    <time>2019-09-08T09:10:13Z</time>
   </trkpt>
   <trkpt lat="51.2083920" lon="5.6935700">
    <ele>39.0</ele>
    <time>2019-09-08T09:10:14Z</time>
   </trkpt>
   <trkpt lat="51.2083320" lon="5.6935910">
    <ele>39.0</ele>
    <time>2019-09-08T09:10:15Z</time>
   </trkpt>
   <trkpt lat="51.2082720" lon="5.6936280">
    <ele>39.0</ele>
    <time>2019-09-08T09:10:16Z</time>
   </trkpt>
   <trkpt lat="51.2082080" lon="5.6936660">
    <ele>39.0</ele>
    <time>2019-09-08T09:10:17Z</time>
   </trkpt>
   <trkpt lat="51.2081520" lon="5.6936930">
    <ele>38.9</ele>
    <time>2019-09-08T09:10:18Z</time>
   </trkpt>
   <trkpt lat="51.2080900" lon="5.6937320">
    <ele>38.9</ele>
    <time>2019-09-08T09:10:19Z</time>
   </trkpt>
   <trkpt lat="51.2080340" lon="5.6937630">
    <ele>38.9</ele>
    <time>2019-09-08T09:10:20Z</time>
   </trkpt>
   <trkpt lat="51.2079680" lon="5.6937890">
    <ele>38.8</ele>
    <time>2019-09-08T09:10:21Z</time>
   </trkpt>
   <trkpt lat="51.2079200" lon="5.6938270">
    <ele>38.8</ele>
    <time>2019-09-08T09:10:22Z</time>
   </trkpt>
   <trkpt lat="51.2078620" lon="5.6938570">
    <ele>38.8</ele>
    <time>2019-09-08T09:10:23Z</time>
   </trkpt>
   <trkpt lat="51.2078020" lon="5.6938920">
    <ele>38.8</ele>
    <time>2019-09-08T09:10:24Z</time>
   </trkpt>
   <trkpt lat="51.2077420" lon="5.6939200">
    <ele>38.8</ele>
    <time>2019-09-08T09:10:25Z</time>
   </trkpt>
   <trkpt lat="51.2076760" lon="5.6939400">
    <ele>38.9</ele>
    <time>2019-09-08T09:10:26Z</time>
   </trkpt>
   <trkpt lat="51.2076150" lon="5.6939630">
    <ele>39.0</ele>
    <time>2019-09-08T09:10:27Z</time>
   </trkpt>
   <trkpt lat="51.2075450" lon="5.6939930">
    <ele>39.1</ele>
    <time>2019-09-08T09:10:28Z</time>
   </trkpt>
   <trkpt lat="51.2074790" lon="5.6940270">
    <ele>39.1</ele>
    <time>2019-09-08T09:10:29Z</time>
   </trkpt>
   <trkpt lat="51.2074150" lon="5.6940540">
    <ele>39.2</ele>
    <time>2019-09-08T09:10:30Z</time>
   </trkpt>
   <trkpt lat="51.2073550" lon="5.6940820">
    <ele>39.3</ele>
    <time>2019-09-08T09:10:31Z</time>
   </trkpt>
   <trkpt lat="51.2072940" lon="5.6941100">
    <ele>39.3</ele>
    <time>2019-09-08T09:10:32Z</time>
   </trkpt>
   <trkpt lat="51.2072070" lon="5.6941280">
    <ele>39.4</ele>
    <time>2019-09-08T09:10:33Z</time>
   </trkpt>
   <trkpt lat="51.2071280" lon="5.6941570">
    <ele>39.6</ele>
    <time>2019-09-08T09:10:34Z</time>
   </trkpt>
   <trkpt lat="51.2070630" lon="5.6941950">
    <ele>39.7</ele>
    <time>2019-09-08T09:10:35Z</time>
   </trkpt>
   <trkpt lat="51.2070000" lon="5.6942250">
    <ele>39.9</ele>
    <time>2019-09-08T09:10:36Z</time>
   </trkpt>
   <trkpt lat="51.2069260" lon="5.6942520">
    <ele>39.3</ele>
    <time>2019-09-08T09:10:37Z</time>
   </trkpt>
   <trkpt lat="51.2068570" lon="5.6942670">
    <ele>38.9</ele>
    <time>2019-09-08T09:10:38Z</time>
   </trkpt>
   <trkpt lat="51.2067830" lon="5.6942930">
    <ele>38.6</ele>
    <time>2019-09-08T09:10:39Z</time>
   </trkpt>
   <trkpt lat="51.2067260" lon="5.6943330">
    <ele>38.3</ele>
    <time>2019-09-08T09:10:40Z</time>
   </trkpt>
   <trkpt lat="51.2066650" lon="5.6943700">
    <ele>38.0</ele>
    <time>2019-09-08T09:10:41Z</time>
   </trkpt>
   <trkpt lat="51.2066180" lon="5.6944100">
    <ele>37.9</ele>
    <time>2019-09-08T09:10:42Z</time>
   </trkpt>
   <trkpt lat="51.2065430" lon="5.6944360">
    <ele>37.6</ele>
    <time>2019-09-08T09:10:43Z</time>
   </trkpt>
   <trkpt lat="51.2064750" lon="5.6944650">
    <ele>37.4</ele>
    <time>2019-09-08T09:10:44Z</time>
   </trkpt>
   <trkpt lat="51.2064360" lon="5.6944840">
    <ele>37.2</ele>
    <time>2019-09-08T09:10:45Z</time>
   </trkpt>
   <trkpt lat="51.2063750" lon="5.6945200">
    <ele>37.0</ele>
    <time>2019-09-08T09:10:46Z</time>
   </trkpt>
   <trkpt lat="51.2063100" lon="5.6945500">
    <ele>36.8</ele>
    <time>2019-09-08T09:10:47Z</time>
   </trkpt>
   <trkpt lat="51.2062250" lon="5.6945750">
    <ele>36.6</ele>
    <time>2019-09-08T09:10:48Z</time>
   </trkpt>
   <trkpt lat="51.2061500" lon="5.6945960">
    <ele>36.4</ele>
    <time>2019-09-08T09:10:49Z</time>
   </trkpt>
   <trkpt lat="51.2060780" lon="5.6946180">
    <ele>36.2</ele>
    <time>2019-09-08T09:10:50Z</time>
   </trkpt>
   <trkpt lat="51.2060030" lon="5.6946440">
    <ele>36.0</ele>
    <time>2019-09-08T09:10:51Z</time>
   </trkpt>
   <trkpt lat="51.2059300" lon="5.6946500">
    <ele>35.8</ele>
    <time>2019-09-08T09:10:52Z</time>
   </trkpt>
   <trkpt lat="51.2058600" lon="5.6946560">
    <ele>35.6</ele>
    <time>2019-09-08T09:10:53Z</time>
   </trkpt>
   <trkpt lat="51.2057950" lon="5.6946220">
    <ele>35.4</ele>
    <time>2019-09-08T09:10:54Z</time>
   </trkpt>
   <trkpt lat="51.2057290" lon="5.6946000">
    <ele>35.3</ele>
    <time>2019-09-08T09:10:55Z</time>
   </trkpt>
   <trkpt lat="51.2056570" lon="5.6945720">
    <ele>35.1</ele>
    <time>2019-09-08T09:10:56Z</time>
   </trkpt>
   <trkpt lat="51.2056000" lon="5.6945370">
    <ele>35.0</ele>
    <time>2019-09-08T09:10:57Z</time>
   </trkpt>
   <trkpt lat="51.2055310" lon="5.6945040">
    <ele>34.8</ele>
    <time>2019-09-08T09:10:58Z</time>
   </trkpt>
   <trkpt lat="51.2054660" lon="5.6944690">
    <ele>34.7</ele>
    <time>2019-09-08T09:10:59Z</time>
   </trkpt>
   <trkpt lat="51.2054070" lon="5.6944240">
    <ele>34.6</ele>
    <time>2019-09-08T09:11:00Z</time>
   </trkpt>
   <trkpt lat="51.2053450" lon="5.6943880">
    <ele>34.4</ele>
    <time>2019-09-08T09:11:01Z</time>
   </trkpt>
   <trkpt lat="51.2052880" lon="5.6943470">
    <ele>34.3</ele>
    <time>2019-09-08T09:11:02Z</time>
   </trkpt>
   <trkpt lat="51.2052320" lon="5.6943070">
    <ele>34.2</ele>
    <time>2019-09-08T09:11:03Z</time>
   </trkpt>
   <trkpt lat="51.2051710" lon="5.6942660">
    <ele>34.0</ele>
    <time>2019-09-08T09:11:04Z</time>
   </trkpt>
   <trkpt lat="51.2051130" lon="5.6942320">
    <ele>33.9</ele>
    <time>2019-09-08T09:11:05Z</time>
   </trkpt>
   <trkpt lat="51.2050420" lon="5.6941990">
    <ele>33.8</ele>
    <time>2019-09-08T09:11:06Z</time>
   </trkpt>
   <trkpt lat="51.2049730" lon="5.6941640">
    <ele>33.6</ele>
    <time>2019-09-08T09:11:07Z</time>
   </trkpt>
   <trkpt lat="51.2048960" lon="5.6940980">
    <ele>33.4</ele>
    <time>2019-09-08T09:11:08Z</time>
   </trkpt>
   <trkpt lat="51.2048350" lon="5.6940640">
    <ele>33.3</ele>
    <time>2019-09-08T09:11:09Z</time>
   </trkpt>
   <trkpt lat="51.2047650" lon="5.6940370">
    <ele>33.2</ele>
    <time>2019-09-08T09:11:10Z</time>
   </trkpt>
   <trkpt lat="51.2047090" lon="5.6939790">
    <ele>33.0</ele>
    <time>2019-09-08T09:11:11Z</time>
   </trkpt>
   <trkpt lat="51.2046470" lon="5.6939380">
    <ele>32.9</ele>
    <time>2019-09-08T09:11:12Z</time>
   </trkpt>
   <trkpt lat="51.2045720" lon="5.6938730">
    <ele>32.8</ele>
    <time>2019-09-08T09:11:13Z</time>
   </trkpt>
   <trkpt lat="51.2045170" lon="5.6938330">
    <ele>32.6</ele>
    <time>2019-09-08T09:11:14Z</time>
   </trkpt>
   <trkpt lat="51.2044600" lon="5.6938060">
    <ele>32.5</ele>
    <time>2019-09-08T09:11:15Z</time>
   </trkpt>
   <trkpt lat="51.2044090" lon="5.6937810">
    <ele>32.4</ele>
    <time>2019-09-08T09:11:16Z</time>
   </trkpt>
   <trkpt lat="51.2043720" lon="5.6937740">
    <ele>32.4</ele>
    <time>2019-09-08T09:11:17Z</time>
   </trkpt>
   <trkpt lat="51.2043150" lon="5.6937440">
    <ele>32.2</ele>
    <time>2019-09-08T09:11:18Z</time>
   </trkpt>
   <trkpt lat="51.2042520" lon="5.6937080">
    <ele>32.1</ele>
    <time>2019-09-08T09:11:19Z</time>
   </trkpt>
   <trkpt lat="51.2041980" lon="5.6936710">
    <ele>32.0</ele>
    <time>2019-09-08T09:11:20Z</time>
   </trkpt>
   <trkpt lat="51.2041400" lon="5.6936330">
    <ele>31.9</ele>
    <time>2019-09-08T09:11:21Z</time>
   </trkpt>
   <trkpt lat="51.2040560" lon="5.6935840">
    <ele>31.7</ele>
    <time>2019-09-08T09:11:22Z</time>
   </trkpt>
   <trkpt lat="51.2039930" lon="5.6935430">
    <ele>31.5</ele>
    <time>2019-09-08T09:11:23Z</time>
   </trkpt>
   <trkpt lat="51.2039290" lon="5.6934980">
    <ele>31.4</ele>
    <time>2019-09-08T09:11:24Z</time>
   </trkpt>
   <trkpt lat="51.2038540" lon="5.6934470">
    <ele>31.2</ele>
    <time>2019-09-08T09:11:25Z</time>
   </trkpt>
   <trkpt lat="51.2037880" lon="5.6934020">
    <ele>31.0</ele>
    <time>2019-09-08T09:11:26Z</time>
   </trkpt>
   <trkpt lat="51.2037230" lon="5.6933650">
    <ele>30.8</ele>
    <time>2019-09-08T09:11:27Z</time>
   </trkpt>
   <trkpt lat="51.2036640" lon="5.6933350">
    <ele>30.6</ele>
    <time>2019-09-08T09:11:28Z</time>
   </trkpt>
   <trkpt lat="51.2035980" lon="5.6932920">
    <ele>30.4</ele>
    <time>2019-09-08T09:11:29Z</time>
   </trkpt>
   <trkpt lat="51.2035400" lon="5.6932470">
    <ele>30.2</ele>
    <time>2019-09-08T09:11:30Z</time>
   </trkpt>
   <trkpt lat="51.2034790" lon="5.6931980">
    <ele>30.1</ele>
    <time>2019-09-08T09:11:31Z</time>
   </trkpt>
   <trkpt lat="51.2034000" lon="5.6931520">
    <ele>30.0</ele>
    <time>2019-09-08T09:11:32Z</time>
   </trkpt>
   <trkpt lat="51.2033240" lon="5.6931070">
    <ele>30.0</ele>
    <time>2019-09-08T09:11:33Z</time>
   </trkpt>
   <trkpt lat="51.2032610" lon="5.6930600">
    <ele>30.0</ele>
    <time>2019-09-08T09:11:34Z</time>
   </trkpt>
   <trkpt lat="51.2032110" lon="5.6930240">
    <ele>30.0</ele>
    <time>2019-09-08T09:11:35Z</time>
   </trkpt>
   <trkpt lat="51.2031500" lon="5.6929900">
    <ele>30.0</ele>
    <time>2019-09-08T09:11:36Z</time>
   </trkpt>
   <trkpt lat="51.2030780" lon="5.6929390">
    <ele>30.0</ele>
    <time>2019-09-08T09:11:37Z</time>
   </trkpt>
   <trkpt lat="51.2030190" lon="5.6929210">
    <ele>30.0</ele>
    <time>2019-09-08T09:11:38Z</time>
   </trkpt>
   <trkpt lat="51.2029630" lon="5.6928800">
    <ele>30.0</ele>
    <time>2019-09-08T09:11:39Z</time>
   </trkpt>
   <trkpt lat="51.2028990" lon="5.6928400">
    <ele>30.0</ele>
    <time>2019-09-08T09:11:40Z</time>
   </trkpt>
   <trkpt lat="51.2028350" lon="5.6927940">
    <ele>29.8</ele>
    <time>2019-09-08T09:11:41Z</time>
   </trkpt>
   <trkpt lat="51.2027690" lon="5.6927680">
    <ele>29.7</ele>
    <time>2019-09-08T09:11:42Z</time>
   </trkpt>
   <trkpt lat="51.2026970" lon="5.6927510">
    <ele>29.8</ele>
    <time>2019-09-08T09:11:43Z</time>
   </trkpt>
   <trkpt lat="51.2026280" lon="5.6927460">
    <ele>29.8</ele>
    <time>2019-09-08T09:11:44Z</time>
   </trkpt>
   <trkpt lat="51.2025600" lon="5.6927600">
    <ele>29.9</ele>
    <time>2019-09-08T09:11:45Z</time>
   </trkpt>
   <trkpt lat="51.2024940" lon="5.6927780">
    <ele>29.9</ele>
    <time>2019-09-08T09:11:46Z</time>
   </trkpt>
   <trkpt lat="51.2024150" lon="5.6928200">
    <ele>29.9</ele>
    <time>2019-09-08T09:11:47Z</time>
   </trkpt>
   <trkpt lat="51.2023480" lon="5.6928290">
    <ele>30.0</ele>
    <time>2019-09-08T09:11:48Z</time>
   </trkpt>
   <trkpt lat="51.2022830" lon="5.6928380">
    <ele>30.1</ele>
    <time>2019-09-08T09:11:49Z</time>
   </trkpt>
   <trkpt lat="51.2022180" lon="5.6928470">
    <ele>30.1</ele>
    <time>2019-09-08T09:11:50Z</time>
   </trkpt>
   <trkpt lat="51.2021450" lon="5.6928640">
    <ele>30.2</ele>
    <time>2019-09-08T09:11:51Z</time>
   </trkpt>
   <trkpt lat="51.2020590" lon="5.6928780">
    <ele>30.3</ele>
    <time>2019-09-08T09:11:52Z</time>
   </trkpt>
   <trkpt lat="51.2019930" lon="5.6928880">
    <ele>30.4</ele>
    <time>2019-09-08T09:11:53Z</time>
   </trkpt>
   <trkpt lat="51.2019260" lon="5.6929020">
    <ele>30.5</ele>
    <time>2019-09-08T09:11:54Z</time>
   </trkpt>
   <trkpt lat="51.2018710" lon="5.6929070">
    <ele>30.6</ele>
    <time>2019-09-08T09:11:55Z</time>
   </trkpt>
   <trkpt lat="51.2018020" lon="5.6929180">
    <ele>30.7</ele>
    <time>2019-09-08T09:11:56Z</time>
   </trkpt>
   <trkpt lat="51.2017320" lon="5.6929280">
    <ele>30.7</ele>
    <time>2019-09-08T09:11:57Z</time>
   </trkpt>
   <trkpt lat="51.2016730" lon="5.6929520">
    <ele>30.8</ele>
    <time>2019-09-08T09:11:58Z</time>
   </trkpt>
   <trkpt lat="51.2016070" lon="5.6929640">
    <ele>30.9</ele>
    <time>2019-09-08T09:11:59Z</time>
   </trkpt>
   <trkpt lat="51.2015370" lon="5.6929780">
    <ele>31.1</ele>
    <time>2019-09-08T09:12:00Z</time>
   </trkpt>
   <trkpt lat="51.2014710" lon="5.6929970">
    <ele>31.3</ele>
    <time>2019-09-08T09:12:01Z</time>
   </trkpt>
   <trkpt lat="51.2014100" lon="5.6929990">
    <ele>31.5</ele>
    <time>2019-09-08T09:12:02Z</time>
   </trkpt>
   <trkpt lat="51.2013480" lon="5.6930180">
    <ele>31.7</ele>
    <time>2019-09-08T09:12:03Z</time>
   </trkpt>
   <trkpt lat="51.2012760" lon="5.6930440">
    <ele>32.0</ele>
    <time>2019-09-08T09:12:04Z</time>
   </trkpt>
   <trkpt lat="51.2012050" lon="5.6930540">
    <ele>32.2</ele>
    <time>2019-09-08T09:12:05Z</time>
   </trkpt>
   <trkpt lat="51.2011360" lon="5.6930620">
    <ele>32.3</ele>
    <time>2019-09-08T09:12:06Z</time>
   </trkpt>
   <trkpt lat="51.2010810" lon="5.6930740">
    <ele>32.5</ele>
    <time>2019-09-08T09:12:07Z</time>
   </trkpt>
   <trkpt lat="51.2010150" lon="5.6930890">
    <ele>32.6</ele>
    <time>2019-09-08T09:12:08Z</time>
   </trkpt>
   <trkpt lat="51.2009590" lon="5.6930930">
    <ele>32.7</ele>
    <time>2019-09-08T09:12:09Z</time>
   </trkpt>
   <trkpt lat="51.2008920" lon="5.6931070">
    <ele>32.8</ele>
    <time>2019-09-08T09:12:10Z</time>
   </trkpt>
   <trkpt lat="51.2008290" lon="5.6931170">
    <ele>32.8</ele>
    <time>2019-09-08T09:12:11Z</time>
   </trkpt>
   <trkpt lat="51.2007630" lon="5.6931310">
    <ele>32.9</ele>
    <time>2019-09-08T09:12:12Z</time>
   </trkpt>
   <trkpt lat="51.2007050" lon="5.6931440">
    <ele>33.0</ele>
    <time>2019-09-08T09:12:13Z</time>
   </trkpt>
   <trkpt lat="51.2006400" lon="5.6931620">
    <ele>33.1</ele>
    <time>2019-09-08T09:12:14Z</time>
   </trkpt>
   <trkpt lat="51.2005680" lon="5.6931790">
    <ele>33.2</ele>
    <time>2019-09-08T09:12:15Z</time>
   </trkpt>
   <trkpt lat="51.2004870" lon="5.6932000">
    <ele>33.2</ele>
    <time>2019-09-08T09:12:16Z</time>
   </trkpt>
   <trkpt lat="51.2004300" lon="5.6932080">
    <ele>33.2</ele>
    <time>2019-09-08T09:12:17Z</time>
   </trkpt>
   <trkpt lat="51.2003650" lon="5.6932350">
    <ele>33.2</ele>
    <time>2019-09-08T09:12:18Z</time>
   </trkpt>
   <trkpt lat="51.2003090" lon="5.6932640">
    <ele>33.1</ele>
    <time>2019-09-08T09:12:19Z</time>
   </trkpt>
   <trkpt lat="51.2002440" lon="5.6932850">
    <ele>33.0</ele>
    <time>2019-09-08T09:12:20Z</time>
   </trkpt>
   <trkpt lat="51.2001810" lon="5.6933030">
    <ele>32.9</ele>
    <time>2019-09-08T09:12:21Z</time>
   </trkpt>
   <trkpt lat="51.2001160" lon="5.6933320">
    <ele>32.9</ele>
    <time>2019-09-08T09:12:22Z</time>
   </trkpt>
   <trkpt lat="51.2000520" lon="5.6933520">
    <ele>32.8</ele>
    <time>2019-09-08T09:12:23Z</time>
   </trkpt>
   <trkpt lat="51.1999840" lon="5.6933600">
    <ele>32.9</ele>
    <time>2019-09-08T09:12:24Z</time>
   </trkpt>
   <trkpt lat="51.1999240" lon="5.6933790">
    <ele>32.9</ele>
    <time>2019-09-08T09:12:25Z</time>
   </trkpt>
   <trkpt lat="51.1998520" lon="5.6933920">
    <ele>32.8</ele>
    <time>2019-09-08T09:12:26Z</time>
   </trkpt>
   <trkpt lat="51.1997890" lon="5.6934000">
    <ele>32.8</ele>
    <time>2019-09-08T09:12:27Z</time>
   </trkpt>
   <trkpt lat="51.1997240" lon="5.6934220">
    <ele>32.9</ele>
    <time>2019-09-08T09:12:28Z</time>
   </trkpt>
   <trkpt lat="51.1996710" lon="5.6934710">
    <ele>33.0</ele>
    <time>2019-09-08T09:12:29Z</time>
   </trkpt>
   <trkpt lat="51.1996280" lon="5.6935200">
    <ele>33.1</ele>
    <time>2019-09-08T09:12:30Z</time>
   </trkpt>
   <trkpt lat="51.1995930" lon="5.6936020">
    <ele>33.2</ele>
    <time>2019-09-08T09:12:31Z</time>
   </trkpt>
   <trkpt lat="51.1995590" lon="5.6936840">
    <ele>33.3</ele>
    <time>2019-09-08T09:12:32Z</time>
   </trkpt>
   <trkpt lat="51.1995440" lon="5.6937880">
    <ele>33.2</ele>
    <time>2019-09-08T09:12:33Z</time>
   </trkpt>
   <trkpt lat="51.1995330" lon="5.6938930">
    <ele>33.2</ele>
    <time>2019-09-08T09:12:34Z</time>
   </trkpt>
   <trkpt lat="51.1995390" lon="5.6940000">
    <ele>33.1</ele>
    <time>2019-09-08T09:12:35Z</time>
   </trkpt>
   <trkpt lat="51.1995430" lon="5.6941070">
    <ele>33.1</ele>
    <time>2019-09-08T09:12:36Z</time>
   </trkpt>
   <trkpt lat="51.1995280" lon="5.6941980">
    <ele>33.0</ele>
    <time>2019-09-08T09:12:37Z</time>
   </trkpt>
   <trkpt lat="51.1995300" lon="5.6942900">
    <ele>32.9</ele>
    <time>2019-09-08T09:12:38Z</time>
   </trkpt>
   <trkpt lat="51.1995510" lon="5.6944010">
    <ele>32.8</ele>
    <time>2019-09-08T09:12:39Z</time>
   </trkpt>
   <trkpt lat="51.1995660" lon="5.6945110">
    <ele>32.7</ele>
    <time>2019-09-08T09:12:40Z</time>
   </trkpt>
   <trkpt lat="51.1995670" lon="5.6946170">
    <ele>32.7</ele>
    <time>2019-09-08T09:12:41Z</time>
   </trkpt>
   <trkpt lat="51.1995660" lon="5.6947280">
    <ele>32.6</ele>
    <time>2019-09-08T09:12:42Z</time>
   </trkpt>
   <trkpt lat="51.1995620" lon="5.6948480">
    <ele>32.5</ele>
    <time>2019-09-08T09:12:43Z</time>
   </trkpt>
   <trkpt lat="51.1995490" lon="5.6949710">
    <ele>32.4</ele>
    <time>2019-09-08T09:12:44Z</time>
   </trkpt>
   <trkpt lat="51.1995330" lon="5.6950800">
    <ele>32.3</ele>
    <time>2019-09-08T09:12:45Z</time>
   </trkpt>
   <trkpt lat="51.1995260" lon="5.6951970">
    <ele>32.1</ele>
    <time>2019-09-08T09:12:46Z</time>
   </trkpt>
   <trkpt lat="51.1995090" lon="5.6953050">
    <ele>31.9</ele>
    <time>2019-09-08T09:12:47Z</time>
   </trkpt>
   <trkpt lat="51.1994910" lon="5.6954140">
    <ele>31.8</ele>
    <time>2019-09-08T09:12:48Z</time>
   </trkpt>
   <trkpt lat="51.1994800" lon="5.6955250">
    <ele>31.6</ele>
    <time>2019-09-08T09:12:49Z</time>
   </trkpt>
   <trkpt lat="51.1994700" lon="5.6956360">
    <ele>31.6</ele>
    <time>2019-09-08T09:12:50Z</time>
   </trkpt>
   <trkpt lat="51.1994600" lon="5.6957450">
    <ele>31.4</ele>
    <time>2019-09-08T09:12:51Z</time>
   </trkpt>
   <trkpt lat="51.1994410" lon="5.6958440">
    <ele>31.3</ele>
    <time>2019-09-08T09:12:52Z</time>
   </trkpt>
   <trkpt lat="51.1994270" lon="5.6959520">
    <ele>31.2</ele>
    <time>2019-09-08T09:12:53Z</time>
   </trkpt>
   <trkpt lat="51.1994080" lon="5.6960580">
    <ele>31.1</ele>
    <time>2019-09-08T09:12:54Z</time>
   </trkpt>
   <trkpt lat="51.1993960" lon="5.6961770">
    <ele>31.0</ele>
    <time>2019-09-08T09:12:55Z</time>
   </trkpt>
   <trkpt lat="51.1993830" lon="5.6962910">
    <ele>30.9</ele>
    <time>2019-09-08T09:12:56Z</time>
   </trkpt>
   <trkpt lat="51.1993550" lon="5.6963850">
    <ele>30.7</ele>
    <time>2019-09-08T09:12:57Z</time>
   </trkpt>
   <trkpt lat="51.1993430" lon="5.6964940">
    <ele>30.6</ele>
    <time>2019-09-08T09:12:58Z</time>
   </trkpt>
   <trkpt lat="51.1993260" lon="5.6965960">
    <ele>30.6</ele>
    <time>2019-09-08T09:12:59Z</time>
   </trkpt>
   <trkpt lat="51.1993220" lon="5.6967090">
    <ele>30.6</ele>
    <time>2019-09-08T09:13:00Z</time>
   </trkpt>
   <trkpt lat="51.1993060" lon="5.6968080">
    <ele>30.5</ele>
    <time>2019-09-08T09:13:01Z</time>
   </trkpt>
   <trkpt lat="51.1992850" lon="5.6969090">
    <ele>30.5</ele>
    <time>2019-09-08T09:13:02Z</time>
   </trkpt>
   <trkpt lat="51.1992700" lon="5.6970160">
    <ele>30.5</ele>
    <time>2019-09-08T09:13:03Z</time>
   </trkpt>
   <trkpt lat="51.1992600" lon="5.6971240">
    <ele>30.5</ele>
    <time>2019-09-08T09:13:04Z</time>
   </trkpt>
   <trkpt lat="51.1992400" lon="5.6972250">
    <ele>30.5</ele>
    <time>2019-09-08T09:13:05Z</time>
   </trkpt>
   <trkpt lat="51.1992210" lon="5.6973310">
    <ele>30.5</ele>
    <time>2019-09-08T09:13:06Z</time>
   </trkpt>
   <trkpt lat="51.1991920" lon="5.6974340">
    <ele>30.5</ele>
    <time>2019-09-08T09:13:07Z</time>
   </trkpt>
   <trkpt lat="51.1991770" lon="5.6975370">
    <ele>30.5</ele>
    <time>2019-09-08T09:13:08Z</time>
   </trkpt>
   <trkpt lat="51.1991620" lon="5.6976450">
    <ele>30.5</ele>
    <time>2019-09-08T09:13:09Z</time>
   </trkpt>
   <trkpt lat="51.1991470" lon="5.6977530">
    <ele>30.5</ele>
    <time>2019-09-08T09:13:10Z</time>
   </trkpt>
   <trkpt lat="51.1991320" lon="5.6978560">
    <ele>30.5</ele>
    <time>2019-09-08T09:13:11Z</time>
   </trkpt>
   <trkpt lat="51.1991140" lon="5.6979740">
    <ele>30.5</ele>
    <time>2019-09-08T09:13:12Z</time>
   </trkpt>
   <trkpt lat="51.1991030" lon="5.6980860">
    <ele>30.5</ele>
    <time>2019-09-08T09:13:13Z</time>
   </trkpt>
   <trkpt lat="51.1990880" lon="5.6981930">
    <ele>30.5</ele>
    <time>2019-09-08T09:13:14Z</time>
   </trkpt>
   <trkpt lat="51.1990620" lon="5.6982970">
    <ele>30.5</ele>
    <time>2019-09-08T09:13:15Z</time>
   </trkpt>
   <trkpt lat="51.1990600" lon="5.6984010">
    <ele>30.5</ele>
    <time>2019-09-08T09:13:16Z</time>
   </trkpt>
   <trkpt lat="51.1990420" lon="5.6985240">
    <ele>30.5</ele>
    <time>2019-09-08T09:13:17Z</time>
   </trkpt>
   <trkpt lat="51.1990330" lon="5.6986350">
    <ele>30.5</ele>
    <time>2019-09-08T09:13:18Z</time>
   </trkpt>
   <trkpt lat="51.1990290" lon="5.6987420">
    <ele>30.6</ele>
    <time>2019-09-08T09:13:19Z</time>
   </trkpt>
   <trkpt lat="51.1990220" lon="5.6988430">
    <ele>30.7</ele>
    <time>2019-09-08T09:13:20Z</time>
   </trkpt>
   <trkpt lat="51.1990160" lon="5.6989550">
    <ele>30.8</ele>
    <time>2019-09-08T09:13:21Z</time>
   </trkpt>
   <trkpt lat="51.1990070" lon="5.6990620">
    <ele>31.1</ele>
    <time>2019-09-08T09:13:22Z</time>
   </trkpt>
   <trkpt lat="51.1989950" lon="5.6991750">
    <ele>31.5</ele>
    <time>2019-09-08T09:13:23Z</time>
   </trkpt>
   <trkpt lat="51.1989930" lon="5.6992790">
    <ele>31.7</ele>
    <time>2019-09-08T09:13:24Z</time>
   </trkpt>
   <trkpt lat="51.1989760" lon="5.6993880">
    <ele>32.0</ele>
    <time>2019-09-08T09:13:25Z</time>
   </trkpt>
   <trkpt lat="51.1989650" lon="5.6994920">
    <ele>32.2</ele>
    <time>2019-09-08T09:13:26Z</time>
   </trkpt>
   <trkpt lat="51.1989580" lon="5.6995930">
    <ele>32.2</ele>
    <time>2019-09-08T09:13:27Z</time>
   </trkpt>
   <trkpt lat="51.1989440" lon="5.6997050">
    <ele>32.3</ele>
    <time>2019-09-08T09:13:28Z</time>
   </trkpt>
   <trkpt lat="51.1989340" lon="5.6998150">
    <ele>32.3</ele>
    <time>2019-09-08T09:13:29Z</time>
   </trkpt>
   <trkpt lat="51.1989220" lon="5.6999240">
    <ele>32.3</ele>
    <time>2019-09-08T09:13:30Z</time>
   </trkpt>
   <trkpt lat="51.1989060" lon="5.7000260">
    <ele>32.3</ele>
    <time>2019-09-08T09:13:31Z</time>
   </trkpt>
   <trkpt lat="51.1988830" lon="5.7001460">
    <ele>32.3</ele>
    <time>2019-09-08T09:13:32Z</time>
   </trkpt>
   <trkpt lat="51.1988570" lon="5.7002460">
    <ele>32.3</ele>
    <time>2019-09-08T09:13:33Z</time>
   </trkpt>
   <trkpt lat="51.1988270" lon="5.7003630">
    <ele>32.2</ele>
    <time>2019-09-08T09:13:34Z</time>
   </trkpt>
   <trkpt lat="51.1987920" lon="5.7004590">
    <ele>32.2</ele>
    <time>2019-09-08T09:13:35Z</time>
   </trkpt>
   <trkpt lat="51.1987610" lon="5.7005600">
    <ele>32.1</ele>
    <time>2019-09-08T09:13:36Z</time>
   </trkpt>
   <trkpt lat="51.1987290" lon="5.7006560">
    <ele>32.0</ele>
    <time>2019-09-08T09:13:37Z</time>
   </trkpt>
   <trkpt lat="51.1986990" lon="5.7007420">
    <ele>31.8</ele>
    <time>2019-09-08T09:13:38Z</time>
   </trkpt>
   <trkpt lat="51.1986700" lon="5.7008410">
    <ele>31.4</ele>
    <time>2019-09-08T09:13:39Z</time>
   </trkpt>
   <trkpt lat="51.1986450" lon="5.7009380">
    <ele>30.9</ele>
    <time>2019-09-08T09:13:40Z</time>
   </trkpt>
   <trkpt lat="51.1986160" lon="5.7010470">
    <ele>30.3</ele>
    <time>2019-09-08T09:13:41Z</time>
   </trkpt>
   <trkpt lat="51.1986030" lon="5.7011560">
    <ele>30.3</ele>
    <time>2019-09-08T09:13:42Z</time>
   </trkpt>
   <trkpt lat="51.1986000" lon="5.7012710">
    <ele>30.3</ele>
    <time>2019-09-08T09:13:43Z</time>
   </trkpt>
   <trkpt lat="51.1986040" lon="5.7013800">
    <ele>30.3</ele>
    <time>2019-09-08T09:13:44Z</time>
   </trkpt>
   <trkpt lat="51.1986210" lon="5.7015080">
    <ele>30.3</ele>
    <time>2019-09-08T09:13:45Z</time>
   </trkpt>
   <trkpt lat="51.1986300" lon="5.7016130">
    <ele>30.3</ele>
    <time>2019-09-08T09:13:46Z</time>
   </trkpt>
   <trkpt lat="51.1986330" lon="5.7017200">
    <ele>30.3</ele>
    <time>2019-09-08T09:13:47Z</time>
   </trkpt>
   <trkpt lat="51.1986360" lon="5.7018400">
    <ele>30.4</ele>
    <time>2019-09-08T09:13:48Z</time>
   </trkpt>
   <trkpt lat="51.1986400" lon="5.7019420">
    <ele>30.4</ele>
    <time>2019-09-08T09:13:49Z</time>
   </trkpt>
   <trkpt lat="51.1986510" lon="5.7020440">
    <ele>30.4</ele>
    <time>2019-09-08T09:13:50Z</time>
   </trkpt>
   <trkpt lat="51.1986580" lon="5.7021500">
    <ele>30.4</ele>
    <time>2019-09-08T09:13:51Z</time>
   </trkpt>
   <trkpt lat="51.1986740" lon="5.7022560">
    <ele>30.4</ele>
    <time>2019-09-08T09:13:52Z</time>
   </trkpt>
   <trkpt lat="51.1986850" lon="5.7023670">
    <ele>30.4</ele>
    <time>2019-09-08T09:13:53Z</time>
   </trkpt>
   <trkpt lat="51.1986980" lon="5.7024770">
    <ele>30.4</ele>
    <time>2019-09-08T09:13:54Z</time>
   </trkpt>
   <trkpt lat="51.1987160" lon="5.7025950">
    <ele>30.5</ele>
    <time>2019-09-08T09:13:55Z</time>
   </trkpt>
   <trkpt lat="51.1987210" lon="5.7027010">
    <ele>30.5</ele>
    <time>2019-09-08T09:13:56Z</time>
   </trkpt>
   <trkpt lat="51.1987290" lon="5.7028140">
    <ele>30.6</ele>
    <time>2019-09-08T09:13:57Z</time>
   </trkpt>
   <trkpt lat="51.1987410" lon="5.7029240">
    <ele>30.6</ele>
    <time>2019-09-08T09:13:58Z</time>
   </trkpt>
   <trkpt lat="51.1987540" lon="5.7030290">
    <ele>30.7</ele>
    <time>2019-09-08T09:13:59Z</time>
   </trkpt>
   <trkpt lat="51.1987790" lon="5.7031190">
    <ele>30.7</ele>
    <time>2019-09-08T09:14:00Z</time>
   </trkpt>
   <trkpt lat="51.1987970" lon="5.7032330">
    <ele>30.8</ele>
    <time>2019-09-08T09:14:01Z</time>
   </trkpt>
   <trkpt lat="51.1987990" lon="5.7033480">
    <ele>30.8</ele>
    <time>2019-09-08T09:14:02Z</time>
   </trkpt>
   <trkpt lat="51.1988010" lon="5.7034530">
    <ele>30.9</ele>
    <time>2019-09-08T09:14:03Z</time>
   </trkpt>
   <trkpt lat="51.1988060" lon="5.7035600">
    <ele>30.9</ele>
    <time>2019-09-08T09:14:04Z</time>
   </trkpt>
   <trkpt lat="51.1988160" lon="5.7036450">
    <ele>31.0</ele>
    <time>2019-09-08T09:14:05Z</time>
   </trkpt>
   <trkpt lat="51.1988370" lon="5.7037330">
    <ele>31.0</ele>
    <time>2019-09-08T09:14:06Z</time>
   </trkpt>
   <trkpt lat="51.1988500" lon="5.7038360">
    <ele>31.1</ele>
    <time>2019-09-08T09:14:07Z</time>
   </trkpt>
   <trkpt lat="51.1988710" lon="5.7039120">
    <ele>31.1</ele>
    <time>2019-09-08T09:14:08Z</time>
   </trkpt>
   <trkpt lat="51.1988830" lon="5.7040260">
    <ele>31.2</ele>
    <time>2019-09-08T09:14:09Z</time>
   </trkpt>
   <trkpt lat="51.1988970" lon="5.7041540">
    <ele>31.2</ele>
    <time>2019-09-08T09:14:10Z</time>
   </trkpt>
   <trkpt lat="51.1989090" lon="5.7042790">
    <ele>31.2</ele>
    <time>2019-09-08T09:14:11Z</time>
   </trkpt>
   <trkpt lat="51.1989130" lon="5.7043800">
    <ele>31.3</ele>
    <time>2019-09-08T09:14:12Z</time>
   </trkpt>
   <trkpt lat="51.1989130" lon="5.7044930">
    <ele>31.3</ele>
    <time>2019-09-08T09:14:13Z</time>
   </trkpt>
   <trkpt lat="51.1989120" lon="5.7046120">
    <ele>31.3</ele>
    <time>2019-09-08T09:14:14Z</time>
   </trkpt>
   <trkpt lat="51.1989110" lon="5.7047350">
    <ele>31.3</ele>
    <time>2019-09-08T09:14:15Z</time>
   </trkpt>
   <trkpt lat="51.1989120" lon="5.7048410">
    <ele>31.3</ele>
    <time>2019-09-08T09:14:16Z</time>
   </trkpt>
   <trkpt lat="51.1989110" lon="5.7049480">
    <ele>31.3</ele>
    <time>2019-09-08T09:14:17Z</time>
   </trkpt>
   <trkpt lat="51.1989120" lon="5.7050540">
    <ele>31.3</ele>
    <time>2019-09-08T09:14:18Z</time>
   </trkpt>
   <trkpt lat="51.1989130" lon="5.7051500">
    <ele>31.4</ele>
    <time>2019-09-08T09:14:19Z</time>
   </trkpt>
   <trkpt lat="51.1989160" lon="5.7052650">
    <ele>31.5</ele>
    <time>2019-09-08T09:14:20Z</time>
   </trkpt>
   <trkpt lat="51.1989070" lon="5.7053600">
    <ele>31.6</ele>
    <time>2019-09-08T09:14:21Z</time>
   </trkpt>
   <trkpt lat="51.1989040" lon="5.7054620">
    <ele>31.7</ele>
    <time>2019-09-08T09:14:22Z</time>
   </trkpt>
   <trkpt lat="51.1989160" lon="5.7055780">
    <ele>31.8</ele>
    <time>2019-09-08T09:14:23Z</time>
   </trkpt>
   <trkpt lat="51.1989190" lon="5.7056860">
    <ele>32.0</ele>
    <time>2019-09-08T09:14:24Z</time>
   </trkpt>
   <trkpt lat="51.1989270" lon="5.7057990">
    <ele>32.1</ele>
    <time>2019-09-08T09:14:25Z</time>
   </trkpt>
   <trkpt lat="51.1989390" lon="5.7059100">
    <ele>32.3</ele>
    <time>2019-09-08T09:14:26Z</time>
   </trkpt>
   <trkpt lat="51.1989470" lon="5.7060180">
    <ele>32.4</ele>
    <time>2019-09-08T09:14:27Z</time>
   </trkpt>
   <trkpt lat="51.1989560" lon="5.7061110">
    <ele>32.6</ele>
    <time>2019-09-08T09:14:28Z</time>
   </trkpt>
   <trkpt lat="51.1989680" lon="5.7062300">
    <ele>32.7</ele>
    <time>2019-09-08T09:14:29Z</time>
   </trkpt>
   <trkpt lat="51.1989840" lon="5.7063420">
    <ele>32.9</ele>
    <time>2019-09-08T09:14:30Z</time>
   </trkpt>
   <trkpt lat="51.1989900" lon="5.7064420">
    <ele>33.0</ele>
    <time>2019-09-08T09:14:31Z</time>
   </trkpt>
   <trkpt lat="51.1989950" lon="5.7065560">
    <ele>33.1</ele>
    <time>2019-09-08T09:14:32Z</time>
   </trkpt>
   <trkpt lat="51.1990000" lon="5.7066640">
    <ele>33.2</ele>
    <time>2019-09-08T09:14:33Z</time>
   </trkpt>
   <trkpt lat="51.1990030" lon="5.7067680">
    <ele>33.3</ele>
    <time>2019-09-08T09:14:34Z</time>
   </trkpt>
   <trkpt lat="51.1990120" lon="5.7068780">
    <ele>33.4</ele>
    <time>2019-09-08T09:14:35Z</time>
   </trkpt>
   <trkpt lat="51.1990190" lon="5.7069850">
    <ele>33.5</ele>
    <time>2019-09-08T09:14:36Z</time>
   </trkpt>
   <trkpt lat="51.1990250" lon="5.7070900">
    <ele>33.6</ele>
    <time>2019-09-08T09:14:37Z</time>
   </trkpt>
   <trkpt lat="51.1990340" lon="5.7072020">
    <ele>33.7</ele>
    <time>2019-09-08T09:14:38Z</time>
   </trkpt>
   <trkpt lat="51.1990430" lon="5.7073090">
    <ele>33.8</ele>
    <time>2019-09-08T09:14:39Z</time>
   </trkpt>
   <trkpt lat="51.1990500" lon="5.7074070">
    <ele>33.9</ele>
    <time>2019-09-08T09:14:40Z</time>
   </trkpt>
   <trkpt lat="51.1990550" lon="5.7075160">
    <ele>33.9</ele>
    <time>2019-09-08T09:14:41Z</time>
   </trkpt>
   <trkpt lat="51.1990610" lon="5.7076190">
    <ele>34.0</ele>
    <time>2019-09-08T09:14:42Z</time>
   </trkpt>
   <trkpt lat="51.1990650" lon="5.7077250">
    <ele>34.0</ele>
    <time>2019-09-08T09:14:43Z</time>
   </trkpt>
   <trkpt lat="51.1990760" lon="5.7078240">
    <ele>34.1</ele>
    <time>2019-09-08T09:14:44Z</time>
   </trkpt>
   <trkpt lat="51.1990800" lon="5.7079230">
    <ele>34.1</ele>
    <time>2019-09-08T09:14:45Z</time>
   </trkpt>
   <trkpt lat="51.1990870" lon="5.7080300">
    <ele>34.1</ele>
    <time>2019-09-08T09:14:46Z</time>
   </trkpt>
   <trkpt lat="51.1990850" lon="5.7081430">
    <ele>34.1</ele>
    <time>2019-09-08T09:14:47Z</time>
   </trkpt>
   <trkpt lat="51.1990830" lon="5.7082450">
    <ele>34.2</ele>
    <time>2019-09-08T09:14:48Z</time>
   </trkpt>
   <trkpt lat="51.1990860" lon="5.7083540">
    <ele>34.3</ele>
    <time>2019-09-08T09:14:49Z</time>
   </trkpt>
   <trkpt lat="51.1990760" lon="5.7084700">
    <ele>34.3</ele>
    <time>2019-09-08T09:14:50Z</time>
   </trkpt>
   <trkpt lat="51.1990810" lon="5.7085970">
    <ele>34.3</ele>
    <time>2019-09-08T09:14:51Z</time>
   </trkpt>
   <trkpt lat="51.1990740" lon="5.7087160">
    <ele>34.3</ele>
    <time>2019-09-08T09:14:52Z</time>
   </trkpt>
   <trkpt lat="51.1990740" lon="5.7088380">
    <ele>34.2</ele>
    <time>2019-09-08T09:14:53Z</time>
   </trkpt>
   <trkpt lat="51.1990700" lon="5.7089590">
    <ele>34.2</ele>
    <time>2019-09-08T09:14:54Z</time>
   </trkpt>
   <trkpt lat="51.1990700" lon="5.7090820">
    <ele>34.1</ele>
    <time>2019-09-08T09:14:55Z</time>
   </trkpt>
   <trkpt lat="51.1990680" lon="5.7091900">
    <ele>34.0</ele>
    <time>2019-09-08T09:14:56Z</time>
   </trkpt>
   <trkpt lat="51.1990660" lon="5.7092970">
    <ele>33.9</ele>
    <time>2019-09-08T09:14:57Z</time>
   </trkpt>
   <trkpt lat="51.1990600" lon="5.7093880">
    <ele>33.8</ele>
    <time>2019-09-08T09:14:58Z</time>
   </trkpt>
   <trkpt lat="51.1990460" lon="5.7094770">
    <ele>33.8</ele>
    <time>2019-09-08T09:14:59Z</time>
   </trkpt>
   <trkpt lat="51.1990300" lon="5.7095730">
    <ele>33.7</ele>
    <time>2019-09-08T09:15:00Z</time>
   </trkpt>
   <trkpt lat="51.1990150" lon="5.7096620">
    <ele>33.7</ele>
    <time>2019-09-08T09:15:01Z</time>
   </trkpt>
   <trkpt lat="51.1989980" lon="5.7097540">
    <ele>33.6</ele>
    <time>2019-09-08T09:15:02Z</time>
   </trkpt>
   <trkpt lat="51.1989940" lon="5.7098410">
    <ele>33.6</ele>
    <time>2019-09-08T09:15:03Z</time>
   </trkpt>
   <trkpt lat="51.1989840" lon="5.7099250">
    <ele>33.5</ele>
    <time>2019-09-08T09:15:04Z</time>
   </trkpt>
   <trkpt lat="51.1989720" lon="5.7100140">
    <ele>33.5</ele>
    <time>2019-09-08T09:15:05Z</time>
   </trkpt>
   <trkpt lat="51.1989540" lon="5.7101100">
    <ele>33.5</ele>
    <time>2019-09-08T09:15:06Z</time>
   </trkpt>
   <trkpt lat="51.1989430" lon="5.7101990">
    <ele>33.5</ele>
    <time>2019-09-08T09:15:07Z</time>
   </trkpt>
   <trkpt lat="51.1989290" lon="5.7102990">
    <ele>33.5</ele>
    <time>2019-09-08T09:15:08Z</time>
   </trkpt>
   <trkpt lat="51.1989120" lon="5.7104010">
    <ele>33.5</ele>
    <time>2019-09-08T09:15:09Z</time>
   </trkpt>
   <trkpt lat="51.1988960" lon="5.7105210">
    <ele>33.5</ele>
    <time>2019-09-08T09:15:10Z</time>
   </trkpt>
   <trkpt lat="51.1988820" lon="5.7106310">
    <ele>33.4</ele>
    <time>2019-09-08T09:15:11Z</time>
   </trkpt>
   <trkpt lat="51.1988650" lon="5.7107400">
    <ele>33.4</ele>
    <time>2019-09-08T09:15:12Z</time>
   </trkpt>
   <trkpt lat="51.1988480" lon="5.7108420">
    <ele>33.4</ele>
    <time>2019-09-08T09:15:13Z</time>
   </trkpt>
   <trkpt lat="51.1988330" lon="5.7109420">
    <ele>33.4</ele>
    <time>2019-09-08T09:15:14Z</time>
   </trkpt>
   <trkpt lat="51.1988060" lon="5.7110530">
    <ele>33.4</ele>
    <time>2019-09-08T09:15:15Z</time>
   </trkpt>
   <trkpt lat="51.1987840" lon="5.7111490">
    <ele>33.5</ele>
    <time>2019-09-08T09:15:16Z</time>
   </trkpt>
   <trkpt lat="51.1987530" lon="5.7112530">
    <ele>33.5</ele>
    <time>2019-09-08T09:15:17Z</time>
   </trkpt>
   <trkpt lat="51.1987270" lon="5.7113520">
    <ele>33.5</ele>
    <time>2019-09-08T09:15:18Z</time>
   </trkpt>
   <trkpt lat="51.1987040" lon="5.7114500">
    <ele>33.5</ele>
    <time>2019-09-08T09:15:19Z</time>
   </trkpt>
   <trkpt lat="51.1986700" lon="5.7115500">
    <ele>33.6</ele>
    <time>2019-09-08T09:15:20Z</time>
   </trkpt>
   <trkpt lat="51.1986340" lon="5.7116520">
    <ele>33.6</ele>
    <time>2019-09-08T09:15:21Z</time>
   </trkpt>
   <trkpt lat="51.1986020" lon="5.7117460">
    <ele>33.7</ele>
    <time>2019-09-08T09:15:22Z</time>
   </trkpt>
   <trkpt lat="51.1985650" lon="5.7118350">
    <ele>33.7</ele>
    <time>2019-09-08T09:15:23Z</time>
   </trkpt>
   <trkpt lat="51.1985260" lon="5.7119240">
    <ele>33.8</ele>
    <time>2019-09-08T09:15:24Z</time>
   </trkpt>
   <trkpt lat="51.1984930" lon="5.7120080">
    <ele>33.9</ele>
    <time>2019-09-08T09:15:25Z</time>
   </trkpt>
   <trkpt lat="51.1984560" lon="5.7120960">
    <ele>34.0</ele>
    <time>2019-09-08T09:15:26Z</time>
   </trkpt>
   <trkpt lat="51.1984220" lon="5.7121870">
    <ele>34.1</ele>
    <time>2019-09-08T09:15:27Z</time>
   </trkpt>
   <trkpt lat="51.1983740" lon="5.7122770">
    <ele>34.2</ele>
    <time>2019-09-08T09:15:28Z</time>
   </trkpt>
   <trkpt lat="51.1983300" lon="5.7123660">
    <ele>34.2</ele>
    <time>2019-09-08T09:15:29Z</time>
   </trkpt>
   <trkpt lat="51.1983050" lon="5.7124450">
    <ele>34.3</ele>
    <time>2019-09-08T09:15:30Z</time>
   </trkpt>
   <trkpt lat="51.1982660" lon="5.7125360">
    <ele>34.4</ele>
    <time>2019-09-08T09:15:31Z</time>
   </trkpt>
   <trkpt lat="51.1982380" lon="5.7126280">
    <ele>34.4</ele>
    <time>2019-09-08T09:15:32Z</time>
   </trkpt>
   <trkpt lat="51.1982100" lon="5.7127170">
    <ele>34.5</ele>
    <time>2019-09-08T09:15:33Z</time>
   </trkpt>
   <trkpt lat="51.1981770" lon="5.7128120">
    <ele>34.5</ele>
    <time>2019-09-08T09:15:34Z</time>
   </trkpt>
   <trkpt lat="51.1981580" lon="5.7129180">
    <ele>34.5</ele>
    <time>2019-09-08T09:15:35Z</time>
   </trkpt>
   <trkpt lat="51.1981330" lon="5.7130130">
    <ele>34.5</ele>
    <time>2019-09-08T09:15:36Z</time>
   </trkpt>
   <trkpt lat="51.1981150" lon="5.7131180">
    <ele>34.5</ele>
    <time>2019-09-08T09:15:37Z</time>
   </trkpt>
   <trkpt lat="51.1980940" lon="5.7132260">
    <ele>34.4</ele>
    <time>2019-09-08T09:15:38Z</time>
   </trkpt>
   <trkpt lat="51.1980750" lon="5.7133340">
    <ele>34.3</ele>
    <time>2019-09-08T09:15:39Z</time>
   </trkpt>
   <trkpt lat="51.1980580" lon="5.7134440">
    <ele>34.3</ele>
    <time>2019-09-08T09:15:40Z</time>
   </trkpt>
   <trkpt lat="51.1980440" lon="5.7135670">
    <ele>34.3</ele>
    <time>2019-09-08T09:15:41Z</time>
   </trkpt>
   <trkpt lat="51.1980330" lon="5.7136840">
    <ele>34.3</ele>
    <time>2019-09-08T09:15:42Z</time>
   </trkpt>
   <trkpt lat="51.1980110" lon="5.7137940">
    <ele>34.3</ele>
    <time>2019-09-08T09:15:43Z</time>
   </trkpt>
   <trkpt lat="51.1979900" lon="5.7139030">
    <ele>34.3</ele>
    <time>2019-09-08T09:15:44Z</time>
   </trkpt>
   <trkpt lat="51.1979660" lon="5.7140030">
    <ele>34.4</ele>
    <time>2019-09-08T09:15:45Z</time>
   </trkpt>
   <trkpt lat="51.1979480" lon="5.7141070">
    <ele>34.4</ele>
    <time>2019-09-08T09:15:46Z</time>
   </trkpt>
   <trkpt lat="51.1979280" lon="5.7142060">
    <ele>34.4</ele>
    <time>2019-09-08T09:15:47Z</time>
   </trkpt>
   <trkpt lat="51.1979070" lon="5.7143160">
    <ele>34.3</ele>
    <time>2019-09-08T09:15:48Z</time>
   </trkpt>
   <trkpt lat="51.1978950" lon="5.7144220">
    <ele>34.3</ele>
    <time>2019-09-08T09:15:49Z</time>
   </trkpt>
   <trkpt lat="51.1978700" lon="5.7145250">
    <ele>34.2</ele>
    <time>2019-09-08T09:15:50Z</time>
   </trkpt>
   <trkpt lat="51.1978500" lon="5.7146380">
    <ele>34.2</ele>
    <time>2019-09-08T09:15:51Z</time>
   </trkpt>
   <trkpt lat="51.1978290" lon="5.7147540">
    <ele>34.1</ele>
    <time>2019-09-08T09:15:52Z</time>
   </trkpt>
   <trkpt lat="51.1978040" lon="5.7148460">
    <ele>34.0</ele>
    <time>2019-09-08T09:15:53Z</time>
   </trkpt>
   <trkpt lat="51.1977910" lon="5.7149520">
    <ele>33.9</ele>
    <time>2019-09-08T09:15:54Z</time>
   </trkpt>
   <trkpt lat="51.1977620" lon="5.7150540">
    <ele>33.8</ele>
    <time>2019-09-08T09:15:55Z</time>
   </trkpt>
   <trkpt lat="51.1977370" lon="5.7151520">
    <ele>33.8</ele>
    <time>2019-09-08T09:15:56Z</time>
   </trkpt>
   <trkpt lat="51.1977050" lon="5.7152480">
    <ele>33.8</ele>
    <time>2019-09-08T09:15:57Z</time>
   </trkpt>
   <trkpt lat="51.1976790" lon="5.7153590">
    <ele>33.7</ele>
    <time>2019-09-08T09:15:58Z</time>
   </trkpt>
   <trkpt lat="51.1976560" lon="5.7154660">
    <ele>33.7</ele>
    <time>2019-09-08T09:15:59Z</time>
   </trkpt>
   <trkpt lat="51.1976260" lon="5.7155640">
    <ele>33.7</ele>
    <time>2019-09-08T09:16:00Z</time>
   </trkpt>
   <trkpt lat="51.1976070" lon="5.7156680">
    <ele>33.7</ele>
    <time>2019-09-08T09:16:01Z</time>
   </trkpt>
   <trkpt lat="51.1975900" lon="5.7157640">
    <ele>33.6</ele>
    <time>2019-09-08T09:16:02Z</time>
   </trkpt>
   <trkpt lat="51.1975700" lon="5.7158640">
    <ele>33.6</ele>
    <time>2019-09-08T09:16:03Z</time>
   </trkpt>
   <trkpt lat="51.1975450" lon="5.7159610">
    <ele>33.5</ele>
    <time>2019-09-08T09:16:04Z</time>
   </trkpt>
   <trkpt lat="51.1975200" lon="5.7160580">
    <ele>33.4</ele>
    <time>2019-09-08T09:16:05Z</time>
   </trkpt>
   <trkpt lat="51.1975000" lon="5.7161630">
    <ele>33.3</ele>
    <time>2019-09-08T09:16:06Z</time>
   </trkpt>
   <trkpt lat="51.1974790" lon="5.7162640">
    <ele>33.2</ele>
    <time>2019-09-08T09:16:07Z</time>
   </trkpt>
   <trkpt lat="51.1974590" lon="5.7163690">
    <ele>33.2</ele>
    <time>2019-09-08T09:16:08Z</time>
   </trkpt>
   <trkpt lat="51.1974460" lon="5.7164720">
    <ele>33.1</ele>
    <time>2019-09-08T09:16:09Z</time>
   </trkpt>
   <trkpt lat="51.1974320" lon="5.7165840">
    <ele>33.1</ele>
    <time>2019-09-08T09:16:10Z</time>
   </trkpt>
   <trkpt lat="51.1974280" lon="5.7166960">
    <ele>33.0</ele>
    <time>2019-09-08T09:16:11Z</time>
   </trkpt>
   <trkpt lat="51.1974270" lon="5.7167990">
    <ele>33.0</ele>
    <time>2019-09-08T09:16:12Z</time>
   </trkpt>
   <trkpt lat="51.1974230" lon="5.7168980">
    <ele>33.0</ele>
    <time>2019-09-08T09:16:13Z</time>
   </trkpt>
   <trkpt lat="51.1974170" lon="5.7170080">
    <ele>33.0</ele>
    <time>2019-09-08T09:16:14Z</time>
   </trkpt>
   <trkpt lat="51.1974120" lon="5.7171080">
    <ele>33.0</ele>
    <time>2019-09-08T09:16:15Z</time>
   </trkpt>
   <trkpt lat="51.1974070" lon="5.7172130">
    <ele>33.0</ele>
    <time>2019-09-08T09:16:16Z</time>
   </trkpt>
   <trkpt lat="51.1974030" lon="5.7173180">
    <ele>33.0</ele>
    <time>2019-09-08T09:16:17Z</time>
   </trkpt>
   <trkpt lat="51.1974060" lon="5.7174240">
    <ele>33.0</ele>
    <time>2019-09-08T09:16:18Z</time>
   </trkpt>
   <trkpt lat="51.1974060" lon="5.7175210">
    <ele>33.0</ele>
    <time>2019-09-08T09:16:19Z</time>
   </trkpt>
   <trkpt lat="51.1974030" lon="5.7176260">
    <ele>33.1</ele>
    <time>2019-09-08T09:16:20Z</time>
   </trkpt>
   <trkpt lat="51.1973980" lon="5.7177330">
    <ele>33.1</ele>
    <time>2019-09-08T09:16:21Z</time>
   </trkpt>
   <trkpt lat="51.1973910" lon="5.7178390">
    <ele>33.1</ele>
    <time>2019-09-08T09:16:22Z</time>
   </trkpt>
   <trkpt lat="51.1973900" lon="5.7179460">
    <ele>33.1</ele>
    <time>2019-09-08T09:16:23Z</time>
   </trkpt>
   <trkpt lat="51.1973920" lon="5.7180550">
    <ele>33.1</ele>
    <time>2019-09-08T09:16:24Z</time>
   </trkpt>
   <trkpt lat="51.1973890" lon="5.7181660">
    <ele>33.1</ele>
    <time>2019-09-08T09:16:25Z</time>
   </trkpt>
   <trkpt lat="51.1973900" lon="5.7182730">
    <ele>33.1</ele>
    <time>2019-09-08T09:16:26Z</time>
   </trkpt>
   <trkpt lat="51.1973950" lon="5.7183800">
    <ele>33.1</ele>
    <time>2019-09-08T09:16:27Z</time>
   </trkpt>
   <trkpt lat="51.1973940" lon="5.7185050">
    <ele>33.1</ele>
    <time>2019-09-08T09:16:28Z</time>
   </trkpt>
   <trkpt lat="51.1973930" lon="5.7186180">
    <ele>33.1</ele>
    <time>2019-09-08T09:16:29Z</time>
   </trkpt>
   <trkpt lat="51.1974010" lon="5.7187200">
    <ele>33.1</ele>
    <time>2019-09-08T09:16:30Z</time>
   </trkpt>
   <trkpt lat="51.1973950" lon="5.7188360">
    <ele>33.1</ele>
    <time>2019-09-08T09:16:31Z</time>
   </trkpt>
   <trkpt lat="51.1973940" lon="5.7189520">
    <ele>33.1</ele>
    <time>2019-09-08T09:16:32Z</time>
   </trkpt>
   <trkpt lat="51.1973930" lon="5.7190600">
    <ele>33.0</ele>
    <time>2019-09-08T09:16:33Z</time>
   </trkpt>
   <trkpt lat="51.1974010" lon="5.7191700">
    <ele>33.0</ele>
    <time>2019-09-08T09:16:34Z</time>
   </trkpt>
   <trkpt lat="51.1974040" lon="5.7192720">
    <ele>32.9</ele>
    <time>2019-09-08T09:16:35Z</time>
   </trkpt>
   <trkpt lat="51.1973990" lon="5.7193910">
    <ele>32.9</ele>
    <time>2019-09-08T09:16:36Z</time>
   </trkpt>
   <trkpt lat="51.1974020" lon="5.7194940">
    <ele>32.8</ele>
    <time>2019-09-08T09:16:37Z</time>
   </trkpt>
   <trkpt lat="51.1974020" lon="5.7196050">
    <ele>32.8</ele>
    <time>2019-09-08T09:16:38Z</time>
   </trkpt>
   <trkpt lat="51.1974110" lon="5.7197150">
    <ele>32.7</ele>
    <time>2019-09-08T09:16:39Z</time>
   </trkpt>
   <trkpt lat="51.1974130" lon="5.7198300">
    <ele>32.7</ele>
    <time>2019-09-08T09:16:40Z</time>
   </trkpt>
   <trkpt lat="51.1974090" lon="5.7199340">
    <ele>32.6</ele>
    <time>2019-09-08T09:16:41Z</time>
   </trkpt>
   <trkpt lat="51.1974150" lon="5.7200390">
    <ele>32.6</ele>
    <time>2019-09-08T09:16:42Z</time>
   </trkpt>
   <trkpt lat="51.1974170" lon="5.7201410">
    <ele>32.5</ele>
    <time>2019-09-08T09:16:43Z</time>
   </trkpt>
   <trkpt lat="51.1974250" lon="5.7202480">
    <ele>32.5</ele>
    <time>2019-09-08T09:16:44Z</time>
   </trkpt>
   <trkpt lat="51.1974360" lon="5.7203510">
    <ele>32.5</ele>
    <time>2019-09-08T09:16:45Z</time>
   </trkpt>
   <trkpt lat="51.1974560" lon="5.7204580">
    <ele>32.5</ele>
    <time>2019-09-08T09:16:46Z</time>
   </trkpt>
   <trkpt lat="51.1974650" lon="5.7205820">
    <ele>32.5</ele>
    <time>2019-09-08T09:16:47Z</time>
   </trkpt>
   <trkpt lat="51.1974800" lon="5.7206850">
    <ele>32.5</ele>
    <time>2019-09-08T09:16:48Z</time>
   </trkpt>
   <trkpt lat="51.1975140" lon="5.7207870">
    <ele>32.5</ele>
    <time>2019-09-08T09:16:49Z</time>
   </trkpt>
   <trkpt lat="51.1975320" lon="5.7208820">
    <ele>32.5</ele>
    <time>2019-09-08T09:16:50Z</time>
   </trkpt>
   <trkpt lat="51.1975540" lon="5.7209740">
    <ele>32.6</ele>
    <time>2019-09-08T09:16:51Z</time>
   </trkpt>
   <trkpt lat="51.1975730" lon="5.7210630">
    <ele>32.6</ele>
    <time>2019-09-08T09:16:52Z</time>
   </trkpt>
   <trkpt lat="51.1975840" lon="5.7211610">
    <ele>32.7</ele>
    <time>2019-09-08T09:16:53Z</time>
   </trkpt>
   <trkpt lat="51.1975920" lon="5.7212350">
    <ele>32.8</ele>
    <time>2019-09-08T09:16:54Z</time>
   </trkpt>
   <trkpt lat="51.1976030" lon="5.7213020">
    <ele>32.9</ele>
    <time>2019-09-08T09:16:55Z</time>
   </trkpt>
   <trkpt lat="51.1976060" lon="5.7213740">
    <ele>33.0</ele>
    <time>2019-09-08T09:16:56Z</time>
   </trkpt>
   <trkpt lat="51.1975970" lon="5.7214700">
    <ele>33.3</ele>
    <time>2019-09-08T09:16:57Z</time>
   </trkpt>
   <trkpt lat="51.1975710" lon="5.7215380">
    <ele>33.3</ele>
    <time>2019-09-08T09:16:58Z</time>
   </trkpt>
   <trkpt lat="51.1975380" lon="5.7215810">
    <ele>33.3</ele>
    <time>2019-09-08T09:16:59Z</time>
   </trkpt>
   <trkpt lat="51.1974880" lon="5.7215810">
    <ele>33.3</ele>
    <time>2019-09-08T09:17:00Z</time>
   </trkpt>
   <trkpt lat="51.1974330" lon="5.7215720">
    <ele>33.2</ele>
    <time>2019-09-08T09:17:01Z</time>
   </trkpt>
   <trkpt lat="51.1973820" lon="5.7215630">
    <ele>33.2</ele>
    <time>2019-09-08T09:17:02Z</time>
   </trkpt>
   <trkpt lat="51.1973170" lon="5.7215460">
    <ele>33.1</ele>
    <time>2019-09-08T09:17:03Z</time>
   </trkpt>
   <trkpt lat="51.1972460" lon="5.7215340">
    <ele>33.1</ele>
    <time>2019-09-08T09:17:04Z</time>
   </trkpt>
   <trkpt lat="51.1971780" lon="5.7215320">
    <ele>33.0</ele>
    <time>2019-09-08T09:17:05Z</time>
   </trkpt>
   <trkpt lat="51.1971080" lon="5.7215250">
    <ele>33.0</ele>
    <time>2019-09-08T09:17:06Z</time>
   </trkpt>
   <trkpt lat="51.1970410" lon="5.7215050">
    <ele>32.9</ele>
    <time>2019-09-08T09:17:07Z</time>
   </trkpt>
   <trkpt lat="51.1969720" lon="5.7214840">
    <ele>32.9</ele>
    <time>2019-09-08T09:17:08Z</time>
   </trkpt>
   <trkpt lat="51.1969020" lon="5.7214690">
    <ele>32.8</ele>
    <time>2019-09-08T09:17:09Z</time>
   </trkpt>
   <trkpt lat="51.1968320" lon="5.7214460">
    <ele>32.8</ele>
    <time>2019-09-08T09:17:10Z</time>
   </trkpt>
   <trkpt lat="51.1967630" lon="5.7214360">
    <ele>32.8</ele>
    <time>2019-09-08T09:17:11Z</time>
   </trkpt>
   <trkpt lat="51.1966930" lon="5.7214210">
    <ele>32.7</ele>
    <time>2019-09-08T09:17:12Z</time>
   </trkpt>
   <trkpt lat="51.1966220" lon="5.7214040">
    <ele>32.7</ele>
    <time>2019-09-08T09:17:13Z</time>
   </trkpt>
   <trkpt lat="51.1965510" lon="5.7214090">
    <ele>32.7</ele>
    <time>2019-09-08T09:17:14Z</time>
   </trkpt>
   <trkpt lat="51.1964820" lon="5.7214160">
    <ele>32.6</ele>
    <time>2019-09-08T09:17:15Z</time>
   </trkpt>
   <trkpt lat="51.1964120" lon="5.7214280">
    <ele>32.6</ele>
    <time>2019-09-08T09:17:16Z</time>
   </trkpt>
   <trkpt lat="51.1963350" lon="5.7214490">
    <ele>32.6</ele>
    <time>2019-09-08T09:17:17Z</time>
   </trkpt>
   <trkpt lat="51.1962640" lon="5.7214650">
    <ele>32.6</ele>
    <time>2019-09-08T09:17:18Z</time>
   </trkpt>
   <trkpt lat="51.1961910" lon="5.7215060">
    <ele>32.7</ele>
    <time>2019-09-08T09:17:19Z</time>
   </trkpt>
   <trkpt lat="51.1961260" lon="5.7215470">
    <ele>32.7</ele>
    <time>2019-09-08T09:17:20Z</time>
   </trkpt>
   <trkpt lat="51.1960560" lon="5.7215840">
    <ele>32.7</ele>
    <time>2019-09-08T09:17:21Z</time>
   </trkpt>
   <trkpt lat="51.1960000" lon="5.7216290">
    <ele>32.8</ele>
    <time>2019-09-08T09:17:22Z</time>
   </trkpt>
   <trkpt lat="51.1959360" lon="5.7216740">
    <ele>32.8</ele>
    <time>2019-09-08T09:17:23Z</time>
   </trkpt>
   <trkpt lat="51.1958720" lon="5.7217200">
    <ele>32.9</ele>
    <time>2019-09-08T09:17:24Z</time>
   </trkpt>
   <trkpt lat="51.1958090" lon="5.7217660">
    <ele>32.9</ele>
    <time>2019-09-08T09:17:25Z</time>
   </trkpt>
   <trkpt lat="51.1957490" lon="5.7218160">
    <ele>32.9</ele>
    <time>2019-09-08T09:17:26Z</time>
   </trkpt>
   <trkpt lat="51.1956840" lon="5.7218680">
    <ele>33.0</ele>
    <time>2019-09-08T09:17:27Z</time>
   </trkpt>
   <trkpt lat="51.1956120" lon="5.7219020">
    <ele>33.0</ele>
    <time>2019-09-08T09:17:28Z</time>
   </trkpt>
   <trkpt lat="51.1955460" lon="5.7219580">
    <ele>33.0</ele>
    <time>2019-09-08T09:17:29Z</time>
   </trkpt>
   <trkpt lat="51.1954830" lon="5.7220070">
    <ele>33.1</ele>
    <time>2019-09-08T09:17:30Z</time>
   </trkpt>
   <trkpt lat="51.1954280" lon="5.7220630">
    <ele>33.1</ele>
    <time>2019-09-08T09:17:31Z</time>
   </trkpt>
   <trkpt lat="51.1953610" lon="5.7221150">
    <ele>33.2</ele>
    <time>2019-09-08T09:17:32Z</time>
   </trkpt>
   <trkpt lat="51.1952990" lon="5.7221660">
    <ele>33.2</ele>
    <time>2019-09-08T09:17:33Z</time>
   </trkpt>
   <trkpt lat="51.1952380" lon="5.7222170">
    <ele>33.3</ele>
    <time>2019-09-08T09:17:34Z</time>
   </trkpt>
   <trkpt lat="51.1951700" lon="5.7222670">
    <ele>33.3</ele>
    <time>2019-09-08T09:17:35Z</time>
   </trkpt>
   <trkpt lat="51.1951100" lon="5.7223150">
    <ele>33.3</ele>
    <time>2019-09-08T09:17:36Z</time>
   </trkpt>
   <trkpt lat="51.1950490" lon="5.7223630">
    <ele>33.3</ele>
    <time>2019-09-08T09:17:37Z</time>
   </trkpt>
   <trkpt lat="51.1949920" lon="5.7224080">
    <ele>33.2</ele>
    <time>2019-09-08T09:17:38Z</time>
   </trkpt>
   <trkpt lat="51.1949270" lon="5.7224590">
    <ele>33.2</ele>
    <time>2019-09-08T09:17:39Z</time>
   </trkpt>
   <trkpt lat="51.1948520" lon="5.7225030">
    <ele>33.2</ele>
    <time>2019-09-08T09:17:40Z</time>
   </trkpt>
   <trkpt lat="51.1947870" lon="5.7225450">
    <ele>33.1</ele>
    <time>2019-09-08T09:17:41Z</time>
   </trkpt>
   <trkpt lat="51.1947260" lon="5.7225930">
    <ele>33.1</ele>
    <time>2019-09-08T09:17:42Z</time>
   </trkpt>
   <trkpt lat="51.1946680" lon="5.7226420">
    <ele>33.0</ele>
    <time>2019-09-08T09:17:43Z</time>
   </trkpt>
   <trkpt lat="51.1946000" lon="5.7226770">
    <ele>33.0</ele>
    <time>2019-09-08T09:17:44Z</time>
   </trkpt>
   <trkpt lat="51.1945400" lon="5.7227180">
    <ele>33.0</ele>
    <time>2019-09-08T09:17:45Z</time>
   </trkpt>
   <trkpt lat="51.1944600" lon="5.7227530">
    <ele>33.0</ele>
    <time>2019-09-08T09:17:46Z</time>
   </trkpt>
   <trkpt lat="51.1944030" lon="5.7228140">
    <ele>32.9</ele>
    <time>2019-09-08T09:17:47Z</time>
   </trkpt>
   <trkpt lat="51.1943460" lon="5.7228730">
    <ele>32.9</ele>
    <time>2019-09-08T09:17:48Z</time>
   </trkpt>
   <trkpt lat="51.1943000" lon="5.7229470">
    <ele>32.9</ele>
    <time>2019-09-08T09:17:49Z</time>
   </trkpt>
   <trkpt lat="51.1942530" lon="5.7230210">
    <ele>32.9</ele>
    <time>2019-09-08T09:17:50Z</time>
   </trkpt>
   <trkpt lat="51.1941850" lon="5.7230920">
    <ele>33.2</ele>
    <time>2019-09-08T09:17:51Z</time>
   </trkpt>
   <trkpt lat="51.1941300" lon="5.7231650">
    <ele>33.3</ele>
    <time>2019-09-08T09:17:52Z</time>
   </trkpt>
   <trkpt lat="51.1940770" lon="5.7232370">
    <ele>33.4</ele>
    <time>2019-09-08T09:17:53Z</time>
   </trkpt>
   <trkpt lat="51.1940250" lon="5.7233230">
    <ele>33.5</ele>
    <time>2019-09-08T09:17:54Z</time>
   </trkpt>
   <trkpt lat="51.1939760" lon="5.7234010">
    <ele>33.6</ele>
    <time>2019-09-08T09:17:55Z</time>
   </trkpt>
   <trkpt lat="51.1939300" lon="5.7234820">
    <ele>33.7</ele>
    <time>2019-09-08T09:17:56Z</time>
   </trkpt>
   <trkpt lat="51.1938860" lon="5.7235630">
    <ele>33.8</ele>
    <time>2019-09-08T09:17:57Z</time>
   </trkpt>
   <trkpt lat="51.1938370" lon="5.7236450">
    <ele>33.9</ele>
    <time>2019-09-08T09:17:58Z</time>
   </trkpt>
   <trkpt lat="51.1937940" lon="5.7237250">
    <ele>34.0</ele>
    <time>2019-09-08T09:17:59Z</time>
   </trkpt>
   <trkpt lat="51.1937470" lon="5.7238080">
    <ele>34.1</ele>
    <time>2019-09-08T09:18:00Z</time>
   </trkpt>
   <trkpt lat="51.1936900" lon="5.7238830">
    <ele>34.1</ele>
    <time>2019-09-08T09:18:01Z</time>
   </trkpt>
   <trkpt lat="51.1936400" lon="5.7239700">
    <ele>34.2</ele>
    <time>2019-09-08T09:18:02Z</time>
   </trkpt>
   <trkpt lat="51.1936040" lon="5.7240570">
    <ele>34.2</ele>
    <time>2019-09-08T09:18:03Z</time>
   </trkpt>
   <trkpt lat="51.1935530" lon="5.7241370">
    <ele>34.3</ele>
    <time>2019-09-08T09:18:04Z</time>
   </trkpt>
   <trkpt lat="51.1935220" lon="5.7242150">
    <ele>34.3</ele>
    <time>2019-09-08T09:18:05Z</time>
   </trkpt>
   <trkpt lat="51.1934730" lon="5.7243030">
    <ele>34.4</ele>
    <time>2019-09-08T09:18:06Z</time>
   </trkpt>
   <trkpt lat="51.1934200" lon="5.7243830">
    <ele>34.5</ele>
    <time>2019-09-08T09:18:07Z</time>
   </trkpt>
   <trkpt lat="51.1933540" lon="5.7244510">
    <ele>34.5</ele>
    <time>2019-09-08T09:18:08Z</time>
   </trkpt>
   <trkpt lat="51.1932950" lon="5.7245080">
    <ele>34.4</ele>
    <time>2019-09-08T09:18:09Z</time>
   </trkpt>
   <trkpt lat="51.1932200" lon="5.7245490">
    <ele>34.4</ele>
    <time>2019-09-08T09:18:10Z</time>
   </trkpt>
   <trkpt lat="51.1931400" lon="5.7245750">
    <ele>34.3</ele>
    <time>2019-09-08T09:18:11Z</time>
   </trkpt>
   <trkpt lat="51.1930610" lon="5.7245720">
    <ele>34.3</ele>
    <time>2019-09-08T09:18:12Z</time>
   </trkpt>
   <trkpt lat="51.1929830" lon="5.7245640">
    <ele>34.3</ele>
    <time>2019-09-08T09:18:13Z</time>
   </trkpt>
   <trkpt lat="51.1929100" lon="5.7245470">
    <ele>34.1</ele>
    <time>2019-09-08T09:18:14Z</time>
   </trkpt>
   <trkpt lat="51.1928460" lon="5.7245280">
    <ele>34.0</ele>
    <time>2019-09-08T09:18:15Z</time>
   </trkpt>
   <trkpt lat="51.1927710" lon="5.7245170">
    <ele>33.9</ele>
    <time>2019-09-08T09:18:16Z</time>
   </trkpt>
   <trkpt lat="51.1926970" lon="5.7245110">
    <ele>33.8</ele>
    <time>2019-09-08T09:18:17Z</time>
   </trkpt>
   <trkpt lat="51.1926280" lon="5.7244980">
    <ele>33.7</ele>
    <time>2019-09-08T09:18:18Z</time>
   </trkpt>
   <trkpt lat="51.1925590" lon="5.7244830">
    <ele>33.6</ele>
    <time>2019-09-08T09:18:19Z</time>
   </trkpt>
   <trkpt lat="51.1925070" lon="5.7244820">
    <ele>33.5</ele>
    <time>2019-09-08T09:18:20Z</time>
   </trkpt>
   <trkpt lat="51.1924360" lon="5.7244620">
    <ele>33.4</ele>
    <time>2019-09-08T09:18:21Z</time>
   </trkpt>
   <trkpt lat="51.1923750" lon="5.7244340">
    <ele>33.2</ele>
    <time>2019-09-08T09:18:22Z</time>
   </trkpt>
   <trkpt lat="51.1923220" lon="5.7244250">
    <ele>33.2</ele>
    <time>2019-09-08T09:18:23Z</time>
   </trkpt>
   <trkpt lat="51.1922600" lon="5.7244230">
    <ele>33.2</ele>
    <time>2019-09-08T09:18:24Z</time>
   </trkpt>
   <trkpt lat="51.1921930" lon="5.7244130">
    <ele>33.2</ele>
    <time>2019-09-08T09:18:25Z</time>
   </trkpt>
   <trkpt lat="51.1921170" lon="5.7244230">
    <ele>33.2</ele>
    <time>2019-09-08T09:18:26Z</time>
   </trkpt>
   <trkpt lat="51.1920380" lon="5.7244310">
    <ele>33.2</ele>
    <time>2019-09-08T09:18:27Z</time>
   </trkpt>
   <trkpt lat="51.1919630" lon="5.7244430">
    <ele>33.2</ele>
    <time>2019-09-08T09:18:28Z</time>
   </trkpt>
   <trkpt lat="51.1918930" lon="5.7244570">
    <ele>33.2</ele>
    <time>2019-09-08T09:18:29Z</time>
   </trkpt>
   <trkpt lat="51.1918130" lon="5.7244820">
    <ele>33.2</ele>
    <time>2019-09-08T09:18:30Z</time>
   </trkpt>
   <trkpt lat="51.1917330" lon="5.7244980">
    <ele>33.2</ele>
    <time>2019-09-08T09:18:31Z</time>
   </trkpt>
   <trkpt lat="51.1916620" lon="5.7245260">
    <ele>33.2</ele>
    <time>2019-09-08T09:18:32Z</time>
   </trkpt>
   <trkpt lat="51.1915870" lon="5.7245530">
    <ele>33.2</ele>
    <time>2019-09-08T09:18:33Z</time>
   </trkpt>
   <trkpt lat="51.1915130" lon="5.7245750">
    <ele>33.2</ele>
    <time>2019-09-08T09:18:34Z</time>
   </trkpt>
   <trkpt lat="51.1914380" lon="5.7246010">
    <ele>33.3</ele>
    <time>2019-09-08T09:18:35Z</time>
   </trkpt>
   <trkpt lat="51.1913680" lon="5.7246250">
    <ele>33.3</ele>
    <time>2019-09-08T09:18:36Z</time>
   </trkpt>
   <trkpt lat="51.1912970" lon="5.7246550">
    <ele>33.3</ele>
    <time>2019-09-08T09:18:37Z</time>
   </trkpt>
   <trkpt lat="51.1912260" lon="5.7246910">
    <ele>33.3</ele>
    <time>2019-09-08T09:18:38Z</time>
   </trkpt>
   <trkpt lat="51.1911580" lon="5.7247280">
    <ele>33.3</ele>
    <time>2019-09-08T09:18:39Z</time>
   </trkpt>
   <trkpt lat="51.1910860" lon="5.7247650">
    <ele>33.4</ele>
    <time>2019-09-08T09:18:40Z</time>
   </trkpt>
   <trkpt lat="51.1910210" lon="5.7248020">
    <ele>33.4</ele>
    <time>2019-09-08T09:18:41Z</time>
   </trkpt>
   <trkpt lat="51.1909590" lon="5.7248470">
    <ele>33.4</ele>
    <time>2019-09-08T09:18:42Z</time>
   </trkpt>
   <trkpt lat="51.1908900" lon="5.7248910">
    <ele>33.4</ele>
    <time>2019-09-08T09:18:43Z</time>
   </trkpt>
   <trkpt lat="51.1908220" lon="5.7249270">
    <ele>33.5</ele>
    <time>2019-09-08T09:18:44Z</time>
   </trkpt>
   <trkpt lat="51.1907530" lon="5.7249630">
    <ele>33.5</ele>
    <time>2019-09-08T09:18:45Z</time>
   </trkpt>
   <trkpt lat="51.1906840" lon="5.7249940">
    <ele>33.5</ele>
    <time>2019-09-08T09:18:46Z</time>
   </trkpt>
   <trkpt lat="51.1906150" lon="5.7250330">
    <ele>33.6</ele>
    <time>2019-09-08T09:18:47Z</time>
   </trkpt>
   <trkpt lat="51.1905590" lon="5.7250660">
    <ele>33.6</ele>
    <time>2019-09-08T09:18:48Z</time>
   </trkpt>
   <trkpt lat="51.1904910" lon="5.7251050">
    <ele>33.6</ele>
    <time>2019-09-08T09:18:49Z</time>
   </trkpt>
   <trkpt lat="51.1904280" lon="5.7251340">
    <ele>33.6</ele>
    <time>2019-09-08T09:18:50Z</time>
   </trkpt>
   <trkpt lat="51.1903720" lon="5.7251670">
    <ele>33.6</ele>
    <time>2019-09-08T09:18:51Z</time>
   </trkpt>
   <trkpt lat="51.1902950" lon="5.7251840">
    <ele>33.6</ele>
    <time>2019-09-08T09:18:52Z</time>
   </trkpt>
   <trkpt lat="51.1902330" lon="5.7252140">
    <ele>33.6</ele>
    <time>2019-09-08T09:18:53Z</time>
   </trkpt>
   <trkpt lat="51.1901670" lon="5.7252400">
    <ele>33.6</ele>
    <time>2019-09-08T09:18:54Z</time>
   </trkpt>
   <trkpt lat="51.1900920" lon="5.7252450">
    <ele>33.5</ele>
    <time>2019-09-08T09:18:55Z</time>
   </trkpt>
   <trkpt lat="51.1900260" lon="5.7252400">
    <ele>33.5</ele>
    <time>2019-09-08T09:18:56Z</time>
   </trkpt>
   <trkpt lat="51.1899540" lon="5.7252570">
    <ele>33.4</ele>
    <time>2019-09-08T09:18:57Z</time>
   </trkpt>
   <trkpt lat="51.1898720" lon="5.7252770">
    <ele>33.3</ele>
    <time>2019-09-08T09:18:58Z</time>
   </trkpt>
   <trkpt lat="51.1898020" lon="5.7252970">
    <ele>33.2</ele>
    <time>2019-09-08T09:18:59Z</time>
   </trkpt>
   <trkpt lat="51.1897280" lon="5.7253290">
    <ele>33.1</ele>
    <time>2019-09-08T09:19:00Z</time>
   </trkpt>
   <trkpt lat="51.1896640" lon="5.7253590">
    <ele>33.1</ele>
    <time>2019-09-08T09:19:01Z</time>
   </trkpt>
   <trkpt lat="51.1895920" lon="5.7253930">
    <ele>33.1</ele>
    <time>2019-09-08T09:19:02Z</time>
   </trkpt>
   <trkpt lat="51.1895230" lon="5.7254330">
    <ele>33.1</ele>
    <time>2019-09-08T09:19:03Z</time>
   </trkpt>
   <trkpt lat="51.1894430" lon="5.7254550">
    <ele>33.0</ele>
    <time>2019-09-08T09:19:04Z</time>
   </trkpt>
   <trkpt lat="51.1893690" lon="5.7254770">
    <ele>33.0</ele>
    <time>2019-09-08T09:19:05Z</time>
   </trkpt>
   <trkpt lat="51.1892990" lon="5.7255040">
    <ele>33.0</ele>
    <time>2019-09-08T09:19:06Z</time>
   </trkpt>
   <trkpt lat="51.1892280" lon="5.7255360">
    <ele>33.0</ele>
    <time>2019-09-08T09:19:07Z</time>
   </trkpt>
   <trkpt lat="51.1891540" lon="5.7255620">
    <ele>33.0</ele>
    <time>2019-09-08T09:19:08Z</time>
   </trkpt>
   <trkpt lat="51.1890840" lon="5.7255920">
    <ele>33.0</ele>
    <time>2019-09-08T09:19:09Z</time>
   </trkpt>
   <trkpt lat="51.1890150" lon="5.7256210">
    <ele>33.0</ele>
    <time>2019-09-08T09:19:10Z</time>
   </trkpt>
   <trkpt lat="51.1889450" lon="5.7256490">
    <ele>32.9</ele>
    <time>2019-09-08T09:19:11Z</time>
   </trkpt>
   <trkpt lat="51.1888730" lon="5.7256670">
    <ele>32.9</ele>
    <time>2019-09-08T09:19:12Z</time>
   </trkpt>
   <trkpt lat="51.1887990" lon="5.7256770">
    <ele>32.9</ele>
    <time>2019-09-08T09:19:13Z</time>
   </trkpt>
   <trkpt lat="51.1887260" lon="5.7256890">
    <ele>32.9</ele>
    <time>2019-09-08T09:19:14Z</time>
   </trkpt>
   <trkpt lat="51.1886520" lon="5.7257100">
    <ele>32.9</ele>
    <time>2019-09-08T09:19:15Z</time>
   </trkpt>
   <trkpt lat="51.1885870" lon="5.7257220">
    <ele>32.9</ele>
    <time>2019-09-08T09:19:16Z</time>
   </trkpt>
   <trkpt lat="51.1885190" lon="5.7257400">
    <ele>32.8</ele>
    <time>2019-09-08T09:19:17Z</time>
   </trkpt>
   <trkpt lat="51.1884530" lon="5.7257630">
    <ele>32.8</ele>
    <time>2019-09-08T09:19:18Z</time>
   </trkpt>
   <trkpt lat="51.1883860" lon="5.7257740">
    <ele>32.8</ele>
    <time>2019-09-08T09:19:19Z</time>
   </trkpt>
   <trkpt lat="51.1883130" lon="5.7257890">
    <ele>32.7</ele>
    <time>2019-09-08T09:19:20Z</time>
   </trkpt>
   <trkpt lat="51.1882440" lon="5.7257990">
    <ele>32.7</ele>
    <time>2019-09-08T09:19:21Z</time>
   </trkpt>
   <trkpt lat="51.1881750" lon="5.7257860">
    <ele>32.6</ele>
    <time>2019-09-08T09:19:22Z</time>
   </trkpt>
   <trkpt lat="51.1881040" lon="5.7257890">
    <ele>32.6</ele>
    <time>2019-09-08T09:19:23Z</time>
   </trkpt>
   <trkpt lat="51.1880330" lon="5.7257670">
    <ele>32.5</ele>
    <time>2019-09-08T09:19:24Z</time>
   </trkpt>
   <trkpt lat="51.1879550" lon="5.7257600">
    <ele>32.5</ele>
    <time>2019-09-08T09:19:25Z</time>
   </trkpt>
   <trkpt lat="51.1878780" lon="5.7257420">
    <ele>32.4</ele>
    <time>2019-09-08T09:19:26Z</time>
   </trkpt>
   <trkpt lat="51.1878040" lon="5.7257270">
    <ele>32.4</ele>
    <time>2019-09-08T09:19:27Z</time>
   </trkpt>
   <trkpt lat="51.1877330" lon="5.7257060">
    <ele>32.3</ele>
    <time>2019-09-08T09:19:28Z</time>
   </trkpt>
   <trkpt lat="51.1876320" lon="5.7256840">
    <ele>32.3</ele>
    <time>2019-09-08T09:19:29Z</time>
   </trkpt>
   <trkpt lat="51.1875640" lon="5.7256580">
    <ele>32.2</ele>
    <time>2019-09-08T09:19:30Z</time>
   </trkpt>
   <trkpt lat="51.1874960" lon="5.7256300">
    <ele>32.2</ele>
    <time>2019-09-08T09:19:31Z</time>
   </trkpt>
   <trkpt lat="51.1874260" lon="5.7256020">
    <ele>32.1</ele>
    <time>2019-09-08T09:19:32Z</time>
   </trkpt>
   <trkpt lat="51.1873560" lon="5.7255840">
    <ele>32.1</ele>
    <time>2019-09-08T09:19:33Z</time>
   </trkpt>
   <trkpt lat="51.1872920" lon="5.7255610">
    <ele>32.0</ele>
    <time>2019-09-08T09:19:34Z</time>
   </trkpt>
   <trkpt lat="51.1872240" lon="5.7255450">
    <ele>32.0</ele>
    <time>2019-09-08T09:19:35Z</time>
   </trkpt>
   <trkpt lat="51.1871490" lon="5.7255260">
    <ele>31.9</ele>
    <time>2019-09-08T09:19:36Z</time>
   </trkpt>
   <trkpt lat="51.1870780" lon="5.7255000">
    <ele>31.8</ele>
    <time>2019-09-08T09:19:37Z</time>
   </trkpt>
   <trkpt lat="51.1870120" lon="5.7254870">
    <ele>31.8</ele>
    <time>2019-09-08T09:19:38Z</time>
   </trkpt>
   <trkpt lat="51.1869380" lon="5.7254590">
    <ele>31.7</ele>
    <time>2019-09-08T09:19:39Z</time>
   </trkpt>
   <trkpt lat="51.1868690" lon="5.7254420">
    <ele>31.7</ele>
    <time>2019-09-08T09:19:40Z</time>
   </trkpt>
   <trkpt lat="51.1868070" lon="5.7254150">
    <ele>31.6</ele>
    <time>2019-09-08T09:19:41Z</time>
   </trkpt>
   <trkpt lat="51.1867360" lon="5.7253920">
    <ele>31.6</ele>
    <time>2019-09-08T09:19:42Z</time>
   </trkpt>
   <trkpt lat="51.1866630" lon="5.7253500">
    <ele>31.5</ele>
    <time>2019-09-08T09:19:43Z</time>
   </trkpt>
   <trkpt lat="51.1865940" lon="5.7253380">
    <ele>31.4</ele>
    <time>2019-09-08T09:19:44Z</time>
   </trkpt>
   <trkpt lat="51.1865260" lon="5.7253100">
    <ele>31.4</ele>
    <time>2019-09-08T09:19:45Z</time>
   </trkpt>
   <trkpt lat="51.1864550" lon="5.7252800">
    <ele>31.4</ele>
    <time>2019-09-08T09:19:46Z</time>
   </trkpt>
   <trkpt lat="51.1863910" lon="5.7252490">
    <ele>31.3</ele>
    <time>2019-09-08T09:19:47Z</time>
   </trkpt>
   <trkpt lat="51.1863180" lon="5.7252290">
    <ele>31.2</ele>
    <time>2019-09-08T09:19:48Z</time>
   </trkpt>
   <trkpt lat="51.1862520" lon="5.7252130">
    <ele>31.4</ele>
    <time>2019-09-08T09:19:49Z</time>
   </trkpt>
   <trkpt lat="51.1861760" lon="5.7251860">
    <ele>31.6</ele>
    <time>2019-09-08T09:19:50Z</time>
   </trkpt>
   <trkpt lat="51.1861020" lon="5.7251580">
    <ele>31.8</ele>
    <time>2019-09-08T09:19:51Z</time>
   </trkpt>
   <trkpt lat="51.1860330" lon="5.7251320">
    <ele>32.0</ele>
    <time>2019-09-08T09:19:52Z</time>
   </trkpt>
   <trkpt lat="51.1859630" lon="5.7251140">
    <ele>32.2</ele>
    <time>2019-09-08T09:19:53Z</time>
   </trkpt>
   <trkpt lat="51.1858910" lon="5.7251010">
    <ele>32.3</ele>
    <time>2019-09-08T09:19:54Z</time>
   </trkpt>
   <trkpt lat="51.1858240" lon="5.7250890">
    <ele>32.5</ele>
    <time>2019-09-08T09:19:55Z</time>
   </trkpt>
   <trkpt lat="51.1857320" lon="5.7250750">
    <ele>32.6</ele>
    <time>2019-09-08T09:19:56Z</time>
   </trkpt>
   <trkpt lat="51.1856600" lon="5.7250840">
    <ele>32.7</ele>
    <time>2019-09-08T09:19:57Z</time>
   </trkpt>
   <trkpt lat="51.1855800" lon="5.7250860">
    <ele>32.8</ele>
    <time>2019-09-08T09:19:58Z</time>
   </trkpt>
   <trkpt lat="51.1855060" lon="5.7250850">
    <ele>32.9</ele>
    <time>2019-09-08T09:19:59Z</time>
   </trkpt>
   <trkpt lat="51.1854380" lon="5.7250890">
    <ele>33.0</ele>
    <time>2019-09-08T09:20:00Z</time>
   </trkpt>
   <trkpt lat="51.1853640" lon="5.7250910">
    <ele>33.0</ele>
    <time>2019-09-08T09:20:01Z</time>
   </trkpt>
   <trkpt lat="51.1852870" lon="5.7251010">
    <ele>33.1</ele>
    <time>2019-09-08T09:20:02Z</time>
   </trkpt>
   <trkpt lat="51.1852140" lon="5.7251150">
    <ele>33.1</ele>
    <time>2019-09-08T09:20:03Z</time>
   </trkpt>
   <trkpt lat="51.1851430" lon="5.7251220">
    <ele>33.1</ele>
    <time>2019-09-08T09:20:04Z</time>
   </trkpt>
   <trkpt lat="51.1850630" lon="5.7251410">
    <ele>33.1</ele>
    <time>2019-09-08T09:20:05Z</time>
   </trkpt>
   <trkpt lat="51.1849970" lon="5.7251680">
    <ele>33.1</ele>
    <time>2019-09-08T09:20:06Z</time>
   </trkpt>
   <trkpt lat="51.1849280" lon="5.7251840">
    <ele>33.0</ele>
    <time>2019-09-08T09:20:07Z</time>
   </trkpt>
   <trkpt lat="51.1848640" lon="5.7252120">
    <ele>33.0</ele>
    <time>2019-09-08T09:20:08Z</time>
   </trkpt>
   <trkpt lat="51.1847920" lon="5.7252360">
    <ele>32.9</ele>
    <time>2019-09-08T09:20:09Z</time>
   </trkpt>
   <trkpt lat="51.1847190" lon="5.7252570">
    <ele>32.9</ele>
    <time>2019-09-08T09:20:10Z</time>
   </trkpt>
   <trkpt lat="51.1846470" lon="5.7252770">
    <ele>32.8</ele>
    <time>2019-09-08T09:20:11Z</time>
   </trkpt>
   <trkpt lat="51.1845810" lon="5.7253090">
    <ele>32.8</ele>
    <time>2019-09-08T09:20:12Z</time>
   </trkpt>
   <trkpt lat="51.1845170" lon="5.7253300">
    <ele>32.8</ele>
    <time>2019-09-08T09:20:13Z</time>
   </trkpt>
   <trkpt lat="51.1844460" lon="5.7253570">
    <ele>32.9</ele>
    <time>2019-09-08T09:20:14Z</time>
   </trkpt>
   <trkpt lat="51.1843750" lon="5.7253840">
    <ele>32.9</ele>
    <time>2019-09-08T09:20:15Z</time>
   </trkpt>
   <trkpt lat="51.1842920" lon="5.7254170">
    <ele>33.0</ele>
    <time>2019-09-08T09:20:16Z</time>
   </trkpt>
   <trkpt lat="51.1842220" lon="5.7254370">
    <ele>33.0</ele>
    <time>2019-09-08T09:20:17Z</time>
   </trkpt>
   <trkpt lat="51.1841380" lon="5.7254570">
    <ele>33.1</ele>
    <time>2019-09-08T09:20:18Z</time>
   </trkpt>
   <trkpt lat="51.1840570" lon="5.7254760">
    <ele>33.1</ele>
    <time>2019-09-08T09:20:19Z</time>
   </trkpt>
   <trkpt lat="51.1839860" lon="5.7255050">
    <ele>33.2</ele>
    <time>2019-09-08T09:20:20Z</time>
   </trkpt>
   <trkpt lat="51.1839090" lon="5.7255320">
    <ele>33.3</ele>
    <time>2019-09-08T09:20:21Z</time>
   </trkpt>
   <trkpt lat="51.1838380" lon="5.7255590">
    <ele>33.4</ele>
    <time>2019-09-08T09:20:22Z</time>
   </trkpt>
   <trkpt lat="51.1837690" lon="5.7255900">
    <ele>33.5</ele>
    <time>2019-09-08T09:20:23Z</time>
   </trkpt>
   <trkpt lat="51.1836990" lon="5.7256150">
    <ele>33.9</ele>
    <time>2019-09-08T09:20:24Z</time>
   </trkpt>
   <trkpt lat="51.1836280" lon="5.7256400">
    <ele>34.3</ele>
    <time>2019-09-08T09:20:25Z</time>
   </trkpt>
   <trkpt lat="51.1835570" lon="5.7256680">
    <ele>34.5</ele>
    <time>2019-09-08T09:20:26Z</time>
   </trkpt>
   <trkpt lat="51.1834890" lon="5.7256960">
    <ele>34.6</ele>
    <time>2019-09-08T09:20:27Z</time>
   </trkpt>
   <trkpt lat="51.1834200" lon="5.7257230">
    <ele>34.8</ele>
    <time>2019-09-08T09:20:28Z</time>
   </trkpt>
   <trkpt lat="51.1833420" lon="5.7257430">
    <ele>34.9</ele>
    <time>2019-09-08T09:20:29Z</time>
   </trkpt>
   <trkpt lat="51.1832730" lon="5.7257780">
    <ele>34.9</ele>
    <time>2019-09-08T09:20:30Z</time>
   </trkpt>
   <trkpt lat="51.1832000" lon="5.7258080">
    <ele>34.9</ele>
    <time>2019-09-08T09:20:31Z</time>
   </trkpt>
   <trkpt lat="51.1831270" lon="5.7258360">
    <ele>34.9</ele>
    <time>2019-09-08T09:20:32Z</time>
   </trkpt>
   <trkpt lat="51.1830510" lon="5.7258780">
    <ele>35.0</ele>
    <time>2019-09-08T09:20:33Z</time>
   </trkpt>
   <trkpt lat="51.1829870" lon="5.7259140">
    <ele>34.9</ele>
    <time>2019-09-08T09:20:34Z</time>
   </trkpt>
   <trkpt lat="51.1829150" lon="5.7259380">
    <ele>34.9</ele>
    <time>2019-09-08T09:20:35Z</time>
   </trkpt>
   <trkpt lat="51.1828450" lon="5.7259700">
    <ele>34.8</ele>
    <time>2019-09-08T09:20:36Z</time>
   </trkpt>
   <trkpt lat="51.1827690" lon="5.7259990">
    <ele>34.6</ele>
    <time>2019-09-08T09:20:37Z</time>
   </trkpt>
   <trkpt lat="51.1827020" lon="5.7259990">
    <ele>34.5</ele>
    <time>2019-09-08T09:20:38Z</time>
   </trkpt>
   <trkpt lat="51.1826250" lon="5.7260220">
    <ele>34.4</ele>
    <time>2019-09-08T09:20:39Z</time>
   </trkpt>
   <trkpt lat="51.1825570" lon="5.7260460">
    <ele>34.2</ele>
    <time>2019-09-08T09:20:40Z</time>
   </trkpt>
   <trkpt lat="51.1824930" lon="5.7260700">
    <ele>34.1</ele>
    <time>2019-09-08T09:20:41Z</time>
   </trkpt>
   <trkpt lat="51.1824140" lon="5.7260990">
    <ele>34.0</ele>
    <time>2019-09-08T09:20:42Z</time>
   </trkpt>
   <trkpt lat="51.1823520" lon="5.7261220">
    <ele>33.9</ele>
    <time>2019-09-08T09:20:43Z</time>
   </trkpt>
   <trkpt lat="51.1822780" lon="5.7261520">
    <ele>33.8</ele>
    <time>2019-09-08T09:20:44Z</time>
   </trkpt>
   <trkpt lat="51.1822030" lon="5.7261840">
    <ele>33.7</ele>
    <time>2019-09-08T09:20:45Z</time>
   </trkpt>
   <trkpt lat="51.1821300" lon="5.7262020">
    <ele>33.6</ele>
    <time>2019-09-08T09:20:46Z</time>
   </trkpt>
   <trkpt lat="51.1820600" lon="5.7262210">
    <ele>33.5</ele>
    <time>2019-09-08T09:20:47Z</time>
   </trkpt>
   <trkpt lat="51.1819820" lon="5.7262560">
    <ele>33.4</ele>
    <time>2019-09-08T09:20:48Z</time>
   </trkpt>
   <trkpt lat="51.1819060" lon="5.7262770">
    <ele>33.4</ele>
    <time>2019-09-08T09:20:49Z</time>
   </trkpt>
   <trkpt lat="51.1818370" lon="5.7263090">
    <ele>33.3</ele>
    <time>2019-09-08T09:20:50Z</time>
   </trkpt>
   <trkpt lat="51.1817730" lon="5.7263450">
    <ele>33.2</ele>
    <time>2019-09-08T09:20:51Z</time>
   </trkpt>
   <trkpt lat="51.1816960" lon="5.7263720">
    <ele>33.1</ele>
    <time>2019-09-08T09:20:52Z</time>
   </trkpt>
   <trkpt lat="51.1816300" lon="5.7264030">
    <ele>33.0</ele>
    <time>2019-09-08T09:20:53Z</time>
   </trkpt>
   <trkpt lat="51.1815530" lon="5.7264330">
    <ele>33.0</ele>
    <time>2019-09-08T09:20:54Z</time>
   </trkpt>
   <trkpt lat="51.1814720" lon="5.7264410">
    <ele>32.9</ele>
    <time>2019-09-08T09:20:55Z</time>
   </trkpt>
   <trkpt lat="51.1814020" lon="5.7264630">
    <ele>32.8</ele>
    <time>2019-09-08T09:20:56Z</time>
   </trkpt>
   <trkpt lat="51.1813240" lon="5.7264870">
    <ele>32.7</ele>
    <time>2019-09-08T09:20:57Z</time>
   </trkpt>
   <trkpt lat="51.1812500" lon="5.7265160">
    <ele>32.7</ele>
    <time>2019-09-08T09:20:58Z</time>
   </trkpt>
   <trkpt lat="51.1811710" lon="5.7265400">
    <ele>32.6</ele>
    <time>2019-09-08T09:20:59Z</time>
   </trkpt>
   <trkpt lat="51.1811030" lon="5.7265780">
    <ele>32.5</ele>
    <time>2019-09-08T09:21:00Z</time>
   </trkpt>
   <trkpt lat="51.1810290" lon="5.7266300">
    <ele>32.5</ele>
    <time>2019-09-08T09:21:01Z</time>
   </trkpt>
   <trkpt lat="51.1809560" lon="5.7266750">
    <ele>32.4</ele>
    <time>2019-09-08T09:21:02Z</time>
   </trkpt>
   <trkpt lat="51.1808930" lon="5.7267020">
    <ele>32.4</ele>
    <time>2019-09-08T09:21:03Z</time>
   </trkpt>
   <trkpt lat="51.1808210" lon="5.7267300">
    <ele>32.3</ele>
    <time>2019-09-08T09:21:04Z</time>
   </trkpt>
   <trkpt lat="51.1807520" lon="5.7267600">
    <ele>32.2</ele>
    <time>2019-09-08T09:21:05Z</time>
   </trkpt>
   <trkpt lat="51.1806940" lon="5.7267850">
    <ele>32.2</ele>
    <time>2019-09-08T09:21:06Z</time>
   </trkpt>
   <trkpt lat="51.1806200" lon="5.7268200">
    <ele>32.1</ele>
    <time>2019-09-08T09:21:07Z</time>
   </trkpt>
   <trkpt lat="51.1805510" lon="5.7268460">
    <ele>32.1</ele>
    <time>2019-09-08T09:21:08Z</time>
   </trkpt>
   <trkpt lat="51.1804780" lon="5.7268580">
    <ele>32.0</ele>
    <time>2019-09-08T09:21:09Z</time>
   </trkpt>
   <trkpt lat="51.1804150" lon="5.7268840">
    <ele>32.0</ele>
    <time>2019-09-08T09:21:10Z</time>
   </trkpt>
   <trkpt lat="51.1803440" lon="5.7269130">
    <ele>31.9</ele>
    <time>2019-09-08T09:21:11Z</time>
   </trkpt>
   <trkpt lat="51.1802720" lon="5.7269490">
    <ele>31.9</ele>
    <time>2019-09-08T09:21:12Z</time>
   </trkpt>
   <trkpt lat="51.1801840" lon="5.7269630">
    <ele>31.9</ele>
    <time>2019-09-08T09:21:13Z</time>
   </trkpt>
   <trkpt lat="51.1801100" lon="5.7269970">
    <ele>31.8</ele>
    <time>2019-09-08T09:21:14Z</time>
   </trkpt>
   <trkpt lat="51.1800440" lon="5.7270180">
    <ele>31.8</ele>
    <time>2019-09-08T09:21:15Z</time>
   </trkpt>
   <trkpt lat="51.1799720" lon="5.7270510">
    <ele>31.7</ele>
    <time>2019-09-08T09:21:16Z</time>
   </trkpt>
   <trkpt lat="51.1798930" lon="5.7270650">
    <ele>31.7</ele>
    <time>2019-09-08T09:21:17Z</time>
   </trkpt>
   <trkpt lat="51.1798260" lon="5.7270960">
    <ele>31.7</ele>
    <time>2019-09-08T09:21:18Z</time>
   </trkpt>
   <trkpt lat="51.1797540" lon="5.7271260">
    <ele>31.6</ele>
    <time>2019-09-08T09:21:19Z</time>
   </trkpt>
   <trkpt lat="51.1796880" lon="5.7271610">
    <ele>31.6</ele>
    <time>2019-09-08T09:21:20Z</time>
   </trkpt>
   <trkpt lat="51.1796140" lon="5.7271840">
    <ele>31.6</ele>
    <time>2019-09-08T09:21:21Z</time>
   </trkpt>
   <trkpt lat="51.1795410" lon="5.7272120">
    <ele>31.6</ele>
    <time>2019-09-08T09:21:22Z</time>
   </trkpt>
   <trkpt lat="51.1794680" lon="5.7272320">
    <ele>31.5</ele>
    <time>2019-09-08T09:21:23Z</time>
   </trkpt>
   <trkpt lat="51.1793970" lon="5.7272590">
    <ele>31.5</ele>
    <time>2019-09-08T09:21:24Z</time>
   </trkpt>
   <trkpt lat="51.1793320" lon="5.7272860">
    <ele>31.5</ele>
    <time>2019-09-08T09:21:25Z</time>
   </trkpt>
   <trkpt lat="51.1792660" lon="5.7273050">
    <ele>31.5</ele>
    <time>2019-09-08T09:21:26Z</time>
   </trkpt>
   <trkpt lat="51.1791990" lon="5.7273380">
    <ele>31.4</ele>
    <time>2019-09-08T09:21:27Z</time>
   </trkpt>
   <trkpt lat="51.1791220" lon="5.7273580">
    <ele>31.4</ele>
    <time>2019-09-08T09:21:28Z</time>
   </trkpt>
   <trkpt lat="51.1790530" lon="5.7273910">
    <ele>31.4</ele>
    <time>2019-09-08T09:21:29Z</time>
   </trkpt>
   <trkpt lat="51.1789770" lon="5.7274230">
    <ele>31.3</ele>
    <time>2019-09-08T09:21:30Z</time>
   </trkpt>
   <trkpt lat="51.1789020" lon="5.7274480">
    <ele>31.3</ele>
    <time>2019-09-08T09:21:31Z</time>
   </trkpt>
   <trkpt lat="51.1788370" lon="5.7274830">
    <ele>31.3</ele>
    <time>2019-09-08T09:21:32Z</time>
   </trkpt>
   <trkpt lat="51.1787600" lon="5.7275180">
    <ele>31.3</ele>
    <time>2019-09-08T09:21:33Z</time>
   </trkpt>
   <trkpt lat="51.1786890" lon="5.7275470">
    <ele>31.4</ele>
    <time>2019-09-08T09:21:34Z</time>
   </trkpt>
   <trkpt lat="51.1786220" lon="5.7275780">
    <ele>31.4</ele>
    <time>2019-09-08T09:21:35Z</time>
   </trkpt>
   <trkpt lat="51.1785460" lon="5.7276010">
    <ele>31.4</ele>
    <time>2019-09-08T09:21:36Z</time>
   </trkpt>
   <trkpt lat="51.1784700" lon="5.7276360">
    <ele>31.4</ele>
    <time>2019-09-08T09:21:37Z</time>
   </trkpt>
   <trkpt lat="51.1784030" lon="5.7276650">
    <ele>31.4</ele>
    <time>2019-09-08T09:21:38Z</time>
   </trkpt>
   <trkpt lat="51.1783400" lon="5.7276910">
    <ele>31.4</ele>
    <time>2019-09-08T09:21:39Z</time>
   </trkpt>
   <trkpt lat="51.1782640" lon="5.7277210">
    <ele>31.5</ele>
    <time>2019-09-08T09:21:40Z</time>
   </trkpt>
   <trkpt lat="51.1782020" lon="5.7277510">
    <ele>31.5</ele>
    <time>2019-09-08T09:21:41Z</time>
   </trkpt>
   <trkpt lat="51.1781230" lon="5.7277590">
    <ele>31.5</ele>
    <time>2019-09-08T09:21:42Z</time>
   </trkpt>
   <trkpt lat="51.1780590" lon="5.7277890">
    <ele>31.5</ele>
    <time>2019-09-08T09:21:43Z</time>
   </trkpt>
   <trkpt lat="51.1779910" lon="5.7278170">
    <ele>31.5</ele>
    <time>2019-09-08T09:21:44Z</time>
   </trkpt>
   <trkpt lat="51.1779190" lon="5.7278390">
    <ele>31.6</ele>
    <time>2019-09-08T09:21:45Z</time>
   </trkpt>
   <trkpt lat="51.1778360" lon="5.7278620">
    <ele>31.6</ele>
    <time>2019-09-08T09:21:46Z</time>
   </trkpt>
   <trkpt lat="51.1777650" lon="5.7278880">
    <ele>31.6</ele>
    <time>2019-09-08T09:21:47Z</time>
   </trkpt>
   <trkpt lat="51.1777020" lon="5.7279210">
    <ele>31.6</ele>
    <time>2019-09-08T09:21:48Z</time>
   </trkpt>
   <trkpt lat="51.1776340" lon="5.7279490">
    <ele>31.6</ele>
    <time>2019-09-08T09:21:49Z</time>
   </trkpt>
   <trkpt lat="51.1775710" lon="5.7279740">
    <ele>31.6</ele>
    <time>2019-09-08T09:21:50Z</time>
   </trkpt>
   <trkpt lat="51.1774910" lon="5.7280040">
    <ele>31.7</ele>
    <time>2019-09-08T09:21:51Z</time>
   </trkpt>
   <trkpt lat="51.1774150" lon="5.7280380">
    <ele>31.7</ele>
    <time>2019-09-08T09:21:52Z</time>
   </trkpt>
   <trkpt lat="51.1773500" lon="5.7280740">
    <ele>31.7</ele>
    <time>2019-09-08T09:21:53Z</time>
   </trkpt>
   <trkpt lat="51.1772820" lon="5.7281180">
    <ele>31.7</ele>
    <time>2019-09-08T09:21:54Z</time>
   </trkpt>
   <trkpt lat="51.1772030" lon="5.7281560">
    <ele>31.7</ele>
    <time>2019-09-08T09:21:55Z</time>
   </trkpt>
   <trkpt lat="51.1771410" lon="5.7282120">
    <ele>31.7</ele>
    <time>2019-09-08T09:21:56Z</time>
   </trkpt>
   <trkpt lat="51.1770850" lon="5.7282690">
    <ele>31.7</ele>
    <time>2019-09-08T09:21:57Z</time>
   </trkpt>
   <trkpt lat="51.1770200" lon="5.7283250">
    <ele>31.7</ele>
    <time>2019-09-08T09:21:58Z</time>
   </trkpt>
   <trkpt lat="51.1769670" lon="5.7283840">
    <ele>31.8</ele>
    <time>2019-09-08T09:21:59Z</time>
   </trkpt>
   <trkpt lat="51.1769040" lon="5.7284440">
    <ele>31.8</ele>
    <time>2019-09-08T09:22:00Z</time>
   </trkpt>
   <trkpt lat="51.1768490" lon="5.7285280">
    <ele>31.8</ele>
    <time>2019-09-08T09:22:01Z</time>
   </trkpt>
   <trkpt lat="51.1767890" lon="5.7286040">
    <ele>31.8</ele>
    <time>2019-09-08T09:22:02Z</time>
   </trkpt>
   <trkpt lat="51.1767390" lon="5.7286960">
    <ele>31.8</ele>
    <time>2019-09-08T09:22:03Z</time>
   </trkpt>
   <trkpt lat="51.1766890" lon="5.7287840">
    <ele>31.8</ele>
    <time>2019-09-08T09:22:04Z</time>
   </trkpt>
   <trkpt lat="51.1766280" lon="5.7288780">
    <ele>31.9</ele>
    <time>2019-09-08T09:22:05Z</time>
   </trkpt>
   <trkpt lat="51.1765760" lon="5.7289510">
    <ele>31.9</ele>
    <time>2019-09-08T09:22:06Z</time>
   </trkpt>
   <trkpt lat="51.1765210" lon="5.7290360">
    <ele>31.9</ele>
    <time>2019-09-08T09:22:07Z</time>
   </trkpt>
   <trkpt lat="51.1764670" lon="5.7291310">
    <ele>31.9</ele>
    <time>2019-09-08T09:22:08Z</time>
   </trkpt>
   <trkpt lat="51.1764090" lon="5.7292160">
    <ele>31.9</ele>
    <time>2019-09-08T09:22:09Z</time>
   </trkpt>
   <trkpt lat="51.1763570" lon="5.7292970">
    <ele>31.9</ele>
    <time>2019-09-08T09:22:10Z</time>
   </trkpt>
   <trkpt lat="51.1763060" lon="5.7293800">
    <ele>31.9</ele>
    <time>2019-09-08T09:22:11Z</time>
   </trkpt>
   <trkpt lat="51.1762540" lon="5.7294640">
    <ele>31.9</ele>
    <time>2019-09-08T09:22:12Z</time>
   </trkpt>
   <trkpt lat="51.1761990" lon="5.7295420">
    <ele>31.9</ele>
    <time>2019-09-08T09:22:13Z</time>
   </trkpt>
   <trkpt lat="51.1761460" lon="5.7296300">
    <ele>31.9</ele>
    <time>2019-09-08T09:22:14Z</time>
   </trkpt>
   <trkpt lat="51.1760870" lon="5.7297030">
    <ele>31.9</ele>
    <time>2019-09-08T09:22:15Z</time>
   </trkpt>
   <trkpt lat="51.1760320" lon="5.7297910">
    <ele>31.9</ele>
    <time>2019-09-08T09:22:16Z</time>
   </trkpt>
   <trkpt lat="51.1759830" lon="5.7298740">
    <ele>31.8</ele>
    <time>2019-09-08T09:22:17Z</time>
   </trkpt>
   <trkpt lat="51.1759330" lon="5.7299550">
    <ele>31.8</ele>
    <time>2019-09-08T09:22:18Z</time>
   </trkpt>
   <trkpt lat="51.1758820" lon="5.7300390">
    <ele>31.8</ele>
    <time>2019-09-08T09:22:19Z</time>
   </trkpt>
   <trkpt lat="51.1758270" lon="5.7301290">
    <ele>31.7</ele>
    <time>2019-09-08T09:22:20Z</time>
   </trkpt>
   <trkpt lat="51.1757740" lon="5.7302110">
    <ele>31.7</ele>
    <time>2019-09-08T09:22:21Z</time>
   </trkpt>
   <trkpt lat="51.1757190" lon="5.7302930">
    <ele>31.6</ele>
    <time>2019-09-08T09:22:22Z</time>
   </trkpt>
   <trkpt lat="51.1756560" lon="5.7303680">
    <ele>31.5</ele>
    <time>2019-09-08T09:22:23Z</time>
   </trkpt>
   <trkpt lat="51.1756080" lon="5.7304500">
    <ele>31.4</ele>
    <time>2019-09-08T09:22:24Z</time>
   </trkpt>
   <trkpt lat="51.1755610" lon="5.7305280">
    <ele>31.3</ele>
    <time>2019-09-08T09:22:25Z</time>
   </trkpt>
   <trkpt lat="51.1755010" lon="5.7306140">
    <ele>31.3</ele>
    <time>2019-09-08T09:22:26Z</time>
   </trkpt>
   <trkpt lat="51.1754440" lon="5.7307000">
    <ele>31.1</ele>
    <time>2019-09-08T09:22:27Z</time>
   </trkpt>
   <trkpt lat="51.1753870" lon="5.7307830">
    <ele>31.2</ele>
    <time>2019-09-08T09:22:28Z</time>
   </trkpt>
   <trkpt lat="51.1753340" lon="5.7308680">
    <ele>31.2</ele>
    <time>2019-09-08T09:22:29Z</time>
   </trkpt>
   <trkpt lat="51.1752810" lon="5.7309540">
    <ele>31.3</ele>
    <time>2019-09-08T09:22:30Z</time>
   </trkpt>
   <trkpt lat="51.1752290" lon="5.7310420">
    <ele>31.3</ele>
    <time>2019-09-08T09:22:31Z</time>
   </trkpt>
   <trkpt lat="51.1751740" lon="5.7311120">
    <ele>31.4</ele>
    <time>2019-09-08T09:22:32Z</time>
   </trkpt>
   <trkpt lat="51.1751250" lon="5.7311910">
    <ele>31.5</ele>
    <time>2019-09-08T09:22:33Z</time>
   </trkpt>
   <trkpt lat="51.1750690" lon="5.7312730">
    <ele>31.6</ele>
    <time>2019-09-08T09:22:34Z</time>
   </trkpt>
   <trkpt lat="51.1750180" lon="5.7313670">
    <ele>31.8</ele>
    <time>2019-09-08T09:22:35Z</time>
   </trkpt>
   <trkpt lat="51.1749610" lon="5.7314600">
    <ele>32.1</ele>
    <time>2019-09-08T09:22:36Z</time>
   </trkpt>
   <trkpt lat="51.1749020" lon="5.7315270">
    <ele>32.3</ele>
    <time>2019-09-08T09:22:37Z</time>
   </trkpt>
   <trkpt lat="51.1748490" lon="5.7316050">
    <ele>32.4</ele>
    <time>2019-09-08T09:22:38Z</time>
   </trkpt>
   <trkpt lat="51.1747960" lon="5.7316930">
    <ele>32.5</ele>
    <time>2019-09-08T09:22:39Z</time>
   </trkpt>
   <trkpt lat="51.1747440" lon="5.7317770">
    <ele>32.6</ele>
    <time>2019-09-08T09:22:40Z</time>
   </trkpt>
   <trkpt lat="51.1746920" lon="5.7318720">
    <ele>32.6</ele>
    <time>2019-09-08T09:22:41Z</time>
   </trkpt>
   <trkpt lat="51.1746440" lon="5.7319580">
    <ele>32.6</ele>
    <time>2019-09-08T09:22:42Z</time>
   </trkpt>
   <trkpt lat="51.1745910" lon="5.7320360">
    <ele>32.6</ele>
    <time>2019-09-08T09:22:43Z</time>
   </trkpt>
   <trkpt lat="51.1745400" lon="5.7321260">
    <ele>32.6</ele>
    <time>2019-09-08T09:22:44Z</time>
   </trkpt>
   <trkpt lat="51.1744820" lon="5.7322250">
    <ele>32.7</ele>
    <time>2019-09-08T09:22:45Z</time>
   </trkpt>
   <trkpt lat="51.1744260" lon="5.7323100">
    <ele>32.8</ele>
    <time>2019-09-08T09:22:46Z</time>
   </trkpt>
   <trkpt lat="51.1743690" lon="5.7323850">
    <ele>33.0</ele>
    <time>2019-09-08T09:22:47Z</time>
   </trkpt>
   <trkpt lat="51.1743170" lon="5.7324700">
    <ele>33.1</ele>
    <time>2019-09-08T09:22:48Z</time>
   </trkpt>
   <trkpt lat="51.1742620" lon="5.7325540">
    <ele>33.1</ele>
    <time>2019-09-08T09:22:49Z</time>
   </trkpt>
   <trkpt lat="51.1742080" lon="5.7326370">
    <ele>33.2</ele>
    <time>2019-09-08T09:22:50Z</time>
   </trkpt>
   <trkpt lat="51.1741510" lon="5.7327200">
    <ele>33.2</ele>
    <time>2019-09-08T09:22:51Z</time>
   </trkpt>
   <trkpt lat="51.1741010" lon="5.7327960">
    <ele>33.2</ele>
    <time>2019-09-08T09:22:52Z</time>
   </trkpt>
   <trkpt lat="51.1740440" lon="5.7328760">
    <ele>33.2</ele>
    <time>2019-09-08T09:22:53Z</time>
   </trkpt>
   <trkpt lat="51.1739900" lon="5.7329590">
    <ele>33.2</ele>
    <time>2019-09-08T09:22:54Z</time>
   </trkpt>
   <trkpt lat="51.1739380" lon="5.7330440">
    <ele>33.2</ele>
    <time>2019-09-08T09:22:55Z</time>
   </trkpt>
   <trkpt lat="51.1738860" lon="5.7331320">
    <ele>33.1</ele>
    <time>2019-09-08T09:22:56Z</time>
   </trkpt>
   <trkpt lat="51.1738330" lon="5.7332160">
    <ele>33.1</ele>
    <time>2019-09-08T09:22:57Z</time>
   </trkpt>
   <trkpt lat="51.1737800" lon="5.7332940">
    <ele>33.2</ele>
    <time>2019-09-08T09:22:58Z</time>
   </trkpt>
   <trkpt lat="51.1737260" lon="5.7333780">
    <ele>33.2</ele>
    <time>2019-09-08T09:22:59Z</time>
   </trkpt>
   <trkpt lat="51.1736660" lon="5.7334550">
    <ele>33.2</ele>
    <time>2019-09-08T09:23:00Z</time>
   </trkpt>
   <trkpt lat="51.1736130" lon="5.7335340">
    <ele>33.2</ele>
    <time>2019-09-08T09:23:01Z</time>
   </trkpt>
   <trkpt lat="51.1735550" lon="5.7336170">
    <ele>33.2</ele>
    <time>2019-09-08T09:23:02Z</time>
   </trkpt>
   <trkpt lat="51.1735080" lon="5.7337050">
    <ele>33.2</ele>
    <time>2019-09-08T09:23:03Z</time>
   </trkpt>
   <trkpt lat="51.1734560" lon="5.7337930">
    <ele>33.2</ele>
    <time>2019-09-08T09:23:04Z</time>
   </trkpt>
   <trkpt lat="51.1734030" lon="5.7338870">
    <ele>33.2</ele>
    <time>2019-09-08T09:23:05Z</time>
   </trkpt>
   <trkpt lat="51.1733460" lon="5.7339740">
    <ele>33.2</ele>
    <time>2019-09-08T09:23:06Z</time>
   </trkpt>
   <trkpt lat="51.1732890" lon="5.7340540">
    <ele>33.2</ele>
    <time>2019-09-08T09:23:07Z</time>
   </trkpt>
   <trkpt lat="51.1732410" lon="5.7341350">
    <ele>33.2</ele>
    <time>2019-09-08T09:23:08Z</time>
   </trkpt>
   <trkpt lat="51.1731930" lon="5.7342160">
    <ele>33.1</ele>
    <time>2019-09-08T09:23:09Z</time>
   </trkpt>
   <trkpt lat="51.1731380" lon="5.7342940">
    <ele>33.1</ele>
    <time>2019-09-08T09:23:10Z</time>
   </trkpt>
   <trkpt lat="51.1730900" lon="5.7343860">
    <ele>33.0</ele>
    <time>2019-09-08T09:23:11Z</time>
   </trkpt>
   <trkpt lat="51.1730380" lon="5.7344750">
    <ele>32.9</ele>
    <time>2019-09-08T09:23:12Z</time>
   </trkpt>
   <trkpt lat="51.1729820" lon="5.7345630">
    <ele>32.8</ele>
    <time>2019-09-08T09:23:13Z</time>
   </trkpt>
   <trkpt lat="51.1729320" lon="5.7346510">
    <ele>32.6</ele>
    <time>2019-09-08T09:23:14Z</time>
   </trkpt>
   <trkpt lat="51.1728760" lon="5.7347230">
    <ele>32.5</ele>
    <time>2019-09-08T09:23:15Z</time>
   </trkpt>
   <trkpt lat="51.1728170" lon="5.7348010">
    <ele>32.3</ele>
    <time>2019-09-08T09:23:16Z</time>
   </trkpt>
   <trkpt lat="51.1727600" lon="5.7348810">
    <ele>32.2</ele>
    <time>2019-09-08T09:23:17Z</time>
   </trkpt>
   <trkpt lat="51.1727090" lon="5.7349590">
    <ele>32.0</ele>
    <time>2019-09-08T09:23:18Z</time>
   </trkpt>
   <trkpt lat="51.1726560" lon="5.7350350">
    <ele>31.8</ele>
    <time>2019-09-08T09:23:19Z</time>
   </trkpt>
   <trkpt lat="51.1726020" lon="5.7351090">
    <ele>31.9</ele>
    <time>2019-09-08T09:23:20Z</time>
   </trkpt>
   <trkpt lat="51.1725540" lon="5.7351790">
    <ele>32.0</ele>
    <time>2019-09-08T09:23:21Z</time>
   </trkpt>
   <trkpt lat="51.1725050" lon="5.7352650">
    <ele>32.1</ele>
    <time>2019-09-08T09:23:22Z</time>
   </trkpt>
   <trkpt lat="51.1724680" lon="5.7353480">
    <ele>32.2</ele>
    <time>2019-09-08T09:23:23Z</time>
   </trkpt>
   <trkpt lat="51.1724230" lon="5.7354290">
    <ele>32.3</ele>
    <time>2019-09-08T09:23:24Z</time>
   </trkpt>
   <trkpt lat="51.1723740" lon="5.7355120">
    <ele>32.5</ele>
    <time>2019-09-08T09:23:25Z</time>
   </trkpt>
   <trkpt lat="51.1723200" lon="5.7355810">
    <ele>32.6</ele>
    <time>2019-09-08T09:23:26Z</time>
   </trkpt>
   <trkpt lat="51.1722560" lon="5.7356610">
    <ele>32.7</ele>
    <time>2019-09-08T09:23:27Z</time>
   </trkpt>
   <trkpt lat="51.1721940" lon="5.7357290">
    <ele>32.8</ele>
    <time>2019-09-08T09:23:28Z</time>
   </trkpt>
   <trkpt lat="51.1721340" lon="5.7357990">
    <ele>32.9</ele>
    <time>2019-09-08T09:23:29Z</time>
   </trkpt>
   <trkpt lat="51.1720700" lon="5.7358600">
    <ele>33.0</ele>
    <time>2019-09-08T09:23:30Z</time>
   </trkpt>
   <trkpt lat="51.1720060" lon="5.7359190">
    <ele>33.1</ele>
    <time>2019-09-08T09:23:31Z</time>
   </trkpt>
   <trkpt lat="51.1719380" lon="5.7359770">
    <ele>33.2</ele>
    <time>2019-09-08T09:23:32Z</time>
   </trkpt>
   <trkpt lat="51.1718750" lon="5.7360360">
    <ele>33.2</ele>
    <time>2019-09-08T09:23:33Z</time>
   </trkpt>
   <trkpt lat="51.1718060" lon="5.7360950">
    <ele>33.3</ele>
    <time>2019-09-08T09:23:34Z</time>
   </trkpt>
   <trkpt lat="51.1717360" lon="5.7361540">
    <ele>33.4</ele>
    <time>2019-09-08T09:23:35Z</time>
   </trkpt>
   <trkpt lat="51.1716650" lon="5.7362030">
    <ele>33.4</ele>
    <time>2019-09-08T09:23:36Z</time>
   </trkpt>
   <trkpt lat="51.1715960" lon="5.7362500">
    <ele>33.4</ele>
    <time>2019-09-08T09:23:37Z</time>
   </trkpt>
   <trkpt lat="51.1715250" lon="5.7362960">
    <ele>33.5</ele>
    <time>2019-09-08T09:23:38Z</time>
   </trkpt>
   <trkpt lat="51.1714460" lon="5.7363340">
    <ele>33.5</ele>
    <time>2019-09-08T09:23:39Z</time>
   </trkpt>
   <trkpt lat="51.1713770" lon="5.7363730">
    <ele>33.6</ele>
    <time>2019-09-08T09:23:40Z</time>
   </trkpt>
   <trkpt lat="51.1713040" lon="5.7364100">
    <ele>33.6</ele>
    <time>2019-09-08T09:23:41Z</time>
   </trkpt>
   <trkpt lat="51.1712300" lon="5.7364460">
    <ele>33.6</ele>
    <time>2019-09-08T09:23:42Z</time>
   </trkpt>
   <trkpt lat="51.1711600" lon="5.7364860">
    <ele>33.6</ele>
    <time>2019-09-08T09:23:43Z</time>
   </trkpt>
   <trkpt lat="51.1710870" lon="5.7365230">
    <ele>33.6</ele>
    <time>2019-09-08T09:23:44Z</time>
   </trkpt>
   <trkpt lat="51.1710150" lon="5.7365640">
    <ele>33.6</ele>
    <time>2019-09-08T09:23:45Z</time>
   </trkpt>
   <trkpt lat="51.1709470" lon="5.7365960">
    <ele>33.6</ele>
    <time>2019-09-08T09:23:46Z</time>
   </trkpt>
   <trkpt lat="51.1708700" lon="5.7366400">
    <ele>33.6</ele>
    <time>2019-09-08T09:23:47Z</time>
   </trkpt>
   <trkpt lat="51.1707950" lon="5.7366780">
    <ele>33.5</ele>
    <time>2019-09-08T09:23:48Z</time>
   </trkpt>
   <trkpt lat="51.1707210" lon="5.7367200">
    <ele>33.5</ele>
    <time>2019-09-08T09:23:49Z</time>
   </trkpt>
   <trkpt lat="51.1706540" lon="5.7367590">
    <ele>33.4</ele>
    <time>2019-09-08T09:23:50Z</time>
   </trkpt>
   <trkpt lat="51.1705820" lon="5.7368040">
    <ele>33.4</ele>
    <time>2019-09-08T09:23:51Z</time>
   </trkpt>
   <trkpt lat="51.1705140" lon="5.7368440">
    <ele>33.3</ele>
    <time>2019-09-08T09:23:52Z</time>
   </trkpt>
   <trkpt lat="51.1704470" lon="5.7368850">
    <ele>33.2</ele>
    <time>2019-09-08T09:23:53Z</time>
   </trkpt>
   <trkpt lat="51.1703800" lon="5.7369250">
    <ele>33.2</ele>
    <time>2019-09-08T09:23:54Z</time>
   </trkpt>
   <trkpt lat="51.1703130" lon="5.7369620">
    <ele>33.2</ele>
    <time>2019-09-08T09:23:55Z</time>
   </trkpt>
   <trkpt lat="51.1702450" lon="5.7370010">
    <ele>33.1</ele>
    <time>2019-09-08T09:23:56Z</time>
   </trkpt>
   <trkpt lat="51.1701750" lon="5.7370390">
    <ele>33.1</ele>
    <time>2019-09-08T09:23:57Z</time>
   </trkpt>
   <trkpt lat="51.1701050" lon="5.7370770">
    <ele>33.1</ele>
    <time>2019-09-08T09:23:58Z</time>
   </trkpt>
   <trkpt lat="51.1700460" lon="5.7371110">
    <ele>33.0</ele>
    <time>2019-09-08T09:23:59Z</time>
   </trkpt>
   <trkpt lat="51.1699890" lon="5.7371450">
    <ele>32.9</ele>
    <time>2019-09-08T09:24:00Z</time>
   </trkpt>
   <trkpt lat="51.1699310" lon="5.7371810">
    <ele>32.8</ele>
    <time>2019-09-08T09:24:01Z</time>
   </trkpt>
   <trkpt lat="51.1698580" lon="5.7372130">
    <ele>32.6</ele>
    <time>2019-09-08T09:24:02Z</time>
   </trkpt>
   <trkpt lat="51.1697880" lon="5.7372510">
    <ele>32.5</ele>
    <time>2019-09-08T09:24:03Z</time>
   </trkpt>
   <trkpt lat="51.1697170" lon="5.7372900">
    <ele>32.5</ele>
    <time>2019-09-08T09:24:04Z</time>
   </trkpt>
   <trkpt lat="51.1696410" lon="5.7373310">
    <ele>32.6</ele>
    <time>2019-09-08T09:24:05Z</time>
   </trkpt>
   <trkpt lat="51.1695620" lon="5.7373700">
    <ele>32.6</ele>
    <time>2019-09-08T09:24:06Z</time>
   </trkpt>
   <trkpt lat="51.1694890" lon="5.7374080">
    <ele>32.6</ele>
    <time>2019-09-08T09:24:07Z</time>
   </trkpt>
   <trkpt lat="51.1694130" lon="5.7374520">
    <ele>32.6</ele>
    <time>2019-09-08T09:24:08Z</time>
   </trkpt>
   <trkpt lat="51.1693410" lon="5.7374910">
    <ele>32.6</ele>
    <time>2019-09-08T09:24:09Z</time>
   </trkpt>
   <trkpt lat="51.1692660" lon="5.7375110">
    <ele>32.6</ele>
    <time>2019-09-08T09:24:10Z</time>
   </trkpt>
   <trkpt lat="51.1691990" lon="5.7375560">
    <ele>32.6</ele>
    <time>2019-09-08T09:24:11Z</time>
   </trkpt>
   <trkpt lat="51.1691280" lon="5.7375940">
    <ele>32.6</ele>
    <time>2019-09-08T09:24:12Z</time>
   </trkpt>
   <trkpt lat="51.1690590" lon="5.7376310">
    <ele>32.7</ele>
    <time>2019-09-08T09:24:13Z</time>
   </trkpt>
   <trkpt lat="51.1689880" lon="5.7376680">
    <ele>32.7</ele>
    <time>2019-09-08T09:24:14Z</time>
   </trkpt>
   <trkpt lat="51.1689140" lon="5.7377150">
    <ele>32.7</ele>
    <time>2019-09-08T09:24:15Z</time>
   </trkpt>
   <trkpt lat="51.1688370" lon="5.7377570">
    <ele>32.7</ele>
    <time>2019-09-08T09:24:16Z</time>
   </trkpt>
   <trkpt lat="51.1687640" lon="5.7377970">
    <ele>32.7</ele>
    <time>2019-09-08T09:24:17Z</time>
   </trkpt>
   <trkpt lat="51.1686940" lon="5.7378340">
    <ele>32.7</ele>
    <time>2019-09-08T09:24:18Z</time>
   </trkpt>
   <trkpt lat="51.1686240" lon="5.7378860">
    <ele>32.7</ele>
    <time>2019-09-08T09:24:19Z</time>
   </trkpt>
   <trkpt lat="51.1685540" lon="5.7379300">
    <ele>32.7</ele>
    <time>2019-09-08T09:24:20Z</time>
   </trkpt>
   <trkpt lat="51.1684810" lon="5.7379680">
    <ele>32.8</ele>
    <time>2019-09-08T09:24:21Z</time>
   </trkpt>
   <trkpt lat="51.1684250" lon="5.7380220">
    <ele>32.8</ele>
    <time>2019-09-08T09:24:22Z</time>
   </trkpt>
   <trkpt lat="51.1683560" lon="5.7380620">
    <ele>32.8</ele>
    <time>2019-09-08T09:24:23Z</time>
   </trkpt>
   <trkpt lat="51.1682870" lon="5.7381000">
    <ele>32.7</ele>
    <time>2019-09-08T09:24:24Z</time>
   </trkpt>
   <trkpt lat="51.1682190" lon="5.7381460">
    <ele>32.6</ele>
    <time>2019-09-08T09:24:25Z</time>
   </trkpt>
   <trkpt lat="51.1681430" lon="5.7381890">
    <ele>32.5</ele>
    <time>2019-09-08T09:24:26Z</time>
   </trkpt>
   <trkpt lat="51.1680710" lon="5.7382330">
    <ele>32.4</ele>
    <time>2019-09-08T09:24:27Z</time>
   </trkpt>
   <trkpt lat="51.1680010" lon="5.7382700">
    <ele>32.4</ele>
    <time>2019-09-08T09:24:28Z</time>
   </trkpt>
   <trkpt lat="51.1679310" lon="5.7383150">
    <ele>32.4</ele>
    <time>2019-09-08T09:24:29Z</time>
   </trkpt>
   <trkpt lat="51.1678620" lon="5.7383580">
    <ele>32.3</ele>
    <time>2019-09-08T09:24:30Z</time>
   </trkpt>
   <trkpt lat="51.1677920" lon="5.7383930">
    <ele>32.3</ele>
    <time>2019-09-08T09:24:31Z</time>
   </trkpt>
   <trkpt lat="51.1677230" lon="5.7384350">
    <ele>32.2</ele>
    <time>2019-09-08T09:24:32Z</time>
   </trkpt>
   <trkpt lat="51.1676520" lon="5.7384760">
    <ele>32.0</ele>
    <time>2019-09-08T09:24:33Z</time>
   </trkpt>
   <trkpt lat="51.1675830" lon="5.7385190">
    <ele>31.8</ele>
    <time>2019-09-08T09:24:34Z</time>
   </trkpt>
   <trkpt lat="51.1675130" lon="5.7385600">
    <ele>31.6</ele>
    <time>2019-09-08T09:24:35Z</time>
   </trkpt>
   <trkpt lat="51.1674450" lon="5.7386000">
    <ele>31.5</ele>
    <time>2019-09-08T09:24:36Z</time>
   </trkpt>
   <trkpt lat="51.1673730" lon="5.7386410">
    <ele>31.3</ele>
    <time>2019-09-08T09:24:37Z</time>
   </trkpt>
   <trkpt lat="51.1673010" lon="5.7386820">
    <ele>31.2</ele>
    <time>2019-09-08T09:24:38Z</time>
   </trkpt>
   <trkpt lat="51.1672350" lon="5.7387210">
    <ele>31.2</ele>
    <time>2019-09-08T09:24:39Z</time>
   </trkpt>
   <trkpt lat="51.1671630" lon="5.7387580">
    <ele>31.1</ele>
    <time>2019-09-08T09:24:40Z</time>
   </trkpt>
   <trkpt lat="51.1670900" lon="5.7387950">
    <ele>31.0</ele>
    <time>2019-09-08T09:24:41Z</time>
   </trkpt>
   <trkpt lat="51.1670160" lon="5.7388400">
    <ele>30.9</ele>
    <time>2019-09-08T09:24:42Z</time>
   </trkpt>
   <trkpt lat="51.1669420" lon="5.7388810">
    <ele>30.8</ele>
    <time>2019-09-08T09:24:43Z</time>
   </trkpt>
   <trkpt lat="51.1668730" lon="5.7389300">
    <ele>30.7</ele>
    <time>2019-09-08T09:24:44Z</time>
   </trkpt>
   <trkpt lat="51.1667980" lon="5.7389700">
    <ele>30.6</ele>
    <time>2019-09-08T09:24:45Z</time>
   </trkpt>
   <trkpt lat="51.1667330" lon="5.7390110">
    <ele>30.6</ele>
    <time>2019-09-08T09:24:46Z</time>
   </trkpt>
   <trkpt lat="51.1666650" lon="5.7390570">
    <ele>30.5</ele>
    <time>2019-09-08T09:24:47Z</time>
   </trkpt>
   <trkpt lat="51.1665920" lon="5.7391010">
    <ele>30.5</ele>
    <time>2019-09-08T09:24:48Z</time>
   </trkpt>
   <trkpt lat="51.1665180" lon="5.7391430">
    <ele>30.4</ele>
    <time>2019-09-08T09:24:49Z</time>
   </trkpt>
   <trkpt lat="51.1664480" lon="5.7391860">
    <ele>30.4</ele>
    <time>2019-09-08T09:24:50Z</time>
   </trkpt>
   <trkpt lat="51.1663770" lon="5.7392360">
    <ele>30.4</ele>
    <time>2019-09-08T09:24:51Z</time>
   </trkpt>
   <trkpt lat="51.1663150" lon="5.7392760">
    <ele>30.4</ele>
    <time>2019-09-08T09:24:52Z</time>
   </trkpt>
   <trkpt lat="51.1662430" lon="5.7393190">
    <ele>30.4</ele>
    <time>2019-09-08T09:24:53Z</time>
   </trkpt>
   <trkpt lat="51.1661770" lon="5.7393570">
    <ele>30.4</ele>
    <time>2019-09-08T09:24:54Z</time>
   </trkpt>
   <trkpt lat="51.1661060" lon="5.7393900">
    <ele>30.4</ele>
    <time>2019-09-08T09:24:55Z</time>
   </trkpt>
   <trkpt lat="51.1660350" lon="5.7394260">
    <ele>30.4</ele>
    <time>2019-09-08T09:24:56Z</time>
   </trkpt>
   <trkpt lat="51.1659620" lon="5.7394600">
    <ele>30.4</ele>
    <time>2019-09-08T09:24:57Z</time>
   </trkpt>
   <trkpt lat="51.1658930" lon="5.7395040">
    <ele>30.4</ele>
    <time>2019-09-08T09:24:58Z</time>
   </trkpt>
   <trkpt lat="51.1658180" lon="5.7395410">
    <ele>30.3</ele>
    <time>2019-09-08T09:24:59Z</time>
   </trkpt>
   <trkpt lat="51.1657490" lon="5.7395810">
    <ele>30.3</ele>
    <time>2019-09-08T09:25:00Z</time>
   </trkpt>
   <trkpt lat="51.1656780" lon="5.7396220">
    <ele>30.3</ele>
    <time>2019-09-08T09:25:01Z</time>
   </trkpt>
   <trkpt lat="51.1656140" lon="5.7396550">
    <ele>30.3</ele>
    <time>2019-09-08T09:25:02Z</time>
   </trkpt>
   <trkpt lat="51.1655420" lon="5.7396980">
    <ele>30.3</ele>
    <time>2019-09-08T09:25:03Z</time>
   </trkpt>
   <trkpt lat="51.1654770" lon="5.7397370">
    <ele>30.4</ele>
    <time>2019-09-08T09:25:04Z</time>
   </trkpt>
   <trkpt lat="51.1654090" lon="5.7397770">
    <ele>30.4</ele>
    <time>2019-09-08T09:25:05Z</time>
   </trkpt>
   <trkpt lat="51.1653420" lon="5.7398170">
    <ele>30.5</ele>
    <time>2019-09-08T09:25:06Z</time>
   </trkpt>
   <trkpt lat="51.1652800" lon="5.7398610">
    <ele>30.6</ele>
    <time>2019-09-08T09:25:07Z</time>
   </trkpt>
   <trkpt lat="51.1652060" lon="5.7399030">
    <ele>30.7</ele>
    <time>2019-09-08T09:25:08Z</time>
   </trkpt>
   <trkpt lat="51.1651300" lon="5.7399410">
    <ele>30.9</ele>
    <time>2019-09-08T09:25:09Z</time>
   </trkpt>
   <trkpt lat="51.1650600" lon="5.7399820">
    <ele>31.0</ele>
    <time>2019-09-08T09:25:10Z</time>
   </trkpt>
   <trkpt lat="51.1649860" lon="5.7400190">
    <ele>31.1</ele>
    <time>2019-09-08T09:25:11Z</time>
   </trkpt>
   <trkpt lat="51.1649130" lon="5.7400650">
    <ele>31.2</ele>
    <time>2019-09-08T09:25:12Z</time>
   </trkpt>
   <trkpt lat="51.1648360" lon="5.7401070">
    <ele>31.3</ele>
    <time>2019-09-08T09:25:13Z</time>
   </trkpt>
   <trkpt lat="51.1647630" lon="5.7401460">
    <ele>31.4</ele>
    <time>2019-09-08T09:25:14Z</time>
   </trkpt>
   <trkpt lat="51.1646890" lon="5.7401860">
    <ele>31.4</ele>
    <time>2019-09-08T09:25:15Z</time>
   </trkpt>
   <trkpt lat="51.1646180" lon="5.7402290">
    <ele>31.5</ele>
    <time>2019-09-08T09:25:16Z</time>
   </trkpt>
   <trkpt lat="51.1645480" lon="5.7402670">
    <ele>31.5</ele>
    <time>2019-09-08T09:25:17Z</time>
   </trkpt>
   <trkpt lat="51.1644630" lon="5.7403070">
    <ele>31.5</ele>
    <time>2019-09-08T09:25:18Z</time>
   </trkpt>
   <trkpt lat="51.1643910" lon="5.7403490">
    <ele>31.5</ele>
    <time>2019-09-08T09:25:19Z</time>
   </trkpt>
   <trkpt lat="51.1643180" lon="5.7403870">
    <ele>31.5</ele>
    <time>2019-09-08T09:25:20Z</time>
   </trkpt>
   <trkpt lat="51.1642440" lon="5.7404260">
    <ele>31.4</ele>
    <time>2019-09-08T09:25:21Z</time>
   </trkpt>
   <trkpt lat="51.1641700" lon="5.7404690">
    <ele>31.4</ele>
    <time>2019-09-08T09:25:22Z</time>
   </trkpt>
   <trkpt lat="51.1640970" lon="5.7405110">
    <ele>31.4</ele>
    <time>2019-09-08T09:25:23Z</time>
   </trkpt>
   <trkpt lat="51.1640300" lon="5.7405450">
    <ele>31.4</ele>
    <time>2019-09-08T09:25:24Z</time>
   </trkpt>
   <trkpt lat="51.1639620" lon="5.7405890">
    <ele>31.3</ele>
    <time>2019-09-08T09:25:25Z</time>
   </trkpt>
   <trkpt lat="51.1638910" lon="5.7406400">
    <ele>31.3</ele>
    <time>2019-09-08T09:25:26Z</time>
   </trkpt>
   <trkpt lat="51.1638240" lon="5.7406630">
    <ele>31.3</ele>
    <time>2019-09-08T09:25:27Z</time>
   </trkpt>
   <trkpt lat="51.1637460" lon="5.7407040">
    <ele>31.3</ele>
    <time>2019-09-08T09:25:28Z</time>
   </trkpt>
   <trkpt lat="51.1636660" lon="5.7407470">
    <ele>31.2</ele>
    <time>2019-09-08T09:25:29Z</time>
   </trkpt>
   <trkpt lat="51.1635930" lon="5.7407880">
    <ele>31.2</ele>
    <time>2019-09-08T09:25:30Z</time>
   </trkpt>
   <trkpt lat="51.1635230" lon="5.7408370">
    <ele>31.1</ele>
    <time>2019-09-08T09:25:31Z</time>
   </trkpt>
   <trkpt lat="51.1634430" lon="5.7408750">
    <ele>31.1</ele>
    <time>2019-09-08T09:25:32Z</time>
   </trkpt>
   <trkpt lat="51.1633660" lon="5.7409130">
    <ele>31.0</ele>
    <time>2019-09-08T09:25:33Z</time>
   </trkpt>
   <trkpt lat="51.1632950" lon="5.7409570">
    <ele>31.0</ele>
    <time>2019-09-08T09:25:34Z</time>
   </trkpt>
   <trkpt lat="51.1632230" lon="5.7410030">
    <ele>31.0</ele>
    <time>2019-09-08T09:25:35Z</time>
   </trkpt>
   <trkpt lat="51.1631520" lon="5.7410390">
    <ele>30.9</ele>
    <time>2019-09-08T09:25:36Z</time>
   </trkpt>
   <trkpt lat="51.1630820" lon="5.7410840">
    <ele>30.9</ele>
    <time>2019-09-08T09:25:37Z</time>
   </trkpt>
   <trkpt lat="51.1630160" lon="5.7411200">
    <ele>30.8</ele>
    <time>2019-09-08T09:25:38Z</time>
   </trkpt>
   <trkpt lat="51.1629440" lon="5.7411630">
    <ele>30.8</ele>
    <time>2019-09-08T09:25:39Z</time>
   </trkpt>
   <trkpt lat="51.1628790" lon="5.7412030">
    <ele>30.7</ele>
    <time>2019-09-08T09:25:40Z</time>
   </trkpt>
   <trkpt lat="51.1628130" lon="5.7412480">
    <ele>30.6</ele>
    <time>2019-09-08T09:25:41Z</time>
   </trkpt>
   <trkpt lat="51.1627430" lon="5.7412840">
    <ele>30.6</ele>
    <time>2019-09-08T09:25:42Z</time>
   </trkpt>
   <trkpt lat="51.1626760" lon="5.7413250">
    <ele>30.6</ele>
    <time>2019-09-08T09:25:43Z</time>
   </trkpt>
   <trkpt lat="51.1625990" lon="5.7413620">
    <ele>30.5</ele>
    <time>2019-09-08T09:25:44Z</time>
   </trkpt>
   <trkpt lat="51.1625290" lon="5.7414090">
    <ele>30.5</ele>
    <time>2019-09-08T09:25:45Z</time>
   </trkpt>
   <trkpt lat="51.1624540" lon="5.7414400">
    <ele>30.6</ele>
    <time>2019-09-08T09:25:46Z</time>
   </trkpt>
   <trkpt lat="51.1623850" lon="5.7414820">
    <ele>30.6</ele>
    <time>2019-09-08T09:25:47Z</time>
   </trkpt>
   <trkpt lat="51.1623100" lon="5.7415300">
    <ele>30.6</ele>
    <time>2019-09-08T09:25:48Z</time>
   </trkpt>
   <trkpt lat="51.1622450" lon="5.7415670">
    <ele>30.7</ele>
    <time>2019-09-08T09:25:49Z</time>
   </trkpt>
   <trkpt lat="51.1621720" lon="5.7416090">
    <ele>30.7</ele>
    <time>2019-09-08T09:25:50Z</time>
   </trkpt>
   <trkpt lat="51.1620930" lon="5.7416490">
    <ele>30.7</ele>
    <time>2019-09-08T09:25:51Z</time>
   </trkpt>
   <trkpt lat="51.1620260" lon="5.7416860">
    <ele>30.7</ele>
    <time>2019-09-08T09:25:52Z</time>
   </trkpt>
   <trkpt lat="51.1619610" lon="5.7417310">
    <ele>30.7</ele>
    <time>2019-09-08T09:25:53Z</time>
   </trkpt>
   <trkpt lat="51.1618960" lon="5.7417680">
    <ele>30.7</ele>
    <time>2019-09-08T09:25:54Z</time>
   </trkpt>
   <trkpt lat="51.1618240" lon="5.7418000">
    <ele>30.8</ele>
    <time>2019-09-08T09:25:55Z</time>
   </trkpt>
   <trkpt lat="51.1617520" lon="5.7418470">
    <ele>30.8</ele>
    <time>2019-09-08T09:25:56Z</time>
   </trkpt>
   <trkpt lat="51.1616740" lon="5.7418840">
    <ele>30.8</ele>
    <time>2019-09-08T09:25:57Z</time>
   </trkpt>
   <trkpt lat="51.1616010" lon="5.7419200">
    <ele>30.8</ele>
    <time>2019-09-08T09:25:58Z</time>
   </trkpt>
   <trkpt lat="51.1615320" lon="5.7419490">
    <ele>30.9</ele>
    <time>2019-09-08T09:25:59Z</time>
   </trkpt>
   <trkpt lat="51.1614580" lon="5.7419760">
    <ele>30.9</ele>
    <time>2019-09-08T09:26:00Z</time>
   </trkpt>
   <trkpt lat="51.1613800" lon="5.7419990">
    <ele>30.9</ele>
    <time>2019-09-08T09:26:01Z</time>
   </trkpt>
   <trkpt lat="51.1613050" lon="5.7420160">
    <ele>30.9</ele>
    <time>2019-09-08T09:26:02Z</time>
   </trkpt>
   <trkpt lat="51.1612240" lon="5.7420370">
    <ele>30.9</ele>
    <time>2019-09-08T09:26:03Z</time>
   </trkpt>
   <trkpt lat="51.1611460" lon="5.7420430">
    <ele>30.9</ele>
    <time>2019-09-08T09:26:04Z</time>
   </trkpt>
   <trkpt lat="51.1610710" lon="5.7420560">
    <ele>30.9</ele>
    <time>2019-09-08T09:26:05Z</time>
   </trkpt>
   <trkpt lat="51.1609850" lon="5.7420690">
    <ele>30.9</ele>
    <time>2019-09-08T09:26:06Z</time>
   </trkpt>
   <trkpt lat="51.1609070" lon="5.7420680">
    <ele>30.9</ele>
    <time>2019-09-08T09:26:07Z</time>
   </trkpt>
   <trkpt lat="51.1608360" lon="5.7420670">
    <ele>30.9</ele>
    <time>2019-09-08T09:26:08Z</time>
   </trkpt>
   <trkpt lat="51.1607630" lon="5.7420680">
    <ele>30.9</ele>
    <time>2019-09-08T09:26:09Z</time>
   </trkpt>
   <trkpt lat="51.1606840" lon="5.7420570">
    <ele>30.9</ele>
    <time>2019-09-08T09:26:10Z</time>
   </trkpt>
   <trkpt lat="51.1606110" lon="5.7420490">
    <ele>30.9</ele>
    <time>2019-09-08T09:26:11Z</time>
   </trkpt>
   <trkpt lat="51.1605390" lon="5.7420500">
    <ele>30.9</ele>
    <time>2019-09-08T09:26:12Z</time>
   </trkpt>
   <trkpt lat="51.1604610" lon="5.7420450">
    <ele>30.9</ele>
    <time>2019-09-08T09:26:13Z</time>
   </trkpt>
   <trkpt lat="51.1603800" lon="5.7420380">
    <ele>30.9</ele>
    <time>2019-09-08T09:26:14Z</time>
   </trkpt>
   <trkpt lat="51.1602940" lon="5.7420390">
    <ele>30.9</ele>
    <time>2019-09-08T09:26:15Z</time>
   </trkpt>
   <trkpt lat="51.1602070" lon="5.7420370">
    <ele>30.9</ele>
    <time>2019-09-08T09:26:16Z</time>
   </trkpt>
   <trkpt lat="51.1601350" lon="5.7420360">
    <ele>30.9</ele>
    <time>2019-09-08T09:26:17Z</time>
   </trkpt>
   <trkpt lat="51.1600630" lon="5.7420310">
    <ele>30.8</ele>
    <time>2019-09-08T09:26:18Z</time>
   </trkpt>
   <trkpt lat="51.1599870" lon="5.7420250">
    <ele>30.8</ele>
    <time>2019-09-08T09:26:19Z</time>
   </trkpt>
   <trkpt lat="51.1599110" lon="5.7420300">
    <ele>30.7</ele>
    <time>2019-09-08T09:26:20Z</time>
   </trkpt>
   <trkpt lat="51.1598280" lon="5.7420240">
    <ele>30.6</ele>
    <time>2019-09-08T09:26:21Z</time>
   </trkpt>
   <trkpt lat="51.1597470" lon="5.7420230">
    <ele>30.5</ele>
    <time>2019-09-08T09:26:22Z</time>
   </trkpt>
   <trkpt lat="51.1596710" lon="5.7420220">
    <ele>30.4</ele>
    <time>2019-09-08T09:26:23Z</time>
   </trkpt>
   <trkpt lat="51.1595930" lon="5.7420240">
    <ele>30.4</ele>
    <time>2019-09-08T09:26:24Z</time>
   </trkpt>
   <trkpt lat="51.1595180" lon="5.7420210">
    <ele>30.3</ele>
    <time>2019-09-08T09:26:25Z</time>
   </trkpt>
   <trkpt lat="51.1594450" lon="5.7420140">
    <ele>30.3</ele>
    <time>2019-09-08T09:26:26Z</time>
   </trkpt>
   <trkpt lat="51.1593680" lon="5.7420120">
    <ele>30.2</ele>
    <time>2019-09-08T09:26:27Z</time>
   </trkpt>
   <trkpt lat="51.1592950" lon="5.7420150">
    <ele>30.1</ele>
    <time>2019-09-08T09:26:28Z</time>
   </trkpt>
   <trkpt lat="51.1592190" lon="5.7420180">
    <ele>30.1</ele>
    <time>2019-09-08T09:26:29Z</time>
   </trkpt>
   <trkpt lat="51.1591490" lon="5.7420200">
    <ele>30.0</ele>
    <time>2019-09-08T09:26:30Z</time>
   </trkpt>
   <trkpt lat="51.1590770" lon="5.7420120">
    <ele>30.0</ele>
    <time>2019-09-08T09:26:31Z</time>
   </trkpt>
   <trkpt lat="51.1590030" lon="5.7420130">
    <ele>29.9</ele>
    <time>2019-09-08T09:26:32Z</time>
   </trkpt>
   <trkpt lat="51.1589330" lon="5.7420150">
    <ele>29.9</ele>
    <time>2019-09-08T09:26:33Z</time>
   </trkpt>
   <trkpt lat="51.1588520" lon="5.7420100">
    <ele>29.8</ele>
    <time>2019-09-08T09:26:34Z</time>
   </trkpt>
   <trkpt lat="51.1587790" lon="5.7420060">
    <ele>29.8</ele>
    <time>2019-09-08T09:26:35Z</time>
   </trkpt>
   <trkpt lat="51.1587040" lon="5.7420030">
    <ele>29.7</ele>
    <time>2019-09-08T09:26:36Z</time>
   </trkpt>
   <trkpt lat="51.1586310" lon="5.7419970">
    <ele>29.7</ele>
    <time>2019-09-08T09:26:37Z</time>
   </trkpt>
   <trkpt lat="51.1585600" lon="5.7419940">
    <ele>29.7</ele>
    <time>2019-09-08T09:26:38Z</time>
   </trkpt>
   <trkpt lat="51.1584840" lon="5.7419960">
    <ele>29.7</ele>
    <time>2019-09-08T09:26:39Z</time>
   </trkpt>
   <trkpt lat="51.1584120" lon="5.7419930">
    <ele>29.8</ele>
    <time>2019-09-08T09:26:40Z</time>
   </trkpt>
   <trkpt lat="51.1583370" lon="5.7419930">
    <ele>29.8</ele>
    <time>2019-09-08T09:26:41Z</time>
   </trkpt>
   <trkpt lat="51.1582620" lon="5.7419940">
    <ele>29.9</ele>
    <time>2019-09-08T09:26:42Z</time>
   </trkpt>
   <trkpt lat="51.1581860" lon="5.7420010">
    <ele>29.9</ele>
    <time>2019-09-08T09:26:43Z</time>
   </trkpt>
   <trkpt lat="51.1581120" lon="5.7420000">
    <ele>30.0</ele>
    <time>2019-09-08T09:26:44Z</time>
   </trkpt>
   <trkpt lat="51.1580380" lon="5.7419940">
    <ele>30.0</ele>
    <time>2019-09-08T09:26:45Z</time>
   </trkpt>
   <trkpt lat="51.1579600" lon="5.7419910">
    <ele>30.0</ele>
    <time>2019-09-08T09:26:46Z</time>
   </trkpt>
   <trkpt lat="51.1578800" lon="5.7419990">
    <ele>30.0</ele>
    <time>2019-09-08T09:26:47Z</time>
   </trkpt>
   <trkpt lat="51.1578050" lon="5.7420040">
    <ele>30.0</ele>
    <time>2019-09-08T09:26:48Z</time>
   </trkpt>
   <trkpt lat="51.1577350" lon="5.7419950">
    <ele>29.9</ele>
    <time>2019-09-08T09:26:49Z</time>
   </trkpt>
   <trkpt lat="51.1576560" lon="5.7419930">
    <ele>29.9</ele>
    <time>2019-09-08T09:26:50Z</time>
   </trkpt>
   <trkpt lat="51.1575800" lon="5.7419920">
    <ele>29.9</ele>
    <time>2019-09-08T09:26:51Z</time>
   </trkpt>
   <trkpt lat="51.1575130" lon="5.7419880">
    <ele>29.8</ele>
    <time>2019-09-08T09:26:52Z</time>
   </trkpt>
   <trkpt lat="51.1574360" lon="5.7419840">
    <ele>29.7</ele>
    <time>2019-09-08T09:26:53Z</time>
   </trkpt>
   <trkpt lat="51.1573670" lon="5.7419940">
    <ele>29.7</ele>
    <time>2019-09-08T09:26:54Z</time>
   </trkpt>
   <trkpt lat="51.1572890" lon="5.7419980">
    <ele>29.6</ele>
    <time>2019-09-08T09:26:55Z</time>
   </trkpt>
   <trkpt lat="51.1572080" lon="5.7419920">
    <ele>29.5</ele>
    <time>2019-09-08T09:26:56Z</time>
   </trkpt>
   <trkpt lat="51.1571320" lon="5.7419820">
    <ele>29.5</ele>
    <time>2019-09-08T09:26:57Z</time>
   </trkpt>
   <trkpt lat="51.1570550" lon="5.7419780">
    <ele>29.4</ele>
    <time>2019-09-08T09:26:58Z</time>
   </trkpt>
   <trkpt lat="51.1569820" lon="5.7419810">
    <ele>29.4</ele>
    <time>2019-09-08T09:26:59Z</time>
   </trkpt>
   <trkpt lat="51.1569100" lon="5.7419830">
    <ele>29.3</ele>
    <time>2019-09-08T09:27:00Z</time>
   </trkpt>
   <trkpt lat="51.1568360" lon="5.7419780">
    <ele>29.3</ele>
    <time>2019-09-08T09:27:01Z</time>
   </trkpt>
   <trkpt lat="51.1567570" lon="5.7419710">
    <ele>29.3</ele>
    <time>2019-09-08T09:27:02Z</time>
   </trkpt>
   <trkpt lat="51.1567100" lon="5.7419770">
    <ele>29.3</ele>
    <time>2019-09-08T09:27:03Z</time>
   </trkpt>
   <trkpt lat="51.1566360" lon="5.7419790">
    <ele>29.2</ele>
    <time>2019-09-08T09:27:04Z</time>
   </trkpt>
   <trkpt lat="51.1565680" lon="5.7419810">
    <ele>29.2</ele>
    <time>2019-09-08T09:27:05Z</time>
   </trkpt>
   <trkpt lat="51.1565000" lon="5.7419900">
    <ele>29.2</ele>
    <time>2019-09-08T09:27:06Z</time>
   </trkpt>
   <trkpt lat="51.1564270" lon="5.7419970">
    <ele>29.2</ele>
    <time>2019-09-08T09:27:07Z</time>
   </trkpt>
   <trkpt lat="51.1563580" lon="5.7419960">
    <ele>29.2</ele>
    <time>2019-09-08T09:27:08Z</time>
   </trkpt>
   <trkpt lat="51.1562810" lon="5.7419980">
    <ele>29.2</ele>
    <time>2019-09-08T09:27:09Z</time>
   </trkpt>
   <trkpt lat="51.1562100" lon="5.7419980">
    <ele>29.2</ele>
    <time>2019-09-08T09:27:10Z</time>
   </trkpt>
   <trkpt lat="51.1561390" lon="5.7419900">
    <ele>29.2</ele>
    <time>2019-09-08T09:27:11Z</time>
   </trkpt>
   <trkpt lat="51.1560650" lon="5.7419860">
    <ele>29.2</ele>
    <time>2019-09-08T09:27:12Z</time>
   </trkpt>
   <trkpt lat="51.1559900" lon="5.7419880">
    <ele>29.3</ele>
    <time>2019-09-08T09:27:13Z</time>
   </trkpt>
   <trkpt lat="51.1559160" lon="5.7419820">
    <ele>29.3</ele>
    <time>2019-09-08T09:27:14Z</time>
   </trkpt>
   <trkpt lat="51.1558500" lon="5.7419670">
    <ele>29.4</ele>
    <time>2019-09-08T09:27:15Z</time>
   </trkpt>
   <trkpt lat="51.1557710" lon="5.7419700">
    <ele>29.4</ele>
    <time>2019-09-08T09:27:16Z</time>
   </trkpt>
   <trkpt lat="51.1556970" lon="5.7419720">
    <ele>29.5</ele>
    <time>2019-09-08T09:27:17Z</time>
   </trkpt>
   <trkpt lat="51.1556270" lon="5.7419740">
    <ele>29.6</ele>
    <time>2019-09-08T09:27:18Z</time>
   </trkpt>
   <trkpt lat="51.1555550" lon="5.7419790">
    <ele>29.7</ele>
    <time>2019-09-08T09:27:19Z</time>
   </trkpt>
   <trkpt lat="51.1554850" lon="5.7419760">
    <ele>29.7</ele>
    <time>2019-09-08T09:27:20Z</time>
   </trkpt>
   <trkpt lat="51.1554130" lon="5.7419640">
    <ele>29.8</ele>
    <time>2019-09-08T09:27:21Z</time>
   </trkpt>
   <trkpt lat="51.1553380" lon="5.7419370">
    <ele>29.9</ele>
    <time>2019-09-08T09:27:22Z</time>
   </trkpt>
   <trkpt lat="51.1552630" lon="5.7419060">
    <ele>29.9</ele>
    <time>2019-09-08T09:27:23Z</time>
   </trkpt>
   <trkpt lat="51.1551940" lon="5.7418870">
    <ele>30.0</ele>
    <time>2019-09-08T09:27:24Z</time>
   </trkpt>
   <trkpt lat="51.1551200" lon="5.7418730">
    <ele>30.0</ele>
    <time>2019-09-08T09:27:25Z</time>
   </trkpt>
   <trkpt lat="51.1550550" lon="5.7418680">
    <ele>30.0</ele>
    <time>2019-09-08T09:27:26Z</time>
   </trkpt>
   <trkpt lat="51.1549900" lon="5.7418750">
    <ele>30.1</ele>
    <time>2019-09-08T09:27:27Z</time>
   </trkpt>
   <trkpt lat="51.1549210" lon="5.7418930">
    <ele>30.1</ele>
    <time>2019-09-08T09:27:28Z</time>
   </trkpt>
   <trkpt lat="51.1548540" lon="5.7419290">
    <ele>30.1</ele>
    <time>2019-09-08T09:27:29Z</time>
   </trkpt>
   <trkpt lat="51.1547820" lon="5.7419380">
    <ele>30.1</ele>
    <time>2019-09-08T09:27:30Z</time>
   </trkpt>
   <trkpt lat="51.1547090" lon="5.7419470">
    <ele>30.1</ele>
    <time>2019-09-08T09:27:31Z</time>
   </trkpt>
   <trkpt lat="51.1546300" lon="5.7419480">
    <ele>30.2</ele>
    <time>2019-09-08T09:27:32Z</time>
   </trkpt>
   <trkpt lat="51.1545470" lon="5.7419460">
    <ele>30.2</ele>
    <time>2019-09-08T09:27:33Z</time>
   </trkpt>
   <trkpt lat="51.1544670" lon="5.7419480">
    <ele>30.1</ele>
    <time>2019-09-08T09:27:34Z</time>
   </trkpt>
   <trkpt lat="51.1543870" lon="5.7419500">
    <ele>30.2</ele>
    <time>2019-09-08T09:27:35Z</time>
   </trkpt>
   <trkpt lat="51.1543120" lon="5.7419440">
    <ele>30.3</ele>
    <time>2019-09-08T09:27:36Z</time>
   </trkpt>
   <trkpt lat="51.1542310" lon="5.7419440">
    <ele>30.3</ele>
    <time>2019-09-08T09:27:37Z</time>
   </trkpt>
   <trkpt lat="51.1541530" lon="5.7419380">
    <ele>30.4</ele>
    <time>2019-09-08T09:27:38Z</time>
   </trkpt>
   <trkpt lat="51.1540790" lon="5.7419410">
    <ele>30.5</ele>
    <time>2019-09-08T09:27:39Z</time>
   </trkpt>
   <trkpt lat="51.1540000" lon="5.7419430">
    <ele>30.6</ele>
    <time>2019-09-08T09:27:40Z</time>
   </trkpt>
   <trkpt lat="51.1539220" lon="5.7419430">
    <ele>30.8</ele>
    <time>2019-09-08T09:27:41Z</time>
   </trkpt>
   <trkpt lat="51.1538480" lon="5.7419320">
    <ele>31.0</ele>
    <time>2019-09-08T09:27:42Z</time>
   </trkpt>
   <trkpt lat="51.1537770" lon="5.7419250">
    <ele>31.1</ele>
    <time>2019-09-08T09:27:43Z</time>
   </trkpt>
   <trkpt lat="51.1537000" lon="5.7419200">
    <ele>31.2</ele>
    <time>2019-09-08T09:27:44Z</time>
   </trkpt>
   <trkpt lat="51.1536300" lon="5.7419060">
    <ele>31.2</ele>
    <time>2019-09-08T09:27:45Z</time>
   </trkpt>
   <trkpt lat="51.1535590" lon="5.7419050">
    <ele>31.2</ele>
    <time>2019-09-08T09:27:46Z</time>
   </trkpt>
   <trkpt lat="51.1534900" lon="5.7419160">
    <ele>31.1</ele>
    <time>2019-09-08T09:27:47Z</time>
   </trkpt>
   <trkpt lat="51.1534180" lon="5.7419140">
    <ele>31.0</ele>
    <time>2019-09-08T09:27:48Z</time>
   </trkpt>
   <trkpt lat="51.1533540" lon="5.7419320">
    <ele>31.0</ele>
    <time>2019-09-08T09:27:49Z</time>
   </trkpt>
   <trkpt lat="51.1532820" lon="5.7419270">
    <ele>30.9</ele>
    <time>2019-09-08T09:27:50Z</time>
   </trkpt>
   <trkpt lat="51.1532080" lon="5.7419230">
    <ele>30.9</ele>
    <time>2019-09-08T09:27:51Z</time>
   </trkpt>
   <trkpt lat="51.1531390" lon="5.7419200">
    <ele>31.0</ele>
    <time>2019-09-08T09:27:52Z</time>
   </trkpt>
   <trkpt lat="51.1530620" lon="5.7419180">
    <ele>31.0</ele>
    <time>2019-09-08T09:27:53Z</time>
   </trkpt>
   <trkpt lat="51.1529820" lon="5.7419160">
    <ele>31.0</ele>
    <time>2019-09-08T09:27:54Z</time>
   </trkpt>
   <trkpt lat="51.1529030" lon="5.7419180">
    <ele>31.0</ele>
    <time>2019-09-08T09:27:55Z</time>
   </trkpt>
   <trkpt lat="51.1528020" lon="5.7419030">
    <ele>31.0</ele>
    <time>2019-09-08T09:27:56Z</time>
   </trkpt>
   <trkpt lat="51.1527160" lon="5.7419050">
    <ele>31.0</ele>
    <time>2019-09-08T09:27:57Z</time>
   </trkpt>
   <trkpt lat="51.1526400" lon="5.7419020">
    <ele>31.0</ele>
    <time>2019-09-08T09:27:58Z</time>
   </trkpt>
   <trkpt lat="51.1525640" lon="5.7419060">
    <ele>31.0</ele>
    <time>2019-09-08T09:27:59Z</time>
   </trkpt>
   <trkpt lat="51.1524940" lon="5.7419020">
    <ele>31.0</ele>
    <time>2019-09-08T09:28:00Z</time>
   </trkpt>
   <trkpt lat="51.1524140" lon="5.7419010">
    <ele>31.0</ele>
    <time>2019-09-08T09:28:01Z</time>
   </trkpt>
   <trkpt lat="51.1523400" lon="5.7418980">
    <ele>31.0</ele>
    <time>2019-09-08T09:28:02Z</time>
   </trkpt>
   <trkpt lat="51.1522540" lon="5.7418920">
    <ele>31.0</ele>
    <time>2019-09-08T09:28:03Z</time>
   </trkpt>
   <trkpt lat="51.1521780" lon="5.7418860">
    <ele>31.0</ele>
    <time>2019-09-08T09:28:04Z</time>
   </trkpt>
   <trkpt lat="51.1520800" lon="5.7418820">
    <ele>31.0</ele>
    <time>2019-09-08T09:28:05Z</time>
   </trkpt>
   <trkpt lat="51.1519980" lon="5.7418840">
    <ele>31.0</ele>
    <time>2019-09-08T09:28:06Z</time>
   </trkpt>
   <trkpt lat="51.1519320" lon="5.7418770">
    <ele>31.0</ele>
    <time>2019-09-08T09:28:07Z</time>
   </trkpt>
   <trkpt lat="51.1518580" lon="5.7418730">
    <ele>31.0</ele>
    <time>2019-09-08T09:28:08Z</time>
   </trkpt>
   <trkpt lat="51.1517840" lon="5.7418690">
    <ele>31.0</ele>
    <time>2019-09-08T09:28:09Z</time>
   </trkpt>
   <trkpt lat="51.1517130" lon="5.7418660">
    <ele>31.0</ele>
    <time>2019-09-08T09:28:10Z</time>
   </trkpt>
   <trkpt lat="51.1516420" lon="5.7418680">
    <ele>31.0</ele>
    <time>2019-09-08T09:28:11Z</time>
   </trkpt>
   <trkpt lat="51.1515580" lon="5.7418610">
    <ele>31.0</ele>
    <time>2019-09-08T09:28:12Z</time>
   </trkpt>
   <trkpt lat="51.1514800" lon="5.7418580">
    <ele>31.1</ele>
    <time>2019-09-08T09:28:13Z</time>
   </trkpt>
   <trkpt lat="51.1514070" lon="5.7418510">
    <ele>31.1</ele>
    <time>2019-09-08T09:28:14Z</time>
   </trkpt>
   <trkpt lat="51.1513250" lon="5.7418550">
    <ele>31.1</ele>
    <time>2019-09-08T09:28:15Z</time>
   </trkpt>
   <trkpt lat="51.1512500" lon="5.7418530">
    <ele>31.2</ele>
    <time>2019-09-08T09:28:16Z</time>
   </trkpt>
   <trkpt lat="51.1511630" lon="5.7418490">
    <ele>31.2</ele>
    <time>2019-09-08T09:28:17Z</time>
   </trkpt>
   <trkpt lat="51.1510710" lon="5.7418440">
    <ele>31.2</ele>
    <time>2019-09-08T09:28:18Z</time>
   </trkpt>
   <trkpt lat="51.1509860" lon="5.7418250">
    <ele>31.2</ele>
    <time>2019-09-08T09:28:19Z</time>
   </trkpt>
   <trkpt lat="51.1509230" lon="5.7418310">
    <ele>31.2</ele>
    <time>2019-09-08T09:28:20Z</time>
   </trkpt>
   <trkpt lat="51.1508530" lon="5.7418340">
    <ele>31.2</ele>
    <time>2019-09-08T09:28:21Z</time>
   </trkpt>
   <trkpt lat="51.1507700" lon="5.7418370">
    <ele>31.2</ele>
    <time>2019-09-08T09:28:22Z</time>
   </trkpt>
   <trkpt lat="51.1506980" lon="5.7418370">
    <ele>31.2</ele>
    <time>2019-09-08T09:28:23Z</time>
   </trkpt>
   <trkpt lat="51.1506250" lon="5.7418370">
    <ele>31.2</ele>
    <time>2019-09-08T09:28:24Z</time>
   </trkpt>
   <trkpt lat="51.1505540" lon="5.7418410">
    <ele>31.2</ele>
    <time>2019-09-08T09:28:25Z</time>
   </trkpt>
   <trkpt lat="51.1504820" lon="5.7418470">
    <ele>31.3</ele>
    <time>2019-09-08T09:28:26Z</time>
   </trkpt>
   <trkpt lat="51.1504090" lon="5.7418530">
    <ele>31.3</ele>
    <time>2019-09-08T09:28:27Z</time>
   </trkpt>
   <trkpt lat="51.1503350" lon="5.7418440">
    <ele>31.3</ele>
    <time>2019-09-08T09:28:28Z</time>
   </trkpt>
   <trkpt lat="51.1502640" lon="5.7418460">
    <ele>31.3</ele>
    <time>2019-09-08T09:28:29Z</time>
   </trkpt>
   <trkpt lat="51.1501860" lon="5.7418540">
    <ele>31.3</ele>
    <time>2019-09-08T09:28:30Z</time>
   </trkpt>
   <trkpt lat="51.1501200" lon="5.7418590">
    <ele>31.3</ele>
    <time>2019-09-08T09:28:31Z</time>
   </trkpt>
   <trkpt lat="51.1500510" lon="5.7418530">
    <ele>31.3</ele>
    <time>2019-09-08T09:28:32Z</time>
   </trkpt>
   <trkpt lat="51.1499800" lon="5.7418630">
    <ele>31.3</ele>
    <time>2019-09-08T09:28:33Z</time>
   </trkpt>
   <trkpt lat="51.1499020" lon="5.7418680">
    <ele>31.3</ele>
    <time>2019-09-08T09:28:34Z</time>
   </trkpt>
   <trkpt lat="51.1498340" lon="5.7418570">
    <ele>31.3</ele>
    <time>2019-09-08T09:28:35Z</time>
   </trkpt>
   <trkpt lat="51.1497680" lon="5.7418550">
    <ele>31.3</ele>
    <time>2019-09-08T09:28:36Z</time>
   </trkpt>
   <trkpt lat="51.1496910" lon="5.7418550">
    <ele>31.4</ele>
    <time>2019-09-08T09:28:37Z</time>
   </trkpt>
   <trkpt lat="51.1496160" lon="5.7418510">
    <ele>31.4</ele>
    <time>2019-09-08T09:28:38Z</time>
   </trkpt>
   <trkpt lat="51.1495410" lon="5.7418580">
    <ele>31.5</ele>
    <time>2019-09-08T09:28:39Z</time>
   </trkpt>
   <trkpt lat="51.1494690" lon="5.7418540">
    <ele>31.5</ele>
    <time>2019-09-08T09:28:40Z</time>
   </trkpt>
   <trkpt lat="51.1494020" lon="5.7418430">
    <ele>31.6</ele>
    <time>2019-09-08T09:28:41Z</time>
   </trkpt>
   <trkpt lat="51.1493270" lon="5.7418420">
    <ele>31.7</ele>
    <time>2019-09-08T09:28:42Z</time>
   </trkpt>
   <trkpt lat="51.1492560" lon="5.7418380">
    <ele>31.7</ele>
    <time>2019-09-08T09:28:43Z</time>
   </trkpt>
   <trkpt lat="51.1491880" lon="5.7418320">
    <ele>31.8</ele>
    <time>2019-09-08T09:28:44Z</time>
   </trkpt>
   <trkpt lat="51.1491160" lon="5.7418290">
    <ele>31.8</ele>
    <time>2019-09-08T09:28:45Z</time>
   </trkpt>
   <trkpt lat="51.1490410" lon="5.7418330">
    <ele>31.9</ele>
    <time>2019-09-08T09:28:46Z</time>
   </trkpt>
   <trkpt lat="51.1489700" lon="5.7418190">
    <ele>31.9</ele>
    <time>2019-09-08T09:28:47Z</time>
   </trkpt>
   <trkpt lat="51.1488960" lon="5.7418080">
    <ele>32.0</ele>
    <time>2019-09-08T09:28:48Z</time>
   </trkpt>
   <trkpt lat="51.1488210" lon="5.7418030">
    <ele>32.1</ele>
    <time>2019-09-08T09:28:49Z</time>
   </trkpt>
   <trkpt lat="51.1487460" lon="5.7418000">
    <ele>32.2</ele>
    <time>2019-09-08T09:28:50Z</time>
   </trkpt>
   <trkpt lat="51.1486700" lon="5.7418010">
    <ele>32.3</ele>
    <time>2019-09-08T09:28:51Z</time>
   </trkpt>
   <trkpt lat="51.1485970" lon="5.7417930">
    <ele>32.3</ele>
    <time>2019-09-08T09:28:52Z</time>
   </trkpt>
   <trkpt lat="51.1485280" lon="5.7417950">
    <ele>32.2</ele>
    <time>2019-09-08T09:28:53Z</time>
   </trkpt>
   <trkpt lat="51.1484540" lon="5.7417890">
    <ele>32.2</ele>
    <time>2019-09-08T09:28:54Z</time>
   </trkpt>
   <trkpt lat="51.1483780" lon="5.7417790">
    <ele>32.2</ele>
    <time>2019-09-08T09:28:55Z</time>
   </trkpt>
   <trkpt lat="51.1483030" lon="5.7417770">
    <ele>32.2</ele>
    <time>2019-09-08T09:28:56Z</time>
   </trkpt>
   <trkpt lat="51.1482290" lon="5.7417730">
    <ele>32.2</ele>
    <time>2019-09-08T09:28:57Z</time>
   </trkpt>
   <trkpt lat="51.1481540" lon="5.7417710">
    <ele>32.2</ele>
    <time>2019-09-08T09:28:58Z</time>
   </trkpt>
   <trkpt lat="51.1480770" lon="5.7417750">
    <ele>32.2</ele>
    <time>2019-09-08T09:28:59Z</time>
   </trkpt>
   <trkpt lat="51.1480040" lon="5.7417770">
    <ele>32.2</ele>
    <time>2019-09-08T09:29:00Z</time>
   </trkpt>
   <trkpt lat="51.1479270" lon="5.7417750">
    <ele>32.2</ele>
    <time>2019-09-08T09:29:01Z</time>
   </trkpt>
   <trkpt lat="51.1478510" lon="5.7417800">
    <ele>32.2</ele>
    <time>2019-09-08T09:29:02Z</time>
   </trkpt>
   <trkpt lat="51.1477730" lon="5.7417870">
    <ele>32.2</ele>
    <time>2019-09-08T09:29:03Z</time>
   </trkpt>
   <trkpt lat="51.1477000" lon="5.7417940">
    <ele>32.3</ele>
    <time>2019-09-08T09:29:04Z</time>
   </trkpt>
   <trkpt lat="51.1476270" lon="5.7417940">
    <ele>32.3</ele>
    <time>2019-09-08T09:29:05Z</time>
   </trkpt>
   <trkpt lat="51.1475460" lon="5.7417900">
    <ele>32.3</ele>
    <time>2019-09-08T09:29:06Z</time>
   </trkpt>
   <trkpt lat="51.1474720" lon="5.7417850">
    <ele>32.4</ele>
    <time>2019-09-08T09:29:07Z</time>
   </trkpt>
   <trkpt lat="51.1474020" lon="5.7417770">
    <ele>32.4</ele>
    <time>2019-09-08T09:29:08Z</time>
   </trkpt>
   <trkpt lat="51.1473210" lon="5.7417740">
    <ele>32.5</ele>
    <time>2019-09-08T09:29:09Z</time>
   </trkpt>
   <trkpt lat="51.1472440" lon="5.7417710">
    <ele>32.5</ele>
    <time>2019-09-08T09:29:10Z</time>
   </trkpt>
   <trkpt lat="51.1471690" lon="5.7417440">
    <ele>32.6</ele>
    <time>2019-09-08T09:29:11Z</time>
   </trkpt>
   <trkpt lat="51.1470920" lon="5.7417340">
    <ele>32.6</ele>
    <time>2019-09-08T09:29:12Z</time>
   </trkpt>
   <trkpt lat="51.1470210" lon="5.7417380">
    <ele>32.7</ele>
    <time>2019-09-08T09:29:13Z</time>
   </trkpt>
   <trkpt lat="51.1469460" lon="5.7417360">
    <ele>32.7</ele>
    <time>2019-09-08T09:29:14Z</time>
   </trkpt>
   <trkpt lat="51.1468730" lon="5.7417400">
    <ele>32.7</ele>
    <time>2019-09-08T09:29:15Z</time>
   </trkpt>
   <trkpt lat="51.1467960" lon="5.7417410">
    <ele>32.7</ele>
    <time>2019-09-08T09:29:16Z</time>
   </trkpt>
   <trkpt lat="51.1467360" lon="5.7417520">
    <ele>32.7</ele>
    <time>2019-09-08T09:29:17Z</time>
   </trkpt>
   <trkpt lat="51.1466670" lon="5.7417520">
    <ele>32.8</ele>
    <time>2019-09-08T09:29:18Z</time>
   </trkpt>
   <trkpt lat="51.1465900" lon="5.7417560">
    <ele>32.8</ele>
    <time>2019-09-08T09:29:19Z</time>
   </trkpt>
   <trkpt lat="51.1465220" lon="5.7417520">
    <ele>32.8</ele>
    <time>2019-09-08T09:29:20Z</time>
   </trkpt>
   <trkpt lat="51.1464640" lon="5.7417480">
    <ele>32.8</ele>
    <time>2019-09-08T09:29:21Z</time>
   </trkpt>
   <trkpt lat="51.1463950" lon="5.7417310">
    <ele>32.8</ele>
    <time>2019-09-08T09:29:22Z</time>
   </trkpt>
   <trkpt lat="51.1463300" lon="5.7417280">
    <ele>32.8</ele>
    <time>2019-09-08T09:29:23Z</time>
   </trkpt>
   <trkpt lat="51.1462640" lon="5.7417340">
    <ele>32.8</ele>
    <time>2019-09-08T09:29:24Z</time>
   </trkpt>
   <trkpt lat="51.1462010" lon="5.7417340">
    <ele>32.8</ele>
    <time>2019-09-08T09:29:25Z</time>
   </trkpt>
   <trkpt lat="51.1461400" lon="5.7417340">
    <ele>32.8</ele>
    <time>2019-09-08T09:29:26Z</time>
   </trkpt>
   <trkpt lat="51.1460750" lon="5.7417260">
    <ele>32.8</ele>
    <time>2019-09-08T09:29:27Z</time>
   </trkpt>
   <trkpt lat="51.1460100" lon="5.7417210">
    <ele>32.8</ele>
    <time>2019-09-08T09:29:28Z</time>
   </trkpt>
   <trkpt lat="51.1459200" lon="5.7417100">
    <ele>32.8</ele>
    <time>2019-09-08T09:29:29Z</time>
   </trkpt>
   <trkpt lat="51.1458520" lon="5.7416960">
    <ele>32.9</ele>
    <time>2019-09-08T09:29:30Z</time>
   </trkpt>
   <trkpt lat="51.1458030" lon="5.7416900">
    <ele>32.9</ele>
    <time>2019-09-08T09:29:31Z</time>
   </trkpt>
   <trkpt lat="51.1457380" lon="5.7416590">
    <ele>32.9</ele>
    <time>2019-09-08T09:29:32Z</time>
   </trkpt>
   <trkpt lat="51.1456640" lon="5.7416190">
    <ele>32.9</ele>
    <time>2019-09-08T09:29:33Z</time>
   </trkpt>
   <trkpt lat="51.1456290" lon="5.7415860">
    <ele>32.9</ele>
    <time>2019-09-08T09:29:34Z</time>
   </trkpt>
   <trkpt lat="51.1455980" lon="5.7415500">
    <ele>32.9</ele>
    <time>2019-09-08T09:29:35Z</time>
   </trkpt>
   <trkpt lat="51.1455700" lon="5.7415220">
    <ele>32.8</ele>
    <time>2019-09-08T09:29:36Z</time>
   </trkpt>
   <trkpt lat="51.1455370" lon="5.7414980">
    <ele>32.8</ele>
    <time>2019-09-08T09:29:37Z</time>
   </trkpt>
   <trkpt lat="51.1455000" lon="5.7415010">
    <ele>32.8</ele>
    <time>2019-09-08T09:29:38Z</time>
   </trkpt>
   <trkpt lat="51.1454610" lon="5.7415060">
    <ele>32.8</ele>
    <time>2019-09-08T09:29:39Z</time>
   </trkpt>
   <trkpt lat="51.1454250" lon="5.7415450">
    <ele>32.8</ele>
    <time>2019-09-08T09:29:40Z</time>
   </trkpt>
   <trkpt lat="51.1453950" lon="5.7415970">
    <ele>32.8</ele>
    <time>2019-09-08T09:29:41Z</time>
   </trkpt>
   <trkpt lat="51.1453720" lon="5.7416610">
    <ele>32.8</ele>
    <time>2019-09-08T09:29:42Z</time>
   </trkpt>
   <trkpt lat="51.1453830" lon="5.7417470">
    <ele>32.9</ele>
    <time>2019-09-08T09:29:43Z</time>
   </trkpt>
   <trkpt lat="51.1453820" lon="5.7418180">
    <ele>32.9</ele>
    <time>2019-09-08T09:29:44Z</time>
   </trkpt>
   <trkpt lat="51.1454120" lon="5.7418930">
    <ele>32.9</ele>
    <time>2019-09-08T09:29:45Z</time>
   </trkpt>
   <trkpt lat="51.1454550" lon="5.7419470">
    <ele>33.0</ele>
    <time>2019-09-08T09:29:46Z</time>
   </trkpt>
   <trkpt lat="51.1454960" lon="5.7420170">
    <ele>33.0</ele>
    <time>2019-09-08T09:29:47Z</time>
   </trkpt>
   <trkpt lat="51.1455220" lon="5.7420930">
    <ele>33.0</ele>
    <time>2019-09-08T09:29:48Z</time>
   </trkpt>
   <trkpt lat="51.1455540" lon="5.7421670">
    <ele>33.0</ele>
    <time>2019-09-08T09:29:49Z</time>
   </trkpt>
   <trkpt lat="51.1455880" lon="5.7422470">
    <ele>33.0</ele>
    <time>2019-09-08T09:29:50Z</time>
   </trkpt>
   <trkpt lat="51.1456190" lon="5.7423210">
    <ele>33.0</ele>
    <time>2019-09-08T09:29:51Z</time>
   </trkpt>
   <trkpt lat="51.1456480" lon="5.7424160">
    <ele>33.0</ele>
    <time>2019-09-08T09:29:52Z</time>
   </trkpt>
   <trkpt lat="51.1456680" lon="5.7424930">
    <ele>33.0</ele>
    <time>2019-09-08T09:29:53Z</time>
   </trkpt>
   <trkpt lat="51.1456920" lon="5.7425520">
    <ele>33.0</ele>
    <time>2019-09-08T09:29:54Z</time>
   </trkpt>
   <trkpt lat="51.1457090" lon="5.7426400">
    <ele>33.0</ele>
    <time>2019-09-08T09:29:55Z</time>
   </trkpt>
   <trkpt lat="51.1457250" lon="5.7427170">
    <ele>33.0</ele>
    <time>2019-09-08T09:29:56Z</time>
   </trkpt>
   <trkpt lat="51.1457360" lon="5.7428090">
    <ele>33.0</ele>
    <time>2019-09-08T09:29:57Z</time>
   </trkpt>
   <trkpt lat="51.1457470" lon="5.7428910">
    <ele>33.0</ele>
    <time>2019-09-08T09:29:58Z</time>
   </trkpt>
   <trkpt lat="51.1457490" lon="5.7429660">
    <ele>33.0</ele>
    <time>2019-09-08T09:29:59Z</time>
   </trkpt>
   <trkpt lat="51.1457560" lon="5.7430520">
    <ele>33.0</ele>
    <time>2019-09-08T09:30:00Z</time>
   </trkpt>
   <trkpt lat="51.1457690" lon="5.7431260">
    <ele>33.0</ele>
    <time>2019-09-08T09:30:01Z</time>
   </trkpt>
   <trkpt lat="51.1457770" lon="5.7432020">
    <ele>33.0</ele>
    <time>2019-09-08T09:30:02Z</time>
   </trkpt>
   <trkpt lat="51.1458080" lon="5.7432320">
    <ele>33.0</ele>
    <time>2019-09-08T09:30:03Z</time>
   </trkpt>
   <trkpt lat="51.1458410" lon="5.7432390">
    <ele>33.0</ele>
    <time>2019-09-08T09:30:04Z</time>
   </trkpt>
   <trkpt lat="51.1458780" lon="5.7432320">
    <ele>33.0</ele>
    <time>2019-09-08T09:30:05Z</time>
   </trkpt>
   <trkpt lat="51.1459080" lon="5.7432120">
    <ele>33.0</ele>
    <time>2019-09-08T09:30:06Z</time>
   </trkpt>
   <trkpt lat="51.1459360" lon="5.7431960">
    <ele>32.9</ele>
    <time>2019-09-08T09:30:07Z</time>
   </trkpt>
   <trkpt lat="51.1459670" lon="5.7431820">
    <ele>32.9</ele>
    <time>2019-09-08T09:30:08Z</time>
   </trkpt>
   <trkpt lat="51.1459980" lon="5.7431800">
    <ele>32.9</ele>
    <time>2019-09-08T09:30:09Z</time>
   </trkpt>
   <trkpt lat="51.1460230" lon="5.7431990">
    <ele>32.9</ele>
    <time>2019-09-08T09:30:10Z</time>
   </trkpt>
   <trkpt lat="51.1460570" lon="5.7432200">
    <ele>32.9</ele>
    <time>2019-09-08T09:30:12Z</time>
   </trkpt>
   <trkpt lat="51.1460650" lon="5.7431780">
    <ele>32.9</ele>
    <time>2019-09-08T09:30:28Z</time>
   </trkpt>
   <trkpt lat="51.1460340" lon="5.7431860">
    <ele>32.9</ele>
    <time>2019-09-08T09:30:45Z</time>
   </trkpt>
   <trkpt lat="51.1460050" lon="5.7431860">
    <ele>32.9</ele>
    <time>2019-09-08T09:30:47Z</time>
   </trkpt>
  </trkseg>
 </trk>
</gpx>
